<?xml version="1.0" encoding="UTF-8" standalone="no" ?>
<gpx xmlns="http://www.topografix.com/GPX/1/1" xmlns:xsi="http://www.w3.org/2001/XMLSchema-instance" xsi:schemaLocation="http://www.topografix.com/GPX/1/1 http://www.topografix.com/GPX/1/1/gpx.xsd" version="1.1" creator="VisuGPX - https://www.visugpx.com">
  <metadata>
    <name>Dents de la Roche Forcade</name>
  </metadata>
  <trk>
    <name><![CDATA[Dents de la Roche Forcade_1]]></name>
    <trkseg>
      <trkpt lat="43.31548" lon="5.66184">
        <ele>724</ele>
        <time>2019-11-29T07:39:40.000Z</time>
      </trkpt>
      <trkpt lat="43.31548" lon="5.66184">
        <ele>723</ele>
        <time>2019-11-29T07:39:41.000Z</time>
      </trkpt>
      <trkpt lat="43.31548" lon="5.66184">
        <ele>723</ele>
        <time>2019-11-29T07:39:42.000Z</time>
      </trkpt>
      <trkpt lat="43.31548" lon="5.66184">
        <ele>723</ele>
        <time>2019-11-29T07:39:43.000Z</time>
      </trkpt>
      <trkpt lat="43.31548" lon="5.66184">
        <ele>723</ele>
        <time>2019-11-29T07:39:44.000Z</time>
      </trkpt>
      <trkpt lat="43.31548" lon="5.66184">
        <ele>723</ele>
        <time>2019-11-29T07:39:45.000Z</time>
      </trkpt>
      <trkpt lat="43.31548" lon="5.66184">
        <ele>723</ele>
        <time>2019-11-29T07:39:46.000Z</time>
      </trkpt>
      <trkpt lat="43.31548" lon="5.66184">
        <ele>723</ele>
        <time>2019-11-29T07:39:47.000Z</time>
      </trkpt>
      <trkpt lat="43.31548" lon="5.66184">
        <ele>723</ele>
        <time>2019-11-29T07:39:48.000Z</time>
      </trkpt>
      <trkpt lat="43.31548" lon="5.66184">
        <ele>723</ele>
        <time>2019-11-29T07:39:49.000Z</time>
      </trkpt>
      <trkpt lat="43.31548" lon="5.66184">
        <ele>723</ele>
        <time>2019-11-29T07:39:50.000Z</time>
      </trkpt>
      <trkpt lat="43.31548" lon="5.66184">
        <ele>723</ele>
        <time>2019-11-29T07:39:51.000Z</time>
      </trkpt>
      <trkpt lat="43.31548" lon="5.66184">
        <ele>723</ele>
        <time>2019-11-29T07:39:52.000Z</time>
      </trkpt>
      <trkpt lat="43.31548" lon="5.66183">
        <ele>723</ele>
        <time>2019-11-29T07:39:53.000Z</time>
      </trkpt>
      <trkpt lat="43.31548" lon="5.66183">
        <ele>723</ele>
        <time>2019-11-29T07:39:54.000Z</time>
      </trkpt>
      <trkpt lat="43.31548" lon="5.66183">
        <ele>723</ele>
        <time>2019-11-29T07:39:55.000Z</time>
      </trkpt>
      <trkpt lat="43.31548" lon="5.66183">
        <ele>723</ele>
        <time>2019-11-29T07:39:56.000Z</time>
      </trkpt>
      <trkpt lat="43.31548" lon="5.66183">
        <ele>723</ele>
        <time>2019-11-29T07:39:57.000Z</time>
      </trkpt>
      <trkpt lat="43.31548" lon="5.66183">
        <ele>723</ele>
        <time>2019-11-29T07:39:58.000Z</time>
      </trkpt>
      <trkpt lat="43.31548" lon="5.66183">
        <ele>723</ele>
        <time>2019-11-29T07:39:59.000Z</time>
      </trkpt>
      <trkpt lat="43.31549" lon="5.66183">
        <ele>723</ele>
        <time>2019-11-29T07:40:00.000Z</time>
      </trkpt>
      <trkpt lat="43.31549" lon="5.66183">
        <ele>723</ele>
        <time>2019-11-29T07:40:01.000Z</time>
      </trkpt>
      <trkpt lat="43.31549" lon="5.66183">
        <ele>723</ele>
        <time>2019-11-29T07:40:02.000Z</time>
      </trkpt>
      <trkpt lat="43.31549" lon="5.66183">
        <ele>723</ele>
        <time>2019-11-29T07:40:03.000Z</time>
      </trkpt>
      <trkpt lat="43.31549" lon="5.66183">
        <ele>723</ele>
        <time>2019-11-29T07:40:04.000Z</time>
      </trkpt>
      <trkpt lat="43.31549" lon="5.66182">
        <ele>723</ele>
        <time>2019-11-29T07:40:05.000Z</time>
      </trkpt>
      <trkpt lat="43.31549" lon="5.66182">
        <ele>723</ele>
        <time>2019-11-29T07:40:06.000Z</time>
      </trkpt>
      <trkpt lat="43.31549" lon="5.66183">
        <ele>723</ele>
        <time>2019-11-29T07:40:07.000Z</time>
      </trkpt>
      <trkpt lat="43.31549" lon="5.66183">
        <ele>723</ele>
        <time>2019-11-29T07:40:08.000Z</time>
      </trkpt>
      <trkpt lat="43.31549" lon="5.66183">
        <ele>723</ele>
        <time>2019-11-29T07:40:09.000Z</time>
      </trkpt>
      <trkpt lat="43.31548" lon="5.66183">
        <ele>723</ele>
        <time>2019-11-29T07:40:10.000Z</time>
      </trkpt>
      <trkpt lat="43.31549" lon="5.66182">
        <ele>723</ele>
        <time>2019-11-29T07:40:11.000Z</time>
      </trkpt>
      <trkpt lat="43.31549" lon="5.66182">
        <ele>723</ele>
        <time>2019-11-29T07:40:12.000Z</time>
      </trkpt>
      <trkpt lat="43.31549" lon="5.66182">
        <ele>723</ele>
        <time>2019-11-29T07:40:13.000Z</time>
      </trkpt>
      <trkpt lat="43.31549" lon="5.66182">
        <ele>723</ele>
        <time>2019-11-29T07:40:14.000Z</time>
      </trkpt>
      <trkpt lat="43.31549" lon="5.66182">
        <ele>723</ele>
        <time>2019-11-29T07:40:15.000Z</time>
      </trkpt>
      <trkpt lat="43.31549" lon="5.66182">
        <ele>724</ele>
        <time>2019-11-29T07:40:16.000Z</time>
      </trkpt>
      <trkpt lat="43.31549" lon="5.66182">
        <ele>724</ele>
        <time>2019-11-29T07:40:17.000Z</time>
      </trkpt>
      <trkpt lat="43.31549" lon="5.66182">
        <ele>724</ele>
        <time>2019-11-29T07:40:18.000Z</time>
      </trkpt>
      <trkpt lat="43.31549" lon="5.66182">
        <ele>724</ele>
        <time>2019-11-29T07:40:19.000Z</time>
      </trkpt>
      <trkpt lat="43.31549" lon="5.66182">
        <ele>724</ele>
        <time>2019-11-29T07:40:20.000Z</time>
      </trkpt>
      <trkpt lat="43.31549" lon="5.66182">
        <ele>724</ele>
        <time>2019-11-29T07:40:21.000Z</time>
      </trkpt>
      <trkpt lat="43.31549" lon="5.66182">
        <ele>724</ele>
        <time>2019-11-29T07:40:22.000Z</time>
      </trkpt>
      <trkpt lat="43.31549" lon="5.66182">
        <ele>724</ele>
        <time>2019-11-29T07:40:23.000Z</time>
      </trkpt>
      <trkpt lat="43.31549" lon="5.66182">
        <ele>724</ele>
        <time>2019-11-29T07:40:24.000Z</time>
      </trkpt>
      <trkpt lat="43.31549" lon="5.66182">
        <ele>724</ele>
        <time>2019-11-29T07:40:25.000Z</time>
      </trkpt>
      <trkpt lat="43.31549" lon="5.66183">
        <ele>724</ele>
        <time>2019-11-29T07:40:26.000Z</time>
      </trkpt>
      <trkpt lat="43.31549" lon="5.66183">
        <ele>724</ele>
        <time>2019-11-29T07:40:27.000Z</time>
      </trkpt>
      <trkpt lat="43.31548" lon="5.66183">
        <ele>724</ele>
        <time>2019-11-29T07:40:28.000Z</time>
      </trkpt>
      <trkpt lat="43.31548" lon="5.66183">
        <ele>724</ele>
        <time>2019-11-29T07:40:29.000Z</time>
      </trkpt>
      <trkpt lat="43.31548" lon="5.66183">
        <ele>724</ele>
        <time>2019-11-29T07:40:30.000Z</time>
      </trkpt>
      <trkpt lat="43.31548" lon="5.66183">
        <ele>724</ele>
        <time>2019-11-29T07:40:31.000Z</time>
      </trkpt>
      <trkpt lat="43.31548" lon="5.66183">
        <ele>724</ele>
        <time>2019-11-29T07:40:32.000Z</time>
      </trkpt>
      <trkpt lat="43.31548" lon="5.66183">
        <ele>724</ele>
        <time>2019-11-29T07:40:33.000Z</time>
      </trkpt>
      <trkpt lat="43.31548" lon="5.66183">
        <ele>724</ele>
        <time>2019-11-29T07:40:34.000Z</time>
      </trkpt>
      <trkpt lat="43.31548" lon="5.66183">
        <ele>724</ele>
        <time>2019-11-29T07:40:35.000Z</time>
      </trkpt>
      <trkpt lat="43.31548" lon="5.66183">
        <ele>724</ele>
        <time>2019-11-29T07:40:36.000Z</time>
      </trkpt>
      <trkpt lat="43.31548" lon="5.66183">
        <ele>724</ele>
        <time>2019-11-29T07:40:37.000Z</time>
      </trkpt>
      <trkpt lat="43.31548" lon="5.66183">
        <ele>724</ele>
        <time>2019-11-29T07:40:38.000Z</time>
      </trkpt>
      <trkpt lat="43.31548" lon="5.66183">
        <ele>724</ele>
        <time>2019-11-29T07:40:39.000Z</time>
      </trkpt>
      <trkpt lat="43.31548" lon="5.66183">
        <ele>724</ele>
        <time>2019-11-29T07:40:40.000Z</time>
      </trkpt>
      <trkpt lat="43.31548" lon="5.66183">
        <ele>724</ele>
        <time>2019-11-29T07:40:41.000Z</time>
      </trkpt>
      <trkpt lat="43.31548" lon="5.66183">
        <ele>724</ele>
        <time>2019-11-29T07:40:42.000Z</time>
      </trkpt>
      <trkpt lat="43.31548" lon="5.66183">
        <ele>724</ele>
        <time>2019-11-29T07:40:43.000Z</time>
      </trkpt>
      <trkpt lat="43.31548" lon="5.66183">
        <ele>724</ele>
        <time>2019-11-29T07:40:44.000Z</time>
      </trkpt>
      <trkpt lat="43.31548" lon="5.66183">
        <ele>724</ele>
        <time>2019-11-29T07:40:45.000Z</time>
      </trkpt>
      <trkpt lat="43.31548" lon="5.66183">
        <ele>724</ele>
        <time>2019-11-29T07:40:46.000Z</time>
      </trkpt>
      <trkpt lat="43.31548" lon="5.66183">
        <ele>724</ele>
        <time>2019-11-29T07:40:47.000Z</time>
      </trkpt>
      <trkpt lat="43.31548" lon="5.66183">
        <ele>724</ele>
        <time>2019-11-29T07:40:48.000Z</time>
      </trkpt>
      <trkpt lat="43.31547" lon="5.66184">
        <ele>724</ele>
        <time>2019-11-29T07:40:49.000Z</time>
      </trkpt>
      <trkpt lat="43.31546" lon="5.66185">
        <ele>724</ele>
        <time>2019-11-29T07:40:50.000Z</time>
      </trkpt>
      <trkpt lat="43.31545" lon="5.66186">
        <ele>724</ele>
        <time>2019-11-29T07:40:51.000Z</time>
      </trkpt>
      <trkpt lat="43.31544" lon="5.66188">
        <ele>724</ele>
        <time>2019-11-29T07:40:52.000Z</time>
      </trkpt>
      <trkpt lat="43.31544" lon="5.66189">
        <ele>724</ele>
        <time>2019-11-29T07:40:53.000Z</time>
      </trkpt>
      <trkpt lat="43.31543" lon="5.6619">
        <ele>724</ele>
        <time>2019-11-29T07:40:54.000Z</time>
      </trkpt>
      <trkpt lat="43.31542" lon="5.66191">
        <ele>724</ele>
        <time>2019-11-29T07:40:55.000Z</time>
      </trkpt>
      <trkpt lat="43.31542" lon="5.66192">
        <ele>724</ele>
        <time>2019-11-29T07:40:56.000Z</time>
      </trkpt>
      <trkpt lat="43.31541" lon="5.66193">
        <ele>724</ele>
        <time>2019-11-29T07:40:57.000Z</time>
      </trkpt>
      <trkpt lat="43.31541" lon="5.66195">
        <ele>724</ele>
        <time>2019-11-29T07:40:58.000Z</time>
      </trkpt>
      <trkpt lat="43.31541" lon="5.66195">
        <ele>724</ele>
        <time>2019-11-29T07:40:59.000Z</time>
      </trkpt>
      <trkpt lat="43.31541" lon="5.66195">
        <ele>725</ele>
        <time>2019-11-29T07:41:00.000Z</time>
      </trkpt>
      <trkpt lat="43.31541" lon="5.66195">
        <ele>725</ele>
        <time>2019-11-29T07:41:01.000Z</time>
      </trkpt>
      <trkpt lat="43.31541" lon="5.66195">
        <ele>725</ele>
        <time>2019-11-29T07:41:02.000Z</time>
      </trkpt>
      <trkpt lat="43.31541" lon="5.66195">
        <ele>725</ele>
        <time>2019-11-29T07:41:03.000Z</time>
      </trkpt>
      <trkpt lat="43.31541" lon="5.66195">
        <ele>725</ele>
        <time>2019-11-29T07:41:04.000Z</time>
      </trkpt>
      <trkpt lat="43.31541" lon="5.66195">
        <ele>725</ele>
        <time>2019-11-29T07:41:05.000Z</time>
      </trkpt>
      <trkpt lat="43.31541" lon="5.66195">
        <ele>725</ele>
        <time>2019-11-29T07:41:06.000Z</time>
      </trkpt>
      <trkpt lat="43.31541" lon="5.66195">
        <ele>725</ele>
        <time>2019-11-29T07:41:07.000Z</time>
      </trkpt>
      <trkpt lat="43.31541" lon="5.66195">
        <ele>725</ele>
        <time>2019-11-29T07:41:08.000Z</time>
      </trkpt>
      <trkpt lat="43.31541" lon="5.66195">
        <ele>724</ele>
        <time>2019-11-29T07:41:09.000Z</time>
      </trkpt>
      <trkpt lat="43.31541" lon="5.66195">
        <ele>724</ele>
        <time>2019-11-29T07:41:10.000Z</time>
      </trkpt>
      <trkpt lat="43.31541" lon="5.66195">
        <ele>724</ele>
        <time>2019-11-29T07:41:11.000Z</time>
      </trkpt>
      <trkpt lat="43.31541" lon="5.66195">
        <ele>724</ele>
        <time>2019-11-29T07:41:12.000Z</time>
      </trkpt>
      <trkpt lat="43.31541" lon="5.66195">
        <ele>724</ele>
        <time>2019-11-29T07:41:13.000Z</time>
      </trkpt>
      <trkpt lat="43.31541" lon="5.66195">
        <ele>724</ele>
        <time>2019-11-29T07:41:14.000Z</time>
      </trkpt>
      <trkpt lat="43.31541" lon="5.66195">
        <ele>724</ele>
        <time>2019-11-29T07:41:15.000Z</time>
      </trkpt>
      <trkpt lat="43.31541" lon="5.66194">
        <ele>724</ele>
        <time>2019-11-29T07:41:16.000Z</time>
      </trkpt>
      <trkpt lat="43.31541" lon="5.66194">
        <ele>724</ele>
        <time>2019-11-29T07:41:17.000Z</time>
      </trkpt>
      <trkpt lat="43.31541" lon="5.66194">
        <ele>724</ele>
        <time>2019-11-29T07:41:18.000Z</time>
      </trkpt>
      <trkpt lat="43.31541" lon="5.66194">
        <ele>724</ele>
        <time>2019-11-29T07:41:19.000Z</time>
      </trkpt>
      <trkpt lat="43.31541" lon="5.66194">
        <ele>724</ele>
        <time>2019-11-29T07:41:20.000Z</time>
      </trkpt>
      <trkpt lat="43.31541" lon="5.66194">
        <ele>724</ele>
        <time>2019-11-29T07:41:21.000Z</time>
      </trkpt>
      <trkpt lat="43.31541" lon="5.66194">
        <ele>724</ele>
        <time>2019-11-29T07:41:22.000Z</time>
      </trkpt>
      <trkpt lat="43.31541" lon="5.66194">
        <ele>724</ele>
        <time>2019-11-29T07:41:23.000Z</time>
      </trkpt>
      <trkpt lat="43.31541" lon="5.66194">
        <ele>724</ele>
        <time>2019-11-29T07:41:24.000Z</time>
      </trkpt>
      <trkpt lat="43.31541" lon="5.66194">
        <ele>724</ele>
        <time>2019-11-29T07:41:25.000Z</time>
      </trkpt>
      <trkpt lat="43.31541" lon="5.66194">
        <ele>724</ele>
        <time>2019-11-29T07:41:26.000Z</time>
      </trkpt>
      <trkpt lat="43.31541" lon="5.66194">
        <ele>724</ele>
        <time>2019-11-29T07:41:27.000Z</time>
      </trkpt>
      <trkpt lat="43.31541" lon="5.66194">
        <ele>724</ele>
        <time>2019-11-29T07:41:28.000Z</time>
      </trkpt>
      <trkpt lat="43.31541" lon="5.66194">
        <ele>724</ele>
        <time>2019-11-29T07:41:29.000Z</time>
      </trkpt>
      <trkpt lat="43.31541" lon="5.66194">
        <ele>724</ele>
        <time>2019-11-29T07:41:30.000Z</time>
      </trkpt>
      <trkpt lat="43.31541" lon="5.66194">
        <ele>724</ele>
        <time>2019-11-29T07:41:31.000Z</time>
      </trkpt>
      <trkpt lat="43.31541" lon="5.66194">
        <ele>724</ele>
        <time>2019-11-29T07:41:32.000Z</time>
      </trkpt>
      <trkpt lat="43.31541" lon="5.66194">
        <ele>724</ele>
        <time>2019-11-29T07:41:33.000Z</time>
      </trkpt>
      <trkpt lat="43.31541" lon="5.66194">
        <ele>724</ele>
        <time>2019-11-29T07:41:34.000Z</time>
      </trkpt>
      <trkpt lat="43.31541" lon="5.66194">
        <ele>724</ele>
        <time>2019-11-29T07:41:35.000Z</time>
      </trkpt>
      <trkpt lat="43.31541" lon="5.66194">
        <ele>724</ele>
        <time>2019-11-29T07:41:36.000Z</time>
      </trkpt>
      <trkpt lat="43.31541" lon="5.66194">
        <ele>724</ele>
        <time>2019-11-29T07:41:37.000Z</time>
      </trkpt>
      <trkpt lat="43.31541" lon="5.66194">
        <ele>724</ele>
        <time>2019-11-29T07:41:38.000Z</time>
      </trkpt>
      <trkpt lat="43.31541" lon="5.66194">
        <ele>724</ele>
        <time>2019-11-29T07:41:39.000Z</time>
      </trkpt>
      <trkpt lat="43.31541" lon="5.66194">
        <ele>724</ele>
        <time>2019-11-29T07:41:40.000Z</time>
      </trkpt>
      <trkpt lat="43.31541" lon="5.66194">
        <ele>724</ele>
        <time>2019-11-29T07:41:41.000Z</time>
      </trkpt>
      <trkpt lat="43.31541" lon="5.66194">
        <ele>724</ele>
        <time>2019-11-29T07:41:42.000Z</time>
      </trkpt>
      <trkpt lat="43.31541" lon="5.66194">
        <ele>724</ele>
        <time>2019-11-29T07:41:43.000Z</time>
      </trkpt>
      <trkpt lat="43.31541" lon="5.66194">
        <ele>724</ele>
        <time>2019-11-29T07:41:44.000Z</time>
      </trkpt>
      <trkpt lat="43.31541" lon="5.66194">
        <ele>724</ele>
        <time>2019-11-29T07:41:45.000Z</time>
      </trkpt>
      <trkpt lat="43.31541" lon="5.66194">
        <ele>724</ele>
        <time>2019-11-29T07:41:46.000Z</time>
      </trkpt>
      <trkpt lat="43.31541" lon="5.66194">
        <ele>724</ele>
        <time>2019-11-29T07:41:47.000Z</time>
      </trkpt>
      <trkpt lat="43.31541" lon="5.66194">
        <ele>724</ele>
        <time>2019-11-29T07:41:48.000Z</time>
      </trkpt>
      <trkpt lat="43.31541" lon="5.66194">
        <ele>724</ele>
        <time>2019-11-29T07:41:49.000Z</time>
      </trkpt>
      <trkpt lat="43.31541" lon="5.66194">
        <ele>724</ele>
        <time>2019-11-29T07:41:50.000Z</time>
      </trkpt>
      <trkpt lat="43.31541" lon="5.66194">
        <ele>724</ele>
        <time>2019-11-29T07:41:51.000Z</time>
      </trkpt>
      <trkpt lat="43.31541" lon="5.66194">
        <ele>724</ele>
        <time>2019-11-29T07:41:52.000Z</time>
      </trkpt>
      <trkpt lat="43.31541" lon="5.66194">
        <ele>724</ele>
        <time>2019-11-29T07:41:53.000Z</time>
      </trkpt>
      <trkpt lat="43.31541" lon="5.66194">
        <ele>724</ele>
        <time>2019-11-29T07:41:54.000Z</time>
      </trkpt>
      <trkpt lat="43.31541" lon="5.66194">
        <ele>724</ele>
        <time>2019-11-29T07:41:55.000Z</time>
      </trkpt>
      <trkpt lat="43.31541" lon="5.66194">
        <ele>724</ele>
        <time>2019-11-29T07:41:56.000Z</time>
      </trkpt>
      <trkpt lat="43.31541" lon="5.66194">
        <ele>724</ele>
        <time>2019-11-29T07:41:57.000Z</time>
      </trkpt>
      <trkpt lat="43.31541" lon="5.66194">
        <ele>724</ele>
        <time>2019-11-29T07:41:58.000Z</time>
      </trkpt>
      <trkpt lat="43.31541" lon="5.66194">
        <ele>724</ele>
        <time>2019-11-29T07:41:59.000Z</time>
      </trkpt>
      <trkpt lat="43.31541" lon="5.66194">
        <ele>724</ele>
        <time>2019-11-29T07:42:00.000Z</time>
      </trkpt>
      <trkpt lat="43.31541" lon="5.66194">
        <ele>724</ele>
        <time>2019-11-29T07:42:01.000Z</time>
      </trkpt>
      <trkpt lat="43.31541" lon="5.66194">
        <ele>724</ele>
        <time>2019-11-29T07:42:02.000Z</time>
      </trkpt>
      <trkpt lat="43.31541" lon="5.66194">
        <ele>724</ele>
        <time>2019-11-29T07:42:03.000Z</time>
      </trkpt>
      <trkpt lat="43.31541" lon="5.66194">
        <ele>724</ele>
        <time>2019-11-29T07:42:04.000Z</time>
      </trkpt>
      <trkpt lat="43.31541" lon="5.66194">
        <ele>724</ele>
        <time>2019-11-29T07:42:05.000Z</time>
      </trkpt>
      <trkpt lat="43.31541" lon="5.66194">
        <ele>724</ele>
        <time>2019-11-29T07:42:06.000Z</time>
      </trkpt>
      <trkpt lat="43.3154" lon="5.66194">
        <ele>724</ele>
        <time>2019-11-29T07:42:07.000Z</time>
      </trkpt>
      <trkpt lat="43.3154" lon="5.66193">
        <ele>724</ele>
        <time>2019-11-29T07:42:08.000Z</time>
      </trkpt>
      <trkpt lat="43.3154" lon="5.66192">
        <ele>724</ele>
        <time>2019-11-29T07:42:09.000Z</time>
      </trkpt>
      <trkpt lat="43.3154" lon="5.66191">
        <ele>724</ele>
        <time>2019-11-29T07:42:10.000Z</time>
      </trkpt>
      <trkpt lat="43.31541" lon="5.6619">
        <ele>724</ele>
        <time>2019-11-29T07:42:11.000Z</time>
      </trkpt>
      <trkpt lat="43.31542" lon="5.66188">
        <ele>724</ele>
        <time>2019-11-29T07:42:12.000Z</time>
      </trkpt>
      <trkpt lat="43.31542" lon="5.66187">
        <ele>724</ele>
        <time>2019-11-29T07:42:13.000Z</time>
      </trkpt>
      <trkpt lat="43.31543" lon="5.66186">
        <ele>724</ele>
        <time>2019-11-29T07:42:14.000Z</time>
      </trkpt>
      <trkpt lat="43.31544" lon="5.66185">
        <ele>724</ele>
        <time>2019-11-29T07:42:15.000Z</time>
      </trkpt>
      <trkpt lat="43.31545" lon="5.66184">
        <ele>724</ele>
        <time>2019-11-29T07:42:16.000Z</time>
      </trkpt>
      <trkpt lat="43.31547" lon="5.66183">
        <ele>724</ele>
        <time>2019-11-29T07:42:17.000Z</time>
      </trkpt>
      <trkpt lat="43.31547" lon="5.66184">
        <ele>724</ele>
        <time>2019-11-29T07:42:18.000Z</time>
      </trkpt>
      <trkpt lat="43.31547" lon="5.66185">
        <ele>724</ele>
        <time>2019-11-29T07:42:19.000Z</time>
      </trkpt>
      <trkpt lat="43.31547" lon="5.66185">
        <ele>724</ele>
        <time>2019-11-29T07:42:20.000Z</time>
      </trkpt>
      <trkpt lat="43.31548" lon="5.66185">
        <ele>724</ele>
        <time>2019-11-29T07:42:21.000Z</time>
      </trkpt>
      <trkpt lat="43.31548" lon="5.66184">
        <ele>724</ele>
        <time>2019-11-29T07:42:22.000Z</time>
      </trkpt>
      <trkpt lat="43.31548" lon="5.66185">
        <ele>724</ele>
        <time>2019-11-29T07:42:23.000Z</time>
      </trkpt>
      <trkpt lat="43.31548" lon="5.66184">
        <ele>724</ele>
        <time>2019-11-29T07:42:24.000Z</time>
      </trkpt>
      <trkpt lat="43.31548" lon="5.66184">
        <ele>724</ele>
        <time>2019-11-29T07:42:25.000Z</time>
      </trkpt>
      <trkpt lat="43.31548" lon="5.66183">
        <ele>724</ele>
        <time>2019-11-29T07:42:26.000Z</time>
      </trkpt>
      <trkpt lat="43.31548" lon="5.66183">
        <ele>724</ele>
        <time>2019-11-29T07:42:27.000Z</time>
      </trkpt>
      <trkpt lat="43.31548" lon="5.66183">
        <ele>724</ele>
        <time>2019-11-29T07:42:28.000Z</time>
      </trkpt>
      <trkpt lat="43.31548" lon="5.66183">
        <ele>724</ele>
        <time>2019-11-29T07:42:29.000Z</time>
      </trkpt>
      <trkpt lat="43.31548" lon="5.66183">
        <ele>724</ele>
        <time>2019-11-29T07:42:30.000Z</time>
      </trkpt>
      <trkpt lat="43.31548" lon="5.66183">
        <ele>724</ele>
        <time>2019-11-29T07:42:31.000Z</time>
      </trkpt>
      <trkpt lat="43.31548" lon="5.66183">
        <ele>724</ele>
        <time>2019-11-29T07:42:32.000Z</time>
      </trkpt>
      <trkpt lat="43.31548" lon="5.66183">
        <ele>724</ele>
        <time>2019-11-29T07:42:33.000Z</time>
      </trkpt>
      <trkpt lat="43.31548" lon="5.66182">
        <ele>724</ele>
        <time>2019-11-29T07:42:34.000Z</time>
      </trkpt>
      <trkpt lat="43.31548" lon="5.66182">
        <ele>724</ele>
        <time>2019-11-29T07:42:35.000Z</time>
      </trkpt>
      <trkpt lat="43.31548" lon="5.66182">
        <ele>724</ele>
        <time>2019-11-29T07:42:36.000Z</time>
      </trkpt>
      <trkpt lat="43.31548" lon="5.66182">
        <ele>724</ele>
        <time>2019-11-29T07:42:37.000Z</time>
      </trkpt>
      <trkpt lat="43.31548" lon="5.66182">
        <ele>724</ele>
        <time>2019-11-29T07:42:38.000Z</time>
      </trkpt>
      <trkpt lat="43.31548" lon="5.66182">
        <ele>724</ele>
        <time>2019-11-29T07:42:39.000Z</time>
      </trkpt>
      <trkpt lat="43.31549" lon="5.66183">
        <ele>724</ele>
        <time>2019-11-29T07:42:40.000Z</time>
      </trkpt>
      <trkpt lat="43.31549" lon="5.66183">
        <ele>724</ele>
        <time>2019-11-29T07:42:41.000Z</time>
      </trkpt>
      <trkpt lat="43.31549" lon="5.66183">
        <ele>724</ele>
        <time>2019-11-29T07:42:42.000Z</time>
      </trkpt>
      <trkpt lat="43.3155" lon="5.66183">
        <ele>724</ele>
        <time>2019-11-29T07:42:43.000Z</time>
      </trkpt>
      <trkpt lat="43.3155" lon="5.66183">
        <ele>724</ele>
        <time>2019-11-29T07:42:44.000Z</time>
      </trkpt>
      <trkpt lat="43.3155" lon="5.66183">
        <ele>724</ele>
        <time>2019-11-29T07:42:45.000Z</time>
      </trkpt>
      <trkpt lat="43.3155" lon="5.66183">
        <ele>724</ele>
        <time>2019-11-29T07:42:46.000Z</time>
      </trkpt>
      <trkpt lat="43.3155" lon="5.66183">
        <ele>724</ele>
        <time>2019-11-29T07:42:47.000Z</time>
      </trkpt>
      <trkpt lat="43.3155" lon="5.66183">
        <ele>724</ele>
        <time>2019-11-29T07:42:48.000Z</time>
      </trkpt>
      <trkpt lat="43.3155" lon="5.66182">
        <ele>724</ele>
        <time>2019-11-29T07:42:49.000Z</time>
      </trkpt>
      <trkpt lat="43.3155" lon="5.66182">
        <ele>724</ele>
        <time>2019-11-29T07:42:50.000Z</time>
      </trkpt>
      <trkpt lat="43.3155" lon="5.66182">
        <ele>724</ele>
        <time>2019-11-29T07:42:51.000Z</time>
      </trkpt>
      <trkpt lat="43.3155" lon="5.66182">
        <ele>724</ele>
        <time>2019-11-29T07:42:52.000Z</time>
      </trkpt>
      <trkpt lat="43.3155" lon="5.66183">
        <ele>724</ele>
        <time>2019-11-29T07:42:53.000Z</time>
      </trkpt>
      <trkpt lat="43.31551" lon="5.66183">
        <ele>724</ele>
        <time>2019-11-29T07:42:54.000Z</time>
      </trkpt>
      <trkpt lat="43.31551" lon="5.66184">
        <ele>724</ele>
        <time>2019-11-29T07:42:55.000Z</time>
      </trkpt>
      <trkpt lat="43.31551" lon="5.66184">
        <ele>724</ele>
        <time>2019-11-29T07:42:56.000Z</time>
      </trkpt>
      <trkpt lat="43.31551" lon="5.66185">
        <ele>724</ele>
        <time>2019-11-29T07:42:57.000Z</time>
      </trkpt>
      <trkpt lat="43.31551" lon="5.66186">
        <ele>724</ele>
        <time>2019-11-29T07:42:58.000Z</time>
      </trkpt>
      <trkpt lat="43.31551" lon="5.66187">
        <ele>724</ele>
        <time>2019-11-29T07:42:59.000Z</time>
      </trkpt>
      <trkpt lat="43.3155" lon="5.66187">
        <ele>724</ele>
        <time>2019-11-29T07:43:00.000Z</time>
      </trkpt>
      <trkpt lat="43.3155" lon="5.66187">
        <ele>724</ele>
        <time>2019-11-29T07:43:01.000Z</time>
      </trkpt>
      <trkpt lat="43.31551" lon="5.66187">
        <ele>724</ele>
        <time>2019-11-29T07:43:02.000Z</time>
      </trkpt>
      <trkpt lat="43.31551" lon="5.66186">
        <ele>724</ele>
        <time>2019-11-29T07:43:03.000Z</time>
      </trkpt>
      <trkpt lat="43.3155" lon="5.66186">
        <ele>724</ele>
        <time>2019-11-29T07:43:04.000Z</time>
      </trkpt>
      <trkpt lat="43.3155" lon="5.66185">
        <ele>724</ele>
        <time>2019-11-29T07:43:05.000Z</time>
      </trkpt>
      <trkpt lat="43.31551" lon="5.66184">
        <ele>724</ele>
        <time>2019-11-29T07:43:06.000Z</time>
      </trkpt>
      <trkpt lat="43.31551" lon="5.66183">
        <ele>724</ele>
        <time>2019-11-29T07:43:07.000Z</time>
      </trkpt>
      <trkpt lat="43.31551" lon="5.66183">
        <ele>724</ele>
        <time>2019-11-29T07:43:08.000Z</time>
      </trkpt>
      <trkpt lat="43.31552" lon="5.66182">
        <ele>724</ele>
        <time>2019-11-29T07:43:09.000Z</time>
      </trkpt>
      <trkpt lat="43.31552" lon="5.66182">
        <ele>724</ele>
        <time>2019-11-29T07:43:10.000Z</time>
      </trkpt>
      <trkpt lat="43.31553" lon="5.66181">
        <ele>724</ele>
        <time>2019-11-29T07:43:11.000Z</time>
      </trkpt>
      <trkpt lat="43.31553" lon="5.66181">
        <ele>724</ele>
        <time>2019-11-29T07:43:12.000Z</time>
      </trkpt>
      <trkpt lat="43.31553" lon="5.66182">
        <ele>724</ele>
        <time>2019-11-29T07:43:13.000Z</time>
      </trkpt>
      <trkpt lat="43.31553" lon="5.66182">
        <ele>724</ele>
        <time>2019-11-29T07:43:14.000Z</time>
      </trkpt>
      <trkpt lat="43.31553" lon="5.66183">
        <ele>724</ele>
        <time>2019-11-29T07:43:15.000Z</time>
      </trkpt>
      <trkpt lat="43.31552" lon="5.66183">
        <ele>723</ele>
        <time>2019-11-29T07:43:16.000Z</time>
      </trkpt>
      <trkpt lat="43.31552" lon="5.66183">
        <ele>723</ele>
        <time>2019-11-29T07:43:17.000Z</time>
      </trkpt>
      <trkpt lat="43.31552" lon="5.66183">
        <ele>723</ele>
        <time>2019-11-29T07:43:18.000Z</time>
      </trkpt>
      <trkpt lat="43.31552" lon="5.66183">
        <ele>724</ele>
        <time>2019-11-29T07:43:19.000Z</time>
      </trkpt>
      <trkpt lat="43.31552" lon="5.66183">
        <ele>724</ele>
        <time>2019-11-29T07:43:20.000Z</time>
      </trkpt>
      <trkpt lat="43.31552" lon="5.66183">
        <ele>724</ele>
        <time>2019-11-29T07:43:21.000Z</time>
      </trkpt>
      <trkpt lat="43.31552" lon="5.66183">
        <ele>724</ele>
        <time>2019-11-29T07:43:22.000Z</time>
      </trkpt>
      <trkpt lat="43.31553" lon="5.66183">
        <ele>724</ele>
        <time>2019-11-29T07:43:23.000Z</time>
      </trkpt>
      <trkpt lat="43.31553" lon="5.66183">
        <ele>724</ele>
        <time>2019-11-29T07:43:24.000Z</time>
      </trkpt>
      <trkpt lat="43.31553" lon="5.66183">
        <ele>724</ele>
        <time>2019-11-29T07:43:25.000Z</time>
      </trkpt>
      <trkpt lat="43.31553" lon="5.66184">
        <ele>724</ele>
        <time>2019-11-29T07:43:26.000Z</time>
      </trkpt>
      <trkpt lat="43.31553" lon="5.66184">
        <ele>724</ele>
        <time>2019-11-29T07:43:27.000Z</time>
      </trkpt>
      <trkpt lat="43.31552" lon="5.66185">
        <ele>724</ele>
        <time>2019-11-29T07:43:28.000Z</time>
      </trkpt>
      <trkpt lat="43.31552" lon="5.66185">
        <ele>724</ele>
        <time>2019-11-29T07:43:29.000Z</time>
      </trkpt>
      <trkpt lat="43.31552" lon="5.66185">
        <ele>724</ele>
        <time>2019-11-29T07:43:30.000Z</time>
      </trkpt>
      <trkpt lat="43.31552" lon="5.66185">
        <ele>724</ele>
        <time>2019-11-29T07:43:31.000Z</time>
      </trkpt>
      <trkpt lat="43.31552" lon="5.66184">
        <ele>724</ele>
        <time>2019-11-29T07:43:32.000Z</time>
      </trkpt>
      <trkpt lat="43.31552" lon="5.66185">
        <ele>724</ele>
        <time>2019-11-29T07:43:33.000Z</time>
      </trkpt>
      <trkpt lat="43.31552" lon="5.66185">
        <ele>724</ele>
        <time>2019-11-29T07:43:34.000Z</time>
      </trkpt>
      <trkpt lat="43.31552" lon="5.66185">
        <ele>724</ele>
        <time>2019-11-29T07:43:35.000Z</time>
      </trkpt>
      <trkpt lat="43.31552" lon="5.66185">
        <ele>724</ele>
        <time>2019-11-29T07:43:36.000Z</time>
      </trkpt>
      <trkpt lat="43.31551" lon="5.66185">
        <ele>724</ele>
        <time>2019-11-29T07:43:37.000Z</time>
      </trkpt>
      <trkpt lat="43.31551" lon="5.66185">
        <ele>724</ele>
        <time>2019-11-29T07:43:38.000Z</time>
      </trkpt>
      <trkpt lat="43.31551" lon="5.66185">
        <ele>724</ele>
        <time>2019-11-29T07:43:39.000Z</time>
      </trkpt>
      <trkpt lat="43.31551" lon="5.66185">
        <ele>724</ele>
        <time>2019-11-29T07:43:40.000Z</time>
      </trkpt>
      <trkpt lat="43.3155" lon="5.66184">
        <ele>724</ele>
        <time>2019-11-29T07:43:41.000Z</time>
      </trkpt>
      <trkpt lat="43.3155" lon="5.66184">
        <ele>724</ele>
        <time>2019-11-29T07:43:42.000Z</time>
      </trkpt>
      <trkpt lat="43.3155" lon="5.66184">
        <ele>724</ele>
        <time>2019-11-29T07:43:43.000Z</time>
      </trkpt>
      <trkpt lat="43.3155" lon="5.66183">
        <ele>724</ele>
        <time>2019-11-29T07:43:44.000Z</time>
      </trkpt>
      <trkpt lat="43.3155" lon="5.66184">
        <ele>724</ele>
        <time>2019-11-29T07:43:45.000Z</time>
      </trkpt>
      <trkpt lat="43.3155" lon="5.66184">
        <ele>724</ele>
        <time>2019-11-29T07:43:46.000Z</time>
      </trkpt>
      <trkpt lat="43.3155" lon="5.66184">
        <ele>724</ele>
        <time>2019-11-29T07:43:47.000Z</time>
      </trkpt>
      <trkpt lat="43.3155" lon="5.66184">
        <ele>724</ele>
        <time>2019-11-29T07:43:48.000Z</time>
      </trkpt>
      <trkpt lat="43.3155" lon="5.66184">
        <ele>724</ele>
        <time>2019-11-29T07:43:49.000Z</time>
      </trkpt>
      <trkpt lat="43.3155" lon="5.66184">
        <ele>724</ele>
        <time>2019-11-29T07:43:50.000Z</time>
      </trkpt>
      <trkpt lat="43.3155" lon="5.66184">
        <ele>724</ele>
        <time>2019-11-29T07:43:51.000Z</time>
      </trkpt>
      <trkpt lat="43.3155" lon="5.66184">
        <ele>724</ele>
        <time>2019-11-29T07:43:52.000Z</time>
      </trkpt>
      <trkpt lat="43.31549" lon="5.66184">
        <ele>724</ele>
        <time>2019-11-29T07:43:53.000Z</time>
      </trkpt>
      <trkpt lat="43.3155" lon="5.66183">
        <ele>724</ele>
        <time>2019-11-29T07:43:54.000Z</time>
      </trkpt>
      <trkpt lat="43.31551" lon="5.66183">
        <ele>724</ele>
        <time>2019-11-29T07:43:55.000Z</time>
      </trkpt>
      <trkpt lat="43.31551" lon="5.66183">
        <ele>724</ele>
        <time>2019-11-29T07:43:56.000Z</time>
      </trkpt>
      <trkpt lat="43.31552" lon="5.66183">
        <ele>724</ele>
        <time>2019-11-29T07:43:57.000Z</time>
      </trkpt>
      <trkpt lat="43.31551" lon="5.66182">
        <ele>724</ele>
        <time>2019-11-29T07:43:58.000Z</time>
      </trkpt>
      <trkpt lat="43.31551" lon="5.66183">
        <ele>724</ele>
        <time>2019-11-29T07:43:59.000Z</time>
      </trkpt>
      <trkpt lat="43.31551" lon="5.66183">
        <ele>724</ele>
        <time>2019-11-29T07:44:00.000Z</time>
      </trkpt>
      <trkpt lat="43.3155" lon="5.66182">
        <ele>724</ele>
        <time>2019-11-29T07:44:01.000Z</time>
      </trkpt>
      <trkpt lat="43.3155" lon="5.66182">
        <ele>724</ele>
        <time>2019-11-29T07:44:02.000Z</time>
      </trkpt>
      <trkpt lat="43.3155" lon="5.66182">
        <ele>724</ele>
        <time>2019-11-29T07:44:03.000Z</time>
      </trkpt>
      <trkpt lat="43.3155" lon="5.66182">
        <ele>724</ele>
        <time>2019-11-29T07:44:04.000Z</time>
      </trkpt>
      <trkpt lat="43.3155" lon="5.66182">
        <ele>724</ele>
        <time>2019-11-29T07:44:05.000Z</time>
      </trkpt>
      <trkpt lat="43.3155" lon="5.66182">
        <ele>724</ele>
        <time>2019-11-29T07:44:06.000Z</time>
      </trkpt>
      <trkpt lat="43.3155" lon="5.66182">
        <ele>724</ele>
        <time>2019-11-29T07:44:07.000Z</time>
      </trkpt>
      <trkpt lat="43.3155" lon="5.66182">
        <ele>724</ele>
        <time>2019-11-29T07:44:08.000Z</time>
      </trkpt>
      <trkpt lat="43.3155" lon="5.66182">
        <ele>724</ele>
        <time>2019-11-29T07:44:09.000Z</time>
      </trkpt>
      <trkpt lat="43.3155" lon="5.66181">
        <ele>724</ele>
        <time>2019-11-29T07:44:10.000Z</time>
      </trkpt>
      <trkpt lat="43.3155" lon="5.66181">
        <ele>725</ele>
        <time>2019-11-29T07:44:11.000Z</time>
      </trkpt>
      <trkpt lat="43.31549" lon="5.66181">
        <ele>725</ele>
        <time>2019-11-29T07:44:12.000Z</time>
      </trkpt>
      <trkpt lat="43.31549" lon="5.66181">
        <ele>725</ele>
        <time>2019-11-29T07:44:13.000Z</time>
      </trkpt>
      <trkpt lat="43.31549" lon="5.66181">
        <ele>725</ele>
        <time>2019-11-29T07:44:14.000Z</time>
      </trkpt>
      <trkpt lat="43.31549" lon="5.6618">
        <ele>725</ele>
        <time>2019-11-29T07:44:15.000Z</time>
      </trkpt>
      <trkpt lat="43.31549" lon="5.6618">
        <ele>725</ele>
        <time>2019-11-29T07:44:16.000Z</time>
      </trkpt>
      <trkpt lat="43.3155" lon="5.6618">
        <ele>725</ele>
        <time>2019-11-29T07:44:17.000Z</time>
      </trkpt>
      <trkpt lat="43.3155" lon="5.66181">
        <ele>725</ele>
        <time>2019-11-29T07:44:18.000Z</time>
      </trkpt>
      <trkpt lat="43.3155" lon="5.66181">
        <ele>725</ele>
        <time>2019-11-29T07:44:19.000Z</time>
      </trkpt>
      <trkpt lat="43.3155" lon="5.66181">
        <ele>725</ele>
        <time>2019-11-29T07:44:20.000Z</time>
      </trkpt>
      <trkpt lat="43.3155" lon="5.66181">
        <ele>725</ele>
        <time>2019-11-29T07:44:21.000Z</time>
      </trkpt>
      <trkpt lat="43.3155" lon="5.66181">
        <ele>725</ele>
        <time>2019-11-29T07:44:22.000Z</time>
      </trkpt>
      <trkpt lat="43.3155" lon="5.66181">
        <ele>725</ele>
        <time>2019-11-29T07:44:23.000Z</time>
      </trkpt>
      <trkpt lat="43.3155" lon="5.66181">
        <ele>725</ele>
        <time>2019-11-29T07:44:24.000Z</time>
      </trkpt>
      <trkpt lat="43.3155" lon="5.66181">
        <ele>725</ele>
        <time>2019-11-29T07:44:25.000Z</time>
      </trkpt>
      <trkpt lat="43.3155" lon="5.66181">
        <ele>725</ele>
        <time>2019-11-29T07:44:26.000Z</time>
      </trkpt>
      <trkpt lat="43.3155" lon="5.66181">
        <ele>725</ele>
        <time>2019-11-29T07:44:27.000Z</time>
      </trkpt>
      <trkpt lat="43.3155" lon="5.66181">
        <ele>725</ele>
        <time>2019-11-29T07:44:28.000Z</time>
      </trkpt>
      <trkpt lat="43.3155" lon="5.66181">
        <ele>725</ele>
        <time>2019-11-29T07:44:29.000Z</time>
      </trkpt>
      <trkpt lat="43.3155" lon="5.66181">
        <ele>725</ele>
        <time>2019-11-29T07:44:30.000Z</time>
      </trkpt>
      <trkpt lat="43.3155" lon="5.66182">
        <ele>725</ele>
        <time>2019-11-29T07:44:31.000Z</time>
      </trkpt>
      <trkpt lat="43.3155" lon="5.66182">
        <ele>725</ele>
        <time>2019-11-29T07:44:32.000Z</time>
      </trkpt>
      <trkpt lat="43.3155" lon="5.66182">
        <ele>725</ele>
        <time>2019-11-29T07:44:33.000Z</time>
      </trkpt>
      <trkpt lat="43.3155" lon="5.66182">
        <ele>725</ele>
        <time>2019-11-29T07:44:34.000Z</time>
      </trkpt>
      <trkpt lat="43.3155" lon="5.66182">
        <ele>725</ele>
        <time>2019-11-29T07:44:35.000Z</time>
      </trkpt>
      <trkpt lat="43.3155" lon="5.66182">
        <ele>725</ele>
        <time>2019-11-29T07:44:36.000Z</time>
      </trkpt>
      <trkpt lat="43.3155" lon="5.66182">
        <ele>725</ele>
        <time>2019-11-29T07:44:37.000Z</time>
      </trkpt>
      <trkpt lat="43.3155" lon="5.66182">
        <ele>725</ele>
        <time>2019-11-29T07:44:38.000Z</time>
      </trkpt>
      <trkpt lat="43.31551" lon="5.66182">
        <ele>725</ele>
        <time>2019-11-29T07:44:39.000Z</time>
      </trkpt>
      <trkpt lat="43.31551" lon="5.66182">
        <ele>725</ele>
        <time>2019-11-29T07:44:40.000Z</time>
      </trkpt>
      <trkpt lat="43.31551" lon="5.66181">
        <ele>725</ele>
        <time>2019-11-29T07:44:41.000Z</time>
      </trkpt>
      <trkpt lat="43.31551" lon="5.66181">
        <ele>725</ele>
        <time>2019-11-29T07:44:42.000Z</time>
      </trkpt>
      <trkpt lat="43.31551" lon="5.66181">
        <ele>726</ele>
        <time>2019-11-29T07:44:43.000Z</time>
      </trkpt>
      <trkpt lat="43.31551" lon="5.66181">
        <ele>726</ele>
        <time>2019-11-29T07:44:44.000Z</time>
      </trkpt>
      <trkpt lat="43.31551" lon="5.66181">
        <ele>726</ele>
        <time>2019-11-29T07:44:45.000Z</time>
      </trkpt>
      <trkpt lat="43.31551" lon="5.66181">
        <ele>726</ele>
        <time>2019-11-29T07:44:46.000Z</time>
      </trkpt>
      <trkpt lat="43.31551" lon="5.66181">
        <ele>726</ele>
        <time>2019-11-29T07:44:47.000Z</time>
      </trkpt>
      <trkpt lat="43.31551" lon="5.66181">
        <ele>726</ele>
        <time>2019-11-29T07:44:48.000Z</time>
      </trkpt>
      <trkpt lat="43.31551" lon="5.66181">
        <ele>726</ele>
        <time>2019-11-29T07:44:49.000Z</time>
      </trkpt>
      <trkpt lat="43.31551" lon="5.66181">
        <ele>726</ele>
        <time>2019-11-29T07:44:50.000Z</time>
      </trkpt>
      <trkpt lat="43.31551" lon="5.66181">
        <ele>726</ele>
        <time>2019-11-29T07:44:51.000Z</time>
      </trkpt>
      <trkpt lat="43.31551" lon="5.66182">
        <ele>726</ele>
        <time>2019-11-29T07:44:52.000Z</time>
      </trkpt>
      <trkpt lat="43.31551" lon="5.66182">
        <ele>726</ele>
        <time>2019-11-29T07:44:53.000Z</time>
      </trkpt>
      <trkpt lat="43.31551" lon="5.66182">
        <ele>726</ele>
        <time>2019-11-29T07:44:54.000Z</time>
      </trkpt>
      <trkpt lat="43.31551" lon="5.66182">
        <ele>726</ele>
        <time>2019-11-29T07:44:55.000Z</time>
      </trkpt>
      <trkpt lat="43.31551" lon="5.66182">
        <ele>726</ele>
        <time>2019-11-29T07:44:56.000Z</time>
      </trkpt>
      <trkpt lat="43.31551" lon="5.66182">
        <ele>726</ele>
        <time>2019-11-29T07:44:57.000Z</time>
      </trkpt>
      <trkpt lat="43.3155" lon="5.66182">
        <ele>726</ele>
        <time>2019-11-29T07:44:58.000Z</time>
      </trkpt>
      <trkpt lat="43.3155" lon="5.66181">
        <ele>726</ele>
        <time>2019-11-29T07:44:59.000Z</time>
      </trkpt>
      <trkpt lat="43.3155" lon="5.66181">
        <ele>726</ele>
        <time>2019-11-29T07:45:00.000Z</time>
      </trkpt>
      <trkpt lat="43.3155" lon="5.66181">
        <ele>726</ele>
        <time>2019-11-29T07:45:01.000Z</time>
      </trkpt>
      <trkpt lat="43.3155" lon="5.66181">
        <ele>726</ele>
        <time>2019-11-29T07:45:02.000Z</time>
      </trkpt>
      <trkpt lat="43.3155" lon="5.66182">
        <ele>726</ele>
        <time>2019-11-29T07:45:03.000Z</time>
      </trkpt>
      <trkpt lat="43.3155" lon="5.66183">
        <ele>726</ele>
        <time>2019-11-29T07:45:04.000Z</time>
      </trkpt>
      <trkpt lat="43.3155" lon="5.66183">
        <ele>726</ele>
        <time>2019-11-29T07:45:05.000Z</time>
      </trkpt>
      <trkpt lat="43.3155" lon="5.66182">
        <ele>726</ele>
        <time>2019-11-29T07:45:06.000Z</time>
      </trkpt>
      <trkpt lat="43.3155" lon="5.66182">
        <ele>726</ele>
        <time>2019-11-29T07:45:07.000Z</time>
      </trkpt>
      <trkpt lat="43.31551" lon="5.66181">
        <ele>726</ele>
        <time>2019-11-29T07:45:08.000Z</time>
      </trkpt>
      <trkpt lat="43.31552" lon="5.66181">
        <ele>726</ele>
        <time>2019-11-29T07:45:09.000Z</time>
      </trkpt>
      <trkpt lat="43.31553" lon="5.66182">
        <ele>726</ele>
        <time>2019-11-29T07:45:10.000Z</time>
      </trkpt>
      <trkpt lat="43.31553" lon="5.66182">
        <ele>726</ele>
        <time>2019-11-29T07:45:11.000Z</time>
      </trkpt>
      <trkpt lat="43.31553" lon="5.66183">
        <ele>726</ele>
        <time>2019-11-29T07:45:12.000Z</time>
      </trkpt>
      <trkpt lat="43.31553" lon="5.66183">
        <ele>726</ele>
        <time>2019-11-29T07:45:13.000Z</time>
      </trkpt>
      <trkpt lat="43.31553" lon="5.66183">
        <ele>726</ele>
        <time>2019-11-29T07:45:14.000Z</time>
      </trkpt>
      <trkpt lat="43.31553" lon="5.66183">
        <ele>726</ele>
        <time>2019-11-29T07:45:15.000Z</time>
      </trkpt>
      <trkpt lat="43.31553" lon="5.66183">
        <ele>726</ele>
        <time>2019-11-29T07:45:16.000Z</time>
      </trkpt>
      <trkpt lat="43.31553" lon="5.66183">
        <ele>726</ele>
        <time>2019-11-29T07:45:17.000Z</time>
      </trkpt>
      <trkpt lat="43.31553" lon="5.66183">
        <ele>726</ele>
        <time>2019-11-29T07:45:18.000Z</time>
      </trkpt>
      <trkpt lat="43.31554" lon="5.66183">
        <ele>726</ele>
        <time>2019-11-29T07:45:19.000Z</time>
      </trkpt>
      <trkpt lat="43.31554" lon="5.66183">
        <ele>726</ele>
        <time>2019-11-29T07:45:20.000Z</time>
      </trkpt>
      <trkpt lat="43.31554" lon="5.66184">
        <ele>726</ele>
        <time>2019-11-29T07:45:21.000Z</time>
      </trkpt>
      <trkpt lat="43.31554" lon="5.66185">
        <ele>726</ele>
        <time>2019-11-29T07:45:22.000Z</time>
      </trkpt>
      <trkpt lat="43.31554" lon="5.66186">
        <ele>726</ele>
        <time>2019-11-29T07:45:23.000Z</time>
      </trkpt>
      <trkpt lat="43.31553" lon="5.66186">
        <ele>726</ele>
        <time>2019-11-29T07:45:24.000Z</time>
      </trkpt>
      <trkpt lat="43.31554" lon="5.66186">
        <ele>726</ele>
        <time>2019-11-29T07:45:25.000Z</time>
      </trkpt>
      <trkpt lat="43.31554" lon="5.66186">
        <ele>726</ele>
        <time>2019-11-29T07:45:26.000Z</time>
      </trkpt>
      <trkpt lat="43.31554" lon="5.66186">
        <ele>726</ele>
        <time>2019-11-29T07:45:27.000Z</time>
      </trkpt>
      <trkpt lat="43.31554" lon="5.66186">
        <ele>726</ele>
        <time>2019-11-29T07:45:28.000Z</time>
      </trkpt>
      <trkpt lat="43.31553" lon="5.66185">
        <ele>726</ele>
        <time>2019-11-29T07:45:29.000Z</time>
      </trkpt>
      <trkpt lat="43.31553" lon="5.66185">
        <ele>726</ele>
        <time>2019-11-29T07:45:30.000Z</time>
      </trkpt>
      <trkpt lat="43.31553" lon="5.66184">
        <ele>725</ele>
        <time>2019-11-29T07:45:31.000Z</time>
      </trkpt>
      <trkpt lat="43.31554" lon="5.66184">
        <ele>725</ele>
        <time>2019-11-29T07:45:32.000Z</time>
      </trkpt>
      <trkpt lat="43.31554" lon="5.66183">
        <ele>725</ele>
        <time>2019-11-29T07:45:33.000Z</time>
      </trkpt>
      <trkpt lat="43.31554" lon="5.66183">
        <ele>725</ele>
        <time>2019-11-29T07:45:34.000Z</time>
      </trkpt>
      <trkpt lat="43.31554" lon="5.66183">
        <ele>725</ele>
        <time>2019-11-29T07:45:35.000Z</time>
      </trkpt>
      <trkpt lat="43.31554" lon="5.66182">
        <ele>725</ele>
        <time>2019-11-29T07:45:36.000Z</time>
      </trkpt>
      <trkpt lat="43.31554" lon="5.66182">
        <ele>725</ele>
        <time>2019-11-29T07:45:37.000Z</time>
      </trkpt>
      <trkpt lat="43.31554" lon="5.66182">
        <ele>725</ele>
        <time>2019-11-29T07:45:38.000Z</time>
      </trkpt>
      <trkpt lat="43.31554" lon="5.66182">
        <ele>725</ele>
        <time>2019-11-29T07:45:39.000Z</time>
      </trkpt>
      <trkpt lat="43.31554" lon="5.66182">
        <ele>725</ele>
        <time>2019-11-29T07:45:40.000Z</time>
      </trkpt>
      <trkpt lat="43.31554" lon="5.66182">
        <ele>724</ele>
        <time>2019-11-29T07:45:41.000Z</time>
      </trkpt>
      <trkpt lat="43.31553" lon="5.66182">
        <ele>724</ele>
        <time>2019-11-29T07:45:42.000Z</time>
      </trkpt>
      <trkpt lat="43.31553" lon="5.66182">
        <ele>724</ele>
        <time>2019-11-29T07:45:43.000Z</time>
      </trkpt>
      <trkpt lat="43.31553" lon="5.66182">
        <ele>724</ele>
        <time>2019-11-29T07:45:44.000Z</time>
      </trkpt>
      <trkpt lat="43.31553" lon="5.66182">
        <ele>724</ele>
        <time>2019-11-29T07:45:45.000Z</time>
      </trkpt>
      <trkpt lat="43.31553" lon="5.66182">
        <ele>724</ele>
        <time>2019-11-29T07:45:46.000Z</time>
      </trkpt>
      <trkpt lat="43.31552" lon="5.66182">
        <ele>724</ele>
        <time>2019-11-29T07:45:47.000Z</time>
      </trkpt>
      <trkpt lat="43.31552" lon="5.66182">
        <ele>724</ele>
        <time>2019-11-29T07:45:48.000Z</time>
      </trkpt>
      <trkpt lat="43.31551" lon="5.66182">
        <ele>724</ele>
        <time>2019-11-29T07:45:49.000Z</time>
      </trkpt>
      <trkpt lat="43.31551" lon="5.66183">
        <ele>724</ele>
        <time>2019-11-29T07:45:50.000Z</time>
      </trkpt>
      <trkpt lat="43.31551" lon="5.66183">
        <ele>724</ele>
        <time>2019-11-29T07:45:51.000Z</time>
      </trkpt>
      <trkpt lat="43.31551" lon="5.66183">
        <ele>724</ele>
        <time>2019-11-29T07:45:52.000Z</time>
      </trkpt>
      <trkpt lat="43.31551" lon="5.66183">
        <ele>724</ele>
        <time>2019-11-29T07:45:53.000Z</time>
      </trkpt>
      <trkpt lat="43.31552" lon="5.66183">
        <ele>725</ele>
        <time>2019-11-29T07:45:54.000Z</time>
      </trkpt>
      <trkpt lat="43.31552" lon="5.66182">
        <ele>725</ele>
        <time>2019-11-29T07:45:55.000Z</time>
      </trkpt>
      <trkpt lat="43.31552" lon="5.66182">
        <ele>725</ele>
        <time>2019-11-29T07:45:56.000Z</time>
      </trkpt>
      <trkpt lat="43.31553" lon="5.66181">
        <ele>725</ele>
        <time>2019-11-29T07:45:57.000Z</time>
      </trkpt>
      <trkpt lat="43.31554" lon="5.66181">
        <ele>725</ele>
        <time>2019-11-29T07:45:58.000Z</time>
      </trkpt>
      <trkpt lat="43.31554" lon="5.66182">
        <ele>725</ele>
        <time>2019-11-29T07:45:59.000Z</time>
      </trkpt>
      <trkpt lat="43.31554" lon="5.66182">
        <ele>725</ele>
        <time>2019-11-29T07:46:00.000Z</time>
      </trkpt>
      <trkpt lat="43.31554" lon="5.66182">
        <ele>725</ele>
        <time>2019-11-29T07:46:01.000Z</time>
      </trkpt>
      <trkpt lat="43.31554" lon="5.66182">
        <ele>725</ele>
        <time>2019-11-29T07:46:02.000Z</time>
      </trkpt>
      <trkpt lat="43.31554" lon="5.66182">
        <ele>725</ele>
        <time>2019-11-29T07:46:03.000Z</time>
      </trkpt>
      <trkpt lat="43.31554" lon="5.66182">
        <ele>725</ele>
        <time>2019-11-29T07:46:04.000Z</time>
      </trkpt>
      <trkpt lat="43.31554" lon="5.66182">
        <ele>725</ele>
        <time>2019-11-29T07:46:05.000Z</time>
      </trkpt>
      <trkpt lat="43.31553" lon="5.66181">
        <ele>725</ele>
        <time>2019-11-29T07:46:06.000Z</time>
      </trkpt>
      <trkpt lat="43.31553" lon="5.66181">
        <ele>725</ele>
        <time>2019-11-29T07:46:07.000Z</time>
      </trkpt>
      <trkpt lat="43.31553" lon="5.66181">
        <ele>724</ele>
        <time>2019-11-29T07:46:08.000Z</time>
      </trkpt>
      <trkpt lat="43.31552" lon="5.66181">
        <ele>724</ele>
        <time>2019-11-29T07:46:09.000Z</time>
      </trkpt>
      <trkpt lat="43.31552" lon="5.66181">
        <ele>724</ele>
        <time>2019-11-29T07:46:10.000Z</time>
      </trkpt>
      <trkpt lat="43.31552" lon="5.66182">
        <ele>724</ele>
        <time>2019-11-29T07:46:11.000Z</time>
      </trkpt>
      <trkpt lat="43.31552" lon="5.66181">
        <ele>724</ele>
        <time>2019-11-29T07:46:12.000Z</time>
      </trkpt>
      <trkpt lat="43.31551" lon="5.66181">
        <ele>724</ele>
        <time>2019-11-29T07:46:13.000Z</time>
      </trkpt>
      <trkpt lat="43.31551" lon="5.66182">
        <ele>724</ele>
        <time>2019-11-29T07:46:14.000Z</time>
      </trkpt>
      <trkpt lat="43.31551" lon="5.66182">
        <ele>724</ele>
        <time>2019-11-29T07:46:15.000Z</time>
      </trkpt>
      <trkpt lat="43.31551" lon="5.66182">
        <ele>724</ele>
        <time>2019-11-29T07:46:16.000Z</time>
      </trkpt>
      <trkpt lat="43.31551" lon="5.66182">
        <ele>724</ele>
        <time>2019-11-29T07:46:17.000Z</time>
      </trkpt>
      <trkpt lat="43.31551" lon="5.66182">
        <ele>724</ele>
        <time>2019-11-29T07:46:18.000Z</time>
      </trkpt>
      <trkpt lat="43.3155" lon="5.66182">
        <ele>724</ele>
        <time>2019-11-29T07:46:19.000Z</time>
      </trkpt>
      <trkpt lat="43.3155" lon="5.66182">
        <ele>724</ele>
        <time>2019-11-29T07:46:20.000Z</time>
      </trkpt>
      <trkpt lat="43.3155" lon="5.66182">
        <ele>724</ele>
        <time>2019-11-29T07:46:21.000Z</time>
      </trkpt>
      <trkpt lat="43.3155" lon="5.66182">
        <ele>724</ele>
        <time>2019-11-29T07:46:22.000Z</time>
      </trkpt>
      <trkpt lat="43.3155" lon="5.66182">
        <ele>724</ele>
        <time>2019-11-29T07:46:23.000Z</time>
      </trkpt>
      <trkpt lat="43.3155" lon="5.66182">
        <ele>724</ele>
        <time>2019-11-29T07:46:24.000Z</time>
      </trkpt>
      <trkpt lat="43.3155" lon="5.66182">
        <ele>724</ele>
        <time>2019-11-29T07:46:25.000Z</time>
      </trkpt>
      <trkpt lat="43.3155" lon="5.66182">
        <ele>724</ele>
        <time>2019-11-29T07:46:26.000Z</time>
      </trkpt>
      <trkpt lat="43.3155" lon="5.66183">
        <ele>724</ele>
        <time>2019-11-29T07:46:27.000Z</time>
      </trkpt>
      <trkpt lat="43.3155" lon="5.66183">
        <ele>724</ele>
        <time>2019-11-29T07:46:28.000Z</time>
      </trkpt>
      <trkpt lat="43.3155" lon="5.66183">
        <ele>724</ele>
        <time>2019-11-29T07:46:29.000Z</time>
      </trkpt>
      <trkpt lat="43.3155" lon="5.66183">
        <ele>724</ele>
        <time>2019-11-29T07:46:30.000Z</time>
      </trkpt>
      <trkpt lat="43.3155" lon="5.66182">
        <ele>724</ele>
        <time>2019-11-29T07:46:31.000Z</time>
      </trkpt>
      <trkpt lat="43.3155" lon="5.66182">
        <ele>724</ele>
        <time>2019-11-29T07:46:32.000Z</time>
      </trkpt>
      <trkpt lat="43.3155" lon="5.66182">
        <ele>724</ele>
        <time>2019-11-29T07:46:33.000Z</time>
      </trkpt>
      <trkpt lat="43.3155" lon="5.66182">
        <ele>724</ele>
        <time>2019-11-29T07:46:34.000Z</time>
      </trkpt>
      <trkpt lat="43.3155" lon="5.66183">
        <ele>724</ele>
        <time>2019-11-29T07:46:35.000Z</time>
      </trkpt>
      <trkpt lat="43.3155" lon="5.66184">
        <ele>724</ele>
        <time>2019-11-29T07:46:36.000Z</time>
      </trkpt>
      <trkpt lat="43.3155" lon="5.66184">
        <ele>724</ele>
        <time>2019-11-29T07:46:37.000Z</time>
      </trkpt>
      <trkpt lat="43.31549" lon="5.66184">
        <ele>724</ele>
        <time>2019-11-29T07:46:38.000Z</time>
      </trkpt>
      <trkpt lat="43.31549" lon="5.66184">
        <ele>724</ele>
        <time>2019-11-29T07:46:39.000Z</time>
      </trkpt>
      <trkpt lat="43.31548" lon="5.66184">
        <ele>724</ele>
        <time>2019-11-29T07:46:40.000Z</time>
      </trkpt>
      <trkpt lat="43.31548" lon="5.66184">
        <ele>724</ele>
        <time>2019-11-29T07:46:41.000Z</time>
      </trkpt>
      <trkpt lat="43.31548" lon="5.66183">
        <ele>724</ele>
        <time>2019-11-29T07:46:42.000Z</time>
      </trkpt>
      <trkpt lat="43.31549" lon="5.66182">
        <ele>724</ele>
        <time>2019-11-29T07:46:43.000Z</time>
      </trkpt>
      <trkpt lat="43.3155" lon="5.66182">
        <ele>724</ele>
        <time>2019-11-29T07:46:44.000Z</time>
      </trkpt>
      <trkpt lat="43.31551" lon="5.66182">
        <ele>724</ele>
        <time>2019-11-29T07:46:45.000Z</time>
      </trkpt>
      <trkpt lat="43.31551" lon="5.66182">
        <ele>724</ele>
        <time>2019-11-29T07:46:46.000Z</time>
      </trkpt>
      <trkpt lat="43.31551" lon="5.66183">
        <ele>724</ele>
        <time>2019-11-29T07:46:47.000Z</time>
      </trkpt>
      <trkpt lat="43.31551" lon="5.66183">
        <ele>724</ele>
        <time>2019-11-29T07:46:48.000Z</time>
      </trkpt>
      <trkpt lat="43.3155" lon="5.66183">
        <ele>724</ele>
        <time>2019-11-29T07:46:49.000Z</time>
      </trkpt>
      <trkpt lat="43.3155" lon="5.66183">
        <ele>724</ele>
        <time>2019-11-29T07:46:50.000Z</time>
      </trkpt>
      <trkpt lat="43.3155" lon="5.66183">
        <ele>724</ele>
        <time>2019-11-29T07:46:51.000Z</time>
      </trkpt>
      <trkpt lat="43.3155" lon="5.66183">
        <ele>724</ele>
        <time>2019-11-29T07:46:52.000Z</time>
      </trkpt>
      <trkpt lat="43.3155" lon="5.66183">
        <ele>724</ele>
        <time>2019-11-29T07:46:53.000Z</time>
      </trkpt>
      <trkpt lat="43.3155" lon="5.66183">
        <ele>724</ele>
        <time>2019-11-29T07:46:54.000Z</time>
      </trkpt>
      <trkpt lat="43.3155" lon="5.66183">
        <ele>724</ele>
        <time>2019-11-29T07:46:55.000Z</time>
      </trkpt>
      <trkpt lat="43.3155" lon="5.66183">
        <ele>724</ele>
        <time>2019-11-29T07:46:56.000Z</time>
      </trkpt>
      <trkpt lat="43.3155" lon="5.66183">
        <ele>724</ele>
        <time>2019-11-29T07:46:57.000Z</time>
      </trkpt>
      <trkpt lat="43.3155" lon="5.66183">
        <ele>724</ele>
        <time>2019-11-29T07:46:58.000Z</time>
      </trkpt>
      <trkpt lat="43.3155" lon="5.66183">
        <ele>724</ele>
        <time>2019-11-29T07:46:59.000Z</time>
      </trkpt>
      <trkpt lat="43.3155" lon="5.66183">
        <ele>724</ele>
        <time>2019-11-29T07:47:00.000Z</time>
      </trkpt>
      <trkpt lat="43.3155" lon="5.66183">
        <ele>724</ele>
        <time>2019-11-29T07:47:01.000Z</time>
      </trkpt>
      <trkpt lat="43.3155" lon="5.66183">
        <ele>724</ele>
        <time>2019-11-29T07:47:02.000Z</time>
      </trkpt>
      <trkpt lat="43.3155" lon="5.66183">
        <ele>724</ele>
        <time>2019-11-29T07:47:03.000Z</time>
      </trkpt>
      <trkpt lat="43.3155" lon="5.66183">
        <ele>724</ele>
        <time>2019-11-29T07:47:04.000Z</time>
      </trkpt>
      <trkpt lat="43.3155" lon="5.66183">
        <ele>724</ele>
        <time>2019-11-29T07:47:05.000Z</time>
      </trkpt>
      <trkpt lat="43.3155" lon="5.66183">
        <ele>724</ele>
        <time>2019-11-29T07:47:06.000Z</time>
      </trkpt>
      <trkpt lat="43.3155" lon="5.66183">
        <ele>724</ele>
        <time>2019-11-29T07:47:07.000Z</time>
      </trkpt>
      <trkpt lat="43.3155" lon="5.66183">
        <ele>724</ele>
        <time>2019-11-29T07:47:08.000Z</time>
      </trkpt>
      <trkpt lat="43.3155" lon="5.66183">
        <ele>724</ele>
        <time>2019-11-29T07:47:09.000Z</time>
      </trkpt>
      <trkpt lat="43.3155" lon="5.66183">
        <ele>724</ele>
        <time>2019-11-29T07:47:10.000Z</time>
      </trkpt>
      <trkpt lat="43.3155" lon="5.66183">
        <ele>724</ele>
        <time>2019-11-29T07:47:11.000Z</time>
      </trkpt>
      <trkpt lat="43.3155" lon="5.66183">
        <ele>724</ele>
        <time>2019-11-29T07:47:12.000Z</time>
      </trkpt>
      <trkpt lat="43.3155" lon="5.66183">
        <ele>724</ele>
        <time>2019-11-29T07:47:13.000Z</time>
      </trkpt>
      <trkpt lat="43.3155" lon="5.66183">
        <ele>724</ele>
        <time>2019-11-29T07:47:14.000Z</time>
      </trkpt>
      <trkpt lat="43.3155" lon="5.66183">
        <ele>724</ele>
        <time>2019-11-29T07:47:15.000Z</time>
      </trkpt>
      <trkpt lat="43.3155" lon="5.66183">
        <ele>724</ele>
        <time>2019-11-29T07:47:16.000Z</time>
      </trkpt>
      <trkpt lat="43.3155" lon="5.66183">
        <ele>724</ele>
        <time>2019-11-29T07:47:17.000Z</time>
      </trkpt>
      <trkpt lat="43.3155" lon="5.66183">
        <ele>724</ele>
        <time>2019-11-29T07:47:18.000Z</time>
      </trkpt>
      <trkpt lat="43.3155" lon="5.66183">
        <ele>724</ele>
        <time>2019-11-29T07:47:19.000Z</time>
      </trkpt>
      <trkpt lat="43.3155" lon="5.66183">
        <ele>724</ele>
        <time>2019-11-29T07:47:20.000Z</time>
      </trkpt>
      <trkpt lat="43.3155" lon="5.66183">
        <ele>724</ele>
        <time>2019-11-29T07:47:21.000Z</time>
      </trkpt>
      <trkpt lat="43.3155" lon="5.66182">
        <ele>723</ele>
        <time>2019-11-29T07:47:22.000Z</time>
      </trkpt>
      <trkpt lat="43.3155" lon="5.66182">
        <ele>723</ele>
        <time>2019-11-29T07:47:23.000Z</time>
      </trkpt>
      <trkpt lat="43.3155" lon="5.66182">
        <ele>723</ele>
        <time>2019-11-29T07:47:24.000Z</time>
      </trkpt>
      <trkpt lat="43.3155" lon="5.66182">
        <ele>723</ele>
        <time>2019-11-29T07:47:25.000Z</time>
      </trkpt>
      <trkpt lat="43.3155" lon="5.66182">
        <ele>723</ele>
        <time>2019-11-29T07:47:26.000Z</time>
      </trkpt>
      <trkpt lat="43.3155" lon="5.66183">
        <ele>724</ele>
        <time>2019-11-29T07:47:27.000Z</time>
      </trkpt>
      <trkpt lat="43.3155" lon="5.66183">
        <ele>724</ele>
        <time>2019-11-29T07:47:28.000Z</time>
      </trkpt>
      <trkpt lat="43.3155" lon="5.66182">
        <ele>724</ele>
        <time>2019-11-29T07:47:29.000Z</time>
      </trkpt>
      <trkpt lat="43.3155" lon="5.66182">
        <ele>724</ele>
        <time>2019-11-29T07:47:30.000Z</time>
      </trkpt>
      <trkpt lat="43.3155" lon="5.66182">
        <ele>724</ele>
        <time>2019-11-29T07:47:31.000Z</time>
      </trkpt>
      <trkpt lat="43.31551" lon="5.66183">
        <ele>724</ele>
        <time>2019-11-29T07:47:32.000Z</time>
      </trkpt>
      <trkpt lat="43.31551" lon="5.66183">
        <ele>724</ele>
        <time>2019-11-29T07:47:33.000Z</time>
      </trkpt>
      <trkpt lat="43.31552" lon="5.66183">
        <ele>724</ele>
        <time>2019-11-29T07:47:34.000Z</time>
      </trkpt>
      <trkpt lat="43.31552" lon="5.66184">
        <ele>724</ele>
        <time>2019-11-29T07:47:35.000Z</time>
      </trkpt>
      <trkpt lat="43.31552" lon="5.66184">
        <ele>724</ele>
        <time>2019-11-29T07:47:36.000Z</time>
      </trkpt>
      <trkpt lat="43.31552" lon="5.66184">
        <ele>724</ele>
        <time>2019-11-29T07:47:37.000Z</time>
      </trkpt>
      <trkpt lat="43.31552" lon="5.66184">
        <ele>724</ele>
        <time>2019-11-29T07:47:38.000Z</time>
      </trkpt>
      <trkpt lat="43.31552" lon="5.66184">
        <ele>724</ele>
        <time>2019-11-29T07:47:39.000Z</time>
      </trkpt>
      <trkpt lat="43.31552" lon="5.66184">
        <ele>724</ele>
        <time>2019-11-29T07:47:40.000Z</time>
      </trkpt>
      <trkpt lat="43.31552" lon="5.66184">
        <ele>724</ele>
        <time>2019-11-29T07:47:41.000Z</time>
      </trkpt>
      <trkpt lat="43.31552" lon="5.66184">
        <ele>724</ele>
        <time>2019-11-29T07:47:42.000Z</time>
      </trkpt>
      <trkpt lat="43.31552" lon="5.66184">
        <ele>724</ele>
        <time>2019-11-29T07:47:43.000Z</time>
      </trkpt>
      <trkpt lat="43.31552" lon="5.66184">
        <ele>724</ele>
        <time>2019-11-29T07:47:44.000Z</time>
      </trkpt>
      <trkpt lat="43.31552" lon="5.66184">
        <ele>724</ele>
        <time>2019-11-29T07:47:45.000Z</time>
      </trkpt>
      <trkpt lat="43.31551" lon="5.66184">
        <ele>724</ele>
        <time>2019-11-29T07:47:46.000Z</time>
      </trkpt>
      <trkpt lat="43.31551" lon="5.66184">
        <ele>724</ele>
        <time>2019-11-29T07:47:47.000Z</time>
      </trkpt>
      <trkpt lat="43.31551" lon="5.66184">
        <ele>724</ele>
        <time>2019-11-29T07:47:48.000Z</time>
      </trkpt>
      <trkpt lat="43.31551" lon="5.66184">
        <ele>724</ele>
        <time>2019-11-29T07:47:49.000Z</time>
      </trkpt>
      <trkpt lat="43.3155" lon="5.66184">
        <ele>724</ele>
        <time>2019-11-29T07:47:50.000Z</time>
      </trkpt>
      <trkpt lat="43.3155" lon="5.66184">
        <ele>724</ele>
        <time>2019-11-29T07:47:51.000Z</time>
      </trkpt>
      <trkpt lat="43.3155" lon="5.66184">
        <ele>724</ele>
        <time>2019-11-29T07:47:52.000Z</time>
      </trkpt>
      <trkpt lat="43.3155" lon="5.66184">
        <ele>724</ele>
        <time>2019-11-29T07:47:53.000Z</time>
      </trkpt>
      <trkpt lat="43.3155" lon="5.66184">
        <ele>724</ele>
        <time>2019-11-29T07:47:54.000Z</time>
      </trkpt>
      <trkpt lat="43.3155" lon="5.66184">
        <ele>724</ele>
        <time>2019-11-29T07:47:55.000Z</time>
      </trkpt>
      <trkpt lat="43.3155" lon="5.66184">
        <ele>724</ele>
        <time>2019-11-29T07:47:56.000Z</time>
      </trkpt>
      <trkpt lat="43.3155" lon="5.66184">
        <ele>724</ele>
        <time>2019-11-29T07:47:57.000Z</time>
      </trkpt>
      <trkpt lat="43.3155" lon="5.66184">
        <ele>724</ele>
        <time>2019-11-29T07:47:58.000Z</time>
      </trkpt>
      <trkpt lat="43.31549" lon="5.66184">
        <ele>724</ele>
        <time>2019-11-29T07:47:59.000Z</time>
      </trkpt>
      <trkpt lat="43.31549" lon="5.66184">
        <ele>724</ele>
        <time>2019-11-29T07:48:00.000Z</time>
      </trkpt>
      <trkpt lat="43.31549" lon="5.66184">
        <ele>724</ele>
        <time>2019-11-29T07:48:01.000Z</time>
      </trkpt>
      <trkpt lat="43.31549" lon="5.66184">
        <ele>724</ele>
        <time>2019-11-29T07:48:02.000Z</time>
      </trkpt>
      <trkpt lat="43.31549" lon="5.66184">
        <ele>724</ele>
        <time>2019-11-29T07:48:03.000Z</time>
      </trkpt>
      <trkpt lat="43.31549" lon="5.66184">
        <ele>724</ele>
        <time>2019-11-29T07:48:04.000Z</time>
      </trkpt>
      <trkpt lat="43.31548" lon="5.66183">
        <ele>724</ele>
        <time>2019-11-29T07:48:05.000Z</time>
      </trkpt>
      <trkpt lat="43.31548" lon="5.66183">
        <ele>724</ele>
        <time>2019-11-29T07:48:06.000Z</time>
      </trkpt>
      <trkpt lat="43.31549" lon="5.66182">
        <ele>724</ele>
        <time>2019-11-29T07:48:07.000Z</time>
      </trkpt>
      <trkpt lat="43.31549" lon="5.66181">
        <ele>724</ele>
        <time>2019-11-29T07:48:08.000Z</time>
      </trkpt>
      <trkpt lat="43.31549" lon="5.66182">
        <ele>724</ele>
        <time>2019-11-29T07:48:09.000Z</time>
      </trkpt>
      <trkpt lat="43.31549" lon="5.66181">
        <ele>724</ele>
        <time>2019-11-29T07:48:10.000Z</time>
      </trkpt>
      <trkpt lat="43.3155" lon="5.66181">
        <ele>724</ele>
        <time>2019-11-29T07:48:11.000Z</time>
      </trkpt>
      <trkpt lat="43.3155" lon="5.66182">
        <ele>724</ele>
        <time>2019-11-29T07:48:12.000Z</time>
      </trkpt>
      <trkpt lat="43.3155" lon="5.66182">
        <ele>724</ele>
        <time>2019-11-29T07:48:13.000Z</time>
      </trkpt>
      <trkpt lat="43.3155" lon="5.66183">
        <ele>724</ele>
        <time>2019-11-29T07:48:14.000Z</time>
      </trkpt>
      <trkpt lat="43.3155" lon="5.66183">
        <ele>724</ele>
        <time>2019-11-29T07:48:15.000Z</time>
      </trkpt>
      <trkpt lat="43.3155" lon="5.66183">
        <ele>724</ele>
        <time>2019-11-29T07:48:16.000Z</time>
      </trkpt>
      <trkpt lat="43.3155" lon="5.66183">
        <ele>724</ele>
        <time>2019-11-29T07:48:17.000Z</time>
      </trkpt>
      <trkpt lat="43.3155" lon="5.66183">
        <ele>724</ele>
        <time>2019-11-29T07:48:18.000Z</time>
      </trkpt>
      <trkpt lat="43.3155" lon="5.66183">
        <ele>724</ele>
        <time>2019-11-29T07:48:19.000Z</time>
      </trkpt>
      <trkpt lat="43.3155" lon="5.66184">
        <ele>724</ele>
        <time>2019-11-29T07:48:20.000Z</time>
      </trkpt>
      <trkpt lat="43.3155" lon="5.66184">
        <ele>724</ele>
        <time>2019-11-29T07:48:21.000Z</time>
      </trkpt>
      <trkpt lat="43.3155" lon="5.66183">
        <ele>725</ele>
        <time>2019-11-29T07:48:22.000Z</time>
      </trkpt>
      <trkpt lat="43.3155" lon="5.66183">
        <ele>725</ele>
        <time>2019-11-29T07:48:23.000Z</time>
      </trkpt>
      <trkpt lat="43.31551" lon="5.66183">
        <ele>725</ele>
        <time>2019-11-29T07:48:24.000Z</time>
      </trkpt>
      <trkpt lat="43.31552" lon="5.66182">
        <ele>725</ele>
        <time>2019-11-29T07:48:25.000Z</time>
      </trkpt>
      <trkpt lat="43.31553" lon="5.66182">
        <ele>725</ele>
        <time>2019-11-29T07:48:26.000Z</time>
      </trkpt>
      <trkpt lat="43.31554" lon="5.66183">
        <ele>725</ele>
        <time>2019-11-29T07:48:27.000Z</time>
      </trkpt>
      <trkpt lat="43.31554" lon="5.66183">
        <ele>725</ele>
        <time>2019-11-29T07:48:28.000Z</time>
      </trkpt>
      <trkpt lat="43.31554" lon="5.66183">
        <ele>725</ele>
        <time>2019-11-29T07:48:29.000Z</time>
      </trkpt>
      <trkpt lat="43.31554" lon="5.66183">
        <ele>725</ele>
        <time>2019-11-29T07:48:30.000Z</time>
      </trkpt>
      <trkpt lat="43.31554" lon="5.66182">
        <ele>725</ele>
        <time>2019-11-29T07:48:31.000Z</time>
      </trkpt>
      <trkpt lat="43.31554" lon="5.66182">
        <ele>725</ele>
        <time>2019-11-29T07:48:32.000Z</time>
      </trkpt>
      <trkpt lat="43.31554" lon="5.66182">
        <ele>725</ele>
        <time>2019-11-29T07:48:33.000Z</time>
      </trkpt>
      <trkpt lat="43.31554" lon="5.66183">
        <ele>725</ele>
        <time>2019-11-29T07:48:34.000Z</time>
      </trkpt>
      <trkpt lat="43.31554" lon="5.66183">
        <ele>725</ele>
        <time>2019-11-29T07:48:35.000Z</time>
      </trkpt>
      <trkpt lat="43.31554" lon="5.66183">
        <ele>725</ele>
        <time>2019-11-29T07:48:36.000Z</time>
      </trkpt>
      <trkpt lat="43.31554" lon="5.66183">
        <ele>725</ele>
        <time>2019-11-29T07:48:37.000Z</time>
      </trkpt>
      <trkpt lat="43.31553" lon="5.66183">
        <ele>725</ele>
        <time>2019-11-29T07:48:38.000Z</time>
      </trkpt>
      <trkpt lat="43.31553" lon="5.66182">
        <ele>725</ele>
        <time>2019-11-29T07:48:39.000Z</time>
      </trkpt>
      <trkpt lat="43.31553" lon="5.66182">
        <ele>725</ele>
        <time>2019-11-29T07:48:40.000Z</time>
      </trkpt>
      <trkpt lat="43.31553" lon="5.66183">
        <ele>725</ele>
        <time>2019-11-29T07:48:41.000Z</time>
      </trkpt>
      <trkpt lat="43.31553" lon="5.66182">
        <ele>724</ele>
        <time>2019-11-29T07:48:42.000Z</time>
      </trkpt>
      <trkpt lat="43.31553" lon="5.66182">
        <ele>724</ele>
        <time>2019-11-29T07:48:43.000Z</time>
      </trkpt>
      <trkpt lat="43.31552" lon="5.66182">
        <ele>724</ele>
        <time>2019-11-29T07:48:44.000Z</time>
      </trkpt>
      <trkpt lat="43.31552" lon="5.66182">
        <ele>724</ele>
        <time>2019-11-29T07:48:45.000Z</time>
      </trkpt>
      <trkpt lat="43.31552" lon="5.66182">
        <ele>724</ele>
        <time>2019-11-29T07:48:46.000Z</time>
      </trkpt>
      <trkpt lat="43.31552" lon="5.66182">
        <ele>725</ele>
        <time>2019-11-29T07:48:47.000Z</time>
      </trkpt>
      <trkpt lat="43.31552" lon="5.66182">
        <ele>724</ele>
        <time>2019-11-29T07:48:48.000Z</time>
      </trkpt>
      <trkpt lat="43.31551" lon="5.66182">
        <ele>724</ele>
        <time>2019-11-29T07:48:49.000Z</time>
      </trkpt>
      <trkpt lat="43.3155" lon="5.66182">
        <ele>724</ele>
        <time>2019-11-29T07:48:50.000Z</time>
      </trkpt>
      <trkpt lat="43.31549" lon="5.66182">
        <ele>724</ele>
        <time>2019-11-29T07:48:51.000Z</time>
      </trkpt>
      <trkpt lat="43.31548" lon="5.66181">
        <ele>724</ele>
        <time>2019-11-29T07:48:52.000Z</time>
      </trkpt>
      <trkpt lat="43.31548" lon="5.66182">
        <ele>724</ele>
        <time>2019-11-29T07:48:53.000Z</time>
      </trkpt>
      <trkpt lat="43.31548" lon="5.66182">
        <ele>724</ele>
        <time>2019-11-29T07:48:54.000Z</time>
      </trkpt>
      <trkpt lat="43.31548" lon="5.66182">
        <ele>724</ele>
        <time>2019-11-29T07:48:55.000Z</time>
      </trkpt>
      <trkpt lat="43.31548" lon="5.66182">
        <ele>725</ele>
        <time>2019-11-29T07:48:56.000Z</time>
      </trkpt>
      <trkpt lat="43.31548" lon="5.66181">
        <ele>725</ele>
        <time>2019-11-29T07:48:57.000Z</time>
      </trkpt>
      <trkpt lat="43.31549" lon="5.66182">
        <ele>725</ele>
        <time>2019-11-29T07:48:58.000Z</time>
      </trkpt>
      <trkpt lat="43.31549" lon="5.66182">
        <ele>725</ele>
        <time>2019-11-29T07:48:59.000Z</time>
      </trkpt>
      <trkpt lat="43.31549" lon="5.66182">
        <ele>725</ele>
        <time>2019-11-29T07:49:00.000Z</time>
      </trkpt>
      <trkpt lat="43.31549" lon="5.66182">
        <ele>725</ele>
        <time>2019-11-29T07:49:01.000Z</time>
      </trkpt>
      <trkpt lat="43.31549" lon="5.66182">
        <ele>725</ele>
        <time>2019-11-29T07:49:02.000Z</time>
      </trkpt>
      <trkpt lat="43.31548" lon="5.66182">
        <ele>725</ele>
        <time>2019-11-29T07:49:03.000Z</time>
      </trkpt>
      <trkpt lat="43.31548" lon="5.66183">
        <ele>725</ele>
        <time>2019-11-29T07:49:04.000Z</time>
      </trkpt>
      <trkpt lat="43.31548" lon="5.66183">
        <ele>725</ele>
        <time>2019-11-29T07:49:05.000Z</time>
      </trkpt>
      <trkpt lat="43.31548" lon="5.66183">
        <ele>725</ele>
        <time>2019-11-29T07:49:06.000Z</time>
      </trkpt>
      <trkpt lat="43.31548" lon="5.66183">
        <ele>725</ele>
        <time>2019-11-29T07:49:07.000Z</time>
      </trkpt>
      <trkpt lat="43.31548" lon="5.66183">
        <ele>725</ele>
        <time>2019-11-29T07:49:08.000Z</time>
      </trkpt>
      <trkpt lat="43.31548" lon="5.66183">
        <ele>725</ele>
        <time>2019-11-29T07:49:09.000Z</time>
      </trkpt>
      <trkpt lat="43.31548" lon="5.66183">
        <ele>725</ele>
        <time>2019-11-29T07:49:10.000Z</time>
      </trkpt>
      <trkpt lat="43.31548" lon="5.66183">
        <ele>725</ele>
        <time>2019-11-29T07:49:11.000Z</time>
      </trkpt>
      <trkpt lat="43.31548" lon="5.66183">
        <ele>725</ele>
        <time>2019-11-29T07:49:12.000Z</time>
      </trkpt>
      <trkpt lat="43.31548" lon="5.66182">
        <ele>725</ele>
        <time>2019-11-29T07:49:13.000Z</time>
      </trkpt>
      <trkpt lat="43.31548" lon="5.66182">
        <ele>725</ele>
        <time>2019-11-29T07:49:14.000Z</time>
      </trkpt>
      <trkpt lat="43.31548" lon="5.66182">
        <ele>725</ele>
        <time>2019-11-29T07:49:15.000Z</time>
      </trkpt>
      <trkpt lat="43.31548" lon="5.66181">
        <ele>725</ele>
        <time>2019-11-29T07:49:16.000Z</time>
      </trkpt>
      <trkpt lat="43.31548" lon="5.66181">
        <ele>725</ele>
        <time>2019-11-29T07:49:17.000Z</time>
      </trkpt>
      <trkpt lat="43.31548" lon="5.66181">
        <ele>725</ele>
        <time>2019-11-29T07:49:18.000Z</time>
      </trkpt>
      <trkpt lat="43.31548" lon="5.66181">
        <ele>725</ele>
        <time>2019-11-29T07:49:19.000Z</time>
      </trkpt>
      <trkpt lat="43.31548" lon="5.66181">
        <ele>725</ele>
        <time>2019-11-29T07:49:20.000Z</time>
      </trkpt>
      <trkpt lat="43.31548" lon="5.66181">
        <ele>725</ele>
        <time>2019-11-29T07:49:21.000Z</time>
      </trkpt>
      <trkpt lat="43.31548" lon="5.66181">
        <ele>725</ele>
        <time>2019-11-29T07:49:22.000Z</time>
      </trkpt>
      <trkpt lat="43.31548" lon="5.6618">
        <ele>725</ele>
        <time>2019-11-29T07:49:23.000Z</time>
      </trkpt>
      <trkpt lat="43.31548" lon="5.66181">
        <ele>725</ele>
        <time>2019-11-29T07:49:24.000Z</time>
      </trkpt>
      <trkpt lat="43.31548" lon="5.66181">
        <ele>725</ele>
        <time>2019-11-29T07:49:25.000Z</time>
      </trkpt>
      <trkpt lat="43.31548" lon="5.6618">
        <ele>725</ele>
        <time>2019-11-29T07:49:26.000Z</time>
      </trkpt>
      <trkpt lat="43.31548" lon="5.6618">
        <ele>725</ele>
        <time>2019-11-29T07:49:27.000Z</time>
      </trkpt>
      <trkpt lat="43.31548" lon="5.6618">
        <ele>725</ele>
        <time>2019-11-29T07:49:28.000Z</time>
      </trkpt>
      <trkpt lat="43.31549" lon="5.66181">
        <ele>725</ele>
        <time>2019-11-29T07:49:29.000Z</time>
      </trkpt>
      <trkpt lat="43.31549" lon="5.66181">
        <ele>725</ele>
        <time>2019-11-29T07:49:30.000Z</time>
      </trkpt>
      <trkpt lat="43.31549" lon="5.66181">
        <ele>725</ele>
        <time>2019-11-29T07:49:31.000Z</time>
      </trkpt>
      <trkpt lat="43.31549" lon="5.66181">
        <ele>725</ele>
        <time>2019-11-29T07:49:32.000Z</time>
      </trkpt>
      <trkpt lat="43.31549" lon="5.66182">
        <ele>724</ele>
        <time>2019-11-29T07:49:33.000Z</time>
      </trkpt>
      <trkpt lat="43.31549" lon="5.66182">
        <ele>724</ele>
        <time>2019-11-29T07:49:34.000Z</time>
      </trkpt>
      <trkpt lat="43.31549" lon="5.66182">
        <ele>724</ele>
        <time>2019-11-29T07:49:35.000Z</time>
      </trkpt>
      <trkpt lat="43.31548" lon="5.66182">
        <ele>725</ele>
        <time>2019-11-29T07:49:36.000Z</time>
      </trkpt>
      <trkpt lat="43.31548" lon="5.66181">
        <ele>725</ele>
        <time>2019-11-29T07:49:37.000Z</time>
      </trkpt>
      <trkpt lat="43.31549" lon="5.66181">
        <ele>725</ele>
        <time>2019-11-29T07:49:38.000Z</time>
      </trkpt>
      <trkpt lat="43.31548" lon="5.66182">
        <ele>725</ele>
        <time>2019-11-29T07:49:39.000Z</time>
      </trkpt>
      <trkpt lat="43.31548" lon="5.66182">
        <ele>725</ele>
        <time>2019-11-29T07:49:40.000Z</time>
      </trkpt>
      <trkpt lat="43.31548" lon="5.66182">
        <ele>725</ele>
        <time>2019-11-29T07:49:41.000Z</time>
      </trkpt>
      <trkpt lat="43.31548" lon="5.66182">
        <ele>725</ele>
        <time>2019-11-29T07:49:42.000Z</time>
      </trkpt>
      <trkpt lat="43.31549" lon="5.66182">
        <ele>725</ele>
        <time>2019-11-29T07:49:43.000Z</time>
      </trkpt>
      <trkpt lat="43.31549" lon="5.66182">
        <ele>725</ele>
        <time>2019-11-29T07:49:44.000Z</time>
      </trkpt>
      <trkpt lat="43.31548" lon="5.66182">
        <ele>725</ele>
        <time>2019-11-29T07:49:45.000Z</time>
      </trkpt>
      <trkpt lat="43.31549" lon="5.66182">
        <ele>725</ele>
        <time>2019-11-29T07:49:46.000Z</time>
      </trkpt>
      <trkpt lat="43.31549" lon="5.66182">
        <ele>725</ele>
        <time>2019-11-29T07:49:47.000Z</time>
      </trkpt>
      <trkpt lat="43.31549" lon="5.66182">
        <ele>725</ele>
        <time>2019-11-29T07:49:48.000Z</time>
      </trkpt>
      <trkpt lat="43.31548" lon="5.66182">
        <ele>725</ele>
        <time>2019-11-29T07:49:49.000Z</time>
      </trkpt>
      <trkpt lat="43.31548" lon="5.66182">
        <ele>725</ele>
        <time>2019-11-29T07:49:50.000Z</time>
      </trkpt>
      <trkpt lat="43.31548" lon="5.66184">
        <ele>725</ele>
        <time>2019-11-29T07:49:51.000Z</time>
      </trkpt>
      <trkpt lat="43.31549" lon="5.66185">
        <ele>725</ele>
        <time>2019-11-29T07:49:52.000Z</time>
      </trkpt>
      <trkpt lat="43.31549" lon="5.66185">
        <ele>725</ele>
        <time>2019-11-29T07:49:53.000Z</time>
      </trkpt>
      <trkpt lat="43.31549" lon="5.66185">
        <ele>725</ele>
        <time>2019-11-29T07:49:54.000Z</time>
      </trkpt>
      <trkpt lat="43.31549" lon="5.66185">
        <ele>725</ele>
        <time>2019-11-29T07:49:55.000Z</time>
      </trkpt>
      <trkpt lat="43.31549" lon="5.66185">
        <ele>725</ele>
        <time>2019-11-29T07:49:56.000Z</time>
      </trkpt>
      <trkpt lat="43.31549" lon="5.66185">
        <ele>725</ele>
        <time>2019-11-29T07:49:57.000Z</time>
      </trkpt>
      <trkpt lat="43.31549" lon="5.66185">
        <ele>725</ele>
        <time>2019-11-29T07:49:58.000Z</time>
      </trkpt>
      <trkpt lat="43.31549" lon="5.66185">
        <ele>725</ele>
        <time>2019-11-29T07:49:59.000Z</time>
      </trkpt>
      <trkpt lat="43.31549" lon="5.66185">
        <ele>725</ele>
        <time>2019-11-29T07:50:00.000Z</time>
      </trkpt>
      <trkpt lat="43.31549" lon="5.66185">
        <ele>725</ele>
        <time>2019-11-29T07:50:01.000Z</time>
      </trkpt>
      <trkpt lat="43.31549" lon="5.66185">
        <ele>725</ele>
        <time>2019-11-29T07:50:02.000Z</time>
      </trkpt>
      <trkpt lat="43.31549" lon="5.66185">
        <ele>725</ele>
        <time>2019-11-29T07:50:03.000Z</time>
      </trkpt>
      <trkpt lat="43.3155" lon="5.66184">
        <ele>725</ele>
        <time>2019-11-29T07:50:04.000Z</time>
      </trkpt>
      <trkpt lat="43.31551" lon="5.66184">
        <ele>725</ele>
        <time>2019-11-29T07:50:05.000Z</time>
      </trkpt>
      <trkpt lat="43.31552" lon="5.66183">
        <ele>725</ele>
        <time>2019-11-29T07:50:06.000Z</time>
      </trkpt>
      <trkpt lat="43.31552" lon="5.66184">
        <ele>725</ele>
        <time>2019-11-29T07:50:07.000Z</time>
      </trkpt>
      <trkpt lat="43.31553" lon="5.66184">
        <ele>725</ele>
        <time>2019-11-29T07:50:08.000Z</time>
      </trkpt>
      <trkpt lat="43.31554" lon="5.66184">
        <ele>725</ele>
        <time>2019-11-29T07:50:09.000Z</time>
      </trkpt>
      <trkpt lat="43.31555" lon="5.66184">
        <ele>725</ele>
        <time>2019-11-29T07:50:10.000Z</time>
      </trkpt>
      <trkpt lat="43.31556" lon="5.66184">
        <ele>725</ele>
        <time>2019-11-29T07:50:11.000Z</time>
      </trkpt>
      <trkpt lat="43.31557" lon="5.66184">
        <ele>725</ele>
        <time>2019-11-29T07:50:12.000Z</time>
      </trkpt>
      <trkpt lat="43.31558" lon="5.66184">
        <ele>725</ele>
        <time>2019-11-29T07:50:13.000Z</time>
      </trkpt>
      <trkpt lat="43.31559" lon="5.66184">
        <ele>725</ele>
        <time>2019-11-29T07:50:14.000Z</time>
      </trkpt>
      <trkpt lat="43.31561" lon="5.66185">
        <ele>725</ele>
        <time>2019-11-29T07:50:15.000Z</time>
      </trkpt>
      <trkpt lat="43.31561" lon="5.66185">
        <ele>725</ele>
        <time>2019-11-29T07:50:16.000Z</time>
      </trkpt>
      <trkpt lat="43.31562" lon="5.66185">
        <ele>726</ele>
        <time>2019-11-29T07:50:17.000Z</time>
      </trkpt>
      <trkpt lat="43.31563" lon="5.66185">
        <ele>726</ele>
        <time>2019-11-29T07:50:18.000Z</time>
      </trkpt>
      <trkpt lat="43.31565" lon="5.66186">
        <ele>726</ele>
        <time>2019-11-29T07:50:19.000Z</time>
      </trkpt>
      <trkpt lat="43.31566" lon="5.66186">
        <ele>726</ele>
        <time>2019-11-29T07:50:20.000Z</time>
      </trkpt>
      <trkpt lat="43.31566" lon="5.66187">
        <ele>726</ele>
        <time>2019-11-29T07:50:21.000Z</time>
      </trkpt>
      <trkpt lat="43.31566" lon="5.66187">
        <ele>726</ele>
        <time>2019-11-29T07:50:22.000Z</time>
      </trkpt>
      <trkpt lat="43.31567" lon="5.66187">
        <ele>726</ele>
        <time>2019-11-29T07:50:23.000Z</time>
      </trkpt>
      <trkpt lat="43.31568" lon="5.66187">
        <ele>726</ele>
        <time>2019-11-29T07:50:24.000Z</time>
      </trkpt>
      <trkpt lat="43.31569" lon="5.66188">
        <ele>726</ele>
        <time>2019-11-29T07:50:25.000Z</time>
      </trkpt>
      <trkpt lat="43.3157" lon="5.66188">
        <ele>726</ele>
        <time>2019-11-29T07:50:26.000Z</time>
      </trkpt>
      <trkpt lat="43.31571" lon="5.66189">
        <ele>726</ele>
        <time>2019-11-29T07:50:27.000Z</time>
      </trkpt>
      <trkpt lat="43.31572" lon="5.6619">
        <ele>726</ele>
        <time>2019-11-29T07:50:28.000Z</time>
      </trkpt>
      <trkpt lat="43.31573" lon="5.66191">
        <ele>726</ele>
        <time>2019-11-29T07:50:29.000Z</time>
      </trkpt>
      <trkpt lat="43.31574" lon="5.66191">
        <ele>726</ele>
        <time>2019-11-29T07:50:30.000Z</time>
      </trkpt>
      <trkpt lat="43.31575" lon="5.66191">
        <ele>726</ele>
        <time>2019-11-29T07:50:31.000Z</time>
      </trkpt>
      <trkpt lat="43.31576" lon="5.66191">
        <ele>726</ele>
        <time>2019-11-29T07:50:32.000Z</time>
      </trkpt>
      <trkpt lat="43.31577" lon="5.66192">
        <ele>726</ele>
        <time>2019-11-29T07:50:33.000Z</time>
      </trkpt>
      <trkpt lat="43.31578" lon="5.66192">
        <ele>726</ele>
        <time>2019-11-29T07:50:34.000Z</time>
      </trkpt>
      <trkpt lat="43.31578" lon="5.66192">
        <ele>726</ele>
        <time>2019-11-29T07:50:35.000Z</time>
      </trkpt>
      <trkpt lat="43.31579" lon="5.66193">
        <ele>727</ele>
        <time>2019-11-29T07:50:36.000Z</time>
      </trkpt>
      <trkpt lat="43.3158" lon="5.66193">
        <ele>727</ele>
        <time>2019-11-29T07:50:37.000Z</time>
      </trkpt>
      <trkpt lat="43.31581" lon="5.66193">
        <ele>727</ele>
        <time>2019-11-29T07:50:38.000Z</time>
      </trkpt>
      <trkpt lat="43.31581" lon="5.66193">
        <ele>728</ele>
        <time>2019-11-29T07:50:39.000Z</time>
      </trkpt>
      <trkpt lat="43.31582" lon="5.66193">
        <ele>728</ele>
        <time>2019-11-29T07:50:40.000Z</time>
      </trkpt>
      <trkpt lat="43.31583" lon="5.66194">
        <ele>728</ele>
        <time>2019-11-29T07:50:41.000Z</time>
      </trkpt>
      <trkpt lat="43.31584" lon="5.66194">
        <ele>728</ele>
        <time>2019-11-29T07:50:42.000Z</time>
      </trkpt>
      <trkpt lat="43.31585" lon="5.66194">
        <ele>729</ele>
        <time>2019-11-29T07:50:43.000Z</time>
      </trkpt>
      <trkpt lat="43.31586" lon="5.66195">
        <ele>729</ele>
        <time>2019-11-29T07:50:44.000Z</time>
      </trkpt>
      <trkpt lat="43.31586" lon="5.66195">
        <ele>729</ele>
        <time>2019-11-29T07:50:45.000Z</time>
      </trkpt>
      <trkpt lat="43.31587" lon="5.66195">
        <ele>729</ele>
        <time>2019-11-29T07:50:46.000Z</time>
      </trkpt>
      <trkpt lat="43.31588" lon="5.66195">
        <ele>729</ele>
        <time>2019-11-29T07:50:47.000Z</time>
      </trkpt>
      <trkpt lat="43.31588" lon="5.66195">
        <ele>729</ele>
        <time>2019-11-29T07:50:48.000Z</time>
      </trkpt>
      <trkpt lat="43.3159" lon="5.66195">
        <ele>729</ele>
        <time>2019-11-29T07:50:49.000Z</time>
      </trkpt>
      <trkpt lat="43.3159" lon="5.66196">
        <ele>729</ele>
        <time>2019-11-29T07:50:50.000Z</time>
      </trkpt>
      <trkpt lat="43.31591" lon="5.66196">
        <ele>729</ele>
        <time>2019-11-29T07:50:51.000Z</time>
      </trkpt>
      <trkpt lat="43.31591" lon="5.66197">
        <ele>729</ele>
        <time>2019-11-29T07:50:52.000Z</time>
      </trkpt>
      <trkpt lat="43.31591" lon="5.66197">
        <ele>729</ele>
        <time>2019-11-29T07:50:53.000Z</time>
      </trkpt>
      <trkpt lat="43.31591" lon="5.66197">
        <ele>729</ele>
        <time>2019-11-29T07:50:54.000Z</time>
      </trkpt>
      <trkpt lat="43.31592" lon="5.66197">
        <ele>729</ele>
        <time>2019-11-29T07:50:55.000Z</time>
      </trkpt>
      <trkpt lat="43.31593" lon="5.66197">
        <ele>729</ele>
        <time>2019-11-29T07:50:56.000Z</time>
      </trkpt>
      <trkpt lat="43.31594" lon="5.66197">
        <ele>729</ele>
        <time>2019-11-29T07:50:57.000Z</time>
      </trkpt>
      <trkpt lat="43.31594" lon="5.66197">
        <ele>729</ele>
        <time>2019-11-29T07:50:58.000Z</time>
      </trkpt>
      <trkpt lat="43.31595" lon="5.66197">
        <ele>729</ele>
        <time>2019-11-29T07:50:59.000Z</time>
      </trkpt>
      <trkpt lat="43.31596" lon="5.66198">
        <ele>729</ele>
        <time>2019-11-29T07:51:00.000Z</time>
      </trkpt>
      <trkpt lat="43.31597" lon="5.66198">
        <ele>729</ele>
        <time>2019-11-29T07:51:01.000Z</time>
      </trkpt>
      <trkpt lat="43.31597" lon="5.66198">
        <ele>730</ele>
        <time>2019-11-29T07:51:02.000Z</time>
      </trkpt>
      <trkpt lat="43.31598" lon="5.66198">
        <ele>730</ele>
        <time>2019-11-29T07:51:03.000Z</time>
      </trkpt>
      <trkpt lat="43.31599" lon="5.66198">
        <ele>730</ele>
        <time>2019-11-29T07:51:04.000Z</time>
      </trkpt>
      <trkpt lat="43.31599" lon="5.66198">
        <ele>730</ele>
        <time>2019-11-29T07:51:05.000Z</time>
      </trkpt>
      <trkpt lat="43.316" lon="5.66197">
        <ele>730</ele>
        <time>2019-11-29T07:51:06.000Z</time>
      </trkpt>
      <trkpt lat="43.31601" lon="5.66197">
        <ele>730</ele>
        <time>2019-11-29T07:51:07.000Z</time>
      </trkpt>
      <trkpt lat="43.31601" lon="5.66197">
        <ele>730</ele>
        <time>2019-11-29T07:51:08.000Z</time>
      </trkpt>
      <trkpt lat="43.31601" lon="5.66197">
        <ele>731</ele>
        <time>2019-11-29T07:51:09.000Z</time>
      </trkpt>
      <trkpt lat="43.31601" lon="5.66197">
        <ele>731</ele>
        <time>2019-11-29T07:51:10.000Z</time>
      </trkpt>
      <trkpt lat="43.31601" lon="5.66197">
        <ele>731</ele>
        <time>2019-11-29T07:51:11.000Z</time>
      </trkpt>
      <trkpt lat="43.31601" lon="5.66197">
        <ele>731</ele>
        <time>2019-11-29T07:51:12.000Z</time>
      </trkpt>
      <trkpt lat="43.31601" lon="5.66197">
        <ele>731</ele>
        <time>2019-11-29T07:51:13.000Z</time>
      </trkpt>
      <trkpt lat="43.31601" lon="5.66197">
        <ele>731</ele>
        <time>2019-11-29T07:51:14.000Z</time>
      </trkpt>
      <trkpt lat="43.31601" lon="5.66197">
        <ele>731</ele>
        <time>2019-11-29T07:51:15.000Z</time>
      </trkpt>
      <trkpt lat="43.31601" lon="5.66197">
        <ele>731</ele>
        <time>2019-11-29T07:51:16.000Z</time>
      </trkpt>
      <trkpt lat="43.31602" lon="5.66197">
        <ele>731</ele>
        <time>2019-11-29T07:51:17.000Z</time>
      </trkpt>
      <trkpt lat="43.31602" lon="5.66197">
        <ele>731</ele>
        <time>2019-11-29T07:51:18.000Z</time>
      </trkpt>
      <trkpt lat="43.31602" lon="5.66197">
        <ele>731</ele>
        <time>2019-11-29T07:51:19.000Z</time>
      </trkpt>
      <trkpt lat="43.31602" lon="5.66196">
        <ele>731</ele>
        <time>2019-11-29T07:51:20.000Z</time>
      </trkpt>
      <trkpt lat="43.31602" lon="5.66197">
        <ele>731</ele>
        <time>2019-11-29T07:51:21.000Z</time>
      </trkpt>
      <trkpt lat="43.31603" lon="5.66197">
        <ele>731</ele>
        <time>2019-11-29T07:51:22.000Z</time>
      </trkpt>
      <trkpt lat="43.31604" lon="5.66197">
        <ele>731</ele>
        <time>2019-11-29T07:51:23.000Z</time>
      </trkpt>
      <trkpt lat="43.31605" lon="5.66198">
        <ele>731</ele>
        <time>2019-11-29T07:51:24.000Z</time>
      </trkpt>
      <trkpt lat="43.31607" lon="5.66198">
        <ele>731</ele>
        <time>2019-11-29T07:51:25.000Z</time>
      </trkpt>
      <trkpt lat="43.31609" lon="5.66199">
        <ele>731</ele>
        <time>2019-11-29T07:51:26.000Z</time>
      </trkpt>
      <trkpt lat="43.3161" lon="5.662">
        <ele>730</ele>
        <time>2019-11-29T07:51:27.000Z</time>
      </trkpt>
      <trkpt lat="43.31611" lon="5.66201">
        <ele>730</ele>
        <time>2019-11-29T07:51:28.000Z</time>
      </trkpt>
      <trkpt lat="43.31612" lon="5.66202">
        <ele>730</ele>
        <time>2019-11-29T07:51:29.000Z</time>
      </trkpt>
      <trkpt lat="43.31613" lon="5.66203">
        <ele>730</ele>
        <time>2019-11-29T07:51:30.000Z</time>
      </trkpt>
      <trkpt lat="43.31614" lon="5.66204">
        <ele>730</ele>
        <time>2019-11-29T07:51:31.000Z</time>
      </trkpt>
      <trkpt lat="43.31614" lon="5.66205">
        <ele>730</ele>
        <time>2019-11-29T07:51:32.000Z</time>
      </trkpt>
      <trkpt lat="43.31615" lon="5.66206">
        <ele>730</ele>
        <time>2019-11-29T07:51:33.000Z</time>
      </trkpt>
      <trkpt lat="43.31616" lon="5.66206">
        <ele>730</ele>
        <time>2019-11-29T07:51:34.000Z</time>
      </trkpt>
      <trkpt lat="43.31617" lon="5.66207">
        <ele>730</ele>
        <time>2019-11-29T07:51:35.000Z</time>
      </trkpt>
      <trkpt lat="43.31618" lon="5.66207">
        <ele>730</ele>
        <time>2019-11-29T07:51:36.000Z</time>
      </trkpt>
      <trkpt lat="43.31618" lon="5.66208">
        <ele>730</ele>
        <time>2019-11-29T07:51:37.000Z</time>
      </trkpt>
      <trkpt lat="43.31619" lon="5.66208">
        <ele>731</ele>
        <time>2019-11-29T07:51:38.000Z</time>
      </trkpt>
      <trkpt lat="43.3162" lon="5.66209">
        <ele>731</ele>
        <time>2019-11-29T07:51:39.000Z</time>
      </trkpt>
      <trkpt lat="43.3162" lon="5.66209">
        <ele>731</ele>
        <time>2019-11-29T07:51:40.000Z</time>
      </trkpt>
      <trkpt lat="43.31621" lon="5.6621">
        <ele>731</ele>
        <time>2019-11-29T07:51:41.000Z</time>
      </trkpt>
      <trkpt lat="43.31621" lon="5.66211">
        <ele>731</ele>
        <time>2019-11-29T07:51:42.000Z</time>
      </trkpt>
      <trkpt lat="43.31622" lon="5.66211">
        <ele>731</ele>
        <time>2019-11-29T07:51:43.000Z</time>
      </trkpt>
      <trkpt lat="43.31622" lon="5.66211">
        <ele>731</ele>
        <time>2019-11-29T07:51:44.000Z</time>
      </trkpt>
      <trkpt lat="43.31623" lon="5.66211">
        <ele>731</ele>
        <time>2019-11-29T07:51:45.000Z</time>
      </trkpt>
      <trkpt lat="43.31623" lon="5.66211">
        <ele>731</ele>
        <time>2019-11-29T07:51:46.000Z</time>
      </trkpt>
      <trkpt lat="43.31623" lon="5.66211">
        <ele>731</ele>
        <time>2019-11-29T07:51:47.000Z</time>
      </trkpt>
      <trkpt lat="43.31623" lon="5.6621">
        <ele>731</ele>
        <time>2019-11-29T07:51:48.000Z</time>
      </trkpt>
      <trkpt lat="43.31623" lon="5.6621">
        <ele>731</ele>
        <time>2019-11-29T07:51:49.000Z</time>
      </trkpt>
      <trkpt lat="43.31623" lon="5.6621">
        <ele>731</ele>
        <time>2019-11-29T07:51:50.000Z</time>
      </trkpt>
      <trkpt lat="43.31623" lon="5.6621">
        <ele>731</ele>
        <time>2019-11-29T07:51:51.000Z</time>
      </trkpt>
      <trkpt lat="43.31623" lon="5.6621">
        <ele>732</ele>
        <time>2019-11-29T07:51:52.000Z</time>
      </trkpt>
      <trkpt lat="43.31623" lon="5.6621">
        <ele>732</ele>
        <time>2019-11-29T07:51:53.000Z</time>
      </trkpt>
      <trkpt lat="43.31623" lon="5.6621">
        <ele>732</ele>
        <time>2019-11-29T07:51:54.000Z</time>
      </trkpt>
      <trkpt lat="43.31624" lon="5.6621">
        <ele>732</ele>
        <time>2019-11-29T07:51:55.000Z</time>
      </trkpt>
      <trkpt lat="43.31624" lon="5.66211">
        <ele>732</ele>
        <time>2019-11-29T07:51:56.000Z</time>
      </trkpt>
      <trkpt lat="43.31624" lon="5.66211">
        <ele>732</ele>
        <time>2019-11-29T07:51:57.000Z</time>
      </trkpt>
      <trkpt lat="43.31625" lon="5.66211">
        <ele>732</ele>
        <time>2019-11-29T07:51:58.000Z</time>
      </trkpt>
      <trkpt lat="43.31625" lon="5.66212">
        <ele>732</ele>
        <time>2019-11-29T07:51:59.000Z</time>
      </trkpt>
      <trkpt lat="43.31626" lon="5.66213">
        <ele>732</ele>
        <time>2019-11-29T07:52:00.000Z</time>
      </trkpt>
      <trkpt lat="43.31627" lon="5.66214">
        <ele>732</ele>
        <time>2019-11-29T07:52:01.000Z</time>
      </trkpt>
      <trkpt lat="43.31627" lon="5.66215">
        <ele>732</ele>
        <time>2019-11-29T07:52:02.000Z</time>
      </trkpt>
      <trkpt lat="43.31628" lon="5.66216">
        <ele>732</ele>
        <time>2019-11-29T07:52:03.000Z</time>
      </trkpt>
      <trkpt lat="43.31629" lon="5.66217">
        <ele>732</ele>
        <time>2019-11-29T07:52:04.000Z</time>
      </trkpt>
      <trkpt lat="43.3163" lon="5.66218">
        <ele>732</ele>
        <time>2019-11-29T07:52:05.000Z</time>
      </trkpt>
      <trkpt lat="43.31631" lon="5.66218">
        <ele>733</ele>
        <time>2019-11-29T07:52:06.000Z</time>
      </trkpt>
      <trkpt lat="43.31631" lon="5.66218">
        <ele>733</ele>
        <time>2019-11-29T07:52:07.000Z</time>
      </trkpt>
      <trkpt lat="43.31632" lon="5.66219">
        <ele>733</ele>
        <time>2019-11-29T07:52:08.000Z</time>
      </trkpt>
      <trkpt lat="43.31632" lon="5.66219">
        <ele>733</ele>
        <time>2019-11-29T07:52:09.000Z</time>
      </trkpt>
      <trkpt lat="43.31632" lon="5.6622">
        <ele>733</ele>
        <time>2019-11-29T07:52:10.000Z</time>
      </trkpt>
      <trkpt lat="43.31633" lon="5.66221">
        <ele>733</ele>
        <time>2019-11-29T07:52:11.000Z</time>
      </trkpt>
      <trkpt lat="43.31633" lon="5.66221">
        <ele>733</ele>
        <time>2019-11-29T07:52:12.000Z</time>
      </trkpt>
      <trkpt lat="43.31634" lon="5.66222">
        <ele>733</ele>
        <time>2019-11-29T07:52:13.000Z</time>
      </trkpt>
      <trkpt lat="43.31634" lon="5.66223">
        <ele>733</ele>
        <time>2019-11-29T07:52:14.000Z</time>
      </trkpt>
      <trkpt lat="43.31635" lon="5.66223">
        <ele>733</ele>
        <time>2019-11-29T07:52:15.000Z</time>
      </trkpt>
      <trkpt lat="43.31636" lon="5.66224">
        <ele>733</ele>
        <time>2019-11-29T07:52:16.000Z</time>
      </trkpt>
      <trkpt lat="43.31637" lon="5.66225">
        <ele>733</ele>
        <time>2019-11-29T07:52:17.000Z</time>
      </trkpt>
      <trkpt lat="43.31637" lon="5.66226">
        <ele>733</ele>
        <time>2019-11-29T07:52:18.000Z</time>
      </trkpt>
      <trkpt lat="43.31638" lon="5.66227">
        <ele>733</ele>
        <time>2019-11-29T07:52:19.000Z</time>
      </trkpt>
      <trkpt lat="43.31638" lon="5.66228">
        <ele>734</ele>
        <time>2019-11-29T07:52:20.000Z</time>
      </trkpt>
      <trkpt lat="43.31639" lon="5.66229">
        <ele>734</ele>
        <time>2019-11-29T07:52:21.000Z</time>
      </trkpt>
      <trkpt lat="43.31639" lon="5.6623">
        <ele>734</ele>
        <time>2019-11-29T07:52:22.000Z</time>
      </trkpt>
      <trkpt lat="43.3164" lon="5.66231">
        <ele>734</ele>
        <time>2019-11-29T07:52:23.000Z</time>
      </trkpt>
      <trkpt lat="43.3164" lon="5.66232">
        <ele>734</ele>
        <time>2019-11-29T07:52:24.000Z</time>
      </trkpt>
      <trkpt lat="43.31641" lon="5.66233">
        <ele>734</ele>
        <time>2019-11-29T07:52:25.000Z</time>
      </trkpt>
      <trkpt lat="43.31641" lon="5.66235">
        <ele>734</ele>
        <time>2019-11-29T07:52:26.000Z</time>
      </trkpt>
      <trkpt lat="43.31642" lon="5.66236">
        <ele>734</ele>
        <time>2019-11-29T07:52:27.000Z</time>
      </trkpt>
      <trkpt lat="43.31642" lon="5.66237">
        <ele>734</ele>
        <time>2019-11-29T07:52:28.000Z</time>
      </trkpt>
      <trkpt lat="43.31642" lon="5.66238">
        <ele>734</ele>
        <time>2019-11-29T07:52:29.000Z</time>
      </trkpt>
      <trkpt lat="43.31643" lon="5.66239">
        <ele>734</ele>
        <time>2019-11-29T07:52:30.000Z</time>
      </trkpt>
      <trkpt lat="43.31643" lon="5.6624">
        <ele>735</ele>
        <time>2019-11-29T07:52:31.000Z</time>
      </trkpt>
      <trkpt lat="43.31643" lon="5.66241">
        <ele>735</ele>
        <time>2019-11-29T07:52:32.000Z</time>
      </trkpt>
      <trkpt lat="43.31643" lon="5.66243">
        <ele>735</ele>
        <time>2019-11-29T07:52:33.000Z</time>
      </trkpt>
      <trkpt lat="43.31644" lon="5.66244">
        <ele>736</ele>
        <time>2019-11-29T07:52:34.000Z</time>
      </trkpt>
      <trkpt lat="43.31644" lon="5.66245">
        <ele>736</ele>
        <time>2019-11-29T07:52:35.000Z</time>
      </trkpt>
      <trkpt lat="43.31644" lon="5.66246">
        <ele>736</ele>
        <time>2019-11-29T07:52:36.000Z</time>
      </trkpt>
      <trkpt lat="43.31644" lon="5.66247">
        <ele>736</ele>
        <time>2019-11-29T07:52:37.000Z</time>
      </trkpt>
      <trkpt lat="43.31645" lon="5.66247">
        <ele>737</ele>
        <time>2019-11-29T07:52:38.000Z</time>
      </trkpt>
      <trkpt lat="43.31645" lon="5.66248">
        <ele>737</ele>
        <time>2019-11-29T07:52:39.000Z</time>
      </trkpt>
      <trkpt lat="43.31646" lon="5.66248">
        <ele>737</ele>
        <time>2019-11-29T07:52:40.000Z</time>
      </trkpt>
      <trkpt lat="43.31646" lon="5.66249">
        <ele>737</ele>
        <time>2019-11-29T07:52:41.000Z</time>
      </trkpt>
      <trkpt lat="43.31647" lon="5.6625">
        <ele>738</ele>
        <time>2019-11-29T07:52:42.000Z</time>
      </trkpt>
      <trkpt lat="43.31647" lon="5.6625">
        <ele>738</ele>
        <time>2019-11-29T07:52:43.000Z</time>
      </trkpt>
      <trkpt lat="43.31647" lon="5.66251">
        <ele>738</ele>
        <time>2019-11-29T07:52:44.000Z</time>
      </trkpt>
      <trkpt lat="43.31648" lon="5.66251">
        <ele>738</ele>
        <time>2019-11-29T07:52:45.000Z</time>
      </trkpt>
      <trkpt lat="43.31648" lon="5.66252">
        <ele>738</ele>
        <time>2019-11-29T07:52:46.000Z</time>
      </trkpt>
      <trkpt lat="43.31647" lon="5.66253">
        <ele>739</ele>
        <time>2019-11-29T07:52:47.000Z</time>
      </trkpt>
      <trkpt lat="43.31648" lon="5.66254">
        <ele>739</ele>
        <time>2019-11-29T07:52:48.000Z</time>
      </trkpt>
      <trkpt lat="43.31648" lon="5.66254">
        <ele>739</ele>
        <time>2019-11-29T07:52:49.000Z</time>
      </trkpt>
      <trkpt lat="43.31648" lon="5.66255">
        <ele>739</ele>
        <time>2019-11-29T07:52:50.000Z</time>
      </trkpt>
      <trkpt lat="43.31649" lon="5.66256">
        <ele>739</ele>
        <time>2019-11-29T07:52:51.000Z</time>
      </trkpt>
      <trkpt lat="43.31649" lon="5.66257">
        <ele>739</ele>
        <time>2019-11-29T07:52:52.000Z</time>
      </trkpt>
      <trkpt lat="43.31649" lon="5.66258">
        <ele>740</ele>
        <time>2019-11-29T07:52:53.000Z</time>
      </trkpt>
      <trkpt lat="43.31649" lon="5.66259">
        <ele>740</ele>
        <time>2019-11-29T07:52:54.000Z</time>
      </trkpt>
      <trkpt lat="43.3165" lon="5.6626">
        <ele>740</ele>
        <time>2019-11-29T07:52:55.000Z</time>
      </trkpt>
      <trkpt lat="43.31651" lon="5.66261">
        <ele>741</ele>
        <time>2019-11-29T07:52:56.000Z</time>
      </trkpt>
      <trkpt lat="43.31651" lon="5.66262">
        <ele>741</ele>
        <time>2019-11-29T07:52:57.000Z</time>
      </trkpt>
      <trkpt lat="43.31652" lon="5.66263">
        <ele>741</ele>
        <time>2019-11-29T07:52:58.000Z</time>
      </trkpt>
      <trkpt lat="43.31652" lon="5.66264">
        <ele>741</ele>
        <time>2019-11-29T07:52:59.000Z</time>
      </trkpt>
      <trkpt lat="43.31651" lon="5.66265">
        <ele>741</ele>
        <time>2019-11-29T07:53:00.000Z</time>
      </trkpt>
      <trkpt lat="43.3165" lon="5.66266">
        <ele>742</ele>
        <time>2019-11-29T07:53:01.000Z</time>
      </trkpt>
      <trkpt lat="43.3165" lon="5.66267">
        <ele>742</ele>
        <time>2019-11-29T07:53:02.000Z</time>
      </trkpt>
      <trkpt lat="43.3165" lon="5.66268">
        <ele>742</ele>
        <time>2019-11-29T07:53:03.000Z</time>
      </trkpt>
      <trkpt lat="43.31651" lon="5.66269">
        <ele>743</ele>
        <time>2019-11-29T07:53:04.000Z</time>
      </trkpt>
      <trkpt lat="43.31651" lon="5.66269">
        <ele>743</ele>
        <time>2019-11-29T07:53:05.000Z</time>
      </trkpt>
      <trkpt lat="43.31652" lon="5.6627">
        <ele>743</ele>
        <time>2019-11-29T07:53:06.000Z</time>
      </trkpt>
      <trkpt lat="43.31652" lon="5.66271">
        <ele>743</ele>
        <time>2019-11-29T07:53:07.000Z</time>
      </trkpt>
      <trkpt lat="43.31653" lon="5.66272">
        <ele>743</ele>
        <time>2019-11-29T07:53:08.000Z</time>
      </trkpt>
      <trkpt lat="43.31653" lon="5.66272">
        <ele>743</ele>
        <time>2019-11-29T07:53:09.000Z</time>
      </trkpt>
      <trkpt lat="43.31654" lon="5.66273">
        <ele>743</ele>
        <time>2019-11-29T07:53:10.000Z</time>
      </trkpt>
      <trkpt lat="43.31654" lon="5.66273">
        <ele>744</ele>
        <time>2019-11-29T07:53:11.000Z</time>
      </trkpt>
      <trkpt lat="43.31655" lon="5.66274">
        <ele>744</ele>
        <time>2019-11-29T07:53:12.000Z</time>
      </trkpt>
      <trkpt lat="43.31655" lon="5.66275">
        <ele>744</ele>
        <time>2019-11-29T07:53:13.000Z</time>
      </trkpt>
      <trkpt lat="43.31656" lon="5.66275">
        <ele>744</ele>
        <time>2019-11-29T07:53:14.000Z</time>
      </trkpt>
      <trkpt lat="43.31656" lon="5.66276">
        <ele>745</ele>
        <time>2019-11-29T07:53:15.000Z</time>
      </trkpt>
      <trkpt lat="43.31656" lon="5.66278">
        <ele>745</ele>
        <time>2019-11-29T07:53:16.000Z</time>
      </trkpt>
      <trkpt lat="43.31657" lon="5.66279">
        <ele>745</ele>
        <time>2019-11-29T07:53:17.000Z</time>
      </trkpt>
      <trkpt lat="43.31657" lon="5.6628">
        <ele>745</ele>
        <time>2019-11-29T07:53:18.000Z</time>
      </trkpt>
      <trkpt lat="43.31657" lon="5.66282">
        <ele>745</ele>
        <time>2019-11-29T07:53:19.000Z</time>
      </trkpt>
      <trkpt lat="43.31657" lon="5.66282">
        <ele>745</ele>
        <time>2019-11-29T07:53:20.000Z</time>
      </trkpt>
      <trkpt lat="43.31657" lon="5.66283">
        <ele>745</ele>
        <time>2019-11-29T07:53:21.000Z</time>
      </trkpt>
      <trkpt lat="43.31658" lon="5.66285">
        <ele>745</ele>
        <time>2019-11-29T07:53:22.000Z</time>
      </trkpt>
      <trkpt lat="43.31657" lon="5.66286">
        <ele>746</ele>
        <time>2019-11-29T07:53:23.000Z</time>
      </trkpt>
      <trkpt lat="43.31658" lon="5.66287">
        <ele>746</ele>
        <time>2019-11-29T07:53:24.000Z</time>
      </trkpt>
      <trkpt lat="43.31658" lon="5.66288">
        <ele>746</ele>
        <time>2019-11-29T07:53:25.000Z</time>
      </trkpt>
      <trkpt lat="43.31658" lon="5.66289">
        <ele>746</ele>
        <time>2019-11-29T07:53:26.000Z</time>
      </trkpt>
      <trkpt lat="43.31658" lon="5.66291">
        <ele>746</ele>
        <time>2019-11-29T07:53:27.000Z</time>
      </trkpt>
      <trkpt lat="43.31658" lon="5.66292">
        <ele>747</ele>
        <time>2019-11-29T07:53:28.000Z</time>
      </trkpt>
      <trkpt lat="43.31658" lon="5.66293">
        <ele>747</ele>
        <time>2019-11-29T07:53:29.000Z</time>
      </trkpt>
      <trkpt lat="43.31659" lon="5.66294">
        <ele>747</ele>
        <time>2019-11-29T07:53:30.000Z</time>
      </trkpt>
      <trkpt lat="43.31659" lon="5.66295">
        <ele>747</ele>
        <time>2019-11-29T07:53:31.000Z</time>
      </trkpt>
      <trkpt lat="43.31659" lon="5.66297">
        <ele>747</ele>
        <time>2019-11-29T07:53:32.000Z</time>
      </trkpt>
      <trkpt lat="43.31659" lon="5.66298">
        <ele>747</ele>
        <time>2019-11-29T07:53:33.000Z</time>
      </trkpt>
      <trkpt lat="43.31659" lon="5.66299">
        <ele>747</ele>
        <time>2019-11-29T07:53:34.000Z</time>
      </trkpt>
      <trkpt lat="43.31659" lon="5.663">
        <ele>747</ele>
        <time>2019-11-29T07:53:35.000Z</time>
      </trkpt>
      <trkpt lat="43.3166" lon="5.66301">
        <ele>747</ele>
        <time>2019-11-29T07:53:36.000Z</time>
      </trkpt>
      <trkpt lat="43.3166" lon="5.66302">
        <ele>748</ele>
        <time>2019-11-29T07:53:37.000Z</time>
      </trkpt>
      <trkpt lat="43.3166" lon="5.66304">
        <ele>748</ele>
        <time>2019-11-29T07:53:38.000Z</time>
      </trkpt>
      <trkpt lat="43.3166" lon="5.66305">
        <ele>748</ele>
        <time>2019-11-29T07:53:39.000Z</time>
      </trkpt>
      <trkpt lat="43.31661" lon="5.66307">
        <ele>748</ele>
        <time>2019-11-29T07:53:40.000Z</time>
      </trkpt>
      <trkpt lat="43.31661" lon="5.66308">
        <ele>748</ele>
        <time>2019-11-29T07:53:41.000Z</time>
      </trkpt>
      <trkpt lat="43.31661" lon="5.66309">
        <ele>748</ele>
        <time>2019-11-29T07:53:42.000Z</time>
      </trkpt>
      <trkpt lat="43.31661" lon="5.6631">
        <ele>748</ele>
        <time>2019-11-29T07:53:43.000Z</time>
      </trkpt>
      <trkpt lat="43.31661" lon="5.66311">
        <ele>748</ele>
        <time>2019-11-29T07:53:44.000Z</time>
      </trkpt>
      <trkpt lat="43.31661" lon="5.66313">
        <ele>748</ele>
        <time>2019-11-29T07:53:45.000Z</time>
      </trkpt>
      <trkpt lat="43.31661" lon="5.66314">
        <ele>748</ele>
        <time>2019-11-29T07:53:46.000Z</time>
      </trkpt>
      <trkpt lat="43.31661" lon="5.66315">
        <ele>748</ele>
        <time>2019-11-29T07:53:47.000Z</time>
      </trkpt>
      <trkpt lat="43.31662" lon="5.66316">
        <ele>748</ele>
        <time>2019-11-29T07:53:48.000Z</time>
      </trkpt>
      <trkpt lat="43.31662" lon="5.66318">
        <ele>748</ele>
        <time>2019-11-29T07:53:49.000Z</time>
      </trkpt>
      <trkpt lat="43.31662" lon="5.66319">
        <ele>748</ele>
        <time>2019-11-29T07:53:50.000Z</time>
      </trkpt>
      <trkpt lat="43.31662" lon="5.6632">
        <ele>748</ele>
        <time>2019-11-29T07:53:51.000Z</time>
      </trkpt>
      <trkpt lat="43.31662" lon="5.66322">
        <ele>748</ele>
        <time>2019-11-29T07:53:52.000Z</time>
      </trkpt>
      <trkpt lat="43.31663" lon="5.66323">
        <ele>748</ele>
        <time>2019-11-29T07:53:53.000Z</time>
      </trkpt>
      <trkpt lat="43.31663" lon="5.66325">
        <ele>748</ele>
        <time>2019-11-29T07:53:54.000Z</time>
      </trkpt>
      <trkpt lat="43.31663" lon="5.66326">
        <ele>748</ele>
        <time>2019-11-29T07:53:55.000Z</time>
      </trkpt>
      <trkpt lat="43.31663" lon="5.66328">
        <ele>748</ele>
        <time>2019-11-29T07:53:56.000Z</time>
      </trkpt>
      <trkpt lat="43.31664" lon="5.66329">
        <ele>748</ele>
        <time>2019-11-29T07:53:57.000Z</time>
      </trkpt>
      <trkpt lat="43.31664" lon="5.6633">
        <ele>748</ele>
        <time>2019-11-29T07:53:58.000Z</time>
      </trkpt>
      <trkpt lat="43.31665" lon="5.66331">
        <ele>748</ele>
        <time>2019-11-29T07:53:59.000Z</time>
      </trkpt>
      <trkpt lat="43.31665" lon="5.66332">
        <ele>748</ele>
        <time>2019-11-29T07:54:00.000Z</time>
      </trkpt>
      <trkpt lat="43.31665" lon="5.66333">
        <ele>748</ele>
        <time>2019-11-29T07:54:01.000Z</time>
      </trkpt>
      <trkpt lat="43.31666" lon="5.66334">
        <ele>748</ele>
        <time>2019-11-29T07:54:02.000Z</time>
      </trkpt>
      <trkpt lat="43.31666" lon="5.66336">
        <ele>748</ele>
        <time>2019-11-29T07:54:03.000Z</time>
      </trkpt>
      <trkpt lat="43.31666" lon="5.66337">
        <ele>748</ele>
        <time>2019-11-29T07:54:04.000Z</time>
      </trkpt>
      <trkpt lat="43.31666" lon="5.66338">
        <ele>748</ele>
        <time>2019-11-29T07:54:05.000Z</time>
      </trkpt>
      <trkpt lat="43.31666" lon="5.66339">
        <ele>748</ele>
        <time>2019-11-29T07:54:06.000Z</time>
      </trkpt>
      <trkpt lat="43.31667" lon="5.6634">
        <ele>748</ele>
        <time>2019-11-29T07:54:07.000Z</time>
      </trkpt>
      <trkpt lat="43.31668" lon="5.66341">
        <ele>748</ele>
        <time>2019-11-29T07:54:08.000Z</time>
      </trkpt>
      <trkpt lat="43.31668" lon="5.66342">
        <ele>748</ele>
        <time>2019-11-29T07:54:09.000Z</time>
      </trkpt>
      <trkpt lat="43.31668" lon="5.66343">
        <ele>748</ele>
        <time>2019-11-29T07:54:10.000Z</time>
      </trkpt>
      <trkpt lat="43.31669" lon="5.66344">
        <ele>748</ele>
        <time>2019-11-29T07:54:11.000Z</time>
      </trkpt>
      <trkpt lat="43.31669" lon="5.66346">
        <ele>748</ele>
        <time>2019-11-29T07:54:12.000Z</time>
      </trkpt>
      <trkpt lat="43.31669" lon="5.66347">
        <ele>748</ele>
        <time>2019-11-29T07:54:13.000Z</time>
      </trkpt>
      <trkpt lat="43.3167" lon="5.66348">
        <ele>748</ele>
        <time>2019-11-29T07:54:14.000Z</time>
      </trkpt>
      <trkpt lat="43.3167" lon="5.66349">
        <ele>748</ele>
        <time>2019-11-29T07:54:15.000Z</time>
      </trkpt>
      <trkpt lat="43.3167" lon="5.66351">
        <ele>748</ele>
        <time>2019-11-29T07:54:16.000Z</time>
      </trkpt>
      <trkpt lat="43.31671" lon="5.66352">
        <ele>748</ele>
        <time>2019-11-29T07:54:17.000Z</time>
      </trkpt>
      <trkpt lat="43.31671" lon="5.66353">
        <ele>748</ele>
        <time>2019-11-29T07:54:18.000Z</time>
      </trkpt>
      <trkpt lat="43.31671" lon="5.66354">
        <ele>748</ele>
        <time>2019-11-29T07:54:19.000Z</time>
      </trkpt>
      <trkpt lat="43.31672" lon="5.66355">
        <ele>747</ele>
        <time>2019-11-29T07:54:20.000Z</time>
      </trkpt>
      <trkpt lat="43.31672" lon="5.66356">
        <ele>747</ele>
        <time>2019-11-29T07:54:21.000Z</time>
      </trkpt>
      <trkpt lat="43.31672" lon="5.66358">
        <ele>747</ele>
        <time>2019-11-29T07:54:22.000Z</time>
      </trkpt>
      <trkpt lat="43.31673" lon="5.66359">
        <ele>747</ele>
        <time>2019-11-29T07:54:23.000Z</time>
      </trkpt>
      <trkpt lat="43.31673" lon="5.6636">
        <ele>747</ele>
        <time>2019-11-29T07:54:24.000Z</time>
      </trkpt>
      <trkpt lat="43.31673" lon="5.66361">
        <ele>747</ele>
        <time>2019-11-29T07:54:25.000Z</time>
      </trkpt>
      <trkpt lat="43.31674" lon="5.66363">
        <ele>747</ele>
        <time>2019-11-29T07:54:26.000Z</time>
      </trkpt>
      <trkpt lat="43.31674" lon="5.66364">
        <ele>747</ele>
        <time>2019-11-29T07:54:27.000Z</time>
      </trkpt>
      <trkpt lat="43.31675" lon="5.66365">
        <ele>747</ele>
        <time>2019-11-29T07:54:28.000Z</time>
      </trkpt>
      <trkpt lat="43.31675" lon="5.66367">
        <ele>747</ele>
        <time>2019-11-29T07:54:29.000Z</time>
      </trkpt>
      <trkpt lat="43.31676" lon="5.66368">
        <ele>747</ele>
        <time>2019-11-29T07:54:30.000Z</time>
      </trkpt>
      <trkpt lat="43.31676" lon="5.66369">
        <ele>747</ele>
        <time>2019-11-29T07:54:31.000Z</time>
      </trkpt>
      <trkpt lat="43.31676" lon="5.66371">
        <ele>747</ele>
        <time>2019-11-29T07:54:32.000Z</time>
      </trkpt>
      <trkpt lat="43.31677" lon="5.66372">
        <ele>747</ele>
        <time>2019-11-29T07:54:33.000Z</time>
      </trkpt>
      <trkpt lat="43.31677" lon="5.66373">
        <ele>747</ele>
        <time>2019-11-29T07:54:34.000Z</time>
      </trkpt>
      <trkpt lat="43.31677" lon="5.66374">
        <ele>747</ele>
        <time>2019-11-29T07:54:35.000Z</time>
      </trkpt>
      <trkpt lat="43.31677" lon="5.66376">
        <ele>747</ele>
        <time>2019-11-29T07:54:36.000Z</time>
      </trkpt>
      <trkpt lat="43.31678" lon="5.66377">
        <ele>747</ele>
        <time>2019-11-29T07:54:37.000Z</time>
      </trkpt>
      <trkpt lat="43.31678" lon="5.66379">
        <ele>747</ele>
        <time>2019-11-29T07:54:38.000Z</time>
      </trkpt>
      <trkpt lat="43.31678" lon="5.6638">
        <ele>747</ele>
        <time>2019-11-29T07:54:39.000Z</time>
      </trkpt>
      <trkpt lat="43.31678" lon="5.66382">
        <ele>747</ele>
        <time>2019-11-29T07:54:40.000Z</time>
      </trkpt>
      <trkpt lat="43.31679" lon="5.66383">
        <ele>747</ele>
        <time>2019-11-29T07:54:41.000Z</time>
      </trkpt>
      <trkpt lat="43.31679" lon="5.66384">
        <ele>747</ele>
        <time>2019-11-29T07:54:42.000Z</time>
      </trkpt>
      <trkpt lat="43.31679" lon="5.66386">
        <ele>747</ele>
        <time>2019-11-29T07:54:43.000Z</time>
      </trkpt>
      <trkpt lat="43.3168" lon="5.66387">
        <ele>747</ele>
        <time>2019-11-29T07:54:44.000Z</time>
      </trkpt>
      <trkpt lat="43.3168" lon="5.66389">
        <ele>747</ele>
        <time>2019-11-29T07:54:45.000Z</time>
      </trkpt>
      <trkpt lat="43.3168" lon="5.6639">
        <ele>747</ele>
        <time>2019-11-29T07:54:46.000Z</time>
      </trkpt>
      <trkpt lat="43.31681" lon="5.66391">
        <ele>747</ele>
        <time>2019-11-29T07:54:47.000Z</time>
      </trkpt>
      <trkpt lat="43.31682" lon="5.66393">
        <ele>747</ele>
        <time>2019-11-29T07:54:48.000Z</time>
      </trkpt>
      <trkpt lat="43.31682" lon="5.66394">
        <ele>747</ele>
        <time>2019-11-29T07:54:49.000Z</time>
      </trkpt>
      <trkpt lat="43.31682" lon="5.66395">
        <ele>747</ele>
        <time>2019-11-29T07:54:50.000Z</time>
      </trkpt>
      <trkpt lat="43.31683" lon="5.66397">
        <ele>747</ele>
        <time>2019-11-29T07:54:51.000Z</time>
      </trkpt>
      <trkpt lat="43.31683" lon="5.66398">
        <ele>747</ele>
        <time>2019-11-29T07:54:52.000Z</time>
      </trkpt>
      <trkpt lat="43.31683" lon="5.66399">
        <ele>747</ele>
        <time>2019-11-29T07:54:53.000Z</time>
      </trkpt>
      <trkpt lat="43.31683" lon="5.66401">
        <ele>747</ele>
        <time>2019-11-29T07:54:54.000Z</time>
      </trkpt>
      <trkpt lat="43.31683" lon="5.66402">
        <ele>747</ele>
        <time>2019-11-29T07:54:55.000Z</time>
      </trkpt>
      <trkpt lat="43.31684" lon="5.66403">
        <ele>747</ele>
        <time>2019-11-29T07:54:56.000Z</time>
      </trkpt>
      <trkpt lat="43.31684" lon="5.66405">
        <ele>747</ele>
        <time>2019-11-29T07:54:57.000Z</time>
      </trkpt>
      <trkpt lat="43.31684" lon="5.66406">
        <ele>747</ele>
        <time>2019-11-29T07:54:58.000Z</time>
      </trkpt>
      <trkpt lat="43.31684" lon="5.66407">
        <ele>747</ele>
        <time>2019-11-29T07:54:59.000Z</time>
      </trkpt>
      <trkpt lat="43.31684" lon="5.66409">
        <ele>747</ele>
        <time>2019-11-29T07:55:00.000Z</time>
      </trkpt>
      <trkpt lat="43.31684" lon="5.6641">
        <ele>747</ele>
        <time>2019-11-29T07:55:01.000Z</time>
      </trkpt>
      <trkpt lat="43.31684" lon="5.66412">
        <ele>747</ele>
        <time>2019-11-29T07:55:02.000Z</time>
      </trkpt>
      <trkpt lat="43.31684" lon="5.66413">
        <ele>747</ele>
        <time>2019-11-29T07:55:03.000Z</time>
      </trkpt>
      <trkpt lat="43.31685" lon="5.66415">
        <ele>747</ele>
        <time>2019-11-29T07:55:04.000Z</time>
      </trkpt>
      <trkpt lat="43.31685" lon="5.66417">
        <ele>747</ele>
        <time>2019-11-29T07:55:05.000Z</time>
      </trkpt>
      <trkpt lat="43.31685" lon="5.66418">
        <ele>747</ele>
        <time>2019-11-29T07:55:06.000Z</time>
      </trkpt>
      <trkpt lat="43.31685" lon="5.6642">
        <ele>747</ele>
        <time>2019-11-29T07:55:07.000Z</time>
      </trkpt>
      <trkpt lat="43.31686" lon="5.66421">
        <ele>747</ele>
        <time>2019-11-29T07:55:08.000Z</time>
      </trkpt>
      <trkpt lat="43.31686" lon="5.66423">
        <ele>747</ele>
        <time>2019-11-29T07:55:09.000Z</time>
      </trkpt>
      <trkpt lat="43.31686" lon="5.66424">
        <ele>747</ele>
        <time>2019-11-29T07:55:10.000Z</time>
      </trkpt>
      <trkpt lat="43.31686" lon="5.66426">
        <ele>747</ele>
        <time>2019-11-29T07:55:11.000Z</time>
      </trkpt>
      <trkpt lat="43.31686" lon="5.66427">
        <ele>747</ele>
        <time>2019-11-29T07:55:12.000Z</time>
      </trkpt>
      <trkpt lat="43.31687" lon="5.66429">
        <ele>747</ele>
        <time>2019-11-29T07:55:13.000Z</time>
      </trkpt>
      <trkpt lat="43.31687" lon="5.6643">
        <ele>748</ele>
        <time>2019-11-29T07:55:14.000Z</time>
      </trkpt>
      <trkpt lat="43.31687" lon="5.66431">
        <ele>748</ele>
        <time>2019-11-29T07:55:15.000Z</time>
      </trkpt>
      <trkpt lat="43.31688" lon="5.66433">
        <ele>748</ele>
        <time>2019-11-29T07:55:16.000Z</time>
      </trkpt>
      <trkpt lat="43.31688" lon="5.66434">
        <ele>748</ele>
        <time>2019-11-29T07:55:17.000Z</time>
      </trkpt>
      <trkpt lat="43.31688" lon="5.66435">
        <ele>748</ele>
        <time>2019-11-29T07:55:18.000Z</time>
      </trkpt>
      <trkpt lat="43.31688" lon="5.66435">
        <ele>748</ele>
        <time>2019-11-29T07:55:19.000Z</time>
      </trkpt>
      <trkpt lat="43.31688" lon="5.66436">
        <ele>749</ele>
        <time>2019-11-29T07:55:20.000Z</time>
      </trkpt>
      <trkpt lat="43.31689" lon="5.66438">
        <ele>749</ele>
        <time>2019-11-29T07:55:21.000Z</time>
      </trkpt>
      <trkpt lat="43.31689" lon="5.66439">
        <ele>749</ele>
        <time>2019-11-29T07:55:22.000Z</time>
      </trkpt>
      <trkpt lat="43.31689" lon="5.66441">
        <ele>749</ele>
        <time>2019-11-29T07:55:23.000Z</time>
      </trkpt>
      <trkpt lat="43.31689" lon="5.66442">
        <ele>749</ele>
        <time>2019-11-29T07:55:24.000Z</time>
      </trkpt>
      <trkpt lat="43.31689" lon="5.66443">
        <ele>749</ele>
        <time>2019-11-29T07:55:25.000Z</time>
      </trkpt>
      <trkpt lat="43.31689" lon="5.66445">
        <ele>749</ele>
        <time>2019-11-29T07:55:26.000Z</time>
      </trkpt>
      <trkpt lat="43.31689" lon="5.66446">
        <ele>749</ele>
        <time>2019-11-29T07:55:27.000Z</time>
      </trkpt>
      <trkpt lat="43.31689" lon="5.66448">
        <ele>749</ele>
        <time>2019-11-29T07:55:28.000Z</time>
      </trkpt>
      <trkpt lat="43.31688" lon="5.6645">
        <ele>749</ele>
        <time>2019-11-29T07:55:29.000Z</time>
      </trkpt>
      <trkpt lat="43.31688" lon="5.66451">
        <ele>749</ele>
        <time>2019-11-29T07:55:30.000Z</time>
      </trkpt>
      <trkpt lat="43.31688" lon="5.66452">
        <ele>749</ele>
        <time>2019-11-29T07:55:31.000Z</time>
      </trkpt>
      <trkpt lat="43.31688" lon="5.66454">
        <ele>749</ele>
        <time>2019-11-29T07:55:32.000Z</time>
      </trkpt>
      <trkpt lat="43.31688" lon="5.66455">
        <ele>749</ele>
        <time>2019-11-29T07:55:33.000Z</time>
      </trkpt>
      <trkpt lat="43.31688" lon="5.66456">
        <ele>749</ele>
        <time>2019-11-29T07:55:34.000Z</time>
      </trkpt>
      <trkpt lat="43.31688" lon="5.66458">
        <ele>749</ele>
        <time>2019-11-29T07:55:35.000Z</time>
      </trkpt>
      <trkpt lat="43.31688" lon="5.66459">
        <ele>749</ele>
        <time>2019-11-29T07:55:36.000Z</time>
      </trkpt>
      <trkpt lat="43.31687" lon="5.6646">
        <ele>749</ele>
        <time>2019-11-29T07:55:37.000Z</time>
      </trkpt>
      <trkpt lat="43.31687" lon="5.66462">
        <ele>749</ele>
        <time>2019-11-29T07:55:38.000Z</time>
      </trkpt>
      <trkpt lat="43.31686" lon="5.66463">
        <ele>749</ele>
        <time>2019-11-29T07:55:39.000Z</time>
      </trkpt>
      <trkpt lat="43.31686" lon="5.66464">
        <ele>750</ele>
        <time>2019-11-29T07:55:40.000Z</time>
      </trkpt>
      <trkpt lat="43.31686" lon="5.66465">
        <ele>750</ele>
        <time>2019-11-29T07:55:41.000Z</time>
      </trkpt>
      <trkpt lat="43.31685" lon="5.66466">
        <ele>750</ele>
        <time>2019-11-29T07:55:42.000Z</time>
      </trkpt>
      <trkpt lat="43.31685" lon="5.66467">
        <ele>750</ele>
        <time>2019-11-29T07:55:43.000Z</time>
      </trkpt>
      <trkpt lat="43.31684" lon="5.66468">
        <ele>750</ele>
        <time>2019-11-29T07:55:44.000Z</time>
      </trkpt>
      <trkpt lat="43.31684" lon="5.66469">
        <ele>750</ele>
        <time>2019-11-29T07:55:45.000Z</time>
      </trkpt>
      <trkpt lat="43.31684" lon="5.6647">
        <ele>750</ele>
        <time>2019-11-29T07:55:46.000Z</time>
      </trkpt>
      <trkpt lat="43.31684" lon="5.66471">
        <ele>750</ele>
        <time>2019-11-29T07:55:47.000Z</time>
      </trkpt>
      <trkpt lat="43.31684" lon="5.66472">
        <ele>750</ele>
        <time>2019-11-29T07:55:48.000Z</time>
      </trkpt>
      <trkpt lat="43.31683" lon="5.66473">
        <ele>750</ele>
        <time>2019-11-29T07:55:49.000Z</time>
      </trkpt>
      <trkpt lat="43.31683" lon="5.66473">
        <ele>750</ele>
        <time>2019-11-29T07:55:50.000Z</time>
      </trkpt>
      <trkpt lat="43.31682" lon="5.66475">
        <ele>750</ele>
        <time>2019-11-29T07:55:51.000Z</time>
      </trkpt>
      <trkpt lat="43.31682" lon="5.66476">
        <ele>750</ele>
        <time>2019-11-29T07:55:52.000Z</time>
      </trkpt>
      <trkpt lat="43.31682" lon="5.66477">
        <ele>750</ele>
        <time>2019-11-29T07:55:53.000Z</time>
      </trkpt>
      <trkpt lat="43.31682" lon="5.66478">
        <ele>750</ele>
        <time>2019-11-29T07:55:54.000Z</time>
      </trkpt>
      <trkpt lat="43.31681" lon="5.66479">
        <ele>750</ele>
        <time>2019-11-29T07:55:55.000Z</time>
      </trkpt>
      <trkpt lat="43.31681" lon="5.66481">
        <ele>750</ele>
        <time>2019-11-29T07:55:56.000Z</time>
      </trkpt>
      <trkpt lat="43.3168" lon="5.66482">
        <ele>750</ele>
        <time>2019-11-29T07:55:57.000Z</time>
      </trkpt>
      <trkpt lat="43.3168" lon="5.66484">
        <ele>750</ele>
        <time>2019-11-29T07:55:58.000Z</time>
      </trkpt>
      <trkpt lat="43.3168" lon="5.66485">
        <ele>750</ele>
        <time>2019-11-29T07:55:59.000Z</time>
      </trkpt>
      <trkpt lat="43.31679" lon="5.66486">
        <ele>750</ele>
        <time>2019-11-29T07:56:00.000Z</time>
      </trkpt>
      <trkpt lat="43.31679" lon="5.66488">
        <ele>750</ele>
        <time>2019-11-29T07:56:01.000Z</time>
      </trkpt>
      <trkpt lat="43.31678" lon="5.66489">
        <ele>750</ele>
        <time>2019-11-29T07:56:02.000Z</time>
      </trkpt>
      <trkpt lat="43.31678" lon="5.6649">
        <ele>750</ele>
        <time>2019-11-29T07:56:03.000Z</time>
      </trkpt>
      <trkpt lat="43.31678" lon="5.66492">
        <ele>750</ele>
        <time>2019-11-29T07:56:04.000Z</time>
      </trkpt>
      <trkpt lat="43.31677" lon="5.66493">
        <ele>750</ele>
        <time>2019-11-29T07:56:05.000Z</time>
      </trkpt>
      <trkpt lat="43.31677" lon="5.66494">
        <ele>750</ele>
        <time>2019-11-29T07:56:06.000Z</time>
      </trkpt>
      <trkpt lat="43.31676" lon="5.66495">
        <ele>750</ele>
        <time>2019-11-29T07:56:07.000Z</time>
      </trkpt>
      <trkpt lat="43.31675" lon="5.66496">
        <ele>750</ele>
        <time>2019-11-29T07:56:08.000Z</time>
      </trkpt>
      <trkpt lat="43.31675" lon="5.66498">
        <ele>750</ele>
        <time>2019-11-29T07:56:09.000Z</time>
      </trkpt>
      <trkpt lat="43.31674" lon="5.66499">
        <ele>750</ele>
        <time>2019-11-29T07:56:10.000Z</time>
      </trkpt>
      <trkpt lat="43.31673" lon="5.665">
        <ele>750</ele>
        <time>2019-11-29T07:56:11.000Z</time>
      </trkpt>
      <trkpt lat="43.31673" lon="5.66502">
        <ele>750</ele>
        <time>2019-11-29T07:56:12.000Z</time>
      </trkpt>
      <trkpt lat="43.31672" lon="5.66503">
        <ele>750</ele>
        <time>2019-11-29T07:56:13.000Z</time>
      </trkpt>
      <trkpt lat="43.31672" lon="5.66504">
        <ele>750</ele>
        <time>2019-11-29T07:56:14.000Z</time>
      </trkpt>
      <trkpt lat="43.31671" lon="5.66505">
        <ele>750</ele>
        <time>2019-11-29T07:56:15.000Z</time>
      </trkpt>
      <trkpt lat="43.3167" lon="5.66507">
        <ele>750</ele>
        <time>2019-11-29T07:56:16.000Z</time>
      </trkpt>
      <trkpt lat="43.3167" lon="5.66508">
        <ele>750</ele>
        <time>2019-11-29T07:56:17.000Z</time>
      </trkpt>
      <trkpt lat="43.31669" lon="5.6651">
        <ele>750</ele>
        <time>2019-11-29T07:56:18.000Z</time>
      </trkpt>
      <trkpt lat="43.31669" lon="5.66511">
        <ele>750</ele>
        <time>2019-11-29T07:56:19.000Z</time>
      </trkpt>
      <trkpt lat="43.31668" lon="5.66512">
        <ele>750</ele>
        <time>2019-11-29T07:56:20.000Z</time>
      </trkpt>
      <trkpt lat="43.31667" lon="5.66513">
        <ele>750</ele>
        <time>2019-11-29T07:56:21.000Z</time>
      </trkpt>
      <trkpt lat="43.31667" lon="5.66515">
        <ele>750</ele>
        <time>2019-11-29T07:56:22.000Z</time>
      </trkpt>
      <trkpt lat="43.31666" lon="5.66516">
        <ele>750</ele>
        <time>2019-11-29T07:56:23.000Z</time>
      </trkpt>
      <trkpt lat="43.31666" lon="5.66517">
        <ele>750</ele>
        <time>2019-11-29T07:56:24.000Z</time>
      </trkpt>
      <trkpt lat="43.31665" lon="5.66518">
        <ele>750</ele>
        <time>2019-11-29T07:56:25.000Z</time>
      </trkpt>
      <trkpt lat="43.31664" lon="5.6652">
        <ele>750</ele>
        <time>2019-11-29T07:56:26.000Z</time>
      </trkpt>
      <trkpt lat="43.31663" lon="5.66521">
        <ele>750</ele>
        <time>2019-11-29T07:56:27.000Z</time>
      </trkpt>
      <trkpt lat="43.31663" lon="5.66522">
        <ele>750</ele>
        <time>2019-11-29T07:56:28.000Z</time>
      </trkpt>
      <trkpt lat="43.31662" lon="5.66523">
        <ele>750</ele>
        <time>2019-11-29T07:56:29.000Z</time>
      </trkpt>
      <trkpt lat="43.31661" lon="5.66525">
        <ele>750</ele>
        <time>2019-11-29T07:56:30.000Z</time>
      </trkpt>
      <trkpt lat="43.31661" lon="5.66526">
        <ele>750</ele>
        <time>2019-11-29T07:56:31.000Z</time>
      </trkpt>
      <trkpt lat="43.3166" lon="5.66527">
        <ele>750</ele>
        <time>2019-11-29T07:56:32.000Z</time>
      </trkpt>
      <trkpt lat="43.3166" lon="5.66528">
        <ele>750</ele>
        <time>2019-11-29T07:56:33.000Z</time>
      </trkpt>
      <trkpt lat="43.31659" lon="5.66529">
        <ele>750</ele>
        <time>2019-11-29T07:56:34.000Z</time>
      </trkpt>
      <trkpt lat="43.31658" lon="5.6653">
        <ele>750</ele>
        <time>2019-11-29T07:56:35.000Z</time>
      </trkpt>
      <trkpt lat="43.31658" lon="5.66531">
        <ele>750</ele>
        <time>2019-11-29T07:56:36.000Z</time>
      </trkpt>
      <trkpt lat="43.31657" lon="5.66532">
        <ele>750</ele>
        <time>2019-11-29T07:56:37.000Z</time>
      </trkpt>
      <trkpt lat="43.31656" lon="5.66534">
        <ele>750</ele>
        <time>2019-11-29T07:56:38.000Z</time>
      </trkpt>
      <trkpt lat="43.31656" lon="5.66535">
        <ele>750</ele>
        <time>2019-11-29T07:56:39.000Z</time>
      </trkpt>
      <trkpt lat="43.31655" lon="5.66536">
        <ele>750</ele>
        <time>2019-11-29T07:56:40.000Z</time>
      </trkpt>
      <trkpt lat="43.31654" lon="5.66538">
        <ele>750</ele>
        <time>2019-11-29T07:56:41.000Z</time>
      </trkpt>
      <trkpt lat="43.31654" lon="5.66539">
        <ele>750</ele>
        <time>2019-11-29T07:56:42.000Z</time>
      </trkpt>
      <trkpt lat="43.31653" lon="5.6654">
        <ele>750</ele>
        <time>2019-11-29T07:56:43.000Z</time>
      </trkpt>
      <trkpt lat="43.31653" lon="5.66541">
        <ele>750</ele>
        <time>2019-11-29T07:56:44.000Z</time>
      </trkpt>
      <trkpt lat="43.31652" lon="5.66543">
        <ele>750</ele>
        <time>2019-11-29T07:56:45.000Z</time>
      </trkpt>
      <trkpt lat="43.31652" lon="5.66544">
        <ele>750</ele>
        <time>2019-11-29T07:56:46.000Z</time>
      </trkpt>
      <trkpt lat="43.31651" lon="5.66546">
        <ele>750</ele>
        <time>2019-11-29T07:56:47.000Z</time>
      </trkpt>
      <trkpt lat="43.31651" lon="5.66547">
        <ele>750</ele>
        <time>2019-11-29T07:56:48.000Z</time>
      </trkpt>
      <trkpt lat="43.3165" lon="5.66548">
        <ele>750</ele>
        <time>2019-11-29T07:56:49.000Z</time>
      </trkpt>
      <trkpt lat="43.3165" lon="5.6655">
        <ele>750</ele>
        <time>2019-11-29T07:56:50.000Z</time>
      </trkpt>
      <trkpt lat="43.31649" lon="5.66551">
        <ele>750</ele>
        <time>2019-11-29T07:56:51.000Z</time>
      </trkpt>
      <trkpt lat="43.31648" lon="5.66552">
        <ele>750</ele>
        <time>2019-11-29T07:56:52.000Z</time>
      </trkpt>
      <trkpt lat="43.31648" lon="5.66553">
        <ele>750</ele>
        <time>2019-11-29T07:56:53.000Z</time>
      </trkpt>
      <trkpt lat="43.31647" lon="5.66554">
        <ele>750</ele>
        <time>2019-11-29T07:56:54.000Z</time>
      </trkpt>
      <trkpt lat="43.31646" lon="5.66556">
        <ele>750</ele>
        <time>2019-11-29T07:56:55.000Z</time>
      </trkpt>
      <trkpt lat="43.31646" lon="5.66557">
        <ele>750</ele>
        <time>2019-11-29T07:56:56.000Z</time>
      </trkpt>
      <trkpt lat="43.31645" lon="5.66558">
        <ele>750</ele>
        <time>2019-11-29T07:56:57.000Z</time>
      </trkpt>
      <trkpt lat="43.31644" lon="5.6656">
        <ele>750</ele>
        <time>2019-11-29T07:56:58.000Z</time>
      </trkpt>
      <trkpt lat="43.31644" lon="5.66561">
        <ele>750</ele>
        <time>2019-11-29T07:56:59.000Z</time>
      </trkpt>
      <trkpt lat="43.31644" lon="5.66563">
        <ele>750</ele>
        <time>2019-11-29T07:57:00.000Z</time>
      </trkpt>
      <trkpt lat="43.31643" lon="5.66564">
        <ele>750</ele>
        <time>2019-11-29T07:57:01.000Z</time>
      </trkpt>
      <trkpt lat="43.31643" lon="5.66565">
        <ele>750</ele>
        <time>2019-11-29T07:57:02.000Z</time>
      </trkpt>
      <trkpt lat="43.31643" lon="5.66567">
        <ele>750</ele>
        <time>2019-11-29T07:57:03.000Z</time>
      </trkpt>
      <trkpt lat="43.31643" lon="5.66568">
        <ele>750</ele>
        <time>2019-11-29T07:57:04.000Z</time>
      </trkpt>
      <trkpt lat="43.31643" lon="5.6657">
        <ele>750</ele>
        <time>2019-11-29T07:57:05.000Z</time>
      </trkpt>
      <trkpt lat="43.31643" lon="5.66571">
        <ele>750</ele>
        <time>2019-11-29T07:57:06.000Z</time>
      </trkpt>
      <trkpt lat="43.31643" lon="5.66572">
        <ele>750</ele>
        <time>2019-11-29T07:57:07.000Z</time>
      </trkpt>
      <trkpt lat="43.31643" lon="5.66574">
        <ele>750</ele>
        <time>2019-11-29T07:57:08.000Z</time>
      </trkpt>
      <trkpt lat="43.31642" lon="5.66575">
        <ele>750</ele>
        <time>2019-11-29T07:57:09.000Z</time>
      </trkpt>
      <trkpt lat="43.31642" lon="5.66576">
        <ele>750</ele>
        <time>2019-11-29T07:57:10.000Z</time>
      </trkpt>
      <trkpt lat="43.31641" lon="5.66577">
        <ele>750</ele>
        <time>2019-11-29T07:57:11.000Z</time>
      </trkpt>
      <trkpt lat="43.3164" lon="5.66577">
        <ele>750</ele>
        <time>2019-11-29T07:57:12.000Z</time>
      </trkpt>
      <trkpt lat="43.31639" lon="5.66578">
        <ele>750</ele>
        <time>2019-11-29T07:57:13.000Z</time>
      </trkpt>
      <trkpt lat="43.31638" lon="5.66579">
        <ele>750</ele>
        <time>2019-11-29T07:57:14.000Z</time>
      </trkpt>
      <trkpt lat="43.31637" lon="5.6658">
        <ele>750</ele>
        <time>2019-11-29T07:57:15.000Z</time>
      </trkpt>
      <trkpt lat="43.31637" lon="5.6658">
        <ele>750</ele>
        <time>2019-11-29T07:57:16.000Z</time>
      </trkpt>
      <trkpt lat="43.31636" lon="5.66581">
        <ele>750</ele>
        <time>2019-11-29T07:57:17.000Z</time>
      </trkpt>
      <trkpt lat="43.31635" lon="5.66582">
        <ele>750</ele>
        <time>2019-11-29T07:57:18.000Z</time>
      </trkpt>
      <trkpt lat="43.31635" lon="5.66584">
        <ele>750</ele>
        <time>2019-11-29T07:57:19.000Z</time>
      </trkpt>
      <trkpt lat="43.31634" lon="5.66585">
        <ele>750</ele>
        <time>2019-11-29T07:57:20.000Z</time>
      </trkpt>
      <trkpt lat="43.31633" lon="5.66586">
        <ele>750</ele>
        <time>2019-11-29T07:57:21.000Z</time>
      </trkpt>
      <trkpt lat="43.31633" lon="5.66587">
        <ele>750</ele>
        <time>2019-11-29T07:57:22.000Z</time>
      </trkpt>
      <trkpt lat="43.31632" lon="5.66588">
        <ele>750</ele>
        <time>2019-11-29T07:57:23.000Z</time>
      </trkpt>
      <trkpt lat="43.31631" lon="5.66589">
        <ele>750</ele>
        <time>2019-11-29T07:57:24.000Z</time>
      </trkpt>
      <trkpt lat="43.31631" lon="5.6659">
        <ele>750</ele>
        <time>2019-11-29T07:57:25.000Z</time>
      </trkpt>
      <trkpt lat="43.3163" lon="5.66591">
        <ele>750</ele>
        <time>2019-11-29T07:57:26.000Z</time>
      </trkpt>
      <trkpt lat="43.31629" lon="5.66592">
        <ele>750</ele>
        <time>2019-11-29T07:57:27.000Z</time>
      </trkpt>
      <trkpt lat="43.31629" lon="5.66593">
        <ele>749</ele>
        <time>2019-11-29T07:57:28.000Z</time>
      </trkpt>
      <trkpt lat="43.31628" lon="5.66595">
        <ele>749</ele>
        <time>2019-11-29T07:57:29.000Z</time>
      </trkpt>
      <trkpt lat="43.31628" lon="5.66596">
        <ele>749</ele>
        <time>2019-11-29T07:57:30.000Z</time>
      </trkpt>
      <trkpt lat="43.31627" lon="5.66597">
        <ele>749</ele>
        <time>2019-11-29T07:57:31.000Z</time>
      </trkpt>
      <trkpt lat="43.31627" lon="5.66598">
        <ele>749</ele>
        <time>2019-11-29T07:57:32.000Z</time>
      </trkpt>
      <trkpt lat="43.31626" lon="5.666">
        <ele>749</ele>
        <time>2019-11-29T07:57:33.000Z</time>
      </trkpt>
      <trkpt lat="43.31626" lon="5.66601">
        <ele>749</ele>
        <time>2019-11-29T07:57:34.000Z</time>
      </trkpt>
      <trkpt lat="43.31626" lon="5.66602">
        <ele>749</ele>
        <time>2019-11-29T07:57:35.000Z</time>
      </trkpt>
      <trkpt lat="43.31626" lon="5.66604">
        <ele>749</ele>
        <time>2019-11-29T07:57:36.000Z</time>
      </trkpt>
      <trkpt lat="43.31626" lon="5.66605">
        <ele>749</ele>
        <time>2019-11-29T07:57:37.000Z</time>
      </trkpt>
      <trkpt lat="43.31626" lon="5.66607">
        <ele>749</ele>
        <time>2019-11-29T07:57:38.000Z</time>
      </trkpt>
      <trkpt lat="43.31625" lon="5.66609">
        <ele>749</ele>
        <time>2019-11-29T07:57:39.000Z</time>
      </trkpt>
      <trkpt lat="43.31625" lon="5.6661">
        <ele>749</ele>
        <time>2019-11-29T07:57:40.000Z</time>
      </trkpt>
      <trkpt lat="43.31626" lon="5.66611">
        <ele>749</ele>
        <time>2019-11-29T07:57:41.000Z</time>
      </trkpt>
      <trkpt lat="43.31626" lon="5.66613">
        <ele>749</ele>
        <time>2019-11-29T07:57:42.000Z</time>
      </trkpt>
      <trkpt lat="43.31626" lon="5.66614">
        <ele>749</ele>
        <time>2019-11-29T07:57:43.000Z</time>
      </trkpt>
      <trkpt lat="43.31626" lon="5.66615">
        <ele>749</ele>
        <time>2019-11-29T07:57:44.000Z</time>
      </trkpt>
      <trkpt lat="43.31626" lon="5.66616">
        <ele>749</ele>
        <time>2019-11-29T07:57:45.000Z</time>
      </trkpt>
      <trkpt lat="43.31626" lon="5.66617">
        <ele>749</ele>
        <time>2019-11-29T07:57:46.000Z</time>
      </trkpt>
      <trkpt lat="43.31626" lon="5.66618">
        <ele>749</ele>
        <time>2019-11-29T07:57:47.000Z</time>
      </trkpt>
      <trkpt lat="43.31626" lon="5.66619">
        <ele>749</ele>
        <time>2019-11-29T07:57:48.000Z</time>
      </trkpt>
      <trkpt lat="43.31625" lon="5.6662">
        <ele>749</ele>
        <time>2019-11-29T07:57:49.000Z</time>
      </trkpt>
      <trkpt lat="43.31625" lon="5.66622">
        <ele>749</ele>
        <time>2019-11-29T07:57:50.000Z</time>
      </trkpt>
      <trkpt lat="43.31625" lon="5.66623">
        <ele>749</ele>
        <time>2019-11-29T07:57:51.000Z</time>
      </trkpt>
      <trkpt lat="43.31624" lon="5.66624">
        <ele>749</ele>
        <time>2019-11-29T07:57:52.000Z</time>
      </trkpt>
      <trkpt lat="43.31624" lon="5.66625">
        <ele>749</ele>
        <time>2019-11-29T07:57:53.000Z</time>
      </trkpt>
      <trkpt lat="43.31624" lon="5.66627">
        <ele>749</ele>
        <time>2019-11-29T07:57:54.000Z</time>
      </trkpt>
      <trkpt lat="43.31623" lon="5.66628">
        <ele>749</ele>
        <time>2019-11-29T07:57:55.000Z</time>
      </trkpt>
      <trkpt lat="43.31623" lon="5.6663">
        <ele>749</ele>
        <time>2019-11-29T07:57:56.000Z</time>
      </trkpt>
      <trkpt lat="43.31623" lon="5.66632">
        <ele>749</ele>
        <time>2019-11-29T07:57:57.000Z</time>
      </trkpt>
      <trkpt lat="43.31623" lon="5.66633">
        <ele>749</ele>
        <time>2019-11-29T07:57:58.000Z</time>
      </trkpt>
      <trkpt lat="43.31623" lon="5.66635">
        <ele>749</ele>
        <time>2019-11-29T07:57:59.000Z</time>
      </trkpt>
      <trkpt lat="43.31623" lon="5.66637">
        <ele>749</ele>
        <time>2019-11-29T07:58:00.000Z</time>
      </trkpt>
      <trkpt lat="43.31623" lon="5.66639">
        <ele>749</ele>
        <time>2019-11-29T07:58:01.000Z</time>
      </trkpt>
      <trkpt lat="43.31623" lon="5.6664">
        <ele>749</ele>
        <time>2019-11-29T07:58:02.000Z</time>
      </trkpt>
      <trkpt lat="43.31623" lon="5.66642">
        <ele>749</ele>
        <time>2019-11-29T07:58:03.000Z</time>
      </trkpt>
      <trkpt lat="43.31623" lon="5.66644">
        <ele>749</ele>
        <time>2019-11-29T07:58:04.000Z</time>
      </trkpt>
      <trkpt lat="43.31623" lon="5.66645">
        <ele>749</ele>
        <time>2019-11-29T07:58:05.000Z</time>
      </trkpt>
      <trkpt lat="43.31622" lon="5.66647">
        <ele>749</ele>
        <time>2019-11-29T07:58:06.000Z</time>
      </trkpt>
      <trkpt lat="43.31622" lon="5.66648">
        <ele>749</ele>
        <time>2019-11-29T07:58:07.000Z</time>
      </trkpt>
      <trkpt lat="43.31621" lon="5.6665">
        <ele>749</ele>
        <time>2019-11-29T07:58:08.000Z</time>
      </trkpt>
      <trkpt lat="43.31621" lon="5.66651">
        <ele>749</ele>
        <time>2019-11-29T07:58:09.000Z</time>
      </trkpt>
      <trkpt lat="43.31621" lon="5.66652">
        <ele>749</ele>
        <time>2019-11-29T07:58:10.000Z</time>
      </trkpt>
      <trkpt lat="43.31621" lon="5.66654">
        <ele>749</ele>
        <time>2019-11-29T07:58:11.000Z</time>
      </trkpt>
      <trkpt lat="43.31621" lon="5.66656">
        <ele>749</ele>
        <time>2019-11-29T07:58:12.000Z</time>
      </trkpt>
      <trkpt lat="43.31621" lon="5.66657">
        <ele>749</ele>
        <time>2019-11-29T07:58:13.000Z</time>
      </trkpt>
      <trkpt lat="43.31621" lon="5.66659">
        <ele>748</ele>
        <time>2019-11-29T07:58:14.000Z</time>
      </trkpt>
      <trkpt lat="43.3162" lon="5.6666">
        <ele>748</ele>
        <time>2019-11-29T07:58:15.000Z</time>
      </trkpt>
      <trkpt lat="43.3162" lon="5.66662">
        <ele>748</ele>
        <time>2019-11-29T07:58:16.000Z</time>
      </trkpt>
      <trkpt lat="43.3162" lon="5.66663">
        <ele>748</ele>
        <time>2019-11-29T07:58:17.000Z</time>
      </trkpt>
      <trkpt lat="43.3162" lon="5.66665">
        <ele>748</ele>
        <time>2019-11-29T07:58:18.000Z</time>
      </trkpt>
      <trkpt lat="43.3162" lon="5.66667">
        <ele>748</ele>
        <time>2019-11-29T07:58:19.000Z</time>
      </trkpt>
      <trkpt lat="43.3162" lon="5.66668">
        <ele>748</ele>
        <time>2019-11-29T07:58:20.000Z</time>
      </trkpt>
      <trkpt lat="43.3162" lon="5.6667">
        <ele>748</ele>
        <time>2019-11-29T07:58:21.000Z</time>
      </trkpt>
      <trkpt lat="43.3162" lon="5.66671">
        <ele>748</ele>
        <time>2019-11-29T07:58:22.000Z</time>
      </trkpt>
      <trkpt lat="43.3162" lon="5.66671">
        <ele>748</ele>
        <time>2019-11-29T07:58:23.000Z</time>
      </trkpt>
      <trkpt lat="43.3162" lon="5.66672">
        <ele>748</ele>
        <time>2019-11-29T07:58:24.000Z</time>
      </trkpt>
      <trkpt lat="43.3162" lon="5.66673">
        <ele>748</ele>
        <time>2019-11-29T07:58:25.000Z</time>
      </trkpt>
      <trkpt lat="43.3162" lon="5.66674">
        <ele>748</ele>
        <time>2019-11-29T07:58:26.000Z</time>
      </trkpt>
      <trkpt lat="43.3162" lon="5.66674">
        <ele>748</ele>
        <time>2019-11-29T07:58:27.000Z</time>
      </trkpt>
      <trkpt lat="43.3162" lon="5.66674">
        <ele>748</ele>
        <time>2019-11-29T07:58:28.000Z</time>
      </trkpt>
      <trkpt lat="43.3162" lon="5.66674">
        <ele>748</ele>
        <time>2019-11-29T07:58:29.000Z</time>
      </trkpt>
      <trkpt lat="43.3162" lon="5.66674">
        <ele>748</ele>
        <time>2019-11-29T07:58:30.000Z</time>
      </trkpt>
      <trkpt lat="43.3162" lon="5.66674">
        <ele>748</ele>
        <time>2019-11-29T07:58:31.000Z</time>
      </trkpt>
      <trkpt lat="43.3162" lon="5.66674">
        <ele>748</ele>
        <time>2019-11-29T07:58:32.000Z</time>
      </trkpt>
      <trkpt lat="43.3162" lon="5.66674">
        <ele>748</ele>
        <time>2019-11-29T07:58:33.000Z</time>
      </trkpt>
      <trkpt lat="43.3162" lon="5.66675">
        <ele>748</ele>
        <time>2019-11-29T07:58:34.000Z</time>
      </trkpt>
      <trkpt lat="43.31621" lon="5.66676">
        <ele>748</ele>
        <time>2019-11-29T07:58:35.000Z</time>
      </trkpt>
      <trkpt lat="43.31621" lon="5.66677">
        <ele>748</ele>
        <time>2019-11-29T07:58:36.000Z</time>
      </trkpt>
      <trkpt lat="43.31621" lon="5.66678">
        <ele>748</ele>
        <time>2019-11-29T07:58:37.000Z</time>
      </trkpt>
      <trkpt lat="43.3162" lon="5.6668">
        <ele>748</ele>
        <time>2019-11-29T07:58:38.000Z</time>
      </trkpt>
      <trkpt lat="43.3162" lon="5.66681">
        <ele>748</ele>
        <time>2019-11-29T07:58:39.000Z</time>
      </trkpt>
      <trkpt lat="43.31621" lon="5.66683">
        <ele>748</ele>
        <time>2019-11-29T07:58:40.000Z</time>
      </trkpt>
      <trkpt lat="43.31621" lon="5.66684">
        <ele>747</ele>
        <time>2019-11-29T07:58:41.000Z</time>
      </trkpt>
      <trkpt lat="43.31621" lon="5.66685">
        <ele>747</ele>
        <time>2019-11-29T07:58:42.000Z</time>
      </trkpt>
      <trkpt lat="43.31621" lon="5.66687">
        <ele>747</ele>
        <time>2019-11-29T07:58:43.000Z</time>
      </trkpt>
      <trkpt lat="43.31621" lon="5.66688">
        <ele>747</ele>
        <time>2019-11-29T07:58:44.000Z</time>
      </trkpt>
      <trkpt lat="43.31621" lon="5.66689">
        <ele>747</ele>
        <time>2019-11-29T07:58:45.000Z</time>
      </trkpt>
      <trkpt lat="43.31621" lon="5.6669">
        <ele>747</ele>
        <time>2019-11-29T07:58:46.000Z</time>
      </trkpt>
      <trkpt lat="43.31621" lon="5.66691">
        <ele>747</ele>
        <time>2019-11-29T07:58:47.000Z</time>
      </trkpt>
      <trkpt lat="43.31621" lon="5.66693">
        <ele>747</ele>
        <time>2019-11-29T07:58:48.000Z</time>
      </trkpt>
      <trkpt lat="43.31621" lon="5.66694">
        <ele>747</ele>
        <time>2019-11-29T07:58:49.000Z</time>
      </trkpt>
      <trkpt lat="43.31621" lon="5.66696">
        <ele>747</ele>
        <time>2019-11-29T07:58:50.000Z</time>
      </trkpt>
      <trkpt lat="43.31622" lon="5.66697">
        <ele>747</ele>
        <time>2019-11-29T07:58:51.000Z</time>
      </trkpt>
      <trkpt lat="43.31622" lon="5.66698">
        <ele>747</ele>
        <time>2019-11-29T07:58:52.000Z</time>
      </trkpt>
      <trkpt lat="43.31622" lon="5.667">
        <ele>747</ele>
        <time>2019-11-29T07:58:53.000Z</time>
      </trkpt>
      <trkpt lat="43.31622" lon="5.66701">
        <ele>747</ele>
        <time>2019-11-29T07:58:54.000Z</time>
      </trkpt>
      <trkpt lat="43.31622" lon="5.66702">
        <ele>747</ele>
        <time>2019-11-29T07:58:55.000Z</time>
      </trkpt>
      <trkpt lat="43.31623" lon="5.66703">
        <ele>747</ele>
        <time>2019-11-29T07:58:56.000Z</time>
      </trkpt>
      <trkpt lat="43.31623" lon="5.66704">
        <ele>747</ele>
        <time>2019-11-29T07:58:57.000Z</time>
      </trkpt>
      <trkpt lat="43.31624" lon="5.66705">
        <ele>747</ele>
        <time>2019-11-29T07:58:58.000Z</time>
      </trkpt>
      <trkpt lat="43.31624" lon="5.66707">
        <ele>747</ele>
        <time>2019-11-29T07:58:59.000Z</time>
      </trkpt>
      <trkpt lat="43.31624" lon="5.66708">
        <ele>747</ele>
        <time>2019-11-29T07:59:00.000Z</time>
      </trkpt>
      <trkpt lat="43.31624" lon="5.66709">
        <ele>747</ele>
        <time>2019-11-29T07:59:01.000Z</time>
      </trkpt>
      <trkpt lat="43.31624" lon="5.6671">
        <ele>747</ele>
        <time>2019-11-29T07:59:02.000Z</time>
      </trkpt>
      <trkpt lat="43.31624" lon="5.66712">
        <ele>747</ele>
        <time>2019-11-29T07:59:03.000Z</time>
      </trkpt>
      <trkpt lat="43.31624" lon="5.66713">
        <ele>747</ele>
        <time>2019-11-29T07:59:04.000Z</time>
      </trkpt>
      <trkpt lat="43.31625" lon="5.66714">
        <ele>747</ele>
        <time>2019-11-29T07:59:05.000Z</time>
      </trkpt>
      <trkpt lat="43.31625" lon="5.66715">
        <ele>747</ele>
        <time>2019-11-29T07:59:06.000Z</time>
      </trkpt>
      <trkpt lat="43.31625" lon="5.66716">
        <ele>747</ele>
        <time>2019-11-29T07:59:07.000Z</time>
      </trkpt>
      <trkpt lat="43.31625" lon="5.66717">
        <ele>747</ele>
        <time>2019-11-29T07:59:08.000Z</time>
      </trkpt>
      <trkpt lat="43.31626" lon="5.66719">
        <ele>747</ele>
        <time>2019-11-29T07:59:09.000Z</time>
      </trkpt>
      <trkpt lat="43.31626" lon="5.6672">
        <ele>747</ele>
        <time>2019-11-29T07:59:10.000Z</time>
      </trkpt>
      <trkpt lat="43.31627" lon="5.66721">
        <ele>747</ele>
        <time>2019-11-29T07:59:11.000Z</time>
      </trkpt>
      <trkpt lat="43.31627" lon="5.66722">
        <ele>747</ele>
        <time>2019-11-29T07:59:12.000Z</time>
      </trkpt>
      <trkpt lat="43.31627" lon="5.66723">
        <ele>747</ele>
        <time>2019-11-29T07:59:13.000Z</time>
      </trkpt>
      <trkpt lat="43.31628" lon="5.66724">
        <ele>747</ele>
        <time>2019-11-29T07:59:14.000Z</time>
      </trkpt>
      <trkpt lat="43.31629" lon="5.66725">
        <ele>747</ele>
        <time>2019-11-29T07:59:15.000Z</time>
      </trkpt>
      <trkpt lat="43.31629" lon="5.66726">
        <ele>747</ele>
        <time>2019-11-29T07:59:16.000Z</time>
      </trkpt>
      <trkpt lat="43.3163" lon="5.66727">
        <ele>747</ele>
        <time>2019-11-29T07:59:17.000Z</time>
      </trkpt>
      <trkpt lat="43.3163" lon="5.66727">
        <ele>747</ele>
        <time>2019-11-29T07:59:18.000Z</time>
      </trkpt>
      <trkpt lat="43.3163" lon="5.66728">
        <ele>747</ele>
        <time>2019-11-29T07:59:19.000Z</time>
      </trkpt>
      <trkpt lat="43.3163" lon="5.66729">
        <ele>747</ele>
        <time>2019-11-29T07:59:20.000Z</time>
      </trkpt>
      <trkpt lat="43.3163" lon="5.6673">
        <ele>747</ele>
        <time>2019-11-29T07:59:21.000Z</time>
      </trkpt>
      <trkpt lat="43.3163" lon="5.66731">
        <ele>747</ele>
        <time>2019-11-29T07:59:22.000Z</time>
      </trkpt>
      <trkpt lat="43.3163" lon="5.66732">
        <ele>747</ele>
        <time>2019-11-29T07:59:23.000Z</time>
      </trkpt>
      <trkpt lat="43.3163" lon="5.66733">
        <ele>747</ele>
        <time>2019-11-29T07:59:24.000Z</time>
      </trkpt>
      <trkpt lat="43.31631" lon="5.66734">
        <ele>747</ele>
        <time>2019-11-29T07:59:25.000Z</time>
      </trkpt>
      <trkpt lat="43.31631" lon="5.66735">
        <ele>747</ele>
        <time>2019-11-29T07:59:26.000Z</time>
      </trkpt>
      <trkpt lat="43.31631" lon="5.66736">
        <ele>747</ele>
        <time>2019-11-29T07:59:27.000Z</time>
      </trkpt>
      <trkpt lat="43.31632" lon="5.66737">
        <ele>747</ele>
        <time>2019-11-29T07:59:28.000Z</time>
      </trkpt>
      <trkpt lat="43.31632" lon="5.66738">
        <ele>747</ele>
        <time>2019-11-29T07:59:29.000Z</time>
      </trkpt>
      <trkpt lat="43.31632" lon="5.66739">
        <ele>747</ele>
        <time>2019-11-29T07:59:30.000Z</time>
      </trkpt>
      <trkpt lat="43.31633" lon="5.66739">
        <ele>747</ele>
        <time>2019-11-29T07:59:31.000Z</time>
      </trkpt>
      <trkpt lat="43.31634" lon="5.6674">
        <ele>747</ele>
        <time>2019-11-29T07:59:32.000Z</time>
      </trkpt>
      <trkpt lat="43.31634" lon="5.66741">
        <ele>747</ele>
        <time>2019-11-29T07:59:33.000Z</time>
      </trkpt>
      <trkpt lat="43.31635" lon="5.66742">
        <ele>747</ele>
        <time>2019-11-29T07:59:34.000Z</time>
      </trkpt>
      <trkpt lat="43.31635" lon="5.66743">
        <ele>747</ele>
        <time>2019-11-29T07:59:35.000Z</time>
      </trkpt>
      <trkpt lat="43.31636" lon="5.66744">
        <ele>747</ele>
        <time>2019-11-29T07:59:36.000Z</time>
      </trkpt>
      <trkpt lat="43.31636" lon="5.66745">
        <ele>747</ele>
        <time>2019-11-29T07:59:37.000Z</time>
      </trkpt>
      <trkpt lat="43.31637" lon="5.66746">
        <ele>747</ele>
        <time>2019-11-29T07:59:38.000Z</time>
      </trkpt>
      <trkpt lat="43.31637" lon="5.66747">
        <ele>748</ele>
        <time>2019-11-29T07:59:39.000Z</time>
      </trkpt>
      <trkpt lat="43.31638" lon="5.66747">
        <ele>748</ele>
        <time>2019-11-29T07:59:40.000Z</time>
      </trkpt>
      <trkpt lat="43.31638" lon="5.66748">
        <ele>748</ele>
        <time>2019-11-29T07:59:41.000Z</time>
      </trkpt>
      <trkpt lat="43.31639" lon="5.66749">
        <ele>748</ele>
        <time>2019-11-29T07:59:42.000Z</time>
      </trkpt>
      <trkpt lat="43.31639" lon="5.66749">
        <ele>748</ele>
        <time>2019-11-29T07:59:43.000Z</time>
      </trkpt>
      <trkpt lat="43.3164" lon="5.6675">
        <ele>748</ele>
        <time>2019-11-29T07:59:44.000Z</time>
      </trkpt>
      <trkpt lat="43.3164" lon="5.66751">
        <ele>748</ele>
        <time>2019-11-29T07:59:45.000Z</time>
      </trkpt>
      <trkpt lat="43.3164" lon="5.66752">
        <ele>748</ele>
        <time>2019-11-29T07:59:46.000Z</time>
      </trkpt>
      <trkpt lat="43.31641" lon="5.66753">
        <ele>748</ele>
        <time>2019-11-29T07:59:47.000Z</time>
      </trkpt>
      <trkpt lat="43.31641" lon="5.66754">
        <ele>748</ele>
        <time>2019-11-29T07:59:48.000Z</time>
      </trkpt>
      <trkpt lat="43.31642" lon="5.66756">
        <ele>748</ele>
        <time>2019-11-29T07:59:49.000Z</time>
      </trkpt>
      <trkpt lat="43.31642" lon="5.66757">
        <ele>748</ele>
        <time>2019-11-29T07:59:50.000Z</time>
      </trkpt>
      <trkpt lat="43.31642" lon="5.66759">
        <ele>748</ele>
        <time>2019-11-29T07:59:51.000Z</time>
      </trkpt>
      <trkpt lat="43.31642" lon="5.6676">
        <ele>748</ele>
        <time>2019-11-29T07:59:52.000Z</time>
      </trkpt>
      <trkpt lat="43.31642" lon="5.66762">
        <ele>747</ele>
        <time>2019-11-29T07:59:53.000Z</time>
      </trkpt>
      <trkpt lat="43.31642" lon="5.66763">
        <ele>747</ele>
        <time>2019-11-29T07:59:54.000Z</time>
      </trkpt>
      <trkpt lat="43.31642" lon="5.66765">
        <ele>747</ele>
        <time>2019-11-29T07:59:55.000Z</time>
      </trkpt>
      <trkpt lat="43.31643" lon="5.66766">
        <ele>747</ele>
        <time>2019-11-29T07:59:56.000Z</time>
      </trkpt>
      <trkpt lat="43.31644" lon="5.66767">
        <ele>747</ele>
        <time>2019-11-29T07:59:57.000Z</time>
      </trkpt>
      <trkpt lat="43.31645" lon="5.66769">
        <ele>747</ele>
        <time>2019-11-29T07:59:58.000Z</time>
      </trkpt>
      <trkpt lat="43.31645" lon="5.66771">
        <ele>747</ele>
        <time>2019-11-29T07:59:59.000Z</time>
      </trkpt>
      <trkpt lat="43.31646" lon="5.66772">
        <ele>746</ele>
        <time>2019-11-29T08:00:00.000Z</time>
      </trkpt>
      <trkpt lat="43.31646" lon="5.66774">
        <ele>746</ele>
        <time>2019-11-29T08:00:01.000Z</time>
      </trkpt>
      <trkpt lat="43.31647" lon="5.66775">
        <ele>746</ele>
        <time>2019-11-29T08:00:02.000Z</time>
      </trkpt>
      <trkpt lat="43.31647" lon="5.66777">
        <ele>746</ele>
        <time>2019-11-29T08:00:03.000Z</time>
      </trkpt>
      <trkpt lat="43.31648" lon="5.66779">
        <ele>746</ele>
        <time>2019-11-29T08:00:04.000Z</time>
      </trkpt>
      <trkpt lat="43.31648" lon="5.6678">
        <ele>746</ele>
        <time>2019-11-29T08:00:05.000Z</time>
      </trkpt>
      <trkpt lat="43.31649" lon="5.66782">
        <ele>746</ele>
        <time>2019-11-29T08:00:06.000Z</time>
      </trkpt>
      <trkpt lat="43.31649" lon="5.66784">
        <ele>747</ele>
        <time>2019-11-29T08:00:07.000Z</time>
      </trkpt>
      <trkpt lat="43.3165" lon="5.66785">
        <ele>747</ele>
        <time>2019-11-29T08:00:08.000Z</time>
      </trkpt>
      <trkpt lat="43.3165" lon="5.66786">
        <ele>747</ele>
        <time>2019-11-29T08:00:09.000Z</time>
      </trkpt>
      <trkpt lat="43.3165" lon="5.66788">
        <ele>747</ele>
        <time>2019-11-29T08:00:10.000Z</time>
      </trkpt>
      <trkpt lat="43.31651" lon="5.66789">
        <ele>747</ele>
        <time>2019-11-29T08:00:11.000Z</time>
      </trkpt>
      <trkpt lat="43.31651" lon="5.66791">
        <ele>747</ele>
        <time>2019-11-29T08:00:12.000Z</time>
      </trkpt>
      <trkpt lat="43.31652" lon="5.66792">
        <ele>747</ele>
        <time>2019-11-29T08:00:13.000Z</time>
      </trkpt>
      <trkpt lat="43.31652" lon="5.66793">
        <ele>747</ele>
        <time>2019-11-29T08:00:14.000Z</time>
      </trkpt>
      <trkpt lat="43.31653" lon="5.66795">
        <ele>747</ele>
        <time>2019-11-29T08:00:15.000Z</time>
      </trkpt>
      <trkpt lat="43.31653" lon="5.66796">
        <ele>747</ele>
        <time>2019-11-29T08:00:16.000Z</time>
      </trkpt>
      <trkpt lat="43.31654" lon="5.66797">
        <ele>747</ele>
        <time>2019-11-29T08:00:17.000Z</time>
      </trkpt>
      <trkpt lat="43.31654" lon="5.66799">
        <ele>747</ele>
        <time>2019-11-29T08:00:18.000Z</time>
      </trkpt>
      <trkpt lat="43.31654" lon="5.66801">
        <ele>747</ele>
        <time>2019-11-29T08:00:19.000Z</time>
      </trkpt>
      <trkpt lat="43.31655" lon="5.66802">
        <ele>748</ele>
        <time>2019-11-29T08:00:20.000Z</time>
      </trkpt>
      <trkpt lat="43.31655" lon="5.66804">
        <ele>748</ele>
        <time>2019-11-29T08:00:21.000Z</time>
      </trkpt>
      <trkpt lat="43.31656" lon="5.66805">
        <ele>748</ele>
        <time>2019-11-29T08:00:22.000Z</time>
      </trkpt>
      <trkpt lat="43.31656" lon="5.66807">
        <ele>748</ele>
        <time>2019-11-29T08:00:23.000Z</time>
      </trkpt>
      <trkpt lat="43.31657" lon="5.66808">
        <ele>748</ele>
        <time>2019-11-29T08:00:24.000Z</time>
      </trkpt>
      <trkpt lat="43.31657" lon="5.66809">
        <ele>748</ele>
        <time>2019-11-29T08:00:25.000Z</time>
      </trkpt>
      <trkpt lat="43.31658" lon="5.6681">
        <ele>748</ele>
        <time>2019-11-29T08:00:26.000Z</time>
      </trkpt>
      <trkpt lat="43.31658" lon="5.66812">
        <ele>748</ele>
        <time>2019-11-29T08:00:27.000Z</time>
      </trkpt>
      <trkpt lat="43.31658" lon="5.66812">
        <ele>749</ele>
        <time>2019-11-29T08:00:28.000Z</time>
      </trkpt>
      <trkpt lat="43.31659" lon="5.66813">
        <ele>749</ele>
        <time>2019-11-29T08:00:29.000Z</time>
      </trkpt>
      <trkpt lat="43.3166" lon="5.66814">
        <ele>749</ele>
        <time>2019-11-29T08:00:30.000Z</time>
      </trkpt>
      <trkpt lat="43.3166" lon="5.66815">
        <ele>749</ele>
        <time>2019-11-29T08:00:31.000Z</time>
      </trkpt>
      <trkpt lat="43.3166" lon="5.66817">
        <ele>749</ele>
        <time>2019-11-29T08:00:32.000Z</time>
      </trkpt>
      <trkpt lat="43.3166" lon="5.66818">
        <ele>749</ele>
        <time>2019-11-29T08:00:33.000Z</time>
      </trkpt>
      <trkpt lat="43.3166" lon="5.66819">
        <ele>748</ele>
        <time>2019-11-29T08:00:34.000Z</time>
      </trkpt>
      <trkpt lat="43.3166" lon="5.66821">
        <ele>748</ele>
        <time>2019-11-29T08:00:35.000Z</time>
      </trkpt>
      <trkpt lat="43.3166" lon="5.66822">
        <ele>748</ele>
        <time>2019-11-29T08:00:36.000Z</time>
      </trkpt>
      <trkpt lat="43.3166" lon="5.66824">
        <ele>748</ele>
        <time>2019-11-29T08:00:37.000Z</time>
      </trkpt>
      <trkpt lat="43.3166" lon="5.66825">
        <ele>748</ele>
        <time>2019-11-29T08:00:38.000Z</time>
      </trkpt>
      <trkpt lat="43.31661" lon="5.66827">
        <ele>748</ele>
        <time>2019-11-29T08:00:39.000Z</time>
      </trkpt>
      <trkpt lat="43.31661" lon="5.66828">
        <ele>748</ele>
        <time>2019-11-29T08:00:40.000Z</time>
      </trkpt>
      <trkpt lat="43.31661" lon="5.66829">
        <ele>748</ele>
        <time>2019-11-29T08:00:41.000Z</time>
      </trkpt>
      <trkpt lat="43.31662" lon="5.66831">
        <ele>748</ele>
        <time>2019-11-29T08:00:42.000Z</time>
      </trkpt>
      <trkpt lat="43.31662" lon="5.66832">
        <ele>748</ele>
        <time>2019-11-29T08:00:43.000Z</time>
      </trkpt>
      <trkpt lat="43.31663" lon="5.66833">
        <ele>748</ele>
        <time>2019-11-29T08:00:44.000Z</time>
      </trkpt>
      <trkpt lat="43.31663" lon="5.66834">
        <ele>748</ele>
        <time>2019-11-29T08:00:45.000Z</time>
      </trkpt>
      <trkpt lat="43.31664" lon="5.66836">
        <ele>748</ele>
        <time>2019-11-29T08:00:46.000Z</time>
      </trkpt>
      <trkpt lat="43.31664" lon="5.66837">
        <ele>748</ele>
        <time>2019-11-29T08:00:47.000Z</time>
      </trkpt>
      <trkpt lat="43.31664" lon="5.66839">
        <ele>748</ele>
        <time>2019-11-29T08:00:48.000Z</time>
      </trkpt>
      <trkpt lat="43.31665" lon="5.6684">
        <ele>748</ele>
        <time>2019-11-29T08:00:49.000Z</time>
      </trkpt>
      <trkpt lat="43.31665" lon="5.66841">
        <ele>748</ele>
        <time>2019-11-29T08:00:50.000Z</time>
      </trkpt>
      <trkpt lat="43.31665" lon="5.66842">
        <ele>748</ele>
        <time>2019-11-29T08:00:51.000Z</time>
      </trkpt>
      <trkpt lat="43.31666" lon="5.66844">
        <ele>748</ele>
        <time>2019-11-29T08:00:52.000Z</time>
      </trkpt>
      <trkpt lat="43.31666" lon="5.66845">
        <ele>748</ele>
        <time>2019-11-29T08:00:53.000Z</time>
      </trkpt>
      <trkpt lat="43.31666" lon="5.66846">
        <ele>748</ele>
        <time>2019-11-29T08:00:54.000Z</time>
      </trkpt>
      <trkpt lat="43.31666" lon="5.66848">
        <ele>748</ele>
        <time>2019-11-29T08:00:55.000Z</time>
      </trkpt>
      <trkpt lat="43.31666" lon="5.66849">
        <ele>748</ele>
        <time>2019-11-29T08:00:56.000Z</time>
      </trkpt>
      <trkpt lat="43.31666" lon="5.6685">
        <ele>748</ele>
        <time>2019-11-29T08:00:57.000Z</time>
      </trkpt>
      <trkpt lat="43.31667" lon="5.66852">
        <ele>748</ele>
        <time>2019-11-29T08:00:58.000Z</time>
      </trkpt>
      <trkpt lat="43.31667" lon="5.66853">
        <ele>748</ele>
        <time>2019-11-29T08:00:59.000Z</time>
      </trkpt>
      <trkpt lat="43.31667" lon="5.66855">
        <ele>748</ele>
        <time>2019-11-29T08:01:00.000Z</time>
      </trkpt>
      <trkpt lat="43.31667" lon="5.66856">
        <ele>748</ele>
        <time>2019-11-29T08:01:01.000Z</time>
      </trkpt>
      <trkpt lat="43.31667" lon="5.66858">
        <ele>749</ele>
        <time>2019-11-29T08:01:02.000Z</time>
      </trkpt>
      <trkpt lat="43.31667" lon="5.66859">
        <ele>749</ele>
        <time>2019-11-29T08:01:03.000Z</time>
      </trkpt>
      <trkpt lat="43.31666" lon="5.6686">
        <ele>749</ele>
        <time>2019-11-29T08:01:04.000Z</time>
      </trkpt>
      <trkpt lat="43.31666" lon="5.66862">
        <ele>749</ele>
        <time>2019-11-29T08:01:05.000Z</time>
      </trkpt>
      <trkpt lat="43.31666" lon="5.66863">
        <ele>749</ele>
        <time>2019-11-29T08:01:06.000Z</time>
      </trkpt>
      <trkpt lat="43.31666" lon="5.66864">
        <ele>749</ele>
        <time>2019-11-29T08:01:07.000Z</time>
      </trkpt>
      <trkpt lat="43.31666" lon="5.66866">
        <ele>749</ele>
        <time>2019-11-29T08:01:08.000Z</time>
      </trkpt>
      <trkpt lat="43.31666" lon="5.66867">
        <ele>749</ele>
        <time>2019-11-29T08:01:09.000Z</time>
      </trkpt>
      <trkpt lat="43.31666" lon="5.66868">
        <ele>749</ele>
        <time>2019-11-29T08:01:10.000Z</time>
      </trkpt>
      <trkpt lat="43.31667" lon="5.66869">
        <ele>750</ele>
        <time>2019-11-29T08:01:11.000Z</time>
      </trkpt>
      <trkpt lat="43.31667" lon="5.6687">
        <ele>750</ele>
        <time>2019-11-29T08:01:12.000Z</time>
      </trkpt>
      <trkpt lat="43.31667" lon="5.66871">
        <ele>750</ele>
        <time>2019-11-29T08:01:13.000Z</time>
      </trkpt>
      <trkpt lat="43.31667" lon="5.66873">
        <ele>750</ele>
        <time>2019-11-29T08:01:14.000Z</time>
      </trkpt>
      <trkpt lat="43.31667" lon="5.66874">
        <ele>750</ele>
        <time>2019-11-29T08:01:15.000Z</time>
      </trkpt>
      <trkpt lat="43.31667" lon="5.66875">
        <ele>750</ele>
        <time>2019-11-29T08:01:16.000Z</time>
      </trkpt>
      <trkpt lat="43.31667" lon="5.66876">
        <ele>750</ele>
        <time>2019-11-29T08:01:17.000Z</time>
      </trkpt>
      <trkpt lat="43.31666" lon="5.66878">
        <ele>750</ele>
        <time>2019-11-29T08:01:18.000Z</time>
      </trkpt>
      <trkpt lat="43.31666" lon="5.66879">
        <ele>751</ele>
        <time>2019-11-29T08:01:19.000Z</time>
      </trkpt>
      <trkpt lat="43.31665" lon="5.6688">
        <ele>751</ele>
        <time>2019-11-29T08:01:20.000Z</time>
      </trkpt>
      <trkpt lat="43.31665" lon="5.66881">
        <ele>751</ele>
        <time>2019-11-29T08:01:21.000Z</time>
      </trkpt>
      <trkpt lat="43.31664" lon="5.66883">
        <ele>751</ele>
        <time>2019-11-29T08:01:22.000Z</time>
      </trkpt>
      <trkpt lat="43.31664" lon="5.66884">
        <ele>751</ele>
        <time>2019-11-29T08:01:23.000Z</time>
      </trkpt>
      <trkpt lat="43.31664" lon="5.66885">
        <ele>751</ele>
        <time>2019-11-29T08:01:24.000Z</time>
      </trkpt>
      <trkpt lat="43.31663" lon="5.66887">
        <ele>752</ele>
        <time>2019-11-29T08:01:25.000Z</time>
      </trkpt>
      <trkpt lat="43.31663" lon="5.66888">
        <ele>752</ele>
        <time>2019-11-29T08:01:26.000Z</time>
      </trkpt>
      <trkpt lat="43.31663" lon="5.6689">
        <ele>752</ele>
        <time>2019-11-29T08:01:27.000Z</time>
      </trkpt>
      <trkpt lat="43.31663" lon="5.66891">
        <ele>752</ele>
        <time>2019-11-29T08:01:28.000Z</time>
      </trkpt>
      <trkpt lat="43.31662" lon="5.66892">
        <ele>752</ele>
        <time>2019-11-29T08:01:29.000Z</time>
      </trkpt>
      <trkpt lat="43.31662" lon="5.66894">
        <ele>753</ele>
        <time>2019-11-29T08:01:30.000Z</time>
      </trkpt>
      <trkpt lat="43.31662" lon="5.66895">
        <ele>753</ele>
        <time>2019-11-29T08:01:31.000Z</time>
      </trkpt>
      <trkpt lat="43.31661" lon="5.66897">
        <ele>753</ele>
        <time>2019-11-29T08:01:32.000Z</time>
      </trkpt>
      <trkpt lat="43.31661" lon="5.66898">
        <ele>753</ele>
        <time>2019-11-29T08:01:33.000Z</time>
      </trkpt>
      <trkpt lat="43.31661" lon="5.66899">
        <ele>753</ele>
        <time>2019-11-29T08:01:34.000Z</time>
      </trkpt>
      <trkpt lat="43.31661" lon="5.669">
        <ele>753</ele>
        <time>2019-11-29T08:01:35.000Z</time>
      </trkpt>
      <trkpt lat="43.31661" lon="5.66901">
        <ele>754</ele>
        <time>2019-11-29T08:01:36.000Z</time>
      </trkpt>
      <trkpt lat="43.3166" lon="5.66901">
        <ele>754</ele>
        <time>2019-11-29T08:01:37.000Z</time>
      </trkpt>
      <trkpt lat="43.3166" lon="5.66902">
        <ele>754</ele>
        <time>2019-11-29T08:01:38.000Z</time>
      </trkpt>
      <trkpt lat="43.31659" lon="5.66903">
        <ele>754</ele>
        <time>2019-11-29T08:01:39.000Z</time>
      </trkpt>
      <trkpt lat="43.31658" lon="5.66904">
        <ele>754</ele>
        <time>2019-11-29T08:01:40.000Z</time>
      </trkpt>
      <trkpt lat="43.31657" lon="5.66906">
        <ele>754</ele>
        <time>2019-11-29T08:01:41.000Z</time>
      </trkpt>
      <trkpt lat="43.31657" lon="5.66907">
        <ele>754</ele>
        <time>2019-11-29T08:01:42.000Z</time>
      </trkpt>
      <trkpt lat="43.31656" lon="5.66908">
        <ele>754</ele>
        <time>2019-11-29T08:01:43.000Z</time>
      </trkpt>
      <trkpt lat="43.31655" lon="5.66909">
        <ele>754</ele>
        <time>2019-11-29T08:01:44.000Z</time>
      </trkpt>
      <trkpt lat="43.31655" lon="5.66911">
        <ele>754</ele>
        <time>2019-11-29T08:01:45.000Z</time>
      </trkpt>
      <trkpt lat="43.31654" lon="5.66912">
        <ele>754</ele>
        <time>2019-11-29T08:01:46.000Z</time>
      </trkpt>
      <trkpt lat="43.31653" lon="5.66914">
        <ele>754</ele>
        <time>2019-11-29T08:01:47.000Z</time>
      </trkpt>
      <trkpt lat="43.31652" lon="5.66915">
        <ele>754</ele>
        <time>2019-11-29T08:01:48.000Z</time>
      </trkpt>
      <trkpt lat="43.31652" lon="5.66916">
        <ele>754</ele>
        <time>2019-11-29T08:01:49.000Z</time>
      </trkpt>
      <trkpt lat="43.31651" lon="5.66918">
        <ele>754</ele>
        <time>2019-11-29T08:01:50.000Z</time>
      </trkpt>
      <trkpt lat="43.31651" lon="5.66919">
        <ele>754</ele>
        <time>2019-11-29T08:01:51.000Z</time>
      </trkpt>
      <trkpt lat="43.3165" lon="5.6692">
        <ele>754</ele>
        <time>2019-11-29T08:01:52.000Z</time>
      </trkpt>
      <trkpt lat="43.31649" lon="5.66922">
        <ele>754</ele>
        <time>2019-11-29T08:01:53.000Z</time>
      </trkpt>
      <trkpt lat="43.31649" lon="5.66922">
        <ele>754</ele>
        <time>2019-11-29T08:01:54.000Z</time>
      </trkpt>
      <trkpt lat="43.31649" lon="5.66922">
        <ele>754</ele>
        <time>2019-11-29T08:01:55.000Z</time>
      </trkpt>
      <trkpt lat="43.31649" lon="5.66922">
        <ele>754</ele>
        <time>2019-11-29T08:01:56.000Z</time>
      </trkpt>
      <trkpt lat="43.31649" lon="5.66922">
        <ele>754</ele>
        <time>2019-11-29T08:01:57.000Z</time>
      </trkpt>
      <trkpt lat="43.31649" lon="5.66922">
        <ele>754</ele>
        <time>2019-11-29T08:01:58.000Z</time>
      </trkpt>
      <trkpt lat="43.31649" lon="5.66922">
        <ele>754</ele>
        <time>2019-11-29T08:01:59.000Z</time>
      </trkpt>
      <trkpt lat="43.31649" lon="5.66922">
        <ele>754</ele>
        <time>2019-11-29T08:02:00.000Z</time>
      </trkpt>
      <trkpt lat="43.31649" lon="5.66922">
        <ele>754</ele>
        <time>2019-11-29T08:02:01.000Z</time>
      </trkpt>
      <trkpt lat="43.31649" lon="5.66922">
        <ele>754</ele>
        <time>2019-11-29T08:02:02.000Z</time>
      </trkpt>
      <trkpt lat="43.31649" lon="5.66922">
        <ele>754</ele>
        <time>2019-11-29T08:02:03.000Z</time>
      </trkpt>
      <trkpt lat="43.31649" lon="5.66922">
        <ele>754</ele>
        <time>2019-11-29T08:02:04.000Z</time>
      </trkpt>
      <trkpt lat="43.31649" lon="5.66922">
        <ele>754</ele>
        <time>2019-11-29T08:02:05.000Z</time>
      </trkpt>
      <trkpt lat="43.31649" lon="5.66922">
        <ele>754</ele>
        <time>2019-11-29T08:02:06.000Z</time>
      </trkpt>
      <trkpt lat="43.31649" lon="5.66922">
        <ele>754</ele>
        <time>2019-11-29T08:02:07.000Z</time>
      </trkpt>
      <trkpt lat="43.31649" lon="5.66922">
        <ele>754</ele>
        <time>2019-11-29T08:02:08.000Z</time>
      </trkpt>
      <trkpt lat="43.31649" lon="5.66922">
        <ele>754</ele>
        <time>2019-11-29T08:02:09.000Z</time>
      </trkpt>
      <trkpt lat="43.31649" lon="5.66922">
        <ele>754</ele>
        <time>2019-11-29T08:02:10.000Z</time>
      </trkpt>
      <trkpt lat="43.31649" lon="5.66922">
        <ele>754</ele>
        <time>2019-11-29T08:02:11.000Z</time>
      </trkpt>
      <trkpt lat="43.31649" lon="5.66922">
        <ele>754</ele>
        <time>2019-11-29T08:02:12.000Z</time>
      </trkpt>
      <trkpt lat="43.31649" lon="5.66922">
        <ele>754</ele>
        <time>2019-11-29T08:02:13.000Z</time>
      </trkpt>
      <trkpt lat="43.31649" lon="5.66922">
        <ele>754</ele>
        <time>2019-11-29T08:02:14.000Z</time>
      </trkpt>
      <trkpt lat="43.3165" lon="5.66922">
        <ele>754</ele>
        <time>2019-11-29T08:02:15.000Z</time>
      </trkpt>
      <trkpt lat="43.3165" lon="5.66922">
        <ele>754</ele>
        <time>2019-11-29T08:02:16.000Z</time>
      </trkpt>
      <trkpt lat="43.3165" lon="5.66922">
        <ele>754</ele>
        <time>2019-11-29T08:02:17.000Z</time>
      </trkpt>
      <trkpt lat="43.3165" lon="5.66922">
        <ele>754</ele>
        <time>2019-11-29T08:02:18.000Z</time>
      </trkpt>
      <trkpt lat="43.3165" lon="5.66922">
        <ele>754</ele>
        <time>2019-11-29T08:02:19.000Z</time>
      </trkpt>
      <trkpt lat="43.3165" lon="5.66922">
        <ele>754</ele>
        <time>2019-11-29T08:02:20.000Z</time>
      </trkpt>
      <trkpt lat="43.3165" lon="5.66922">
        <ele>754</ele>
        <time>2019-11-29T08:02:21.000Z</time>
      </trkpt>
      <trkpt lat="43.3165" lon="5.66922">
        <ele>754</ele>
        <time>2019-11-29T08:02:22.000Z</time>
      </trkpt>
      <trkpt lat="43.3165" lon="5.66922">
        <ele>754</ele>
        <time>2019-11-29T08:02:23.000Z</time>
      </trkpt>
      <trkpt lat="43.3165" lon="5.66922">
        <ele>754</ele>
        <time>2019-11-29T08:02:24.000Z</time>
      </trkpt>
      <trkpt lat="43.3165" lon="5.66922">
        <ele>754</ele>
        <time>2019-11-29T08:02:25.000Z</time>
      </trkpt>
      <trkpt lat="43.3165" lon="5.66922">
        <ele>754</ele>
        <time>2019-11-29T08:02:26.000Z</time>
      </trkpt>
      <trkpt lat="43.3165" lon="5.66922">
        <ele>754</ele>
        <time>2019-11-29T08:02:27.000Z</time>
      </trkpt>
      <trkpt lat="43.3165" lon="5.66923">
        <ele>754</ele>
        <time>2019-11-29T08:02:28.000Z</time>
      </trkpt>
      <trkpt lat="43.31649" lon="5.66925">
        <ele>754</ele>
        <time>2019-11-29T08:02:29.000Z</time>
      </trkpt>
      <trkpt lat="43.31649" lon="5.66926">
        <ele>754</ele>
        <time>2019-11-29T08:02:30.000Z</time>
      </trkpt>
      <trkpt lat="43.31649" lon="5.66927">
        <ele>754</ele>
        <time>2019-11-29T08:02:31.000Z</time>
      </trkpt>
      <trkpt lat="43.31648" lon="5.66929">
        <ele>754</ele>
        <time>2019-11-29T08:02:32.000Z</time>
      </trkpt>
      <trkpt lat="43.31648" lon="5.6693">
        <ele>754</ele>
        <time>2019-11-29T08:02:33.000Z</time>
      </trkpt>
      <trkpt lat="43.31648" lon="5.66931">
        <ele>754</ele>
        <time>2019-11-29T08:02:34.000Z</time>
      </trkpt>
      <trkpt lat="43.31648" lon="5.66933">
        <ele>754</ele>
        <time>2019-11-29T08:02:35.000Z</time>
      </trkpt>
      <trkpt lat="43.31647" lon="5.66934">
        <ele>754</ele>
        <time>2019-11-29T08:02:36.000Z</time>
      </trkpt>
      <trkpt lat="43.31647" lon="5.66936">
        <ele>754</ele>
        <time>2019-11-29T08:02:37.000Z</time>
      </trkpt>
      <trkpt lat="43.31647" lon="5.66937">
        <ele>754</ele>
        <time>2019-11-29T08:02:38.000Z</time>
      </trkpt>
      <trkpt lat="43.31647" lon="5.66938">
        <ele>754</ele>
        <time>2019-11-29T08:02:39.000Z</time>
      </trkpt>
      <trkpt lat="43.31647" lon="5.6694">
        <ele>754</ele>
        <time>2019-11-29T08:02:40.000Z</time>
      </trkpt>
      <trkpt lat="43.31646" lon="5.66941">
        <ele>754</ele>
        <time>2019-11-29T08:02:41.000Z</time>
      </trkpt>
      <trkpt lat="43.31646" lon="5.66943">
        <ele>754</ele>
        <time>2019-11-29T08:02:42.000Z</time>
      </trkpt>
      <trkpt lat="43.31646" lon="5.66944">
        <ele>754</ele>
        <time>2019-11-29T08:02:43.000Z</time>
      </trkpt>
      <trkpt lat="43.31646" lon="5.66946">
        <ele>754</ele>
        <time>2019-11-29T08:02:44.000Z</time>
      </trkpt>
      <trkpt lat="43.31646" lon="5.66947">
        <ele>754</ele>
        <time>2019-11-29T08:02:45.000Z</time>
      </trkpt>
      <trkpt lat="43.31646" lon="5.66949">
        <ele>754</ele>
        <time>2019-11-29T08:02:46.000Z</time>
      </trkpt>
      <trkpt lat="43.31646" lon="5.66951">
        <ele>754</ele>
        <time>2019-11-29T08:02:47.000Z</time>
      </trkpt>
      <trkpt lat="43.31646" lon="5.66953">
        <ele>754</ele>
        <time>2019-11-29T08:02:48.000Z</time>
      </trkpt>
      <trkpt lat="43.31646" lon="5.66955">
        <ele>754</ele>
        <time>2019-11-29T08:02:49.000Z</time>
      </trkpt>
      <trkpt lat="43.31645" lon="5.66957">
        <ele>754</ele>
        <time>2019-11-29T08:02:50.000Z</time>
      </trkpt>
      <trkpt lat="43.31645" lon="5.66959">
        <ele>754</ele>
        <time>2019-11-29T08:02:51.000Z</time>
      </trkpt>
      <trkpt lat="43.31645" lon="5.66961">
        <ele>754</ele>
        <time>2019-11-29T08:02:52.000Z</time>
      </trkpt>
      <trkpt lat="43.31646" lon="5.66962">
        <ele>754</ele>
        <time>2019-11-29T08:02:53.000Z</time>
      </trkpt>
      <trkpt lat="43.31646" lon="5.66964">
        <ele>754</ele>
        <time>2019-11-29T08:02:54.000Z</time>
      </trkpt>
      <trkpt lat="43.31646" lon="5.66966">
        <ele>754</ele>
        <time>2019-11-29T08:02:55.000Z</time>
      </trkpt>
      <trkpt lat="43.31646" lon="5.66968">
        <ele>754</ele>
        <time>2019-11-29T08:02:56.000Z</time>
      </trkpt>
      <trkpt lat="43.31646" lon="5.66969">
        <ele>754</ele>
        <time>2019-11-29T08:02:57.000Z</time>
      </trkpt>
      <trkpt lat="43.31647" lon="5.66971">
        <ele>754</ele>
        <time>2019-11-29T08:02:58.000Z</time>
      </trkpt>
      <trkpt lat="43.31647" lon="5.66973">
        <ele>754</ele>
        <time>2019-11-29T08:02:59.000Z</time>
      </trkpt>
      <trkpt lat="43.31647" lon="5.66975">
        <ele>754</ele>
        <time>2019-11-29T08:03:00.000Z</time>
      </trkpt>
      <trkpt lat="43.31647" lon="5.66977">
        <ele>754</ele>
        <time>2019-11-29T08:03:01.000Z</time>
      </trkpt>
      <trkpt lat="43.31647" lon="5.66979">
        <ele>754</ele>
        <time>2019-11-29T08:03:02.000Z</time>
      </trkpt>
      <trkpt lat="43.31647" lon="5.66981">
        <ele>754</ele>
        <time>2019-11-29T08:03:03.000Z</time>
      </trkpt>
      <trkpt lat="43.31646" lon="5.66983">
        <ele>754</ele>
        <time>2019-11-29T08:03:04.000Z</time>
      </trkpt>
      <trkpt lat="43.31646" lon="5.66985">
        <ele>754</ele>
        <time>2019-11-29T08:03:05.000Z</time>
      </trkpt>
      <trkpt lat="43.31646" lon="5.66987">
        <ele>754</ele>
        <time>2019-11-29T08:03:06.000Z</time>
      </trkpt>
      <trkpt lat="43.31645" lon="5.66989">
        <ele>754</ele>
        <time>2019-11-29T08:03:07.000Z</time>
      </trkpt>
      <trkpt lat="43.31645" lon="5.66991">
        <ele>754</ele>
        <time>2019-11-29T08:03:08.000Z</time>
      </trkpt>
      <trkpt lat="43.31645" lon="5.66993">
        <ele>754</ele>
        <time>2019-11-29T08:03:09.000Z</time>
      </trkpt>
      <trkpt lat="43.31645" lon="5.66995">
        <ele>754</ele>
        <time>2019-11-29T08:03:10.000Z</time>
      </trkpt>
      <trkpt lat="43.31645" lon="5.66997">
        <ele>754</ele>
        <time>2019-11-29T08:03:11.000Z</time>
      </trkpt>
      <trkpt lat="43.31645" lon="5.66998">
        <ele>754</ele>
        <time>2019-11-29T08:03:12.000Z</time>
      </trkpt>
      <trkpt lat="43.31645" lon="5.67">
        <ele>754</ele>
        <time>2019-11-29T08:03:13.000Z</time>
      </trkpt>
      <trkpt lat="43.31646" lon="5.67001">
        <ele>754</ele>
        <time>2019-11-29T08:03:14.000Z</time>
      </trkpt>
      <trkpt lat="43.31646" lon="5.67003">
        <ele>754</ele>
        <time>2019-11-29T08:03:15.000Z</time>
      </trkpt>
      <trkpt lat="43.31647" lon="5.67004">
        <ele>754</ele>
        <time>2019-11-29T08:03:16.000Z</time>
      </trkpt>
      <trkpt lat="43.31647" lon="5.67006">
        <ele>754</ele>
        <time>2019-11-29T08:03:17.000Z</time>
      </trkpt>
      <trkpt lat="43.31647" lon="5.67007">
        <ele>755</ele>
        <time>2019-11-29T08:03:18.000Z</time>
      </trkpt>
      <trkpt lat="43.31647" lon="5.67008">
        <ele>755</ele>
        <time>2019-11-29T08:03:19.000Z</time>
      </trkpt>
      <trkpt lat="43.31648" lon="5.67009">
        <ele>755</ele>
        <time>2019-11-29T08:03:20.000Z</time>
      </trkpt>
      <trkpt lat="43.31648" lon="5.6701">
        <ele>755</ele>
        <time>2019-11-29T08:03:21.000Z</time>
      </trkpt>
      <trkpt lat="43.31649" lon="5.67012">
        <ele>755</ele>
        <time>2019-11-29T08:03:22.000Z</time>
      </trkpt>
      <trkpt lat="43.31649" lon="5.67013">
        <ele>755</ele>
        <time>2019-11-29T08:03:23.000Z</time>
      </trkpt>
      <trkpt lat="43.31649" lon="5.67014">
        <ele>755</ele>
        <time>2019-11-29T08:03:24.000Z</time>
      </trkpt>
      <trkpt lat="43.3165" lon="5.67016">
        <ele>755</ele>
        <time>2019-11-29T08:03:25.000Z</time>
      </trkpt>
      <trkpt lat="43.3165" lon="5.67018">
        <ele>755</ele>
        <time>2019-11-29T08:03:26.000Z</time>
      </trkpt>
      <trkpt lat="43.3165" lon="5.67019">
        <ele>755</ele>
        <time>2019-11-29T08:03:27.000Z</time>
      </trkpt>
      <trkpt lat="43.3165" lon="5.67021">
        <ele>755</ele>
        <time>2019-11-29T08:03:28.000Z</time>
      </trkpt>
      <trkpt lat="43.31651" lon="5.67022">
        <ele>756</ele>
        <time>2019-11-29T08:03:29.000Z</time>
      </trkpt>
      <trkpt lat="43.31651" lon="5.67023">
        <ele>756</ele>
        <time>2019-11-29T08:03:30.000Z</time>
      </trkpt>
      <trkpt lat="43.31652" lon="5.67024">
        <ele>756</ele>
        <time>2019-11-29T08:03:31.000Z</time>
      </trkpt>
      <trkpt lat="43.31652" lon="5.67026">
        <ele>756</ele>
        <time>2019-11-29T08:03:32.000Z</time>
      </trkpt>
      <trkpt lat="43.31653" lon="5.67027">
        <ele>756</ele>
        <time>2019-11-29T08:03:33.000Z</time>
      </trkpt>
      <trkpt lat="43.31653" lon="5.67029">
        <ele>756</ele>
        <time>2019-11-29T08:03:34.000Z</time>
      </trkpt>
      <trkpt lat="43.31653" lon="5.67031">
        <ele>756</ele>
        <time>2019-11-29T08:03:35.000Z</time>
      </trkpt>
      <trkpt lat="43.31653" lon="5.67032">
        <ele>757</ele>
        <time>2019-11-29T08:03:36.000Z</time>
      </trkpt>
      <trkpt lat="43.31653" lon="5.67034">
        <ele>757</ele>
        <time>2019-11-29T08:03:37.000Z</time>
      </trkpt>
      <trkpt lat="43.31653" lon="5.67036">
        <ele>757</ele>
        <time>2019-11-29T08:03:38.000Z</time>
      </trkpt>
      <trkpt lat="43.31653" lon="5.67037">
        <ele>757</ele>
        <time>2019-11-29T08:03:39.000Z</time>
      </trkpt>
      <trkpt lat="43.31653" lon="5.67039">
        <ele>757</ele>
        <time>2019-11-29T08:03:40.000Z</time>
      </trkpt>
      <trkpt lat="43.31653" lon="5.6704">
        <ele>757</ele>
        <time>2019-11-29T08:03:41.000Z</time>
      </trkpt>
      <trkpt lat="43.31653" lon="5.67042">
        <ele>757</ele>
        <time>2019-11-29T08:03:42.000Z</time>
      </trkpt>
      <trkpt lat="43.31653" lon="5.67044">
        <ele>758</ele>
        <time>2019-11-29T08:03:43.000Z</time>
      </trkpt>
      <trkpt lat="43.31654" lon="5.67045">
        <ele>758</ele>
        <time>2019-11-29T08:03:44.000Z</time>
      </trkpt>
      <trkpt lat="43.31654" lon="5.67047">
        <ele>758</ele>
        <time>2019-11-29T08:03:45.000Z</time>
      </trkpt>
      <trkpt lat="43.31654" lon="5.67048">
        <ele>758</ele>
        <time>2019-11-29T08:03:46.000Z</time>
      </trkpt>
      <trkpt lat="43.31654" lon="5.6705">
        <ele>758</ele>
        <time>2019-11-29T08:03:47.000Z</time>
      </trkpt>
      <trkpt lat="43.31654" lon="5.67052">
        <ele>758</ele>
        <time>2019-11-29T08:03:48.000Z</time>
      </trkpt>
      <trkpt lat="43.31653" lon="5.67054">
        <ele>758</ele>
        <time>2019-11-29T08:03:49.000Z</time>
      </trkpt>
      <trkpt lat="43.31653" lon="5.67056">
        <ele>758</ele>
        <time>2019-11-29T08:03:50.000Z</time>
      </trkpt>
      <trkpt lat="43.31653" lon="5.67057">
        <ele>758</ele>
        <time>2019-11-29T08:03:51.000Z</time>
      </trkpt>
      <trkpt lat="43.31653" lon="5.67059">
        <ele>759</ele>
        <time>2019-11-29T08:03:52.000Z</time>
      </trkpt>
      <trkpt lat="43.31653" lon="5.67061">
        <ele>759</ele>
        <time>2019-11-29T08:03:53.000Z</time>
      </trkpt>
      <trkpt lat="43.31653" lon="5.67063">
        <ele>759</ele>
        <time>2019-11-29T08:03:54.000Z</time>
      </trkpt>
      <trkpt lat="43.31653" lon="5.67064">
        <ele>759</ele>
        <time>2019-11-29T08:03:55.000Z</time>
      </trkpt>
      <trkpt lat="43.31653" lon="5.67066">
        <ele>759</ele>
        <time>2019-11-29T08:03:56.000Z</time>
      </trkpt>
      <trkpt lat="43.31653" lon="5.67068">
        <ele>759</ele>
        <time>2019-11-29T08:03:57.000Z</time>
      </trkpt>
      <trkpt lat="43.31653" lon="5.67069">
        <ele>759</ele>
        <time>2019-11-29T08:03:58.000Z</time>
      </trkpt>
      <trkpt lat="43.31654" lon="5.67071">
        <ele>759</ele>
        <time>2019-11-29T08:03:59.000Z</time>
      </trkpt>
      <trkpt lat="43.31654" lon="5.67073">
        <ele>759</ele>
        <time>2019-11-29T08:04:00.000Z</time>
      </trkpt>
      <trkpt lat="43.31654" lon="5.67075">
        <ele>759</ele>
        <time>2019-11-29T08:04:01.000Z</time>
      </trkpt>
      <trkpt lat="43.31654" lon="5.67077">
        <ele>759</ele>
        <time>2019-11-29T08:04:02.000Z</time>
      </trkpt>
      <trkpt lat="43.31654" lon="5.67079">
        <ele>759</ele>
        <time>2019-11-29T08:04:03.000Z</time>
      </trkpt>
      <trkpt lat="43.31654" lon="5.67081">
        <ele>759</ele>
        <time>2019-11-29T08:04:04.000Z</time>
      </trkpt>
      <trkpt lat="43.31653" lon="5.67082">
        <ele>759</ele>
        <time>2019-11-29T08:04:05.000Z</time>
      </trkpt>
      <trkpt lat="43.31653" lon="5.67084">
        <ele>760</ele>
        <time>2019-11-29T08:04:06.000Z</time>
      </trkpt>
      <trkpt lat="43.31652" lon="5.67086">
        <ele>760</ele>
        <time>2019-11-29T08:04:07.000Z</time>
      </trkpt>
      <trkpt lat="43.31652" lon="5.67087">
        <ele>760</ele>
        <time>2019-11-29T08:04:08.000Z</time>
      </trkpt>
      <trkpt lat="43.31651" lon="5.67089">
        <ele>760</ele>
        <time>2019-11-29T08:04:09.000Z</time>
      </trkpt>
      <trkpt lat="43.31651" lon="5.67091">
        <ele>760</ele>
        <time>2019-11-29T08:04:10.000Z</time>
      </trkpt>
      <trkpt lat="43.3165" lon="5.67092">
        <ele>760</ele>
        <time>2019-11-29T08:04:11.000Z</time>
      </trkpt>
      <trkpt lat="43.3165" lon="5.67094">
        <ele>760</ele>
        <time>2019-11-29T08:04:12.000Z</time>
      </trkpt>
      <trkpt lat="43.31649" lon="5.67095">
        <ele>760</ele>
        <time>2019-11-29T08:04:13.000Z</time>
      </trkpt>
      <trkpt lat="43.31649" lon="5.67097">
        <ele>760</ele>
        <time>2019-11-29T08:04:14.000Z</time>
      </trkpt>
      <trkpt lat="43.31648" lon="5.67099">
        <ele>760</ele>
        <time>2019-11-29T08:04:15.000Z</time>
      </trkpt>
      <trkpt lat="43.31647" lon="5.671">
        <ele>760</ele>
        <time>2019-11-29T08:04:16.000Z</time>
      </trkpt>
      <trkpt lat="43.31646" lon="5.67102">
        <ele>760</ele>
        <time>2019-11-29T08:04:17.000Z</time>
      </trkpt>
      <trkpt lat="43.31646" lon="5.67104">
        <ele>760</ele>
        <time>2019-11-29T08:04:18.000Z</time>
      </trkpt>
      <trkpt lat="43.31645" lon="5.67105">
        <ele>760</ele>
        <time>2019-11-29T08:04:19.000Z</time>
      </trkpt>
      <trkpt lat="43.31644" lon="5.67107">
        <ele>760</ele>
        <time>2019-11-29T08:04:20.000Z</time>
      </trkpt>
      <trkpt lat="43.31644" lon="5.67108">
        <ele>760</ele>
        <time>2019-11-29T08:04:21.000Z</time>
      </trkpt>
      <trkpt lat="43.31643" lon="5.67109">
        <ele>759</ele>
        <time>2019-11-29T08:04:22.000Z</time>
      </trkpt>
      <trkpt lat="43.31642" lon="5.6711">
        <ele>759</ele>
        <time>2019-11-29T08:04:23.000Z</time>
      </trkpt>
      <trkpt lat="43.31642" lon="5.67112">
        <ele>759</ele>
        <time>2019-11-29T08:04:24.000Z</time>
      </trkpt>
      <trkpt lat="43.31641" lon="5.67112">
        <ele>759</ele>
        <time>2019-11-29T08:04:25.000Z</time>
      </trkpt>
      <trkpt lat="43.31641" lon="5.67113">
        <ele>759</ele>
        <time>2019-11-29T08:04:26.000Z</time>
      </trkpt>
      <trkpt lat="43.3164" lon="5.67113">
        <ele>760</ele>
        <time>2019-11-29T08:04:27.000Z</time>
      </trkpt>
      <trkpt lat="43.3164" lon="5.67114">
        <ele>760</ele>
        <time>2019-11-29T08:04:28.000Z</time>
      </trkpt>
      <trkpt lat="43.31639" lon="5.67115">
        <ele>760</ele>
        <time>2019-11-29T08:04:29.000Z</time>
      </trkpt>
      <trkpt lat="43.31638" lon="5.67116">
        <ele>760</ele>
        <time>2019-11-29T08:04:30.000Z</time>
      </trkpt>
      <trkpt lat="43.31637" lon="5.67117">
        <ele>760</ele>
        <time>2019-11-29T08:04:31.000Z</time>
      </trkpt>
      <trkpt lat="43.31636" lon="5.67118">
        <ele>760</ele>
        <time>2019-11-29T08:04:32.000Z</time>
      </trkpt>
      <trkpt lat="43.31635" lon="5.67119">
        <ele>760</ele>
        <time>2019-11-29T08:04:33.000Z</time>
      </trkpt>
      <trkpt lat="43.31634" lon="5.6712">
        <ele>760</ele>
        <time>2019-11-29T08:04:34.000Z</time>
      </trkpt>
      <trkpt lat="43.31633" lon="5.67121">
        <ele>760</ele>
        <time>2019-11-29T08:04:35.000Z</time>
      </trkpt>
      <trkpt lat="43.31633" lon="5.67123">
        <ele>760</ele>
        <time>2019-11-29T08:04:36.000Z</time>
      </trkpt>
      <trkpt lat="43.31632" lon="5.67124">
        <ele>760</ele>
        <time>2019-11-29T08:04:37.000Z</time>
      </trkpt>
      <trkpt lat="43.31632" lon="5.67125">
        <ele>760</ele>
        <time>2019-11-29T08:04:38.000Z</time>
      </trkpt>
      <trkpt lat="43.31631" lon="5.67126">
        <ele>760</ele>
        <time>2019-11-29T08:04:39.000Z</time>
      </trkpt>
      <trkpt lat="43.3163" lon="5.67128">
        <ele>760</ele>
        <time>2019-11-29T08:04:40.000Z</time>
      </trkpt>
      <trkpt lat="43.31629" lon="5.67129">
        <ele>760</ele>
        <time>2019-11-29T08:04:41.000Z</time>
      </trkpt>
      <trkpt lat="43.31628" lon="5.67131">
        <ele>760</ele>
        <time>2019-11-29T08:04:42.000Z</time>
      </trkpt>
      <trkpt lat="43.31627" lon="5.67132">
        <ele>760</ele>
        <time>2019-11-29T08:04:43.000Z</time>
      </trkpt>
      <trkpt lat="43.31627" lon="5.67134">
        <ele>760</ele>
        <time>2019-11-29T08:04:44.000Z</time>
      </trkpt>
      <trkpt lat="43.31627" lon="5.67136">
        <ele>760</ele>
        <time>2019-11-29T08:04:45.000Z</time>
      </trkpt>
      <trkpt lat="43.31627" lon="5.67137">
        <ele>759</ele>
        <time>2019-11-29T08:04:46.000Z</time>
      </trkpt>
      <trkpt lat="43.31627" lon="5.67139">
        <ele>759</ele>
        <time>2019-11-29T08:04:47.000Z</time>
      </trkpt>
      <trkpt lat="43.31627" lon="5.6714">
        <ele>759</ele>
        <time>2019-11-29T08:04:48.000Z</time>
      </trkpt>
      <trkpt lat="43.31628" lon="5.67142">
        <ele>759</ele>
        <time>2019-11-29T08:04:49.000Z</time>
      </trkpt>
      <trkpt lat="43.31628" lon="5.67143">
        <ele>759</ele>
        <time>2019-11-29T08:04:50.000Z</time>
      </trkpt>
      <trkpt lat="43.31628" lon="5.67145">
        <ele>759</ele>
        <time>2019-11-29T08:04:51.000Z</time>
      </trkpt>
      <trkpt lat="43.31628" lon="5.67147">
        <ele>759</ele>
        <time>2019-11-29T08:04:52.000Z</time>
      </trkpt>
      <trkpt lat="43.31628" lon="5.67148">
        <ele>759</ele>
        <time>2019-11-29T08:04:53.000Z</time>
      </trkpt>
      <trkpt lat="43.31628" lon="5.6715">
        <ele>759</ele>
        <time>2019-11-29T08:04:54.000Z</time>
      </trkpt>
      <trkpt lat="43.31628" lon="5.67151">
        <ele>759</ele>
        <time>2019-11-29T08:04:55.000Z</time>
      </trkpt>
      <trkpt lat="43.31628" lon="5.67152">
        <ele>759</ele>
        <time>2019-11-29T08:04:56.000Z</time>
      </trkpt>
      <trkpt lat="43.31628" lon="5.67154">
        <ele>758</ele>
        <time>2019-11-29T08:04:57.000Z</time>
      </trkpt>
      <trkpt lat="43.31628" lon="5.67155">
        <ele>758</ele>
        <time>2019-11-29T08:04:58.000Z</time>
      </trkpt>
      <trkpt lat="43.31628" lon="5.67157">
        <ele>758</ele>
        <time>2019-11-29T08:04:59.000Z</time>
      </trkpt>
      <trkpt lat="43.31628" lon="5.67158">
        <ele>758</ele>
        <time>2019-11-29T08:05:00.000Z</time>
      </trkpt>
      <trkpt lat="43.31628" lon="5.67159">
        <ele>758</ele>
        <time>2019-11-29T08:05:01.000Z</time>
      </trkpt>
      <trkpt lat="43.31628" lon="5.6716">
        <ele>758</ele>
        <time>2019-11-29T08:05:02.000Z</time>
      </trkpt>
      <trkpt lat="43.31628" lon="5.67161">
        <ele>758</ele>
        <time>2019-11-29T08:05:03.000Z</time>
      </trkpt>
      <trkpt lat="43.31628" lon="5.67163">
        <ele>758</ele>
        <time>2019-11-29T08:05:04.000Z</time>
      </trkpt>
      <trkpt lat="43.31628" lon="5.67164">
        <ele>758</ele>
        <time>2019-11-29T08:05:05.000Z</time>
      </trkpt>
      <trkpt lat="43.31628" lon="5.67165">
        <ele>759</ele>
        <time>2019-11-29T08:05:06.000Z</time>
      </trkpt>
      <trkpt lat="43.31629" lon="5.67167">
        <ele>759</ele>
        <time>2019-11-29T08:05:07.000Z</time>
      </trkpt>
      <trkpt lat="43.31629" lon="5.67168">
        <ele>759</ele>
        <time>2019-11-29T08:05:08.000Z</time>
      </trkpt>
      <trkpt lat="43.31629" lon="5.67169">
        <ele>759</ele>
        <time>2019-11-29T08:05:09.000Z</time>
      </trkpt>
      <trkpt lat="43.3163" lon="5.67171">
        <ele>759</ele>
        <time>2019-11-29T08:05:10.000Z</time>
      </trkpt>
      <trkpt lat="43.3163" lon="5.67173">
        <ele>759</ele>
        <time>2019-11-29T08:05:11.000Z</time>
      </trkpt>
      <trkpt lat="43.3163" lon="5.67174">
        <ele>759</ele>
        <time>2019-11-29T08:05:12.000Z</time>
      </trkpt>
      <trkpt lat="43.31631" lon="5.67175">
        <ele>759</ele>
        <time>2019-11-29T08:05:13.000Z</time>
      </trkpt>
      <trkpt lat="43.31631" lon="5.67176">
        <ele>759</ele>
        <time>2019-11-29T08:05:14.000Z</time>
      </trkpt>
      <trkpt lat="43.31631" lon="5.67178">
        <ele>759</ele>
        <time>2019-11-29T08:05:15.000Z</time>
      </trkpt>
      <trkpt lat="43.31632" lon="5.67179">
        <ele>759</ele>
        <time>2019-11-29T08:05:16.000Z</time>
      </trkpt>
      <trkpt lat="43.31632" lon="5.6718">
        <ele>760</ele>
        <time>2019-11-29T08:05:17.000Z</time>
      </trkpt>
      <trkpt lat="43.31632" lon="5.67181">
        <ele>760</ele>
        <time>2019-11-29T08:05:18.000Z</time>
      </trkpt>
      <trkpt lat="43.31632" lon="5.67182">
        <ele>760</ele>
        <time>2019-11-29T08:05:19.000Z</time>
      </trkpt>
      <trkpt lat="43.31633" lon="5.67184">
        <ele>760</ele>
        <time>2019-11-29T08:05:20.000Z</time>
      </trkpt>
      <trkpt lat="43.31633" lon="5.67185">
        <ele>760</ele>
        <time>2019-11-29T08:05:21.000Z</time>
      </trkpt>
      <trkpt lat="43.31633" lon="5.67187">
        <ele>761</ele>
        <time>2019-11-29T08:05:22.000Z</time>
      </trkpt>
      <trkpt lat="43.31633" lon="5.67189">
        <ele>761</ele>
        <time>2019-11-29T08:05:23.000Z</time>
      </trkpt>
      <trkpt lat="43.31634" lon="5.6719">
        <ele>761</ele>
        <time>2019-11-29T08:05:24.000Z</time>
      </trkpt>
      <trkpt lat="43.31634" lon="5.67191">
        <ele>761</ele>
        <time>2019-11-29T08:05:25.000Z</time>
      </trkpt>
      <trkpt lat="43.31635" lon="5.67193">
        <ele>761</ele>
        <time>2019-11-29T08:05:26.000Z</time>
      </trkpt>
      <trkpt lat="43.31635" lon="5.67194">
        <ele>761</ele>
        <time>2019-11-29T08:05:27.000Z</time>
      </trkpt>
      <trkpt lat="43.31635" lon="5.67196">
        <ele>762</ele>
        <time>2019-11-29T08:05:28.000Z</time>
      </trkpt>
      <trkpt lat="43.31636" lon="5.67197">
        <ele>762</ele>
        <time>2019-11-29T08:05:29.000Z</time>
      </trkpt>
      <trkpt lat="43.31636" lon="5.67198">
        <ele>762</ele>
        <time>2019-11-29T08:05:30.000Z</time>
      </trkpt>
      <trkpt lat="43.31636" lon="5.672">
        <ele>762</ele>
        <time>2019-11-29T08:05:31.000Z</time>
      </trkpt>
      <trkpt lat="43.31636" lon="5.67201">
        <ele>762</ele>
        <time>2019-11-29T08:05:32.000Z</time>
      </trkpt>
      <trkpt lat="43.31637" lon="5.67202">
        <ele>762</ele>
        <time>2019-11-29T08:05:33.000Z</time>
      </trkpt>
      <trkpt lat="43.31637" lon="5.67204">
        <ele>763</ele>
        <time>2019-11-29T08:05:34.000Z</time>
      </trkpt>
      <trkpt lat="43.31637" lon="5.67205">
        <ele>763</ele>
        <time>2019-11-29T08:05:35.000Z</time>
      </trkpt>
      <trkpt lat="43.31638" lon="5.67207">
        <ele>763</ele>
        <time>2019-11-29T08:05:36.000Z</time>
      </trkpt>
      <trkpt lat="43.31638" lon="5.67208">
        <ele>763</ele>
        <time>2019-11-29T08:05:37.000Z</time>
      </trkpt>
      <trkpt lat="43.31639" lon="5.6721">
        <ele>763</ele>
        <time>2019-11-29T08:05:38.000Z</time>
      </trkpt>
      <trkpt lat="43.31639" lon="5.67211">
        <ele>763</ele>
        <time>2019-11-29T08:05:39.000Z</time>
      </trkpt>
      <trkpt lat="43.31639" lon="5.67213">
        <ele>764</ele>
        <time>2019-11-29T08:05:40.000Z</time>
      </trkpt>
      <trkpt lat="43.31639" lon="5.67214">
        <ele>764</ele>
        <time>2019-11-29T08:05:41.000Z</time>
      </trkpt>
      <trkpt lat="43.31639" lon="5.67216">
        <ele>764</ele>
        <time>2019-11-29T08:05:42.000Z</time>
      </trkpt>
      <trkpt lat="43.31639" lon="5.67217">
        <ele>764</ele>
        <time>2019-11-29T08:05:43.000Z</time>
      </trkpt>
      <trkpt lat="43.31639" lon="5.67218">
        <ele>764</ele>
        <time>2019-11-29T08:05:44.000Z</time>
      </trkpt>
      <trkpt lat="43.31639" lon="5.6722">
        <ele>764</ele>
        <time>2019-11-29T08:05:45.000Z</time>
      </trkpt>
      <trkpt lat="43.31639" lon="5.67222">
        <ele>764</ele>
        <time>2019-11-29T08:05:46.000Z</time>
      </trkpt>
      <trkpt lat="43.3164" lon="5.67223">
        <ele>764</ele>
        <time>2019-11-29T08:05:47.000Z</time>
      </trkpt>
      <trkpt lat="43.3164" lon="5.67225">
        <ele>765</ele>
        <time>2019-11-29T08:05:48.000Z</time>
      </trkpt>
      <trkpt lat="43.3164" lon="5.67226">
        <ele>765</ele>
        <time>2019-11-29T08:05:49.000Z</time>
      </trkpt>
      <trkpt lat="43.3164" lon="5.67228">
        <ele>765</ele>
        <time>2019-11-29T08:05:50.000Z</time>
      </trkpt>
      <trkpt lat="43.31641" lon="5.6723">
        <ele>765</ele>
        <time>2019-11-29T08:05:51.000Z</time>
      </trkpt>
      <trkpt lat="43.31641" lon="5.67231">
        <ele>765</ele>
        <time>2019-11-29T08:05:52.000Z</time>
      </trkpt>
      <trkpt lat="43.31641" lon="5.67233">
        <ele>765</ele>
        <time>2019-11-29T08:05:53.000Z</time>
      </trkpt>
      <trkpt lat="43.31641" lon="5.67235">
        <ele>766</ele>
        <time>2019-11-29T08:05:54.000Z</time>
      </trkpt>
      <trkpt lat="43.31642" lon="5.67236">
        <ele>766</ele>
        <time>2019-11-29T08:05:55.000Z</time>
      </trkpt>
      <trkpt lat="43.31642" lon="5.67237">
        <ele>766</ele>
        <time>2019-11-29T08:05:56.000Z</time>
      </trkpt>
      <trkpt lat="43.31643" lon="5.67239">
        <ele>766</ele>
        <time>2019-11-29T08:05:57.000Z</time>
      </trkpt>
      <trkpt lat="43.31643" lon="5.6724">
        <ele>766</ele>
        <time>2019-11-29T08:05:58.000Z</time>
      </trkpt>
      <trkpt lat="43.31644" lon="5.67242">
        <ele>766</ele>
        <time>2019-11-29T08:05:59.000Z</time>
      </trkpt>
      <trkpt lat="43.31645" lon="5.67243">
        <ele>766</ele>
        <time>2019-11-29T08:06:00.000Z</time>
      </trkpt>
      <trkpt lat="43.31645" lon="5.67244">
        <ele>766</ele>
        <time>2019-11-29T08:06:01.000Z</time>
      </trkpt>
      <trkpt lat="43.31645" lon="5.67245">
        <ele>766</ele>
        <time>2019-11-29T08:06:02.000Z</time>
      </trkpt>
      <trkpt lat="43.31646" lon="5.67247">
        <ele>766</ele>
        <time>2019-11-29T08:06:03.000Z</time>
      </trkpt>
      <trkpt lat="43.31647" lon="5.67249">
        <ele>766</ele>
        <time>2019-11-29T08:06:04.000Z</time>
      </trkpt>
      <trkpt lat="43.31647" lon="5.6725">
        <ele>766</ele>
        <time>2019-11-29T08:06:05.000Z</time>
      </trkpt>
      <trkpt lat="43.31648" lon="5.67251">
        <ele>766</ele>
        <time>2019-11-29T08:06:06.000Z</time>
      </trkpt>
      <trkpt lat="43.31649" lon="5.67252">
        <ele>766</ele>
        <time>2019-11-29T08:06:07.000Z</time>
      </trkpt>
      <trkpt lat="43.3165" lon="5.67252">
        <ele>767</ele>
        <time>2019-11-29T08:06:08.000Z</time>
      </trkpt>
      <trkpt lat="43.31651" lon="5.67254">
        <ele>767</ele>
        <time>2019-11-29T08:06:09.000Z</time>
      </trkpt>
      <trkpt lat="43.31652" lon="5.67255">
        <ele>767</ele>
        <time>2019-11-29T08:06:10.000Z</time>
      </trkpt>
      <trkpt lat="43.31653" lon="5.67256">
        <ele>767</ele>
        <time>2019-11-29T08:06:11.000Z</time>
      </trkpt>
      <trkpt lat="43.31653" lon="5.67257">
        <ele>767</ele>
        <time>2019-11-29T08:06:12.000Z</time>
      </trkpt>
      <trkpt lat="43.31654" lon="5.67258">
        <ele>767</ele>
        <time>2019-11-29T08:06:13.000Z</time>
      </trkpt>
      <trkpt lat="43.31655" lon="5.6726">
        <ele>767</ele>
        <time>2019-11-29T08:06:14.000Z</time>
      </trkpt>
      <trkpt lat="43.31656" lon="5.67261">
        <ele>767</ele>
        <time>2019-11-29T08:06:15.000Z</time>
      </trkpt>
      <trkpt lat="43.31657" lon="5.67262">
        <ele>767</ele>
        <time>2019-11-29T08:06:16.000Z</time>
      </trkpt>
      <trkpt lat="43.31658" lon="5.67264">
        <ele>767</ele>
        <time>2019-11-29T08:06:17.000Z</time>
      </trkpt>
      <trkpt lat="43.31658" lon="5.67265">
        <ele>767</ele>
        <time>2019-11-29T08:06:18.000Z</time>
      </trkpt>
      <trkpt lat="43.31659" lon="5.67265">
        <ele>767</ele>
        <time>2019-11-29T08:06:19.000Z</time>
      </trkpt>
      <trkpt lat="43.3166" lon="5.67266">
        <ele>767</ele>
        <time>2019-11-29T08:06:20.000Z</time>
      </trkpt>
      <trkpt lat="43.3166" lon="5.67267">
        <ele>767</ele>
        <time>2019-11-29T08:06:21.000Z</time>
      </trkpt>
      <trkpt lat="43.31661" lon="5.67268">
        <ele>767</ele>
        <time>2019-11-29T08:06:22.000Z</time>
      </trkpt>
      <trkpt lat="43.31662" lon="5.67268">
        <ele>767</ele>
        <time>2019-11-29T08:06:23.000Z</time>
      </trkpt>
      <trkpt lat="43.31662" lon="5.67269">
        <ele>767</ele>
        <time>2019-11-29T08:06:24.000Z</time>
      </trkpt>
      <trkpt lat="43.31663" lon="5.6727">
        <ele>767</ele>
        <time>2019-11-29T08:06:25.000Z</time>
      </trkpt>
      <trkpt lat="43.31663" lon="5.6727">
        <ele>767</ele>
        <time>2019-11-29T08:06:26.000Z</time>
      </trkpt>
      <trkpt lat="43.31663" lon="5.67271">
        <ele>767</ele>
        <time>2019-11-29T08:06:27.000Z</time>
      </trkpt>
      <trkpt lat="43.31664" lon="5.67271">
        <ele>766</ele>
        <time>2019-11-29T08:06:28.000Z</time>
      </trkpt>
      <trkpt lat="43.31665" lon="5.67273">
        <ele>766</ele>
        <time>2019-11-29T08:06:29.000Z</time>
      </trkpt>
      <trkpt lat="43.31665" lon="5.67274">
        <ele>766</ele>
        <time>2019-11-29T08:06:30.000Z</time>
      </trkpt>
      <trkpt lat="43.31665" lon="5.67275">
        <ele>766</ele>
        <time>2019-11-29T08:06:31.000Z</time>
      </trkpt>
      <trkpt lat="43.31666" lon="5.67276">
        <ele>767</ele>
        <time>2019-11-29T08:06:32.000Z</time>
      </trkpt>
      <trkpt lat="43.31667" lon="5.67277">
        <ele>767</ele>
        <time>2019-11-29T08:06:33.000Z</time>
      </trkpt>
      <trkpt lat="43.31668" lon="5.67278">
        <ele>767</ele>
        <time>2019-11-29T08:06:34.000Z</time>
      </trkpt>
      <trkpt lat="43.31668" lon="5.67279">
        <ele>767</ele>
        <time>2019-11-29T08:06:35.000Z</time>
      </trkpt>
      <trkpt lat="43.31669" lon="5.67281">
        <ele>767</ele>
        <time>2019-11-29T08:06:36.000Z</time>
      </trkpt>
      <trkpt lat="43.31669" lon="5.67282">
        <ele>767</ele>
        <time>2019-11-29T08:06:37.000Z</time>
      </trkpt>
      <trkpt lat="43.3167" lon="5.67283">
        <ele>767</ele>
        <time>2019-11-29T08:06:38.000Z</time>
      </trkpt>
      <trkpt lat="43.31671" lon="5.67284">
        <ele>767</ele>
        <time>2019-11-29T08:06:39.000Z</time>
      </trkpt>
      <trkpt lat="43.31672" lon="5.67286">
        <ele>767</ele>
        <time>2019-11-29T08:06:40.000Z</time>
      </trkpt>
      <trkpt lat="43.31672" lon="5.67287">
        <ele>766</ele>
        <time>2019-11-29T08:06:41.000Z</time>
      </trkpt>
      <trkpt lat="43.31673" lon="5.67289">
        <ele>766</ele>
        <time>2019-11-29T08:06:42.000Z</time>
      </trkpt>
      <trkpt lat="43.31673" lon="5.6729">
        <ele>766</ele>
        <time>2019-11-29T08:06:43.000Z</time>
      </trkpt>
      <trkpt lat="43.31673" lon="5.6729">
        <ele>766</ele>
        <time>2019-11-29T08:06:44.000Z</time>
      </trkpt>
      <trkpt lat="43.31674" lon="5.67291">
        <ele>766</ele>
        <time>2019-11-29T08:06:45.000Z</time>
      </trkpt>
      <trkpt lat="43.31675" lon="5.67292">
        <ele>766</ele>
        <time>2019-11-29T08:06:46.000Z</time>
      </trkpt>
      <trkpt lat="43.31676" lon="5.67293">
        <ele>766</ele>
        <time>2019-11-29T08:06:47.000Z</time>
      </trkpt>
      <trkpt lat="43.31677" lon="5.67294">
        <ele>766</ele>
        <time>2019-11-29T08:06:48.000Z</time>
      </trkpt>
      <trkpt lat="43.31677" lon="5.67295">
        <ele>767</ele>
        <time>2019-11-29T08:06:49.000Z</time>
      </trkpt>
      <trkpt lat="43.31678" lon="5.67297">
        <ele>767</ele>
        <time>2019-11-29T08:06:50.000Z</time>
      </trkpt>
      <trkpt lat="43.31678" lon="5.67298">
        <ele>767</ele>
        <time>2019-11-29T08:06:51.000Z</time>
      </trkpt>
      <trkpt lat="43.31678" lon="5.673">
        <ele>767</ele>
        <time>2019-11-29T08:06:52.000Z</time>
      </trkpt>
      <trkpt lat="43.31679" lon="5.67301">
        <ele>767</ele>
        <time>2019-11-29T08:06:53.000Z</time>
      </trkpt>
      <trkpt lat="43.31679" lon="5.67302">
        <ele>767</ele>
        <time>2019-11-29T08:06:54.000Z</time>
      </trkpt>
      <trkpt lat="43.3168" lon="5.67303">
        <ele>767</ele>
        <time>2019-11-29T08:06:55.000Z</time>
      </trkpt>
      <trkpt lat="43.3168" lon="5.67305">
        <ele>767</ele>
        <time>2019-11-29T08:06:56.000Z</time>
      </trkpt>
      <trkpt lat="43.3168" lon="5.67307">
        <ele>767</ele>
        <time>2019-11-29T08:06:57.000Z</time>
      </trkpt>
      <trkpt lat="43.3168" lon="5.67308">
        <ele>767</ele>
        <time>2019-11-29T08:06:58.000Z</time>
      </trkpt>
      <trkpt lat="43.3168" lon="5.6731">
        <ele>767</ele>
        <time>2019-11-29T08:06:59.000Z</time>
      </trkpt>
      <trkpt lat="43.3168" lon="5.67311">
        <ele>767</ele>
        <time>2019-11-29T08:07:00.000Z</time>
      </trkpt>
      <trkpt lat="43.3168" lon="5.67313">
        <ele>767</ele>
        <time>2019-11-29T08:07:01.000Z</time>
      </trkpt>
      <trkpt lat="43.3168" lon="5.67315">
        <ele>767</ele>
        <time>2019-11-29T08:07:02.000Z</time>
      </trkpt>
      <trkpt lat="43.3168" lon="5.67316">
        <ele>767</ele>
        <time>2019-11-29T08:07:03.000Z</time>
      </trkpt>
      <trkpt lat="43.31681" lon="5.67318">
        <ele>767</ele>
        <time>2019-11-29T08:07:04.000Z</time>
      </trkpt>
      <trkpt lat="43.31681" lon="5.6732">
        <ele>767</ele>
        <time>2019-11-29T08:07:05.000Z</time>
      </trkpt>
      <trkpt lat="43.31682" lon="5.67321">
        <ele>767</ele>
        <time>2019-11-29T08:07:06.000Z</time>
      </trkpt>
      <trkpt lat="43.31682" lon="5.67323">
        <ele>767</ele>
        <time>2019-11-29T08:07:07.000Z</time>
      </trkpt>
      <trkpt lat="43.31682" lon="5.67324">
        <ele>767</ele>
        <time>2019-11-29T08:07:08.000Z</time>
      </trkpt>
      <trkpt lat="43.31681" lon="5.67326">
        <ele>767</ele>
        <time>2019-11-29T08:07:09.000Z</time>
      </trkpt>
      <trkpt lat="43.31682" lon="5.67327">
        <ele>767</ele>
        <time>2019-11-29T08:07:10.000Z</time>
      </trkpt>
      <trkpt lat="43.31681" lon="5.67329">
        <ele>767</ele>
        <time>2019-11-29T08:07:11.000Z</time>
      </trkpt>
      <trkpt lat="43.31681" lon="5.67331">
        <ele>768</ele>
        <time>2019-11-29T08:07:12.000Z</time>
      </trkpt>
      <trkpt lat="43.31681" lon="5.67332">
        <ele>768</ele>
        <time>2019-11-29T08:07:13.000Z</time>
      </trkpt>
      <trkpt lat="43.3168" lon="5.67334">
        <ele>768</ele>
        <time>2019-11-29T08:07:14.000Z</time>
      </trkpt>
      <trkpt lat="43.3168" lon="5.67335">
        <ele>768</ele>
        <time>2019-11-29T08:07:15.000Z</time>
      </trkpt>
      <trkpt lat="43.3168" lon="5.67337">
        <ele>768</ele>
        <time>2019-11-29T08:07:16.000Z</time>
      </trkpt>
      <trkpt lat="43.31679" lon="5.67338">
        <ele>768</ele>
        <time>2019-11-29T08:07:17.000Z</time>
      </trkpt>
      <trkpt lat="43.31679" lon="5.6734">
        <ele>768</ele>
        <time>2019-11-29T08:07:18.000Z</time>
      </trkpt>
      <trkpt lat="43.31679" lon="5.67341">
        <ele>768</ele>
        <time>2019-11-29T08:07:19.000Z</time>
      </trkpt>
      <trkpt lat="43.31678" lon="5.67342">
        <ele>768</ele>
        <time>2019-11-29T08:07:20.000Z</time>
      </trkpt>
      <trkpt lat="43.31678" lon="5.67343">
        <ele>768</ele>
        <time>2019-11-29T08:07:21.000Z</time>
      </trkpt>
      <trkpt lat="43.31678" lon="5.67345">
        <ele>769</ele>
        <time>2019-11-29T08:07:22.000Z</time>
      </trkpt>
      <trkpt lat="43.31677" lon="5.67346">
        <ele>769</ele>
        <time>2019-11-29T08:07:23.000Z</time>
      </trkpt>
      <trkpt lat="43.31677" lon="5.67347">
        <ele>769</ele>
        <time>2019-11-29T08:07:24.000Z</time>
      </trkpt>
      <trkpt lat="43.31676" lon="5.67349">
        <ele>769</ele>
        <time>2019-11-29T08:07:25.000Z</time>
      </trkpt>
      <trkpt lat="43.31676" lon="5.6735">
        <ele>769</ele>
        <time>2019-11-29T08:07:26.000Z</time>
      </trkpt>
      <trkpt lat="43.31675" lon="5.67351">
        <ele>769</ele>
        <time>2019-11-29T08:07:27.000Z</time>
      </trkpt>
      <trkpt lat="43.31675" lon="5.67353">
        <ele>769</ele>
        <time>2019-11-29T08:07:28.000Z</time>
      </trkpt>
      <trkpt lat="43.31675" lon="5.67354">
        <ele>769</ele>
        <time>2019-11-29T08:07:29.000Z</time>
      </trkpt>
      <trkpt lat="43.31675" lon="5.67355">
        <ele>769</ele>
        <time>2019-11-29T08:07:30.000Z</time>
      </trkpt>
      <trkpt lat="43.31674" lon="5.67356">
        <ele>770</ele>
        <time>2019-11-29T08:07:31.000Z</time>
      </trkpt>
      <trkpt lat="43.31674" lon="5.67357">
        <ele>770</ele>
        <time>2019-11-29T08:07:32.000Z</time>
      </trkpt>
      <trkpt lat="43.31674" lon="5.67358">
        <ele>770</ele>
        <time>2019-11-29T08:07:33.000Z</time>
      </trkpt>
      <trkpt lat="43.31673" lon="5.67359">
        <ele>770</ele>
        <time>2019-11-29T08:07:34.000Z</time>
      </trkpt>
      <trkpt lat="43.31673" lon="5.67361">
        <ele>770</ele>
        <time>2019-11-29T08:07:35.000Z</time>
      </trkpt>
      <trkpt lat="43.31672" lon="5.67362">
        <ele>770</ele>
        <time>2019-11-29T08:07:36.000Z</time>
      </trkpt>
      <trkpt lat="43.31672" lon="5.67363">
        <ele>771</ele>
        <time>2019-11-29T08:07:37.000Z</time>
      </trkpt>
      <trkpt lat="43.31672" lon="5.67364">
        <ele>771</ele>
        <time>2019-11-29T08:07:38.000Z</time>
      </trkpt>
      <trkpt lat="43.31672" lon="5.67365">
        <ele>771</ele>
        <time>2019-11-29T08:07:39.000Z</time>
      </trkpt>
      <trkpt lat="43.31671" lon="5.67367">
        <ele>771</ele>
        <time>2019-11-29T08:07:40.000Z</time>
      </trkpt>
      <trkpt lat="43.31671" lon="5.67368">
        <ele>771</ele>
        <time>2019-11-29T08:07:41.000Z</time>
      </trkpt>
      <trkpt lat="43.3167" lon="5.67369">
        <ele>771</ele>
        <time>2019-11-29T08:07:42.000Z</time>
      </trkpt>
      <trkpt lat="43.31669" lon="5.6737">
        <ele>771</ele>
        <time>2019-11-29T08:07:43.000Z</time>
      </trkpt>
      <trkpt lat="43.31669" lon="5.67371">
        <ele>771</ele>
        <time>2019-11-29T08:07:44.000Z</time>
      </trkpt>
      <trkpt lat="43.31669" lon="5.67373">
        <ele>771</ele>
        <time>2019-11-29T08:07:45.000Z</time>
      </trkpt>
      <trkpt lat="43.31668" lon="5.67373">
        <ele>771</ele>
        <time>2019-11-29T08:07:46.000Z</time>
      </trkpt>
      <trkpt lat="43.31668" lon="5.67374">
        <ele>771</ele>
        <time>2019-11-29T08:07:47.000Z</time>
      </trkpt>
      <trkpt lat="43.31667" lon="5.67375">
        <ele>772</ele>
        <time>2019-11-29T08:07:48.000Z</time>
      </trkpt>
      <trkpt lat="43.31667" lon="5.67377">
        <ele>772</ele>
        <time>2019-11-29T08:07:49.000Z</time>
      </trkpt>
      <trkpt lat="43.31667" lon="5.67378">
        <ele>772</ele>
        <time>2019-11-29T08:07:50.000Z</time>
      </trkpt>
      <trkpt lat="43.31666" lon="5.6738">
        <ele>772</ele>
        <time>2019-11-29T08:07:51.000Z</time>
      </trkpt>
      <trkpt lat="43.31666" lon="5.67381">
        <ele>772</ele>
        <time>2019-11-29T08:07:52.000Z</time>
      </trkpt>
      <trkpt lat="43.31665" lon="5.67382">
        <ele>772</ele>
        <time>2019-11-29T08:07:53.000Z</time>
      </trkpt>
      <trkpt lat="43.31665" lon="5.67383">
        <ele>772</ele>
        <time>2019-11-29T08:07:54.000Z</time>
      </trkpt>
      <trkpt lat="43.31665" lon="5.67384">
        <ele>772</ele>
        <time>2019-11-29T08:07:55.000Z</time>
      </trkpt>
      <trkpt lat="43.31664" lon="5.67386">
        <ele>772</ele>
        <time>2019-11-29T08:07:56.000Z</time>
      </trkpt>
      <trkpt lat="43.31664" lon="5.67387">
        <ele>772</ele>
        <time>2019-11-29T08:07:57.000Z</time>
      </trkpt>
      <trkpt lat="43.31664" lon="5.67388">
        <ele>772</ele>
        <time>2019-11-29T08:07:58.000Z</time>
      </trkpt>
      <trkpt lat="43.31664" lon="5.67389">
        <ele>772</ele>
        <time>2019-11-29T08:07:59.000Z</time>
      </trkpt>
      <trkpt lat="43.31664" lon="5.67391">
        <ele>772</ele>
        <time>2019-11-29T08:08:00.000Z</time>
      </trkpt>
      <trkpt lat="43.31664" lon="5.67392">
        <ele>772</ele>
        <time>2019-11-29T08:08:01.000Z</time>
      </trkpt>
      <trkpt lat="43.31664" lon="5.67393">
        <ele>773</ele>
        <time>2019-11-29T08:08:02.000Z</time>
      </trkpt>
      <trkpt lat="43.31664" lon="5.67394">
        <ele>773</ele>
        <time>2019-11-29T08:08:03.000Z</time>
      </trkpt>
      <trkpt lat="43.31664" lon="5.67396">
        <ele>773</ele>
        <time>2019-11-29T08:08:04.000Z</time>
      </trkpt>
      <trkpt lat="43.31665" lon="5.67397">
        <ele>773</ele>
        <time>2019-11-29T08:08:05.000Z</time>
      </trkpt>
      <trkpt lat="43.31664" lon="5.67398">
        <ele>773</ele>
        <time>2019-11-29T08:08:06.000Z</time>
      </trkpt>
      <trkpt lat="43.31665" lon="5.67399">
        <ele>773</ele>
        <time>2019-11-29T08:08:07.000Z</time>
      </trkpt>
      <trkpt lat="43.31665" lon="5.674">
        <ele>773</ele>
        <time>2019-11-29T08:08:08.000Z</time>
      </trkpt>
      <trkpt lat="43.31666" lon="5.67402">
        <ele>773</ele>
        <time>2019-11-29T08:08:09.000Z</time>
      </trkpt>
      <trkpt lat="43.31666" lon="5.67403">
        <ele>773</ele>
        <time>2019-11-29T08:08:10.000Z</time>
      </trkpt>
      <trkpt lat="43.31666" lon="5.67404">
        <ele>773</ele>
        <time>2019-11-29T08:08:11.000Z</time>
      </trkpt>
      <trkpt lat="43.31667" lon="5.67406">
        <ele>774</ele>
        <time>2019-11-29T08:08:12.000Z</time>
      </trkpt>
      <trkpt lat="43.31667" lon="5.67407">
        <ele>774</ele>
        <time>2019-11-29T08:08:13.000Z</time>
      </trkpt>
      <trkpt lat="43.31667" lon="5.67408">
        <ele>774</ele>
        <time>2019-11-29T08:08:14.000Z</time>
      </trkpt>
      <trkpt lat="43.31668" lon="5.6741">
        <ele>774</ele>
        <time>2019-11-29T08:08:15.000Z</time>
      </trkpt>
      <trkpt lat="43.31668" lon="5.67411">
        <ele>774</ele>
        <time>2019-11-29T08:08:16.000Z</time>
      </trkpt>
      <trkpt lat="43.31668" lon="5.67412">
        <ele>774</ele>
        <time>2019-11-29T08:08:17.000Z</time>
      </trkpt>
      <trkpt lat="43.31668" lon="5.67414">
        <ele>774</ele>
        <time>2019-11-29T08:08:18.000Z</time>
      </trkpt>
      <trkpt lat="43.31669" lon="5.67415">
        <ele>774</ele>
        <time>2019-11-29T08:08:19.000Z</time>
      </trkpt>
      <trkpt lat="43.31669" lon="5.67416">
        <ele>774</ele>
        <time>2019-11-29T08:08:20.000Z</time>
      </trkpt>
      <trkpt lat="43.31669" lon="5.67418">
        <ele>774</ele>
        <time>2019-11-29T08:08:21.000Z</time>
      </trkpt>
      <trkpt lat="43.3167" lon="5.67419">
        <ele>775</ele>
        <time>2019-11-29T08:08:22.000Z</time>
      </trkpt>
      <trkpt lat="43.3167" lon="5.6742">
        <ele>775</ele>
        <time>2019-11-29T08:08:23.000Z</time>
      </trkpt>
      <trkpt lat="43.3167" lon="5.67421">
        <ele>775</ele>
        <time>2019-11-29T08:08:24.000Z</time>
      </trkpt>
      <trkpt lat="43.3167" lon="5.67422">
        <ele>775</ele>
        <time>2019-11-29T08:08:25.000Z</time>
      </trkpt>
      <trkpt lat="43.3167" lon="5.67423">
        <ele>775</ele>
        <time>2019-11-29T08:08:26.000Z</time>
      </trkpt>
      <trkpt lat="43.31671" lon="5.67424">
        <ele>775</ele>
        <time>2019-11-29T08:08:27.000Z</time>
      </trkpt>
      <trkpt lat="43.31671" lon="5.67426">
        <ele>775</ele>
        <time>2019-11-29T08:08:28.000Z</time>
      </trkpt>
      <trkpt lat="43.31671" lon="5.67427">
        <ele>775</ele>
        <time>2019-11-29T08:08:29.000Z</time>
      </trkpt>
      <trkpt lat="43.31671" lon="5.67429">
        <ele>775</ele>
        <time>2019-11-29T08:08:30.000Z</time>
      </trkpt>
      <trkpt lat="43.31671" lon="5.6743">
        <ele>775</ele>
        <time>2019-11-29T08:08:31.000Z</time>
      </trkpt>
      <trkpt lat="43.31671" lon="5.67432">
        <ele>775</ele>
        <time>2019-11-29T08:08:32.000Z</time>
      </trkpt>
      <trkpt lat="43.31671" lon="5.67433">
        <ele>775</ele>
        <time>2019-11-29T08:08:33.000Z</time>
      </trkpt>
      <trkpt lat="43.31671" lon="5.67435">
        <ele>775</ele>
        <time>2019-11-29T08:08:34.000Z</time>
      </trkpt>
      <trkpt lat="43.31671" lon="5.67437">
        <ele>775</ele>
        <time>2019-11-29T08:08:35.000Z</time>
      </trkpt>
      <trkpt lat="43.31671" lon="5.67438">
        <ele>775</ele>
        <time>2019-11-29T08:08:36.000Z</time>
      </trkpt>
      <trkpt lat="43.31671" lon="5.6744">
        <ele>774</ele>
        <time>2019-11-29T08:08:37.000Z</time>
      </trkpt>
      <trkpt lat="43.31671" lon="5.67441">
        <ele>774</ele>
        <time>2019-11-29T08:08:38.000Z</time>
      </trkpt>
      <trkpt lat="43.31671" lon="5.67442">
        <ele>774</ele>
        <time>2019-11-29T08:08:39.000Z</time>
      </trkpt>
      <trkpt lat="43.31671" lon="5.67444">
        <ele>774</ele>
        <time>2019-11-29T08:08:40.000Z</time>
      </trkpt>
      <trkpt lat="43.31671" lon="5.67445">
        <ele>775</ele>
        <time>2019-11-29T08:08:41.000Z</time>
      </trkpt>
      <trkpt lat="43.31672" lon="5.67447">
        <ele>775</ele>
        <time>2019-11-29T08:08:42.000Z</time>
      </trkpt>
      <trkpt lat="43.31672" lon="5.67448">
        <ele>775</ele>
        <time>2019-11-29T08:08:43.000Z</time>
      </trkpt>
      <trkpt lat="43.31672" lon="5.67449">
        <ele>775</ele>
        <time>2019-11-29T08:08:44.000Z</time>
      </trkpt>
      <trkpt lat="43.31673" lon="5.67451">
        <ele>775</ele>
        <time>2019-11-29T08:08:45.000Z</time>
      </trkpt>
      <trkpt lat="43.31673" lon="5.67452">
        <ele>775</ele>
        <time>2019-11-29T08:08:46.000Z</time>
      </trkpt>
      <trkpt lat="43.31674" lon="5.67453">
        <ele>775</ele>
        <time>2019-11-29T08:08:47.000Z</time>
      </trkpt>
      <trkpt lat="43.31674" lon="5.67455">
        <ele>775</ele>
        <time>2019-11-29T08:08:48.000Z</time>
      </trkpt>
      <trkpt lat="43.31675" lon="5.67456">
        <ele>775</ele>
        <time>2019-11-29T08:08:49.000Z</time>
      </trkpt>
      <trkpt lat="43.31676" lon="5.67457">
        <ele>775</ele>
        <time>2019-11-29T08:08:50.000Z</time>
      </trkpt>
      <trkpt lat="43.31677" lon="5.67458">
        <ele>774</ele>
        <time>2019-11-29T08:08:51.000Z</time>
      </trkpt>
      <trkpt lat="43.31678" lon="5.67459">
        <ele>774</ele>
        <time>2019-11-29T08:08:52.000Z</time>
      </trkpt>
      <trkpt lat="43.31678" lon="5.6746">
        <ele>774</ele>
        <time>2019-11-29T08:08:53.000Z</time>
      </trkpt>
      <trkpt lat="43.31679" lon="5.67462">
        <ele>775</ele>
        <time>2019-11-29T08:08:54.000Z</time>
      </trkpt>
      <trkpt lat="43.31679" lon="5.67463">
        <ele>775</ele>
        <time>2019-11-29T08:08:55.000Z</time>
      </trkpt>
      <trkpt lat="43.3168" lon="5.67465">
        <ele>775</ele>
        <time>2019-11-29T08:08:56.000Z</time>
      </trkpt>
      <trkpt lat="43.31681" lon="5.67466">
        <ele>775</ele>
        <time>2019-11-29T08:08:57.000Z</time>
      </trkpt>
      <trkpt lat="43.31682" lon="5.67467">
        <ele>775</ele>
        <time>2019-11-29T08:08:58.000Z</time>
      </trkpt>
      <trkpt lat="43.31683" lon="5.67468">
        <ele>775</ele>
        <time>2019-11-29T08:08:59.000Z</time>
      </trkpt>
      <trkpt lat="43.31683" lon="5.67469">
        <ele>775</ele>
        <time>2019-11-29T08:09:00.000Z</time>
      </trkpt>
      <trkpt lat="43.31684" lon="5.6747">
        <ele>775</ele>
        <time>2019-11-29T08:09:01.000Z</time>
      </trkpt>
      <trkpt lat="43.31685" lon="5.67472">
        <ele>775</ele>
        <time>2019-11-29T08:09:02.000Z</time>
      </trkpt>
      <trkpt lat="43.31685" lon="5.67473">
        <ele>774</ele>
        <time>2019-11-29T08:09:03.000Z</time>
      </trkpt>
      <trkpt lat="43.31686" lon="5.67475">
        <ele>774</ele>
        <time>2019-11-29T08:09:04.000Z</time>
      </trkpt>
      <trkpt lat="43.31687" lon="5.67476">
        <ele>774</ele>
        <time>2019-11-29T08:09:05.000Z</time>
      </trkpt>
      <trkpt lat="43.31687" lon="5.67477">
        <ele>774</ele>
        <time>2019-11-29T08:09:06.000Z</time>
      </trkpt>
      <trkpt lat="43.31688" lon="5.67479">
        <ele>774</ele>
        <time>2019-11-29T08:09:07.000Z</time>
      </trkpt>
      <trkpt lat="43.31688" lon="5.6748">
        <ele>774</ele>
        <time>2019-11-29T08:09:08.000Z</time>
      </trkpt>
      <trkpt lat="43.31689" lon="5.67481">
        <ele>774</ele>
        <time>2019-11-29T08:09:09.000Z</time>
      </trkpt>
      <trkpt lat="43.3169" lon="5.67483">
        <ele>774</ele>
        <time>2019-11-29T08:09:10.000Z</time>
      </trkpt>
      <trkpt lat="43.3169" lon="5.67484">
        <ele>774</ele>
        <time>2019-11-29T08:09:11.000Z</time>
      </trkpt>
      <trkpt lat="43.31691" lon="5.67485">
        <ele>774</ele>
        <time>2019-11-29T08:09:12.000Z</time>
      </trkpt>
      <trkpt lat="43.31692" lon="5.67487">
        <ele>774</ele>
        <time>2019-11-29T08:09:13.000Z</time>
      </trkpt>
      <trkpt lat="43.31693" lon="5.67488">
        <ele>774</ele>
        <time>2019-11-29T08:09:14.000Z</time>
      </trkpt>
      <trkpt lat="43.31693" lon="5.67489">
        <ele>774</ele>
        <time>2019-11-29T08:09:15.000Z</time>
      </trkpt>
      <trkpt lat="43.31694" lon="5.67491">
        <ele>774</ele>
        <time>2019-11-29T08:09:16.000Z</time>
      </trkpt>
      <trkpt lat="43.31695" lon="5.67492">
        <ele>774</ele>
        <time>2019-11-29T08:09:17.000Z</time>
      </trkpt>
      <trkpt lat="43.31696" lon="5.67494">
        <ele>775</ele>
        <time>2019-11-29T08:09:18.000Z</time>
      </trkpt>
      <trkpt lat="43.31696" lon="5.67495">
        <ele>775</ele>
        <time>2019-11-29T08:09:19.000Z</time>
      </trkpt>
      <trkpt lat="43.31697" lon="5.67496">
        <ele>775</ele>
        <time>2019-11-29T08:09:20.000Z</time>
      </trkpt>
      <trkpt lat="43.31698" lon="5.67497">
        <ele>775</ele>
        <time>2019-11-29T08:09:21.000Z</time>
      </trkpt>
      <trkpt lat="43.31698" lon="5.67499">
        <ele>775</ele>
        <time>2019-11-29T08:09:22.000Z</time>
      </trkpt>
      <trkpt lat="43.31699" lon="5.675">
        <ele>775</ele>
        <time>2019-11-29T08:09:23.000Z</time>
      </trkpt>
      <trkpt lat="43.317" lon="5.67501">
        <ele>775</ele>
        <time>2019-11-29T08:09:24.000Z</time>
      </trkpt>
      <trkpt lat="43.31701" lon="5.67503">
        <ele>775</ele>
        <time>2019-11-29T08:09:25.000Z</time>
      </trkpt>
      <trkpt lat="43.31701" lon="5.67505">
        <ele>775</ele>
        <time>2019-11-29T08:09:26.000Z</time>
      </trkpt>
      <trkpt lat="43.31702" lon="5.67506">
        <ele>775</ele>
        <time>2019-11-29T08:09:27.000Z</time>
      </trkpt>
      <trkpt lat="43.31703" lon="5.67507">
        <ele>775</ele>
        <time>2019-11-29T08:09:28.000Z</time>
      </trkpt>
      <trkpt lat="43.31703" lon="5.67507">
        <ele>775</ele>
        <time>2019-11-29T08:09:29.000Z</time>
      </trkpt>
      <trkpt lat="43.31704" lon="5.67508">
        <ele>775</ele>
        <time>2019-11-29T08:09:30.000Z</time>
      </trkpt>
      <trkpt lat="43.31704" lon="5.67509">
        <ele>775</ele>
        <time>2019-11-29T08:09:31.000Z</time>
      </trkpt>
      <trkpt lat="43.31704" lon="5.6751">
        <ele>775</ele>
        <time>2019-11-29T08:09:32.000Z</time>
      </trkpt>
      <trkpt lat="43.31705" lon="5.67511">
        <ele>775</ele>
        <time>2019-11-29T08:09:33.000Z</time>
      </trkpt>
      <trkpt lat="43.31705" lon="5.67512">
        <ele>775</ele>
        <time>2019-11-29T08:09:34.000Z</time>
      </trkpt>
      <trkpt lat="43.31706" lon="5.67513">
        <ele>775</ele>
        <time>2019-11-29T08:09:35.000Z</time>
      </trkpt>
      <trkpt lat="43.31706" lon="5.67514">
        <ele>775</ele>
        <time>2019-11-29T08:09:36.000Z</time>
      </trkpt>
      <trkpt lat="43.31706" lon="5.67515">
        <ele>775</ele>
        <time>2019-11-29T08:09:37.000Z</time>
      </trkpt>
      <trkpt lat="43.31707" lon="5.67516">
        <ele>774</ele>
        <time>2019-11-29T08:09:38.000Z</time>
      </trkpt>
      <trkpt lat="43.31707" lon="5.67517">
        <ele>774</ele>
        <time>2019-11-29T08:09:39.000Z</time>
      </trkpt>
      <trkpt lat="43.31708" lon="5.67518">
        <ele>775</ele>
        <time>2019-11-29T08:09:40.000Z</time>
      </trkpt>
      <trkpt lat="43.31709" lon="5.6752">
        <ele>775</ele>
        <time>2019-11-29T08:09:41.000Z</time>
      </trkpt>
      <trkpt lat="43.31709" lon="5.67521">
        <ele>775</ele>
        <time>2019-11-29T08:09:42.000Z</time>
      </trkpt>
      <trkpt lat="43.3171" lon="5.67523">
        <ele>775</ele>
        <time>2019-11-29T08:09:43.000Z</time>
      </trkpt>
      <trkpt lat="43.31711" lon="5.67524">
        <ele>775</ele>
        <time>2019-11-29T08:09:44.000Z</time>
      </trkpt>
      <trkpt lat="43.31712" lon="5.67526">
        <ele>775</ele>
        <time>2019-11-29T08:09:45.000Z</time>
      </trkpt>
      <trkpt lat="43.31713" lon="5.67527">
        <ele>775</ele>
        <time>2019-11-29T08:09:46.000Z</time>
      </trkpt>
      <trkpt lat="43.31714" lon="5.67528">
        <ele>775</ele>
        <time>2019-11-29T08:09:47.000Z</time>
      </trkpt>
      <trkpt lat="43.31714" lon="5.67528">
        <ele>775</ele>
        <time>2019-11-29T08:09:48.000Z</time>
      </trkpt>
      <trkpt lat="43.31715" lon="5.67529">
        <ele>775</ele>
        <time>2019-11-29T08:09:49.000Z</time>
      </trkpt>
      <trkpt lat="43.31715" lon="5.67531">
        <ele>775</ele>
        <time>2019-11-29T08:09:50.000Z</time>
      </trkpt>
      <trkpt lat="43.31716" lon="5.67532">
        <ele>775</ele>
        <time>2019-11-29T08:09:51.000Z</time>
      </trkpt>
      <trkpt lat="43.31716" lon="5.67533">
        <ele>775</ele>
        <time>2019-11-29T08:09:52.000Z</time>
      </trkpt>
      <trkpt lat="43.31717" lon="5.67534">
        <ele>775</ele>
        <time>2019-11-29T08:09:53.000Z</time>
      </trkpt>
      <trkpt lat="43.31719" lon="5.67534">
        <ele>775</ele>
        <time>2019-11-29T08:09:54.000Z</time>
      </trkpt>
      <trkpt lat="43.3172" lon="5.67535">
        <ele>775</ele>
        <time>2019-11-29T08:09:55.000Z</time>
      </trkpt>
      <trkpt lat="43.31721" lon="5.67535">
        <ele>775</ele>
        <time>2019-11-29T08:09:56.000Z</time>
      </trkpt>
      <trkpt lat="43.31722" lon="5.67536">
        <ele>775</ele>
        <time>2019-11-29T08:09:57.000Z</time>
      </trkpt>
      <trkpt lat="43.31723" lon="5.67538">
        <ele>775</ele>
        <time>2019-11-29T08:09:58.000Z</time>
      </trkpt>
      <trkpt lat="43.31724" lon="5.67538">
        <ele>774</ele>
        <time>2019-11-29T08:09:59.000Z</time>
      </trkpt>
      <trkpt lat="43.31725" lon="5.67539">
        <ele>774</ele>
        <time>2019-11-29T08:10:00.000Z</time>
      </trkpt>
      <trkpt lat="43.31726" lon="5.6754">
        <ele>774</ele>
        <time>2019-11-29T08:10:01.000Z</time>
      </trkpt>
      <trkpt lat="43.31727" lon="5.67541">
        <ele>774</ele>
        <time>2019-11-29T08:10:02.000Z</time>
      </trkpt>
      <trkpt lat="43.31727" lon="5.67542">
        <ele>774</ele>
        <time>2019-11-29T08:10:03.000Z</time>
      </trkpt>
      <trkpt lat="43.31728" lon="5.67543">
        <ele>774</ele>
        <time>2019-11-29T08:10:04.000Z</time>
      </trkpt>
      <trkpt lat="43.31728" lon="5.67544">
        <ele>774</ele>
        <time>2019-11-29T08:10:05.000Z</time>
      </trkpt>
      <trkpt lat="43.31729" lon="5.67545">
        <ele>774</ele>
        <time>2019-11-29T08:10:06.000Z</time>
      </trkpt>
      <trkpt lat="43.31729" lon="5.67546">
        <ele>774</ele>
        <time>2019-11-29T08:10:07.000Z</time>
      </trkpt>
      <trkpt lat="43.3173" lon="5.67547">
        <ele>774</ele>
        <time>2019-11-29T08:10:08.000Z</time>
      </trkpt>
      <trkpt lat="43.3173" lon="5.67548">
        <ele>774</ele>
        <time>2019-11-29T08:10:09.000Z</time>
      </trkpt>
      <trkpt lat="43.31731" lon="5.67549">
        <ele>774</ele>
        <time>2019-11-29T08:10:10.000Z</time>
      </trkpt>
      <trkpt lat="43.31731" lon="5.6755">
        <ele>774</ele>
        <time>2019-11-29T08:10:11.000Z</time>
      </trkpt>
      <trkpt lat="43.31732" lon="5.6755">
        <ele>773</ele>
        <time>2019-11-29T08:10:12.000Z</time>
      </trkpt>
      <trkpt lat="43.31732" lon="5.67551">
        <ele>773</ele>
        <time>2019-11-29T08:10:13.000Z</time>
      </trkpt>
      <trkpt lat="43.31733" lon="5.67552">
        <ele>773</ele>
        <time>2019-11-29T08:10:14.000Z</time>
      </trkpt>
      <trkpt lat="43.31734" lon="5.67553">
        <ele>773</ele>
        <time>2019-11-29T08:10:15.000Z</time>
      </trkpt>
      <trkpt lat="43.31734" lon="5.67554">
        <ele>773</ele>
        <time>2019-11-29T08:10:16.000Z</time>
      </trkpt>
      <trkpt lat="43.31734" lon="5.67556">
        <ele>773</ele>
        <time>2019-11-29T08:10:17.000Z</time>
      </trkpt>
      <trkpt lat="43.31734" lon="5.67557">
        <ele>773</ele>
        <time>2019-11-29T08:10:18.000Z</time>
      </trkpt>
      <trkpt lat="43.31734" lon="5.67559">
        <ele>773</ele>
        <time>2019-11-29T08:10:19.000Z</time>
      </trkpt>
      <trkpt lat="43.31734" lon="5.67561">
        <ele>773</ele>
        <time>2019-11-29T08:10:20.000Z</time>
      </trkpt>
      <trkpt lat="43.31735" lon="5.67563">
        <ele>773</ele>
        <time>2019-11-29T08:10:21.000Z</time>
      </trkpt>
      <trkpt lat="43.31735" lon="5.67564">
        <ele>773</ele>
        <time>2019-11-29T08:10:22.000Z</time>
      </trkpt>
      <trkpt lat="43.31735" lon="5.67565">
        <ele>773</ele>
        <time>2019-11-29T08:10:23.000Z</time>
      </trkpt>
      <trkpt lat="43.31735" lon="5.67567">
        <ele>773</ele>
        <time>2019-11-29T08:10:24.000Z</time>
      </trkpt>
      <trkpt lat="43.31735" lon="5.67568">
        <ele>773</ele>
        <time>2019-11-29T08:10:25.000Z</time>
      </trkpt>
      <trkpt lat="43.31735" lon="5.6757">
        <ele>773</ele>
        <time>2019-11-29T08:10:26.000Z</time>
      </trkpt>
      <trkpt lat="43.31734" lon="5.67571">
        <ele>773</ele>
        <time>2019-11-29T08:10:27.000Z</time>
      </trkpt>
      <trkpt lat="43.31734" lon="5.67573">
        <ele>773</ele>
        <time>2019-11-29T08:10:28.000Z</time>
      </trkpt>
      <trkpt lat="43.31733" lon="5.67574">
        <ele>772</ele>
        <time>2019-11-29T08:10:29.000Z</time>
      </trkpt>
      <trkpt lat="43.31733" lon="5.67576">
        <ele>772</ele>
        <time>2019-11-29T08:10:30.000Z</time>
      </trkpt>
      <trkpt lat="43.31732" lon="5.67577">
        <ele>772</ele>
        <time>2019-11-29T08:10:31.000Z</time>
      </trkpt>
      <trkpt lat="43.31732" lon="5.67579">
        <ele>772</ele>
        <time>2019-11-29T08:10:32.000Z</time>
      </trkpt>
      <trkpt lat="43.31732" lon="5.67581">
        <ele>773</ele>
        <time>2019-11-29T08:10:33.000Z</time>
      </trkpt>
      <trkpt lat="43.31732" lon="5.67583">
        <ele>773</ele>
        <time>2019-11-29T08:10:34.000Z</time>
      </trkpt>
      <trkpt lat="43.31732" lon="5.67584">
        <ele>773</ele>
        <time>2019-11-29T08:10:35.000Z</time>
      </trkpt>
      <trkpt lat="43.31732" lon="5.67586">
        <ele>773</ele>
        <time>2019-11-29T08:10:36.000Z</time>
      </trkpt>
      <trkpt lat="43.31732" lon="5.67587">
        <ele>773</ele>
        <time>2019-11-29T08:10:37.000Z</time>
      </trkpt>
      <trkpt lat="43.31731" lon="5.67588">
        <ele>773</ele>
        <time>2019-11-29T08:10:38.000Z</time>
      </trkpt>
      <trkpt lat="43.31732" lon="5.6759">
        <ele>773</ele>
        <time>2019-11-29T08:10:39.000Z</time>
      </trkpt>
      <trkpt lat="43.31731" lon="5.67591">
        <ele>773</ele>
        <time>2019-11-29T08:10:40.000Z</time>
      </trkpt>
      <trkpt lat="43.31731" lon="5.67592">
        <ele>773</ele>
        <time>2019-11-29T08:10:41.000Z</time>
      </trkpt>
      <trkpt lat="43.3173" lon="5.67594">
        <ele>773</ele>
        <time>2019-11-29T08:10:42.000Z</time>
      </trkpt>
      <trkpt lat="43.3173" lon="5.67595">
        <ele>773</ele>
        <time>2019-11-29T08:10:43.000Z</time>
      </trkpt>
      <trkpt lat="43.3173" lon="5.67597">
        <ele>773</ele>
        <time>2019-11-29T08:10:44.000Z</time>
      </trkpt>
      <trkpt lat="43.3173" lon="5.67598">
        <ele>773</ele>
        <time>2019-11-29T08:10:45.000Z</time>
      </trkpt>
      <trkpt lat="43.31731" lon="5.676">
        <ele>774</ele>
        <time>2019-11-29T08:10:46.000Z</time>
      </trkpt>
      <trkpt lat="43.31731" lon="5.67601">
        <ele>774</ele>
        <time>2019-11-29T08:10:47.000Z</time>
      </trkpt>
      <trkpt lat="43.31731" lon="5.67603">
        <ele>774</ele>
        <time>2019-11-29T08:10:48.000Z</time>
      </trkpt>
      <trkpt lat="43.31731" lon="5.67604">
        <ele>774</ele>
        <time>2019-11-29T08:10:49.000Z</time>
      </trkpt>
      <trkpt lat="43.31731" lon="5.67606">
        <ele>774</ele>
        <time>2019-11-29T08:10:50.000Z</time>
      </trkpt>
      <trkpt lat="43.31731" lon="5.67607">
        <ele>774</ele>
        <time>2019-11-29T08:10:51.000Z</time>
      </trkpt>
      <trkpt lat="43.31731" lon="5.67609">
        <ele>774</ele>
        <time>2019-11-29T08:10:52.000Z</time>
      </trkpt>
      <trkpt lat="43.31731" lon="5.67611">
        <ele>774</ele>
        <time>2019-11-29T08:10:53.000Z</time>
      </trkpt>
      <trkpt lat="43.31731" lon="5.67612">
        <ele>774</ele>
        <time>2019-11-29T08:10:54.000Z</time>
      </trkpt>
      <trkpt lat="43.31731" lon="5.67614">
        <ele>774</ele>
        <time>2019-11-29T08:10:55.000Z</time>
      </trkpt>
      <trkpt lat="43.3173" lon="5.67616">
        <ele>774</ele>
        <time>2019-11-29T08:10:56.000Z</time>
      </trkpt>
      <trkpt lat="43.3173" lon="5.67618">
        <ele>774</ele>
        <time>2019-11-29T08:10:57.000Z</time>
      </trkpt>
      <trkpt lat="43.3173" lon="5.67619">
        <ele>774</ele>
        <time>2019-11-29T08:10:58.000Z</time>
      </trkpt>
      <trkpt lat="43.3173" lon="5.67621">
        <ele>774</ele>
        <time>2019-11-29T08:10:59.000Z</time>
      </trkpt>
      <trkpt lat="43.3173" lon="5.67623">
        <ele>774</ele>
        <time>2019-11-29T08:11:00.000Z</time>
      </trkpt>
      <trkpt lat="43.3173" lon="5.67624">
        <ele>775</ele>
        <time>2019-11-29T08:11:01.000Z</time>
      </trkpt>
      <trkpt lat="43.3173" lon="5.67626">
        <ele>775</ele>
        <time>2019-11-29T08:11:02.000Z</time>
      </trkpt>
      <trkpt lat="43.3173" lon="5.67627">
        <ele>775</ele>
        <time>2019-11-29T08:11:03.000Z</time>
      </trkpt>
      <trkpt lat="43.3173" lon="5.67629">
        <ele>775</ele>
        <time>2019-11-29T08:11:04.000Z</time>
      </trkpt>
      <trkpt lat="43.31731" lon="5.6763">
        <ele>775</ele>
        <time>2019-11-29T08:11:05.000Z</time>
      </trkpt>
      <trkpt lat="43.31731" lon="5.67631">
        <ele>775</ele>
        <time>2019-11-29T08:11:06.000Z</time>
      </trkpt>
      <trkpt lat="43.31731" lon="5.67632">
        <ele>775</ele>
        <time>2019-11-29T08:11:07.000Z</time>
      </trkpt>
      <trkpt lat="43.31731" lon="5.67633">
        <ele>775</ele>
        <time>2019-11-29T08:11:08.000Z</time>
      </trkpt>
      <trkpt lat="43.31731" lon="5.67635">
        <ele>775</ele>
        <time>2019-11-29T08:11:09.000Z</time>
      </trkpt>
      <trkpt lat="43.31731" lon="5.67637">
        <ele>775</ele>
        <time>2019-11-29T08:11:10.000Z</time>
      </trkpt>
      <trkpt lat="43.31731" lon="5.67638">
        <ele>775</ele>
        <time>2019-11-29T08:11:11.000Z</time>
      </trkpt>
      <trkpt lat="43.31731" lon="5.67639">
        <ele>775</ele>
        <time>2019-11-29T08:11:12.000Z</time>
      </trkpt>
      <trkpt lat="43.31731" lon="5.67641">
        <ele>775</ele>
        <time>2019-11-29T08:11:13.000Z</time>
      </trkpt>
      <trkpt lat="43.31732" lon="5.67641">
        <ele>775</ele>
        <time>2019-11-29T08:11:14.000Z</time>
      </trkpt>
      <trkpt lat="43.31732" lon="5.67642">
        <ele>775</ele>
        <time>2019-11-29T08:11:15.000Z</time>
      </trkpt>
      <trkpt lat="43.31732" lon="5.67643">
        <ele>775</ele>
        <time>2019-11-29T08:11:16.000Z</time>
      </trkpt>
      <trkpt lat="43.31732" lon="5.67644">
        <ele>775</ele>
        <time>2019-11-29T08:11:17.000Z</time>
      </trkpt>
      <trkpt lat="43.31732" lon="5.67645">
        <ele>775</ele>
        <time>2019-11-29T08:11:18.000Z</time>
      </trkpt>
      <trkpt lat="43.31732" lon="5.67646">
        <ele>775</ele>
        <time>2019-11-29T08:11:19.000Z</time>
      </trkpt>
      <trkpt lat="43.31732" lon="5.67647">
        <ele>775</ele>
        <time>2019-11-29T08:11:20.000Z</time>
      </trkpt>
      <trkpt lat="43.31731" lon="5.67647">
        <ele>774</ele>
        <time>2019-11-29T08:11:21.000Z</time>
      </trkpt>
      <trkpt lat="43.31731" lon="5.67649">
        <ele>774</ele>
        <time>2019-11-29T08:11:22.000Z</time>
      </trkpt>
      <trkpt lat="43.31732" lon="5.6765">
        <ele>774</ele>
        <time>2019-11-29T08:11:23.000Z</time>
      </trkpt>
      <trkpt lat="43.31732" lon="5.67652">
        <ele>774</ele>
        <time>2019-11-29T08:11:24.000Z</time>
      </trkpt>
      <trkpt lat="43.31732" lon="5.67653">
        <ele>773</ele>
        <time>2019-11-29T08:11:25.000Z</time>
      </trkpt>
      <trkpt lat="43.31733" lon="5.67655">
        <ele>773</ele>
        <time>2019-11-29T08:11:26.000Z</time>
      </trkpt>
      <trkpt lat="43.31734" lon="5.67656">
        <ele>773</ele>
        <time>2019-11-29T08:11:27.000Z</time>
      </trkpt>
      <trkpt lat="43.31734" lon="5.67657">
        <ele>773</ele>
        <time>2019-11-29T08:11:28.000Z</time>
      </trkpt>
      <trkpt lat="43.31735" lon="5.67658">
        <ele>773</ele>
        <time>2019-11-29T08:11:29.000Z</time>
      </trkpt>
      <trkpt lat="43.31736" lon="5.67659">
        <ele>773</ele>
        <time>2019-11-29T08:11:30.000Z</time>
      </trkpt>
      <trkpt lat="43.31736" lon="5.67661">
        <ele>772</ele>
        <time>2019-11-29T08:11:31.000Z</time>
      </trkpt>
      <trkpt lat="43.31736" lon="5.67662">
        <ele>772</ele>
        <time>2019-11-29T08:11:32.000Z</time>
      </trkpt>
      <trkpt lat="43.31737" lon="5.67664">
        <ele>772</ele>
        <time>2019-11-29T08:11:33.000Z</time>
      </trkpt>
      <trkpt lat="43.31737" lon="5.67665">
        <ele>772</ele>
        <time>2019-11-29T08:11:34.000Z</time>
      </trkpt>
      <trkpt lat="43.31737" lon="5.67667">
        <ele>772</ele>
        <time>2019-11-29T08:11:35.000Z</time>
      </trkpt>
      <trkpt lat="43.31737" lon="5.67668">
        <ele>772</ele>
        <time>2019-11-29T08:11:36.000Z</time>
      </trkpt>
      <trkpt lat="43.31737" lon="5.6767">
        <ele>771</ele>
        <time>2019-11-29T08:11:37.000Z</time>
      </trkpt>
      <trkpt lat="43.31738" lon="5.67671">
        <ele>771</ele>
        <time>2019-11-29T08:11:38.000Z</time>
      </trkpt>
      <trkpt lat="43.31738" lon="5.67673">
        <ele>771</ele>
        <time>2019-11-29T08:11:39.000Z</time>
      </trkpt>
      <trkpt lat="43.31738" lon="5.67674">
        <ele>771</ele>
        <time>2019-11-29T08:11:40.000Z</time>
      </trkpt>
      <trkpt lat="43.31739" lon="5.67675">
        <ele>771</ele>
        <time>2019-11-29T08:11:41.000Z</time>
      </trkpt>
      <trkpt lat="43.3174" lon="5.67676">
        <ele>771</ele>
        <time>2019-11-29T08:11:42.000Z</time>
      </trkpt>
      <trkpt lat="43.31741" lon="5.67678">
        <ele>771</ele>
        <time>2019-11-29T08:11:43.000Z</time>
      </trkpt>
      <trkpt lat="43.31741" lon="5.67679">
        <ele>771</ele>
        <time>2019-11-29T08:11:44.000Z</time>
      </trkpt>
      <trkpt lat="43.31742" lon="5.6768">
        <ele>771</ele>
        <time>2019-11-29T08:11:45.000Z</time>
      </trkpt>
      <trkpt lat="43.31743" lon="5.67682">
        <ele>771</ele>
        <time>2019-11-29T08:11:46.000Z</time>
      </trkpt>
      <trkpt lat="43.31743" lon="5.67683">
        <ele>771</ele>
        <time>2019-11-29T08:11:47.000Z</time>
      </trkpt>
      <trkpt lat="43.31743" lon="5.67685">
        <ele>771</ele>
        <time>2019-11-29T08:11:48.000Z</time>
      </trkpt>
      <trkpt lat="43.31743" lon="5.67686">
        <ele>771</ele>
        <time>2019-11-29T08:11:49.000Z</time>
      </trkpt>
      <trkpt lat="43.31743" lon="5.67686">
        <ele>771</ele>
        <time>2019-11-29T08:11:50.000Z</time>
      </trkpt>
      <trkpt lat="43.31743" lon="5.67686">
        <ele>771</ele>
        <time>2019-11-29T08:11:51.000Z</time>
      </trkpt>
      <trkpt lat="43.31743" lon="5.67688">
        <ele>771</ele>
        <time>2019-11-29T08:11:52.000Z</time>
      </trkpt>
      <trkpt lat="43.31743" lon="5.67688">
        <ele>771</ele>
        <time>2019-11-29T08:11:53.000Z</time>
      </trkpt>
      <trkpt lat="43.31744" lon="5.67689">
        <ele>771</ele>
        <time>2019-11-29T08:11:54.000Z</time>
      </trkpt>
      <trkpt lat="43.31744" lon="5.67691">
        <ele>771</ele>
        <time>2019-11-29T08:11:55.000Z</time>
      </trkpt>
      <trkpt lat="43.31745" lon="5.67692">
        <ele>771</ele>
        <time>2019-11-29T08:11:56.000Z</time>
      </trkpt>
      <trkpt lat="43.31745" lon="5.67694">
        <ele>771</ele>
        <time>2019-11-29T08:11:57.000Z</time>
      </trkpt>
      <trkpt lat="43.31746" lon="5.67695">
        <ele>771</ele>
        <time>2019-11-29T08:11:58.000Z</time>
      </trkpt>
      <trkpt lat="43.31746" lon="5.67697">
        <ele>772</ele>
        <time>2019-11-29T08:11:59.000Z</time>
      </trkpt>
      <trkpt lat="43.31746" lon="5.67698">
        <ele>772</ele>
        <time>2019-11-29T08:12:00.000Z</time>
      </trkpt>
      <trkpt lat="43.31747" lon="5.67699">
        <ele>772</ele>
        <time>2019-11-29T08:12:01.000Z</time>
      </trkpt>
      <trkpt lat="43.31747" lon="5.67701">
        <ele>772</ele>
        <time>2019-11-29T08:12:02.000Z</time>
      </trkpt>
      <trkpt lat="43.31748" lon="5.67702">
        <ele>772</ele>
        <time>2019-11-29T08:12:03.000Z</time>
      </trkpt>
      <trkpt lat="43.31748" lon="5.67703">
        <ele>772</ele>
        <time>2019-11-29T08:12:04.000Z</time>
      </trkpt>
      <trkpt lat="43.31749" lon="5.67705">
        <ele>773</ele>
        <time>2019-11-29T08:12:05.000Z</time>
      </trkpt>
      <trkpt lat="43.31749" lon="5.67707">
        <ele>773</ele>
        <time>2019-11-29T08:12:06.000Z</time>
      </trkpt>
      <trkpt lat="43.31749" lon="5.67709">
        <ele>773</ele>
        <time>2019-11-29T08:12:07.000Z</time>
      </trkpt>
      <trkpt lat="43.31749" lon="5.6771">
        <ele>773</ele>
        <time>2019-11-29T08:12:08.000Z</time>
      </trkpt>
      <trkpt lat="43.31749" lon="5.67712">
        <ele>773</ele>
        <time>2019-11-29T08:12:09.000Z</time>
      </trkpt>
      <trkpt lat="43.31749" lon="5.67713">
        <ele>773</ele>
        <time>2019-11-29T08:12:10.000Z</time>
      </trkpt>
      <trkpt lat="43.31749" lon="5.67715">
        <ele>773</ele>
        <time>2019-11-29T08:12:11.000Z</time>
      </trkpt>
      <trkpt lat="43.31749" lon="5.67716">
        <ele>773</ele>
        <time>2019-11-29T08:12:12.000Z</time>
      </trkpt>
      <trkpt lat="43.31749" lon="5.67718">
        <ele>773</ele>
        <time>2019-11-29T08:12:13.000Z</time>
      </trkpt>
      <trkpt lat="43.31748" lon="5.67719">
        <ele>773</ele>
        <time>2019-11-29T08:12:14.000Z</time>
      </trkpt>
      <trkpt lat="43.31748" lon="5.6772">
        <ele>773</ele>
        <time>2019-11-29T08:12:15.000Z</time>
      </trkpt>
      <trkpt lat="43.31748" lon="5.67721">
        <ele>773</ele>
        <time>2019-11-29T08:12:16.000Z</time>
      </trkpt>
      <trkpt lat="43.31749" lon="5.67723">
        <ele>773</ele>
        <time>2019-11-29T08:12:17.000Z</time>
      </trkpt>
      <trkpt lat="43.31748" lon="5.67724">
        <ele>773</ele>
        <time>2019-11-29T08:12:18.000Z</time>
      </trkpt>
      <trkpt lat="43.31748" lon="5.67726">
        <ele>774</ele>
        <time>2019-11-29T08:12:19.000Z</time>
      </trkpt>
      <trkpt lat="43.31748" lon="5.67728">
        <ele>774</ele>
        <time>2019-11-29T08:12:20.000Z</time>
      </trkpt>
      <trkpt lat="43.31748" lon="5.67729">
        <ele>774</ele>
        <time>2019-11-29T08:12:21.000Z</time>
      </trkpt>
      <trkpt lat="43.31747" lon="5.67731">
        <ele>774</ele>
        <time>2019-11-29T08:12:22.000Z</time>
      </trkpt>
      <trkpt lat="43.31747" lon="5.67732">
        <ele>774</ele>
        <time>2019-11-29T08:12:23.000Z</time>
      </trkpt>
      <trkpt lat="43.31747" lon="5.67734">
        <ele>775</ele>
        <time>2019-11-29T08:12:24.000Z</time>
      </trkpt>
      <trkpt lat="43.31747" lon="5.67735">
        <ele>775</ele>
        <time>2019-11-29T08:12:25.000Z</time>
      </trkpt>
      <trkpt lat="43.31747" lon="5.67736">
        <ele>775</ele>
        <time>2019-11-29T08:12:26.000Z</time>
      </trkpt>
      <trkpt lat="43.31747" lon="5.67737">
        <ele>775</ele>
        <time>2019-11-29T08:12:27.000Z</time>
      </trkpt>
      <trkpt lat="43.31747" lon="5.67738">
        <ele>775</ele>
        <time>2019-11-29T08:12:28.000Z</time>
      </trkpt>
      <trkpt lat="43.31746" lon="5.67739">
        <ele>776</ele>
        <time>2019-11-29T08:12:29.000Z</time>
      </trkpt>
      <trkpt lat="43.31747" lon="5.6774">
        <ele>776</ele>
        <time>2019-11-29T08:12:30.000Z</time>
      </trkpt>
      <trkpt lat="43.31747" lon="5.67741">
        <ele>776</ele>
        <time>2019-11-29T08:12:31.000Z</time>
      </trkpt>
      <trkpt lat="43.31746" lon="5.67743">
        <ele>776</ele>
        <time>2019-11-29T08:12:32.000Z</time>
      </trkpt>
      <trkpt lat="43.31746" lon="5.67744">
        <ele>776</ele>
        <time>2019-11-29T08:12:33.000Z</time>
      </trkpt>
      <trkpt lat="43.31746" lon="5.67746">
        <ele>776</ele>
        <time>2019-11-29T08:12:34.000Z</time>
      </trkpt>
      <trkpt lat="43.31746" lon="5.67747">
        <ele>776</ele>
        <time>2019-11-29T08:12:35.000Z</time>
      </trkpt>
      <trkpt lat="43.31746" lon="5.67748">
        <ele>776</ele>
        <time>2019-11-29T08:12:36.000Z</time>
      </trkpt>
      <trkpt lat="43.31746" lon="5.6775">
        <ele>776</ele>
        <time>2019-11-29T08:12:37.000Z</time>
      </trkpt>
      <trkpt lat="43.31747" lon="5.67751">
        <ele>776</ele>
        <time>2019-11-29T08:12:38.000Z</time>
      </trkpt>
      <trkpt lat="43.31747" lon="5.67752">
        <ele>777</ele>
        <time>2019-11-29T08:12:39.000Z</time>
      </trkpt>
      <trkpt lat="43.31747" lon="5.67754">
        <ele>777</ele>
        <time>2019-11-29T08:12:40.000Z</time>
      </trkpt>
      <trkpt lat="43.31747" lon="5.67756">
        <ele>777</ele>
        <time>2019-11-29T08:12:41.000Z</time>
      </trkpt>
      <trkpt lat="43.31747" lon="5.67757">
        <ele>777</ele>
        <time>2019-11-29T08:12:42.000Z</time>
      </trkpt>
      <trkpt lat="43.31747" lon="5.67759">
        <ele>777</ele>
        <time>2019-11-29T08:12:43.000Z</time>
      </trkpt>
      <trkpt lat="43.31748" lon="5.6776">
        <ele>777</ele>
        <time>2019-11-29T08:12:44.000Z</time>
      </trkpt>
      <trkpt lat="43.31748" lon="5.67761">
        <ele>777</ele>
        <time>2019-11-29T08:12:45.000Z</time>
      </trkpt>
      <trkpt lat="43.31748" lon="5.67762">
        <ele>777</ele>
        <time>2019-11-29T08:12:46.000Z</time>
      </trkpt>
      <trkpt lat="43.31749" lon="5.67763">
        <ele>777</ele>
        <time>2019-11-29T08:12:47.000Z</time>
      </trkpt>
      <trkpt lat="43.31749" lon="5.67765">
        <ele>777</ele>
        <time>2019-11-29T08:12:48.000Z</time>
      </trkpt>
      <trkpt lat="43.3175" lon="5.67766">
        <ele>777</ele>
        <time>2019-11-29T08:12:49.000Z</time>
      </trkpt>
      <trkpt lat="43.3175" lon="5.67767">
        <ele>778</ele>
        <time>2019-11-29T08:12:50.000Z</time>
      </trkpt>
      <trkpt lat="43.31751" lon="5.67768">
        <ele>778</ele>
        <time>2019-11-29T08:12:51.000Z</time>
      </trkpt>
      <trkpt lat="43.31751" lon="5.67769">
        <ele>778</ele>
        <time>2019-11-29T08:12:52.000Z</time>
      </trkpt>
      <trkpt lat="43.31752" lon="5.6777">
        <ele>778</ele>
        <time>2019-11-29T08:12:53.000Z</time>
      </trkpt>
      <trkpt lat="43.31752" lon="5.67771">
        <ele>778</ele>
        <time>2019-11-29T08:12:54.000Z</time>
      </trkpt>
      <trkpt lat="43.31753" lon="5.67772">
        <ele>778</ele>
        <time>2019-11-29T08:12:55.000Z</time>
      </trkpt>
      <trkpt lat="43.31753" lon="5.67773">
        <ele>778</ele>
        <time>2019-11-29T08:12:56.000Z</time>
      </trkpt>
      <trkpt lat="43.31753" lon="5.67773">
        <ele>778</ele>
        <time>2019-11-29T08:12:57.000Z</time>
      </trkpt>
      <trkpt lat="43.31754" lon="5.67774">
        <ele>779</ele>
        <time>2019-11-29T08:12:58.000Z</time>
      </trkpt>
      <trkpt lat="43.31754" lon="5.67775">
        <ele>779</ele>
        <time>2019-11-29T08:12:59.000Z</time>
      </trkpt>
      <trkpt lat="43.31754" lon="5.67776">
        <ele>779</ele>
        <time>2019-11-29T08:13:00.000Z</time>
      </trkpt>
      <trkpt lat="43.31755" lon="5.67776">
        <ele>779</ele>
        <time>2019-11-29T08:13:01.000Z</time>
      </trkpt>
      <trkpt lat="43.31755" lon="5.67777">
        <ele>779</ele>
        <time>2019-11-29T08:13:02.000Z</time>
      </trkpt>
      <trkpt lat="43.31755" lon="5.67778">
        <ele>779</ele>
        <time>2019-11-29T08:13:03.000Z</time>
      </trkpt>
      <trkpt lat="43.31756" lon="5.67778">
        <ele>779</ele>
        <time>2019-11-29T08:13:04.000Z</time>
      </trkpt>
      <trkpt lat="43.31757" lon="5.67779">
        <ele>779</ele>
        <time>2019-11-29T08:13:05.000Z</time>
      </trkpt>
      <trkpt lat="43.31757" lon="5.6778">
        <ele>780</ele>
        <time>2019-11-29T08:13:06.000Z</time>
      </trkpt>
      <trkpt lat="43.31758" lon="5.6778">
        <ele>780</ele>
        <time>2019-11-29T08:13:07.000Z</time>
      </trkpt>
      <trkpt lat="43.31759" lon="5.67781">
        <ele>780</ele>
        <time>2019-11-29T08:13:08.000Z</time>
      </trkpt>
      <trkpt lat="43.31759" lon="5.67782">
        <ele>780</ele>
        <time>2019-11-29T08:13:09.000Z</time>
      </trkpt>
      <trkpt lat="43.3176" lon="5.67783">
        <ele>780</ele>
        <time>2019-11-29T08:13:10.000Z</time>
      </trkpt>
      <trkpt lat="43.3176" lon="5.67784">
        <ele>780</ele>
        <time>2019-11-29T08:13:11.000Z</time>
      </trkpt>
      <trkpt lat="43.3176" lon="5.67785">
        <ele>781</ele>
        <time>2019-11-29T08:13:12.000Z</time>
      </trkpt>
      <trkpt lat="43.3176" lon="5.67786">
        <ele>781</ele>
        <time>2019-11-29T08:13:13.000Z</time>
      </trkpt>
      <trkpt lat="43.3176" lon="5.67788">
        <ele>781</ele>
        <time>2019-11-29T08:13:14.000Z</time>
      </trkpt>
      <trkpt lat="43.3176" lon="5.67789">
        <ele>781</ele>
        <time>2019-11-29T08:13:15.000Z</time>
      </trkpt>
      <trkpt lat="43.3176" lon="5.67789">
        <ele>781</ele>
        <time>2019-11-29T08:13:16.000Z</time>
      </trkpt>
      <trkpt lat="43.31761" lon="5.6779">
        <ele>782</ele>
        <time>2019-11-29T08:13:17.000Z</time>
      </trkpt>
      <trkpt lat="43.31761" lon="5.6779">
        <ele>782</ele>
        <time>2019-11-29T08:13:18.000Z</time>
      </trkpt>
      <trkpt lat="43.31762" lon="5.67791">
        <ele>782</ele>
        <time>2019-11-29T08:13:19.000Z</time>
      </trkpt>
      <trkpt lat="43.31762" lon="5.67791">
        <ele>782</ele>
        <time>2019-11-29T08:13:20.000Z</time>
      </trkpt>
      <trkpt lat="43.31762" lon="5.67791">
        <ele>782</ele>
        <time>2019-11-29T08:13:21.000Z</time>
      </trkpt>
      <trkpt lat="43.31763" lon="5.67792">
        <ele>782</ele>
        <time>2019-11-29T08:13:22.000Z</time>
      </trkpt>
      <trkpt lat="43.31762" lon="5.67794">
        <ele>782</ele>
        <time>2019-11-29T08:13:23.000Z</time>
      </trkpt>
      <trkpt lat="43.31762" lon="5.67795">
        <ele>782</ele>
        <time>2019-11-29T08:13:24.000Z</time>
      </trkpt>
      <trkpt lat="43.31763" lon="5.67795">
        <ele>783</ele>
        <time>2019-11-29T08:13:25.000Z</time>
      </trkpt>
      <trkpt lat="43.31763" lon="5.67796">
        <ele>783</ele>
        <time>2019-11-29T08:13:26.000Z</time>
      </trkpt>
      <trkpt lat="43.31764" lon="5.67797">
        <ele>783</ele>
        <time>2019-11-29T08:13:27.000Z</time>
      </trkpt>
      <trkpt lat="43.31764" lon="5.67798">
        <ele>783</ele>
        <time>2019-11-29T08:13:28.000Z</time>
      </trkpt>
      <trkpt lat="43.31764" lon="5.67799">
        <ele>783</ele>
        <time>2019-11-29T08:13:29.000Z</time>
      </trkpt>
      <trkpt lat="43.31764" lon="5.678">
        <ele>784</ele>
        <time>2019-11-29T08:13:30.000Z</time>
      </trkpt>
      <trkpt lat="43.31764" lon="5.678">
        <ele>784</ele>
        <time>2019-11-29T08:13:31.000Z</time>
      </trkpt>
      <trkpt lat="43.31764" lon="5.678">
        <ele>784</ele>
        <time>2019-11-29T08:13:32.000Z</time>
      </trkpt>
      <trkpt lat="43.31764" lon="5.678">
        <ele>784</ele>
        <time>2019-11-29T08:13:33.000Z</time>
      </trkpt>
      <trkpt lat="43.31764" lon="5.678">
        <ele>784</ele>
        <time>2019-11-29T08:13:34.000Z</time>
      </trkpt>
      <trkpt lat="43.31764" lon="5.678">
        <ele>784</ele>
        <time>2019-11-29T08:13:35.000Z</time>
      </trkpt>
      <trkpt lat="43.31764" lon="5.678">
        <ele>784</ele>
        <time>2019-11-29T08:13:36.000Z</time>
      </trkpt>
      <trkpt lat="43.31764" lon="5.678">
        <ele>784</ele>
        <time>2019-11-29T08:13:37.000Z</time>
      </trkpt>
      <trkpt lat="43.31763" lon="5.678">
        <ele>784</ele>
        <time>2019-11-29T08:13:38.000Z</time>
      </trkpt>
      <trkpt lat="43.31763" lon="5.678">
        <ele>784</ele>
        <time>2019-11-29T08:13:39.000Z</time>
      </trkpt>
      <trkpt lat="43.31763" lon="5.678">
        <ele>784</ele>
        <time>2019-11-29T08:13:40.000Z</time>
      </trkpt>
      <trkpt lat="43.31763" lon="5.678">
        <ele>784</ele>
        <time>2019-11-29T08:13:41.000Z</time>
      </trkpt>
      <trkpt lat="43.31763" lon="5.678">
        <ele>784</ele>
        <time>2019-11-29T08:13:42.000Z</time>
      </trkpt>
      <trkpt lat="43.31763" lon="5.678">
        <ele>784</ele>
        <time>2019-11-29T08:13:43.000Z</time>
      </trkpt>
      <trkpt lat="43.31763" lon="5.678">
        <ele>784</ele>
        <time>2019-11-29T08:13:44.000Z</time>
      </trkpt>
      <trkpt lat="43.31763" lon="5.67801">
        <ele>784</ele>
        <time>2019-11-29T08:13:45.000Z</time>
      </trkpt>
      <trkpt lat="43.31763" lon="5.67801">
        <ele>784</ele>
        <time>2019-11-29T08:13:46.000Z</time>
      </trkpt>
      <trkpt lat="43.31763" lon="5.67801">
        <ele>784</ele>
        <time>2019-11-29T08:13:47.000Z</time>
      </trkpt>
      <trkpt lat="43.31763" lon="5.67801">
        <ele>784</ele>
        <time>2019-11-29T08:13:48.000Z</time>
      </trkpt>
      <trkpt lat="43.31763" lon="5.67801">
        <ele>784</ele>
        <time>2019-11-29T08:13:49.000Z</time>
      </trkpt>
      <trkpt lat="43.31763" lon="5.67801">
        <ele>784</ele>
        <time>2019-11-29T08:13:50.000Z</time>
      </trkpt>
      <trkpt lat="43.31763" lon="5.67801">
        <ele>785</ele>
        <time>2019-11-29T08:13:51.000Z</time>
      </trkpt>
      <trkpt lat="43.31763" lon="5.67801">
        <ele>785</ele>
        <time>2019-11-29T08:13:52.000Z</time>
      </trkpt>
      <trkpt lat="43.31763" lon="5.67801">
        <ele>785</ele>
        <time>2019-11-29T08:13:53.000Z</time>
      </trkpt>
      <trkpt lat="43.31763" lon="5.67801">
        <ele>785</ele>
        <time>2019-11-29T08:13:54.000Z</time>
      </trkpt>
      <trkpt lat="43.31763" lon="5.67801">
        <ele>785</ele>
        <time>2019-11-29T08:13:55.000Z</time>
      </trkpt>
      <trkpt lat="43.31763" lon="5.67801">
        <ele>785</ele>
        <time>2019-11-29T08:13:56.000Z</time>
      </trkpt>
      <trkpt lat="43.31763" lon="5.67801">
        <ele>785</ele>
        <time>2019-11-29T08:13:57.000Z</time>
      </trkpt>
      <trkpt lat="43.31763" lon="5.67801">
        <ele>785</ele>
        <time>2019-11-29T08:13:58.000Z</time>
      </trkpt>
      <trkpt lat="43.31763" lon="5.67801">
        <ele>785</ele>
        <time>2019-11-29T08:13:59.000Z</time>
      </trkpt>
      <trkpt lat="43.31763" lon="5.67801">
        <ele>785</ele>
        <time>2019-11-29T08:14:00.000Z</time>
      </trkpt>
      <trkpt lat="43.31763" lon="5.67801">
        <ele>785</ele>
        <time>2019-11-29T08:14:01.000Z</time>
      </trkpt>
      <trkpt lat="43.31763" lon="5.67801">
        <ele>785</ele>
        <time>2019-11-29T08:14:02.000Z</time>
      </trkpt>
      <trkpt lat="43.31763" lon="5.67801">
        <ele>785</ele>
        <time>2019-11-29T08:14:03.000Z</time>
      </trkpt>
      <trkpt lat="43.31763" lon="5.67801">
        <ele>785</ele>
        <time>2019-11-29T08:14:04.000Z</time>
      </trkpt>
      <trkpt lat="43.31763" lon="5.67801">
        <ele>785</ele>
        <time>2019-11-29T08:14:05.000Z</time>
      </trkpt>
      <trkpt lat="43.31763" lon="5.67801">
        <ele>785</ele>
        <time>2019-11-29T08:14:06.000Z</time>
      </trkpt>
      <trkpt lat="43.31763" lon="5.67801">
        <ele>785</ele>
        <time>2019-11-29T08:14:07.000Z</time>
      </trkpt>
      <trkpt lat="43.31763" lon="5.67801">
        <ele>785</ele>
        <time>2019-11-29T08:14:08.000Z</time>
      </trkpt>
      <trkpt lat="43.31763" lon="5.67801">
        <ele>785</ele>
        <time>2019-11-29T08:14:09.000Z</time>
      </trkpt>
      <trkpt lat="43.31763" lon="5.67801">
        <ele>785</ele>
        <time>2019-11-29T08:14:10.000Z</time>
      </trkpt>
      <trkpt lat="43.31763" lon="5.67801">
        <ele>785</ele>
        <time>2019-11-29T08:14:11.000Z</time>
      </trkpt>
      <trkpt lat="43.31763" lon="5.67801">
        <ele>785</ele>
        <time>2019-11-29T08:14:12.000Z</time>
      </trkpt>
      <trkpt lat="43.31763" lon="5.67801">
        <ele>785</ele>
        <time>2019-11-29T08:14:13.000Z</time>
      </trkpt>
      <trkpt lat="43.31763" lon="5.67801">
        <ele>785</ele>
        <time>2019-11-29T08:14:14.000Z</time>
      </trkpt>
      <trkpt lat="43.31763" lon="5.67801">
        <ele>785</ele>
        <time>2019-11-29T08:14:15.000Z</time>
      </trkpt>
      <trkpt lat="43.31763" lon="5.67801">
        <ele>785</ele>
        <time>2019-11-29T08:14:16.000Z</time>
      </trkpt>
      <trkpt lat="43.31763" lon="5.67801">
        <ele>785</ele>
        <time>2019-11-29T08:14:17.000Z</time>
      </trkpt>
      <trkpt lat="43.31763" lon="5.67801">
        <ele>785</ele>
        <time>2019-11-29T08:14:18.000Z</time>
      </trkpt>
      <trkpt lat="43.31763" lon="5.67801">
        <ele>785</ele>
        <time>2019-11-29T08:14:19.000Z</time>
      </trkpt>
      <trkpt lat="43.31763" lon="5.67801">
        <ele>785</ele>
        <time>2019-11-29T08:14:20.000Z</time>
      </trkpt>
      <trkpt lat="43.31763" lon="5.67801">
        <ele>785</ele>
        <time>2019-11-29T08:14:21.000Z</time>
      </trkpt>
      <trkpt lat="43.31763" lon="5.67801">
        <ele>785</ele>
        <time>2019-11-29T08:14:22.000Z</time>
      </trkpt>
      <trkpt lat="43.31763" lon="5.67801">
        <ele>785</ele>
        <time>2019-11-29T08:14:23.000Z</time>
      </trkpt>
      <trkpt lat="43.31763" lon="5.67801">
        <ele>785</ele>
        <time>2019-11-29T08:14:24.000Z</time>
      </trkpt>
      <trkpt lat="43.31763" lon="5.67801">
        <ele>785</ele>
        <time>2019-11-29T08:14:25.000Z</time>
      </trkpt>
      <trkpt lat="43.31763" lon="5.67801">
        <ele>785</ele>
        <time>2019-11-29T08:14:26.000Z</time>
      </trkpt>
      <trkpt lat="43.31763" lon="5.67801">
        <ele>785</ele>
        <time>2019-11-29T08:14:27.000Z</time>
      </trkpt>
      <trkpt lat="43.31763" lon="5.67801">
        <ele>785</ele>
        <time>2019-11-29T08:14:28.000Z</time>
      </trkpt>
      <trkpt lat="43.31763" lon="5.67801">
        <ele>785</ele>
        <time>2019-11-29T08:14:29.000Z</time>
      </trkpt>
      <trkpt lat="43.31763" lon="5.67801">
        <ele>785</ele>
        <time>2019-11-29T08:14:30.000Z</time>
      </trkpt>
      <trkpt lat="43.31763" lon="5.67801">
        <ele>785</ele>
        <time>2019-11-29T08:14:31.000Z</time>
      </trkpt>
      <trkpt lat="43.31763" lon="5.67801">
        <ele>785</ele>
        <time>2019-11-29T08:14:32.000Z</time>
      </trkpt>
      <trkpt lat="43.31763" lon="5.67802">
        <ele>785</ele>
        <time>2019-11-29T08:14:33.000Z</time>
      </trkpt>
      <trkpt lat="43.31763" lon="5.67802">
        <ele>785</ele>
        <time>2019-11-29T08:14:34.000Z</time>
      </trkpt>
      <trkpt lat="43.31763" lon="5.67802">
        <ele>785</ele>
        <time>2019-11-29T08:14:35.000Z</time>
      </trkpt>
      <trkpt lat="43.31763" lon="5.67803">
        <ele>785</ele>
        <time>2019-11-29T08:14:36.000Z</time>
      </trkpt>
      <trkpt lat="43.31763" lon="5.67804">
        <ele>785</ele>
        <time>2019-11-29T08:14:37.000Z</time>
      </trkpt>
      <trkpt lat="43.31762" lon="5.67805">
        <ele>785</ele>
        <time>2019-11-29T08:14:38.000Z</time>
      </trkpt>
      <trkpt lat="43.31762" lon="5.67805">
        <ele>785</ele>
        <time>2019-11-29T08:14:39.000Z</time>
      </trkpt>
      <trkpt lat="43.31761" lon="5.67805">
        <ele>785</ele>
        <time>2019-11-29T08:14:40.000Z</time>
      </trkpt>
      <trkpt lat="43.3176" lon="5.67805">
        <ele>785</ele>
        <time>2019-11-29T08:14:41.000Z</time>
      </trkpt>
      <trkpt lat="43.3176" lon="5.67804">
        <ele>785</ele>
        <time>2019-11-29T08:14:42.000Z</time>
      </trkpt>
      <trkpt lat="43.31759" lon="5.67803">
        <ele>785</ele>
        <time>2019-11-29T08:14:43.000Z</time>
      </trkpt>
      <trkpt lat="43.31759" lon="5.67803">
        <ele>785</ele>
        <time>2019-11-29T08:14:44.000Z</time>
      </trkpt>
      <trkpt lat="43.31758" lon="5.67803">
        <ele>785</ele>
        <time>2019-11-29T08:14:45.000Z</time>
      </trkpt>
      <trkpt lat="43.31757" lon="5.67803">
        <ele>785</ele>
        <time>2019-11-29T08:14:46.000Z</time>
      </trkpt>
      <trkpt lat="43.31757" lon="5.67803">
        <ele>785</ele>
        <time>2019-11-29T08:14:47.000Z</time>
      </trkpt>
      <trkpt lat="43.31756" lon="5.67803">
        <ele>785</ele>
        <time>2019-11-29T08:14:48.000Z</time>
      </trkpt>
      <trkpt lat="43.31756" lon="5.67802">
        <ele>785</ele>
        <time>2019-11-29T08:14:49.000Z</time>
      </trkpt>
      <trkpt lat="43.31755" lon="5.67803">
        <ele>784</ele>
        <time>2019-11-29T08:14:50.000Z</time>
      </trkpt>
      <trkpt lat="43.31754" lon="5.67803">
        <ele>784</ele>
        <time>2019-11-29T08:14:51.000Z</time>
      </trkpt>
      <trkpt lat="43.31754" lon="5.67803">
        <ele>784</ele>
        <time>2019-11-29T08:14:52.000Z</time>
      </trkpt>
      <trkpt lat="43.31753" lon="5.67804">
        <ele>784</ele>
        <time>2019-11-29T08:14:53.000Z</time>
      </trkpt>
      <trkpt lat="43.31752" lon="5.67804">
        <ele>784</ele>
        <time>2019-11-29T08:14:54.000Z</time>
      </trkpt>
      <trkpt lat="43.31752" lon="5.67803">
        <ele>783</ele>
        <time>2019-11-29T08:14:55.000Z</time>
      </trkpt>
      <trkpt lat="43.31751" lon="5.67803">
        <ele>783</ele>
        <time>2019-11-29T08:14:56.000Z</time>
      </trkpt>
      <trkpt lat="43.3175" lon="5.67802">
        <ele>783</ele>
        <time>2019-11-29T08:14:57.000Z</time>
      </trkpt>
      <trkpt lat="43.3175" lon="5.67801">
        <ele>783</ele>
        <time>2019-11-29T08:14:58.000Z</time>
      </trkpt>
      <trkpt lat="43.31749" lon="5.67801">
        <ele>782</ele>
        <time>2019-11-29T08:14:59.000Z</time>
      </trkpt>
      <trkpt lat="43.31749" lon="5.678">
        <ele>782</ele>
        <time>2019-11-29T08:15:00.000Z</time>
      </trkpt>
      <trkpt lat="43.31748" lon="5.678">
        <ele>782</ele>
        <time>2019-11-29T08:15:01.000Z</time>
      </trkpt>
      <trkpt lat="43.31747" lon="5.67799">
        <ele>781</ele>
        <time>2019-11-29T08:15:02.000Z</time>
      </trkpt>
      <trkpt lat="43.31746" lon="5.67799">
        <ele>781</ele>
        <time>2019-11-29T08:15:03.000Z</time>
      </trkpt>
      <trkpt lat="43.31745" lon="5.67799">
        <ele>781</ele>
        <time>2019-11-29T08:15:04.000Z</time>
      </trkpt>
      <trkpt lat="43.31745" lon="5.67799">
        <ele>781</ele>
        <time>2019-11-29T08:15:05.000Z</time>
      </trkpt>
      <trkpt lat="43.31744" lon="5.67799">
        <ele>780</ele>
        <time>2019-11-29T08:15:06.000Z</time>
      </trkpt>
      <trkpt lat="43.31743" lon="5.67799">
        <ele>780</ele>
        <time>2019-11-29T08:15:07.000Z</time>
      </trkpt>
      <trkpt lat="43.31742" lon="5.67798">
        <ele>780</ele>
        <time>2019-11-29T08:15:08.000Z</time>
      </trkpt>
      <trkpt lat="43.31741" lon="5.67798">
        <ele>779</ele>
        <time>2019-11-29T08:15:09.000Z</time>
      </trkpt>
      <trkpt lat="43.3174" lon="5.67798">
        <ele>779</ele>
        <time>2019-11-29T08:15:10.000Z</time>
      </trkpt>
      <trkpt lat="43.31739" lon="5.67797">
        <ele>779</ele>
        <time>2019-11-29T08:15:11.000Z</time>
      </trkpt>
      <trkpt lat="43.31739" lon="5.67797">
        <ele>778</ele>
        <time>2019-11-29T08:15:12.000Z</time>
      </trkpt>
      <trkpt lat="43.31738" lon="5.67796">
        <ele>778</ele>
        <time>2019-11-29T08:15:13.000Z</time>
      </trkpt>
      <trkpt lat="43.31738" lon="5.67796">
        <ele>778</ele>
        <time>2019-11-29T08:15:14.000Z</time>
      </trkpt>
      <trkpt lat="43.31737" lon="5.67796">
        <ele>778</ele>
        <time>2019-11-29T08:15:15.000Z</time>
      </trkpt>
      <trkpt lat="43.31736" lon="5.67796">
        <ele>777</ele>
        <time>2019-11-29T08:15:16.000Z</time>
      </trkpt>
      <trkpt lat="43.31735" lon="5.67795">
        <ele>777</ele>
        <time>2019-11-29T08:15:17.000Z</time>
      </trkpt>
      <trkpt lat="43.31735" lon="5.67795">
        <ele>777</ele>
        <time>2019-11-29T08:15:18.000Z</time>
      </trkpt>
      <trkpt lat="43.31734" lon="5.67794">
        <ele>777</ele>
        <time>2019-11-29T08:15:19.000Z</time>
      </trkpt>
      <trkpt lat="43.31733" lon="5.67793">
        <ele>776</ele>
        <time>2019-11-29T08:15:20.000Z</time>
      </trkpt>
      <trkpt lat="43.31733" lon="5.67792">
        <ele>776</ele>
        <time>2019-11-29T08:15:21.000Z</time>
      </trkpt>
      <trkpt lat="43.31732" lon="5.67791">
        <ele>776</ele>
        <time>2019-11-29T08:15:22.000Z</time>
      </trkpt>
      <trkpt lat="43.31732" lon="5.6779">
        <ele>776</ele>
        <time>2019-11-29T08:15:23.000Z</time>
      </trkpt>
      <trkpt lat="43.31731" lon="5.67789">
        <ele>776</ele>
        <time>2019-11-29T08:15:24.000Z</time>
      </trkpt>
      <trkpt lat="43.3173" lon="5.67788">
        <ele>776</ele>
        <time>2019-11-29T08:15:25.000Z</time>
      </trkpt>
      <trkpt lat="43.3173" lon="5.67788">
        <ele>776</ele>
        <time>2019-11-29T08:15:26.000Z</time>
      </trkpt>
      <trkpt lat="43.31729" lon="5.67787">
        <ele>775</ele>
        <time>2019-11-29T08:15:27.000Z</time>
      </trkpt>
      <trkpt lat="43.31729" lon="5.67786">
        <ele>775</ele>
        <time>2019-11-29T08:15:28.000Z</time>
      </trkpt>
      <trkpt lat="43.31728" lon="5.67786">
        <ele>775</ele>
        <time>2019-11-29T08:15:29.000Z</time>
      </trkpt>
      <trkpt lat="43.31728" lon="5.67785">
        <ele>775</ele>
        <time>2019-11-29T08:15:30.000Z</time>
      </trkpt>
      <trkpt lat="43.31727" lon="5.67785">
        <ele>774</ele>
        <time>2019-11-29T08:15:31.000Z</time>
      </trkpt>
      <trkpt lat="43.31726" lon="5.67785">
        <ele>774</ele>
        <time>2019-11-29T08:15:32.000Z</time>
      </trkpt>
      <trkpt lat="43.31725" lon="5.67784">
        <ele>774</ele>
        <time>2019-11-29T08:15:33.000Z</time>
      </trkpt>
      <trkpt lat="43.31725" lon="5.67784">
        <ele>773</ele>
        <time>2019-11-29T08:15:34.000Z</time>
      </trkpt>
      <trkpt lat="43.31725" lon="5.67783">
        <ele>773</ele>
        <time>2019-11-29T08:15:35.000Z</time>
      </trkpt>
      <trkpt lat="43.31724" lon="5.67783">
        <ele>773</ele>
        <time>2019-11-29T08:15:36.000Z</time>
      </trkpt>
      <trkpt lat="43.31723" lon="5.67783">
        <ele>773</ele>
        <time>2019-11-29T08:15:37.000Z</time>
      </trkpt>
      <trkpt lat="43.31722" lon="5.67783">
        <ele>772</ele>
        <time>2019-11-29T08:15:38.000Z</time>
      </trkpt>
      <trkpt lat="43.31722" lon="5.67783">
        <ele>772</ele>
        <time>2019-11-29T08:15:39.000Z</time>
      </trkpt>
      <trkpt lat="43.31721" lon="5.67783">
        <ele>772</ele>
        <time>2019-11-29T08:15:40.000Z</time>
      </trkpt>
      <trkpt lat="43.3172" lon="5.67782">
        <ele>772</ele>
        <time>2019-11-29T08:15:41.000Z</time>
      </trkpt>
      <trkpt lat="43.31719" lon="5.67781">
        <ele>771</ele>
        <time>2019-11-29T08:15:42.000Z</time>
      </trkpt>
      <trkpt lat="43.31718" lon="5.67781">
        <ele>771</ele>
        <time>2019-11-29T08:15:43.000Z</time>
      </trkpt>
      <trkpt lat="43.31717" lon="5.67781">
        <ele>771</ele>
        <time>2019-11-29T08:15:44.000Z</time>
      </trkpt>
      <trkpt lat="43.31717" lon="5.6778">
        <ele>771</ele>
        <time>2019-11-29T08:15:45.000Z</time>
      </trkpt>
      <trkpt lat="43.31716" lon="5.6778">
        <ele>770</ele>
        <time>2019-11-29T08:15:46.000Z</time>
      </trkpt>
      <trkpt lat="43.31715" lon="5.6778">
        <ele>770</ele>
        <time>2019-11-29T08:15:47.000Z</time>
      </trkpt>
      <trkpt lat="43.31714" lon="5.6778">
        <ele>770</ele>
        <time>2019-11-29T08:15:48.000Z</time>
      </trkpt>
      <trkpt lat="43.31714" lon="5.67779">
        <ele>770</ele>
        <time>2019-11-29T08:15:49.000Z</time>
      </trkpt>
      <trkpt lat="43.31713" lon="5.67779">
        <ele>769</ele>
        <time>2019-11-29T08:15:50.000Z</time>
      </trkpt>
      <trkpt lat="43.31712" lon="5.67778">
        <ele>769</ele>
        <time>2019-11-29T08:15:51.000Z</time>
      </trkpt>
      <trkpt lat="43.31712" lon="5.67778">
        <ele>769</ele>
        <time>2019-11-29T08:15:52.000Z</time>
      </trkpt>
      <trkpt lat="43.31711" lon="5.67778">
        <ele>769</ele>
        <time>2019-11-29T08:15:53.000Z</time>
      </trkpt>
      <trkpt lat="43.3171" lon="5.67777">
        <ele>769</ele>
        <time>2019-11-29T08:15:54.000Z</time>
      </trkpt>
      <trkpt lat="43.31709" lon="5.67777">
        <ele>768</ele>
        <time>2019-11-29T08:15:55.000Z</time>
      </trkpt>
      <trkpt lat="43.31708" lon="5.67776">
        <ele>768</ele>
        <time>2019-11-29T08:15:56.000Z</time>
      </trkpt>
      <trkpt lat="43.31708" lon="5.67775">
        <ele>768</ele>
        <time>2019-11-29T08:15:57.000Z</time>
      </trkpt>
      <trkpt lat="43.31707" lon="5.67775">
        <ele>768</ele>
        <time>2019-11-29T08:15:58.000Z</time>
      </trkpt>
      <trkpt lat="43.31706" lon="5.67774">
        <ele>768</ele>
        <time>2019-11-29T08:15:59.000Z</time>
      </trkpt>
      <trkpt lat="43.31706" lon="5.67774">
        <ele>768</ele>
        <time>2019-11-29T08:16:00.000Z</time>
      </trkpt>
      <trkpt lat="43.31705" lon="5.67774">
        <ele>768</ele>
        <time>2019-11-29T08:16:01.000Z</time>
      </trkpt>
      <trkpt lat="43.31704" lon="5.67774">
        <ele>767</ele>
        <time>2019-11-29T08:16:02.000Z</time>
      </trkpt>
      <trkpt lat="43.31703" lon="5.67774">
        <ele>767</ele>
        <time>2019-11-29T08:16:03.000Z</time>
      </trkpt>
      <trkpt lat="43.31702" lon="5.67774">
        <ele>767</ele>
        <time>2019-11-29T08:16:04.000Z</time>
      </trkpt>
      <trkpt lat="43.31702" lon="5.67775">
        <ele>767</ele>
        <time>2019-11-29T08:16:05.000Z</time>
      </trkpt>
      <trkpt lat="43.31701" lon="5.67776">
        <ele>766</ele>
        <time>2019-11-29T08:16:06.000Z</time>
      </trkpt>
      <trkpt lat="43.31701" lon="5.67777">
        <ele>766</ele>
        <time>2019-11-29T08:16:07.000Z</time>
      </trkpt>
      <trkpt lat="43.317" lon="5.67777">
        <ele>766</ele>
        <time>2019-11-29T08:16:08.000Z</time>
      </trkpt>
      <trkpt lat="43.317" lon="5.67778">
        <ele>766</ele>
        <time>2019-11-29T08:16:09.000Z</time>
      </trkpt>
      <trkpt lat="43.317" lon="5.67779">
        <ele>765</ele>
        <time>2019-11-29T08:16:10.000Z</time>
      </trkpt>
      <trkpt lat="43.31699" lon="5.67779">
        <ele>765</ele>
        <time>2019-11-29T08:16:11.000Z</time>
      </trkpt>
      <trkpt lat="43.31698" lon="5.6778">
        <ele>765</ele>
        <time>2019-11-29T08:16:12.000Z</time>
      </trkpt>
      <trkpt lat="43.31698" lon="5.6778">
        <ele>765</ele>
        <time>2019-11-29T08:16:13.000Z</time>
      </trkpt>
      <trkpt lat="43.31697" lon="5.67781">
        <ele>765</ele>
        <time>2019-11-29T08:16:14.000Z</time>
      </trkpt>
      <trkpt lat="43.31697" lon="5.67782">
        <ele>765</ele>
        <time>2019-11-29T08:16:15.000Z</time>
      </trkpt>
      <trkpt lat="43.31696" lon="5.67782">
        <ele>764</ele>
        <time>2019-11-29T08:16:16.000Z</time>
      </trkpt>
      <trkpt lat="43.31695" lon="5.67783">
        <ele>764</ele>
        <time>2019-11-29T08:16:17.000Z</time>
      </trkpt>
      <trkpt lat="43.31695" lon="5.67783">
        <ele>764</ele>
        <time>2019-11-29T08:16:18.000Z</time>
      </trkpt>
      <trkpt lat="43.31694" lon="5.67783">
        <ele>764</ele>
        <time>2019-11-29T08:16:19.000Z</time>
      </trkpt>
      <trkpt lat="43.31693" lon="5.67783">
        <ele>763</ele>
        <time>2019-11-29T08:16:20.000Z</time>
      </trkpt>
      <trkpt lat="43.31692" lon="5.67783">
        <ele>763</ele>
        <time>2019-11-29T08:16:21.000Z</time>
      </trkpt>
      <trkpt lat="43.31691" lon="5.67782">
        <ele>763</ele>
        <time>2019-11-29T08:16:22.000Z</time>
      </trkpt>
      <trkpt lat="43.31691" lon="5.67782">
        <ele>763</ele>
        <time>2019-11-29T08:16:23.000Z</time>
      </trkpt>
      <trkpt lat="43.3169" lon="5.67783">
        <ele>762</ele>
        <time>2019-11-29T08:16:24.000Z</time>
      </trkpt>
      <trkpt lat="43.31689" lon="5.67782">
        <ele>762</ele>
        <time>2019-11-29T08:16:25.000Z</time>
      </trkpt>
      <trkpt lat="43.31688" lon="5.67782">
        <ele>762</ele>
        <time>2019-11-29T08:16:26.000Z</time>
      </trkpt>
      <trkpt lat="43.31687" lon="5.67781">
        <ele>761</ele>
        <time>2019-11-29T08:16:27.000Z</time>
      </trkpt>
      <trkpt lat="43.31686" lon="5.67781">
        <ele>761</ele>
        <time>2019-11-29T08:16:28.000Z</time>
      </trkpt>
      <trkpt lat="43.31685" lon="5.67781">
        <ele>761</ele>
        <time>2019-11-29T08:16:29.000Z</time>
      </trkpt>
      <trkpt lat="43.31684" lon="5.67781">
        <ele>761</ele>
        <time>2019-11-29T08:16:30.000Z</time>
      </trkpt>
      <trkpt lat="43.31682" lon="5.67781">
        <ele>761</ele>
        <time>2019-11-29T08:16:31.000Z</time>
      </trkpt>
      <trkpt lat="43.31681" lon="5.67781">
        <ele>761</ele>
        <time>2019-11-29T08:16:32.000Z</time>
      </trkpt>
      <trkpt lat="43.3168" lon="5.67781">
        <ele>761</ele>
        <time>2019-11-29T08:16:33.000Z</time>
      </trkpt>
      <trkpt lat="43.31679" lon="5.6778">
        <ele>760</ele>
        <time>2019-11-29T08:16:34.000Z</time>
      </trkpt>
      <trkpt lat="43.31678" lon="5.67779">
        <ele>760</ele>
        <time>2019-11-29T08:16:35.000Z</time>
      </trkpt>
      <trkpt lat="43.31677" lon="5.67778">
        <ele>760</ele>
        <time>2019-11-29T08:16:36.000Z</time>
      </trkpt>
      <trkpt lat="43.31677" lon="5.67777">
        <ele>760</ele>
        <time>2019-11-29T08:16:37.000Z</time>
      </trkpt>
      <trkpt lat="43.31676" lon="5.67776">
        <ele>759</ele>
        <time>2019-11-29T08:16:38.000Z</time>
      </trkpt>
      <trkpt lat="43.31676" lon="5.67774">
        <ele>759</ele>
        <time>2019-11-29T08:16:39.000Z</time>
      </trkpt>
      <trkpt lat="43.31675" lon="5.67773">
        <ele>759</ele>
        <time>2019-11-29T08:16:40.000Z</time>
      </trkpt>
      <trkpt lat="43.31675" lon="5.67772">
        <ele>759</ele>
        <time>2019-11-29T08:16:41.000Z</time>
      </trkpt>
      <trkpt lat="43.31675" lon="5.6777">
        <ele>758</ele>
        <time>2019-11-29T08:16:42.000Z</time>
      </trkpt>
      <trkpt lat="43.31674" lon="5.67769">
        <ele>758</ele>
        <time>2019-11-29T08:16:43.000Z</time>
      </trkpt>
      <trkpt lat="43.31674" lon="5.67768">
        <ele>758</ele>
        <time>2019-11-29T08:16:44.000Z</time>
      </trkpt>
      <trkpt lat="43.31673" lon="5.67766">
        <ele>757</ele>
        <time>2019-11-29T08:16:45.000Z</time>
      </trkpt>
      <trkpt lat="43.31673" lon="5.67765">
        <ele>757</ele>
        <time>2019-11-29T08:16:46.000Z</time>
      </trkpt>
      <trkpt lat="43.31673" lon="5.67764">
        <ele>757</ele>
        <time>2019-11-29T08:16:47.000Z</time>
      </trkpt>
      <trkpt lat="43.31672" lon="5.67763">
        <ele>757</ele>
        <time>2019-11-29T08:16:48.000Z</time>
      </trkpt>
      <trkpt lat="43.31671" lon="5.67763">
        <ele>757</ele>
        <time>2019-11-29T08:16:49.000Z</time>
      </trkpt>
      <trkpt lat="43.3167" lon="5.67762">
        <ele>756</ele>
        <time>2019-11-29T08:16:50.000Z</time>
      </trkpt>
      <trkpt lat="43.3167" lon="5.67761">
        <ele>756</ele>
        <time>2019-11-29T08:16:51.000Z</time>
      </trkpt>
      <trkpt lat="43.31669" lon="5.67761">
        <ele>756</ele>
        <time>2019-11-29T08:16:52.000Z</time>
      </trkpt>
      <trkpt lat="43.31668" lon="5.6776">
        <ele>756</ele>
        <time>2019-11-29T08:16:53.000Z</time>
      </trkpt>
      <trkpt lat="43.31667" lon="5.6776">
        <ele>755</ele>
        <time>2019-11-29T08:16:54.000Z</time>
      </trkpt>
      <trkpt lat="43.31666" lon="5.67759">
        <ele>755</ele>
        <time>2019-11-29T08:16:55.000Z</time>
      </trkpt>
      <trkpt lat="43.31666" lon="5.67758">
        <ele>755</ele>
        <time>2019-11-29T08:16:56.000Z</time>
      </trkpt>
      <trkpt lat="43.31665" lon="5.67757">
        <ele>755</ele>
        <time>2019-11-29T08:16:57.000Z</time>
      </trkpt>
      <trkpt lat="43.31664" lon="5.67756">
        <ele>754</ele>
        <time>2019-11-29T08:16:58.000Z</time>
      </trkpt>
      <trkpt lat="43.31664" lon="5.67754">
        <ele>754</ele>
        <time>2019-11-29T08:16:59.000Z</time>
      </trkpt>
      <trkpt lat="43.31663" lon="5.67753">
        <ele>754</ele>
        <time>2019-11-29T08:17:00.000Z</time>
      </trkpt>
      <trkpt lat="43.31663" lon="5.67752">
        <ele>754</ele>
        <time>2019-11-29T08:17:01.000Z</time>
      </trkpt>
      <trkpt lat="43.31663" lon="5.67751">
        <ele>754</ele>
        <time>2019-11-29T08:17:02.000Z</time>
      </trkpt>
      <trkpt lat="43.31663" lon="5.6775">
        <ele>754</ele>
        <time>2019-11-29T08:17:03.000Z</time>
      </trkpt>
      <trkpt lat="43.31662" lon="5.67749">
        <ele>753</ele>
        <time>2019-11-29T08:17:04.000Z</time>
      </trkpt>
      <trkpt lat="43.31662" lon="5.67747">
        <ele>753</ele>
        <time>2019-11-29T08:17:05.000Z</time>
      </trkpt>
      <trkpt lat="43.31661" lon="5.67746">
        <ele>753</ele>
        <time>2019-11-29T08:17:06.000Z</time>
      </trkpt>
      <trkpt lat="43.31661" lon="5.67745">
        <ele>753</ele>
        <time>2019-11-29T08:17:07.000Z</time>
      </trkpt>
      <trkpt lat="43.31661" lon="5.67744">
        <ele>752</ele>
        <time>2019-11-29T08:17:08.000Z</time>
      </trkpt>
      <trkpt lat="43.31661" lon="5.67743">
        <ele>752</ele>
        <time>2019-11-29T08:17:09.000Z</time>
      </trkpt>
      <trkpt lat="43.31661" lon="5.67742">
        <ele>752</ele>
        <time>2019-11-29T08:17:10.000Z</time>
      </trkpt>
      <trkpt lat="43.31661" lon="5.67741">
        <ele>752</ele>
        <time>2019-11-29T08:17:11.000Z</time>
      </trkpt>
      <trkpt lat="43.3166" lon="5.6774">
        <ele>752</ele>
        <time>2019-11-29T08:17:12.000Z</time>
      </trkpt>
      <trkpt lat="43.3166" lon="5.67739">
        <ele>752</ele>
        <time>2019-11-29T08:17:13.000Z</time>
      </trkpt>
      <trkpt lat="43.3166" lon="5.67737">
        <ele>752</ele>
        <time>2019-11-29T08:17:14.000Z</time>
      </trkpt>
      <trkpt lat="43.3166" lon="5.67736">
        <ele>752</ele>
        <time>2019-11-29T08:17:15.000Z</time>
      </trkpt>
      <trkpt lat="43.3166" lon="5.67735">
        <ele>751</ele>
        <time>2019-11-29T08:17:16.000Z</time>
      </trkpt>
      <trkpt lat="43.31659" lon="5.67733">
        <ele>751</ele>
        <time>2019-11-29T08:17:17.000Z</time>
      </trkpt>
      <trkpt lat="43.31659" lon="5.67732">
        <ele>751</ele>
        <time>2019-11-29T08:17:18.000Z</time>
      </trkpt>
      <trkpt lat="43.31658" lon="5.67732">
        <ele>751</ele>
        <time>2019-11-29T08:17:19.000Z</time>
      </trkpt>
      <trkpt lat="43.31657" lon="5.67731">
        <ele>751</ele>
        <time>2019-11-29T08:17:20.000Z</time>
      </trkpt>
      <trkpt lat="43.31656" lon="5.6773">
        <ele>751</ele>
        <time>2019-11-29T08:17:21.000Z</time>
      </trkpt>
      <trkpt lat="43.31655" lon="5.67729">
        <ele>750</ele>
        <time>2019-11-29T08:17:22.000Z</time>
      </trkpt>
      <trkpt lat="43.31655" lon="5.67728">
        <ele>750</ele>
        <time>2019-11-29T08:17:23.000Z</time>
      </trkpt>
      <trkpt lat="43.31655" lon="5.67728">
        <ele>750</ele>
        <time>2019-11-29T08:17:24.000Z</time>
      </trkpt>
      <trkpt lat="43.31655" lon="5.67727">
        <ele>750</ele>
        <time>2019-11-29T08:17:25.000Z</time>
      </trkpt>
      <trkpt lat="43.31654" lon="5.67726">
        <ele>750</ele>
        <time>2019-11-29T08:17:26.000Z</time>
      </trkpt>
      <trkpt lat="43.31654" lon="5.67725">
        <ele>750</ele>
        <time>2019-11-29T08:17:27.000Z</time>
      </trkpt>
      <trkpt lat="43.31654" lon="5.67724">
        <ele>749</ele>
        <time>2019-11-29T08:17:28.000Z</time>
      </trkpt>
      <trkpt lat="43.31654" lon="5.67722">
        <ele>749</ele>
        <time>2019-11-29T08:17:29.000Z</time>
      </trkpt>
      <trkpt lat="43.31654" lon="5.6772">
        <ele>749</ele>
        <time>2019-11-29T08:17:30.000Z</time>
      </trkpt>
      <trkpt lat="43.31654" lon="5.67719">
        <ele>749</ele>
        <time>2019-11-29T08:17:31.000Z</time>
      </trkpt>
      <trkpt lat="43.31654" lon="5.67718">
        <ele>749</ele>
        <time>2019-11-29T08:17:32.000Z</time>
      </trkpt>
      <trkpt lat="43.31654" lon="5.67716">
        <ele>749</ele>
        <time>2019-11-29T08:17:33.000Z</time>
      </trkpt>
      <trkpt lat="43.31654" lon="5.67715">
        <ele>748</ele>
        <time>2019-11-29T08:17:34.000Z</time>
      </trkpt>
      <trkpt lat="43.31653" lon="5.67714">
        <ele>748</ele>
        <time>2019-11-29T08:17:35.000Z</time>
      </trkpt>
      <trkpt lat="43.31653" lon="5.67713">
        <ele>748</ele>
        <time>2019-11-29T08:17:36.000Z</time>
      </trkpt>
      <trkpt lat="43.31653" lon="5.67712">
        <ele>748</ele>
        <time>2019-11-29T08:17:37.000Z</time>
      </trkpt>
      <trkpt lat="43.31653" lon="5.67711">
        <ele>747</ele>
        <time>2019-11-29T08:17:38.000Z</time>
      </trkpt>
      <trkpt lat="43.31653" lon="5.6771">
        <ele>747</ele>
        <time>2019-11-29T08:17:39.000Z</time>
      </trkpt>
      <trkpt lat="43.31653" lon="5.67709">
        <ele>747</ele>
        <time>2019-11-29T08:17:40.000Z</time>
      </trkpt>
      <trkpt lat="43.31653" lon="5.67708">
        <ele>747</ele>
        <time>2019-11-29T08:17:41.000Z</time>
      </trkpt>
      <trkpt lat="43.31653" lon="5.67707">
        <ele>747</ele>
        <time>2019-11-29T08:17:42.000Z</time>
      </trkpt>
      <trkpt lat="43.31653" lon="5.67706">
        <ele>746</ele>
        <time>2019-11-29T08:17:43.000Z</time>
      </trkpt>
      <trkpt lat="43.31653" lon="5.67705">
        <ele>746</ele>
        <time>2019-11-29T08:17:44.000Z</time>
      </trkpt>
      <trkpt lat="43.31653" lon="5.67705">
        <ele>746</ele>
        <time>2019-11-29T08:17:45.000Z</time>
      </trkpt>
      <trkpt lat="43.31653" lon="5.67703">
        <ele>746</ele>
        <time>2019-11-29T08:17:46.000Z</time>
      </trkpt>
      <trkpt lat="43.31653" lon="5.67702">
        <ele>745</ele>
        <time>2019-11-29T08:17:47.000Z</time>
      </trkpt>
      <trkpt lat="43.31654" lon="5.67701">
        <ele>745</ele>
        <time>2019-11-29T08:17:48.000Z</time>
      </trkpt>
      <trkpt lat="43.31654" lon="5.677">
        <ele>745</ele>
        <time>2019-11-29T08:17:49.000Z</time>
      </trkpt>
      <trkpt lat="43.31654" lon="5.67699">
        <ele>745</ele>
        <time>2019-11-29T08:17:50.000Z</time>
      </trkpt>
      <trkpt lat="43.31655" lon="5.67698">
        <ele>745</ele>
        <time>2019-11-29T08:17:51.000Z</time>
      </trkpt>
      <trkpt lat="43.31655" lon="5.67698">
        <ele>744</ele>
        <time>2019-11-29T08:17:52.000Z</time>
      </trkpt>
      <trkpt lat="43.31654" lon="5.67697">
        <ele>744</ele>
        <time>2019-11-29T08:17:53.000Z</time>
      </trkpt>
      <trkpt lat="43.31654" lon="5.67696">
        <ele>744</ele>
        <time>2019-11-29T08:17:54.000Z</time>
      </trkpt>
      <trkpt lat="43.31653" lon="5.67695">
        <ele>744</ele>
        <time>2019-11-29T08:17:55.000Z</time>
      </trkpt>
      <trkpt lat="43.31652" lon="5.67695">
        <ele>743</ele>
        <time>2019-11-29T08:17:56.000Z</time>
      </trkpt>
      <trkpt lat="43.31652" lon="5.67694">
        <ele>743</ele>
        <time>2019-11-29T08:17:57.000Z</time>
      </trkpt>
      <trkpt lat="43.31651" lon="5.67693">
        <ele>743</ele>
        <time>2019-11-29T08:17:58.000Z</time>
      </trkpt>
      <trkpt lat="43.31651" lon="5.67692">
        <ele>743</ele>
        <time>2019-11-29T08:17:59.000Z</time>
      </trkpt>
      <trkpt lat="43.3165" lon="5.67692">
        <ele>743</ele>
        <time>2019-11-29T08:18:00.000Z</time>
      </trkpt>
      <trkpt lat="43.3165" lon="5.67691">
        <ele>742</ele>
        <time>2019-11-29T08:18:01.000Z</time>
      </trkpt>
      <trkpt lat="43.3165" lon="5.6769">
        <ele>742</ele>
        <time>2019-11-29T08:18:02.000Z</time>
      </trkpt>
      <trkpt lat="43.3165" lon="5.67688">
        <ele>742</ele>
        <time>2019-11-29T08:18:03.000Z</time>
      </trkpt>
      <trkpt lat="43.3165" lon="5.67687">
        <ele>742</ele>
        <time>2019-11-29T08:18:04.000Z</time>
      </trkpt>
      <trkpt lat="43.3165" lon="5.67687">
        <ele>742</ele>
        <time>2019-11-29T08:18:05.000Z</time>
      </trkpt>
      <trkpt lat="43.3165" lon="5.67686">
        <ele>742</ele>
        <time>2019-11-29T08:18:06.000Z</time>
      </trkpt>
      <trkpt lat="43.3165" lon="5.67685">
        <ele>741</ele>
        <time>2019-11-29T08:18:07.000Z</time>
      </trkpt>
      <trkpt lat="43.3165" lon="5.67684">
        <ele>741</ele>
        <time>2019-11-29T08:18:08.000Z</time>
      </trkpt>
      <trkpt lat="43.3165" lon="5.67683">
        <ele>741</ele>
        <time>2019-11-29T08:18:09.000Z</time>
      </trkpt>
      <trkpt lat="43.3165" lon="5.67682">
        <ele>741</ele>
        <time>2019-11-29T08:18:10.000Z</time>
      </trkpt>
      <trkpt lat="43.3165" lon="5.67681">
        <ele>741</ele>
        <time>2019-11-29T08:18:11.000Z</time>
      </trkpt>
      <trkpt lat="43.31649" lon="5.6768">
        <ele>741</ele>
        <time>2019-11-29T08:18:12.000Z</time>
      </trkpt>
      <trkpt lat="43.31649" lon="5.67678">
        <ele>741</ele>
        <time>2019-11-29T08:18:13.000Z</time>
      </trkpt>
      <trkpt lat="43.31649" lon="5.67677">
        <ele>741</ele>
        <time>2019-11-29T08:18:14.000Z</time>
      </trkpt>
      <trkpt lat="43.31649" lon="5.67677">
        <ele>741</ele>
        <time>2019-11-29T08:18:15.000Z</time>
      </trkpt>
      <trkpt lat="43.31648" lon="5.67676">
        <ele>741</ele>
        <time>2019-11-29T08:18:16.000Z</time>
      </trkpt>
      <trkpt lat="43.31649" lon="5.67675">
        <ele>740</ele>
        <time>2019-11-29T08:18:17.000Z</time>
      </trkpt>
      <trkpt lat="43.31648" lon="5.67675">
        <ele>740</ele>
        <time>2019-11-29T08:18:18.000Z</time>
      </trkpt>
      <trkpt lat="43.31649" lon="5.67674">
        <ele>740</ele>
        <time>2019-11-29T08:18:19.000Z</time>
      </trkpt>
      <trkpt lat="43.31648" lon="5.67674">
        <ele>740</ele>
        <time>2019-11-29T08:18:20.000Z</time>
      </trkpt>
      <trkpt lat="43.31648" lon="5.67674">
        <ele>740</ele>
        <time>2019-11-29T08:18:21.000Z</time>
      </trkpt>
      <trkpt lat="43.31648" lon="5.67673">
        <ele>740</ele>
        <time>2019-11-29T08:18:22.000Z</time>
      </trkpt>
      <trkpt lat="43.31647" lon="5.67673">
        <ele>740</ele>
        <time>2019-11-29T08:18:23.000Z</time>
      </trkpt>
      <trkpt lat="43.31646" lon="5.67673">
        <ele>740</ele>
        <time>2019-11-29T08:18:24.000Z</time>
      </trkpt>
      <trkpt lat="43.31646" lon="5.67672">
        <ele>740</ele>
        <time>2019-11-29T08:18:25.000Z</time>
      </trkpt>
      <trkpt lat="43.31646" lon="5.67672">
        <ele>740</ele>
        <time>2019-11-29T08:18:26.000Z</time>
      </trkpt>
      <trkpt lat="43.31645" lon="5.67671">
        <ele>740</ele>
        <time>2019-11-29T08:18:27.000Z</time>
      </trkpt>
      <trkpt lat="43.31645" lon="5.67671">
        <ele>740</ele>
        <time>2019-11-29T08:18:28.000Z</time>
      </trkpt>
      <trkpt lat="43.31644" lon="5.67671">
        <ele>739</ele>
        <time>2019-11-29T08:18:29.000Z</time>
      </trkpt>
      <trkpt lat="43.31643" lon="5.6767">
        <ele>739</ele>
        <time>2019-11-29T08:18:30.000Z</time>
      </trkpt>
      <trkpt lat="43.31643" lon="5.6767">
        <ele>739</ele>
        <time>2019-11-29T08:18:31.000Z</time>
      </trkpt>
      <trkpt lat="43.31642" lon="5.67669">
        <ele>739</ele>
        <time>2019-11-29T08:18:32.000Z</time>
      </trkpt>
      <trkpt lat="43.31641" lon="5.67669">
        <ele>738</ele>
        <time>2019-11-29T08:18:33.000Z</time>
      </trkpt>
      <trkpt lat="43.31641" lon="5.67669">
        <ele>738</ele>
        <time>2019-11-29T08:18:34.000Z</time>
      </trkpt>
      <trkpt lat="43.3164" lon="5.67668">
        <ele>738</ele>
        <time>2019-11-29T08:18:35.000Z</time>
      </trkpt>
      <trkpt lat="43.31639" lon="5.67669">
        <ele>738</ele>
        <time>2019-11-29T08:18:36.000Z</time>
      </trkpt>
      <trkpt lat="43.31639" lon="5.67668">
        <ele>738</ele>
        <time>2019-11-29T08:18:37.000Z</time>
      </trkpt>
      <trkpt lat="43.31638" lon="5.67668">
        <ele>737</ele>
        <time>2019-11-29T08:18:38.000Z</time>
      </trkpt>
      <trkpt lat="43.31638" lon="5.67667">
        <ele>737</ele>
        <time>2019-11-29T08:18:39.000Z</time>
      </trkpt>
      <trkpt lat="43.31637" lon="5.67667">
        <ele>737</ele>
        <time>2019-11-29T08:18:40.000Z</time>
      </trkpt>
      <trkpt lat="43.31637" lon="5.67666">
        <ele>737</ele>
        <time>2019-11-29T08:18:41.000Z</time>
      </trkpt>
      <trkpt lat="43.31636" lon="5.67666">
        <ele>737</ele>
        <time>2019-11-29T08:18:42.000Z</time>
      </trkpt>
      <trkpt lat="43.31636" lon="5.67667">
        <ele>736</ele>
        <time>2019-11-29T08:18:43.000Z</time>
      </trkpt>
      <trkpt lat="43.31635" lon="5.67667">
        <ele>736</ele>
        <time>2019-11-29T08:18:44.000Z</time>
      </trkpt>
      <trkpt lat="43.31634" lon="5.67667">
        <ele>736</ele>
        <time>2019-11-29T08:18:45.000Z</time>
      </trkpt>
      <trkpt lat="43.31634" lon="5.67667">
        <ele>736</ele>
        <time>2019-11-29T08:18:46.000Z</time>
      </trkpt>
      <trkpt lat="43.31634" lon="5.67667">
        <ele>735</ele>
        <time>2019-11-29T08:18:47.000Z</time>
      </trkpt>
      <trkpt lat="43.31633" lon="5.67667">
        <ele>735</ele>
        <time>2019-11-29T08:18:48.000Z</time>
      </trkpt>
      <trkpt lat="43.31633" lon="5.67667">
        <ele>735</ele>
        <time>2019-11-29T08:18:49.000Z</time>
      </trkpt>
      <trkpt lat="43.31633" lon="5.67667">
        <ele>735</ele>
        <time>2019-11-29T08:18:50.000Z</time>
      </trkpt>
      <trkpt lat="43.31632" lon="5.67667">
        <ele>734</ele>
        <time>2019-11-29T08:18:51.000Z</time>
      </trkpt>
      <trkpt lat="43.31632" lon="5.67667">
        <ele>734</ele>
        <time>2019-11-29T08:18:52.000Z</time>
      </trkpt>
      <trkpt lat="43.31631" lon="5.67668">
        <ele>734</ele>
        <time>2019-11-29T08:18:53.000Z</time>
      </trkpt>
      <trkpt lat="43.3163" lon="5.67668">
        <ele>734</ele>
        <time>2019-11-29T08:18:54.000Z</time>
      </trkpt>
      <trkpt lat="43.31629" lon="5.67668">
        <ele>733</ele>
        <time>2019-11-29T08:18:55.000Z</time>
      </trkpt>
      <trkpt lat="43.31629" lon="5.67668">
        <ele>733</ele>
        <time>2019-11-29T08:18:56.000Z</time>
      </trkpt>
      <trkpt lat="43.31629" lon="5.67667">
        <ele>733</ele>
        <time>2019-11-29T08:18:57.000Z</time>
      </trkpt>
      <trkpt lat="43.31628" lon="5.67666">
        <ele>733</ele>
        <time>2019-11-29T08:18:58.000Z</time>
      </trkpt>
      <trkpt lat="43.31628" lon="5.67665">
        <ele>732</ele>
        <time>2019-11-29T08:18:59.000Z</time>
      </trkpt>
      <trkpt lat="43.31628" lon="5.67664">
        <ele>732</ele>
        <time>2019-11-29T08:19:00.000Z</time>
      </trkpt>
      <trkpt lat="43.31629" lon="5.67663">
        <ele>732</ele>
        <time>2019-11-29T08:19:01.000Z</time>
      </trkpt>
      <trkpt lat="43.31629" lon="5.67661">
        <ele>732</ele>
        <time>2019-11-29T08:19:02.000Z</time>
      </trkpt>
      <trkpt lat="43.31629" lon="5.6766">
        <ele>732</ele>
        <time>2019-11-29T08:19:03.000Z</time>
      </trkpt>
      <trkpt lat="43.31629" lon="5.67659">
        <ele>732</ele>
        <time>2019-11-29T08:19:04.000Z</time>
      </trkpt>
      <trkpt lat="43.31629" lon="5.67657">
        <ele>732</ele>
        <time>2019-11-29T08:19:05.000Z</time>
      </trkpt>
      <trkpt lat="43.31629" lon="5.67656">
        <ele>731</ele>
        <time>2019-11-29T08:19:06.000Z</time>
      </trkpt>
      <trkpt lat="43.31629" lon="5.67655">
        <ele>731</ele>
        <time>2019-11-29T08:19:07.000Z</time>
      </trkpt>
      <trkpt lat="43.31629" lon="5.67654">
        <ele>731</ele>
        <time>2019-11-29T08:19:08.000Z</time>
      </trkpt>
      <trkpt lat="43.31629" lon="5.67653">
        <ele>731</ele>
        <time>2019-11-29T08:19:09.000Z</time>
      </trkpt>
      <trkpt lat="43.31629" lon="5.67652">
        <ele>731</ele>
        <time>2019-11-29T08:19:10.000Z</time>
      </trkpt>
      <trkpt lat="43.31628" lon="5.67651">
        <ele>731</ele>
        <time>2019-11-29T08:19:11.000Z</time>
      </trkpt>
      <trkpt lat="43.31627" lon="5.6765">
        <ele>731</ele>
        <time>2019-11-29T08:19:12.000Z</time>
      </trkpt>
      <trkpt lat="43.31627" lon="5.67649">
        <ele>731</ele>
        <time>2019-11-29T08:19:13.000Z</time>
      </trkpt>
      <trkpt lat="43.31626" lon="5.67647">
        <ele>731</ele>
        <time>2019-11-29T08:19:14.000Z</time>
      </trkpt>
      <trkpt lat="43.31626" lon="5.67645">
        <ele>731</ele>
        <time>2019-11-29T08:19:15.000Z</time>
      </trkpt>
      <trkpt lat="43.31625" lon="5.67644">
        <ele>731</ele>
        <time>2019-11-29T08:19:16.000Z</time>
      </trkpt>
      <trkpt lat="43.31625" lon="5.67643">
        <ele>730</ele>
        <time>2019-11-29T08:19:17.000Z</time>
      </trkpt>
      <trkpt lat="43.31625" lon="5.67642">
        <ele>730</ele>
        <time>2019-11-29T08:19:18.000Z</time>
      </trkpt>
      <trkpt lat="43.31625" lon="5.67641">
        <ele>730</ele>
        <time>2019-11-29T08:19:19.000Z</time>
      </trkpt>
      <trkpt lat="43.31624" lon="5.6764">
        <ele>730</ele>
        <time>2019-11-29T08:19:20.000Z</time>
      </trkpt>
      <trkpt lat="43.31624" lon="5.67639">
        <ele>730</ele>
        <time>2019-11-29T08:19:21.000Z</time>
      </trkpt>
      <trkpt lat="43.31623" lon="5.67638">
        <ele>730</ele>
        <time>2019-11-29T08:19:22.000Z</time>
      </trkpt>
      <trkpt lat="43.31623" lon="5.67638">
        <ele>730</ele>
        <time>2019-11-29T08:19:23.000Z</time>
      </trkpt>
      <trkpt lat="43.31622" lon="5.67637">
        <ele>730</ele>
        <time>2019-11-29T08:19:24.000Z</time>
      </trkpt>
      <trkpt lat="43.31622" lon="5.67636">
        <ele>730</ele>
        <time>2019-11-29T08:19:25.000Z</time>
      </trkpt>
      <trkpt lat="43.31621" lon="5.67634">
        <ele>730</ele>
        <time>2019-11-29T08:19:26.000Z</time>
      </trkpt>
      <trkpt lat="43.31621" lon="5.67633">
        <ele>729</ele>
        <time>2019-11-29T08:19:27.000Z</time>
      </trkpt>
      <trkpt lat="43.3162" lon="5.67631">
        <ele>729</ele>
        <time>2019-11-29T08:19:28.000Z</time>
      </trkpt>
      <trkpt lat="43.31619" lon="5.6763">
        <ele>729</ele>
        <time>2019-11-29T08:19:29.000Z</time>
      </trkpt>
      <trkpt lat="43.31619" lon="5.67628">
        <ele>729</ele>
        <time>2019-11-29T08:19:30.000Z</time>
      </trkpt>
      <trkpt lat="43.31619" lon="5.67626">
        <ele>728</ele>
        <time>2019-11-29T08:19:31.000Z</time>
      </trkpt>
      <trkpt lat="43.3162" lon="5.67624">
        <ele>728</ele>
        <time>2019-11-29T08:19:32.000Z</time>
      </trkpt>
      <trkpt lat="43.3162" lon="5.67622">
        <ele>728</ele>
        <time>2019-11-29T08:19:33.000Z</time>
      </trkpt>
      <trkpt lat="43.3162" lon="5.67621">
        <ele>728</ele>
        <time>2019-11-29T08:19:34.000Z</time>
      </trkpt>
      <trkpt lat="43.31621" lon="5.67619">
        <ele>728</ele>
        <time>2019-11-29T08:19:35.000Z</time>
      </trkpt>
      <trkpt lat="43.31622" lon="5.67617">
        <ele>728</ele>
        <time>2019-11-29T08:19:36.000Z</time>
      </trkpt>
      <trkpt lat="43.31622" lon="5.67616">
        <ele>728</ele>
        <time>2019-11-29T08:19:37.000Z</time>
      </trkpt>
      <trkpt lat="43.31622" lon="5.67616">
        <ele>727</ele>
        <time>2019-11-29T08:19:38.000Z</time>
      </trkpt>
      <trkpt lat="43.31621" lon="5.67615">
        <ele>727</ele>
        <time>2019-11-29T08:19:39.000Z</time>
      </trkpt>
      <trkpt lat="43.3162" lon="5.67614">
        <ele>727</ele>
        <time>2019-11-29T08:19:40.000Z</time>
      </trkpt>
      <trkpt lat="43.3162" lon="5.67613">
        <ele>727</ele>
        <time>2019-11-29T08:19:41.000Z</time>
      </trkpt>
      <trkpt lat="43.31619" lon="5.67612">
        <ele>727</ele>
        <time>2019-11-29T08:19:42.000Z</time>
      </trkpt>
      <trkpt lat="43.31618" lon="5.67612">
        <ele>727</ele>
        <time>2019-11-29T08:19:43.000Z</time>
      </trkpt>
      <trkpt lat="43.31618" lon="5.67612">
        <ele>726</ele>
        <time>2019-11-29T08:19:44.000Z</time>
      </trkpt>
      <trkpt lat="43.31617" lon="5.67612">
        <ele>726</ele>
        <time>2019-11-29T08:19:45.000Z</time>
      </trkpt>
      <trkpt lat="43.31617" lon="5.67612">
        <ele>726</ele>
        <time>2019-11-29T08:19:46.000Z</time>
      </trkpt>
      <trkpt lat="43.31616" lon="5.67612">
        <ele>726</ele>
        <time>2019-11-29T08:19:47.000Z</time>
      </trkpt>
      <trkpt lat="43.31615" lon="5.67613">
        <ele>726</ele>
        <time>2019-11-29T08:19:48.000Z</time>
      </trkpt>
      <trkpt lat="43.31615" lon="5.67613">
        <ele>726</ele>
        <time>2019-11-29T08:19:49.000Z</time>
      </trkpt>
      <trkpt lat="43.31614" lon="5.67613">
        <ele>726</ele>
        <time>2019-11-29T08:19:50.000Z</time>
      </trkpt>
      <trkpt lat="43.31613" lon="5.67614">
        <ele>725</ele>
        <time>2019-11-29T08:19:51.000Z</time>
      </trkpt>
      <trkpt lat="43.31613" lon="5.67614">
        <ele>725</ele>
        <time>2019-11-29T08:19:52.000Z</time>
      </trkpt>
      <trkpt lat="43.31612" lon="5.67614">
        <ele>725</ele>
        <time>2019-11-29T08:19:53.000Z</time>
      </trkpt>
      <trkpt lat="43.31611" lon="5.67614">
        <ele>725</ele>
        <time>2019-11-29T08:19:54.000Z</time>
      </trkpt>
      <trkpt lat="43.31611" lon="5.67614">
        <ele>724</ele>
        <time>2019-11-29T08:19:55.000Z</time>
      </trkpt>
      <trkpt lat="43.3161" lon="5.67613">
        <ele>724</ele>
        <time>2019-11-29T08:19:56.000Z</time>
      </trkpt>
      <trkpt lat="43.3161" lon="5.67613">
        <ele>724</ele>
        <time>2019-11-29T08:19:57.000Z</time>
      </trkpt>
      <trkpt lat="43.31609" lon="5.67612">
        <ele>723</ele>
        <time>2019-11-29T08:19:58.000Z</time>
      </trkpt>
      <trkpt lat="43.31609" lon="5.67612">
        <ele>723</ele>
        <time>2019-11-29T08:19:59.000Z</time>
      </trkpt>
      <trkpt lat="43.31608" lon="5.67611">
        <ele>723</ele>
        <time>2019-11-29T08:20:00.000Z</time>
      </trkpt>
      <trkpt lat="43.31607" lon="5.6761">
        <ele>722</ele>
        <time>2019-11-29T08:20:01.000Z</time>
      </trkpt>
      <trkpt lat="43.31606" lon="5.67608">
        <ele>722</ele>
        <time>2019-11-29T08:20:02.000Z</time>
      </trkpt>
      <trkpt lat="43.31606" lon="5.67607">
        <ele>722</ele>
        <time>2019-11-29T08:20:03.000Z</time>
      </trkpt>
      <trkpt lat="43.31605" lon="5.67606">
        <ele>722</ele>
        <time>2019-11-29T08:20:04.000Z</time>
      </trkpt>
      <trkpt lat="43.31605" lon="5.67605">
        <ele>721</ele>
        <time>2019-11-29T08:20:05.000Z</time>
      </trkpt>
      <trkpt lat="43.31604" lon="5.67603">
        <ele>721</ele>
        <time>2019-11-29T08:20:06.000Z</time>
      </trkpt>
      <trkpt lat="43.31604" lon="5.67602">
        <ele>721</ele>
        <time>2019-11-29T08:20:07.000Z</time>
      </trkpt>
      <trkpt lat="43.31604" lon="5.676">
        <ele>721</ele>
        <time>2019-11-29T08:20:08.000Z</time>
      </trkpt>
      <trkpt lat="43.31604" lon="5.67599">
        <ele>721</ele>
        <time>2019-11-29T08:20:09.000Z</time>
      </trkpt>
      <trkpt lat="43.31604" lon="5.67598">
        <ele>721</ele>
        <time>2019-11-29T08:20:10.000Z</time>
      </trkpt>
      <trkpt lat="43.31603" lon="5.67597">
        <ele>721</ele>
        <time>2019-11-29T08:20:11.000Z</time>
      </trkpt>
      <trkpt lat="43.31603" lon="5.67597">
        <ele>721</ele>
        <time>2019-11-29T08:20:12.000Z</time>
      </trkpt>
      <trkpt lat="43.31603" lon="5.67596">
        <ele>721</ele>
        <time>2019-11-29T08:20:13.000Z</time>
      </trkpt>
      <trkpt lat="43.31604" lon="5.67595">
        <ele>720</ele>
        <time>2019-11-29T08:20:14.000Z</time>
      </trkpt>
      <trkpt lat="43.31604" lon="5.67594">
        <ele>720</ele>
        <time>2019-11-29T08:20:15.000Z</time>
      </trkpt>
      <trkpt lat="43.31604" lon="5.67593">
        <ele>720</ele>
        <time>2019-11-29T08:20:16.000Z</time>
      </trkpt>
      <trkpt lat="43.31604" lon="5.67592">
        <ele>720</ele>
        <time>2019-11-29T08:20:17.000Z</time>
      </trkpt>
      <trkpt lat="43.31604" lon="5.67591">
        <ele>720</ele>
        <time>2019-11-29T08:20:18.000Z</time>
      </trkpt>
      <trkpt lat="43.31603" lon="5.6759">
        <ele>720</ele>
        <time>2019-11-29T08:20:19.000Z</time>
      </trkpt>
      <trkpt lat="43.31603" lon="5.67589">
        <ele>720</ele>
        <time>2019-11-29T08:20:20.000Z</time>
      </trkpt>
      <trkpt lat="43.31603" lon="5.67589">
        <ele>720</ele>
        <time>2019-11-29T08:20:21.000Z</time>
      </trkpt>
      <trkpt lat="43.31603" lon="5.67588">
        <ele>720</ele>
        <time>2019-11-29T08:20:22.000Z</time>
      </trkpt>
      <trkpt lat="43.31603" lon="5.67587">
        <ele>720</ele>
        <time>2019-11-29T08:20:23.000Z</time>
      </trkpt>
      <trkpt lat="43.31603" lon="5.67586">
        <ele>720</ele>
        <time>2019-11-29T08:20:24.000Z</time>
      </trkpt>
      <trkpt lat="43.31603" lon="5.67585">
        <ele>720</ele>
        <time>2019-11-29T08:20:25.000Z</time>
      </trkpt>
      <trkpt lat="43.31603" lon="5.67584">
        <ele>720</ele>
        <time>2019-11-29T08:20:26.000Z</time>
      </trkpt>
      <trkpt lat="43.31603" lon="5.67584">
        <ele>720</ele>
        <time>2019-11-29T08:20:27.000Z</time>
      </trkpt>
      <trkpt lat="43.31602" lon="5.67584">
        <ele>720</ele>
        <time>2019-11-29T08:20:28.000Z</time>
      </trkpt>
      <trkpt lat="43.31602" lon="5.67584">
        <ele>720</ele>
        <time>2019-11-29T08:20:29.000Z</time>
      </trkpt>
      <trkpt lat="43.31601" lon="5.67584">
        <ele>720</ele>
        <time>2019-11-29T08:20:30.000Z</time>
      </trkpt>
      <trkpt lat="43.31601" lon="5.67585">
        <ele>720</ele>
        <time>2019-11-29T08:20:31.000Z</time>
      </trkpt>
      <trkpt lat="43.316" lon="5.67585">
        <ele>720</ele>
        <time>2019-11-29T08:20:32.000Z</time>
      </trkpt>
      <trkpt lat="43.316" lon="5.67584">
        <ele>720</ele>
        <time>2019-11-29T08:20:33.000Z</time>
      </trkpt>
      <trkpt lat="43.316" lon="5.67584">
        <ele>720</ele>
        <time>2019-11-29T08:20:34.000Z</time>
      </trkpt>
      <trkpt lat="43.31599" lon="5.67584">
        <ele>720</ele>
        <time>2019-11-29T08:20:35.000Z</time>
      </trkpt>
      <trkpt lat="43.31599" lon="5.67584">
        <ele>720</ele>
        <time>2019-11-29T08:20:36.000Z</time>
      </trkpt>
      <trkpt lat="43.31599" lon="5.67585">
        <ele>720</ele>
        <time>2019-11-29T08:20:37.000Z</time>
      </trkpt>
      <trkpt lat="43.31598" lon="5.67585">
        <ele>720</ele>
        <time>2019-11-29T08:20:38.000Z</time>
      </trkpt>
      <trkpt lat="43.31598" lon="5.67585">
        <ele>720</ele>
        <time>2019-11-29T08:20:39.000Z</time>
      </trkpt>
      <trkpt lat="43.31598" lon="5.67585">
        <ele>720</ele>
        <time>2019-11-29T08:20:40.000Z</time>
      </trkpt>
      <trkpt lat="43.31597" lon="5.67585">
        <ele>720</ele>
        <time>2019-11-29T08:20:41.000Z</time>
      </trkpt>
      <trkpt lat="43.31597" lon="5.67585">
        <ele>720</ele>
        <time>2019-11-29T08:20:42.000Z</time>
      </trkpt>
      <trkpt lat="43.31596" lon="5.67585">
        <ele>720</ele>
        <time>2019-11-29T08:20:43.000Z</time>
      </trkpt>
      <trkpt lat="43.31596" lon="5.67584">
        <ele>720</ele>
        <time>2019-11-29T08:20:44.000Z</time>
      </trkpt>
      <trkpt lat="43.31595" lon="5.67584">
        <ele>720</ele>
        <time>2019-11-29T08:20:45.000Z</time>
      </trkpt>
      <trkpt lat="43.31595" lon="5.67584">
        <ele>720</ele>
        <time>2019-11-29T08:20:46.000Z</time>
      </trkpt>
      <trkpt lat="43.31594" lon="5.67585">
        <ele>720</ele>
        <time>2019-11-29T08:20:47.000Z</time>
      </trkpt>
      <trkpt lat="43.31594" lon="5.67585">
        <ele>720</ele>
        <time>2019-11-29T08:20:48.000Z</time>
      </trkpt>
      <trkpt lat="43.31593" lon="5.67585">
        <ele>719</ele>
        <time>2019-11-29T08:20:49.000Z</time>
      </trkpt>
      <trkpt lat="43.31592" lon="5.67585">
        <ele>719</ele>
        <time>2019-11-29T08:20:50.000Z</time>
      </trkpt>
      <trkpt lat="43.31592" lon="5.67585">
        <ele>719</ele>
        <time>2019-11-29T08:20:51.000Z</time>
      </trkpt>
      <trkpt lat="43.31591" lon="5.67585">
        <ele>719</ele>
        <time>2019-11-29T08:20:52.000Z</time>
      </trkpt>
      <trkpt lat="43.31591" lon="5.67585">
        <ele>719</ele>
        <time>2019-11-29T08:20:53.000Z</time>
      </trkpt>
      <trkpt lat="43.3159" lon="5.67585">
        <ele>719</ele>
        <time>2019-11-29T08:20:54.000Z</time>
      </trkpt>
      <trkpt lat="43.3159" lon="5.67585">
        <ele>718</ele>
        <time>2019-11-29T08:20:55.000Z</time>
      </trkpt>
      <trkpt lat="43.31589" lon="5.67585">
        <ele>718</ele>
        <time>2019-11-29T08:20:56.000Z</time>
      </trkpt>
      <trkpt lat="43.31588" lon="5.67585">
        <ele>718</ele>
        <time>2019-11-29T08:20:57.000Z</time>
      </trkpt>
      <trkpt lat="43.31587" lon="5.67585">
        <ele>718</ele>
        <time>2019-11-29T08:20:58.000Z</time>
      </trkpt>
      <trkpt lat="43.31587" lon="5.67584">
        <ele>717</ele>
        <time>2019-11-29T08:20:59.000Z</time>
      </trkpt>
      <trkpt lat="43.31586" lon="5.67584">
        <ele>717</ele>
        <time>2019-11-29T08:21:00.000Z</time>
      </trkpt>
      <trkpt lat="43.31585" lon="5.67584">
        <ele>717</ele>
        <time>2019-11-29T08:21:01.000Z</time>
      </trkpt>
      <trkpt lat="43.31585" lon="5.67584">
        <ele>717</ele>
        <time>2019-11-29T08:21:02.000Z</time>
      </trkpt>
      <trkpt lat="43.31584" lon="5.67584">
        <ele>717</ele>
        <time>2019-11-29T08:21:03.000Z</time>
      </trkpt>
      <trkpt lat="43.31584" lon="5.67585">
        <ele>717</ele>
        <time>2019-11-29T08:21:04.000Z</time>
      </trkpt>
      <trkpt lat="43.31583" lon="5.67585">
        <ele>716</ele>
        <time>2019-11-29T08:21:05.000Z</time>
      </trkpt>
      <trkpt lat="43.31583" lon="5.67585">
        <ele>716</ele>
        <time>2019-11-29T08:21:06.000Z</time>
      </trkpt>
      <trkpt lat="43.31582" lon="5.67586">
        <ele>716</ele>
        <time>2019-11-29T08:21:07.000Z</time>
      </trkpt>
      <trkpt lat="43.31582" lon="5.67586">
        <ele>716</ele>
        <time>2019-11-29T08:21:08.000Z</time>
      </trkpt>
      <trkpt lat="43.31582" lon="5.67587">
        <ele>716</ele>
        <time>2019-11-29T08:21:09.000Z</time>
      </trkpt>
      <trkpt lat="43.31581" lon="5.67588">
        <ele>715</ele>
        <time>2019-11-29T08:21:10.000Z</time>
      </trkpt>
      <trkpt lat="43.31581" lon="5.67588">
        <ele>715</ele>
        <time>2019-11-29T08:21:11.000Z</time>
      </trkpt>
      <trkpt lat="43.3158" lon="5.67589">
        <ele>715</ele>
        <time>2019-11-29T08:21:12.000Z</time>
      </trkpt>
      <trkpt lat="43.31579" lon="5.67589">
        <ele>715</ele>
        <time>2019-11-29T08:21:13.000Z</time>
      </trkpt>
      <trkpt lat="43.31579" lon="5.6759">
        <ele>715</ele>
        <time>2019-11-29T08:21:14.000Z</time>
      </trkpt>
      <trkpt lat="43.31578" lon="5.6759">
        <ele>715</ele>
        <time>2019-11-29T08:21:15.000Z</time>
      </trkpt>
      <trkpt lat="43.31577" lon="5.6759">
        <ele>715</ele>
        <time>2019-11-29T08:21:16.000Z</time>
      </trkpt>
      <trkpt lat="43.31577" lon="5.6759">
        <ele>714</ele>
        <time>2019-11-29T08:21:17.000Z</time>
      </trkpt>
      <trkpt lat="43.31576" lon="5.67591">
        <ele>714</ele>
        <time>2019-11-29T08:21:18.000Z</time>
      </trkpt>
      <trkpt lat="43.31576" lon="5.67592">
        <ele>714</ele>
        <time>2019-11-29T08:21:19.000Z</time>
      </trkpt>
      <trkpt lat="43.31575" lon="5.67592">
        <ele>714</ele>
        <time>2019-11-29T08:21:20.000Z</time>
      </trkpt>
      <trkpt lat="43.31575" lon="5.67593">
        <ele>714</ele>
        <time>2019-11-29T08:21:21.000Z</time>
      </trkpt>
      <trkpt lat="43.31575" lon="5.67593">
        <ele>714</ele>
        <time>2019-11-29T08:21:22.000Z</time>
      </trkpt>
      <trkpt lat="43.31575" lon="5.67594">
        <ele>714</ele>
        <time>2019-11-29T08:21:23.000Z</time>
      </trkpt>
      <trkpt lat="43.31575" lon="5.67595">
        <ele>714</ele>
        <time>2019-11-29T08:21:24.000Z</time>
      </trkpt>
      <trkpt lat="43.31574" lon="5.67595">
        <ele>713</ele>
        <time>2019-11-29T08:21:25.000Z</time>
      </trkpt>
      <trkpt lat="43.31573" lon="5.67596">
        <ele>713</ele>
        <time>2019-11-29T08:21:26.000Z</time>
      </trkpt>
      <trkpt lat="43.31573" lon="5.67597">
        <ele>713</ele>
        <time>2019-11-29T08:21:27.000Z</time>
      </trkpt>
      <trkpt lat="43.31572" lon="5.67598">
        <ele>713</ele>
        <time>2019-11-29T08:21:28.000Z</time>
      </trkpt>
      <trkpt lat="43.31571" lon="5.67599">
        <ele>713</ele>
        <time>2019-11-29T08:21:29.000Z</time>
      </trkpt>
      <trkpt lat="43.31569" lon="5.67599">
        <ele>713</ele>
        <time>2019-11-29T08:21:30.000Z</time>
      </trkpt>
      <trkpt lat="43.31568" lon="5.67599">
        <ele>712</ele>
        <time>2019-11-29T08:21:31.000Z</time>
      </trkpt>
      <trkpt lat="43.31567" lon="5.67598">
        <ele>712</ele>
        <time>2019-11-29T08:21:32.000Z</time>
      </trkpt>
      <trkpt lat="43.31567" lon="5.67597">
        <ele>712</ele>
        <time>2019-11-29T08:21:33.000Z</time>
      </trkpt>
      <trkpt lat="43.31566" lon="5.67598">
        <ele>712</ele>
        <time>2019-11-29T08:21:34.000Z</time>
      </trkpt>
      <trkpt lat="43.31565" lon="5.67597">
        <ele>712</ele>
        <time>2019-11-29T08:21:35.000Z</time>
      </trkpt>
      <trkpt lat="43.31564" lon="5.67598">
        <ele>712</ele>
        <time>2019-11-29T08:21:36.000Z</time>
      </trkpt>
      <trkpt lat="43.31563" lon="5.67598">
        <ele>712</ele>
        <time>2019-11-29T08:21:37.000Z</time>
      </trkpt>
      <trkpt lat="43.31563" lon="5.67597">
        <ele>711</ele>
        <time>2019-11-29T08:21:38.000Z</time>
      </trkpt>
      <trkpt lat="43.31562" lon="5.67597">
        <ele>711</ele>
        <time>2019-11-29T08:21:39.000Z</time>
      </trkpt>
      <trkpt lat="43.31561" lon="5.67598">
        <ele>711</ele>
        <time>2019-11-29T08:21:40.000Z</time>
      </trkpt>
      <trkpt lat="43.31561" lon="5.67598">
        <ele>711</ele>
        <time>2019-11-29T08:21:41.000Z</time>
      </trkpt>
      <trkpt lat="43.3156" lon="5.67598">
        <ele>711</ele>
        <time>2019-11-29T08:21:42.000Z</time>
      </trkpt>
      <trkpt lat="43.31559" lon="5.67598">
        <ele>711</ele>
        <time>2019-11-29T08:21:43.000Z</time>
      </trkpt>
      <trkpt lat="43.31559" lon="5.67598">
        <ele>711</ele>
        <time>2019-11-29T08:21:44.000Z</time>
      </trkpt>
      <trkpt lat="43.31558" lon="5.67599">
        <ele>710</ele>
        <time>2019-11-29T08:21:45.000Z</time>
      </trkpt>
      <trkpt lat="43.31557" lon="5.67599">
        <ele>710</ele>
        <time>2019-11-29T08:21:46.000Z</time>
      </trkpt>
      <trkpt lat="43.31557" lon="5.67599">
        <ele>710</ele>
        <time>2019-11-29T08:21:47.000Z</time>
      </trkpt>
      <trkpt lat="43.31556" lon="5.67599">
        <ele>710</ele>
        <time>2019-11-29T08:21:48.000Z</time>
      </trkpt>
      <trkpt lat="43.31555" lon="5.67599">
        <ele>710</ele>
        <time>2019-11-29T08:21:49.000Z</time>
      </trkpt>
      <trkpt lat="43.31554" lon="5.67598">
        <ele>710</ele>
        <time>2019-11-29T08:21:50.000Z</time>
      </trkpt>
      <trkpt lat="43.31554" lon="5.67598">
        <ele>710</ele>
        <time>2019-11-29T08:21:51.000Z</time>
      </trkpt>
      <trkpt lat="43.31553" lon="5.67598">
        <ele>709</ele>
        <time>2019-11-29T08:21:52.000Z</time>
      </trkpt>
      <trkpt lat="43.31552" lon="5.67598">
        <ele>709</ele>
        <time>2019-11-29T08:21:53.000Z</time>
      </trkpt>
      <trkpt lat="43.31551" lon="5.67598">
        <ele>709</ele>
        <time>2019-11-29T08:21:54.000Z</time>
      </trkpt>
      <trkpt lat="43.31549" lon="5.67598">
        <ele>709</ele>
        <time>2019-11-29T08:21:55.000Z</time>
      </trkpt>
      <trkpt lat="43.31548" lon="5.67598">
        <ele>709</ele>
        <time>2019-11-29T08:21:56.000Z</time>
      </trkpt>
      <trkpt lat="43.31547" lon="5.67598">
        <ele>708</ele>
        <time>2019-11-29T08:21:57.000Z</time>
      </trkpt>
      <trkpt lat="43.31547" lon="5.67597">
        <ele>708</ele>
        <time>2019-11-29T08:21:58.000Z</time>
      </trkpt>
      <trkpt lat="43.31546" lon="5.67597">
        <ele>708</ele>
        <time>2019-11-29T08:21:59.000Z</time>
      </trkpt>
      <trkpt lat="43.31546" lon="5.67596">
        <ele>708</ele>
        <time>2019-11-29T08:22:00.000Z</time>
      </trkpt>
      <trkpt lat="43.31545" lon="5.67595">
        <ele>707</ele>
        <time>2019-11-29T08:22:01.000Z</time>
      </trkpt>
      <trkpt lat="43.31544" lon="5.67594">
        <ele>707</ele>
        <time>2019-11-29T08:22:02.000Z</time>
      </trkpt>
      <trkpt lat="43.31543" lon="5.67594">
        <ele>707</ele>
        <time>2019-11-29T08:22:03.000Z</time>
      </trkpt>
      <trkpt lat="43.31542" lon="5.67593">
        <ele>707</ele>
        <time>2019-11-29T08:22:04.000Z</time>
      </trkpt>
      <trkpt lat="43.3154" lon="5.67593">
        <ele>707</ele>
        <time>2019-11-29T08:22:05.000Z</time>
      </trkpt>
      <trkpt lat="43.31539" lon="5.67592">
        <ele>706</ele>
        <time>2019-11-29T08:22:06.000Z</time>
      </trkpt>
      <trkpt lat="43.31538" lon="5.67592">
        <ele>706</ele>
        <time>2019-11-29T08:22:07.000Z</time>
      </trkpt>
      <trkpt lat="43.31537" lon="5.67592">
        <ele>706</ele>
        <time>2019-11-29T08:22:08.000Z</time>
      </trkpt>
      <trkpt lat="43.31537" lon="5.67591">
        <ele>705</ele>
        <time>2019-11-29T08:22:09.000Z</time>
      </trkpt>
      <trkpt lat="43.31536" lon="5.67591">
        <ele>705</ele>
        <time>2019-11-29T08:22:10.000Z</time>
      </trkpt>
      <trkpt lat="43.31536" lon="5.67591">
        <ele>705</ele>
        <time>2019-11-29T08:22:11.000Z</time>
      </trkpt>
      <trkpt lat="43.31535" lon="5.67592">
        <ele>705</ele>
        <time>2019-11-29T08:22:12.000Z</time>
      </trkpt>
      <trkpt lat="43.31535" lon="5.67592">
        <ele>704</ele>
        <time>2019-11-29T08:22:13.000Z</time>
      </trkpt>
      <trkpt lat="43.31535" lon="5.67592">
        <ele>704</ele>
        <time>2019-11-29T08:22:14.000Z</time>
      </trkpt>
      <trkpt lat="43.31534" lon="5.67592">
        <ele>704</ele>
        <time>2019-11-29T08:22:15.000Z</time>
      </trkpt>
      <trkpt lat="43.31534" lon="5.67592">
        <ele>704</ele>
        <time>2019-11-29T08:22:16.000Z</time>
      </trkpt>
      <trkpt lat="43.31533" lon="5.67592">
        <ele>703</ele>
        <time>2019-11-29T08:22:17.000Z</time>
      </trkpt>
      <trkpt lat="43.31533" lon="5.67592">
        <ele>703</ele>
        <time>2019-11-29T08:22:18.000Z</time>
      </trkpt>
      <trkpt lat="43.31532" lon="5.67592">
        <ele>703</ele>
        <time>2019-11-29T08:22:19.000Z</time>
      </trkpt>
      <trkpt lat="43.31531" lon="5.67592">
        <ele>702</ele>
        <time>2019-11-29T08:22:20.000Z</time>
      </trkpt>
      <trkpt lat="43.3153" lon="5.67591">
        <ele>702</ele>
        <time>2019-11-29T08:22:21.000Z</time>
      </trkpt>
      <trkpt lat="43.31529" lon="5.67591">
        <ele>702</ele>
        <time>2019-11-29T08:22:22.000Z</time>
      </trkpt>
      <trkpt lat="43.31529" lon="5.67591">
        <ele>702</ele>
        <time>2019-11-29T08:22:23.000Z</time>
      </trkpt>
      <trkpt lat="43.31528" lon="5.67591">
        <ele>702</ele>
        <time>2019-11-29T08:22:24.000Z</time>
      </trkpt>
      <trkpt lat="43.31528" lon="5.67591">
        <ele>701</ele>
        <time>2019-11-29T08:22:25.000Z</time>
      </trkpt>
      <trkpt lat="43.31527" lon="5.67592">
        <ele>701</ele>
        <time>2019-11-29T08:22:26.000Z</time>
      </trkpt>
      <trkpt lat="43.31527" lon="5.67592">
        <ele>701</ele>
        <time>2019-11-29T08:22:27.000Z</time>
      </trkpt>
      <trkpt lat="43.31527" lon="5.67592">
        <ele>701</ele>
        <time>2019-11-29T08:22:28.000Z</time>
      </trkpt>
      <trkpt lat="43.31527" lon="5.67593">
        <ele>701</ele>
        <time>2019-11-29T08:22:29.000Z</time>
      </trkpt>
      <trkpt lat="43.31526" lon="5.67593">
        <ele>701</ele>
        <time>2019-11-29T08:22:30.000Z</time>
      </trkpt>
      <trkpt lat="43.31526" lon="5.67593">
        <ele>701</ele>
        <time>2019-11-29T08:22:31.000Z</time>
      </trkpt>
      <trkpt lat="43.31526" lon="5.67593">
        <ele>701</ele>
        <time>2019-11-29T08:22:32.000Z</time>
      </trkpt>
      <trkpt lat="43.31526" lon="5.67592">
        <ele>701</ele>
        <time>2019-11-29T08:22:33.000Z</time>
      </trkpt>
      <trkpt lat="43.31526" lon="5.67592">
        <ele>700</ele>
        <time>2019-11-29T08:22:34.000Z</time>
      </trkpt>
      <trkpt lat="43.31526" lon="5.67592">
        <ele>700</ele>
        <time>2019-11-29T08:22:35.000Z</time>
      </trkpt>
      <trkpt lat="43.31526" lon="5.67592">
        <ele>700</ele>
        <time>2019-11-29T08:22:36.000Z</time>
      </trkpt>
      <trkpt lat="43.31526" lon="5.67592">
        <ele>700</ele>
        <time>2019-11-29T08:22:37.000Z</time>
      </trkpt>
      <trkpt lat="43.31526" lon="5.67592">
        <ele>700</ele>
        <time>2019-11-29T08:22:38.000Z</time>
      </trkpt>
      <trkpt lat="43.31526" lon="5.67592">
        <ele>700</ele>
        <time>2019-11-29T08:22:39.000Z</time>
      </trkpt>
      <trkpt lat="43.31526" lon="5.67592">
        <ele>700</ele>
        <time>2019-11-29T08:22:40.000Z</time>
      </trkpt>
      <trkpt lat="43.31526" lon="5.67591">
        <ele>700</ele>
        <time>2019-11-29T08:22:41.000Z</time>
      </trkpt>
      <trkpt lat="43.31526" lon="5.67592">
        <ele>700</ele>
        <time>2019-11-29T08:22:42.000Z</time>
      </trkpt>
      <trkpt lat="43.31526" lon="5.67592">
        <ele>700</ele>
        <time>2019-11-29T08:22:43.000Z</time>
      </trkpt>
      <trkpt lat="43.31526" lon="5.67592">
        <ele>700</ele>
        <time>2019-11-29T08:22:44.000Z</time>
      </trkpt>
      <trkpt lat="43.31526" lon="5.67591">
        <ele>700</ele>
        <time>2019-11-29T08:22:45.000Z</time>
      </trkpt>
      <trkpt lat="43.31526" lon="5.67591">
        <ele>700</ele>
        <time>2019-11-29T08:22:46.000Z</time>
      </trkpt>
      <trkpt lat="43.31525" lon="5.67591">
        <ele>700</ele>
        <time>2019-11-29T08:22:47.000Z</time>
      </trkpt>
      <trkpt lat="43.31525" lon="5.67591">
        <ele>700</ele>
        <time>2019-11-29T08:22:48.000Z</time>
      </trkpt>
      <trkpt lat="43.31525" lon="5.67591">
        <ele>700</ele>
        <time>2019-11-29T08:22:49.000Z</time>
      </trkpt>
      <trkpt lat="43.31525" lon="5.67591">
        <ele>700</ele>
        <time>2019-11-29T08:22:50.000Z</time>
      </trkpt>
      <trkpt lat="43.31525" lon="5.67591">
        <ele>700</ele>
        <time>2019-11-29T08:22:51.000Z</time>
      </trkpt>
      <trkpt lat="43.31525" lon="5.6759">
        <ele>700</ele>
        <time>2019-11-29T08:22:52.000Z</time>
      </trkpt>
      <trkpt lat="43.31524" lon="5.6759">
        <ele>700</ele>
        <time>2019-11-29T08:22:53.000Z</time>
      </trkpt>
      <trkpt lat="43.31524" lon="5.6759">
        <ele>700</ele>
        <time>2019-11-29T08:22:54.000Z</time>
      </trkpt>
      <trkpt lat="43.31524" lon="5.6759">
        <ele>700</ele>
        <time>2019-11-29T08:22:55.000Z</time>
      </trkpt>
      <trkpt lat="43.31524" lon="5.6759">
        <ele>700</ele>
        <time>2019-11-29T08:22:56.000Z</time>
      </trkpt>
      <trkpt lat="43.31524" lon="5.6759">
        <ele>700</ele>
        <time>2019-11-29T08:22:57.000Z</time>
      </trkpt>
      <trkpt lat="43.31524" lon="5.6759">
        <ele>700</ele>
        <time>2019-11-29T08:22:58.000Z</time>
      </trkpt>
      <trkpt lat="43.31524" lon="5.6759">
        <ele>700</ele>
        <time>2019-11-29T08:22:59.000Z</time>
      </trkpt>
      <trkpt lat="43.31524" lon="5.6759">
        <ele>700</ele>
        <time>2019-11-29T08:23:00.000Z</time>
      </trkpt>
      <trkpt lat="43.31524" lon="5.6759">
        <ele>700</ele>
        <time>2019-11-29T08:23:01.000Z</time>
      </trkpt>
      <trkpt lat="43.31523" lon="5.6759">
        <ele>700</ele>
        <time>2019-11-29T08:23:02.000Z</time>
      </trkpt>
      <trkpt lat="43.31523" lon="5.6759">
        <ele>700</ele>
        <time>2019-11-29T08:23:03.000Z</time>
      </trkpt>
      <trkpt lat="43.31522" lon="5.67589">
        <ele>700</ele>
        <time>2019-11-29T08:23:04.000Z</time>
      </trkpt>
      <trkpt lat="43.31521" lon="5.67589">
        <ele>700</ele>
        <time>2019-11-29T08:23:05.000Z</time>
      </trkpt>
      <trkpt lat="43.31521" lon="5.67589">
        <ele>700</ele>
        <time>2019-11-29T08:23:06.000Z</time>
      </trkpt>
      <trkpt lat="43.31521" lon="5.67588">
        <ele>700</ele>
        <time>2019-11-29T08:23:07.000Z</time>
      </trkpt>
      <trkpt lat="43.31521" lon="5.67587">
        <ele>700</ele>
        <time>2019-11-29T08:23:08.000Z</time>
      </trkpt>
      <trkpt lat="43.31521" lon="5.67586">
        <ele>700</ele>
        <time>2019-11-29T08:23:09.000Z</time>
      </trkpt>
      <trkpt lat="43.31521" lon="5.67584">
        <ele>700</ele>
        <time>2019-11-29T08:23:10.000Z</time>
      </trkpt>
      <trkpt lat="43.31521" lon="5.67583">
        <ele>700</ele>
        <time>2019-11-29T08:23:11.000Z</time>
      </trkpt>
      <trkpt lat="43.31521" lon="5.67582">
        <ele>700</ele>
        <time>2019-11-29T08:23:12.000Z</time>
      </trkpt>
      <trkpt lat="43.31521" lon="5.67581">
        <ele>700</ele>
        <time>2019-11-29T08:23:13.000Z</time>
      </trkpt>
      <trkpt lat="43.31521" lon="5.6758">
        <ele>700</ele>
        <time>2019-11-29T08:23:14.000Z</time>
      </trkpt>
      <trkpt lat="43.31521" lon="5.67579">
        <ele>700</ele>
        <time>2019-11-29T08:23:15.000Z</time>
      </trkpt>
      <trkpt lat="43.31521" lon="5.67578">
        <ele>700</ele>
        <time>2019-11-29T08:23:16.000Z</time>
      </trkpt>
      <trkpt lat="43.31521" lon="5.67577">
        <ele>700</ele>
        <time>2019-11-29T08:23:17.000Z</time>
      </trkpt>
      <trkpt lat="43.31521" lon="5.67575">
        <ele>700</ele>
        <time>2019-11-29T08:23:18.000Z</time>
      </trkpt>
      <trkpt lat="43.31521" lon="5.67574">
        <ele>700</ele>
        <time>2019-11-29T08:23:19.000Z</time>
      </trkpt>
      <trkpt lat="43.31521" lon="5.67572">
        <ele>700</ele>
        <time>2019-11-29T08:23:20.000Z</time>
      </trkpt>
      <trkpt lat="43.31521" lon="5.67571">
        <ele>700</ele>
        <time>2019-11-29T08:23:21.000Z</time>
      </trkpt>
      <trkpt lat="43.3152" lon="5.6757">
        <ele>700</ele>
        <time>2019-11-29T08:23:22.000Z</time>
      </trkpt>
      <trkpt lat="43.3152" lon="5.67568">
        <ele>699</ele>
        <time>2019-11-29T08:23:23.000Z</time>
      </trkpt>
      <trkpt lat="43.3152" lon="5.67567">
        <ele>699</ele>
        <time>2019-11-29T08:23:24.000Z</time>
      </trkpt>
      <trkpt lat="43.3152" lon="5.67565">
        <ele>699</ele>
        <time>2019-11-29T08:23:25.000Z</time>
      </trkpt>
      <trkpt lat="43.3152" lon="5.67564">
        <ele>699</ele>
        <time>2019-11-29T08:23:26.000Z</time>
      </trkpt>
      <trkpt lat="43.3152" lon="5.67563">
        <ele>699</ele>
        <time>2019-11-29T08:23:27.000Z</time>
      </trkpt>
      <trkpt lat="43.3152" lon="5.67562">
        <ele>699</ele>
        <time>2019-11-29T08:23:28.000Z</time>
      </trkpt>
      <trkpt lat="43.31519" lon="5.67561">
        <ele>699</ele>
        <time>2019-11-29T08:23:29.000Z</time>
      </trkpt>
      <trkpt lat="43.31519" lon="5.67561">
        <ele>699</ele>
        <time>2019-11-29T08:23:30.000Z</time>
      </trkpt>
      <trkpt lat="43.31519" lon="5.6756">
        <ele>699</ele>
        <time>2019-11-29T08:23:31.000Z</time>
      </trkpt>
      <trkpt lat="43.31518" lon="5.67559">
        <ele>699</ele>
        <time>2019-11-29T08:23:32.000Z</time>
      </trkpt>
      <trkpt lat="43.31518" lon="5.67559">
        <ele>699</ele>
        <time>2019-11-29T08:23:33.000Z</time>
      </trkpt>
      <trkpt lat="43.31517" lon="5.67558">
        <ele>698</ele>
        <time>2019-11-29T08:23:34.000Z</time>
      </trkpt>
      <trkpt lat="43.31517" lon="5.67557">
        <ele>698</ele>
        <time>2019-11-29T08:23:35.000Z</time>
      </trkpt>
      <trkpt lat="43.31516" lon="5.67556">
        <ele>698</ele>
        <time>2019-11-29T08:23:36.000Z</time>
      </trkpt>
      <trkpt lat="43.31516" lon="5.67556">
        <ele>698</ele>
        <time>2019-11-29T08:23:37.000Z</time>
      </trkpt>
      <trkpt lat="43.31515" lon="5.67555">
        <ele>698</ele>
        <time>2019-11-29T08:23:38.000Z</time>
      </trkpt>
      <trkpt lat="43.31514" lon="5.67554">
        <ele>698</ele>
        <time>2019-11-29T08:23:39.000Z</time>
      </trkpt>
      <trkpt lat="43.31513" lon="5.67553">
        <ele>698</ele>
        <time>2019-11-29T08:23:40.000Z</time>
      </trkpt>
      <trkpt lat="43.31512" lon="5.67552">
        <ele>698</ele>
        <time>2019-11-29T08:23:41.000Z</time>
      </trkpt>
      <trkpt lat="43.31511" lon="5.67551">
        <ele>698</ele>
        <time>2019-11-29T08:23:42.000Z</time>
      </trkpt>
      <trkpt lat="43.3151" lon="5.67549">
        <ele>698</ele>
        <time>2019-11-29T08:23:43.000Z</time>
      </trkpt>
      <trkpt lat="43.31509" lon="5.67548">
        <ele>698</ele>
        <time>2019-11-29T08:23:44.000Z</time>
      </trkpt>
      <trkpt lat="43.31508" lon="5.67547">
        <ele>698</ele>
        <time>2019-11-29T08:23:45.000Z</time>
      </trkpt>
      <trkpt lat="43.31507" lon="5.67546">
        <ele>698</ele>
        <time>2019-11-29T08:23:46.000Z</time>
      </trkpt>
      <trkpt lat="43.31507" lon="5.67546">
        <ele>697</ele>
        <time>2019-11-29T08:23:47.000Z</time>
      </trkpt>
      <trkpt lat="43.31506" lon="5.67545">
        <ele>697</ele>
        <time>2019-11-29T08:23:48.000Z</time>
      </trkpt>
      <trkpt lat="43.31505" lon="5.67545">
        <ele>697</ele>
        <time>2019-11-29T08:23:49.000Z</time>
      </trkpt>
      <trkpt lat="43.31504" lon="5.67544">
        <ele>697</ele>
        <time>2019-11-29T08:23:50.000Z</time>
      </trkpt>
      <trkpt lat="43.31503" lon="5.67543">
        <ele>696</ele>
        <time>2019-11-29T08:23:51.000Z</time>
      </trkpt>
      <trkpt lat="43.31502" lon="5.67542">
        <ele>696</ele>
        <time>2019-11-29T08:23:52.000Z</time>
      </trkpt>
      <trkpt lat="43.31502" lon="5.67541">
        <ele>696</ele>
        <time>2019-11-29T08:23:53.000Z</time>
      </trkpt>
      <trkpt lat="43.31501" lon="5.67541">
        <ele>696</ele>
        <time>2019-11-29T08:23:54.000Z</time>
      </trkpt>
      <trkpt lat="43.315" lon="5.6754">
        <ele>696</ele>
        <time>2019-11-29T08:23:55.000Z</time>
      </trkpt>
      <trkpt lat="43.31499" lon="5.67539">
        <ele>696</ele>
        <time>2019-11-29T08:23:56.000Z</time>
      </trkpt>
      <trkpt lat="43.31498" lon="5.67538">
        <ele>696</ele>
        <time>2019-11-29T08:23:57.000Z</time>
      </trkpt>
      <trkpt lat="43.31497" lon="5.67538">
        <ele>695</ele>
        <time>2019-11-29T08:23:58.000Z</time>
      </trkpt>
      <trkpt lat="43.31497" lon="5.67537">
        <ele>695</ele>
        <time>2019-11-29T08:23:59.000Z</time>
      </trkpt>
      <trkpt lat="43.31496" lon="5.67536">
        <ele>695</ele>
        <time>2019-11-29T08:24:00.000Z</time>
      </trkpt>
      <trkpt lat="43.31496" lon="5.67535">
        <ele>695</ele>
        <time>2019-11-29T08:24:01.000Z</time>
      </trkpt>
      <trkpt lat="43.31496" lon="5.67534">
        <ele>695</ele>
        <time>2019-11-29T08:24:02.000Z</time>
      </trkpt>
      <trkpt lat="43.31497" lon="5.67533">
        <ele>695</ele>
        <time>2019-11-29T08:24:03.000Z</time>
      </trkpt>
      <trkpt lat="43.31496" lon="5.67532">
        <ele>695</ele>
        <time>2019-11-29T08:24:04.000Z</time>
      </trkpt>
      <trkpt lat="43.31496" lon="5.67531">
        <ele>695</ele>
        <time>2019-11-29T08:24:05.000Z</time>
      </trkpt>
      <trkpt lat="43.31495" lon="5.6753">
        <ele>694</ele>
        <time>2019-11-29T08:24:06.000Z</time>
      </trkpt>
      <trkpt lat="43.31495" lon="5.67529">
        <ele>694</ele>
        <time>2019-11-29T08:24:07.000Z</time>
      </trkpt>
      <trkpt lat="43.31494" lon="5.67528">
        <ele>694</ele>
        <time>2019-11-29T08:24:08.000Z</time>
      </trkpt>
      <trkpt lat="43.31493" lon="5.67528">
        <ele>694</ele>
        <time>2019-11-29T08:24:09.000Z</time>
      </trkpt>
      <trkpt lat="43.31493" lon="5.67527">
        <ele>694</ele>
        <time>2019-11-29T08:24:10.000Z</time>
      </trkpt>
      <trkpt lat="43.31492" lon="5.67526">
        <ele>693</ele>
        <time>2019-11-29T08:24:11.000Z</time>
      </trkpt>
      <trkpt lat="43.31491" lon="5.67525">
        <ele>693</ele>
        <time>2019-11-29T08:24:12.000Z</time>
      </trkpt>
      <trkpt lat="43.31491" lon="5.67524">
        <ele>693</ele>
        <time>2019-11-29T08:24:13.000Z</time>
      </trkpt>
      <trkpt lat="43.3149" lon="5.67523">
        <ele>693</ele>
        <time>2019-11-29T08:24:14.000Z</time>
      </trkpt>
      <trkpt lat="43.3149" lon="5.67523">
        <ele>693</ele>
        <time>2019-11-29T08:24:15.000Z</time>
      </trkpt>
      <trkpt lat="43.31489" lon="5.67523">
        <ele>693</ele>
        <time>2019-11-29T08:24:16.000Z</time>
      </trkpt>
      <trkpt lat="43.31489" lon="5.67522">
        <ele>693</ele>
        <time>2019-11-29T08:24:17.000Z</time>
      </trkpt>
      <trkpt lat="43.31488" lon="5.67522">
        <ele>692</ele>
        <time>2019-11-29T08:24:18.000Z</time>
      </trkpt>
      <trkpt lat="43.31488" lon="5.6752">
        <ele>692</ele>
        <time>2019-11-29T08:24:19.000Z</time>
      </trkpt>
      <trkpt lat="43.31488" lon="5.67519">
        <ele>692</ele>
        <time>2019-11-29T08:24:20.000Z</time>
      </trkpt>
      <trkpt lat="43.31488" lon="5.67518">
        <ele>692</ele>
        <time>2019-11-29T08:24:21.000Z</time>
      </trkpt>
      <trkpt lat="43.31487" lon="5.67518">
        <ele>692</ele>
        <time>2019-11-29T08:24:22.000Z</time>
      </trkpt>
      <trkpt lat="43.31487" lon="5.67518">
        <ele>692</ele>
        <time>2019-11-29T08:24:23.000Z</time>
      </trkpt>
      <trkpt lat="43.31486" lon="5.67517">
        <ele>692</ele>
        <time>2019-11-29T08:24:24.000Z</time>
      </trkpt>
      <trkpt lat="43.31486" lon="5.67516">
        <ele>692</ele>
        <time>2019-11-29T08:24:25.000Z</time>
      </trkpt>
      <trkpt lat="43.31485" lon="5.67516">
        <ele>692</ele>
        <time>2019-11-29T08:24:26.000Z</time>
      </trkpt>
      <trkpt lat="43.31485" lon="5.67515">
        <ele>692</ele>
        <time>2019-11-29T08:24:27.000Z</time>
      </trkpt>
      <trkpt lat="43.31485" lon="5.67515">
        <ele>692</ele>
        <time>2019-11-29T08:24:28.000Z</time>
      </trkpt>
      <trkpt lat="43.31484" lon="5.67514">
        <ele>692</ele>
        <time>2019-11-29T08:24:29.000Z</time>
      </trkpt>
      <trkpt lat="43.31483" lon="5.67514">
        <ele>692</ele>
        <time>2019-11-29T08:24:30.000Z</time>
      </trkpt>
      <trkpt lat="43.31482" lon="5.67514">
        <ele>692</ele>
        <time>2019-11-29T08:24:31.000Z</time>
      </trkpt>
      <trkpt lat="43.31481" lon="5.67513">
        <ele>692</ele>
        <time>2019-11-29T08:24:32.000Z</time>
      </trkpt>
      <trkpt lat="43.31481" lon="5.67513">
        <ele>691</ele>
        <time>2019-11-29T08:24:33.000Z</time>
      </trkpt>
      <trkpt lat="43.3148" lon="5.67512">
        <ele>691</ele>
        <time>2019-11-29T08:24:34.000Z</time>
      </trkpt>
      <trkpt lat="43.3148" lon="5.67512">
        <ele>691</ele>
        <time>2019-11-29T08:24:35.000Z</time>
      </trkpt>
      <trkpt lat="43.31479" lon="5.67511">
        <ele>691</ele>
        <time>2019-11-29T08:24:36.000Z</time>
      </trkpt>
      <trkpt lat="43.31478" lon="5.67511">
        <ele>691</ele>
        <time>2019-11-29T08:24:37.000Z</time>
      </trkpt>
      <trkpt lat="43.31478" lon="5.6751">
        <ele>691</ele>
        <time>2019-11-29T08:24:38.000Z</time>
      </trkpt>
      <trkpt lat="43.31477" lon="5.67509">
        <ele>690</ele>
        <time>2019-11-29T08:24:39.000Z</time>
      </trkpt>
      <trkpt lat="43.31476" lon="5.67509">
        <ele>690</ele>
        <time>2019-11-29T08:24:40.000Z</time>
      </trkpt>
      <trkpt lat="43.31476" lon="5.67508">
        <ele>690</ele>
        <time>2019-11-29T08:24:41.000Z</time>
      </trkpt>
      <trkpt lat="43.31475" lon="5.67507">
        <ele>690</ele>
        <time>2019-11-29T08:24:42.000Z</time>
      </trkpt>
      <trkpt lat="43.31475" lon="5.67507">
        <ele>690</ele>
        <time>2019-11-29T08:24:43.000Z</time>
      </trkpt>
      <trkpt lat="43.31474" lon="5.67506">
        <ele>689</ele>
        <time>2019-11-29T08:24:44.000Z</time>
      </trkpt>
      <trkpt lat="43.31473" lon="5.67506">
        <ele>689</ele>
        <time>2019-11-29T08:24:45.000Z</time>
      </trkpt>
      <trkpt lat="43.31473" lon="5.67505">
        <ele>689</ele>
        <time>2019-11-29T08:24:46.000Z</time>
      </trkpt>
      <trkpt lat="43.31472" lon="5.67505">
        <ele>689</ele>
        <time>2019-11-29T08:24:47.000Z</time>
      </trkpt>
      <trkpt lat="43.31471" lon="5.67505">
        <ele>689</ele>
        <time>2019-11-29T08:24:48.000Z</time>
      </trkpt>
      <trkpt lat="43.3147" lon="5.67504">
        <ele>689</ele>
        <time>2019-11-29T08:24:49.000Z</time>
      </trkpt>
      <trkpt lat="43.31469" lon="5.67504">
        <ele>689</ele>
        <time>2019-11-29T08:24:50.000Z</time>
      </trkpt>
      <trkpt lat="43.31469" lon="5.67503">
        <ele>689</ele>
        <time>2019-11-29T08:24:51.000Z</time>
      </trkpt>
      <trkpt lat="43.31468" lon="5.67503">
        <ele>689</ele>
        <time>2019-11-29T08:24:52.000Z</time>
      </trkpt>
      <trkpt lat="43.31467" lon="5.67502">
        <ele>689</ele>
        <time>2019-11-29T08:24:53.000Z</time>
      </trkpt>
      <trkpt lat="43.31466" lon="5.67502">
        <ele>688</ele>
        <time>2019-11-29T08:24:54.000Z</time>
      </trkpt>
      <trkpt lat="43.31465" lon="5.67501">
        <ele>688</ele>
        <time>2019-11-29T08:24:55.000Z</time>
      </trkpt>
      <trkpt lat="43.31465" lon="5.67501">
        <ele>688</ele>
        <time>2019-11-29T08:24:56.000Z</time>
      </trkpt>
      <trkpt lat="43.31464" lon="5.675">
        <ele>688</ele>
        <time>2019-11-29T08:24:57.000Z</time>
      </trkpt>
      <trkpt lat="43.31464" lon="5.67499">
        <ele>688</ele>
        <time>2019-11-29T08:24:58.000Z</time>
      </trkpt>
      <trkpt lat="43.31463" lon="5.67499">
        <ele>688</ele>
        <time>2019-11-29T08:24:59.000Z</time>
      </trkpt>
      <trkpt lat="43.31463" lon="5.67498">
        <ele>687</ele>
        <time>2019-11-29T08:25:00.000Z</time>
      </trkpt>
      <trkpt lat="43.31462" lon="5.67498">
        <ele>687</ele>
        <time>2019-11-29T08:25:01.000Z</time>
      </trkpt>
      <trkpt lat="43.31461" lon="5.67497">
        <ele>687</ele>
        <time>2019-11-29T08:25:02.000Z</time>
      </trkpt>
      <trkpt lat="43.3146" lon="5.67497">
        <ele>687</ele>
        <time>2019-11-29T08:25:03.000Z</time>
      </trkpt>
      <trkpt lat="43.31459" lon="5.67496">
        <ele>687</ele>
        <time>2019-11-29T08:25:04.000Z</time>
      </trkpt>
      <trkpt lat="43.31459" lon="5.67496">
        <ele>687</ele>
        <time>2019-11-29T08:25:05.000Z</time>
      </trkpt>
      <trkpt lat="43.31458" lon="5.67495">
        <ele>687</ele>
        <time>2019-11-29T08:25:06.000Z</time>
      </trkpt>
      <trkpt lat="43.31457" lon="5.67494">
        <ele>687</ele>
        <time>2019-11-29T08:25:07.000Z</time>
      </trkpt>
      <trkpt lat="43.31456" lon="5.67493">
        <ele>687</ele>
        <time>2019-11-29T08:25:08.000Z</time>
      </trkpt>
      <trkpt lat="43.31456" lon="5.67492">
        <ele>687</ele>
        <time>2019-11-29T08:25:09.000Z</time>
      </trkpt>
      <trkpt lat="43.31455" lon="5.67491">
        <ele>687</ele>
        <time>2019-11-29T08:25:10.000Z</time>
      </trkpt>
      <trkpt lat="43.31454" lon="5.6749">
        <ele>687</ele>
        <time>2019-11-29T08:25:11.000Z</time>
      </trkpt>
      <trkpt lat="43.31453" lon="5.6749">
        <ele>687</ele>
        <time>2019-11-29T08:25:12.000Z</time>
      </trkpt>
      <trkpt lat="43.31452" lon="5.67489">
        <ele>687</ele>
        <time>2019-11-29T08:25:13.000Z</time>
      </trkpt>
      <trkpt lat="43.31451" lon="5.67488">
        <ele>687</ele>
        <time>2019-11-29T08:25:14.000Z</time>
      </trkpt>
      <trkpt lat="43.3145" lon="5.67487">
        <ele>687</ele>
        <time>2019-11-29T08:25:15.000Z</time>
      </trkpt>
      <trkpt lat="43.3145" lon="5.67486">
        <ele>687</ele>
        <time>2019-11-29T08:25:16.000Z</time>
      </trkpt>
      <trkpt lat="43.31449" lon="5.67486">
        <ele>686</ele>
        <time>2019-11-29T08:25:17.000Z</time>
      </trkpt>
      <trkpt lat="43.31448" lon="5.67485">
        <ele>686</ele>
        <time>2019-11-29T08:25:18.000Z</time>
      </trkpt>
      <trkpt lat="43.31447" lon="5.67485">
        <ele>686</ele>
        <time>2019-11-29T08:25:19.000Z</time>
      </trkpt>
      <trkpt lat="43.31447" lon="5.67485">
        <ele>686</ele>
        <time>2019-11-29T08:25:20.000Z</time>
      </trkpt>
      <trkpt lat="43.31447" lon="5.67485">
        <ele>686</ele>
        <time>2019-11-29T08:25:21.000Z</time>
      </trkpt>
      <trkpt lat="43.31447" lon="5.67486">
        <ele>686</ele>
        <time>2019-11-29T08:25:22.000Z</time>
      </trkpt>
      <trkpt lat="43.31446" lon="5.67487">
        <ele>686</ele>
        <time>2019-11-29T08:25:23.000Z</time>
      </trkpt>
      <trkpt lat="43.31446" lon="5.67487">
        <ele>686</ele>
        <time>2019-11-29T08:25:24.000Z</time>
      </trkpt>
      <trkpt lat="43.31445" lon="5.67486">
        <ele>686</ele>
        <time>2019-11-29T08:25:25.000Z</time>
      </trkpt>
      <trkpt lat="43.31444" lon="5.67486">
        <ele>686</ele>
        <time>2019-11-29T08:25:26.000Z</time>
      </trkpt>
      <trkpt lat="43.31444" lon="5.67485">
        <ele>686</ele>
        <time>2019-11-29T08:25:27.000Z</time>
      </trkpt>
      <trkpt lat="43.31444" lon="5.67484">
        <ele>686</ele>
        <time>2019-11-29T08:25:28.000Z</time>
      </trkpt>
      <trkpt lat="43.31443" lon="5.67483">
        <ele>686</ele>
        <time>2019-11-29T08:25:29.000Z</time>
      </trkpt>
      <trkpt lat="43.31442" lon="5.67482">
        <ele>686</ele>
        <time>2019-11-29T08:25:30.000Z</time>
      </trkpt>
      <trkpt lat="43.31442" lon="5.67481">
        <ele>686</ele>
        <time>2019-11-29T08:25:31.000Z</time>
      </trkpt>
      <trkpt lat="43.31441" lon="5.6748">
        <ele>686</ele>
        <time>2019-11-29T08:25:32.000Z</time>
      </trkpt>
      <trkpt lat="43.3144" lon="5.67479">
        <ele>686</ele>
        <time>2019-11-29T08:25:33.000Z</time>
      </trkpt>
      <trkpt lat="43.31439" lon="5.67479">
        <ele>686</ele>
        <time>2019-11-29T08:25:34.000Z</time>
      </trkpt>
      <trkpt lat="43.31438" lon="5.67478">
        <ele>686</ele>
        <time>2019-11-29T08:25:35.000Z</time>
      </trkpt>
      <trkpt lat="43.31437" lon="5.67478">
        <ele>686</ele>
        <time>2019-11-29T08:25:36.000Z</time>
      </trkpt>
      <trkpt lat="43.31436" lon="5.67477">
        <ele>685</ele>
        <time>2019-11-29T08:25:37.000Z</time>
      </trkpt>
      <trkpt lat="43.31435" lon="5.67476">
        <ele>685</ele>
        <time>2019-11-29T08:25:38.000Z</time>
      </trkpt>
      <trkpt lat="43.31434" lon="5.67476">
        <ele>685</ele>
        <time>2019-11-29T08:25:39.000Z</time>
      </trkpt>
      <trkpt lat="43.31433" lon="5.67475">
        <ele>685</ele>
        <time>2019-11-29T08:25:40.000Z</time>
      </trkpt>
      <trkpt lat="43.31432" lon="5.67474">
        <ele>684</ele>
        <time>2019-11-29T08:25:41.000Z</time>
      </trkpt>
      <trkpt lat="43.31431" lon="5.67473">
        <ele>684</ele>
        <time>2019-11-29T08:25:42.000Z</time>
      </trkpt>
      <trkpt lat="43.3143" lon="5.67473">
        <ele>684</ele>
        <time>2019-11-29T08:25:43.000Z</time>
      </trkpt>
      <trkpt lat="43.31429" lon="5.67472">
        <ele>683</ele>
        <time>2019-11-29T08:25:44.000Z</time>
      </trkpt>
      <trkpt lat="43.31428" lon="5.67472">
        <ele>683</ele>
        <time>2019-11-29T08:25:45.000Z</time>
      </trkpt>
      <trkpt lat="43.31426" lon="5.67472">
        <ele>683</ele>
        <time>2019-11-29T08:25:46.000Z</time>
      </trkpt>
      <trkpt lat="43.31426" lon="5.67472">
        <ele>683</ele>
        <time>2019-11-29T08:25:47.000Z</time>
      </trkpt>
      <trkpt lat="43.31426" lon="5.67472">
        <ele>683</ele>
        <time>2019-11-29T08:25:48.000Z</time>
      </trkpt>
      <trkpt lat="43.31425" lon="5.67472">
        <ele>682</ele>
        <time>2019-11-29T08:25:49.000Z</time>
      </trkpt>
      <trkpt lat="43.31425" lon="5.67473">
        <ele>682</ele>
        <time>2019-11-29T08:25:50.000Z</time>
      </trkpt>
      <trkpt lat="43.31424" lon="5.67475">
        <ele>682</ele>
        <time>2019-11-29T08:25:51.000Z</time>
      </trkpt>
      <trkpt lat="43.31423" lon="5.67476">
        <ele>682</ele>
        <time>2019-11-29T08:25:52.000Z</time>
      </trkpt>
      <trkpt lat="43.31423" lon="5.67477">
        <ele>682</ele>
        <time>2019-11-29T08:25:53.000Z</time>
      </trkpt>
      <trkpt lat="43.31422" lon="5.67478">
        <ele>682</ele>
        <time>2019-11-29T08:25:54.000Z</time>
      </trkpt>
      <trkpt lat="43.31422" lon="5.6748">
        <ele>682</ele>
        <time>2019-11-29T08:25:55.000Z</time>
      </trkpt>
      <trkpt lat="43.31422" lon="5.67481">
        <ele>682</ele>
        <time>2019-11-29T08:25:56.000Z</time>
      </trkpt>
      <trkpt lat="43.31422" lon="5.67483">
        <ele>682</ele>
        <time>2019-11-29T08:25:57.000Z</time>
      </trkpt>
      <trkpt lat="43.31421" lon="5.67484">
        <ele>682</ele>
        <time>2019-11-29T08:25:58.000Z</time>
      </trkpt>
      <trkpt lat="43.31421" lon="5.67485">
        <ele>682</ele>
        <time>2019-11-29T08:25:59.000Z</time>
      </trkpt>
      <trkpt lat="43.3142" lon="5.67486">
        <ele>682</ele>
        <time>2019-11-29T08:26:00.000Z</time>
      </trkpt>
      <trkpt lat="43.3142" lon="5.67488">
        <ele>682</ele>
        <time>2019-11-29T08:26:01.000Z</time>
      </trkpt>
      <trkpt lat="43.31419" lon="5.67489">
        <ele>682</ele>
        <time>2019-11-29T08:26:02.000Z</time>
      </trkpt>
      <trkpt lat="43.31419" lon="5.6749">
        <ele>682</ele>
        <time>2019-11-29T08:26:03.000Z</time>
      </trkpt>
      <trkpt lat="43.31418" lon="5.67492">
        <ele>682</ele>
        <time>2019-11-29T08:26:04.000Z</time>
      </trkpt>
      <trkpt lat="43.31417" lon="5.67493">
        <ele>682</ele>
        <time>2019-11-29T08:26:05.000Z</time>
      </trkpt>
      <trkpt lat="43.31417" lon="5.67494">
        <ele>682</ele>
        <time>2019-11-29T08:26:06.000Z</time>
      </trkpt>
      <trkpt lat="43.31416" lon="5.67495">
        <ele>682</ele>
        <time>2019-11-29T08:26:07.000Z</time>
      </trkpt>
      <trkpt lat="43.31415" lon="5.67495">
        <ele>682</ele>
        <time>2019-11-29T08:26:08.000Z</time>
      </trkpt>
      <trkpt lat="43.31414" lon="5.67496">
        <ele>682</ele>
        <time>2019-11-29T08:26:09.000Z</time>
      </trkpt>
      <trkpt lat="43.31414" lon="5.67497">
        <ele>682</ele>
        <time>2019-11-29T08:26:10.000Z</time>
      </trkpt>
      <trkpt lat="43.31413" lon="5.67497">
        <ele>682</ele>
        <time>2019-11-29T08:26:11.000Z</time>
      </trkpt>
      <trkpt lat="43.31413" lon="5.67496">
        <ele>682</ele>
        <time>2019-11-29T08:26:12.000Z</time>
      </trkpt>
      <trkpt lat="43.31412" lon="5.67496">
        <ele>682</ele>
        <time>2019-11-29T08:26:13.000Z</time>
      </trkpt>
      <trkpt lat="43.31412" lon="5.67496">
        <ele>682</ele>
        <time>2019-11-29T08:26:14.000Z</time>
      </trkpt>
      <trkpt lat="43.31412" lon="5.67496">
        <ele>682</ele>
        <time>2019-11-29T08:26:15.000Z</time>
      </trkpt>
      <trkpt lat="43.31412" lon="5.67496">
        <ele>682</ele>
        <time>2019-11-29T08:26:16.000Z</time>
      </trkpt>
      <trkpt lat="43.31412" lon="5.67496">
        <ele>682</ele>
        <time>2019-11-29T08:26:17.000Z</time>
      </trkpt>
      <trkpt lat="43.31412" lon="5.67496">
        <ele>682</ele>
        <time>2019-11-29T08:26:18.000Z</time>
      </trkpt>
      <trkpt lat="43.31411" lon="5.67496">
        <ele>682</ele>
        <time>2019-11-29T08:26:19.000Z</time>
      </trkpt>
      <trkpt lat="43.31411" lon="5.67496">
        <ele>682</ele>
        <time>2019-11-29T08:26:20.000Z</time>
      </trkpt>
      <trkpt lat="43.31411" lon="5.67496">
        <ele>682</ele>
        <time>2019-11-29T08:26:21.000Z</time>
      </trkpt>
      <trkpt lat="43.3141" lon="5.67496">
        <ele>682</ele>
        <time>2019-11-29T08:26:22.000Z</time>
      </trkpt>
      <trkpt lat="43.3141" lon="5.67497">
        <ele>682</ele>
        <time>2019-11-29T08:26:23.000Z</time>
      </trkpt>
      <trkpt lat="43.31409" lon="5.67498">
        <ele>682</ele>
        <time>2019-11-29T08:26:24.000Z</time>
      </trkpt>
      <trkpt lat="43.31408" lon="5.67499">
        <ele>682</ele>
        <time>2019-11-29T08:26:25.000Z</time>
      </trkpt>
      <trkpt lat="43.31408" lon="5.67499">
        <ele>682</ele>
        <time>2019-11-29T08:26:26.000Z</time>
      </trkpt>
      <trkpt lat="43.31407" lon="5.67499">
        <ele>682</ele>
        <time>2019-11-29T08:26:27.000Z</time>
      </trkpt>
      <trkpt lat="43.31406" lon="5.67499">
        <ele>682</ele>
        <time>2019-11-29T08:26:28.000Z</time>
      </trkpt>
      <trkpt lat="43.31405" lon="5.67499">
        <ele>682</ele>
        <time>2019-11-29T08:26:29.000Z</time>
      </trkpt>
      <trkpt lat="43.31404" lon="5.67498">
        <ele>682</ele>
        <time>2019-11-29T08:26:30.000Z</time>
      </trkpt>
      <trkpt lat="43.31404" lon="5.67498">
        <ele>682</ele>
        <time>2019-11-29T08:26:31.000Z</time>
      </trkpt>
      <trkpt lat="43.31403" lon="5.67498">
        <ele>682</ele>
        <time>2019-11-29T08:26:32.000Z</time>
      </trkpt>
      <trkpt lat="43.31402" lon="5.67499">
        <ele>682</ele>
        <time>2019-11-29T08:26:33.000Z</time>
      </trkpt>
      <trkpt lat="43.31402" lon="5.67498">
        <ele>682</ele>
        <time>2019-11-29T08:26:34.000Z</time>
      </trkpt>
      <trkpt lat="43.31401" lon="5.67498">
        <ele>682</ele>
        <time>2019-11-29T08:26:35.000Z</time>
      </trkpt>
      <trkpt lat="43.314" lon="5.67498">
        <ele>682</ele>
        <time>2019-11-29T08:26:36.000Z</time>
      </trkpt>
      <trkpt lat="43.314" lon="5.67498">
        <ele>682</ele>
        <time>2019-11-29T08:26:37.000Z</time>
      </trkpt>
      <trkpt lat="43.31399" lon="5.67498">
        <ele>682</ele>
        <time>2019-11-29T08:26:38.000Z</time>
      </trkpt>
      <trkpt lat="43.31398" lon="5.67498">
        <ele>681</ele>
        <time>2019-11-29T08:26:39.000Z</time>
      </trkpt>
      <trkpt lat="43.31397" lon="5.67499">
        <ele>681</ele>
        <time>2019-11-29T08:26:40.000Z</time>
      </trkpt>
      <trkpt lat="43.31396" lon="5.67499">
        <ele>681</ele>
        <time>2019-11-29T08:26:41.000Z</time>
      </trkpt>
      <trkpt lat="43.31395" lon="5.67499">
        <ele>681</ele>
        <time>2019-11-29T08:26:42.000Z</time>
      </trkpt>
      <trkpt lat="43.31394" lon="5.675">
        <ele>681</ele>
        <time>2019-11-29T08:26:43.000Z</time>
      </trkpt>
      <trkpt lat="43.31394" lon="5.67501">
        <ele>681</ele>
        <time>2019-11-29T08:26:44.000Z</time>
      </trkpt>
      <trkpt lat="43.31393" lon="5.67502">
        <ele>681</ele>
        <time>2019-11-29T08:26:45.000Z</time>
      </trkpt>
      <trkpt lat="43.31392" lon="5.67502">
        <ele>682</ele>
        <time>2019-11-29T08:26:46.000Z</time>
      </trkpt>
      <trkpt lat="43.31392" lon="5.67503">
        <ele>682</ele>
        <time>2019-11-29T08:26:47.000Z</time>
      </trkpt>
      <trkpt lat="43.31391" lon="5.67503">
        <ele>682</ele>
        <time>2019-11-29T08:26:48.000Z</time>
      </trkpt>
      <trkpt lat="43.3139" lon="5.67504">
        <ele>682</ele>
        <time>2019-11-29T08:26:49.000Z</time>
      </trkpt>
      <trkpt lat="43.31389" lon="5.67504">
        <ele>682</ele>
        <time>2019-11-29T08:26:50.000Z</time>
      </trkpt>
      <trkpt lat="43.31388" lon="5.67503">
        <ele>682</ele>
        <time>2019-11-29T08:26:51.000Z</time>
      </trkpt>
      <trkpt lat="43.31388" lon="5.67503">
        <ele>682</ele>
        <time>2019-11-29T08:26:52.000Z</time>
      </trkpt>
      <trkpt lat="43.31387" lon="5.67503">
        <ele>682</ele>
        <time>2019-11-29T08:26:53.000Z</time>
      </trkpt>
      <trkpt lat="43.31386" lon="5.67503">
        <ele>682</ele>
        <time>2019-11-29T08:26:54.000Z</time>
      </trkpt>
      <trkpt lat="43.31385" lon="5.67503">
        <ele>682</ele>
        <time>2019-11-29T08:26:55.000Z</time>
      </trkpt>
      <trkpt lat="43.31385" lon="5.67503">
        <ele>682</ele>
        <time>2019-11-29T08:26:56.000Z</time>
      </trkpt>
      <trkpt lat="43.31385" lon="5.67503">
        <ele>682</ele>
        <time>2019-11-29T08:26:57.000Z</time>
      </trkpt>
      <trkpt lat="43.31385" lon="5.67503">
        <ele>682</ele>
        <time>2019-11-29T08:26:58.000Z</time>
      </trkpt>
      <trkpt lat="43.31384" lon="5.67504">
        <ele>682</ele>
        <time>2019-11-29T08:26:59.000Z</time>
      </trkpt>
      <trkpt lat="43.31383" lon="5.67504">
        <ele>682</ele>
        <time>2019-11-29T08:27:00.000Z</time>
      </trkpt>
      <trkpt lat="43.31383" lon="5.67504">
        <ele>682</ele>
        <time>2019-11-29T08:27:01.000Z</time>
      </trkpt>
      <trkpt lat="43.31382" lon="5.67503">
        <ele>682</ele>
        <time>2019-11-29T08:27:02.000Z</time>
      </trkpt>
      <trkpt lat="43.31382" lon="5.67503">
        <ele>681</ele>
        <time>2019-11-29T08:27:03.000Z</time>
      </trkpt>
      <trkpt lat="43.31381" lon="5.67502">
        <ele>681</ele>
        <time>2019-11-29T08:27:04.000Z</time>
      </trkpt>
      <trkpt lat="43.31381" lon="5.67502">
        <ele>681</ele>
        <time>2019-11-29T08:27:05.000Z</time>
      </trkpt>
      <trkpt lat="43.3138" lon="5.67502">
        <ele>681</ele>
        <time>2019-11-29T08:27:06.000Z</time>
      </trkpt>
      <trkpt lat="43.3138" lon="5.67502">
        <ele>682</ele>
        <time>2019-11-29T08:27:07.000Z</time>
      </trkpt>
      <trkpt lat="43.31379" lon="5.67502">
        <ele>682</ele>
        <time>2019-11-29T08:27:08.000Z</time>
      </trkpt>
      <trkpt lat="43.31379" lon="5.67502">
        <ele>682</ele>
        <time>2019-11-29T08:27:09.000Z</time>
      </trkpt>
      <trkpt lat="43.31379" lon="5.67502">
        <ele>682</ele>
        <time>2019-11-29T08:27:10.000Z</time>
      </trkpt>
      <trkpt lat="43.31379" lon="5.67501">
        <ele>682</ele>
        <time>2019-11-29T08:27:11.000Z</time>
      </trkpt>
      <trkpt lat="43.31378" lon="5.67502">
        <ele>682</ele>
        <time>2019-11-29T08:27:12.000Z</time>
      </trkpt>
      <trkpt lat="43.31378" lon="5.67502">
        <ele>682</ele>
        <time>2019-11-29T08:27:13.000Z</time>
      </trkpt>
      <trkpt lat="43.31378" lon="5.67502">
        <ele>682</ele>
        <time>2019-11-29T08:27:14.000Z</time>
      </trkpt>
      <trkpt lat="43.31377" lon="5.67503">
        <ele>682</ele>
        <time>2019-11-29T08:27:15.000Z</time>
      </trkpt>
      <trkpt lat="43.31377" lon="5.67503">
        <ele>682</ele>
        <time>2019-11-29T08:27:16.000Z</time>
      </trkpt>
      <trkpt lat="43.31376" lon="5.67503">
        <ele>682</ele>
        <time>2019-11-29T08:27:17.000Z</time>
      </trkpt>
      <trkpt lat="43.31376" lon="5.67503">
        <ele>682</ele>
        <time>2019-11-29T08:27:18.000Z</time>
      </trkpt>
      <trkpt lat="43.31376" lon="5.67503">
        <ele>682</ele>
        <time>2019-11-29T08:27:19.000Z</time>
      </trkpt>
      <trkpt lat="43.31376" lon="5.67504">
        <ele>682</ele>
        <time>2019-11-29T08:27:20.000Z</time>
      </trkpt>
      <trkpt lat="43.31375" lon="5.67504">
        <ele>682</ele>
        <time>2019-11-29T08:27:21.000Z</time>
      </trkpt>
      <trkpt lat="43.31375" lon="5.67505">
        <ele>682</ele>
        <time>2019-11-29T08:27:22.000Z</time>
      </trkpt>
      <trkpt lat="43.31375" lon="5.67505">
        <ele>682</ele>
        <time>2019-11-29T08:27:23.000Z</time>
      </trkpt>
      <trkpt lat="43.31374" lon="5.67505">
        <ele>682</ele>
        <time>2019-11-29T08:27:24.000Z</time>
      </trkpt>
      <trkpt lat="43.31374" lon="5.67506">
        <ele>682</ele>
        <time>2019-11-29T08:27:25.000Z</time>
      </trkpt>
      <trkpt lat="43.31374" lon="5.67506">
        <ele>682</ele>
        <time>2019-11-29T08:27:26.000Z</time>
      </trkpt>
      <trkpt lat="43.31374" lon="5.67507">
        <ele>682</ele>
        <time>2019-11-29T08:27:27.000Z</time>
      </trkpt>
      <trkpt lat="43.31374" lon="5.67507">
        <ele>682</ele>
        <time>2019-11-29T08:27:28.000Z</time>
      </trkpt>
      <trkpt lat="43.31374" lon="5.67507">
        <ele>682</ele>
        <time>2019-11-29T08:27:29.000Z</time>
      </trkpt>
      <trkpt lat="43.31374" lon="5.67507">
        <ele>682</ele>
        <time>2019-11-29T08:27:30.000Z</time>
      </trkpt>
      <trkpt lat="43.31374" lon="5.67507">
        <ele>682</ele>
        <time>2019-11-29T08:27:31.000Z</time>
      </trkpt>
      <trkpt lat="43.31374" lon="5.67508">
        <ele>682</ele>
        <time>2019-11-29T08:27:32.000Z</time>
      </trkpt>
      <trkpt lat="43.31373" lon="5.67508">
        <ele>682</ele>
        <time>2019-11-29T08:27:33.000Z</time>
      </trkpt>
      <trkpt lat="43.31373" lon="5.67509">
        <ele>682</ele>
        <time>2019-11-29T08:27:34.000Z</time>
      </trkpt>
      <trkpt lat="43.31372" lon="5.67509">
        <ele>682</ele>
        <time>2019-11-29T08:27:35.000Z</time>
      </trkpt>
      <trkpt lat="43.31372" lon="5.67509">
        <ele>682</ele>
        <time>2019-11-29T08:27:36.000Z</time>
      </trkpt>
      <trkpt lat="43.31371" lon="5.67509">
        <ele>682</ele>
        <time>2019-11-29T08:27:37.000Z</time>
      </trkpt>
      <trkpt lat="43.31371" lon="5.67509">
        <ele>682</ele>
        <time>2019-11-29T08:27:38.000Z</time>
      </trkpt>
      <trkpt lat="43.31371" lon="5.67509">
        <ele>682</ele>
        <time>2019-11-29T08:27:39.000Z</time>
      </trkpt>
      <trkpt lat="43.31371" lon="5.67509">
        <ele>682</ele>
        <time>2019-11-29T08:27:40.000Z</time>
      </trkpt>
      <trkpt lat="43.31371" lon="5.6751">
        <ele>682</ele>
        <time>2019-11-29T08:27:41.000Z</time>
      </trkpt>
      <trkpt lat="43.31371" lon="5.6751">
        <ele>682</ele>
        <time>2019-11-29T08:27:42.000Z</time>
      </trkpt>
      <trkpt lat="43.31371" lon="5.6751">
        <ele>682</ele>
        <time>2019-11-29T08:27:43.000Z</time>
      </trkpt>
      <trkpt lat="43.31371" lon="5.6751">
        <ele>682</ele>
        <time>2019-11-29T08:27:44.000Z</time>
      </trkpt>
      <trkpt lat="43.3137" lon="5.67511">
        <ele>682</ele>
        <time>2019-11-29T08:27:45.000Z</time>
      </trkpt>
      <trkpt lat="43.3137" lon="5.67512">
        <ele>682</ele>
        <time>2019-11-29T08:27:46.000Z</time>
      </trkpt>
      <trkpt lat="43.3137" lon="5.67513">
        <ele>682</ele>
        <time>2019-11-29T08:27:47.000Z</time>
      </trkpt>
      <trkpt lat="43.3137" lon="5.67513">
        <ele>682</ele>
        <time>2019-11-29T08:27:48.000Z</time>
      </trkpt>
      <trkpt lat="43.3137" lon="5.67514">
        <ele>681</ele>
        <time>2019-11-29T08:27:49.000Z</time>
      </trkpt>
      <trkpt lat="43.3137" lon="5.67515">
        <ele>681</ele>
        <time>2019-11-29T08:27:50.000Z</time>
      </trkpt>
      <trkpt lat="43.3137" lon="5.67515">
        <ele>681</ele>
        <time>2019-11-29T08:27:51.000Z</time>
      </trkpt>
      <trkpt lat="43.31369" lon="5.67516">
        <ele>681</ele>
        <time>2019-11-29T08:27:52.000Z</time>
      </trkpt>
      <trkpt lat="43.31369" lon="5.67516">
        <ele>681</ele>
        <time>2019-11-29T08:27:53.000Z</time>
      </trkpt>
      <trkpt lat="43.31368" lon="5.67517">
        <ele>681</ele>
        <time>2019-11-29T08:27:54.000Z</time>
      </trkpt>
      <trkpt lat="43.31368" lon="5.67517">
        <ele>681</ele>
        <time>2019-11-29T08:27:55.000Z</time>
      </trkpt>
      <trkpt lat="43.31368" lon="5.67517">
        <ele>681</ele>
        <time>2019-11-29T08:27:56.000Z</time>
      </trkpt>
      <trkpt lat="43.31367" lon="5.67518">
        <ele>681</ele>
        <time>2019-11-29T08:27:57.000Z</time>
      </trkpt>
      <trkpt lat="43.31366" lon="5.67518">
        <ele>681</ele>
        <time>2019-11-29T08:27:58.000Z</time>
      </trkpt>
      <trkpt lat="43.31366" lon="5.67518">
        <ele>681</ele>
        <time>2019-11-29T08:27:59.000Z</time>
      </trkpt>
      <trkpt lat="43.31366" lon="5.67518">
        <ele>682</ele>
        <time>2019-11-29T08:28:00.000Z</time>
      </trkpt>
      <trkpt lat="43.31365" lon="5.67518">
        <ele>681</ele>
        <time>2019-11-29T08:28:01.000Z</time>
      </trkpt>
      <trkpt lat="43.31365" lon="5.67519">
        <ele>681</ele>
        <time>2019-11-29T08:28:02.000Z</time>
      </trkpt>
      <trkpt lat="43.31365" lon="5.67519">
        <ele>681</ele>
        <time>2019-11-29T08:28:03.000Z</time>
      </trkpt>
      <trkpt lat="43.31364" lon="5.6752">
        <ele>681</ele>
        <time>2019-11-29T08:28:04.000Z</time>
      </trkpt>
      <trkpt lat="43.31364" lon="5.67519">
        <ele>682</ele>
        <time>2019-11-29T08:28:05.000Z</time>
      </trkpt>
      <trkpt lat="43.31364" lon="5.67519">
        <ele>681</ele>
        <time>2019-11-29T08:28:06.000Z</time>
      </trkpt>
      <trkpt lat="43.31364" lon="5.6752">
        <ele>682</ele>
        <time>2019-11-29T08:28:07.000Z</time>
      </trkpt>
      <trkpt lat="43.31364" lon="5.6752">
        <ele>682</ele>
        <time>2019-11-29T08:28:08.000Z</time>
      </trkpt>
      <trkpt lat="43.31364" lon="5.6752">
        <ele>682</ele>
        <time>2019-11-29T08:28:09.000Z</time>
      </trkpt>
      <trkpt lat="43.31364" lon="5.67521">
        <ele>682</ele>
        <time>2019-11-29T08:28:10.000Z</time>
      </trkpt>
      <trkpt lat="43.31364" lon="5.67521">
        <ele>682</ele>
        <time>2019-11-29T08:28:11.000Z</time>
      </trkpt>
      <trkpt lat="43.31363" lon="5.67522">
        <ele>682</ele>
        <time>2019-11-29T08:28:12.000Z</time>
      </trkpt>
      <trkpt lat="43.31363" lon="5.67523">
        <ele>682</ele>
        <time>2019-11-29T08:28:13.000Z</time>
      </trkpt>
      <trkpt lat="43.31363" lon="5.67523">
        <ele>682</ele>
        <time>2019-11-29T08:28:14.000Z</time>
      </trkpt>
      <trkpt lat="43.31363" lon="5.67524">
        <ele>682</ele>
        <time>2019-11-29T08:28:15.000Z</time>
      </trkpt>
      <trkpt lat="43.31362" lon="5.67525">
        <ele>682</ele>
        <time>2019-11-29T08:28:16.000Z</time>
      </trkpt>
      <trkpt lat="43.31362" lon="5.67525">
        <ele>682</ele>
        <time>2019-11-29T08:28:17.000Z</time>
      </trkpt>
      <trkpt lat="43.31361" lon="5.67526">
        <ele>682</ele>
        <time>2019-11-29T08:28:18.000Z</time>
      </trkpt>
      <trkpt lat="43.31361" lon="5.67526">
        <ele>682</ele>
        <time>2019-11-29T08:28:19.000Z</time>
      </trkpt>
      <trkpt lat="43.31361" lon="5.67526">
        <ele>682</ele>
        <time>2019-11-29T08:28:20.000Z</time>
      </trkpt>
      <trkpt lat="43.3136" lon="5.67527">
        <ele>682</ele>
        <time>2019-11-29T08:28:21.000Z</time>
      </trkpt>
      <trkpt lat="43.3136" lon="5.67528">
        <ele>682</ele>
        <time>2019-11-29T08:28:22.000Z</time>
      </trkpt>
      <trkpt lat="43.3136" lon="5.67529">
        <ele>682</ele>
        <time>2019-11-29T08:28:23.000Z</time>
      </trkpt>
      <trkpt lat="43.31359" lon="5.67529">
        <ele>682</ele>
        <time>2019-11-29T08:28:24.000Z</time>
      </trkpt>
      <trkpt lat="43.31359" lon="5.6753">
        <ele>682</ele>
        <time>2019-11-29T08:28:25.000Z</time>
      </trkpt>
      <trkpt lat="43.31359" lon="5.6753">
        <ele>682</ele>
        <time>2019-11-29T08:28:26.000Z</time>
      </trkpt>
      <trkpt lat="43.31358" lon="5.6753">
        <ele>682</ele>
        <time>2019-11-29T08:28:27.000Z</time>
      </trkpt>
      <trkpt lat="43.31358" lon="5.6753">
        <ele>682</ele>
        <time>2019-11-29T08:28:28.000Z</time>
      </trkpt>
      <trkpt lat="43.31357" lon="5.67529">
        <ele>682</ele>
        <time>2019-11-29T08:28:29.000Z</time>
      </trkpt>
      <trkpt lat="43.31357" lon="5.67529">
        <ele>682</ele>
        <time>2019-11-29T08:28:30.000Z</time>
      </trkpt>
      <trkpt lat="43.31356" lon="5.67529">
        <ele>682</ele>
        <time>2019-11-29T08:28:31.000Z</time>
      </trkpt>
      <trkpt lat="43.31355" lon="5.67529">
        <ele>682</ele>
        <time>2019-11-29T08:28:32.000Z</time>
      </trkpt>
      <trkpt lat="43.31354" lon="5.67529">
        <ele>682</ele>
        <time>2019-11-29T08:28:33.000Z</time>
      </trkpt>
      <trkpt lat="43.31354" lon="5.67528">
        <ele>682</ele>
        <time>2019-11-29T08:28:34.000Z</time>
      </trkpt>
      <trkpt lat="43.31353" lon="5.67528">
        <ele>682</ele>
        <time>2019-11-29T08:28:35.000Z</time>
      </trkpt>
      <trkpt lat="43.31352" lon="5.67527">
        <ele>682</ele>
        <time>2019-11-29T08:28:36.000Z</time>
      </trkpt>
      <trkpt lat="43.31351" lon="5.67527">
        <ele>682</ele>
        <time>2019-11-29T08:28:37.000Z</time>
      </trkpt>
      <trkpt lat="43.3135" lon="5.67526">
        <ele>682</ele>
        <time>2019-11-29T08:28:38.000Z</time>
      </trkpt>
      <trkpt lat="43.3135" lon="5.67526">
        <ele>681</ele>
        <time>2019-11-29T08:28:39.000Z</time>
      </trkpt>
      <trkpt lat="43.31349" lon="5.67526">
        <ele>681</ele>
        <time>2019-11-29T08:28:40.000Z</time>
      </trkpt>
      <trkpt lat="43.31348" lon="5.67526">
        <ele>681</ele>
        <time>2019-11-29T08:28:41.000Z</time>
      </trkpt>
      <trkpt lat="43.31348" lon="5.67525">
        <ele>681</ele>
        <time>2019-11-29T08:28:42.000Z</time>
      </trkpt>
      <trkpt lat="43.31347" lon="5.67524">
        <ele>681</ele>
        <time>2019-11-29T08:28:43.000Z</time>
      </trkpt>
      <trkpt lat="43.31346" lon="5.67523">
        <ele>681</ele>
        <time>2019-11-29T08:28:44.000Z</time>
      </trkpt>
      <trkpt lat="43.31346" lon="5.67522">
        <ele>681</ele>
        <time>2019-11-29T08:28:45.000Z</time>
      </trkpt>
      <trkpt lat="43.31345" lon="5.67522">
        <ele>681</ele>
        <time>2019-11-29T08:28:46.000Z</time>
      </trkpt>
      <trkpt lat="43.31345" lon="5.67521">
        <ele>681</ele>
        <time>2019-11-29T08:28:47.000Z</time>
      </trkpt>
      <trkpt lat="43.31344" lon="5.6752">
        <ele>680</ele>
        <time>2019-11-29T08:28:48.000Z</time>
      </trkpt>
      <trkpt lat="43.31344" lon="5.67519">
        <ele>680</ele>
        <time>2019-11-29T08:28:49.000Z</time>
      </trkpt>
      <trkpt lat="43.31343" lon="5.67518">
        <ele>680</ele>
        <time>2019-11-29T08:28:50.000Z</time>
      </trkpt>
      <trkpt lat="43.31342" lon="5.67518">
        <ele>680</ele>
        <time>2019-11-29T08:28:51.000Z</time>
      </trkpt>
      <trkpt lat="43.31342" lon="5.67517">
        <ele>680</ele>
        <time>2019-11-29T08:28:52.000Z</time>
      </trkpt>
      <trkpt lat="43.31341" lon="5.67517">
        <ele>680</ele>
        <time>2019-11-29T08:28:53.000Z</time>
      </trkpt>
      <trkpt lat="43.3134" lon="5.67517">
        <ele>680</ele>
        <time>2019-11-29T08:28:54.000Z</time>
      </trkpt>
      <trkpt lat="43.31339" lon="5.67517">
        <ele>680</ele>
        <time>2019-11-29T08:28:55.000Z</time>
      </trkpt>
      <trkpt lat="43.31338" lon="5.67516">
        <ele>680</ele>
        <time>2019-11-29T08:28:56.000Z</time>
      </trkpt>
      <trkpt lat="43.31338" lon="5.67516">
        <ele>680</ele>
        <time>2019-11-29T08:28:57.000Z</time>
      </trkpt>
      <trkpt lat="43.31337" lon="5.67516">
        <ele>680</ele>
        <time>2019-11-29T08:28:58.000Z</time>
      </trkpt>
      <trkpt lat="43.31336" lon="5.67514">
        <ele>680</ele>
        <time>2019-11-29T08:28:59.000Z</time>
      </trkpt>
      <trkpt lat="43.31336" lon="5.67513">
        <ele>679</ele>
        <time>2019-11-29T08:29:00.000Z</time>
      </trkpt>
      <trkpt lat="43.31335" lon="5.67512">
        <ele>679</ele>
        <time>2019-11-29T08:29:01.000Z</time>
      </trkpt>
      <trkpt lat="43.31335" lon="5.67511">
        <ele>679</ele>
        <time>2019-11-29T08:29:02.000Z</time>
      </trkpt>
      <trkpt lat="43.31334" lon="5.6751">
        <ele>679</ele>
        <time>2019-11-29T08:29:03.000Z</time>
      </trkpt>
      <trkpt lat="43.31334" lon="5.67509">
        <ele>679</ele>
        <time>2019-11-29T08:29:04.000Z</time>
      </trkpt>
      <trkpt lat="43.31333" lon="5.67509">
        <ele>679</ele>
        <time>2019-11-29T08:29:05.000Z</time>
      </trkpt>
      <trkpt lat="43.31332" lon="5.67508">
        <ele>678</ele>
        <time>2019-11-29T08:29:06.000Z</time>
      </trkpt>
      <trkpt lat="43.31331" lon="5.67508">
        <ele>678</ele>
        <time>2019-11-29T08:29:07.000Z</time>
      </trkpt>
      <trkpt lat="43.3133" lon="5.67508">
        <ele>678</ele>
        <time>2019-11-29T08:29:08.000Z</time>
      </trkpt>
      <trkpt lat="43.31329" lon="5.67507">
        <ele>678</ele>
        <time>2019-11-29T08:29:09.000Z</time>
      </trkpt>
      <trkpt lat="43.31328" lon="5.67507">
        <ele>678</ele>
        <time>2019-11-29T08:29:10.000Z</time>
      </trkpt>
      <trkpt lat="43.31327" lon="5.67507">
        <ele>678</ele>
        <time>2019-11-29T08:29:11.000Z</time>
      </trkpt>
      <trkpt lat="43.31326" lon="5.67506">
        <ele>678</ele>
        <time>2019-11-29T08:29:12.000Z</time>
      </trkpt>
      <trkpt lat="43.31325" lon="5.67505">
        <ele>678</ele>
        <time>2019-11-29T08:29:13.000Z</time>
      </trkpt>
      <trkpt lat="43.31324" lon="5.67504">
        <ele>677</ele>
        <time>2019-11-29T08:29:14.000Z</time>
      </trkpt>
      <trkpt lat="43.31324" lon="5.67504">
        <ele>677</ele>
        <time>2019-11-29T08:29:15.000Z</time>
      </trkpt>
      <trkpt lat="43.31323" lon="5.67503">
        <ele>677</ele>
        <time>2019-11-29T08:29:16.000Z</time>
      </trkpt>
      <trkpt lat="43.31322" lon="5.67502">
        <ele>677</ele>
        <time>2019-11-29T08:29:17.000Z</time>
      </trkpt>
      <trkpt lat="43.31321" lon="5.67501">
        <ele>677</ele>
        <time>2019-11-29T08:29:18.000Z</time>
      </trkpt>
      <trkpt lat="43.31321" lon="5.675">
        <ele>677</ele>
        <time>2019-11-29T08:29:19.000Z</time>
      </trkpt>
      <trkpt lat="43.3132" lon="5.67499">
        <ele>677</ele>
        <time>2019-11-29T08:29:20.000Z</time>
      </trkpt>
      <trkpt lat="43.31319" lon="5.67498">
        <ele>677</ele>
        <time>2019-11-29T08:29:21.000Z</time>
      </trkpt>
      <trkpt lat="43.31319" lon="5.67497">
        <ele>677</ele>
        <time>2019-11-29T08:29:22.000Z</time>
      </trkpt>
      <trkpt lat="43.31318" lon="5.67496">
        <ele>676</ele>
        <time>2019-11-29T08:29:23.000Z</time>
      </trkpt>
      <trkpt lat="43.31317" lon="5.67495">
        <ele>676</ele>
        <time>2019-11-29T08:29:24.000Z</time>
      </trkpt>
      <trkpt lat="43.31317" lon="5.67495">
        <ele>676</ele>
        <time>2019-11-29T08:29:25.000Z</time>
      </trkpt>
      <trkpt lat="43.31316" lon="5.67494">
        <ele>676</ele>
        <time>2019-11-29T08:29:26.000Z</time>
      </trkpt>
      <trkpt lat="43.31315" lon="5.67493">
        <ele>676</ele>
        <time>2019-11-29T08:29:27.000Z</time>
      </trkpt>
      <trkpt lat="43.31314" lon="5.67492">
        <ele>676</ele>
        <time>2019-11-29T08:29:28.000Z</time>
      </trkpt>
      <trkpt lat="43.31314" lon="5.67491">
        <ele>676</ele>
        <time>2019-11-29T08:29:29.000Z</time>
      </trkpt>
      <trkpt lat="43.31313" lon="5.6749">
        <ele>676</ele>
        <time>2019-11-29T08:29:30.000Z</time>
      </trkpt>
      <trkpt lat="43.31312" lon="5.67489">
        <ele>676</ele>
        <time>2019-11-29T08:29:31.000Z</time>
      </trkpt>
      <trkpt lat="43.31311" lon="5.67488">
        <ele>675</ele>
        <time>2019-11-29T08:29:32.000Z</time>
      </trkpt>
      <trkpt lat="43.31311" lon="5.67487">
        <ele>675</ele>
        <time>2019-11-29T08:29:33.000Z</time>
      </trkpt>
      <trkpt lat="43.3131" lon="5.67486">
        <ele>675</ele>
        <time>2019-11-29T08:29:34.000Z</time>
      </trkpt>
      <trkpt lat="43.3131" lon="5.67485">
        <ele>675</ele>
        <time>2019-11-29T08:29:35.000Z</time>
      </trkpt>
      <trkpt lat="43.31309" lon="5.67484">
        <ele>675</ele>
        <time>2019-11-29T08:29:36.000Z</time>
      </trkpt>
      <trkpt lat="43.31309" lon="5.67484">
        <ele>675</ele>
        <time>2019-11-29T08:29:37.000Z</time>
      </trkpt>
      <trkpt lat="43.31308" lon="5.67484">
        <ele>675</ele>
        <time>2019-11-29T08:29:38.000Z</time>
      </trkpt>
      <trkpt lat="43.31307" lon="5.67483">
        <ele>675</ele>
        <time>2019-11-29T08:29:39.000Z</time>
      </trkpt>
      <trkpt lat="43.31307" lon="5.67483">
        <ele>675</ele>
        <time>2019-11-29T08:29:40.000Z</time>
      </trkpt>
      <trkpt lat="43.31306" lon="5.67483">
        <ele>675</ele>
        <time>2019-11-29T08:29:41.000Z</time>
      </trkpt>
      <trkpt lat="43.31305" lon="5.67482">
        <ele>674</ele>
        <time>2019-11-29T08:29:42.000Z</time>
      </trkpt>
      <trkpt lat="43.31304" lon="5.67481">
        <ele>674</ele>
        <time>2019-11-29T08:29:43.000Z</time>
      </trkpt>
      <trkpt lat="43.31304" lon="5.6748">
        <ele>674</ele>
        <time>2019-11-29T08:29:44.000Z</time>
      </trkpt>
      <trkpt lat="43.31303" lon="5.67479">
        <ele>674</ele>
        <time>2019-11-29T08:29:45.000Z</time>
      </trkpt>
      <trkpt lat="43.31303" lon="5.67477">
        <ele>674</ele>
        <time>2019-11-29T08:29:46.000Z</time>
      </trkpt>
      <trkpt lat="43.31302" lon="5.67477">
        <ele>674</ele>
        <time>2019-11-29T08:29:47.000Z</time>
      </trkpt>
      <trkpt lat="43.31302" lon="5.67476">
        <ele>674</ele>
        <time>2019-11-29T08:29:48.000Z</time>
      </trkpt>
      <trkpt lat="43.31301" lon="5.67474">
        <ele>673</ele>
        <time>2019-11-29T08:29:49.000Z</time>
      </trkpt>
      <trkpt lat="43.313" lon="5.67473">
        <ele>673</ele>
        <time>2019-11-29T08:29:50.000Z</time>
      </trkpt>
      <trkpt lat="43.313" lon="5.67473">
        <ele>673</ele>
        <time>2019-11-29T08:29:51.000Z</time>
      </trkpt>
      <trkpt lat="43.31299" lon="5.67472">
        <ele>673</ele>
        <time>2019-11-29T08:29:52.000Z</time>
      </trkpt>
      <trkpt lat="43.31298" lon="5.67472">
        <ele>672</ele>
        <time>2019-11-29T08:29:53.000Z</time>
      </trkpt>
      <trkpt lat="43.31297" lon="5.67471">
        <ele>672</ele>
        <time>2019-11-29T08:29:54.000Z</time>
      </trkpt>
      <trkpt lat="43.31296" lon="5.67471">
        <ele>672</ele>
        <time>2019-11-29T08:29:55.000Z</time>
      </trkpt>
      <trkpt lat="43.31295" lon="5.67471">
        <ele>672</ele>
        <time>2019-11-29T08:29:56.000Z</time>
      </trkpt>
      <trkpt lat="43.31294" lon="5.6747">
        <ele>671</ele>
        <time>2019-11-29T08:29:57.000Z</time>
      </trkpt>
      <trkpt lat="43.31293" lon="5.6747">
        <ele>671</ele>
        <time>2019-11-29T08:29:58.000Z</time>
      </trkpt>
      <trkpt lat="43.31293" lon="5.67469">
        <ele>671</ele>
        <time>2019-11-29T08:29:59.000Z</time>
      </trkpt>
      <trkpt lat="43.31292" lon="5.67469">
        <ele>671</ele>
        <time>2019-11-29T08:30:00.000Z</time>
      </trkpt>
      <trkpt lat="43.31292" lon="5.67469">
        <ele>671</ele>
        <time>2019-11-29T08:30:01.000Z</time>
      </trkpt>
      <trkpt lat="43.31291" lon="5.67469">
        <ele>670</ele>
        <time>2019-11-29T08:30:02.000Z</time>
      </trkpt>
      <trkpt lat="43.3129" lon="5.67468">
        <ele>670</ele>
        <time>2019-11-29T08:30:03.000Z</time>
      </trkpt>
      <trkpt lat="43.3129" lon="5.67468">
        <ele>670</ele>
        <time>2019-11-29T08:30:04.000Z</time>
      </trkpt>
      <trkpt lat="43.3129" lon="5.67469">
        <ele>670</ele>
        <time>2019-11-29T08:30:05.000Z</time>
      </trkpt>
      <trkpt lat="43.31289" lon="5.67469">
        <ele>670</ele>
        <time>2019-11-29T08:30:06.000Z</time>
      </trkpt>
      <trkpt lat="43.31288" lon="5.67469">
        <ele>669</ele>
        <time>2019-11-29T08:30:07.000Z</time>
      </trkpt>
      <trkpt lat="43.31287" lon="5.67469">
        <ele>669</ele>
        <time>2019-11-29T08:30:08.000Z</time>
      </trkpt>
      <trkpt lat="43.31287" lon="5.6747">
        <ele>669</ele>
        <time>2019-11-29T08:30:09.000Z</time>
      </trkpt>
      <trkpt lat="43.31286" lon="5.6747">
        <ele>669</ele>
        <time>2019-11-29T08:30:10.000Z</time>
      </trkpt>
      <trkpt lat="43.31286" lon="5.6747">
        <ele>668</ele>
        <time>2019-11-29T08:30:11.000Z</time>
      </trkpt>
      <trkpt lat="43.31285" lon="5.6747">
        <ele>668</ele>
        <time>2019-11-29T08:30:12.000Z</time>
      </trkpt>
      <trkpt lat="43.31285" lon="5.6747">
        <ele>668</ele>
        <time>2019-11-29T08:30:13.000Z</time>
      </trkpt>
      <trkpt lat="43.31284" lon="5.6747">
        <ele>668</ele>
        <time>2019-11-29T08:30:14.000Z</time>
      </trkpt>
      <trkpt lat="43.31284" lon="5.67471">
        <ele>668</ele>
        <time>2019-11-29T08:30:15.000Z</time>
      </trkpt>
      <trkpt lat="43.31283" lon="5.67471">
        <ele>667</ele>
        <time>2019-11-29T08:30:16.000Z</time>
      </trkpt>
      <trkpt lat="43.31283" lon="5.67472">
        <ele>667</ele>
        <time>2019-11-29T08:30:17.000Z</time>
      </trkpt>
      <trkpt lat="43.31282" lon="5.67473">
        <ele>667</ele>
        <time>2019-11-29T08:30:18.000Z</time>
      </trkpt>
      <trkpt lat="43.31282" lon="5.67473">
        <ele>667</ele>
        <time>2019-11-29T08:30:19.000Z</time>
      </trkpt>
      <trkpt lat="43.31282" lon="5.67474">
        <ele>667</ele>
        <time>2019-11-29T08:30:20.000Z</time>
      </trkpt>
      <trkpt lat="43.31282" lon="5.67475">
        <ele>667</ele>
        <time>2019-11-29T08:30:21.000Z</time>
      </trkpt>
      <trkpt lat="43.31282" lon="5.67476">
        <ele>667</ele>
        <time>2019-11-29T08:30:22.000Z</time>
      </trkpt>
      <trkpt lat="43.31281" lon="5.67477">
        <ele>667</ele>
        <time>2019-11-29T08:30:23.000Z</time>
      </trkpt>
      <trkpt lat="43.31281" lon="5.67477">
        <ele>667</ele>
        <time>2019-11-29T08:30:24.000Z</time>
      </trkpt>
      <trkpt lat="43.3128" lon="5.67477">
        <ele>666</ele>
        <time>2019-11-29T08:30:25.000Z</time>
      </trkpt>
      <trkpt lat="43.31279" lon="5.67478">
        <ele>666</ele>
        <time>2019-11-29T08:30:26.000Z</time>
      </trkpt>
      <trkpt lat="43.31279" lon="5.67478">
        <ele>666</ele>
        <time>2019-11-29T08:30:27.000Z</time>
      </trkpt>
      <trkpt lat="43.31279" lon="5.67479">
        <ele>666</ele>
        <time>2019-11-29T08:30:28.000Z</time>
      </trkpt>
      <trkpt lat="43.31278" lon="5.67479">
        <ele>666</ele>
        <time>2019-11-29T08:30:29.000Z</time>
      </trkpt>
      <trkpt lat="43.31277" lon="5.6748">
        <ele>666</ele>
        <time>2019-11-29T08:30:30.000Z</time>
      </trkpt>
      <trkpt lat="43.31277" lon="5.67482">
        <ele>665</ele>
        <time>2019-11-29T08:30:31.000Z</time>
      </trkpt>
      <trkpt lat="43.31277" lon="5.67483">
        <ele>665</ele>
        <time>2019-11-29T08:30:32.000Z</time>
      </trkpt>
      <trkpt lat="43.31278" lon="5.67485">
        <ele>665</ele>
        <time>2019-11-29T08:30:33.000Z</time>
      </trkpt>
      <trkpt lat="43.31279" lon="5.67486">
        <ele>665</ele>
        <time>2019-11-29T08:30:34.000Z</time>
      </trkpt>
      <trkpt lat="43.31279" lon="5.67488">
        <ele>665</ele>
        <time>2019-11-29T08:30:35.000Z</time>
      </trkpt>
      <trkpt lat="43.3128" lon="5.6749">
        <ele>664</ele>
        <time>2019-11-29T08:30:36.000Z</time>
      </trkpt>
      <trkpt lat="43.31281" lon="5.67491">
        <ele>664</ele>
        <time>2019-11-29T08:30:37.000Z</time>
      </trkpt>
      <trkpt lat="43.31281" lon="5.67493">
        <ele>664</ele>
        <time>2019-11-29T08:30:38.000Z</time>
      </trkpt>
      <trkpt lat="43.31281" lon="5.67494">
        <ele>664</ele>
        <time>2019-11-29T08:30:39.000Z</time>
      </trkpt>
      <trkpt lat="43.31282" lon="5.67496">
        <ele>664</ele>
        <time>2019-11-29T08:30:40.000Z</time>
      </trkpt>
      <trkpt lat="43.31282" lon="5.67497">
        <ele>664</ele>
        <time>2019-11-29T08:30:41.000Z</time>
      </trkpt>
      <trkpt lat="43.31283" lon="5.67499">
        <ele>664</ele>
        <time>2019-11-29T08:30:42.000Z</time>
      </trkpt>
      <trkpt lat="43.31283" lon="5.675">
        <ele>664</ele>
        <time>2019-11-29T08:30:43.000Z</time>
      </trkpt>
      <trkpt lat="43.31284" lon="5.67501">
        <ele>663</ele>
        <time>2019-11-29T08:30:44.000Z</time>
      </trkpt>
      <trkpt lat="43.31284" lon="5.67503">
        <ele>663</ele>
        <time>2019-11-29T08:30:45.000Z</time>
      </trkpt>
      <trkpt lat="43.31285" lon="5.67504">
        <ele>663</ele>
        <time>2019-11-29T08:30:46.000Z</time>
      </trkpt>
      <trkpt lat="43.31286" lon="5.67505">
        <ele>663</ele>
        <time>2019-11-29T08:30:47.000Z</time>
      </trkpt>
      <trkpt lat="43.31286" lon="5.67507">
        <ele>663</ele>
        <time>2019-11-29T08:30:48.000Z</time>
      </trkpt>
      <trkpt lat="43.31286" lon="5.67508">
        <ele>663</ele>
        <time>2019-11-29T08:30:49.000Z</time>
      </trkpt>
      <trkpt lat="43.31287" lon="5.6751">
        <ele>663</ele>
        <time>2019-11-29T08:30:50.000Z</time>
      </trkpt>
      <trkpt lat="43.31287" lon="5.67511">
        <ele>663</ele>
        <time>2019-11-29T08:30:51.000Z</time>
      </trkpt>
      <trkpt lat="43.31288" lon="5.67513">
        <ele>662</ele>
        <time>2019-11-29T08:30:52.000Z</time>
      </trkpt>
      <trkpt lat="43.31288" lon="5.67514">
        <ele>662</ele>
        <time>2019-11-29T08:30:53.000Z</time>
      </trkpt>
      <trkpt lat="43.31289" lon="5.67515">
        <ele>662</ele>
        <time>2019-11-29T08:30:54.000Z</time>
      </trkpt>
      <trkpt lat="43.31289" lon="5.67517">
        <ele>662</ele>
        <time>2019-11-29T08:30:55.000Z</time>
      </trkpt>
      <trkpt lat="43.3129" lon="5.67518">
        <ele>662</ele>
        <time>2019-11-29T08:30:56.000Z</time>
      </trkpt>
      <trkpt lat="43.3129" lon="5.67519">
        <ele>662</ele>
        <time>2019-11-29T08:30:57.000Z</time>
      </trkpt>
      <trkpt lat="43.31291" lon="5.6752">
        <ele>662</ele>
        <time>2019-11-29T08:30:58.000Z</time>
      </trkpt>
      <trkpt lat="43.31291" lon="5.67521">
        <ele>662</ele>
        <time>2019-11-29T08:30:59.000Z</time>
      </trkpt>
      <trkpt lat="43.31292" lon="5.67522">
        <ele>662</ele>
        <time>2019-11-29T08:31:00.000Z</time>
      </trkpt>
      <trkpt lat="43.31292" lon="5.67524">
        <ele>662</ele>
        <time>2019-11-29T08:31:01.000Z</time>
      </trkpt>
      <trkpt lat="43.31292" lon="5.67525">
        <ele>662</ele>
        <time>2019-11-29T08:31:02.000Z</time>
      </trkpt>
      <trkpt lat="43.31293" lon="5.67526">
        <ele>662</ele>
        <time>2019-11-29T08:31:03.000Z</time>
      </trkpt>
      <trkpt lat="43.31294" lon="5.67527">
        <ele>662</ele>
        <time>2019-11-29T08:31:04.000Z</time>
      </trkpt>
      <trkpt lat="43.31294" lon="5.67528">
        <ele>661</ele>
        <time>2019-11-29T08:31:05.000Z</time>
      </trkpt>
      <trkpt lat="43.31294" lon="5.6753">
        <ele>661</ele>
        <time>2019-11-29T08:31:06.000Z</time>
      </trkpt>
      <trkpt lat="43.31295" lon="5.67531">
        <ele>661</ele>
        <time>2019-11-29T08:31:07.000Z</time>
      </trkpt>
      <trkpt lat="43.31295" lon="5.67532">
        <ele>661</ele>
        <time>2019-11-29T08:31:08.000Z</time>
      </trkpt>
      <trkpt lat="43.31295" lon="5.67533">
        <ele>661</ele>
        <time>2019-11-29T08:31:09.000Z</time>
      </trkpt>
      <trkpt lat="43.31296" lon="5.67535">
        <ele>661</ele>
        <time>2019-11-29T08:31:10.000Z</time>
      </trkpt>
      <trkpt lat="43.31296" lon="5.67536">
        <ele>661</ele>
        <time>2019-11-29T08:31:11.000Z</time>
      </trkpt>
      <trkpt lat="43.31297" lon="5.67537">
        <ele>661</ele>
        <time>2019-11-29T08:31:12.000Z</time>
      </trkpt>
      <trkpt lat="43.31297" lon="5.67538">
        <ele>661</ele>
        <time>2019-11-29T08:31:13.000Z</time>
      </trkpt>
      <trkpt lat="43.31298" lon="5.6754">
        <ele>661</ele>
        <time>2019-11-29T08:31:14.000Z</time>
      </trkpt>
      <trkpt lat="43.31298" lon="5.67541">
        <ele>661</ele>
        <time>2019-11-29T08:31:15.000Z</time>
      </trkpt>
      <trkpt lat="43.31299" lon="5.67542">
        <ele>661</ele>
        <time>2019-11-29T08:31:16.000Z</time>
      </trkpt>
      <trkpt lat="43.313" lon="5.67543">
        <ele>660</ele>
        <time>2019-11-29T08:31:17.000Z</time>
      </trkpt>
      <trkpt lat="43.313" lon="5.67545">
        <ele>660</ele>
        <time>2019-11-29T08:31:18.000Z</time>
      </trkpt>
      <trkpt lat="43.313" lon="5.67546">
        <ele>660</ele>
        <time>2019-11-29T08:31:19.000Z</time>
      </trkpt>
      <trkpt lat="43.313" lon="5.67548">
        <ele>660</ele>
        <time>2019-11-29T08:31:20.000Z</time>
      </trkpt>
      <trkpt lat="43.313" lon="5.67549">
        <ele>660</ele>
        <time>2019-11-29T08:31:21.000Z</time>
      </trkpt>
      <trkpt lat="43.31301" lon="5.6755">
        <ele>660</ele>
        <time>2019-11-29T08:31:22.000Z</time>
      </trkpt>
      <trkpt lat="43.31301" lon="5.67552">
        <ele>660</ele>
        <time>2019-11-29T08:31:23.000Z</time>
      </trkpt>
      <trkpt lat="43.31302" lon="5.67553">
        <ele>660</ele>
        <time>2019-11-29T08:31:24.000Z</time>
      </trkpt>
      <trkpt lat="43.31302" lon="5.67555">
        <ele>660</ele>
        <time>2019-11-29T08:31:25.000Z</time>
      </trkpt>
      <trkpt lat="43.31302" lon="5.67556">
        <ele>660</ele>
        <time>2019-11-29T08:31:26.000Z</time>
      </trkpt>
      <trkpt lat="43.31303" lon="5.67557">
        <ele>660</ele>
        <time>2019-11-29T08:31:27.000Z</time>
      </trkpt>
      <trkpt lat="43.31303" lon="5.67559">
        <ele>660</ele>
        <time>2019-11-29T08:31:28.000Z</time>
      </trkpt>
      <trkpt lat="43.31303" lon="5.6756">
        <ele>660</ele>
        <time>2019-11-29T08:31:29.000Z</time>
      </trkpt>
      <trkpt lat="43.31304" lon="5.67562">
        <ele>660</ele>
        <time>2019-11-29T08:31:30.000Z</time>
      </trkpt>
      <trkpt lat="43.31304" lon="5.67563">
        <ele>660</ele>
        <time>2019-11-29T08:31:31.000Z</time>
      </trkpt>
      <trkpt lat="43.31304" lon="5.67564">
        <ele>660</ele>
        <time>2019-11-29T08:31:32.000Z</time>
      </trkpt>
      <trkpt lat="43.31304" lon="5.67564">
        <ele>659</ele>
        <time>2019-11-29T08:31:33.000Z</time>
      </trkpt>
      <trkpt lat="43.31304" lon="5.67565">
        <ele>659</ele>
        <time>2019-11-29T08:31:34.000Z</time>
      </trkpt>
      <trkpt lat="43.31304" lon="5.67564">
        <ele>659</ele>
        <time>2019-11-29T08:31:35.000Z</time>
      </trkpt>
      <trkpt lat="43.31304" lon="5.67564">
        <ele>659</ele>
        <time>2019-11-29T08:31:36.000Z</time>
      </trkpt>
      <trkpt lat="43.31304" lon="5.67565">
        <ele>659</ele>
        <time>2019-11-29T08:31:37.000Z</time>
      </trkpt>
      <trkpt lat="43.31304" lon="5.67566">
        <ele>659</ele>
        <time>2019-11-29T08:31:38.000Z</time>
      </trkpt>
      <trkpt lat="43.31304" lon="5.67567">
        <ele>659</ele>
        <time>2019-11-29T08:31:39.000Z</time>
      </trkpt>
      <trkpt lat="43.31305" lon="5.67568">
        <ele>659</ele>
        <time>2019-11-29T08:31:40.000Z</time>
      </trkpt>
      <trkpt lat="43.31305" lon="5.67568">
        <ele>659</ele>
        <time>2019-11-29T08:31:41.000Z</time>
      </trkpt>
      <trkpt lat="43.31305" lon="5.6757">
        <ele>659</ele>
        <time>2019-11-29T08:31:42.000Z</time>
      </trkpt>
      <trkpt lat="43.31304" lon="5.6757">
        <ele>659</ele>
        <time>2019-11-29T08:31:43.000Z</time>
      </trkpt>
      <trkpt lat="43.31304" lon="5.67571">
        <ele>659</ele>
        <time>2019-11-29T08:31:44.000Z</time>
      </trkpt>
      <trkpt lat="43.31304" lon="5.67572">
        <ele>659</ele>
        <time>2019-11-29T08:31:45.000Z</time>
      </trkpt>
      <trkpt lat="43.31304" lon="5.67573">
        <ele>659</ele>
        <time>2019-11-29T08:31:46.000Z</time>
      </trkpt>
      <trkpt lat="43.31304" lon="5.67573">
        <ele>659</ele>
        <time>2019-11-29T08:31:47.000Z</time>
      </trkpt>
      <trkpt lat="43.31304" lon="5.67573">
        <ele>659</ele>
        <time>2019-11-29T08:31:48.000Z</time>
      </trkpt>
      <trkpt lat="43.31304" lon="5.67573">
        <ele>659</ele>
        <time>2019-11-29T08:31:49.000Z</time>
      </trkpt>
      <trkpt lat="43.31304" lon="5.67573">
        <ele>659</ele>
        <time>2019-11-29T08:31:50.000Z</time>
      </trkpt>
      <trkpt lat="43.31304" lon="5.67574">
        <ele>659</ele>
        <time>2019-11-29T08:31:51.000Z</time>
      </trkpt>
      <trkpt lat="43.31304" lon="5.67574">
        <ele>659</ele>
        <time>2019-11-29T08:31:52.000Z</time>
      </trkpt>
      <trkpt lat="43.31304" lon="5.67574">
        <ele>659</ele>
        <time>2019-11-29T08:31:53.000Z</time>
      </trkpt>
      <trkpt lat="43.31304" lon="5.67574">
        <ele>659</ele>
        <time>2019-11-29T08:31:54.000Z</time>
      </trkpt>
      <trkpt lat="43.31304" lon="5.67574">
        <ele>659</ele>
        <time>2019-11-29T08:31:55.000Z</time>
      </trkpt>
      <trkpt lat="43.31304" lon="5.67574">
        <ele>659</ele>
        <time>2019-11-29T08:31:56.000Z</time>
      </trkpt>
      <trkpt lat="43.31304" lon="5.67574">
        <ele>659</ele>
        <time>2019-11-29T08:31:57.000Z</time>
      </trkpt>
      <trkpt lat="43.31304" lon="5.67574">
        <ele>659</ele>
        <time>2019-11-29T08:31:58.000Z</time>
      </trkpt>
      <trkpt lat="43.31304" lon="5.67574">
        <ele>659</ele>
        <time>2019-11-29T08:31:59.000Z</time>
      </trkpt>
      <trkpt lat="43.31304" lon="5.67575">
        <ele>659</ele>
        <time>2019-11-29T08:32:00.000Z</time>
      </trkpt>
      <trkpt lat="43.31304" lon="5.67575">
        <ele>659</ele>
        <time>2019-11-29T08:32:01.000Z</time>
      </trkpt>
      <trkpt lat="43.31304" lon="5.67575">
        <ele>659</ele>
        <time>2019-11-29T08:32:02.000Z</time>
      </trkpt>
      <trkpt lat="43.31304" lon="5.67575">
        <ele>659</ele>
        <time>2019-11-29T08:32:03.000Z</time>
      </trkpt>
      <trkpt lat="43.31304" lon="5.67575">
        <ele>659</ele>
        <time>2019-11-29T08:32:04.000Z</time>
      </trkpt>
      <trkpt lat="43.31304" lon="5.67576">
        <ele>659</ele>
        <time>2019-11-29T08:32:05.000Z</time>
      </trkpt>
      <trkpt lat="43.31304" lon="5.67577">
        <ele>659</ele>
        <time>2019-11-29T08:32:06.000Z</time>
      </trkpt>
      <trkpt lat="43.31304" lon="5.67579">
        <ele>659</ele>
        <time>2019-11-29T08:32:07.000Z</time>
      </trkpt>
      <trkpt lat="43.31303" lon="5.6758">
        <ele>659</ele>
        <time>2019-11-29T08:32:08.000Z</time>
      </trkpt>
      <trkpt lat="43.31303" lon="5.67581">
        <ele>659</ele>
        <time>2019-11-29T08:32:09.000Z</time>
      </trkpt>
      <trkpt lat="43.31303" lon="5.67582">
        <ele>659</ele>
        <time>2019-11-29T08:32:10.000Z</time>
      </trkpt>
      <trkpt lat="43.31303" lon="5.67584">
        <ele>659</ele>
        <time>2019-11-29T08:32:11.000Z</time>
      </trkpt>
      <trkpt lat="43.31303" lon="5.67585">
        <ele>659</ele>
        <time>2019-11-29T08:32:12.000Z</time>
      </trkpt>
      <trkpt lat="43.31304" lon="5.67586">
        <ele>659</ele>
        <time>2019-11-29T08:32:13.000Z</time>
      </trkpt>
      <trkpt lat="43.31304" lon="5.67587">
        <ele>659</ele>
        <time>2019-11-29T08:32:14.000Z</time>
      </trkpt>
      <trkpt lat="43.31304" lon="5.67589">
        <ele>659</ele>
        <time>2019-11-29T08:32:15.000Z</time>
      </trkpt>
      <trkpt lat="43.31304" lon="5.6759">
        <ele>659</ele>
        <time>2019-11-29T08:32:16.000Z</time>
      </trkpt>
      <trkpt lat="43.31305" lon="5.67591">
        <ele>659</ele>
        <time>2019-11-29T08:32:17.000Z</time>
      </trkpt>
      <trkpt lat="43.31305" lon="5.67591">
        <ele>659</ele>
        <time>2019-11-29T08:32:18.000Z</time>
      </trkpt>
      <trkpt lat="43.31306" lon="5.67593">
        <ele>658</ele>
        <time>2019-11-29T08:32:19.000Z</time>
      </trkpt>
      <trkpt lat="43.31306" lon="5.67594">
        <ele>658</ele>
        <time>2019-11-29T08:32:20.000Z</time>
      </trkpt>
      <trkpt lat="43.31306" lon="5.67595">
        <ele>658</ele>
        <time>2019-11-29T08:32:21.000Z</time>
      </trkpt>
      <trkpt lat="43.31306" lon="5.67596">
        <ele>658</ele>
        <time>2019-11-29T08:32:22.000Z</time>
      </trkpt>
      <trkpt lat="43.31307" lon="5.67596">
        <ele>658</ele>
        <time>2019-11-29T08:32:23.000Z</time>
      </trkpt>
      <trkpt lat="43.31307" lon="5.67597">
        <ele>658</ele>
        <time>2019-11-29T08:32:24.000Z</time>
      </trkpt>
      <trkpt lat="43.31307" lon="5.67597">
        <ele>658</ele>
        <time>2019-11-29T08:32:25.000Z</time>
      </trkpt>
      <trkpt lat="43.31307" lon="5.67597">
        <ele>658</ele>
        <time>2019-11-29T08:32:26.000Z</time>
      </trkpt>
      <trkpt lat="43.31307" lon="5.67597">
        <ele>658</ele>
        <time>2019-11-29T08:32:27.000Z</time>
      </trkpt>
      <trkpt lat="43.31307" lon="5.67597">
        <ele>658</ele>
        <time>2019-11-29T08:32:28.000Z</time>
      </trkpt>
      <trkpt lat="43.31307" lon="5.67597">
        <ele>658</ele>
        <time>2019-11-29T08:32:29.000Z</time>
      </trkpt>
      <trkpt lat="43.31307" lon="5.67597">
        <ele>658</ele>
        <time>2019-11-29T08:32:30.000Z</time>
      </trkpt>
      <trkpt lat="43.31308" lon="5.67598">
        <ele>658</ele>
        <time>2019-11-29T08:32:31.000Z</time>
      </trkpt>
      <trkpt lat="43.31308" lon="5.67598">
        <ele>658</ele>
        <time>2019-11-29T08:32:32.000Z</time>
      </trkpt>
      <trkpt lat="43.31308" lon="5.67599">
        <ele>658</ele>
        <time>2019-11-29T08:32:33.000Z</time>
      </trkpt>
      <trkpt lat="43.31309" lon="5.67599">
        <ele>658</ele>
        <time>2019-11-29T08:32:34.000Z</time>
      </trkpt>
      <trkpt lat="43.3131" lon="5.676">
        <ele>658</ele>
        <time>2019-11-29T08:32:35.000Z</time>
      </trkpt>
      <trkpt lat="43.3131" lon="5.67601">
        <ele>658</ele>
        <time>2019-11-29T08:32:36.000Z</time>
      </trkpt>
      <trkpt lat="43.31311" lon="5.67602">
        <ele>658</ele>
        <time>2019-11-29T08:32:37.000Z</time>
      </trkpt>
      <trkpt lat="43.31312" lon="5.67603">
        <ele>658</ele>
        <time>2019-11-29T08:32:38.000Z</time>
      </trkpt>
      <trkpt lat="43.31312" lon="5.67604">
        <ele>658</ele>
        <time>2019-11-29T08:32:39.000Z</time>
      </trkpt>
      <trkpt lat="43.31313" lon="5.67605">
        <ele>658</ele>
        <time>2019-11-29T08:32:40.000Z</time>
      </trkpt>
      <trkpt lat="43.31314" lon="5.67606">
        <ele>658</ele>
        <time>2019-11-29T08:32:41.000Z</time>
      </trkpt>
      <trkpt lat="43.31314" lon="5.67607">
        <ele>658</ele>
        <time>2019-11-29T08:32:42.000Z</time>
      </trkpt>
      <trkpt lat="43.31314" lon="5.67608">
        <ele>658</ele>
        <time>2019-11-29T08:32:43.000Z</time>
      </trkpt>
      <trkpt lat="43.31315" lon="5.67609">
        <ele>658</ele>
        <time>2019-11-29T08:32:44.000Z</time>
      </trkpt>
      <trkpt lat="43.31315" lon="5.67609">
        <ele>658</ele>
        <time>2019-11-29T08:32:45.000Z</time>
      </trkpt>
      <trkpt lat="43.31316" lon="5.6761">
        <ele>658</ele>
        <time>2019-11-29T08:32:46.000Z</time>
      </trkpt>
      <trkpt lat="43.31316" lon="5.6761">
        <ele>657</ele>
        <time>2019-11-29T08:32:47.000Z</time>
      </trkpt>
      <trkpt lat="43.31317" lon="5.67611">
        <ele>657</ele>
        <time>2019-11-29T08:32:48.000Z</time>
      </trkpt>
      <trkpt lat="43.31318" lon="5.67611">
        <ele>658</ele>
        <time>2019-11-29T08:32:49.000Z</time>
      </trkpt>
      <trkpt lat="43.31318" lon="5.67612">
        <ele>658</ele>
        <time>2019-11-29T08:32:50.000Z</time>
      </trkpt>
      <trkpt lat="43.31319" lon="5.67612">
        <ele>658</ele>
        <time>2019-11-29T08:32:51.000Z</time>
      </trkpt>
      <trkpt lat="43.3132" lon="5.67613">
        <ele>658</ele>
        <time>2019-11-29T08:32:52.000Z</time>
      </trkpt>
      <trkpt lat="43.31321" lon="5.67613">
        <ele>658</ele>
        <time>2019-11-29T08:32:53.000Z</time>
      </trkpt>
      <trkpt lat="43.31322" lon="5.67615">
        <ele>658</ele>
        <time>2019-11-29T08:32:54.000Z</time>
      </trkpt>
      <trkpt lat="43.31323" lon="5.67616">
        <ele>658</ele>
        <time>2019-11-29T08:32:55.000Z</time>
      </trkpt>
      <trkpt lat="43.31323" lon="5.67616">
        <ele>658</ele>
        <time>2019-11-29T08:32:56.000Z</time>
      </trkpt>
      <trkpt lat="43.31324" lon="5.67617">
        <ele>658</ele>
        <time>2019-11-29T08:32:57.000Z</time>
      </trkpt>
      <trkpt lat="43.31325" lon="5.67618">
        <ele>658</ele>
        <time>2019-11-29T08:32:58.000Z</time>
      </trkpt>
      <trkpt lat="43.31326" lon="5.67619">
        <ele>658</ele>
        <time>2019-11-29T08:32:59.000Z</time>
      </trkpt>
      <trkpt lat="43.31327" lon="5.6762">
        <ele>658</ele>
        <time>2019-11-29T08:33:00.000Z</time>
      </trkpt>
      <trkpt lat="43.31328" lon="5.67621">
        <ele>658</ele>
        <time>2019-11-29T08:33:01.000Z</time>
      </trkpt>
      <trkpt lat="43.31328" lon="5.67622">
        <ele>658</ele>
        <time>2019-11-29T08:33:02.000Z</time>
      </trkpt>
      <trkpt lat="43.31329" lon="5.67624">
        <ele>658</ele>
        <time>2019-11-29T08:33:03.000Z</time>
      </trkpt>
      <trkpt lat="43.3133" lon="5.67625">
        <ele>658</ele>
        <time>2019-11-29T08:33:04.000Z</time>
      </trkpt>
      <trkpt lat="43.31331" lon="5.67626">
        <ele>658</ele>
        <time>2019-11-29T08:33:05.000Z</time>
      </trkpt>
      <trkpt lat="43.31332" lon="5.67627">
        <ele>658</ele>
        <time>2019-11-29T08:33:06.000Z</time>
      </trkpt>
      <trkpt lat="43.31332" lon="5.67629">
        <ele>658</ele>
        <time>2019-11-29T08:33:07.000Z</time>
      </trkpt>
      <trkpt lat="43.31333" lon="5.6763">
        <ele>658</ele>
        <time>2019-11-29T08:33:08.000Z</time>
      </trkpt>
      <trkpt lat="43.31334" lon="5.67631">
        <ele>658</ele>
        <time>2019-11-29T08:33:09.000Z</time>
      </trkpt>
      <trkpt lat="43.31334" lon="5.67631">
        <ele>658</ele>
        <time>2019-11-29T08:33:10.000Z</time>
      </trkpt>
      <trkpt lat="43.31335" lon="5.67632">
        <ele>658</ele>
        <time>2019-11-29T08:33:11.000Z</time>
      </trkpt>
      <trkpt lat="43.31335" lon="5.67634">
        <ele>658</ele>
        <time>2019-11-29T08:33:12.000Z</time>
      </trkpt>
      <trkpt lat="43.31335" lon="5.67635">
        <ele>658</ele>
        <time>2019-11-29T08:33:13.000Z</time>
      </trkpt>
      <trkpt lat="43.31335" lon="5.67636">
        <ele>657</ele>
        <time>2019-11-29T08:33:14.000Z</time>
      </trkpt>
      <trkpt lat="43.31336" lon="5.67636">
        <ele>657</ele>
        <time>2019-11-29T08:33:15.000Z</time>
      </trkpt>
      <trkpt lat="43.31336" lon="5.67636">
        <ele>657</ele>
        <time>2019-11-29T08:33:16.000Z</time>
      </trkpt>
      <trkpt lat="43.31336" lon="5.67636">
        <ele>657</ele>
        <time>2019-11-29T08:33:17.000Z</time>
      </trkpt>
      <trkpt lat="43.31336" lon="5.67636">
        <ele>657</ele>
        <time>2019-11-29T08:33:18.000Z</time>
      </trkpt>
      <trkpt lat="43.31336" lon="5.67636">
        <ele>657</ele>
        <time>2019-11-29T08:33:19.000Z</time>
      </trkpt>
      <trkpt lat="43.31336" lon="5.67637">
        <ele>658</ele>
        <time>2019-11-29T08:33:20.000Z</time>
      </trkpt>
      <trkpt lat="43.31336" lon="5.67637">
        <ele>658</ele>
        <time>2019-11-29T08:33:21.000Z</time>
      </trkpt>
      <trkpt lat="43.31336" lon="5.67638">
        <ele>658</ele>
        <time>2019-11-29T08:33:22.000Z</time>
      </trkpt>
      <trkpt lat="43.31336" lon="5.67639">
        <ele>658</ele>
        <time>2019-11-29T08:33:23.000Z</time>
      </trkpt>
      <trkpt lat="43.31336" lon="5.6764">
        <ele>658</ele>
        <time>2019-11-29T08:33:24.000Z</time>
      </trkpt>
      <trkpt lat="43.31336" lon="5.67641">
        <ele>658</ele>
        <time>2019-11-29T08:33:25.000Z</time>
      </trkpt>
      <trkpt lat="43.31336" lon="5.67641">
        <ele>658</ele>
        <time>2019-11-29T08:33:26.000Z</time>
      </trkpt>
      <trkpt lat="43.31336" lon="5.67641">
        <ele>658</ele>
        <time>2019-11-29T08:33:27.000Z</time>
      </trkpt>
      <trkpt lat="43.31336" lon="5.67641">
        <ele>658</ele>
        <time>2019-11-29T08:33:28.000Z</time>
      </trkpt>
      <trkpt lat="43.31336" lon="5.67641">
        <ele>658</ele>
        <time>2019-11-29T08:33:29.000Z</time>
      </trkpt>
      <trkpt lat="43.31336" lon="5.67641">
        <ele>658</ele>
        <time>2019-11-29T08:33:30.000Z</time>
      </trkpt>
      <trkpt lat="43.31336" lon="5.67641">
        <ele>658</ele>
        <time>2019-11-29T08:33:31.000Z</time>
      </trkpt>
      <trkpt lat="43.31336" lon="5.67642">
        <ele>657</ele>
        <time>2019-11-29T08:33:32.000Z</time>
      </trkpt>
      <trkpt lat="43.31335" lon="5.67643">
        <ele>657</ele>
        <time>2019-11-29T08:33:33.000Z</time>
      </trkpt>
      <trkpt lat="43.31335" lon="5.67644">
        <ele>657</ele>
        <time>2019-11-29T08:33:34.000Z</time>
      </trkpt>
      <trkpt lat="43.31335" lon="5.67645">
        <ele>657</ele>
        <time>2019-11-29T08:33:35.000Z</time>
      </trkpt>
      <trkpt lat="43.31335" lon="5.67646">
        <ele>657</ele>
        <time>2019-11-29T08:33:36.000Z</time>
      </trkpt>
      <trkpt lat="43.31335" lon="5.67648">
        <ele>657</ele>
        <time>2019-11-29T08:33:37.000Z</time>
      </trkpt>
      <trkpt lat="43.31334" lon="5.67649">
        <ele>657</ele>
        <time>2019-11-29T08:33:38.000Z</time>
      </trkpt>
      <trkpt lat="43.31334" lon="5.6765">
        <ele>657</ele>
        <time>2019-11-29T08:33:39.000Z</time>
      </trkpt>
      <trkpt lat="43.31334" lon="5.67651">
        <ele>657</ele>
        <time>2019-11-29T08:33:40.000Z</time>
      </trkpt>
      <trkpt lat="43.31333" lon="5.67652">
        <ele>656</ele>
        <time>2019-11-29T08:33:41.000Z</time>
      </trkpt>
      <trkpt lat="43.31333" lon="5.67653">
        <ele>656</ele>
        <time>2019-11-29T08:33:42.000Z</time>
      </trkpt>
      <trkpt lat="43.31332" lon="5.67654">
        <ele>656</ele>
        <time>2019-11-29T08:33:43.000Z</time>
      </trkpt>
      <trkpt lat="43.31332" lon="5.67655">
        <ele>656</ele>
        <time>2019-11-29T08:33:44.000Z</time>
      </trkpt>
      <trkpt lat="43.31331" lon="5.67656">
        <ele>656</ele>
        <time>2019-11-29T08:33:45.000Z</time>
      </trkpt>
      <trkpt lat="43.3133" lon="5.67657">
        <ele>656</ele>
        <time>2019-11-29T08:33:46.000Z</time>
      </trkpt>
      <trkpt lat="43.3133" lon="5.67658">
        <ele>656</ele>
        <time>2019-11-29T08:33:47.000Z</time>
      </trkpt>
      <trkpt lat="43.31329" lon="5.67659">
        <ele>656</ele>
        <time>2019-11-29T08:33:48.000Z</time>
      </trkpt>
      <trkpt lat="43.31328" lon="5.6766">
        <ele>656</ele>
        <time>2019-11-29T08:33:49.000Z</time>
      </trkpt>
      <trkpt lat="43.31328" lon="5.6766">
        <ele>656</ele>
        <time>2019-11-29T08:33:50.000Z</time>
      </trkpt>
      <trkpt lat="43.31327" lon="5.6766">
        <ele>656</ele>
        <time>2019-11-29T08:33:51.000Z</time>
      </trkpt>
      <trkpt lat="43.31327" lon="5.6766">
        <ele>656</ele>
        <time>2019-11-29T08:33:52.000Z</time>
      </trkpt>
      <trkpt lat="43.31326" lon="5.6766">
        <ele>656</ele>
        <time>2019-11-29T08:33:53.000Z</time>
      </trkpt>
      <trkpt lat="43.31326" lon="5.67659">
        <ele>656</ele>
        <time>2019-11-29T08:33:54.000Z</time>
      </trkpt>
      <trkpt lat="43.31326" lon="5.67658">
        <ele>656</ele>
        <time>2019-11-29T08:33:55.000Z</time>
      </trkpt>
      <trkpt lat="43.31325" lon="5.67657">
        <ele>656</ele>
        <time>2019-11-29T08:33:56.000Z</time>
      </trkpt>
      <trkpt lat="43.31324" lon="5.67657">
        <ele>655</ele>
        <time>2019-11-29T08:33:57.000Z</time>
      </trkpt>
      <trkpt lat="43.31324" lon="5.67655">
        <ele>655</ele>
        <time>2019-11-29T08:33:58.000Z</time>
      </trkpt>
      <trkpt lat="43.31323" lon="5.67654">
        <ele>655</ele>
        <time>2019-11-29T08:33:59.000Z</time>
      </trkpt>
      <trkpt lat="43.31323" lon="5.67653">
        <ele>655</ele>
        <time>2019-11-29T08:34:00.000Z</time>
      </trkpt>
      <trkpt lat="43.31322" lon="5.67653">
        <ele>655</ele>
        <time>2019-11-29T08:34:01.000Z</time>
      </trkpt>
      <trkpt lat="43.31321" lon="5.67652">
        <ele>655</ele>
        <time>2019-11-29T08:34:02.000Z</time>
      </trkpt>
      <trkpt lat="43.31321" lon="5.67651">
        <ele>655</ele>
        <time>2019-11-29T08:34:03.000Z</time>
      </trkpt>
      <trkpt lat="43.3132" lon="5.67651">
        <ele>655</ele>
        <time>2019-11-29T08:34:04.000Z</time>
      </trkpt>
      <trkpt lat="43.31319" lon="5.6765">
        <ele>655</ele>
        <time>2019-11-29T08:34:05.000Z</time>
      </trkpt>
      <trkpt lat="43.31318" lon="5.6765">
        <ele>656</ele>
        <time>2019-11-29T08:34:06.000Z</time>
      </trkpt>
      <trkpt lat="43.31317" lon="5.67651">
        <ele>656</ele>
        <time>2019-11-29T08:34:07.000Z</time>
      </trkpt>
      <trkpt lat="43.31316" lon="5.67651">
        <ele>656</ele>
        <time>2019-11-29T08:34:08.000Z</time>
      </trkpt>
      <trkpt lat="43.31315" lon="5.67652">
        <ele>656</ele>
        <time>2019-11-29T08:34:09.000Z</time>
      </trkpt>
      <trkpt lat="43.31314" lon="5.67652">
        <ele>656</ele>
        <time>2019-11-29T08:34:10.000Z</time>
      </trkpt>
      <trkpt lat="43.31313" lon="5.67652">
        <ele>656</ele>
        <time>2019-11-29T08:34:11.000Z</time>
      </trkpt>
      <trkpt lat="43.31312" lon="5.67653">
        <ele>656</ele>
        <time>2019-11-29T08:34:12.000Z</time>
      </trkpt>
      <trkpt lat="43.31311" lon="5.67653">
        <ele>656</ele>
        <time>2019-11-29T08:34:13.000Z</time>
      </trkpt>
      <trkpt lat="43.31311" lon="5.67653">
        <ele>656</ele>
        <time>2019-11-29T08:34:14.000Z</time>
      </trkpt>
      <trkpt lat="43.3131" lon="5.67654">
        <ele>656</ele>
        <time>2019-11-29T08:34:15.000Z</time>
      </trkpt>
      <trkpt lat="43.31309" lon="5.67654">
        <ele>656</ele>
        <time>2019-11-29T08:34:16.000Z</time>
      </trkpt>
      <trkpt lat="43.31309" lon="5.67655">
        <ele>656</ele>
        <time>2019-11-29T08:34:17.000Z</time>
      </trkpt>
      <trkpt lat="43.31308" lon="5.67655">
        <ele>656</ele>
        <time>2019-11-29T08:34:18.000Z</time>
      </trkpt>
      <trkpt lat="43.31307" lon="5.67656">
        <ele>656</ele>
        <time>2019-11-29T08:34:19.000Z</time>
      </trkpt>
      <trkpt lat="43.31307" lon="5.67657">
        <ele>656</ele>
        <time>2019-11-29T08:34:20.000Z</time>
      </trkpt>
      <trkpt lat="43.31306" lon="5.67657">
        <ele>656</ele>
        <time>2019-11-29T08:34:21.000Z</time>
      </trkpt>
      <trkpt lat="43.31305" lon="5.67658">
        <ele>656</ele>
        <time>2019-11-29T08:34:22.000Z</time>
      </trkpt>
      <trkpt lat="43.31305" lon="5.67659">
        <ele>656</ele>
        <time>2019-11-29T08:34:23.000Z</time>
      </trkpt>
      <trkpt lat="43.31304" lon="5.67659">
        <ele>656</ele>
        <time>2019-11-29T08:34:24.000Z</time>
      </trkpt>
      <trkpt lat="43.31304" lon="5.6766">
        <ele>656</ele>
        <time>2019-11-29T08:34:25.000Z</time>
      </trkpt>
      <trkpt lat="43.31304" lon="5.6766">
        <ele>656</ele>
        <time>2019-11-29T08:34:26.000Z</time>
      </trkpt>
      <trkpt lat="43.31304" lon="5.6766">
        <ele>656</ele>
        <time>2019-11-29T08:34:27.000Z</time>
      </trkpt>
      <trkpt lat="43.31304" lon="5.6766">
        <ele>656</ele>
        <time>2019-11-29T08:34:28.000Z</time>
      </trkpt>
      <trkpt lat="43.31304" lon="5.6766">
        <ele>657</ele>
        <time>2019-11-29T08:34:29.000Z</time>
      </trkpt>
      <trkpt lat="43.31304" lon="5.6766">
        <ele>657</ele>
        <time>2019-11-29T08:34:30.000Z</time>
      </trkpt>
      <trkpt lat="43.31304" lon="5.6766">
        <ele>657</ele>
        <time>2019-11-29T08:34:31.000Z</time>
      </trkpt>
      <trkpt lat="43.31303" lon="5.6766">
        <ele>657</ele>
        <time>2019-11-29T08:34:32.000Z</time>
      </trkpt>
      <trkpt lat="43.31303" lon="5.67661">
        <ele>657</ele>
        <time>2019-11-29T08:34:33.000Z</time>
      </trkpt>
      <trkpt lat="43.31302" lon="5.67662">
        <ele>657</ele>
        <time>2019-11-29T08:34:34.000Z</time>
      </trkpt>
      <trkpt lat="43.31302" lon="5.67662">
        <ele>657</ele>
        <time>2019-11-29T08:34:35.000Z</time>
      </trkpt>
      <trkpt lat="43.31301" lon="5.67663">
        <ele>657</ele>
        <time>2019-11-29T08:34:36.000Z</time>
      </trkpt>
      <trkpt lat="43.31301" lon="5.67664">
        <ele>657</ele>
        <time>2019-11-29T08:34:37.000Z</time>
      </trkpt>
      <trkpt lat="43.31301" lon="5.67665">
        <ele>657</ele>
        <time>2019-11-29T08:34:38.000Z</time>
      </trkpt>
      <trkpt lat="43.313" lon="5.67666">
        <ele>657</ele>
        <time>2019-11-29T08:34:39.000Z</time>
      </trkpt>
      <trkpt lat="43.313" lon="5.67666">
        <ele>657</ele>
        <time>2019-11-29T08:34:40.000Z</time>
      </trkpt>
      <trkpt lat="43.313" lon="5.67667">
        <ele>657</ele>
        <time>2019-11-29T08:34:41.000Z</time>
      </trkpt>
      <trkpt lat="43.313" lon="5.67667">
        <ele>658</ele>
        <time>2019-11-29T08:34:42.000Z</time>
      </trkpt>
      <trkpt lat="43.313" lon="5.67667">
        <ele>658</ele>
        <time>2019-11-29T08:34:43.000Z</time>
      </trkpt>
      <trkpt lat="43.313" lon="5.67667">
        <ele>658</ele>
        <time>2019-11-29T08:34:44.000Z</time>
      </trkpt>
      <trkpt lat="43.313" lon="5.67667">
        <ele>658</ele>
        <time>2019-11-29T08:34:45.000Z</time>
      </trkpt>
      <trkpt lat="43.313" lon="5.67667">
        <ele>658</ele>
        <time>2019-11-29T08:34:46.000Z</time>
      </trkpt>
      <trkpt lat="43.313" lon="5.67667">
        <ele>658</ele>
        <time>2019-11-29T08:34:47.000Z</time>
      </trkpt>
      <trkpt lat="43.313" lon="5.67667">
        <ele>658</ele>
        <time>2019-11-29T08:34:48.000Z</time>
      </trkpt>
      <trkpt lat="43.31299" lon="5.67667">
        <ele>658</ele>
        <time>2019-11-29T08:34:49.000Z</time>
      </trkpt>
      <trkpt lat="43.31299" lon="5.67667">
        <ele>658</ele>
        <time>2019-11-29T08:34:50.000Z</time>
      </trkpt>
      <trkpt lat="43.31299" lon="5.67667">
        <ele>658</ele>
        <time>2019-11-29T08:34:51.000Z</time>
      </trkpt>
      <trkpt lat="43.31299" lon="5.67667">
        <ele>658</ele>
        <time>2019-11-29T08:34:52.000Z</time>
      </trkpt>
      <trkpt lat="43.31299" lon="5.67667">
        <ele>659</ele>
        <time>2019-11-29T08:34:53.000Z</time>
      </trkpt>
      <trkpt lat="43.31299" lon="5.67667">
        <ele>659</ele>
        <time>2019-11-29T08:34:54.000Z</time>
      </trkpt>
      <trkpt lat="43.31299" lon="5.67667">
        <ele>659</ele>
        <time>2019-11-29T08:34:55.000Z</time>
      </trkpt>
      <trkpt lat="43.31299" lon="5.67667">
        <ele>659</ele>
        <time>2019-11-29T08:34:56.000Z</time>
      </trkpt>
      <trkpt lat="43.31299" lon="5.67667">
        <ele>659</ele>
        <time>2019-11-29T08:34:57.000Z</time>
      </trkpt>
      <trkpt lat="43.31299" lon="5.67667">
        <ele>659</ele>
        <time>2019-11-29T08:34:58.000Z</time>
      </trkpt>
      <trkpt lat="43.31299" lon="5.67667">
        <ele>659</ele>
        <time>2019-11-29T08:34:59.000Z</time>
      </trkpt>
      <trkpt lat="43.31299" lon="5.67667">
        <ele>659</ele>
        <time>2019-11-29T08:35:00.000Z</time>
      </trkpt>
      <trkpt lat="43.31299" lon="5.67667">
        <ele>659</ele>
        <time>2019-11-29T08:35:01.000Z</time>
      </trkpt>
      <trkpt lat="43.31299" lon="5.67667">
        <ele>659</ele>
        <time>2019-11-29T08:35:02.000Z</time>
      </trkpt>
      <trkpt lat="43.31299" lon="5.67666">
        <ele>659</ele>
        <time>2019-11-29T08:35:03.000Z</time>
      </trkpt>
      <trkpt lat="43.31299" lon="5.67666">
        <ele>659</ele>
        <time>2019-11-29T08:35:04.000Z</time>
      </trkpt>
      <trkpt lat="43.31299" lon="5.67666">
        <ele>659</ele>
        <time>2019-11-29T08:35:05.000Z</time>
      </trkpt>
      <trkpt lat="43.31299" lon="5.67666">
        <ele>659</ele>
        <time>2019-11-29T08:35:06.000Z</time>
      </trkpt>
      <trkpt lat="43.31299" lon="5.67666">
        <ele>659</ele>
        <time>2019-11-29T08:35:07.000Z</time>
      </trkpt>
      <trkpt lat="43.31299" lon="5.67666">
        <ele>659</ele>
        <time>2019-11-29T08:35:08.000Z</time>
      </trkpt>
      <trkpt lat="43.31299" lon="5.67666">
        <ele>659</ele>
        <time>2019-11-29T08:35:09.000Z</time>
      </trkpt>
      <trkpt lat="43.31299" lon="5.67666">
        <ele>659</ele>
        <time>2019-11-29T08:35:10.000Z</time>
      </trkpt>
      <trkpt lat="43.31299" lon="5.67666">
        <ele>659</ele>
        <time>2019-11-29T08:35:11.000Z</time>
      </trkpt>
      <trkpt lat="43.31299" lon="5.67666">
        <ele>659</ele>
        <time>2019-11-29T08:35:12.000Z</time>
      </trkpt>
      <trkpt lat="43.31299" lon="5.67666">
        <ele>659</ele>
        <time>2019-11-29T08:35:13.000Z</time>
      </trkpt>
      <trkpt lat="43.31299" lon="5.67666">
        <ele>659</ele>
        <time>2019-11-29T08:35:14.000Z</time>
      </trkpt>
      <trkpt lat="43.31299" lon="5.67666">
        <ele>659</ele>
        <time>2019-11-29T08:35:15.000Z</time>
      </trkpt>
      <trkpt lat="43.31299" lon="5.67666">
        <ele>659</ele>
        <time>2019-11-29T08:35:16.000Z</time>
      </trkpt>
      <trkpt lat="43.31299" lon="5.67666">
        <ele>659</ele>
        <time>2019-11-29T08:35:17.000Z</time>
      </trkpt>
      <trkpt lat="43.31299" lon="5.67666">
        <ele>659</ele>
        <time>2019-11-29T08:35:18.000Z</time>
      </trkpt>
      <trkpt lat="43.31299" lon="5.67666">
        <ele>659</ele>
        <time>2019-11-29T08:35:19.000Z</time>
      </trkpt>
      <trkpt lat="43.31299" lon="5.67666">
        <ele>659</ele>
        <time>2019-11-29T08:35:20.000Z</time>
      </trkpt>
      <trkpt lat="43.31299" lon="5.67666">
        <ele>659</ele>
        <time>2019-11-29T08:35:21.000Z</time>
      </trkpt>
      <trkpt lat="43.31299" lon="5.67666">
        <ele>659</ele>
        <time>2019-11-29T08:35:22.000Z</time>
      </trkpt>
      <trkpt lat="43.31299" lon="5.67666">
        <ele>659</ele>
        <time>2019-11-29T08:35:23.000Z</time>
      </trkpt>
      <trkpt lat="43.31299" lon="5.67666">
        <ele>659</ele>
        <time>2019-11-29T08:35:24.000Z</time>
      </trkpt>
      <trkpt lat="43.31299" lon="5.67666">
        <ele>659</ele>
        <time>2019-11-29T08:35:25.000Z</time>
      </trkpt>
      <trkpt lat="43.31299" lon="5.67666">
        <ele>659</ele>
        <time>2019-11-29T08:35:26.000Z</time>
      </trkpt>
      <trkpt lat="43.31299" lon="5.67666">
        <ele>659</ele>
        <time>2019-11-29T08:35:27.000Z</time>
      </trkpt>
      <trkpt lat="43.31299" lon="5.67666">
        <ele>659</ele>
        <time>2019-11-29T08:35:28.000Z</time>
      </trkpt>
      <trkpt lat="43.31299" lon="5.67666">
        <ele>659</ele>
        <time>2019-11-29T08:35:29.000Z</time>
      </trkpt>
      <trkpt lat="43.31299" lon="5.67666">
        <ele>659</ele>
        <time>2019-11-29T08:35:30.000Z</time>
      </trkpt>
      <trkpt lat="43.31299" lon="5.67666">
        <ele>659</ele>
        <time>2019-11-29T08:35:31.000Z</time>
      </trkpt>
      <trkpt lat="43.31299" lon="5.67666">
        <ele>659</ele>
        <time>2019-11-29T08:35:32.000Z</time>
      </trkpt>
      <trkpt lat="43.31299" lon="5.67666">
        <ele>659</ele>
        <time>2019-11-29T08:35:33.000Z</time>
      </trkpt>
      <trkpt lat="43.31299" lon="5.67666">
        <ele>659</ele>
        <time>2019-11-29T08:35:34.000Z</time>
      </trkpt>
      <trkpt lat="43.31299" lon="5.67666">
        <ele>659</ele>
        <time>2019-11-29T08:35:35.000Z</time>
      </trkpt>
      <trkpt lat="43.31299" lon="5.67666">
        <ele>659</ele>
        <time>2019-11-29T08:35:36.000Z</time>
      </trkpt>
      <trkpt lat="43.31299" lon="5.67666">
        <ele>659</ele>
        <time>2019-11-29T08:35:37.000Z</time>
      </trkpt>
      <trkpt lat="43.313" lon="5.67666">
        <ele>659</ele>
        <time>2019-11-29T08:35:38.000Z</time>
      </trkpt>
      <trkpt lat="43.313" lon="5.67667">
        <ele>659</ele>
        <time>2019-11-29T08:35:39.000Z</time>
      </trkpt>
      <trkpt lat="43.313" lon="5.67668">
        <ele>660</ele>
        <time>2019-11-29T08:35:40.000Z</time>
      </trkpt>
      <trkpt lat="43.31301" lon="5.67669">
        <ele>660</ele>
        <time>2019-11-29T08:35:41.000Z</time>
      </trkpt>
      <trkpt lat="43.31301" lon="5.67669">
        <ele>660</ele>
        <time>2019-11-29T08:35:42.000Z</time>
      </trkpt>
      <trkpt lat="43.31301" lon="5.6767">
        <ele>660</ele>
        <time>2019-11-29T08:35:43.000Z</time>
      </trkpt>
      <trkpt lat="43.31302" lon="5.67671">
        <ele>660</ele>
        <time>2019-11-29T08:35:44.000Z</time>
      </trkpt>
      <trkpt lat="43.31302" lon="5.67672">
        <ele>660</ele>
        <time>2019-11-29T08:35:45.000Z</time>
      </trkpt>
      <trkpt lat="43.31303" lon="5.67672">
        <ele>661</ele>
        <time>2019-11-29T08:35:46.000Z</time>
      </trkpt>
      <trkpt lat="43.31303" lon="5.67673">
        <ele>661</ele>
        <time>2019-11-29T08:35:47.000Z</time>
      </trkpt>
      <trkpt lat="43.31303" lon="5.67674">
        <ele>661</ele>
        <time>2019-11-29T08:35:48.000Z</time>
      </trkpt>
      <trkpt lat="43.31304" lon="5.67674">
        <ele>661</ele>
        <time>2019-11-29T08:35:49.000Z</time>
      </trkpt>
      <trkpt lat="43.31304" lon="5.67675">
        <ele>661</ele>
        <time>2019-11-29T08:35:50.000Z</time>
      </trkpt>
      <trkpt lat="43.31304" lon="5.67676">
        <ele>661</ele>
        <time>2019-11-29T08:35:51.000Z</time>
      </trkpt>
      <trkpt lat="43.31305" lon="5.67677">
        <ele>661</ele>
        <time>2019-11-29T08:35:52.000Z</time>
      </trkpt>
      <trkpt lat="43.31305" lon="5.67678">
        <ele>662</ele>
        <time>2019-11-29T08:35:53.000Z</time>
      </trkpt>
      <trkpt lat="43.31305" lon="5.67679">
        <ele>662</ele>
        <time>2019-11-29T08:35:54.000Z</time>
      </trkpt>
      <trkpt lat="43.31305" lon="5.6768">
        <ele>662</ele>
        <time>2019-11-29T08:35:55.000Z</time>
      </trkpt>
      <trkpt lat="43.31305" lon="5.6768">
        <ele>662</ele>
        <time>2019-11-29T08:35:56.000Z</time>
      </trkpt>
      <trkpt lat="43.31305" lon="5.67681">
        <ele>662</ele>
        <time>2019-11-29T08:35:57.000Z</time>
      </trkpt>
      <trkpt lat="43.31306" lon="5.67682">
        <ele>662</ele>
        <time>2019-11-29T08:35:58.000Z</time>
      </trkpt>
      <trkpt lat="43.31306" lon="5.67683">
        <ele>662</ele>
        <time>2019-11-29T08:35:59.000Z</time>
      </trkpt>
      <trkpt lat="43.31306" lon="5.67684">
        <ele>662</ele>
        <time>2019-11-29T08:36:00.000Z</time>
      </trkpt>
      <trkpt lat="43.31306" lon="5.67685">
        <ele>663</ele>
        <time>2019-11-29T08:36:01.000Z</time>
      </trkpt>
      <trkpt lat="43.31307" lon="5.67686">
        <ele>663</ele>
        <time>2019-11-29T08:36:02.000Z</time>
      </trkpt>
      <trkpt lat="43.31307" lon="5.67686">
        <ele>663</ele>
        <time>2019-11-29T08:36:03.000Z</time>
      </trkpt>
      <trkpt lat="43.31307" lon="5.67687">
        <ele>663</ele>
        <time>2019-11-29T08:36:04.000Z</time>
      </trkpt>
      <trkpt lat="43.31307" lon="5.67688">
        <ele>663</ele>
        <time>2019-11-29T08:36:05.000Z</time>
      </trkpt>
      <trkpt lat="43.31308" lon="5.67689">
        <ele>663</ele>
        <time>2019-11-29T08:36:06.000Z</time>
      </trkpt>
      <trkpt lat="43.31308" lon="5.6769">
        <ele>663</ele>
        <time>2019-11-29T08:36:07.000Z</time>
      </trkpt>
      <trkpt lat="43.31309" lon="5.67691">
        <ele>663</ele>
        <time>2019-11-29T08:36:08.000Z</time>
      </trkpt>
      <trkpt lat="43.31309" lon="5.67691">
        <ele>664</ele>
        <time>2019-11-29T08:36:09.000Z</time>
      </trkpt>
      <trkpt lat="43.31309" lon="5.67692">
        <ele>664</ele>
        <time>2019-11-29T08:36:10.000Z</time>
      </trkpt>
      <trkpt lat="43.31309" lon="5.67693">
        <ele>664</ele>
        <time>2019-11-29T08:36:11.000Z</time>
      </trkpt>
      <trkpt lat="43.31309" lon="5.67694">
        <ele>664</ele>
        <time>2019-11-29T08:36:12.000Z</time>
      </trkpt>
      <trkpt lat="43.3131" lon="5.67695">
        <ele>665</ele>
        <time>2019-11-29T08:36:13.000Z</time>
      </trkpt>
      <trkpt lat="43.3131" lon="5.67696">
        <ele>665</ele>
        <time>2019-11-29T08:36:14.000Z</time>
      </trkpt>
      <trkpt lat="43.3131" lon="5.67697">
        <ele>665</ele>
        <time>2019-11-29T08:36:15.000Z</time>
      </trkpt>
      <trkpt lat="43.3131" lon="5.67698">
        <ele>665</ele>
        <time>2019-11-29T08:36:16.000Z</time>
      </trkpt>
      <trkpt lat="43.31311" lon="5.67698">
        <ele>666</ele>
        <time>2019-11-29T08:36:17.000Z</time>
      </trkpt>
      <trkpt lat="43.31311" lon="5.67699">
        <ele>666</ele>
        <time>2019-11-29T08:36:18.000Z</time>
      </trkpt>
      <trkpt lat="43.31311" lon="5.677">
        <ele>666</ele>
        <time>2019-11-29T08:36:19.000Z</time>
      </trkpt>
      <trkpt lat="43.31311" lon="5.67701">
        <ele>666</ele>
        <time>2019-11-29T08:36:20.000Z</time>
      </trkpt>
      <trkpt lat="43.31312" lon="5.67702">
        <ele>666</ele>
        <time>2019-11-29T08:36:21.000Z</time>
      </trkpt>
      <trkpt lat="43.31312" lon="5.67703">
        <ele>667</ele>
        <time>2019-11-29T08:36:22.000Z</time>
      </trkpt>
      <trkpt lat="43.31313" lon="5.67703">
        <ele>667</ele>
        <time>2019-11-29T08:36:23.000Z</time>
      </trkpt>
      <trkpt lat="43.31313" lon="5.67704">
        <ele>667</ele>
        <time>2019-11-29T08:36:24.000Z</time>
      </trkpt>
      <trkpt lat="43.31313" lon="5.67705">
        <ele>667</ele>
        <time>2019-11-29T08:36:25.000Z</time>
      </trkpt>
      <trkpt lat="43.31313" lon="5.67706">
        <ele>667</ele>
        <time>2019-11-29T08:36:26.000Z</time>
      </trkpt>
      <trkpt lat="43.31314" lon="5.67706">
        <ele>668</ele>
        <time>2019-11-29T08:36:27.000Z</time>
      </trkpt>
      <trkpt lat="43.31314" lon="5.67707">
        <ele>668</ele>
        <time>2019-11-29T08:36:28.000Z</time>
      </trkpt>
      <trkpt lat="43.31314" lon="5.67708">
        <ele>668</ele>
        <time>2019-11-29T08:36:29.000Z</time>
      </trkpt>
      <trkpt lat="43.31314" lon="5.67709">
        <ele>668</ele>
        <time>2019-11-29T08:36:30.000Z</time>
      </trkpt>
      <trkpt lat="43.31315" lon="5.67709">
        <ele>668</ele>
        <time>2019-11-29T08:36:31.000Z</time>
      </trkpt>
      <trkpt lat="43.31316" lon="5.6771">
        <ele>669</ele>
        <time>2019-11-29T08:36:32.000Z</time>
      </trkpt>
      <trkpt lat="43.31316" lon="5.67711">
        <ele>669</ele>
        <time>2019-11-29T08:36:33.000Z</time>
      </trkpt>
      <trkpt lat="43.31317" lon="5.67712">
        <ele>669</ele>
        <time>2019-11-29T08:36:34.000Z</time>
      </trkpt>
      <trkpt lat="43.31317" lon="5.67713">
        <ele>669</ele>
        <time>2019-11-29T08:36:35.000Z</time>
      </trkpt>
      <trkpt lat="43.31317" lon="5.67713">
        <ele>669</ele>
        <time>2019-11-29T08:36:36.000Z</time>
      </trkpt>
      <trkpt lat="43.31318" lon="5.67714">
        <ele>670</ele>
        <time>2019-11-29T08:36:37.000Z</time>
      </trkpt>
      <trkpt lat="43.31318" lon="5.67715">
        <ele>670</ele>
        <time>2019-11-29T08:36:38.000Z</time>
      </trkpt>
      <trkpt lat="43.31318" lon="5.67716">
        <ele>670</ele>
        <time>2019-11-29T08:36:39.000Z</time>
      </trkpt>
      <trkpt lat="43.31319" lon="5.67716">
        <ele>670</ele>
        <time>2019-11-29T08:36:40.000Z</time>
      </trkpt>
      <trkpt lat="43.31319" lon="5.67717">
        <ele>671</ele>
        <time>2019-11-29T08:36:41.000Z</time>
      </trkpt>
      <trkpt lat="43.31319" lon="5.67718">
        <ele>671</ele>
        <time>2019-11-29T08:36:42.000Z</time>
      </trkpt>
      <trkpt lat="43.3132" lon="5.67718">
        <ele>671</ele>
        <time>2019-11-29T08:36:43.000Z</time>
      </trkpt>
      <trkpt lat="43.3132" lon="5.67719">
        <ele>671</ele>
        <time>2019-11-29T08:36:44.000Z</time>
      </trkpt>
      <trkpt lat="43.3132" lon="5.6772">
        <ele>671</ele>
        <time>2019-11-29T08:36:45.000Z</time>
      </trkpt>
      <trkpt lat="43.3132" lon="5.67721">
        <ele>671</ele>
        <time>2019-11-29T08:36:46.000Z</time>
      </trkpt>
      <trkpt lat="43.31321" lon="5.67721">
        <ele>671</ele>
        <time>2019-11-29T08:36:47.000Z</time>
      </trkpt>
      <trkpt lat="43.31321" lon="5.67722">
        <ele>672</ele>
        <time>2019-11-29T08:36:48.000Z</time>
      </trkpt>
      <trkpt lat="43.31321" lon="5.67723">
        <ele>672</ele>
        <time>2019-11-29T08:36:49.000Z</time>
      </trkpt>
      <trkpt lat="43.31321" lon="5.67724">
        <ele>672</ele>
        <time>2019-11-29T08:36:50.000Z</time>
      </trkpt>
      <trkpt lat="43.31322" lon="5.67725">
        <ele>672</ele>
        <time>2019-11-29T08:36:51.000Z</time>
      </trkpt>
      <trkpt lat="43.31322" lon="5.67725">
        <ele>672</ele>
        <time>2019-11-29T08:36:52.000Z</time>
      </trkpt>
      <trkpt lat="43.31322" lon="5.67726">
        <ele>672</ele>
        <time>2019-11-29T08:36:53.000Z</time>
      </trkpt>
      <trkpt lat="43.31322" lon="5.67727">
        <ele>672</ele>
        <time>2019-11-29T08:36:54.000Z</time>
      </trkpt>
      <trkpt lat="43.31322" lon="5.67727">
        <ele>672</ele>
        <time>2019-11-29T08:36:55.000Z</time>
      </trkpt>
      <trkpt lat="43.31322" lon="5.67728">
        <ele>672</ele>
        <time>2019-11-29T08:36:56.000Z</time>
      </trkpt>
      <trkpt lat="43.31322" lon="5.67728">
        <ele>672</ele>
        <time>2019-11-29T08:36:57.000Z</time>
      </trkpt>
      <trkpt lat="43.31322" lon="5.67729">
        <ele>672</ele>
        <time>2019-11-29T08:36:58.000Z</time>
      </trkpt>
      <trkpt lat="43.31323" lon="5.67729">
        <ele>673</ele>
        <time>2019-11-29T08:36:59.000Z</time>
      </trkpt>
      <trkpt lat="43.31323" lon="5.6773">
        <ele>673</ele>
        <time>2019-11-29T08:37:00.000Z</time>
      </trkpt>
      <trkpt lat="43.31323" lon="5.67731">
        <ele>673</ele>
        <time>2019-11-29T08:37:01.000Z</time>
      </trkpt>
      <trkpt lat="43.31323" lon="5.67732">
        <ele>673</ele>
        <time>2019-11-29T08:37:02.000Z</time>
      </trkpt>
      <trkpt lat="43.31324" lon="5.67733">
        <ele>673</ele>
        <time>2019-11-29T08:37:03.000Z</time>
      </trkpt>
      <trkpt lat="43.31324" lon="5.67734">
        <ele>673</ele>
        <time>2019-11-29T08:37:04.000Z</time>
      </trkpt>
      <trkpt lat="43.31324" lon="5.67734">
        <ele>673</ele>
        <time>2019-11-29T08:37:05.000Z</time>
      </trkpt>
      <trkpt lat="43.31324" lon="5.67735">
        <ele>674</ele>
        <time>2019-11-29T08:37:06.000Z</time>
      </trkpt>
      <trkpt lat="43.31325" lon="5.67736">
        <ele>674</ele>
        <time>2019-11-29T08:37:07.000Z</time>
      </trkpt>
      <trkpt lat="43.31325" lon="5.67737">
        <ele>674</ele>
        <time>2019-11-29T08:37:08.000Z</time>
      </trkpt>
      <trkpt lat="43.31325" lon="5.67738">
        <ele>674</ele>
        <time>2019-11-29T08:37:09.000Z</time>
      </trkpt>
      <trkpt lat="43.31326" lon="5.67738">
        <ele>674</ele>
        <time>2019-11-29T08:37:10.000Z</time>
      </trkpt>
      <trkpt lat="43.31326" lon="5.67739">
        <ele>674</ele>
        <time>2019-11-29T08:37:11.000Z</time>
      </trkpt>
      <trkpt lat="43.31326" lon="5.6774">
        <ele>675</ele>
        <time>2019-11-29T08:37:12.000Z</time>
      </trkpt>
      <trkpt lat="43.31326" lon="5.67741">
        <ele>675</ele>
        <time>2019-11-29T08:37:13.000Z</time>
      </trkpt>
      <trkpt lat="43.31326" lon="5.67742">
        <ele>675</ele>
        <time>2019-11-29T08:37:14.000Z</time>
      </trkpt>
      <trkpt lat="43.31326" lon="5.67743">
        <ele>675</ele>
        <time>2019-11-29T08:37:15.000Z</time>
      </trkpt>
      <trkpt lat="43.31326" lon="5.67744">
        <ele>675</ele>
        <time>2019-11-29T08:37:16.000Z</time>
      </trkpt>
      <trkpt lat="43.31326" lon="5.67745">
        <ele>675</ele>
        <time>2019-11-29T08:37:17.000Z</time>
      </trkpt>
      <trkpt lat="43.31326" lon="5.67746">
        <ele>676</ele>
        <time>2019-11-29T08:37:18.000Z</time>
      </trkpt>
      <trkpt lat="43.31326" lon="5.67747">
        <ele>676</ele>
        <time>2019-11-29T08:37:19.000Z</time>
      </trkpt>
      <trkpt lat="43.31325" lon="5.67748">
        <ele>676</ele>
        <time>2019-11-29T08:37:20.000Z</time>
      </trkpt>
      <trkpt lat="43.31325" lon="5.67749">
        <ele>676</ele>
        <time>2019-11-29T08:37:21.000Z</time>
      </trkpt>
      <trkpt lat="43.31325" lon="5.6775">
        <ele>677</ele>
        <time>2019-11-29T08:37:22.000Z</time>
      </trkpt>
      <trkpt lat="43.31325" lon="5.67751">
        <ele>677</ele>
        <time>2019-11-29T08:37:23.000Z</time>
      </trkpt>
      <trkpt lat="43.31325" lon="5.67752">
        <ele>677</ele>
        <time>2019-11-29T08:37:24.000Z</time>
      </trkpt>
      <trkpt lat="43.31325" lon="5.67753">
        <ele>677</ele>
        <time>2019-11-29T08:37:25.000Z</time>
      </trkpt>
      <trkpt lat="43.31325" lon="5.67754">
        <ele>677</ele>
        <time>2019-11-29T08:37:26.000Z</time>
      </trkpt>
      <trkpt lat="43.31325" lon="5.67755">
        <ele>678</ele>
        <time>2019-11-29T08:37:27.000Z</time>
      </trkpt>
      <trkpt lat="43.31325" lon="5.67756">
        <ele>678</ele>
        <time>2019-11-29T08:37:28.000Z</time>
      </trkpt>
      <trkpt lat="43.31324" lon="5.67757">
        <ele>678</ele>
        <time>2019-11-29T08:37:29.000Z</time>
      </trkpt>
      <trkpt lat="43.31324" lon="5.67759">
        <ele>678</ele>
        <time>2019-11-29T08:37:30.000Z</time>
      </trkpt>
      <trkpt lat="43.31324" lon="5.6776">
        <ele>678</ele>
        <time>2019-11-29T08:37:31.000Z</time>
      </trkpt>
      <trkpt lat="43.31324" lon="5.67761">
        <ele>678</ele>
        <time>2019-11-29T08:37:32.000Z</time>
      </trkpt>
      <trkpt lat="43.31323" lon="5.67762">
        <ele>678</ele>
        <time>2019-11-29T08:37:33.000Z</time>
      </trkpt>
      <trkpt lat="43.31323" lon="5.67764">
        <ele>678</ele>
        <time>2019-11-29T08:37:34.000Z</time>
      </trkpt>
      <trkpt lat="43.31323" lon="5.67765">
        <ele>678</ele>
        <time>2019-11-29T08:37:35.000Z</time>
      </trkpt>
      <trkpt lat="43.31323" lon="5.67767">
        <ele>679</ele>
        <time>2019-11-29T08:37:36.000Z</time>
      </trkpt>
      <trkpt lat="43.31323" lon="5.67768">
        <ele>679</ele>
        <time>2019-11-29T08:37:37.000Z</time>
      </trkpt>
      <trkpt lat="43.31322" lon="5.67769">
        <ele>679</ele>
        <time>2019-11-29T08:37:38.000Z</time>
      </trkpt>
      <trkpt lat="43.31322" lon="5.6777">
        <ele>679</ele>
        <time>2019-11-29T08:37:39.000Z</time>
      </trkpt>
      <trkpt lat="43.31321" lon="5.67771">
        <ele>679</ele>
        <time>2019-11-29T08:37:40.000Z</time>
      </trkpt>
      <trkpt lat="43.3132" lon="5.67772">
        <ele>679</ele>
        <time>2019-11-29T08:37:41.000Z</time>
      </trkpt>
      <trkpt lat="43.3132" lon="5.67774">
        <ele>679</ele>
        <time>2019-11-29T08:37:42.000Z</time>
      </trkpt>
      <trkpt lat="43.3132" lon="5.67775">
        <ele>679</ele>
        <time>2019-11-29T08:37:43.000Z</time>
      </trkpt>
      <trkpt lat="43.31319" lon="5.67776">
        <ele>679</ele>
        <time>2019-11-29T08:37:44.000Z</time>
      </trkpt>
      <trkpt lat="43.31319" lon="5.67777">
        <ele>679</ele>
        <time>2019-11-29T08:37:45.000Z</time>
      </trkpt>
      <trkpt lat="43.31318" lon="5.67779">
        <ele>680</ele>
        <time>2019-11-29T08:37:46.000Z</time>
      </trkpt>
      <trkpt lat="43.31318" lon="5.67781">
        <ele>680</ele>
        <time>2019-11-29T08:37:47.000Z</time>
      </trkpt>
      <trkpt lat="43.31318" lon="5.67782">
        <ele>680</ele>
        <time>2019-11-29T08:37:48.000Z</time>
      </trkpt>
      <trkpt lat="43.31317" lon="5.67783">
        <ele>680</ele>
        <time>2019-11-29T08:37:49.000Z</time>
      </trkpt>
      <trkpt lat="43.31317" lon="5.67784">
        <ele>680</ele>
        <time>2019-11-29T08:37:50.000Z</time>
      </trkpt>
      <trkpt lat="43.31317" lon="5.67786">
        <ele>680</ele>
        <time>2019-11-29T08:37:51.000Z</time>
      </trkpt>
      <trkpt lat="43.31317" lon="5.67787">
        <ele>680</ele>
        <time>2019-11-29T08:37:52.000Z</time>
      </trkpt>
      <trkpt lat="43.31316" lon="5.67788">
        <ele>680</ele>
        <time>2019-11-29T08:37:53.000Z</time>
      </trkpt>
      <trkpt lat="43.31316" lon="5.67789">
        <ele>680</ele>
        <time>2019-11-29T08:37:54.000Z</time>
      </trkpt>
      <trkpt lat="43.31315" lon="5.67791">
        <ele>680</ele>
        <time>2019-11-29T08:37:55.000Z</time>
      </trkpt>
      <trkpt lat="43.31315" lon="5.67792">
        <ele>680</ele>
        <time>2019-11-29T08:37:56.000Z</time>
      </trkpt>
      <trkpt lat="43.31315" lon="5.67793">
        <ele>680</ele>
        <time>2019-11-29T08:37:57.000Z</time>
      </trkpt>
      <trkpt lat="43.31314" lon="5.67794">
        <ele>680</ele>
        <time>2019-11-29T08:37:58.000Z</time>
      </trkpt>
      <trkpt lat="43.31314" lon="5.67795">
        <ele>680</ele>
        <time>2019-11-29T08:37:59.000Z</time>
      </trkpt>
      <trkpt lat="43.31314" lon="5.67797">
        <ele>680</ele>
        <time>2019-11-29T08:38:00.000Z</time>
      </trkpt>
      <trkpt lat="43.31313" lon="5.67797">
        <ele>680</ele>
        <time>2019-11-29T08:38:01.000Z</time>
      </trkpt>
      <trkpt lat="43.31313" lon="5.67799">
        <ele>680</ele>
        <time>2019-11-29T08:38:02.000Z</time>
      </trkpt>
      <trkpt lat="43.31313" lon="5.678">
        <ele>680</ele>
        <time>2019-11-29T08:38:03.000Z</time>
      </trkpt>
      <trkpt lat="43.31313" lon="5.67801">
        <ele>680</ele>
        <time>2019-11-29T08:38:04.000Z</time>
      </trkpt>
      <trkpt lat="43.31313" lon="5.67802">
        <ele>680</ele>
        <time>2019-11-29T08:38:05.000Z</time>
      </trkpt>
      <trkpt lat="43.31312" lon="5.67803">
        <ele>680</ele>
        <time>2019-11-29T08:38:06.000Z</time>
      </trkpt>
      <trkpt lat="43.31313" lon="5.67804">
        <ele>680</ele>
        <time>2019-11-29T08:38:07.000Z</time>
      </trkpt>
      <trkpt lat="43.31313" lon="5.67805">
        <ele>680</ele>
        <time>2019-11-29T08:38:08.000Z</time>
      </trkpt>
      <trkpt lat="43.31313" lon="5.67806">
        <ele>680</ele>
        <time>2019-11-29T08:38:09.000Z</time>
      </trkpt>
      <trkpt lat="43.31313" lon="5.67808">
        <ele>680</ele>
        <time>2019-11-29T08:38:10.000Z</time>
      </trkpt>
      <trkpt lat="43.31313" lon="5.67809">
        <ele>680</ele>
        <time>2019-11-29T08:38:11.000Z</time>
      </trkpt>
      <trkpt lat="43.31313" lon="5.6781">
        <ele>680</ele>
        <time>2019-11-29T08:38:12.000Z</time>
      </trkpt>
      <trkpt lat="43.31314" lon="5.6781">
        <ele>680</ele>
        <time>2019-11-29T08:38:13.000Z</time>
      </trkpt>
      <trkpt lat="43.31314" lon="5.67811">
        <ele>680</ele>
        <time>2019-11-29T08:38:14.000Z</time>
      </trkpt>
      <trkpt lat="43.31314" lon="5.67812">
        <ele>681</ele>
        <time>2019-11-29T08:38:15.000Z</time>
      </trkpt>
      <trkpt lat="43.31315" lon="5.67813">
        <ele>681</ele>
        <time>2019-11-29T08:38:16.000Z</time>
      </trkpt>
      <trkpt lat="43.31315" lon="5.67814">
        <ele>681</ele>
        <time>2019-11-29T08:38:17.000Z</time>
      </trkpt>
      <trkpt lat="43.31315" lon="5.67815">
        <ele>681</ele>
        <time>2019-11-29T08:38:18.000Z</time>
      </trkpt>
      <trkpt lat="43.31316" lon="5.67816">
        <ele>681</ele>
        <time>2019-11-29T08:38:19.000Z</time>
      </trkpt>
      <trkpt lat="43.31316" lon="5.67816">
        <ele>681</ele>
        <time>2019-11-29T08:38:20.000Z</time>
      </trkpt>
      <trkpt lat="43.31317" lon="5.67817">
        <ele>681</ele>
        <time>2019-11-29T08:38:21.000Z</time>
      </trkpt>
      <trkpt lat="43.31317" lon="5.67818">
        <ele>681</ele>
        <time>2019-11-29T08:38:22.000Z</time>
      </trkpt>
      <trkpt lat="43.31317" lon="5.67819">
        <ele>681</ele>
        <time>2019-11-29T08:38:23.000Z</time>
      </trkpt>
      <trkpt lat="43.31318" lon="5.67819">
        <ele>681</ele>
        <time>2019-11-29T08:38:24.000Z</time>
      </trkpt>
      <trkpt lat="43.31319" lon="5.6782">
        <ele>681</ele>
        <time>2019-11-29T08:38:25.000Z</time>
      </trkpt>
      <trkpt lat="43.31319" lon="5.6782">
        <ele>681</ele>
        <time>2019-11-29T08:38:26.000Z</time>
      </trkpt>
      <trkpt lat="43.3132" lon="5.67821">
        <ele>681</ele>
        <time>2019-11-29T08:38:27.000Z</time>
      </trkpt>
      <trkpt lat="43.3132" lon="5.67822">
        <ele>681</ele>
        <time>2019-11-29T08:38:28.000Z</time>
      </trkpt>
      <trkpt lat="43.31321" lon="5.67823">
        <ele>681</ele>
        <time>2019-11-29T08:38:29.000Z</time>
      </trkpt>
      <trkpt lat="43.31321" lon="5.67823">
        <ele>681</ele>
        <time>2019-11-29T08:38:30.000Z</time>
      </trkpt>
      <trkpt lat="43.31322" lon="5.67824">
        <ele>681</ele>
        <time>2019-11-29T08:38:31.000Z</time>
      </trkpt>
      <trkpt lat="43.31322" lon="5.67825">
        <ele>681</ele>
        <time>2019-11-29T08:38:32.000Z</time>
      </trkpt>
      <trkpt lat="43.31322" lon="5.67826">
        <ele>681</ele>
        <time>2019-11-29T08:38:33.000Z</time>
      </trkpt>
      <trkpt lat="43.31323" lon="5.67827">
        <ele>681</ele>
        <time>2019-11-29T08:38:34.000Z</time>
      </trkpt>
      <trkpt lat="43.31323" lon="5.67828">
        <ele>681</ele>
        <time>2019-11-29T08:38:35.000Z</time>
      </trkpt>
      <trkpt lat="43.31323" lon="5.67829">
        <ele>681</ele>
        <time>2019-11-29T08:38:36.000Z</time>
      </trkpt>
      <trkpt lat="43.31323" lon="5.6783">
        <ele>682</ele>
        <time>2019-11-29T08:38:37.000Z</time>
      </trkpt>
      <trkpt lat="43.31324" lon="5.6783">
        <ele>682</ele>
        <time>2019-11-29T08:38:38.000Z</time>
      </trkpt>
      <trkpt lat="43.31324" lon="5.67831">
        <ele>682</ele>
        <time>2019-11-29T08:38:39.000Z</time>
      </trkpt>
      <trkpt lat="43.31324" lon="5.67832">
        <ele>682</ele>
        <time>2019-11-29T08:38:40.000Z</time>
      </trkpt>
      <trkpt lat="43.31324" lon="5.67833">
        <ele>682</ele>
        <time>2019-11-29T08:38:41.000Z</time>
      </trkpt>
      <trkpt lat="43.31324" lon="5.67833">
        <ele>682</ele>
        <time>2019-11-29T08:38:42.000Z</time>
      </trkpt>
      <trkpt lat="43.31324" lon="5.67834">
        <ele>682</ele>
        <time>2019-11-29T08:38:43.000Z</time>
      </trkpt>
      <trkpt lat="43.31324" lon="5.67835">
        <ele>682</ele>
        <time>2019-11-29T08:38:44.000Z</time>
      </trkpt>
      <trkpt lat="43.31324" lon="5.67835">
        <ele>682</ele>
        <time>2019-11-29T08:38:45.000Z</time>
      </trkpt>
      <trkpt lat="43.31325" lon="5.67836">
        <ele>683</ele>
        <time>2019-11-29T08:38:46.000Z</time>
      </trkpt>
      <trkpt lat="43.31325" lon="5.67837">
        <ele>683</ele>
        <time>2019-11-29T08:38:47.000Z</time>
      </trkpt>
      <trkpt lat="43.31325" lon="5.67838">
        <ele>683</ele>
        <time>2019-11-29T08:38:48.000Z</time>
      </trkpt>
      <trkpt lat="43.31325" lon="5.67838">
        <ele>683</ele>
        <time>2019-11-29T08:38:49.000Z</time>
      </trkpt>
      <trkpt lat="43.31325" lon="5.67839">
        <ele>683</ele>
        <time>2019-11-29T08:38:50.000Z</time>
      </trkpt>
      <trkpt lat="43.31326" lon="5.6784">
        <ele>683</ele>
        <time>2019-11-29T08:38:51.000Z</time>
      </trkpt>
      <trkpt lat="43.31326" lon="5.67841">
        <ele>683</ele>
        <time>2019-11-29T08:38:52.000Z</time>
      </trkpt>
      <trkpt lat="43.31326" lon="5.67841">
        <ele>683</ele>
        <time>2019-11-29T08:38:53.000Z</time>
      </trkpt>
      <trkpt lat="43.31326" lon="5.67842">
        <ele>683</ele>
        <time>2019-11-29T08:38:54.000Z</time>
      </trkpt>
      <trkpt lat="43.31326" lon="5.67843">
        <ele>684</ele>
        <time>2019-11-29T08:38:55.000Z</time>
      </trkpt>
      <trkpt lat="43.31327" lon="5.67844">
        <ele>684</ele>
        <time>2019-11-29T08:38:56.000Z</time>
      </trkpt>
      <trkpt lat="43.31327" lon="5.67844">
        <ele>684</ele>
        <time>2019-11-29T08:38:57.000Z</time>
      </trkpt>
      <trkpt lat="43.31327" lon="5.67845">
        <ele>684</ele>
        <time>2019-11-29T08:38:58.000Z</time>
      </trkpt>
      <trkpt lat="43.31327" lon="5.67846">
        <ele>684</ele>
        <time>2019-11-29T08:38:59.000Z</time>
      </trkpt>
      <trkpt lat="43.31327" lon="5.67847">
        <ele>684</ele>
        <time>2019-11-29T08:39:00.000Z</time>
      </trkpt>
      <trkpt lat="43.31327" lon="5.67847">
        <ele>684</ele>
        <time>2019-11-29T08:39:01.000Z</time>
      </trkpt>
      <trkpt lat="43.31327" lon="5.67848">
        <ele>684</ele>
        <time>2019-11-29T08:39:02.000Z</time>
      </trkpt>
      <trkpt lat="43.31327" lon="5.67849">
        <ele>684</ele>
        <time>2019-11-29T08:39:03.000Z</time>
      </trkpt>
      <trkpt lat="43.31327" lon="5.6785">
        <ele>685</ele>
        <time>2019-11-29T08:39:04.000Z</time>
      </trkpt>
      <trkpt lat="43.31327" lon="5.6785">
        <ele>685</ele>
        <time>2019-11-29T08:39:05.000Z</time>
      </trkpt>
      <trkpt lat="43.31328" lon="5.67851">
        <ele>685</ele>
        <time>2019-11-29T08:39:06.000Z</time>
      </trkpt>
      <trkpt lat="43.31328" lon="5.67852">
        <ele>685</ele>
        <time>2019-11-29T08:39:07.000Z</time>
      </trkpt>
      <trkpt lat="43.31329" lon="5.67852">
        <ele>686</ele>
        <time>2019-11-29T08:39:08.000Z</time>
      </trkpt>
      <trkpt lat="43.31329" lon="5.67853">
        <ele>686</ele>
        <time>2019-11-29T08:39:09.000Z</time>
      </trkpt>
      <trkpt lat="43.31329" lon="5.67854">
        <ele>686</ele>
        <time>2019-11-29T08:39:10.000Z</time>
      </trkpt>
      <trkpt lat="43.3133" lon="5.67854">
        <ele>686</ele>
        <time>2019-11-29T08:39:11.000Z</time>
      </trkpt>
      <trkpt lat="43.3133" lon="5.67855">
        <ele>687</ele>
        <time>2019-11-29T08:39:12.000Z</time>
      </trkpt>
      <trkpt lat="43.3133" lon="5.67856">
        <ele>687</ele>
        <time>2019-11-29T08:39:13.000Z</time>
      </trkpt>
      <trkpt lat="43.3133" lon="5.67857">
        <ele>687</ele>
        <time>2019-11-29T08:39:14.000Z</time>
      </trkpt>
      <trkpt lat="43.31331" lon="5.67857">
        <ele>687</ele>
        <time>2019-11-29T08:39:15.000Z</time>
      </trkpt>
      <trkpt lat="43.31331" lon="5.67858">
        <ele>687</ele>
        <time>2019-11-29T08:39:16.000Z</time>
      </trkpt>
      <trkpt lat="43.31331" lon="5.67858">
        <ele>687</ele>
        <time>2019-11-29T08:39:17.000Z</time>
      </trkpt>
      <trkpt lat="43.31332" lon="5.67859">
        <ele>688</ele>
        <time>2019-11-29T08:39:18.000Z</time>
      </trkpt>
      <trkpt lat="43.31332" lon="5.67859">
        <ele>688</ele>
        <time>2019-11-29T08:39:19.000Z</time>
      </trkpt>
      <trkpt lat="43.31332" lon="5.6786">
        <ele>688</ele>
        <time>2019-11-29T08:39:20.000Z</time>
      </trkpt>
      <trkpt lat="43.31332" lon="5.67861">
        <ele>688</ele>
        <time>2019-11-29T08:39:21.000Z</time>
      </trkpt>
      <trkpt lat="43.31332" lon="5.67861">
        <ele>688</ele>
        <time>2019-11-29T08:39:22.000Z</time>
      </trkpt>
      <trkpt lat="43.31332" lon="5.67862">
        <ele>688</ele>
        <time>2019-11-29T08:39:23.000Z</time>
      </trkpt>
      <trkpt lat="43.31332" lon="5.67863">
        <ele>689</ele>
        <time>2019-11-29T08:39:24.000Z</time>
      </trkpt>
      <trkpt lat="43.31332" lon="5.67864">
        <ele>689</ele>
        <time>2019-11-29T08:39:25.000Z</time>
      </trkpt>
      <trkpt lat="43.31332" lon="5.67864">
        <ele>689</ele>
        <time>2019-11-29T08:39:26.000Z</time>
      </trkpt>
      <trkpt lat="43.31332" lon="5.67865">
        <ele>689</ele>
        <time>2019-11-29T08:39:27.000Z</time>
      </trkpt>
      <trkpt lat="43.31332" lon="5.67866">
        <ele>689</ele>
        <time>2019-11-29T08:39:28.000Z</time>
      </trkpt>
      <trkpt lat="43.31332" lon="5.67867">
        <ele>689</ele>
        <time>2019-11-29T08:39:29.000Z</time>
      </trkpt>
      <trkpt lat="43.31332" lon="5.67867">
        <ele>689</ele>
        <time>2019-11-29T08:39:30.000Z</time>
      </trkpt>
      <trkpt lat="43.31332" lon="5.67868">
        <ele>690</ele>
        <time>2019-11-29T08:39:31.000Z</time>
      </trkpt>
      <trkpt lat="43.31332" lon="5.67868">
        <ele>690</ele>
        <time>2019-11-29T08:39:32.000Z</time>
      </trkpt>
      <trkpt lat="43.31332" lon="5.67868">
        <ele>690</ele>
        <time>2019-11-29T08:39:33.000Z</time>
      </trkpt>
      <trkpt lat="43.31332" lon="5.67869">
        <ele>690</ele>
        <time>2019-11-29T08:39:34.000Z</time>
      </trkpt>
      <trkpt lat="43.31332" lon="5.6787">
        <ele>690</ele>
        <time>2019-11-29T08:39:35.000Z</time>
      </trkpt>
      <trkpt lat="43.31332" lon="5.6787">
        <ele>690</ele>
        <time>2019-11-29T08:39:36.000Z</time>
      </trkpt>
      <trkpt lat="43.31333" lon="5.67871">
        <ele>690</ele>
        <time>2019-11-29T08:39:37.000Z</time>
      </trkpt>
      <trkpt lat="43.31333" lon="5.67872">
        <ele>690</ele>
        <time>2019-11-29T08:39:38.000Z</time>
      </trkpt>
      <trkpt lat="43.31333" lon="5.67872">
        <ele>690</ele>
        <time>2019-11-29T08:39:39.000Z</time>
      </trkpt>
      <trkpt lat="43.31333" lon="5.67873">
        <ele>690</ele>
        <time>2019-11-29T08:39:40.000Z</time>
      </trkpt>
      <trkpt lat="43.31333" lon="5.67874">
        <ele>691</ele>
        <time>2019-11-29T08:39:41.000Z</time>
      </trkpt>
      <trkpt lat="43.31333" lon="5.67875">
        <ele>691</ele>
        <time>2019-11-29T08:39:42.000Z</time>
      </trkpt>
      <trkpt lat="43.31333" lon="5.67876">
        <ele>691</ele>
        <time>2019-11-29T08:39:43.000Z</time>
      </trkpt>
      <trkpt lat="43.31333" lon="5.67876">
        <ele>691</ele>
        <time>2019-11-29T08:39:44.000Z</time>
      </trkpt>
      <trkpt lat="43.31333" lon="5.67877">
        <ele>691</ele>
        <time>2019-11-29T08:39:45.000Z</time>
      </trkpt>
      <trkpt lat="43.31333" lon="5.67878">
        <ele>691</ele>
        <time>2019-11-29T08:39:46.000Z</time>
      </trkpt>
      <trkpt lat="43.31333" lon="5.67878">
        <ele>691</ele>
        <time>2019-11-29T08:39:47.000Z</time>
      </trkpt>
      <trkpt lat="43.31333" lon="5.67878">
        <ele>691</ele>
        <time>2019-11-29T08:39:48.000Z</time>
      </trkpt>
      <trkpt lat="43.31333" lon="5.67879">
        <ele>691</ele>
        <time>2019-11-29T08:39:49.000Z</time>
      </trkpt>
      <trkpt lat="43.31333" lon="5.67879">
        <ele>692</ele>
        <time>2019-11-29T08:39:50.000Z</time>
      </trkpt>
      <trkpt lat="43.31334" lon="5.67879">
        <ele>692</ele>
        <time>2019-11-29T08:39:51.000Z</time>
      </trkpt>
      <trkpt lat="43.31334" lon="5.6788">
        <ele>692</ele>
        <time>2019-11-29T08:39:52.000Z</time>
      </trkpt>
      <trkpt lat="43.31334" lon="5.6788">
        <ele>692</ele>
        <time>2019-11-29T08:39:53.000Z</time>
      </trkpt>
      <trkpt lat="43.31334" lon="5.67881">
        <ele>692</ele>
        <time>2019-11-29T08:39:54.000Z</time>
      </trkpt>
      <trkpt lat="43.31334" lon="5.67882">
        <ele>692</ele>
        <time>2019-11-29T08:39:55.000Z</time>
      </trkpt>
      <trkpt lat="43.31335" lon="5.67882">
        <ele>692</ele>
        <time>2019-11-29T08:39:56.000Z</time>
      </trkpt>
      <trkpt lat="43.31335" lon="5.67883">
        <ele>692</ele>
        <time>2019-11-29T08:39:57.000Z</time>
      </trkpt>
      <trkpt lat="43.31336" lon="5.67883">
        <ele>692</ele>
        <time>2019-11-29T08:39:58.000Z</time>
      </trkpt>
      <trkpt lat="43.31336" lon="5.67884">
        <ele>693</ele>
        <time>2019-11-29T08:39:59.000Z</time>
      </trkpt>
      <trkpt lat="43.31337" lon="5.67885">
        <ele>693</ele>
        <time>2019-11-29T08:40:00.000Z</time>
      </trkpt>
      <trkpt lat="43.31337" lon="5.67885">
        <ele>693</ele>
        <time>2019-11-29T08:40:01.000Z</time>
      </trkpt>
      <trkpt lat="43.31338" lon="5.67886">
        <ele>693</ele>
        <time>2019-11-29T08:40:02.000Z</time>
      </trkpt>
      <trkpt lat="43.31339" lon="5.67887">
        <ele>693</ele>
        <time>2019-11-29T08:40:03.000Z</time>
      </trkpt>
      <trkpt lat="43.31339" lon="5.67887">
        <ele>694</ele>
        <time>2019-11-29T08:40:04.000Z</time>
      </trkpt>
      <trkpt lat="43.3134" lon="5.67888">
        <ele>694</ele>
        <time>2019-11-29T08:40:05.000Z</time>
      </trkpt>
      <trkpt lat="43.3134" lon="5.67888">
        <ele>694</ele>
        <time>2019-11-29T08:40:06.000Z</time>
      </trkpt>
      <trkpt lat="43.31341" lon="5.67889">
        <ele>694</ele>
        <time>2019-11-29T08:40:07.000Z</time>
      </trkpt>
      <trkpt lat="43.31341" lon="5.67889">
        <ele>694</ele>
        <time>2019-11-29T08:40:08.000Z</time>
      </trkpt>
      <trkpt lat="43.31342" lon="5.6789">
        <ele>694</ele>
        <time>2019-11-29T08:40:09.000Z</time>
      </trkpt>
      <trkpt lat="43.31343" lon="5.67891">
        <ele>694</ele>
        <time>2019-11-29T08:40:10.000Z</time>
      </trkpt>
      <trkpt lat="43.31343" lon="5.67891">
        <ele>695</ele>
        <time>2019-11-29T08:40:11.000Z</time>
      </trkpt>
      <trkpt lat="43.31343" lon="5.67891">
        <ele>695</ele>
        <time>2019-11-29T08:40:12.000Z</time>
      </trkpt>
      <trkpt lat="43.31344" lon="5.67892">
        <ele>695</ele>
        <time>2019-11-29T08:40:13.000Z</time>
      </trkpt>
      <trkpt lat="43.31344" lon="5.67893">
        <ele>695</ele>
        <time>2019-11-29T08:40:14.000Z</time>
      </trkpt>
      <trkpt lat="43.31345" lon="5.67894">
        <ele>696</ele>
        <time>2019-11-29T08:40:15.000Z</time>
      </trkpt>
      <trkpt lat="43.31345" lon="5.67894">
        <ele>696</ele>
        <time>2019-11-29T08:40:16.000Z</time>
      </trkpt>
      <trkpt lat="43.31345" lon="5.67895">
        <ele>696</ele>
        <time>2019-11-29T08:40:17.000Z</time>
      </trkpt>
      <trkpt lat="43.31345" lon="5.67896">
        <ele>696</ele>
        <time>2019-11-29T08:40:18.000Z</time>
      </trkpt>
      <trkpt lat="43.31345" lon="5.67896">
        <ele>697</ele>
        <time>2019-11-29T08:40:19.000Z</time>
      </trkpt>
      <trkpt lat="43.31345" lon="5.67897">
        <ele>697</ele>
        <time>2019-11-29T08:40:20.000Z</time>
      </trkpt>
      <trkpt lat="43.31345" lon="5.67898">
        <ele>697</ele>
        <time>2019-11-29T08:40:21.000Z</time>
      </trkpt>
      <trkpt lat="43.31345" lon="5.67899">
        <ele>697</ele>
        <time>2019-11-29T08:40:22.000Z</time>
      </trkpt>
      <trkpt lat="43.31344" lon="5.67899">
        <ele>697</ele>
        <time>2019-11-29T08:40:23.000Z</time>
      </trkpt>
      <trkpt lat="43.31344" lon="5.679">
        <ele>697</ele>
        <time>2019-11-29T08:40:24.000Z</time>
      </trkpt>
      <trkpt lat="43.31344" lon="5.67901">
        <ele>697</ele>
        <time>2019-11-29T08:40:25.000Z</time>
      </trkpt>
      <trkpt lat="43.31344" lon="5.67901">
        <ele>697</ele>
        <time>2019-11-29T08:40:26.000Z</time>
      </trkpt>
      <trkpt lat="43.31344" lon="5.67902">
        <ele>698</ele>
        <time>2019-11-29T08:40:27.000Z</time>
      </trkpt>
      <trkpt lat="43.31344" lon="5.67903">
        <ele>698</ele>
        <time>2019-11-29T08:40:28.000Z</time>
      </trkpt>
      <trkpt lat="43.31344" lon="5.67903">
        <ele>698</ele>
        <time>2019-11-29T08:40:29.000Z</time>
      </trkpt>
      <trkpt lat="43.31343" lon="5.67904">
        <ele>698</ele>
        <time>2019-11-29T08:40:30.000Z</time>
      </trkpt>
      <trkpt lat="43.31343" lon="5.67905">
        <ele>698</ele>
        <time>2019-11-29T08:40:31.000Z</time>
      </trkpt>
      <trkpt lat="43.31343" lon="5.67905">
        <ele>698</ele>
        <time>2019-11-29T08:40:32.000Z</time>
      </trkpt>
      <trkpt lat="43.31343" lon="5.67906">
        <ele>698</ele>
        <time>2019-11-29T08:40:33.000Z</time>
      </trkpt>
      <trkpt lat="43.31343" lon="5.67907">
        <ele>698</ele>
        <time>2019-11-29T08:40:34.000Z</time>
      </trkpt>
      <trkpt lat="43.31343" lon="5.67908">
        <ele>699</ele>
        <time>2019-11-29T08:40:35.000Z</time>
      </trkpt>
      <trkpt lat="43.31342" lon="5.67908">
        <ele>699</ele>
        <time>2019-11-29T08:40:36.000Z</time>
      </trkpt>
      <trkpt lat="43.31341" lon="5.67908">
        <ele>699</ele>
        <time>2019-11-29T08:40:37.000Z</time>
      </trkpt>
      <trkpt lat="43.31341" lon="5.67909">
        <ele>699</ele>
        <time>2019-11-29T08:40:38.000Z</time>
      </trkpt>
      <trkpt lat="43.31341" lon="5.67909">
        <ele>699</ele>
        <time>2019-11-29T08:40:39.000Z</time>
      </trkpt>
      <trkpt lat="43.31341" lon="5.6791">
        <ele>699</ele>
        <time>2019-11-29T08:40:40.000Z</time>
      </trkpt>
      <trkpt lat="43.3134" lon="5.6791">
        <ele>699</ele>
        <time>2019-11-29T08:40:41.000Z</time>
      </trkpt>
      <trkpt lat="43.3134" lon="5.67911">
        <ele>699</ele>
        <time>2019-11-29T08:40:42.000Z</time>
      </trkpt>
      <trkpt lat="43.31339" lon="5.67911">
        <ele>699</ele>
        <time>2019-11-29T08:40:43.000Z</time>
      </trkpt>
      <trkpt lat="43.31339" lon="5.67912">
        <ele>699</ele>
        <time>2019-11-29T08:40:44.000Z</time>
      </trkpt>
      <trkpt lat="43.31339" lon="5.67912">
        <ele>699</ele>
        <time>2019-11-29T08:40:45.000Z</time>
      </trkpt>
      <trkpt lat="43.31338" lon="5.67912">
        <ele>699</ele>
        <time>2019-11-29T08:40:46.000Z</time>
      </trkpt>
      <trkpt lat="43.31338" lon="5.67913">
        <ele>700</ele>
        <time>2019-11-29T08:40:47.000Z</time>
      </trkpt>
      <trkpt lat="43.31338" lon="5.67913">
        <ele>700</ele>
        <time>2019-11-29T08:40:48.000Z</time>
      </trkpt>
      <trkpt lat="43.31337" lon="5.67913">
        <ele>700</ele>
        <time>2019-11-29T08:40:49.000Z</time>
      </trkpt>
      <trkpt lat="43.31337" lon="5.67913">
        <ele>700</ele>
        <time>2019-11-29T08:40:50.000Z</time>
      </trkpt>
      <trkpt lat="43.31336" lon="5.67914">
        <ele>700</ele>
        <time>2019-11-29T08:40:51.000Z</time>
      </trkpt>
      <trkpt lat="43.31336" lon="5.67915">
        <ele>700</ele>
        <time>2019-11-29T08:40:52.000Z</time>
      </trkpt>
      <trkpt lat="43.31336" lon="5.67915">
        <ele>700</ele>
        <time>2019-11-29T08:40:53.000Z</time>
      </trkpt>
      <trkpt lat="43.31335" lon="5.67916">
        <ele>700</ele>
        <time>2019-11-29T08:40:54.000Z</time>
      </trkpt>
      <trkpt lat="43.31335" lon="5.67917">
        <ele>700</ele>
        <time>2019-11-29T08:40:55.000Z</time>
      </trkpt>
      <trkpt lat="43.31335" lon="5.67917">
        <ele>700</ele>
        <time>2019-11-29T08:40:56.000Z</time>
      </trkpt>
      <trkpt lat="43.31335" lon="5.67917">
        <ele>700</ele>
        <time>2019-11-29T08:40:57.000Z</time>
      </trkpt>
      <trkpt lat="43.31335" lon="5.67918">
        <ele>700</ele>
        <time>2019-11-29T08:40:58.000Z</time>
      </trkpt>
      <trkpt lat="43.31334" lon="5.67918">
        <ele>700</ele>
        <time>2019-11-29T08:40:59.000Z</time>
      </trkpt>
      <trkpt lat="43.31334" lon="5.67919">
        <ele>701</ele>
        <time>2019-11-29T08:41:00.000Z</time>
      </trkpt>
      <trkpt lat="43.31334" lon="5.67919">
        <ele>701</ele>
        <time>2019-11-29T08:41:01.000Z</time>
      </trkpt>
      <trkpt lat="43.31334" lon="5.67919">
        <ele>701</ele>
        <time>2019-11-29T08:41:02.000Z</time>
      </trkpt>
      <trkpt lat="43.31334" lon="5.67919">
        <ele>701</ele>
        <time>2019-11-29T08:41:03.000Z</time>
      </trkpt>
      <trkpt lat="43.31334" lon="5.67919">
        <ele>701</ele>
        <time>2019-11-29T08:41:04.000Z</time>
      </trkpt>
      <trkpt lat="43.31334" lon="5.67919">
        <ele>701</ele>
        <time>2019-11-29T08:41:05.000Z</time>
      </trkpt>
      <trkpt lat="43.31334" lon="5.67919">
        <ele>701</ele>
        <time>2019-11-29T08:41:06.000Z</time>
      </trkpt>
      <trkpt lat="43.31334" lon="5.67919">
        <ele>701</ele>
        <time>2019-11-29T08:41:07.000Z</time>
      </trkpt>
      <trkpt lat="43.31333" lon="5.67919">
        <ele>701</ele>
        <time>2019-11-29T08:41:08.000Z</time>
      </trkpt>
      <trkpt lat="43.31333" lon="5.67919">
        <ele>702</ele>
        <time>2019-11-29T08:41:09.000Z</time>
      </trkpt>
      <trkpt lat="43.31333" lon="5.6792">
        <ele>702</ele>
        <time>2019-11-29T08:41:10.000Z</time>
      </trkpt>
      <trkpt lat="43.31334" lon="5.6792">
        <ele>702</ele>
        <time>2019-11-29T08:41:11.000Z</time>
      </trkpt>
      <trkpt lat="43.31334" lon="5.6792">
        <ele>702</ele>
        <time>2019-11-29T08:41:12.000Z</time>
      </trkpt>
      <trkpt lat="43.31334" lon="5.6792">
        <ele>702</ele>
        <time>2019-11-29T08:41:13.000Z</time>
      </trkpt>
      <trkpt lat="43.31334" lon="5.6792">
        <ele>702</ele>
        <time>2019-11-29T08:41:14.000Z</time>
      </trkpt>
      <trkpt lat="43.31334" lon="5.6792">
        <ele>702</ele>
        <time>2019-11-29T08:41:15.000Z</time>
      </trkpt>
      <trkpt lat="43.31334" lon="5.6792">
        <ele>702</ele>
        <time>2019-11-29T08:41:16.000Z</time>
      </trkpt>
      <trkpt lat="43.31334" lon="5.6792">
        <ele>702</ele>
        <time>2019-11-29T08:41:17.000Z</time>
      </trkpt>
      <trkpt lat="43.31334" lon="5.6792">
        <ele>702</ele>
        <time>2019-11-29T08:41:18.000Z</time>
      </trkpt>
      <trkpt lat="43.31333" lon="5.67921">
        <ele>702</ele>
        <time>2019-11-29T08:41:19.000Z</time>
      </trkpt>
      <trkpt lat="43.31333" lon="5.67921">
        <ele>702</ele>
        <time>2019-11-29T08:41:20.000Z</time>
      </trkpt>
      <trkpt lat="43.31333" lon="5.67922">
        <ele>702</ele>
        <time>2019-11-29T08:41:21.000Z</time>
      </trkpt>
      <trkpt lat="43.31333" lon="5.67922">
        <ele>703</ele>
        <time>2019-11-29T08:41:22.000Z</time>
      </trkpt>
      <trkpt lat="43.31332" lon="5.67923">
        <ele>703</ele>
        <time>2019-11-29T08:41:23.000Z</time>
      </trkpt>
      <trkpt lat="43.31332" lon="5.67923">
        <ele>703</ele>
        <time>2019-11-29T08:41:24.000Z</time>
      </trkpt>
      <trkpt lat="43.31332" lon="5.67923">
        <ele>703</ele>
        <time>2019-11-29T08:41:25.000Z</time>
      </trkpt>
      <trkpt lat="43.31332" lon="5.67924">
        <ele>703</ele>
        <time>2019-11-29T08:41:26.000Z</time>
      </trkpt>
      <trkpt lat="43.31331" lon="5.67924">
        <ele>703</ele>
        <time>2019-11-29T08:41:27.000Z</time>
      </trkpt>
      <trkpt lat="43.31331" lon="5.67925">
        <ele>703</ele>
        <time>2019-11-29T08:41:28.000Z</time>
      </trkpt>
      <trkpt lat="43.31331" lon="5.67925">
        <ele>703</ele>
        <time>2019-11-29T08:41:29.000Z</time>
      </trkpt>
      <trkpt lat="43.31331" lon="5.67926">
        <ele>703</ele>
        <time>2019-11-29T08:41:30.000Z</time>
      </trkpt>
      <trkpt lat="43.31331" lon="5.67926">
        <ele>703</ele>
        <time>2019-11-29T08:41:31.000Z</time>
      </trkpt>
      <trkpt lat="43.31331" lon="5.67927">
        <ele>703</ele>
        <time>2019-11-29T08:41:32.000Z</time>
      </trkpt>
      <trkpt lat="43.31331" lon="5.67927">
        <ele>703</ele>
        <time>2019-11-29T08:41:33.000Z</time>
      </trkpt>
      <trkpt lat="43.31331" lon="5.67928">
        <ele>703</ele>
        <time>2019-11-29T08:41:34.000Z</time>
      </trkpt>
      <trkpt lat="43.3133" lon="5.67928">
        <ele>703</ele>
        <time>2019-11-29T08:41:35.000Z</time>
      </trkpt>
      <trkpt lat="43.3133" lon="5.67929">
        <ele>703</ele>
        <time>2019-11-29T08:41:36.000Z</time>
      </trkpt>
      <trkpt lat="43.3133" lon="5.67929">
        <ele>703</ele>
        <time>2019-11-29T08:41:37.000Z</time>
      </trkpt>
      <trkpt lat="43.31331" lon="5.6793">
        <ele>703</ele>
        <time>2019-11-29T08:41:38.000Z</time>
      </trkpt>
      <trkpt lat="43.31331" lon="5.6793">
        <ele>704</ele>
        <time>2019-11-29T08:41:39.000Z</time>
      </trkpt>
      <trkpt lat="43.31331" lon="5.6793">
        <ele>704</ele>
        <time>2019-11-29T08:41:40.000Z</time>
      </trkpt>
      <trkpt lat="43.31331" lon="5.6793">
        <ele>704</ele>
        <time>2019-11-29T08:41:41.000Z</time>
      </trkpt>
      <trkpt lat="43.31331" lon="5.67931">
        <ele>704</ele>
        <time>2019-11-29T08:41:42.000Z</time>
      </trkpt>
      <trkpt lat="43.31331" lon="5.67931">
        <ele>704</ele>
        <time>2019-11-29T08:41:43.000Z</time>
      </trkpt>
      <trkpt lat="43.31331" lon="5.67932">
        <ele>705</ele>
        <time>2019-11-29T08:41:44.000Z</time>
      </trkpt>
      <trkpt lat="43.31331" lon="5.67932">
        <ele>705</ele>
        <time>2019-11-29T08:41:45.000Z</time>
      </trkpt>
      <trkpt lat="43.31331" lon="5.67932">
        <ele>705</ele>
        <time>2019-11-29T08:41:46.000Z</time>
      </trkpt>
      <trkpt lat="43.31331" lon="5.67932">
        <ele>705</ele>
        <time>2019-11-29T08:41:47.000Z</time>
      </trkpt>
      <trkpt lat="43.31332" lon="5.67933">
        <ele>705</ele>
        <time>2019-11-29T08:41:48.000Z</time>
      </trkpt>
      <trkpt lat="43.31332" lon="5.67933">
        <ele>706</ele>
        <time>2019-11-29T08:41:49.000Z</time>
      </trkpt>
      <trkpt lat="43.31332" lon="5.67934">
        <ele>706</ele>
        <time>2019-11-29T08:41:50.000Z</time>
      </trkpt>
      <trkpt lat="43.31332" lon="5.67934">
        <ele>706</ele>
        <time>2019-11-29T08:41:51.000Z</time>
      </trkpt>
      <trkpt lat="43.31332" lon="5.67935">
        <ele>706</ele>
        <time>2019-11-29T08:41:52.000Z</time>
      </trkpt>
      <trkpt lat="43.31332" lon="5.67935">
        <ele>706</ele>
        <time>2019-11-29T08:41:53.000Z</time>
      </trkpt>
      <trkpt lat="43.31333" lon="5.67936">
        <ele>707</ele>
        <time>2019-11-29T08:41:54.000Z</time>
      </trkpt>
      <trkpt lat="43.31333" lon="5.67936">
        <ele>707</ele>
        <time>2019-11-29T08:41:55.000Z</time>
      </trkpt>
      <trkpt lat="43.31333" lon="5.67937">
        <ele>707</ele>
        <time>2019-11-29T08:41:56.000Z</time>
      </trkpt>
      <trkpt lat="43.31333" lon="5.67938">
        <ele>707</ele>
        <time>2019-11-29T08:41:57.000Z</time>
      </trkpt>
      <trkpt lat="43.31333" lon="5.67938">
        <ele>707</ele>
        <time>2019-11-29T08:41:58.000Z</time>
      </trkpt>
      <trkpt lat="43.31333" lon="5.67939">
        <ele>707</ele>
        <time>2019-11-29T08:41:59.000Z</time>
      </trkpt>
      <trkpt lat="43.31332" lon="5.67939">
        <ele>708</ele>
        <time>2019-11-29T08:42:00.000Z</time>
      </trkpt>
      <trkpt lat="43.31332" lon="5.6794">
        <ele>708</ele>
        <time>2019-11-29T08:42:01.000Z</time>
      </trkpt>
      <trkpt lat="43.31332" lon="5.67941">
        <ele>708</ele>
        <time>2019-11-29T08:42:02.000Z</time>
      </trkpt>
      <trkpt lat="43.31332" lon="5.67941">
        <ele>708</ele>
        <time>2019-11-29T08:42:03.000Z</time>
      </trkpt>
      <trkpt lat="43.31332" lon="5.67942">
        <ele>708</ele>
        <time>2019-11-29T08:42:04.000Z</time>
      </trkpt>
      <trkpt lat="43.31332" lon="5.67943">
        <ele>708</ele>
        <time>2019-11-29T08:42:05.000Z</time>
      </trkpt>
      <trkpt lat="43.31332" lon="5.67943">
        <ele>708</ele>
        <time>2019-11-29T08:42:06.000Z</time>
      </trkpt>
      <trkpt lat="43.31332" lon="5.67944">
        <ele>708</ele>
        <time>2019-11-29T08:42:07.000Z</time>
      </trkpt>
      <trkpt lat="43.31331" lon="5.67944">
        <ele>708</ele>
        <time>2019-11-29T08:42:08.000Z</time>
      </trkpt>
      <trkpt lat="43.31331" lon="5.67944">
        <ele>708</ele>
        <time>2019-11-29T08:42:09.000Z</time>
      </trkpt>
      <trkpt lat="43.31332" lon="5.67945">
        <ele>709</ele>
        <time>2019-11-29T08:42:10.000Z</time>
      </trkpt>
      <trkpt lat="43.31331" lon="5.67946">
        <ele>709</ele>
        <time>2019-11-29T08:42:11.000Z</time>
      </trkpt>
      <trkpt lat="43.31331" lon="5.67946">
        <ele>709</ele>
        <time>2019-11-29T08:42:12.000Z</time>
      </trkpt>
      <trkpt lat="43.31331" lon="5.67946">
        <ele>709</ele>
        <time>2019-11-29T08:42:13.000Z</time>
      </trkpt>
      <trkpt lat="43.31331" lon="5.67947">
        <ele>709</ele>
        <time>2019-11-29T08:42:14.000Z</time>
      </trkpt>
      <trkpt lat="43.31331" lon="5.67947">
        <ele>709</ele>
        <time>2019-11-29T08:42:15.000Z</time>
      </trkpt>
      <trkpt lat="43.31331" lon="5.67947">
        <ele>709</ele>
        <time>2019-11-29T08:42:16.000Z</time>
      </trkpt>
      <trkpt lat="43.3133" lon="5.67948">
        <ele>709</ele>
        <time>2019-11-29T08:42:17.000Z</time>
      </trkpt>
      <trkpt lat="43.3133" lon="5.67948">
        <ele>709</ele>
        <time>2019-11-29T08:42:18.000Z</time>
      </trkpt>
      <trkpt lat="43.3133" lon="5.67949">
        <ele>709</ele>
        <time>2019-11-29T08:42:19.000Z</time>
      </trkpt>
      <trkpt lat="43.3133" lon="5.67949">
        <ele>709</ele>
        <time>2019-11-29T08:42:20.000Z</time>
      </trkpt>
      <trkpt lat="43.3133" lon="5.6795">
        <ele>709</ele>
        <time>2019-11-29T08:42:21.000Z</time>
      </trkpt>
      <trkpt lat="43.31329" lon="5.67951">
        <ele>709</ele>
        <time>2019-11-29T08:42:22.000Z</time>
      </trkpt>
      <trkpt lat="43.31329" lon="5.67952">
        <ele>710</ele>
        <time>2019-11-29T08:42:23.000Z</time>
      </trkpt>
      <trkpt lat="43.31329" lon="5.67953">
        <ele>710</ele>
        <time>2019-11-29T08:42:24.000Z</time>
      </trkpt>
      <trkpt lat="43.31329" lon="5.67953">
        <ele>710</ele>
        <time>2019-11-29T08:42:25.000Z</time>
      </trkpt>
      <trkpt lat="43.31329" lon="5.67954">
        <ele>710</ele>
        <time>2019-11-29T08:42:26.000Z</time>
      </trkpt>
      <trkpt lat="43.31329" lon="5.67954">
        <ele>710</ele>
        <time>2019-11-29T08:42:27.000Z</time>
      </trkpt>
      <trkpt lat="43.31329" lon="5.67955">
        <ele>710</ele>
        <time>2019-11-29T08:42:28.000Z</time>
      </trkpt>
      <trkpt lat="43.31329" lon="5.67955">
        <ele>710</ele>
        <time>2019-11-29T08:42:29.000Z</time>
      </trkpt>
      <trkpt lat="43.31329" lon="5.67956">
        <ele>711</ele>
        <time>2019-11-29T08:42:30.000Z</time>
      </trkpt>
      <trkpt lat="43.31329" lon="5.67956">
        <ele>711</ele>
        <time>2019-11-29T08:42:31.000Z</time>
      </trkpt>
      <trkpt lat="43.31328" lon="5.67957">
        <ele>711</ele>
        <time>2019-11-29T08:42:32.000Z</time>
      </trkpt>
      <trkpt lat="43.31329" lon="5.67957">
        <ele>711</ele>
        <time>2019-11-29T08:42:33.000Z</time>
      </trkpt>
      <trkpt lat="43.31329" lon="5.67958">
        <ele>711</ele>
        <time>2019-11-29T08:42:34.000Z</time>
      </trkpt>
      <trkpt lat="43.31329" lon="5.67958">
        <ele>711</ele>
        <time>2019-11-29T08:42:35.000Z</time>
      </trkpt>
      <trkpt lat="43.31329" lon="5.67959">
        <ele>712</ele>
        <time>2019-11-29T08:42:36.000Z</time>
      </trkpt>
      <trkpt lat="43.31329" lon="5.6796">
        <ele>712</ele>
        <time>2019-11-29T08:42:37.000Z</time>
      </trkpt>
      <trkpt lat="43.31329" lon="5.6796">
        <ele>712</ele>
        <time>2019-11-29T08:42:38.000Z</time>
      </trkpt>
      <trkpt lat="43.31329" lon="5.6796">
        <ele>712</ele>
        <time>2019-11-29T08:42:39.000Z</time>
      </trkpt>
      <trkpt lat="43.31329" lon="5.67961">
        <ele>712</ele>
        <time>2019-11-29T08:42:40.000Z</time>
      </trkpt>
      <trkpt lat="43.31329" lon="5.67961">
        <ele>712</ele>
        <time>2019-11-29T08:42:41.000Z</time>
      </trkpt>
      <trkpt lat="43.31329" lon="5.67961">
        <ele>712</ele>
        <time>2019-11-29T08:42:42.000Z</time>
      </trkpt>
      <trkpt lat="43.31329" lon="5.67961">
        <ele>712</ele>
        <time>2019-11-29T08:42:43.000Z</time>
      </trkpt>
      <trkpt lat="43.31329" lon="5.67962">
        <ele>713</ele>
        <time>2019-11-29T08:42:44.000Z</time>
      </trkpt>
      <trkpt lat="43.31329" lon="5.67962">
        <ele>713</ele>
        <time>2019-11-29T08:42:45.000Z</time>
      </trkpt>
      <trkpt lat="43.3133" lon="5.67962">
        <ele>713</ele>
        <time>2019-11-29T08:42:46.000Z</time>
      </trkpt>
      <trkpt lat="43.3133" lon="5.67962">
        <ele>713</ele>
        <time>2019-11-29T08:42:47.000Z</time>
      </trkpt>
      <trkpt lat="43.31331" lon="5.67962">
        <ele>713</ele>
        <time>2019-11-29T08:42:48.000Z</time>
      </trkpt>
      <trkpt lat="43.31331" lon="5.67962">
        <ele>714</ele>
        <time>2019-11-29T08:42:49.000Z</time>
      </trkpt>
      <trkpt lat="43.31332" lon="5.67962">
        <ele>714</ele>
        <time>2019-11-29T08:42:50.000Z</time>
      </trkpt>
      <trkpt lat="43.31332" lon="5.67963">
        <ele>714</ele>
        <time>2019-11-29T08:42:51.000Z</time>
      </trkpt>
      <trkpt lat="43.31332" lon="5.67963">
        <ele>714</ele>
        <time>2019-11-29T08:42:52.000Z</time>
      </trkpt>
      <trkpt lat="43.31333" lon="5.67964">
        <ele>714</ele>
        <time>2019-11-29T08:42:53.000Z</time>
      </trkpt>
      <trkpt lat="43.31333" lon="5.67964">
        <ele>715</ele>
        <time>2019-11-29T08:42:54.000Z</time>
      </trkpt>
      <trkpt lat="43.31334" lon="5.67964">
        <ele>715</ele>
        <time>2019-11-29T08:42:55.000Z</time>
      </trkpt>
      <trkpt lat="43.31334" lon="5.67965">
        <ele>715</ele>
        <time>2019-11-29T08:42:56.000Z</time>
      </trkpt>
      <trkpt lat="43.31334" lon="5.67965">
        <ele>715</ele>
        <time>2019-11-29T08:42:57.000Z</time>
      </trkpt>
      <trkpt lat="43.31335" lon="5.67966">
        <ele>715</ele>
        <time>2019-11-29T08:42:58.000Z</time>
      </trkpt>
      <trkpt lat="43.31335" lon="5.67966">
        <ele>716</ele>
        <time>2019-11-29T08:42:59.000Z</time>
      </trkpt>
      <trkpt lat="43.31336" lon="5.67967">
        <ele>716</ele>
        <time>2019-11-29T08:43:00.000Z</time>
      </trkpt>
      <trkpt lat="43.31336" lon="5.67967">
        <ele>716</ele>
        <time>2019-11-29T08:43:01.000Z</time>
      </trkpt>
      <trkpt lat="43.31337" lon="5.67968">
        <ele>716</ele>
        <time>2019-11-29T08:43:02.000Z</time>
      </trkpt>
      <trkpt lat="43.31337" lon="5.67968">
        <ele>716</ele>
        <time>2019-11-29T08:43:03.000Z</time>
      </trkpt>
      <trkpt lat="43.31338" lon="5.67969">
        <ele>717</ele>
        <time>2019-11-29T08:43:04.000Z</time>
      </trkpt>
      <trkpt lat="43.31338" lon="5.67969">
        <ele>717</ele>
        <time>2019-11-29T08:43:05.000Z</time>
      </trkpt>
      <trkpt lat="43.31338" lon="5.6797">
        <ele>717</ele>
        <time>2019-11-29T08:43:06.000Z</time>
      </trkpt>
      <trkpt lat="43.31339" lon="5.6797">
        <ele>717</ele>
        <time>2019-11-29T08:43:07.000Z</time>
      </trkpt>
      <trkpt lat="43.31339" lon="5.67971">
        <ele>717</ele>
        <time>2019-11-29T08:43:08.000Z</time>
      </trkpt>
      <trkpt lat="43.31339" lon="5.67971">
        <ele>718</ele>
        <time>2019-11-29T08:43:09.000Z</time>
      </trkpt>
      <trkpt lat="43.3134" lon="5.67972">
        <ele>718</ele>
        <time>2019-11-29T08:43:10.000Z</time>
      </trkpt>
      <trkpt lat="43.3134" lon="5.67973">
        <ele>718</ele>
        <time>2019-11-29T08:43:11.000Z</time>
      </trkpt>
      <trkpt lat="43.3134" lon="5.67974">
        <ele>718</ele>
        <time>2019-11-29T08:43:12.000Z</time>
      </trkpt>
      <trkpt lat="43.3134" lon="5.67975">
        <ele>718</ele>
        <time>2019-11-29T08:43:13.000Z</time>
      </trkpt>
      <trkpt lat="43.3134" lon="5.67976">
        <ele>719</ele>
        <time>2019-11-29T08:43:14.000Z</time>
      </trkpt>
      <trkpt lat="43.3134" lon="5.67976">
        <ele>719</ele>
        <time>2019-11-29T08:43:15.000Z</time>
      </trkpt>
      <trkpt lat="43.3134" lon="5.67977">
        <ele>719</ele>
        <time>2019-11-29T08:43:16.000Z</time>
      </trkpt>
      <trkpt lat="43.3134" lon="5.67977">
        <ele>719</ele>
        <time>2019-11-29T08:43:17.000Z</time>
      </trkpt>
      <trkpt lat="43.3134" lon="5.67978">
        <ele>719</ele>
        <time>2019-11-29T08:43:18.000Z</time>
      </trkpt>
      <trkpt lat="43.3134" lon="5.67978">
        <ele>720</ele>
        <time>2019-11-29T08:43:19.000Z</time>
      </trkpt>
      <trkpt lat="43.31341" lon="5.67978">
        <ele>720</ele>
        <time>2019-11-29T08:43:20.000Z</time>
      </trkpt>
      <trkpt lat="43.31341" lon="5.67979">
        <ele>720</ele>
        <time>2019-11-29T08:43:21.000Z</time>
      </trkpt>
      <trkpt lat="43.31341" lon="5.67979">
        <ele>720</ele>
        <time>2019-11-29T08:43:22.000Z</time>
      </trkpt>
      <trkpt lat="43.31341" lon="5.6798">
        <ele>721</ele>
        <time>2019-11-29T08:43:23.000Z</time>
      </trkpt>
      <trkpt lat="43.31341" lon="5.67981">
        <ele>721</ele>
        <time>2019-11-29T08:43:24.000Z</time>
      </trkpt>
      <trkpt lat="43.31341" lon="5.67982">
        <ele>721</ele>
        <time>2019-11-29T08:43:25.000Z</time>
      </trkpt>
      <trkpt lat="43.3134" lon="5.67982">
        <ele>722</ele>
        <time>2019-11-29T08:43:26.000Z</time>
      </trkpt>
      <trkpt lat="43.3134" lon="5.67983">
        <ele>722</ele>
        <time>2019-11-29T08:43:27.000Z</time>
      </trkpt>
      <trkpt lat="43.3134" lon="5.67984">
        <ele>722</ele>
        <time>2019-11-29T08:43:28.000Z</time>
      </trkpt>
      <trkpt lat="43.3134" lon="5.67984">
        <ele>722</ele>
        <time>2019-11-29T08:43:29.000Z</time>
      </trkpt>
      <trkpt lat="43.3134" lon="5.67985">
        <ele>722</ele>
        <time>2019-11-29T08:43:30.000Z</time>
      </trkpt>
      <trkpt lat="43.3134" lon="5.67985">
        <ele>723</ele>
        <time>2019-11-29T08:43:31.000Z</time>
      </trkpt>
      <trkpt lat="43.3134" lon="5.67986">
        <ele>723</ele>
        <time>2019-11-29T08:43:32.000Z</time>
      </trkpt>
      <trkpt lat="43.31339" lon="5.67986">
        <ele>723</ele>
        <time>2019-11-29T08:43:33.000Z</time>
      </trkpt>
      <trkpt lat="43.31339" lon="5.67987">
        <ele>723</ele>
        <time>2019-11-29T08:43:34.000Z</time>
      </trkpt>
      <trkpt lat="43.31339" lon="5.67987">
        <ele>723</ele>
        <time>2019-11-29T08:43:35.000Z</time>
      </trkpt>
      <trkpt lat="43.31339" lon="5.67988">
        <ele>723</ele>
        <time>2019-11-29T08:43:36.000Z</time>
      </trkpt>
      <trkpt lat="43.31339" lon="5.67988">
        <ele>723</ele>
        <time>2019-11-29T08:43:37.000Z</time>
      </trkpt>
      <trkpt lat="43.31339" lon="5.67988">
        <ele>723</ele>
        <time>2019-11-29T08:43:38.000Z</time>
      </trkpt>
      <trkpt lat="43.31339" lon="5.67988">
        <ele>723</ele>
        <time>2019-11-29T08:43:39.000Z</time>
      </trkpt>
      <trkpt lat="43.31339" lon="5.67988">
        <ele>723</ele>
        <time>2019-11-29T08:43:40.000Z</time>
      </trkpt>
      <trkpt lat="43.31338" lon="5.67988">
        <ele>723</ele>
        <time>2019-11-29T08:43:41.000Z</time>
      </trkpt>
      <trkpt lat="43.31338" lon="5.67989">
        <ele>723</ele>
        <time>2019-11-29T08:43:42.000Z</time>
      </trkpt>
      <trkpt lat="43.31338" lon="5.67989">
        <ele>723</ele>
        <time>2019-11-29T08:43:43.000Z</time>
      </trkpt>
      <trkpt lat="43.31338" lon="5.67989">
        <ele>723</ele>
        <time>2019-11-29T08:43:44.000Z</time>
      </trkpt>
      <trkpt lat="43.31338" lon="5.67989">
        <ele>723</ele>
        <time>2019-11-29T08:43:45.000Z</time>
      </trkpt>
      <trkpt lat="43.31338" lon="5.67989">
        <ele>724</ele>
        <time>2019-11-29T08:43:46.000Z</time>
      </trkpt>
      <trkpt lat="43.31338" lon="5.67989">
        <ele>724</ele>
        <time>2019-11-29T08:43:47.000Z</time>
      </trkpt>
      <trkpt lat="43.31338" lon="5.67989">
        <ele>724</ele>
        <time>2019-11-29T08:43:48.000Z</time>
      </trkpt>
      <trkpt lat="43.31338" lon="5.67989">
        <ele>724</ele>
        <time>2019-11-29T08:43:49.000Z</time>
      </trkpt>
      <trkpt lat="43.31338" lon="5.67989">
        <ele>724</ele>
        <time>2019-11-29T08:43:50.000Z</time>
      </trkpt>
      <trkpt lat="43.31338" lon="5.67989">
        <ele>724</ele>
        <time>2019-11-29T08:43:51.000Z</time>
      </trkpt>
      <trkpt lat="43.31338" lon="5.6799">
        <ele>724</ele>
        <time>2019-11-29T08:43:52.000Z</time>
      </trkpt>
      <trkpt lat="43.31337" lon="5.6799">
        <ele>724</ele>
        <time>2019-11-29T08:43:53.000Z</time>
      </trkpt>
      <trkpt lat="43.31337" lon="5.6799">
        <ele>724</ele>
        <time>2019-11-29T08:43:54.000Z</time>
      </trkpt>
      <trkpt lat="43.31337" lon="5.6799">
        <ele>724</ele>
        <time>2019-11-29T08:43:55.000Z</time>
      </trkpt>
      <trkpt lat="43.31337" lon="5.6799">
        <ele>724</ele>
        <time>2019-11-29T08:43:56.000Z</time>
      </trkpt>
      <trkpt lat="43.31337" lon="5.67991">
        <ele>724</ele>
        <time>2019-11-29T08:43:57.000Z</time>
      </trkpt>
      <trkpt lat="43.31337" lon="5.67991">
        <ele>724</ele>
        <time>2019-11-29T08:43:58.000Z</time>
      </trkpt>
      <trkpt lat="43.31337" lon="5.67991">
        <ele>724</ele>
        <time>2019-11-29T08:43:59.000Z</time>
      </trkpt>
      <trkpt lat="43.31337" lon="5.67991">
        <ele>724</ele>
        <time>2019-11-29T08:44:00.000Z</time>
      </trkpt>
      <trkpt lat="43.31337" lon="5.67991">
        <ele>724</ele>
        <time>2019-11-29T08:44:01.000Z</time>
      </trkpt>
      <trkpt lat="43.31337" lon="5.67991">
        <ele>724</ele>
        <time>2019-11-29T08:44:02.000Z</time>
      </trkpt>
      <trkpt lat="43.31337" lon="5.67991">
        <ele>724</ele>
        <time>2019-11-29T08:44:03.000Z</time>
      </trkpt>
      <trkpt lat="43.31337" lon="5.67991">
        <ele>724</ele>
        <time>2019-11-29T08:44:04.000Z</time>
      </trkpt>
      <trkpt lat="43.31336" lon="5.67991">
        <ele>724</ele>
        <time>2019-11-29T08:44:05.000Z</time>
      </trkpt>
      <trkpt lat="43.31336" lon="5.67991">
        <ele>724</ele>
        <time>2019-11-29T08:44:06.000Z</time>
      </trkpt>
      <trkpt lat="43.31336" lon="5.67991">
        <ele>725</ele>
        <time>2019-11-29T08:44:07.000Z</time>
      </trkpt>
      <trkpt lat="43.31336" lon="5.67991">
        <ele>725</ele>
        <time>2019-11-29T08:44:08.000Z</time>
      </trkpt>
      <trkpt lat="43.31336" lon="5.67992">
        <ele>725</ele>
        <time>2019-11-29T08:44:09.000Z</time>
      </trkpt>
      <trkpt lat="43.31336" lon="5.67992">
        <ele>725</ele>
        <time>2019-11-29T08:44:10.000Z</time>
      </trkpt>
      <trkpt lat="43.31336" lon="5.67992">
        <ele>725</ele>
        <time>2019-11-29T08:44:11.000Z</time>
      </trkpt>
      <trkpt lat="43.31336" lon="5.67992">
        <ele>725</ele>
        <time>2019-11-29T08:44:12.000Z</time>
      </trkpt>
      <trkpt lat="43.31336" lon="5.67992">
        <ele>725</ele>
        <time>2019-11-29T08:44:13.000Z</time>
      </trkpt>
      <trkpt lat="43.31336" lon="5.67992">
        <ele>725</ele>
        <time>2019-11-29T08:44:14.000Z</time>
      </trkpt>
      <trkpt lat="43.31336" lon="5.67992">
        <ele>725</ele>
        <time>2019-11-29T08:44:15.000Z</time>
      </trkpt>
      <trkpt lat="43.31336" lon="5.67992">
        <ele>725</ele>
        <time>2019-11-29T08:44:16.000Z</time>
      </trkpt>
      <trkpt lat="43.31336" lon="5.67992">
        <ele>725</ele>
        <time>2019-11-29T08:44:17.000Z</time>
      </trkpt>
      <trkpt lat="43.31336" lon="5.67992">
        <ele>725</ele>
        <time>2019-11-29T08:44:18.000Z</time>
      </trkpt>
      <trkpt lat="43.31336" lon="5.67992">
        <ele>726</ele>
        <time>2019-11-29T08:44:19.000Z</time>
      </trkpt>
      <trkpt lat="43.31336" lon="5.67992">
        <ele>726</ele>
        <time>2019-11-29T08:44:20.000Z</time>
      </trkpt>
      <trkpt lat="43.31336" lon="5.67992">
        <ele>726</ele>
        <time>2019-11-29T08:44:21.000Z</time>
      </trkpt>
      <trkpt lat="43.31336" lon="5.67992">
        <ele>726</ele>
        <time>2019-11-29T08:44:22.000Z</time>
      </trkpt>
      <trkpt lat="43.31336" lon="5.67992">
        <ele>726</ele>
        <time>2019-11-29T08:44:23.000Z</time>
      </trkpt>
      <trkpt lat="43.31336" lon="5.67992">
        <ele>726</ele>
        <time>2019-11-29T08:44:24.000Z</time>
      </trkpt>
      <trkpt lat="43.31336" lon="5.67992">
        <ele>726</ele>
        <time>2019-11-29T08:44:25.000Z</time>
      </trkpt>
      <trkpt lat="43.31335" lon="5.67992">
        <ele>726</ele>
        <time>2019-11-29T08:44:26.000Z</time>
      </trkpt>
      <trkpt lat="43.31335" lon="5.67992">
        <ele>726</ele>
        <time>2019-11-29T08:44:27.000Z</time>
      </trkpt>
      <trkpt lat="43.31335" lon="5.67992">
        <ele>726</ele>
        <time>2019-11-29T08:44:28.000Z</time>
      </trkpt>
      <trkpt lat="43.31335" lon="5.67993">
        <ele>726</ele>
        <time>2019-11-29T08:44:29.000Z</time>
      </trkpt>
      <trkpt lat="43.31334" lon="5.67993">
        <ele>727</ele>
        <time>2019-11-29T08:44:30.000Z</time>
      </trkpt>
      <trkpt lat="43.31334" lon="5.67993">
        <ele>727</ele>
        <time>2019-11-29T08:44:31.000Z</time>
      </trkpt>
      <trkpt lat="43.31333" lon="5.67993">
        <ele>727</ele>
        <time>2019-11-29T08:44:32.000Z</time>
      </trkpt>
      <trkpt lat="43.31333" lon="5.67993">
        <ele>727</ele>
        <time>2019-11-29T08:44:33.000Z</time>
      </trkpt>
      <trkpt lat="43.31332" lon="5.67993">
        <ele>727</ele>
        <time>2019-11-29T08:44:34.000Z</time>
      </trkpt>
      <trkpt lat="43.31332" lon="5.67994">
        <ele>727</ele>
        <time>2019-11-29T08:44:35.000Z</time>
      </trkpt>
      <trkpt lat="43.31332" lon="5.67994">
        <ele>727</ele>
        <time>2019-11-29T08:44:36.000Z</time>
      </trkpt>
      <trkpt lat="43.31331" lon="5.67994">
        <ele>727</ele>
        <time>2019-11-29T08:44:37.000Z</time>
      </trkpt>
      <trkpt lat="43.31331" lon="5.67995">
        <ele>727</ele>
        <time>2019-11-29T08:44:38.000Z</time>
      </trkpt>
      <trkpt lat="43.3133" lon="5.67995">
        <ele>727</ele>
        <time>2019-11-29T08:44:39.000Z</time>
      </trkpt>
      <trkpt lat="43.3133" lon="5.67995">
        <ele>727</ele>
        <time>2019-11-29T08:44:40.000Z</time>
      </trkpt>
      <trkpt lat="43.31329" lon="5.67996">
        <ele>727</ele>
        <time>2019-11-29T08:44:41.000Z</time>
      </trkpt>
      <trkpt lat="43.31329" lon="5.67996">
        <ele>727</ele>
        <time>2019-11-29T08:44:42.000Z</time>
      </trkpt>
      <trkpt lat="43.31329" lon="5.67996">
        <ele>727</ele>
        <time>2019-11-29T08:44:43.000Z</time>
      </trkpt>
      <trkpt lat="43.31328" lon="5.67996">
        <ele>727</ele>
        <time>2019-11-29T08:44:44.000Z</time>
      </trkpt>
      <trkpt lat="43.31328" lon="5.67996">
        <ele>727</ele>
        <time>2019-11-29T08:44:45.000Z</time>
      </trkpt>
      <trkpt lat="43.31327" lon="5.67997">
        <ele>727</ele>
        <time>2019-11-29T08:44:46.000Z</time>
      </trkpt>
      <trkpt lat="43.31327" lon="5.67997">
        <ele>727</ele>
        <time>2019-11-29T08:44:47.000Z</time>
      </trkpt>
      <trkpt lat="43.31326" lon="5.67996">
        <ele>727</ele>
        <time>2019-11-29T08:44:48.000Z</time>
      </trkpt>
      <trkpt lat="43.31326" lon="5.67996">
        <ele>727</ele>
        <time>2019-11-29T08:44:49.000Z</time>
      </trkpt>
      <trkpt lat="43.31326" lon="5.67996">
        <ele>727</ele>
        <time>2019-11-29T08:44:50.000Z</time>
      </trkpt>
      <trkpt lat="43.31325" lon="5.67997">
        <ele>728</ele>
        <time>2019-11-29T08:44:51.000Z</time>
      </trkpt>
      <trkpt lat="43.31325" lon="5.67997">
        <ele>728</ele>
        <time>2019-11-29T08:44:52.000Z</time>
      </trkpt>
      <trkpt lat="43.31324" lon="5.67997">
        <ele>728</ele>
        <time>2019-11-29T08:44:53.000Z</time>
      </trkpt>
      <trkpt lat="43.31324" lon="5.67997">
        <ele>728</ele>
        <time>2019-11-29T08:44:54.000Z</time>
      </trkpt>
      <trkpt lat="43.31323" lon="5.67997">
        <ele>728</ele>
        <time>2019-11-29T08:44:55.000Z</time>
      </trkpt>
      <trkpt lat="43.31323" lon="5.67997">
        <ele>728</ele>
        <time>2019-11-29T08:44:56.000Z</time>
      </trkpt>
      <trkpt lat="43.31323" lon="5.67997">
        <ele>728</ele>
        <time>2019-11-29T08:44:57.000Z</time>
      </trkpt>
      <trkpt lat="43.31323" lon="5.67998">
        <ele>728</ele>
        <time>2019-11-29T08:44:58.000Z</time>
      </trkpt>
      <trkpt lat="43.31323" lon="5.67998">
        <ele>728</ele>
        <time>2019-11-29T08:44:59.000Z</time>
      </trkpt>
      <trkpt lat="43.31323" lon="5.67999">
        <ele>728</ele>
        <time>2019-11-29T08:45:00.000Z</time>
      </trkpt>
      <trkpt lat="43.31323" lon="5.67999">
        <ele>728</ele>
        <time>2019-11-29T08:45:01.000Z</time>
      </trkpt>
      <trkpt lat="43.31322" lon="5.67999">
        <ele>728</ele>
        <time>2019-11-29T08:45:02.000Z</time>
      </trkpt>
      <trkpt lat="43.31322" lon="5.67999">
        <ele>728</ele>
        <time>2019-11-29T08:45:03.000Z</time>
      </trkpt>
      <trkpt lat="43.31322" lon="5.68">
        <ele>728</ele>
        <time>2019-11-29T08:45:04.000Z</time>
      </trkpt>
      <trkpt lat="43.31321" lon="5.68">
        <ele>728</ele>
        <time>2019-11-29T08:45:05.000Z</time>
      </trkpt>
      <trkpt lat="43.31321" lon="5.68">
        <ele>728</ele>
        <time>2019-11-29T08:45:06.000Z</time>
      </trkpt>
      <trkpt lat="43.31321" lon="5.68">
        <ele>728</ele>
        <time>2019-11-29T08:45:07.000Z</time>
      </trkpt>
      <trkpt lat="43.3132" lon="5.68001">
        <ele>729</ele>
        <time>2019-11-29T08:45:08.000Z</time>
      </trkpt>
      <trkpt lat="43.3132" lon="5.68002">
        <ele>729</ele>
        <time>2019-11-29T08:45:09.000Z</time>
      </trkpt>
      <trkpt lat="43.31319" lon="5.68002">
        <ele>729</ele>
        <time>2019-11-29T08:45:10.000Z</time>
      </trkpt>
      <trkpt lat="43.31319" lon="5.68002">
        <ele>729</ele>
        <time>2019-11-29T08:45:11.000Z</time>
      </trkpt>
      <trkpt lat="43.31319" lon="5.68003">
        <ele>729</ele>
        <time>2019-11-29T08:45:12.000Z</time>
      </trkpt>
      <trkpt lat="43.31319" lon="5.68003">
        <ele>729</ele>
        <time>2019-11-29T08:45:13.000Z</time>
      </trkpt>
      <trkpt lat="43.31319" lon="5.68003">
        <ele>729</ele>
        <time>2019-11-29T08:45:14.000Z</time>
      </trkpt>
      <trkpt lat="43.31318" lon="5.68004">
        <ele>729</ele>
        <time>2019-11-29T08:45:15.000Z</time>
      </trkpt>
      <trkpt lat="43.31318" lon="5.68005">
        <ele>729</ele>
        <time>2019-11-29T08:45:16.000Z</time>
      </trkpt>
      <trkpt lat="43.31318" lon="5.68005">
        <ele>729</ele>
        <time>2019-11-29T08:45:17.000Z</time>
      </trkpt>
      <trkpt lat="43.31318" lon="5.68006">
        <ele>729</ele>
        <time>2019-11-29T08:45:18.000Z</time>
      </trkpt>
      <trkpt lat="43.31317" lon="5.68006">
        <ele>729</ele>
        <time>2019-11-29T08:45:19.000Z</time>
      </trkpt>
      <trkpt lat="43.31317" lon="5.68006">
        <ele>729</ele>
        <time>2019-11-29T08:45:20.000Z</time>
      </trkpt>
      <trkpt lat="43.31317" lon="5.68006">
        <ele>729</ele>
        <time>2019-11-29T08:45:21.000Z</time>
      </trkpt>
      <trkpt lat="43.31317" lon="5.68006">
        <ele>729</ele>
        <time>2019-11-29T08:45:22.000Z</time>
      </trkpt>
      <trkpt lat="43.31317" lon="5.68007">
        <ele>729</ele>
        <time>2019-11-29T08:45:23.000Z</time>
      </trkpt>
      <trkpt lat="43.31317" lon="5.68007">
        <ele>729</ele>
        <time>2019-11-29T08:45:24.000Z</time>
      </trkpt>
      <trkpt lat="43.31317" lon="5.68007">
        <ele>730</ele>
        <time>2019-11-29T08:45:25.000Z</time>
      </trkpt>
      <trkpt lat="43.31316" lon="5.68008">
        <ele>730</ele>
        <time>2019-11-29T08:45:26.000Z</time>
      </trkpt>
      <trkpt lat="43.31316" lon="5.68008">
        <ele>730</ele>
        <time>2019-11-29T08:45:27.000Z</time>
      </trkpt>
      <trkpt lat="43.31316" lon="5.68009">
        <ele>730</ele>
        <time>2019-11-29T08:45:28.000Z</time>
      </trkpt>
      <trkpt lat="43.31316" lon="5.68009">
        <ele>730</ele>
        <time>2019-11-29T08:45:29.000Z</time>
      </trkpt>
      <trkpt lat="43.31316" lon="5.68009">
        <ele>730</ele>
        <time>2019-11-29T08:45:30.000Z</time>
      </trkpt>
      <trkpt lat="43.31316" lon="5.68009">
        <ele>730</ele>
        <time>2019-11-29T08:45:31.000Z</time>
      </trkpt>
      <trkpt lat="43.31316" lon="5.68009">
        <ele>731</ele>
        <time>2019-11-29T08:45:32.000Z</time>
      </trkpt>
      <trkpt lat="43.31316" lon="5.68009">
        <ele>731</ele>
        <time>2019-11-29T08:45:33.000Z</time>
      </trkpt>
      <trkpt lat="43.31316" lon="5.68009">
        <ele>731</ele>
        <time>2019-11-29T08:45:34.000Z</time>
      </trkpt>
      <trkpt lat="43.31316" lon="5.68009">
        <ele>731</ele>
        <time>2019-11-29T08:45:35.000Z</time>
      </trkpt>
      <trkpt lat="43.31316" lon="5.68009">
        <ele>731</ele>
        <time>2019-11-29T08:45:36.000Z</time>
      </trkpt>
      <trkpt lat="43.31315" lon="5.68009">
        <ele>732</ele>
        <time>2019-11-29T08:45:37.000Z</time>
      </trkpt>
      <trkpt lat="43.31315" lon="5.68009">
        <ele>732</ele>
        <time>2019-11-29T08:45:38.000Z</time>
      </trkpt>
      <trkpt lat="43.31315" lon="5.68009">
        <ele>732</ele>
        <time>2019-11-29T08:45:39.000Z</time>
      </trkpt>
      <trkpt lat="43.31315" lon="5.68009">
        <ele>732</ele>
        <time>2019-11-29T08:45:40.000Z</time>
      </trkpt>
      <trkpt lat="43.31315" lon="5.68008">
        <ele>732</ele>
        <time>2019-11-29T08:45:41.000Z</time>
      </trkpt>
      <trkpt lat="43.31315" lon="5.68008">
        <ele>732</ele>
        <time>2019-11-29T08:45:42.000Z</time>
      </trkpt>
      <trkpt lat="43.31315" lon="5.68008">
        <ele>732</ele>
        <time>2019-11-29T08:45:43.000Z</time>
      </trkpt>
      <trkpt lat="43.31315" lon="5.68008">
        <ele>733</ele>
        <time>2019-11-29T08:45:44.000Z</time>
      </trkpt>
      <trkpt lat="43.31314" lon="5.68008">
        <ele>733</ele>
        <time>2019-11-29T08:45:45.000Z</time>
      </trkpt>
      <trkpt lat="43.31314" lon="5.68008">
        <ele>733</ele>
        <time>2019-11-29T08:45:46.000Z</time>
      </trkpt>
      <trkpt lat="43.31314" lon="5.68008">
        <ele>733</ele>
        <time>2019-11-29T08:45:47.000Z</time>
      </trkpt>
      <trkpt lat="43.31314" lon="5.68008">
        <ele>733</ele>
        <time>2019-11-29T08:45:48.000Z</time>
      </trkpt>
      <trkpt lat="43.31314" lon="5.68008">
        <ele>733</ele>
        <time>2019-11-29T08:45:49.000Z</time>
      </trkpt>
      <trkpt lat="43.31314" lon="5.68008">
        <ele>734</ele>
        <time>2019-11-29T08:45:50.000Z</time>
      </trkpt>
      <trkpt lat="43.31314" lon="5.68008">
        <ele>734</ele>
        <time>2019-11-29T08:45:51.000Z</time>
      </trkpt>
      <trkpt lat="43.31314" lon="5.68008">
        <ele>734</ele>
        <time>2019-11-29T08:45:52.000Z</time>
      </trkpt>
      <trkpt lat="43.31314" lon="5.68008">
        <ele>734</ele>
        <time>2019-11-29T08:45:53.000Z</time>
      </trkpt>
      <trkpt lat="43.31314" lon="5.68008">
        <ele>734</ele>
        <time>2019-11-29T08:45:54.000Z</time>
      </trkpt>
      <trkpt lat="43.31313" lon="5.68008">
        <ele>734</ele>
        <time>2019-11-29T08:45:55.000Z</time>
      </trkpt>
      <trkpt lat="43.31313" lon="5.68008">
        <ele>735</ele>
        <time>2019-11-29T08:45:56.000Z</time>
      </trkpt>
      <trkpt lat="43.31313" lon="5.68008">
        <ele>735</ele>
        <time>2019-11-29T08:45:57.000Z</time>
      </trkpt>
      <trkpt lat="43.31313" lon="5.68008">
        <ele>735</ele>
        <time>2019-11-29T08:45:58.000Z</time>
      </trkpt>
      <trkpt lat="43.31313" lon="5.68008">
        <ele>735</ele>
        <time>2019-11-29T08:45:59.000Z</time>
      </trkpt>
      <trkpt lat="43.31313" lon="5.68008">
        <ele>735</ele>
        <time>2019-11-29T08:46:00.000Z</time>
      </trkpt>
      <trkpt lat="43.31313" lon="5.68008">
        <ele>735</ele>
        <time>2019-11-29T08:46:01.000Z</time>
      </trkpt>
      <trkpt lat="43.31313" lon="5.68008">
        <ele>735</ele>
        <time>2019-11-29T08:46:02.000Z</time>
      </trkpt>
      <trkpt lat="43.31313" lon="5.68008">
        <ele>735</ele>
        <time>2019-11-29T08:46:03.000Z</time>
      </trkpt>
      <trkpt lat="43.31313" lon="5.68008">
        <ele>735</ele>
        <time>2019-11-29T08:46:04.000Z</time>
      </trkpt>
      <trkpt lat="43.31313" lon="5.68008">
        <ele>735</ele>
        <time>2019-11-29T08:46:05.000Z</time>
      </trkpt>
      <trkpt lat="43.31313" lon="5.68008">
        <ele>735</ele>
        <time>2019-11-29T08:46:06.000Z</time>
      </trkpt>
      <trkpt lat="43.31313" lon="5.68008">
        <ele>735</ele>
        <time>2019-11-29T08:46:07.000Z</time>
      </trkpt>
      <trkpt lat="43.31313" lon="5.68008">
        <ele>735</ele>
        <time>2019-11-29T08:46:08.000Z</time>
      </trkpt>
      <trkpt lat="43.31313" lon="5.68008">
        <ele>735</ele>
        <time>2019-11-29T08:46:09.000Z</time>
      </trkpt>
      <trkpt lat="43.31313" lon="5.68008">
        <ele>735</ele>
        <time>2019-11-29T08:46:10.000Z</time>
      </trkpt>
      <trkpt lat="43.31313" lon="5.68008">
        <ele>735</ele>
        <time>2019-11-29T08:46:11.000Z</time>
      </trkpt>
      <trkpt lat="43.31313" lon="5.68008">
        <ele>735</ele>
        <time>2019-11-29T08:46:12.000Z</time>
      </trkpt>
      <trkpt lat="43.31313" lon="5.68008">
        <ele>735</ele>
        <time>2019-11-29T08:46:13.000Z</time>
      </trkpt>
      <trkpt lat="43.31313" lon="5.68008">
        <ele>735</ele>
        <time>2019-11-29T08:46:14.000Z</time>
      </trkpt>
      <trkpt lat="43.31313" lon="5.68008">
        <ele>735</ele>
        <time>2019-11-29T08:46:15.000Z</time>
      </trkpt>
      <trkpt lat="43.31313" lon="5.68008">
        <ele>736</ele>
        <time>2019-11-29T08:46:16.000Z</time>
      </trkpt>
      <trkpt lat="43.31313" lon="5.68008">
        <ele>736</ele>
        <time>2019-11-29T08:46:17.000Z</time>
      </trkpt>
      <trkpt lat="43.31313" lon="5.68008">
        <ele>736</ele>
        <time>2019-11-29T08:46:18.000Z</time>
      </trkpt>
      <trkpt lat="43.31313" lon="5.68008">
        <ele>736</ele>
        <time>2019-11-29T08:46:19.000Z</time>
      </trkpt>
      <trkpt lat="43.31313" lon="5.68008">
        <ele>736</ele>
        <time>2019-11-29T08:46:20.000Z</time>
      </trkpt>
      <trkpt lat="43.31313" lon="5.68008">
        <ele>736</ele>
        <time>2019-11-29T08:46:21.000Z</time>
      </trkpt>
      <trkpt lat="43.31312" lon="5.68008">
        <ele>736</ele>
        <time>2019-11-29T08:46:22.000Z</time>
      </trkpt>
      <trkpt lat="43.31312" lon="5.68008">
        <ele>736</ele>
        <time>2019-11-29T08:46:23.000Z</time>
      </trkpt>
      <trkpt lat="43.31312" lon="5.68008">
        <ele>736</ele>
        <time>2019-11-29T08:46:24.000Z</time>
      </trkpt>
      <trkpt lat="43.31312" lon="5.68008">
        <ele>736</ele>
        <time>2019-11-29T08:46:25.000Z</time>
      </trkpt>
      <trkpt lat="43.31313" lon="5.68008">
        <ele>736</ele>
        <time>2019-11-29T08:46:26.000Z</time>
      </trkpt>
      <trkpt lat="43.31313" lon="5.68008">
        <ele>736</ele>
        <time>2019-11-29T08:46:27.000Z</time>
      </trkpt>
      <trkpt lat="43.31313" lon="5.68008">
        <ele>736</ele>
        <time>2019-11-29T08:46:28.000Z</time>
      </trkpt>
      <trkpt lat="43.31313" lon="5.68008">
        <ele>736</ele>
        <time>2019-11-29T08:46:29.000Z</time>
      </trkpt>
      <trkpt lat="43.31313" lon="5.68008">
        <ele>736</ele>
        <time>2019-11-29T08:46:30.000Z</time>
      </trkpt>
      <trkpt lat="43.31313" lon="5.68008">
        <ele>736</ele>
        <time>2019-11-29T08:46:31.000Z</time>
      </trkpt>
      <trkpt lat="43.31313" lon="5.68008">
        <ele>736</ele>
        <time>2019-11-29T08:46:32.000Z</time>
      </trkpt>
      <trkpt lat="43.31313" lon="5.68008">
        <ele>737</ele>
        <time>2019-11-29T08:46:33.000Z</time>
      </trkpt>
      <trkpt lat="43.31313" lon="5.68008">
        <ele>737</ele>
        <time>2019-11-29T08:46:34.000Z</time>
      </trkpt>
      <trkpt lat="43.31313" lon="5.68008">
        <ele>737</ele>
        <time>2019-11-29T08:46:35.000Z</time>
      </trkpt>
      <trkpt lat="43.31313" lon="5.68008">
        <ele>737</ele>
        <time>2019-11-29T08:46:36.000Z</time>
      </trkpt>
      <trkpt lat="43.31313" lon="5.68008">
        <ele>737</ele>
        <time>2019-11-29T08:46:37.000Z</time>
      </trkpt>
      <trkpt lat="43.31313" lon="5.68008">
        <ele>737</ele>
        <time>2019-11-29T08:46:38.000Z</time>
      </trkpt>
      <trkpt lat="43.31313" lon="5.68008">
        <ele>737</ele>
        <time>2019-11-29T08:46:39.000Z</time>
      </trkpt>
      <trkpt lat="43.31313" lon="5.68008">
        <ele>737</ele>
        <time>2019-11-29T08:46:40.000Z</time>
      </trkpt>
      <trkpt lat="43.31313" lon="5.68008">
        <ele>737</ele>
        <time>2019-11-29T08:46:41.000Z</time>
      </trkpt>
      <trkpt lat="43.31313" lon="5.68008">
        <ele>737</ele>
        <time>2019-11-29T08:46:42.000Z</time>
      </trkpt>
      <trkpt lat="43.31313" lon="5.68008">
        <ele>737</ele>
        <time>2019-11-29T08:46:43.000Z</time>
      </trkpt>
      <trkpt lat="43.31313" lon="5.68008">
        <ele>737</ele>
        <time>2019-11-29T08:46:44.000Z</time>
      </trkpt>
      <trkpt lat="43.31313" lon="5.68008">
        <ele>737</ele>
        <time>2019-11-29T08:46:45.000Z</time>
      </trkpt>
      <trkpt lat="43.31313" lon="5.68008">
        <ele>737</ele>
        <time>2019-11-29T08:46:46.000Z</time>
      </trkpt>
      <trkpt lat="43.31313" lon="5.68008">
        <ele>737</ele>
        <time>2019-11-29T08:46:47.000Z</time>
      </trkpt>
      <trkpt lat="43.31313" lon="5.68008">
        <ele>737</ele>
        <time>2019-11-29T08:46:48.000Z</time>
      </trkpt>
      <trkpt lat="43.31313" lon="5.68008">
        <ele>738</ele>
        <time>2019-11-29T08:46:49.000Z</time>
      </trkpt>
      <trkpt lat="43.31313" lon="5.68008">
        <ele>738</ele>
        <time>2019-11-29T08:46:50.000Z</time>
      </trkpt>
      <trkpt lat="43.31313" lon="5.68008">
        <ele>738</ele>
        <time>2019-11-29T08:46:51.000Z</time>
      </trkpt>
      <trkpt lat="43.31313" lon="5.68008">
        <ele>738</ele>
        <time>2019-11-29T08:46:52.000Z</time>
      </trkpt>
      <trkpt lat="43.31313" lon="5.68008">
        <ele>738</ele>
        <time>2019-11-29T08:46:53.000Z</time>
      </trkpt>
      <trkpt lat="43.31313" lon="5.68007">
        <ele>738</ele>
        <time>2019-11-29T08:46:54.000Z</time>
      </trkpt>
      <trkpt lat="43.31312" lon="5.68007">
        <ele>738</ele>
        <time>2019-11-29T08:46:55.000Z</time>
      </trkpt>
      <trkpt lat="43.31312" lon="5.68007">
        <ele>738</ele>
        <time>2019-11-29T08:46:56.000Z</time>
      </trkpt>
      <trkpt lat="43.31312" lon="5.68007">
        <ele>738</ele>
        <time>2019-11-29T08:46:57.000Z</time>
      </trkpt>
      <trkpt lat="43.31312" lon="5.68007">
        <ele>738</ele>
        <time>2019-11-29T08:46:58.000Z</time>
      </trkpt>
      <trkpt lat="43.31312" lon="5.68007">
        <ele>738</ele>
        <time>2019-11-29T08:46:59.000Z</time>
      </trkpt>
      <trkpt lat="43.31312" lon="5.68007">
        <ele>738</ele>
        <time>2019-11-29T08:47:00.000Z</time>
      </trkpt>
      <trkpt lat="43.31312" lon="5.68007">
        <ele>738</ele>
        <time>2019-11-29T08:47:01.000Z</time>
      </trkpt>
      <trkpt lat="43.31312" lon="5.68007">
        <ele>738</ele>
        <time>2019-11-29T08:47:02.000Z</time>
      </trkpt>
      <trkpt lat="43.31312" lon="5.68007">
        <ele>738</ele>
        <time>2019-11-29T08:47:03.000Z</time>
      </trkpt>
      <trkpt lat="43.31312" lon="5.68007">
        <ele>738</ele>
        <time>2019-11-29T08:47:04.000Z</time>
      </trkpt>
      <trkpt lat="43.31313" lon="5.68007">
        <ele>738</ele>
        <time>2019-11-29T08:47:05.000Z</time>
      </trkpt>
      <trkpt lat="43.31313" lon="5.68007">
        <ele>738</ele>
        <time>2019-11-29T08:47:06.000Z</time>
      </trkpt>
      <trkpt lat="43.31313" lon="5.68007">
        <ele>738</ele>
        <time>2019-11-29T08:47:07.000Z</time>
      </trkpt>
      <trkpt lat="43.31313" lon="5.68007">
        <ele>738</ele>
        <time>2019-11-29T08:47:08.000Z</time>
      </trkpt>
      <trkpt lat="43.31313" lon="5.68007">
        <ele>738</ele>
        <time>2019-11-29T08:47:09.000Z</time>
      </trkpt>
      <trkpt lat="43.31312" lon="5.68007">
        <ele>738</ele>
        <time>2019-11-29T08:47:10.000Z</time>
      </trkpt>
      <trkpt lat="43.31312" lon="5.68007">
        <ele>738</ele>
        <time>2019-11-29T08:47:11.000Z</time>
      </trkpt>
      <trkpt lat="43.31312" lon="5.68007">
        <ele>738</ele>
        <time>2019-11-29T08:47:12.000Z</time>
      </trkpt>
      <trkpt lat="43.31312" lon="5.68007">
        <ele>738</ele>
        <time>2019-11-29T08:47:13.000Z</time>
      </trkpt>
      <trkpt lat="43.31313" lon="5.68007">
        <ele>738</ele>
        <time>2019-11-29T08:47:14.000Z</time>
      </trkpt>
      <trkpt lat="43.31313" lon="5.68007">
        <ele>738</ele>
        <time>2019-11-29T08:47:15.000Z</time>
      </trkpt>
      <trkpt lat="43.31313" lon="5.68007">
        <ele>738</ele>
        <time>2019-11-29T08:47:16.000Z</time>
      </trkpt>
      <trkpt lat="43.31313" lon="5.68007">
        <ele>738</ele>
        <time>2019-11-29T08:47:17.000Z</time>
      </trkpt>
      <trkpt lat="43.31313" lon="5.68007">
        <ele>738</ele>
        <time>2019-11-29T08:47:18.000Z</time>
      </trkpt>
      <trkpt lat="43.31312" lon="5.68007">
        <ele>738</ele>
        <time>2019-11-29T08:47:19.000Z</time>
      </trkpt>
      <trkpt lat="43.31312" lon="5.68007">
        <ele>738</ele>
        <time>2019-11-29T08:47:20.000Z</time>
      </trkpt>
      <trkpt lat="43.31313" lon="5.68007">
        <ele>739</ele>
        <time>2019-11-29T08:47:21.000Z</time>
      </trkpt>
      <trkpt lat="43.31313" lon="5.68007">
        <ele>739</ele>
        <time>2019-11-29T08:47:22.000Z</time>
      </trkpt>
      <trkpt lat="43.31313" lon="5.68007">
        <ele>739</ele>
        <time>2019-11-29T08:47:23.000Z</time>
      </trkpt>
      <trkpt lat="43.31313" lon="5.68007">
        <ele>739</ele>
        <time>2019-11-29T08:47:24.000Z</time>
      </trkpt>
      <trkpt lat="43.31313" lon="5.68007">
        <ele>739</ele>
        <time>2019-11-29T08:47:25.000Z</time>
      </trkpt>
      <trkpt lat="43.31313" lon="5.68007">
        <ele>739</ele>
        <time>2019-11-29T08:47:26.000Z</time>
      </trkpt>
      <trkpt lat="43.31313" lon="5.68007">
        <ele>739</ele>
        <time>2019-11-29T08:47:27.000Z</time>
      </trkpt>
      <trkpt lat="43.31313" lon="5.68007">
        <ele>739</ele>
        <time>2019-11-29T08:47:28.000Z</time>
      </trkpt>
      <trkpt lat="43.31313" lon="5.68007">
        <ele>739</ele>
        <time>2019-11-29T08:47:29.000Z</time>
      </trkpt>
      <trkpt lat="43.31313" lon="5.68007">
        <ele>739</ele>
        <time>2019-11-29T08:47:30.000Z</time>
      </trkpt>
      <trkpt lat="43.31313" lon="5.68006">
        <ele>739</ele>
        <time>2019-11-29T08:47:31.000Z</time>
      </trkpt>
      <trkpt lat="43.31313" lon="5.68006">
        <ele>739</ele>
        <time>2019-11-29T08:47:32.000Z</time>
      </trkpt>
      <trkpt lat="43.31313" lon="5.68006">
        <ele>739</ele>
        <time>2019-11-29T08:47:33.000Z</time>
      </trkpt>
      <trkpt lat="43.31313" lon="5.68007">
        <ele>739</ele>
        <time>2019-11-29T08:47:34.000Z</time>
      </trkpt>
      <trkpt lat="43.31313" lon="5.68007">
        <ele>739</ele>
        <time>2019-11-29T08:47:35.000Z</time>
      </trkpt>
      <trkpt lat="43.31313" lon="5.68006">
        <ele>739</ele>
        <time>2019-11-29T08:47:36.000Z</time>
      </trkpt>
      <trkpt lat="43.31313" lon="5.68006">
        <ele>739</ele>
        <time>2019-11-29T08:47:37.000Z</time>
      </trkpt>
      <trkpt lat="43.31313" lon="5.68006">
        <ele>740</ele>
        <time>2019-11-29T08:47:38.000Z</time>
      </trkpt>
      <trkpt lat="43.31313" lon="5.68007">
        <ele>740</ele>
        <time>2019-11-29T08:47:39.000Z</time>
      </trkpt>
      <trkpt lat="43.31313" lon="5.68007">
        <ele>740</ele>
        <time>2019-11-29T08:47:40.000Z</time>
      </trkpt>
      <trkpt lat="43.31313" lon="5.68006">
        <ele>740</ele>
        <time>2019-11-29T08:47:41.000Z</time>
      </trkpt>
      <trkpt lat="43.31313" lon="5.68006">
        <ele>740</ele>
        <time>2019-11-29T08:47:42.000Z</time>
      </trkpt>
      <trkpt lat="43.31313" lon="5.68006">
        <ele>740</ele>
        <time>2019-11-29T08:47:43.000Z</time>
      </trkpt>
      <trkpt lat="43.31312" lon="5.68006">
        <ele>740</ele>
        <time>2019-11-29T08:47:44.000Z</time>
      </trkpt>
      <trkpt lat="43.31312" lon="5.68005">
        <ele>740</ele>
        <time>2019-11-29T08:47:45.000Z</time>
      </trkpt>
      <trkpt lat="43.31312" lon="5.68005">
        <ele>740</ele>
        <time>2019-11-29T08:47:46.000Z</time>
      </trkpt>
      <trkpt lat="43.31312" lon="5.68005">
        <ele>740</ele>
        <time>2019-11-29T08:47:47.000Z</time>
      </trkpt>
      <trkpt lat="43.31312" lon="5.68005">
        <ele>740</ele>
        <time>2019-11-29T08:47:48.000Z</time>
      </trkpt>
      <trkpt lat="43.31312" lon="5.68005">
        <ele>740</ele>
        <time>2019-11-29T08:47:49.000Z</time>
      </trkpt>
      <trkpt lat="43.31312" lon="5.68005">
        <ele>740</ele>
        <time>2019-11-29T08:47:50.000Z</time>
      </trkpt>
      <trkpt lat="43.31312" lon="5.68005">
        <ele>740</ele>
        <time>2019-11-29T08:47:51.000Z</time>
      </trkpt>
      <trkpt lat="43.31312" lon="5.68005">
        <ele>740</ele>
        <time>2019-11-29T08:47:52.000Z</time>
      </trkpt>
      <trkpt lat="43.31312" lon="5.68005">
        <ele>740</ele>
        <time>2019-11-29T08:47:53.000Z</time>
      </trkpt>
      <trkpt lat="43.31312" lon="5.68005">
        <ele>740</ele>
        <time>2019-11-29T08:47:54.000Z</time>
      </trkpt>
      <trkpt lat="43.31312" lon="5.68005">
        <ele>740</ele>
        <time>2019-11-29T08:47:55.000Z</time>
      </trkpt>
      <trkpt lat="43.31312" lon="5.68005">
        <ele>740</ele>
        <time>2019-11-29T08:47:56.000Z</time>
      </trkpt>
      <trkpt lat="43.31312" lon="5.68006">
        <ele>740</ele>
        <time>2019-11-29T08:47:57.000Z</time>
      </trkpt>
      <trkpt lat="43.31312" lon="5.68006">
        <ele>740</ele>
        <time>2019-11-29T08:47:58.000Z</time>
      </trkpt>
      <trkpt lat="43.31312" lon="5.68007">
        <ele>740</ele>
        <time>2019-11-29T08:47:59.000Z</time>
      </trkpt>
      <trkpt lat="43.31312" lon="5.68007">
        <ele>740</ele>
        <time>2019-11-29T08:48:00.000Z</time>
      </trkpt>
      <trkpt lat="43.31312" lon="5.68006">
        <ele>740</ele>
        <time>2019-11-29T08:48:01.000Z</time>
      </trkpt>
      <trkpt lat="43.31312" lon="5.68006">
        <ele>740</ele>
        <time>2019-11-29T08:48:02.000Z</time>
      </trkpt>
      <trkpt lat="43.31312" lon="5.68006">
        <ele>739</ele>
        <time>2019-11-29T08:48:03.000Z</time>
      </trkpt>
      <trkpt lat="43.31312" lon="5.68006">
        <ele>739</ele>
        <time>2019-11-29T08:48:04.000Z</time>
      </trkpt>
      <trkpt lat="43.31312" lon="5.68007">
        <ele>739</ele>
        <time>2019-11-29T08:48:05.000Z</time>
      </trkpt>
      <trkpt lat="43.31312" lon="5.68007">
        <ele>739</ele>
        <time>2019-11-29T08:48:06.000Z</time>
      </trkpt>
      <trkpt lat="43.31312" lon="5.68007">
        <ele>739</ele>
        <time>2019-11-29T08:48:07.000Z</time>
      </trkpt>
      <trkpt lat="43.31312" lon="5.68007">
        <ele>739</ele>
        <time>2019-11-29T08:48:08.000Z</time>
      </trkpt>
      <trkpt lat="43.31312" lon="5.68007">
        <ele>739</ele>
        <time>2019-11-29T08:48:09.000Z</time>
      </trkpt>
      <trkpt lat="43.31312" lon="5.68007">
        <ele>739</ele>
        <time>2019-11-29T08:48:10.000Z</time>
      </trkpt>
      <trkpt lat="43.31312" lon="5.68007">
        <ele>739</ele>
        <time>2019-11-29T08:48:11.000Z</time>
      </trkpt>
      <trkpt lat="43.31312" lon="5.68006">
        <ele>739</ele>
        <time>2019-11-29T08:48:12.000Z</time>
      </trkpt>
      <trkpt lat="43.31312" lon="5.68006">
        <ele>739</ele>
        <time>2019-11-29T08:48:13.000Z</time>
      </trkpt>
      <trkpt lat="43.31312" lon="5.68007">
        <ele>739</ele>
        <time>2019-11-29T08:48:14.000Z</time>
      </trkpt>
      <trkpt lat="43.31312" lon="5.68007">
        <ele>739</ele>
        <time>2019-11-29T08:48:15.000Z</time>
      </trkpt>
      <trkpt lat="43.31312" lon="5.68007">
        <ele>739</ele>
        <time>2019-11-29T08:48:16.000Z</time>
      </trkpt>
      <trkpt lat="43.31312" lon="5.68007">
        <ele>739</ele>
        <time>2019-11-29T08:48:17.000Z</time>
      </trkpt>
      <trkpt lat="43.31312" lon="5.68007">
        <ele>739</ele>
        <time>2019-11-29T08:48:18.000Z</time>
      </trkpt>
      <trkpt lat="43.31312" lon="5.68007">
        <ele>739</ele>
        <time>2019-11-29T08:48:19.000Z</time>
      </trkpt>
      <trkpt lat="43.31312" lon="5.68007">
        <ele>739</ele>
        <time>2019-11-29T08:48:20.000Z</time>
      </trkpt>
      <trkpt lat="43.31312" lon="5.68007">
        <ele>739</ele>
        <time>2019-11-29T08:48:21.000Z</time>
      </trkpt>
      <trkpt lat="43.31312" lon="5.68007">
        <ele>739</ele>
        <time>2019-11-29T08:48:22.000Z</time>
      </trkpt>
      <trkpt lat="43.31312" lon="5.68007">
        <ele>739</ele>
        <time>2019-11-29T08:48:23.000Z</time>
      </trkpt>
      <trkpt lat="43.31312" lon="5.68007">
        <ele>739</ele>
        <time>2019-11-29T08:48:24.000Z</time>
      </trkpt>
      <trkpt lat="43.31312" lon="5.68007">
        <ele>739</ele>
        <time>2019-11-29T08:48:25.000Z</time>
      </trkpt>
      <trkpt lat="43.31312" lon="5.68007">
        <ele>739</ele>
        <time>2019-11-29T08:48:26.000Z</time>
      </trkpt>
      <trkpt lat="43.31312" lon="5.68007">
        <ele>739</ele>
        <time>2019-11-29T08:48:27.000Z</time>
      </trkpt>
      <trkpt lat="43.31312" lon="5.68007">
        <ele>739</ele>
        <time>2019-11-29T08:48:28.000Z</time>
      </trkpt>
      <trkpt lat="43.31312" lon="5.68007">
        <ele>739</ele>
        <time>2019-11-29T08:48:29.000Z</time>
      </trkpt>
      <trkpt lat="43.31312" lon="5.68007">
        <ele>739</ele>
        <time>2019-11-29T08:48:30.000Z</time>
      </trkpt>
      <trkpt lat="43.31312" lon="5.68007">
        <ele>739</ele>
        <time>2019-11-29T08:48:31.000Z</time>
      </trkpt>
      <trkpt lat="43.31312" lon="5.68007">
        <ele>739</ele>
        <time>2019-11-29T08:48:32.000Z</time>
      </trkpt>
      <trkpt lat="43.31312" lon="5.68007">
        <ele>738</ele>
        <time>2019-11-29T08:48:33.000Z</time>
      </trkpt>
      <trkpt lat="43.31312" lon="5.68007">
        <ele>738</ele>
        <time>2019-11-29T08:48:34.000Z</time>
      </trkpt>
      <trkpt lat="43.31312" lon="5.68006">
        <ele>738</ele>
        <time>2019-11-29T08:48:35.000Z</time>
      </trkpt>
      <trkpt lat="43.31312" lon="5.68006">
        <ele>739</ele>
        <time>2019-11-29T08:48:36.000Z</time>
      </trkpt>
      <trkpt lat="43.31312" lon="5.68006">
        <ele>739</ele>
        <time>2019-11-29T08:48:37.000Z</time>
      </trkpt>
      <trkpt lat="43.31312" lon="5.68006">
        <ele>738</ele>
        <time>2019-11-29T08:48:38.000Z</time>
      </trkpt>
      <trkpt lat="43.31312" lon="5.68007">
        <ele>738</ele>
        <time>2019-11-29T08:48:39.000Z</time>
      </trkpt>
      <trkpt lat="43.31312" lon="5.68007">
        <ele>739</ele>
        <time>2019-11-29T08:48:40.000Z</time>
      </trkpt>
      <trkpt lat="43.31312" lon="5.68007">
        <ele>739</ele>
        <time>2019-11-29T08:48:41.000Z</time>
      </trkpt>
      <trkpt lat="43.31312" lon="5.68007">
        <ele>739</ele>
        <time>2019-11-29T08:48:42.000Z</time>
      </trkpt>
      <trkpt lat="43.31312" lon="5.68007">
        <ele>738</ele>
        <time>2019-11-29T08:48:43.000Z</time>
      </trkpt>
      <trkpt lat="43.31312" lon="5.68007">
        <ele>738</ele>
        <time>2019-11-29T08:48:44.000Z</time>
      </trkpt>
      <trkpt lat="43.31312" lon="5.68007">
        <ele>738</ele>
        <time>2019-11-29T08:48:45.000Z</time>
      </trkpt>
      <trkpt lat="43.31312" lon="5.68007">
        <ele>738</ele>
        <time>2019-11-29T08:48:46.000Z</time>
      </trkpt>
      <trkpt lat="43.31312" lon="5.68008">
        <ele>738</ele>
        <time>2019-11-29T08:48:47.000Z</time>
      </trkpt>
      <trkpt lat="43.31312" lon="5.68008">
        <ele>738</ele>
        <time>2019-11-29T08:48:48.000Z</time>
      </trkpt>
      <trkpt lat="43.31312" lon="5.68009">
        <ele>738</ele>
        <time>2019-11-29T08:48:49.000Z</time>
      </trkpt>
      <trkpt lat="43.31312" lon="5.68009">
        <ele>738</ele>
        <time>2019-11-29T08:48:50.000Z</time>
      </trkpt>
      <trkpt lat="43.31312" lon="5.68009">
        <ele>738</ele>
        <time>2019-11-29T08:48:51.000Z</time>
      </trkpt>
      <trkpt lat="43.31312" lon="5.68009">
        <ele>738</ele>
        <time>2019-11-29T08:48:52.000Z</time>
      </trkpt>
      <trkpt lat="43.31311" lon="5.68009">
        <ele>738</ele>
        <time>2019-11-29T08:48:53.000Z</time>
      </trkpt>
      <trkpt lat="43.31311" lon="5.68008">
        <ele>738</ele>
        <time>2019-11-29T08:48:54.000Z</time>
      </trkpt>
      <trkpt lat="43.31311" lon="5.68008">
        <ele>739</ele>
        <time>2019-11-29T08:48:55.000Z</time>
      </trkpt>
      <trkpt lat="43.31311" lon="5.68008">
        <ele>739</ele>
        <time>2019-11-29T08:48:56.000Z</time>
      </trkpt>
      <trkpt lat="43.31311" lon="5.68008">
        <ele>739</ele>
        <time>2019-11-29T08:48:57.000Z</time>
      </trkpt>
      <trkpt lat="43.31311" lon="5.68008">
        <ele>739</ele>
        <time>2019-11-29T08:48:58.000Z</time>
      </trkpt>
      <trkpt lat="43.31311" lon="5.68008">
        <ele>739</ele>
        <time>2019-11-29T08:48:59.000Z</time>
      </trkpt>
      <trkpt lat="43.31311" lon="5.68008">
        <ele>739</ele>
        <time>2019-11-29T08:49:00.000Z</time>
      </trkpt>
      <trkpt lat="43.3131" lon="5.68008">
        <ele>739</ele>
        <time>2019-11-29T08:49:01.000Z</time>
      </trkpt>
      <trkpt lat="43.3131" lon="5.68008">
        <ele>739</ele>
        <time>2019-11-29T08:49:02.000Z</time>
      </trkpt>
      <trkpt lat="43.31311" lon="5.68008">
        <ele>739</ele>
        <time>2019-11-29T08:49:03.000Z</time>
      </trkpt>
      <trkpt lat="43.31311" lon="5.68008">
        <ele>739</ele>
        <time>2019-11-29T08:49:04.000Z</time>
      </trkpt>
      <trkpt lat="43.31311" lon="5.68009">
        <ele>739</ele>
        <time>2019-11-29T08:49:05.000Z</time>
      </trkpt>
      <trkpt lat="43.31311" lon="5.68009">
        <ele>739</ele>
        <time>2019-11-29T08:49:06.000Z</time>
      </trkpt>
      <trkpt lat="43.31312" lon="5.6801">
        <ele>739</ele>
        <time>2019-11-29T08:49:07.000Z</time>
      </trkpt>
      <trkpt lat="43.31312" lon="5.6801">
        <ele>739</ele>
        <time>2019-11-29T08:49:08.000Z</time>
      </trkpt>
      <trkpt lat="43.31313" lon="5.6801">
        <ele>739</ele>
        <time>2019-11-29T08:49:09.000Z</time>
      </trkpt>
      <trkpt lat="43.31313" lon="5.6801">
        <ele>739</ele>
        <time>2019-11-29T08:49:10.000Z</time>
      </trkpt>
      <trkpt lat="43.31313" lon="5.68009">
        <ele>739</ele>
        <time>2019-11-29T08:49:11.000Z</time>
      </trkpt>
      <trkpt lat="43.31313" lon="5.68009">
        <ele>739</ele>
        <time>2019-11-29T08:49:12.000Z</time>
      </trkpt>
      <trkpt lat="43.31313" lon="5.68008">
        <ele>739</ele>
        <time>2019-11-29T08:49:13.000Z</time>
      </trkpt>
      <trkpt lat="43.31314" lon="5.68068">
        <ele>745</ele>
        <time>2019-11-29T08:49:15.000Z</time>
      </trkpt>
      <trkpt lat="43.31313" lon="5.68069">
        <ele>744</ele>
        <time>2019-11-29T08:49:16.000Z</time>
      </trkpt>
      <trkpt lat="43.31313" lon="5.68069">
        <ele>744</ele>
        <time>2019-11-29T08:49:17.000Z</time>
      </trkpt>
      <trkpt lat="43.31312" lon="5.68069">
        <ele>743</ele>
        <time>2019-11-29T08:49:18.000Z</time>
      </trkpt>
      <trkpt lat="43.31312" lon="5.68069">
        <ele>742</ele>
        <time>2019-11-29T08:49:19.000Z</time>
      </trkpt>
      <trkpt lat="43.31312" lon="5.68068">
        <ele>742</ele>
        <time>2019-11-29T08:49:20.000Z</time>
      </trkpt>
      <trkpt lat="43.31311" lon="5.68068">
        <ele>742</ele>
        <time>2019-11-29T08:49:21.000Z</time>
      </trkpt>
      <trkpt lat="43.31311" lon="5.68067">
        <ele>741</ele>
        <time>2019-11-29T08:49:22.000Z</time>
      </trkpt>
      <trkpt lat="43.3131" lon="5.68067">
        <ele>741</ele>
        <time>2019-11-29T08:49:23.000Z</time>
      </trkpt>
      <trkpt lat="43.3131" lon="5.68067">
        <ele>741</ele>
        <time>2019-11-29T08:49:24.000Z</time>
      </trkpt>
      <trkpt lat="43.3131" lon="5.68067">
        <ele>741</ele>
        <time>2019-11-29T08:49:25.000Z</time>
      </trkpt>
      <trkpt lat="43.3131" lon="5.68067">
        <ele>741</ele>
        <time>2019-11-29T08:49:26.000Z</time>
      </trkpt>
      <trkpt lat="43.3131" lon="5.68066">
        <ele>741</ele>
        <time>2019-11-29T08:49:27.000Z</time>
      </trkpt>
      <trkpt lat="43.31309" lon="5.68066">
        <ele>741</ele>
        <time>2019-11-29T08:49:28.000Z</time>
      </trkpt>
      <trkpt lat="43.31309" lon="5.68066">
        <ele>741</ele>
        <time>2019-11-29T08:49:29.000Z</time>
      </trkpt>
      <trkpt lat="43.31309" lon="5.68066">
        <ele>741</ele>
        <time>2019-11-29T08:49:30.000Z</time>
      </trkpt>
      <trkpt lat="43.3131" lon="5.68066">
        <ele>740</ele>
        <time>2019-11-29T08:49:31.000Z</time>
      </trkpt>
      <trkpt lat="43.3131" lon="5.68067">
        <ele>740</ele>
        <time>2019-11-29T08:49:32.000Z</time>
      </trkpt>
      <trkpt lat="43.3131" lon="5.68067">
        <ele>740</ele>
        <time>2019-11-29T08:49:33.000Z</time>
      </trkpt>
      <trkpt lat="43.3131" lon="5.68067">
        <ele>740</ele>
        <time>2019-11-29T08:49:34.000Z</time>
      </trkpt>
      <trkpt lat="43.3131" lon="5.68067">
        <ele>740</ele>
        <time>2019-11-29T08:49:35.000Z</time>
      </trkpt>
      <trkpt lat="43.3131" lon="5.68068">
        <ele>740</ele>
        <time>2019-11-29T08:49:36.000Z</time>
      </trkpt>
      <trkpt lat="43.3131" lon="5.68068">
        <ele>740</ele>
        <time>2019-11-29T08:49:37.000Z</time>
      </trkpt>
      <trkpt lat="43.31309" lon="5.68067">
        <ele>740</ele>
        <time>2019-11-29T08:49:38.000Z</time>
      </trkpt>
      <trkpt lat="43.31309" lon="5.68067">
        <ele>740</ele>
        <time>2019-11-29T08:49:39.000Z</time>
      </trkpt>
      <trkpt lat="43.31309" lon="5.68067">
        <ele>740</ele>
        <time>2019-11-29T08:49:40.000Z</time>
      </trkpt>
      <trkpt lat="43.31309" lon="5.68067">
        <ele>740</ele>
        <time>2019-11-29T08:49:41.000Z</time>
      </trkpt>
      <trkpt lat="43.31308" lon="5.68066">
        <ele>740</ele>
        <time>2019-11-29T08:49:42.000Z</time>
      </trkpt>
      <trkpt lat="43.31308" lon="5.68066">
        <ele>740</ele>
        <time>2019-11-29T08:49:43.000Z</time>
      </trkpt>
      <trkpt lat="43.31308" lon="5.68066">
        <ele>740</ele>
        <time>2019-11-29T08:49:44.000Z</time>
      </trkpt>
      <trkpt lat="43.31308" lon="5.68065">
        <ele>740</ele>
        <time>2019-11-29T08:49:45.000Z</time>
      </trkpt>
      <trkpt lat="43.31308" lon="5.68065">
        <ele>740</ele>
        <time>2019-11-29T08:49:46.000Z</time>
      </trkpt>
      <trkpt lat="43.31308" lon="5.68065">
        <ele>740</ele>
        <time>2019-11-29T08:49:47.000Z</time>
      </trkpt>
      <trkpt lat="43.31308" lon="5.68065">
        <ele>740</ele>
        <time>2019-11-29T08:49:48.000Z</time>
      </trkpt>
      <trkpt lat="43.31308" lon="5.68064">
        <ele>741</ele>
        <time>2019-11-29T08:49:49.000Z</time>
      </trkpt>
      <trkpt lat="43.31308" lon="5.68064">
        <ele>741</ele>
        <time>2019-11-29T08:49:50.000Z</time>
      </trkpt>
      <trkpt lat="43.31308" lon="5.68064">
        <ele>741</ele>
        <time>2019-11-29T08:49:51.000Z</time>
      </trkpt>
      <trkpt lat="43.31308" lon="5.68064">
        <ele>741</ele>
        <time>2019-11-29T08:49:52.000Z</time>
      </trkpt>
      <trkpt lat="43.31308" lon="5.68064">
        <ele>741</ele>
        <time>2019-11-29T08:49:53.000Z</time>
      </trkpt>
      <trkpt lat="43.31308" lon="5.68064">
        <ele>741</ele>
        <time>2019-11-29T08:49:54.000Z</time>
      </trkpt>
      <trkpt lat="43.31308" lon="5.68064">
        <ele>742</ele>
        <time>2019-11-29T08:49:55.000Z</time>
      </trkpt>
      <trkpt lat="43.31308" lon="5.68063">
        <ele>742</ele>
        <time>2019-11-29T08:49:56.000Z</time>
      </trkpt>
      <trkpt lat="43.31307" lon="5.68063">
        <ele>742</ele>
        <time>2019-11-29T08:49:57.000Z</time>
      </trkpt>
      <trkpt lat="43.31307" lon="5.68063">
        <ele>743</ele>
        <time>2019-11-29T08:49:58.000Z</time>
      </trkpt>
      <trkpt lat="43.31307" lon="5.68063">
        <ele>743</ele>
        <time>2019-11-29T08:49:59.000Z</time>
      </trkpt>
      <trkpt lat="43.31307" lon="5.68063">
        <ele>743</ele>
        <time>2019-11-29T08:50:00.000Z</time>
      </trkpt>
      <trkpt lat="43.31307" lon="5.68063">
        <ele>743</ele>
        <time>2019-11-29T08:50:01.000Z</time>
      </trkpt>
      <trkpt lat="43.31307" lon="5.68063">
        <ele>744</ele>
        <time>2019-11-29T08:50:02.000Z</time>
      </trkpt>
      <trkpt lat="43.31306" lon="5.68063">
        <ele>744</ele>
        <time>2019-11-29T08:50:03.000Z</time>
      </trkpt>
      <trkpt lat="43.31306" lon="5.68063">
        <ele>744</ele>
        <time>2019-11-29T08:50:04.000Z</time>
      </trkpt>
      <trkpt lat="43.31306" lon="5.68063">
        <ele>744</ele>
        <time>2019-11-29T08:50:05.000Z</time>
      </trkpt>
      <trkpt lat="43.31306" lon="5.68063">
        <ele>745</ele>
        <time>2019-11-29T08:50:06.000Z</time>
      </trkpt>
      <trkpt lat="43.31305" lon="5.68063">
        <ele>745</ele>
        <time>2019-11-29T08:50:07.000Z</time>
      </trkpt>
      <trkpt lat="43.31305" lon="5.68063">
        <ele>745</ele>
        <time>2019-11-29T08:50:08.000Z</time>
      </trkpt>
      <trkpt lat="43.31305" lon="5.68063">
        <ele>745</ele>
        <time>2019-11-29T08:50:09.000Z</time>
      </trkpt>
      <trkpt lat="43.31305" lon="5.68063">
        <ele>745</ele>
        <time>2019-11-29T08:50:10.000Z</time>
      </trkpt>
      <trkpt lat="43.31305" lon="5.68062">
        <ele>746</ele>
        <time>2019-11-29T08:50:11.000Z</time>
      </trkpt>
      <trkpt lat="43.31305" lon="5.68062">
        <ele>746</ele>
        <time>2019-11-29T08:50:12.000Z</time>
      </trkpt>
      <trkpt lat="43.31305" lon="5.68062">
        <ele>746</ele>
        <time>2019-11-29T08:50:13.000Z</time>
      </trkpt>
      <trkpt lat="43.31304" lon="5.68062">
        <ele>746</ele>
        <time>2019-11-29T08:50:14.000Z</time>
      </trkpt>
      <trkpt lat="43.31304" lon="5.68062">
        <ele>746</ele>
        <time>2019-11-29T08:50:15.000Z</time>
      </trkpt>
      <trkpt lat="43.31303" lon="5.68062">
        <ele>746</ele>
        <time>2019-11-29T08:50:16.000Z</time>
      </trkpt>
      <trkpt lat="43.31303" lon="5.68062">
        <ele>746</ele>
        <time>2019-11-29T08:50:17.000Z</time>
      </trkpt>
      <trkpt lat="43.31302" lon="5.68062">
        <ele>746</ele>
        <time>2019-11-29T08:50:18.000Z</time>
      </trkpt>
      <trkpt lat="43.31302" lon="5.68062">
        <ele>746</ele>
        <time>2019-11-29T08:50:19.000Z</time>
      </trkpt>
      <trkpt lat="43.31302" lon="5.68062">
        <ele>746</ele>
        <time>2019-11-29T08:50:20.000Z</time>
      </trkpt>
      <trkpt lat="43.31302" lon="5.68062">
        <ele>747</ele>
        <time>2019-11-29T08:50:21.000Z</time>
      </trkpt>
      <trkpt lat="43.31302" lon="5.68062">
        <ele>747</ele>
        <time>2019-11-29T08:50:22.000Z</time>
      </trkpt>
      <trkpt lat="43.31302" lon="5.68062">
        <ele>747</ele>
        <time>2019-11-29T08:50:23.000Z</time>
      </trkpt>
      <trkpt lat="43.31302" lon="5.68062">
        <ele>747</ele>
        <time>2019-11-29T08:50:24.000Z</time>
      </trkpt>
      <trkpt lat="43.31302" lon="5.68062">
        <ele>747</ele>
        <time>2019-11-29T08:50:25.000Z</time>
      </trkpt>
      <trkpt lat="43.31302" lon="5.68062">
        <ele>747</ele>
        <time>2019-11-29T08:50:26.000Z</time>
      </trkpt>
      <trkpt lat="43.31302" lon="5.68061">
        <ele>747</ele>
        <time>2019-11-29T08:50:27.000Z</time>
      </trkpt>
      <trkpt lat="43.31302" lon="5.68061">
        <ele>747</ele>
        <time>2019-11-29T08:50:28.000Z</time>
      </trkpt>
      <trkpt lat="43.31302" lon="5.68061">
        <ele>747</ele>
        <time>2019-11-29T08:50:29.000Z</time>
      </trkpt>
      <trkpt lat="43.31302" lon="5.68061">
        <ele>747</ele>
        <time>2019-11-29T08:50:30.000Z</time>
      </trkpt>
      <trkpt lat="43.31303" lon="5.68061">
        <ele>747</ele>
        <time>2019-11-29T08:50:31.000Z</time>
      </trkpt>
      <trkpt lat="43.31302" lon="5.68062">
        <ele>748</ele>
        <time>2019-11-29T08:50:32.000Z</time>
      </trkpt>
      <trkpt lat="43.31302" lon="5.68062">
        <ele>748</ele>
        <time>2019-11-29T08:50:33.000Z</time>
      </trkpt>
      <trkpt lat="43.31303" lon="5.68062">
        <ele>748</ele>
        <time>2019-11-29T08:50:34.000Z</time>
      </trkpt>
      <trkpt lat="43.31303" lon="5.68062">
        <ele>748</ele>
        <time>2019-11-29T08:50:35.000Z</time>
      </trkpt>
      <trkpt lat="43.31303" lon="5.68062">
        <ele>748</ele>
        <time>2019-11-29T08:50:36.000Z</time>
      </trkpt>
      <trkpt lat="43.31303" lon="5.68062">
        <ele>748</ele>
        <time>2019-11-29T08:50:37.000Z</time>
      </trkpt>
      <trkpt lat="43.31303" lon="5.68062">
        <ele>748</ele>
        <time>2019-11-29T08:50:38.000Z</time>
      </trkpt>
      <trkpt lat="43.31303" lon="5.68061">
        <ele>748</ele>
        <time>2019-11-29T08:50:39.000Z</time>
      </trkpt>
      <trkpt lat="43.31303" lon="5.68061">
        <ele>748</ele>
        <time>2019-11-29T08:50:40.000Z</time>
      </trkpt>
      <trkpt lat="43.31303" lon="5.68061">
        <ele>748</ele>
        <time>2019-11-29T08:50:41.000Z</time>
      </trkpt>
      <trkpt lat="43.31303" lon="5.68061">
        <ele>748</ele>
        <time>2019-11-29T08:50:42.000Z</time>
      </trkpt>
      <trkpt lat="43.31303" lon="5.68061">
        <ele>748</ele>
        <time>2019-11-29T08:50:43.000Z</time>
      </trkpt>
      <trkpt lat="43.31303" lon="5.68062">
        <ele>748</ele>
        <time>2019-11-29T08:50:44.000Z</time>
      </trkpt>
      <trkpt lat="43.31303" lon="5.68062">
        <ele>748</ele>
        <time>2019-11-29T08:50:45.000Z</time>
      </trkpt>
      <trkpt lat="43.31303" lon="5.68062">
        <ele>748</ele>
        <time>2019-11-29T08:50:46.000Z</time>
      </trkpt>
      <trkpt lat="43.31303" lon="5.68062">
        <ele>748</ele>
        <time>2019-11-29T08:50:47.000Z</time>
      </trkpt>
      <trkpt lat="43.31303" lon="5.68062">
        <ele>748</ele>
        <time>2019-11-29T08:50:48.000Z</time>
      </trkpt>
      <trkpt lat="43.31303" lon="5.68062">
        <ele>748</ele>
        <time>2019-11-29T08:50:49.000Z</time>
      </trkpt>
      <trkpt lat="43.31303" lon="5.68063">
        <ele>748</ele>
        <time>2019-11-29T08:50:50.000Z</time>
      </trkpt>
      <trkpt lat="43.31302" lon="5.68063">
        <ele>748</ele>
        <time>2019-11-29T08:50:51.000Z</time>
      </trkpt>
      <trkpt lat="43.31303" lon="5.68063">
        <ele>748</ele>
        <time>2019-11-29T08:50:52.000Z</time>
      </trkpt>
      <trkpt lat="43.31303" lon="5.68062">
        <ele>748</ele>
        <time>2019-11-29T08:50:53.000Z</time>
      </trkpt>
      <trkpt lat="43.31303" lon="5.68062">
        <ele>748</ele>
        <time>2019-11-29T08:50:54.000Z</time>
      </trkpt>
      <trkpt lat="43.31303" lon="5.68062">
        <ele>748</ele>
        <time>2019-11-29T08:50:55.000Z</time>
      </trkpt>
      <trkpt lat="43.31303" lon="5.68062">
        <ele>748</ele>
        <time>2019-11-29T08:50:56.000Z</time>
      </trkpt>
      <trkpt lat="43.31302" lon="5.68062">
        <ele>748</ele>
        <time>2019-11-29T08:50:57.000Z</time>
      </trkpt>
      <trkpt lat="43.31303" lon="5.68062">
        <ele>748</ele>
        <time>2019-11-29T08:50:58.000Z</time>
      </trkpt>
      <trkpt lat="43.31303" lon="5.68062">
        <ele>748</ele>
        <time>2019-11-29T08:50:59.000Z</time>
      </trkpt>
      <trkpt lat="43.31303" lon="5.68062">
        <ele>748</ele>
        <time>2019-11-29T08:51:00.000Z</time>
      </trkpt>
      <trkpt lat="43.31303" lon="5.68062">
        <ele>749</ele>
        <time>2019-11-29T08:51:01.000Z</time>
      </trkpt>
      <trkpt lat="43.31303" lon="5.68062">
        <ele>749</ele>
        <time>2019-11-29T08:51:02.000Z</time>
      </trkpt>
      <trkpt lat="43.31303" lon="5.68062">
        <ele>749</ele>
        <time>2019-11-29T08:51:03.000Z</time>
      </trkpt>
      <trkpt lat="43.31303" lon="5.68063">
        <ele>749</ele>
        <time>2019-11-29T08:51:04.000Z</time>
      </trkpt>
      <trkpt lat="43.31304" lon="5.68063">
        <ele>749</ele>
        <time>2019-11-29T08:51:05.000Z</time>
      </trkpt>
      <trkpt lat="43.31304" lon="5.68063">
        <ele>749</ele>
        <time>2019-11-29T08:51:06.000Z</time>
      </trkpt>
      <trkpt lat="43.31304" lon="5.68062">
        <ele>749</ele>
        <time>2019-11-29T08:51:07.000Z</time>
      </trkpt>
      <trkpt lat="43.31304" lon="5.68062">
        <ele>749</ele>
        <time>2019-11-29T08:51:08.000Z</time>
      </trkpt>
      <trkpt lat="43.31304" lon="5.68063">
        <ele>749</ele>
        <time>2019-11-29T08:51:09.000Z</time>
      </trkpt>
      <trkpt lat="43.31304" lon="5.68063">
        <ele>749</ele>
        <time>2019-11-29T08:51:10.000Z</time>
      </trkpt>
      <trkpt lat="43.31304" lon="5.68063">
        <ele>749</ele>
        <time>2019-11-29T08:51:11.000Z</time>
      </trkpt>
      <trkpt lat="43.31304" lon="5.68063">
        <ele>749</ele>
        <time>2019-11-29T08:51:12.000Z</time>
      </trkpt>
      <trkpt lat="43.31304" lon="5.68063">
        <ele>749</ele>
        <time>2019-11-29T08:51:13.000Z</time>
      </trkpt>
      <trkpt lat="43.31304" lon="5.68063">
        <ele>749</ele>
        <time>2019-11-29T08:51:14.000Z</time>
      </trkpt>
      <trkpt lat="43.31304" lon="5.68063">
        <ele>749</ele>
        <time>2019-11-29T08:51:15.000Z</time>
      </trkpt>
      <trkpt lat="43.31304" lon="5.68063">
        <ele>749</ele>
        <time>2019-11-29T08:51:16.000Z</time>
      </trkpt>
      <trkpt lat="43.31304" lon="5.68062">
        <ele>749</ele>
        <time>2019-11-29T08:51:17.000Z</time>
      </trkpt>
      <trkpt lat="43.31305" lon="5.68062">
        <ele>749</ele>
        <time>2019-11-29T08:51:18.000Z</time>
      </trkpt>
      <trkpt lat="43.31305" lon="5.68062">
        <ele>749</ele>
        <time>2019-11-29T08:51:19.000Z</time>
      </trkpt>
      <trkpt lat="43.31305" lon="5.68062">
        <ele>750</ele>
        <time>2019-11-29T08:51:20.000Z</time>
      </trkpt>
      <trkpt lat="43.31305" lon="5.68062">
        <ele>750</ele>
        <time>2019-11-29T08:51:21.000Z</time>
      </trkpt>
      <trkpt lat="43.31305" lon="5.68062">
        <ele>750</ele>
        <time>2019-11-29T08:51:22.000Z</time>
      </trkpt>
      <trkpt lat="43.31305" lon="5.68062">
        <ele>750</ele>
        <time>2019-11-29T08:51:23.000Z</time>
      </trkpt>
      <trkpt lat="43.31305" lon="5.68063">
        <ele>750</ele>
        <time>2019-11-29T08:51:24.000Z</time>
      </trkpt>
      <trkpt lat="43.31305" lon="5.68063">
        <ele>750</ele>
        <time>2019-11-29T08:51:25.000Z</time>
      </trkpt>
      <trkpt lat="43.31305" lon="5.68063">
        <ele>750</ele>
        <time>2019-11-29T08:51:26.000Z</time>
      </trkpt>
      <trkpt lat="43.31305" lon="5.68063">
        <ele>750</ele>
        <time>2019-11-29T08:51:27.000Z</time>
      </trkpt>
      <trkpt lat="43.31305" lon="5.68063">
        <ele>750</ele>
        <time>2019-11-29T08:51:28.000Z</time>
      </trkpt>
      <trkpt lat="43.31305" lon="5.68063">
        <ele>750</ele>
        <time>2019-11-29T08:51:29.000Z</time>
      </trkpt>
      <trkpt lat="43.31305" lon="5.68064">
        <ele>750</ele>
        <time>2019-11-29T08:51:30.000Z</time>
      </trkpt>
      <trkpt lat="43.31305" lon="5.68064">
        <ele>750</ele>
        <time>2019-11-29T08:51:31.000Z</time>
      </trkpt>
      <trkpt lat="43.31305" lon="5.68064">
        <ele>750</ele>
        <time>2019-11-29T08:51:32.000Z</time>
      </trkpt>
      <trkpt lat="43.31305" lon="5.68065">
        <ele>750</ele>
        <time>2019-11-29T08:51:33.000Z</time>
      </trkpt>
      <trkpt lat="43.31305" lon="5.68065">
        <ele>750</ele>
        <time>2019-11-29T08:51:34.000Z</time>
      </trkpt>
      <trkpt lat="43.31305" lon="5.68065">
        <ele>750</ele>
        <time>2019-11-29T08:51:35.000Z</time>
      </trkpt>
      <trkpt lat="43.31305" lon="5.68065">
        <ele>750</ele>
        <time>2019-11-29T08:51:36.000Z</time>
      </trkpt>
      <trkpt lat="43.31305" lon="5.68065">
        <ele>750</ele>
        <time>2019-11-29T08:51:37.000Z</time>
      </trkpt>
      <trkpt lat="43.31305" lon="5.68065">
        <ele>750</ele>
        <time>2019-11-29T08:51:38.000Z</time>
      </trkpt>
      <trkpt lat="43.31305" lon="5.68065">
        <ele>750</ele>
        <time>2019-11-29T08:51:39.000Z</time>
      </trkpt>
      <trkpt lat="43.31305" lon="5.68065">
        <ele>750</ele>
        <time>2019-11-29T08:51:40.000Z</time>
      </trkpt>
      <trkpt lat="43.31304" lon="5.68065">
        <ele>750</ele>
        <time>2019-11-29T08:51:41.000Z</time>
      </trkpt>
      <trkpt lat="43.31304" lon="5.68065">
        <ele>750</ele>
        <time>2019-11-29T08:51:42.000Z</time>
      </trkpt>
      <trkpt lat="43.31304" lon="5.68065">
        <ele>750</ele>
        <time>2019-11-29T08:51:43.000Z</time>
      </trkpt>
      <trkpt lat="43.31304" lon="5.68064">
        <ele>750</ele>
        <time>2019-11-29T08:51:44.000Z</time>
      </trkpt>
      <trkpt lat="43.31304" lon="5.68064">
        <ele>750</ele>
        <time>2019-11-29T08:51:45.000Z</time>
      </trkpt>
      <trkpt lat="43.31304" lon="5.68064">
        <ele>750</ele>
        <time>2019-11-29T08:51:46.000Z</time>
      </trkpt>
      <trkpt lat="43.31304" lon="5.68064">
        <ele>750</ele>
        <time>2019-11-29T08:51:47.000Z</time>
      </trkpt>
      <trkpt lat="43.31304" lon="5.68063">
        <ele>750</ele>
        <time>2019-11-29T08:51:48.000Z</time>
      </trkpt>
      <trkpt lat="43.31304" lon="5.68063">
        <ele>750</ele>
        <time>2019-11-29T08:51:49.000Z</time>
      </trkpt>
      <trkpt lat="43.31304" lon="5.68063">
        <ele>750</ele>
        <time>2019-11-29T08:51:50.000Z</time>
      </trkpt>
      <trkpt lat="43.31304" lon="5.68063">
        <ele>750</ele>
        <time>2019-11-29T08:51:51.000Z</time>
      </trkpt>
      <trkpt lat="43.31304" lon="5.68063">
        <ele>750</ele>
        <time>2019-11-29T08:51:52.000Z</time>
      </trkpt>
      <trkpt lat="43.31304" lon="5.68064">
        <ele>750</ele>
        <time>2019-11-29T08:51:53.000Z</time>
      </trkpt>
      <trkpt lat="43.31304" lon="5.68064">
        <ele>750</ele>
        <time>2019-11-29T08:51:54.000Z</time>
      </trkpt>
      <trkpt lat="43.31304" lon="5.68064">
        <ele>750</ele>
        <time>2019-11-29T08:51:55.000Z</time>
      </trkpt>
      <trkpt lat="43.31304" lon="5.68064">
        <ele>750</ele>
        <time>2019-11-29T08:51:56.000Z</time>
      </trkpt>
      <trkpt lat="43.31304" lon="5.68064">
        <ele>750</ele>
        <time>2019-11-29T08:51:57.000Z</time>
      </trkpt>
      <trkpt lat="43.31304" lon="5.68064">
        <ele>750</ele>
        <time>2019-11-29T08:51:58.000Z</time>
      </trkpt>
      <trkpt lat="43.31304" lon="5.68064">
        <ele>750</ele>
        <time>2019-11-29T08:51:59.000Z</time>
      </trkpt>
      <trkpt lat="43.31304" lon="5.68064">
        <ele>750</ele>
        <time>2019-11-29T08:52:00.000Z</time>
      </trkpt>
      <trkpt lat="43.31303" lon="5.68064">
        <ele>750</ele>
        <time>2019-11-29T08:52:01.000Z</time>
      </trkpt>
      <trkpt lat="43.31303" lon="5.68064">
        <ele>750</ele>
        <time>2019-11-29T08:52:02.000Z</time>
      </trkpt>
      <trkpt lat="43.31303" lon="5.68064">
        <ele>750</ele>
        <time>2019-11-29T08:52:03.000Z</time>
      </trkpt>
      <trkpt lat="43.31303" lon="5.68064">
        <ele>750</ele>
        <time>2019-11-29T08:52:04.000Z</time>
      </trkpt>
      <trkpt lat="43.31303" lon="5.68063">
        <ele>750</ele>
        <time>2019-11-29T08:52:05.000Z</time>
      </trkpt>
      <trkpt lat="43.31304" lon="5.68063">
        <ele>750</ele>
        <time>2019-11-29T08:52:06.000Z</time>
      </trkpt>
      <trkpt lat="43.31304" lon="5.68063">
        <ele>750</ele>
        <time>2019-11-29T08:52:07.000Z</time>
      </trkpt>
      <trkpt lat="43.31304" lon="5.68062">
        <ele>749</ele>
        <time>2019-11-29T08:52:08.000Z</time>
      </trkpt>
      <trkpt lat="43.31304" lon="5.68062">
        <ele>749</ele>
        <time>2019-11-29T08:52:09.000Z</time>
      </trkpt>
      <trkpt lat="43.31304" lon="5.68062">
        <ele>749</ele>
        <time>2019-11-29T08:52:10.000Z</time>
      </trkpt>
      <trkpt lat="43.31304" lon="5.68062">
        <ele>749</ele>
        <time>2019-11-29T08:52:11.000Z</time>
      </trkpt>
      <trkpt lat="43.31304" lon="5.68061">
        <ele>749</ele>
        <time>2019-11-29T08:52:12.000Z</time>
      </trkpt>
      <trkpt lat="43.31304" lon="5.68061">
        <ele>749</ele>
        <time>2019-11-29T08:52:13.000Z</time>
      </trkpt>
      <trkpt lat="43.31304" lon="5.68061">
        <ele>749</ele>
        <time>2019-11-29T08:52:14.000Z</time>
      </trkpt>
      <trkpt lat="43.31304" lon="5.68061">
        <ele>749</ele>
        <time>2019-11-29T08:52:15.000Z</time>
      </trkpt>
      <trkpt lat="43.31304" lon="5.68061">
        <ele>750</ele>
        <time>2019-11-29T08:52:16.000Z</time>
      </trkpt>
      <trkpt lat="43.31304" lon="5.68061">
        <ele>750</ele>
        <time>2019-11-29T08:52:17.000Z</time>
      </trkpt>
      <trkpt lat="43.31304" lon="5.68061">
        <ele>750</ele>
        <time>2019-11-29T08:52:18.000Z</time>
      </trkpt>
      <trkpt lat="43.31304" lon="5.68061">
        <ele>750</ele>
        <time>2019-11-29T08:52:19.000Z</time>
      </trkpt>
      <trkpt lat="43.31304" lon="5.6806">
        <ele>750</ele>
        <time>2019-11-29T08:52:20.000Z</time>
      </trkpt>
      <trkpt lat="43.31304" lon="5.6806">
        <ele>750</ele>
        <time>2019-11-29T08:52:21.000Z</time>
      </trkpt>
      <trkpt lat="43.31303" lon="5.6806">
        <ele>750</ele>
        <time>2019-11-29T08:52:22.000Z</time>
      </trkpt>
      <trkpt lat="43.31303" lon="5.68059">
        <ele>750</ele>
        <time>2019-11-29T08:52:23.000Z</time>
      </trkpt>
      <trkpt lat="43.31303" lon="5.68059">
        <ele>750</ele>
        <time>2019-11-29T08:52:24.000Z</time>
      </trkpt>
      <trkpt lat="43.31303" lon="5.68059">
        <ele>750</ele>
        <time>2019-11-29T08:52:25.000Z</time>
      </trkpt>
      <trkpt lat="43.31303" lon="5.68059">
        <ele>750</ele>
        <time>2019-11-29T08:52:26.000Z</time>
      </trkpt>
      <trkpt lat="43.31303" lon="5.68058">
        <ele>750</ele>
        <time>2019-11-29T08:52:27.000Z</time>
      </trkpt>
      <trkpt lat="43.31303" lon="5.68058">
        <ele>750</ele>
        <time>2019-11-29T08:52:28.000Z</time>
      </trkpt>
      <trkpt lat="43.31303" lon="5.68058">
        <ele>750</ele>
        <time>2019-11-29T08:52:29.000Z</time>
      </trkpt>
      <trkpt lat="43.31303" lon="5.68058">
        <ele>750</ele>
        <time>2019-11-29T08:52:30.000Z</time>
      </trkpt>
      <trkpt lat="43.31303" lon="5.68058">
        <ele>750</ele>
        <time>2019-11-29T08:52:31.000Z</time>
      </trkpt>
      <trkpt lat="43.31304" lon="5.68058">
        <ele>750</ele>
        <time>2019-11-29T08:52:32.000Z</time>
      </trkpt>
      <trkpt lat="43.31304" lon="5.68058">
        <ele>750</ele>
        <time>2019-11-29T08:52:33.000Z</time>
      </trkpt>
      <trkpt lat="43.31304" lon="5.68058">
        <ele>750</ele>
        <time>2019-11-29T08:52:34.000Z</time>
      </trkpt>
      <trkpt lat="43.31304" lon="5.68058">
        <ele>750</ele>
        <time>2019-11-29T08:52:35.000Z</time>
      </trkpt>
      <trkpt lat="43.31304" lon="5.68058">
        <ele>750</ele>
        <time>2019-11-29T08:52:36.000Z</time>
      </trkpt>
      <trkpt lat="43.31304" lon="5.68058">
        <ele>749</ele>
        <time>2019-11-29T08:52:37.000Z</time>
      </trkpt>
      <trkpt lat="43.31304" lon="5.68058">
        <ele>749</ele>
        <time>2019-11-29T08:52:38.000Z</time>
      </trkpt>
      <trkpt lat="43.31304" lon="5.68058">
        <ele>749</ele>
        <time>2019-11-29T08:52:39.000Z</time>
      </trkpt>
      <trkpt lat="43.31304" lon="5.68059">
        <ele>749</ele>
        <time>2019-11-29T08:52:40.000Z</time>
      </trkpt>
      <trkpt lat="43.31304" lon="5.68059">
        <ele>749</ele>
        <time>2019-11-29T08:52:41.000Z</time>
      </trkpt>
      <trkpt lat="43.31304" lon="5.68059">
        <ele>749</ele>
        <time>2019-11-29T08:52:42.000Z</time>
      </trkpt>
      <trkpt lat="43.31304" lon="5.68059">
        <ele>749</ele>
        <time>2019-11-29T08:52:43.000Z</time>
      </trkpt>
      <trkpt lat="43.31304" lon="5.68059">
        <ele>749</ele>
        <time>2019-11-29T08:52:44.000Z</time>
      </trkpt>
      <trkpt lat="43.31304" lon="5.68059">
        <ele>749</ele>
        <time>2019-11-29T08:52:45.000Z</time>
      </trkpt>
      <trkpt lat="43.31304" lon="5.68059">
        <ele>749</ele>
        <time>2019-11-29T08:52:46.000Z</time>
      </trkpt>
      <trkpt lat="43.31304" lon="5.68059">
        <ele>749</ele>
        <time>2019-11-29T08:52:47.000Z</time>
      </trkpt>
      <trkpt lat="43.31304" lon="5.68059">
        <ele>749</ele>
        <time>2019-11-29T08:52:48.000Z</time>
      </trkpt>
      <trkpt lat="43.31304" lon="5.6806">
        <ele>749</ele>
        <time>2019-11-29T08:52:49.000Z</time>
      </trkpt>
      <trkpt lat="43.31304" lon="5.6806">
        <ele>749</ele>
        <time>2019-11-29T08:52:50.000Z</time>
      </trkpt>
      <trkpt lat="43.31304" lon="5.6806">
        <ele>749</ele>
        <time>2019-11-29T08:52:51.000Z</time>
      </trkpt>
      <trkpt lat="43.31304" lon="5.6806">
        <ele>749</ele>
        <time>2019-11-29T08:52:52.000Z</time>
      </trkpt>
      <trkpt lat="43.31304" lon="5.6806">
        <ele>749</ele>
        <time>2019-11-29T08:52:53.000Z</time>
      </trkpt>
      <trkpt lat="43.31304" lon="5.6806">
        <ele>749</ele>
        <time>2019-11-29T08:52:54.000Z</time>
      </trkpt>
      <trkpt lat="43.31304" lon="5.6806">
        <ele>749</ele>
        <time>2019-11-29T08:52:55.000Z</time>
      </trkpt>
      <trkpt lat="43.31304" lon="5.68061">
        <ele>749</ele>
        <time>2019-11-29T08:52:56.000Z</time>
      </trkpt>
      <trkpt lat="43.31304" lon="5.68061">
        <ele>749</ele>
        <time>2019-11-29T08:52:57.000Z</time>
      </trkpt>
      <trkpt lat="43.31304" lon="5.68061">
        <ele>749</ele>
        <time>2019-11-29T08:52:58.000Z</time>
      </trkpt>
      <trkpt lat="43.31304" lon="5.6806">
        <ele>749</ele>
        <time>2019-11-29T08:52:59.000Z</time>
      </trkpt>
      <trkpt lat="43.31304" lon="5.6806">
        <ele>749</ele>
        <time>2019-11-29T08:53:00.000Z</time>
      </trkpt>
      <trkpt lat="43.31304" lon="5.6806">
        <ele>749</ele>
        <time>2019-11-29T08:53:01.000Z</time>
      </trkpt>
      <trkpt lat="43.31304" lon="5.6806">
        <ele>749</ele>
        <time>2019-11-29T08:53:02.000Z</time>
      </trkpt>
      <trkpt lat="43.31304" lon="5.68059">
        <ele>749</ele>
        <time>2019-11-29T08:53:03.000Z</time>
      </trkpt>
      <trkpt lat="43.31304" lon="5.68059">
        <ele>749</ele>
        <time>2019-11-29T08:53:04.000Z</time>
      </trkpt>
      <trkpt lat="43.31304" lon="5.68059">
        <ele>749</ele>
        <time>2019-11-29T08:53:05.000Z</time>
      </trkpt>
      <trkpt lat="43.31304" lon="5.68059">
        <ele>749</ele>
        <time>2019-11-29T08:53:06.000Z</time>
      </trkpt>
      <trkpt lat="43.31304" lon="5.68059">
        <ele>749</ele>
        <time>2019-11-29T08:53:07.000Z</time>
      </trkpt>
      <trkpt lat="43.31304" lon="5.6806">
        <ele>749</ele>
        <time>2019-11-29T08:53:08.000Z</time>
      </trkpt>
      <trkpt lat="43.31305" lon="5.68059">
        <ele>749</ele>
        <time>2019-11-29T08:53:09.000Z</time>
      </trkpt>
      <trkpt lat="43.31304" lon="5.6806">
        <ele>749</ele>
        <time>2019-11-29T08:53:10.000Z</time>
      </trkpt>
      <trkpt lat="43.31304" lon="5.6806">
        <ele>749</ele>
        <time>2019-11-29T08:53:11.000Z</time>
      </trkpt>
      <trkpt lat="43.31304" lon="5.6806">
        <ele>749</ele>
        <time>2019-11-29T08:53:12.000Z</time>
      </trkpt>
      <trkpt lat="43.31304" lon="5.6806">
        <ele>749</ele>
        <time>2019-11-29T08:53:13.000Z</time>
      </trkpt>
      <trkpt lat="43.31304" lon="5.68059">
        <ele>749</ele>
        <time>2019-11-29T08:53:14.000Z</time>
      </trkpt>
      <trkpt lat="43.31304" lon="5.68059">
        <ele>749</ele>
        <time>2019-11-29T08:53:15.000Z</time>
      </trkpt>
      <trkpt lat="43.31304" lon="5.68059">
        <ele>749</ele>
        <time>2019-11-29T08:53:16.000Z</time>
      </trkpt>
      <trkpt lat="43.31304" lon="5.68059">
        <ele>749</ele>
        <time>2019-11-29T08:53:17.000Z</time>
      </trkpt>
      <trkpt lat="43.31304" lon="5.68059">
        <ele>749</ele>
        <time>2019-11-29T08:53:18.000Z</time>
      </trkpt>
      <trkpt lat="43.31304" lon="5.68059">
        <ele>749</ele>
        <time>2019-11-29T08:53:19.000Z</time>
      </trkpt>
      <trkpt lat="43.31304" lon="5.68059">
        <ele>749</ele>
        <time>2019-11-29T08:53:20.000Z</time>
      </trkpt>
      <trkpt lat="43.31304" lon="5.6806">
        <ele>749</ele>
        <time>2019-11-29T08:53:21.000Z</time>
      </trkpt>
      <trkpt lat="43.31304" lon="5.6806">
        <ele>749</ele>
        <time>2019-11-29T08:53:22.000Z</time>
      </trkpt>
      <trkpt lat="43.31304" lon="5.6806">
        <ele>749</ele>
        <time>2019-11-29T08:53:23.000Z</time>
      </trkpt>
      <trkpt lat="43.31304" lon="5.6806">
        <ele>749</ele>
        <time>2019-11-29T08:53:24.000Z</time>
      </trkpt>
      <trkpt lat="43.31304" lon="5.6806">
        <ele>749</ele>
        <time>2019-11-29T08:53:25.000Z</time>
      </trkpt>
      <trkpt lat="43.31304" lon="5.6806">
        <ele>749</ele>
        <time>2019-11-29T08:53:26.000Z</time>
      </trkpt>
      <trkpt lat="43.31304" lon="5.6806">
        <ele>749</ele>
        <time>2019-11-29T08:53:27.000Z</time>
      </trkpt>
      <trkpt lat="43.31304" lon="5.6806">
        <ele>749</ele>
        <time>2019-11-29T08:53:28.000Z</time>
      </trkpt>
      <trkpt lat="43.31304" lon="5.6806">
        <ele>749</ele>
        <time>2019-11-29T08:53:29.000Z</time>
      </trkpt>
      <trkpt lat="43.31304" lon="5.6806">
        <ele>749</ele>
        <time>2019-11-29T08:53:30.000Z</time>
      </trkpt>
      <trkpt lat="43.31304" lon="5.6806">
        <ele>749</ele>
        <time>2019-11-29T08:53:31.000Z</time>
      </trkpt>
      <trkpt lat="43.31304" lon="5.6806">
        <ele>749</ele>
        <time>2019-11-29T08:53:32.000Z</time>
      </trkpt>
      <trkpt lat="43.31304" lon="5.6806">
        <ele>749</ele>
        <time>2019-11-29T08:53:33.000Z</time>
      </trkpt>
      <trkpt lat="43.31304" lon="5.6806">
        <ele>749</ele>
        <time>2019-11-29T08:53:34.000Z</time>
      </trkpt>
      <trkpt lat="43.31304" lon="5.68061">
        <ele>749</ele>
        <time>2019-11-29T08:53:35.000Z</time>
      </trkpt>
      <trkpt lat="43.31304" lon="5.68061">
        <ele>749</ele>
        <time>2019-11-29T08:53:36.000Z</time>
      </trkpt>
      <trkpt lat="43.31304" lon="5.68061">
        <ele>749</ele>
        <time>2019-11-29T08:53:37.000Z</time>
      </trkpt>
      <trkpt lat="43.31304" lon="5.68061">
        <ele>749</ele>
        <time>2019-11-29T08:53:38.000Z</time>
      </trkpt>
      <trkpt lat="43.31304" lon="5.68061">
        <ele>749</ele>
        <time>2019-11-29T08:53:39.000Z</time>
      </trkpt>
      <trkpt lat="43.31304" lon="5.68062">
        <ele>749</ele>
        <time>2019-11-29T08:53:40.000Z</time>
      </trkpt>
      <trkpt lat="43.31304" lon="5.68063">
        <ele>749</ele>
        <time>2019-11-29T08:53:41.000Z</time>
      </trkpt>
      <trkpt lat="43.31304" lon="5.68063">
        <ele>749</ele>
        <time>2019-11-29T08:53:42.000Z</time>
      </trkpt>
      <trkpt lat="43.31304" lon="5.68063">
        <ele>749</ele>
        <time>2019-11-29T08:53:43.000Z</time>
      </trkpt>
      <trkpt lat="43.31304" lon="5.68063">
        <ele>749</ele>
        <time>2019-11-29T08:53:44.000Z</time>
      </trkpt>
      <trkpt lat="43.31304" lon="5.68064">
        <ele>749</ele>
        <time>2019-11-29T08:53:45.000Z</time>
      </trkpt>
      <trkpt lat="43.31304" lon="5.68064">
        <ele>748</ele>
        <time>2019-11-29T08:53:46.000Z</time>
      </trkpt>
      <trkpt lat="43.31304" lon="5.68065">
        <ele>748</ele>
        <time>2019-11-29T08:53:47.000Z</time>
      </trkpt>
      <trkpt lat="43.31304" lon="5.68065">
        <ele>748</ele>
        <time>2019-11-29T08:53:48.000Z</time>
      </trkpt>
      <trkpt lat="43.31305" lon="5.68066">
        <ele>748</ele>
        <time>2019-11-29T08:53:49.000Z</time>
      </trkpt>
      <trkpt lat="43.31305" lon="5.68067">
        <ele>748</ele>
        <time>2019-11-29T08:53:50.000Z</time>
      </trkpt>
      <trkpt lat="43.31305" lon="5.68068">
        <ele>748</ele>
        <time>2019-11-29T08:53:51.000Z</time>
      </trkpt>
      <trkpt lat="43.31304" lon="5.68069">
        <ele>748</ele>
        <time>2019-11-29T08:53:52.000Z</time>
      </trkpt>
      <trkpt lat="43.31304" lon="5.68071">
        <ele>748</ele>
        <time>2019-11-29T08:53:53.000Z</time>
      </trkpt>
      <trkpt lat="43.31304" lon="5.68072">
        <ele>748</ele>
        <time>2019-11-29T08:53:54.000Z</time>
      </trkpt>
      <trkpt lat="43.31304" lon="5.68073">
        <ele>748</ele>
        <time>2019-11-29T08:53:55.000Z</time>
      </trkpt>
      <trkpt lat="43.31303" lon="5.68074">
        <ele>748</ele>
        <time>2019-11-29T08:53:56.000Z</time>
      </trkpt>
      <trkpt lat="43.31303" lon="5.68075">
        <ele>748</ele>
        <time>2019-11-29T08:53:57.000Z</time>
      </trkpt>
      <trkpt lat="43.31303" lon="5.68076">
        <ele>748</ele>
        <time>2019-11-29T08:53:58.000Z</time>
      </trkpt>
      <trkpt lat="43.31303" lon="5.68077">
        <ele>748</ele>
        <time>2019-11-29T08:53:59.000Z</time>
      </trkpt>
      <trkpt lat="43.31303" lon="5.68077">
        <ele>748</ele>
        <time>2019-11-29T08:54:00.000Z</time>
      </trkpt>
      <trkpt lat="43.31303" lon="5.68078">
        <ele>748</ele>
        <time>2019-11-29T08:54:01.000Z</time>
      </trkpt>
      <trkpt lat="43.31303" lon="5.68079">
        <ele>748</ele>
        <time>2019-11-29T08:54:02.000Z</time>
      </trkpt>
      <trkpt lat="43.31303" lon="5.68081">
        <ele>748</ele>
        <time>2019-11-29T08:54:03.000Z</time>
      </trkpt>
      <trkpt lat="43.31304" lon="5.68082">
        <ele>747</ele>
        <time>2019-11-29T08:54:04.000Z</time>
      </trkpt>
      <trkpt lat="43.31305" lon="5.68083">
        <ele>747</ele>
        <time>2019-11-29T08:54:05.000Z</time>
      </trkpt>
      <trkpt lat="43.31305" lon="5.68084">
        <ele>747</ele>
        <time>2019-11-29T08:54:06.000Z</time>
      </trkpt>
      <trkpt lat="43.31305" lon="5.68085">
        <ele>747</ele>
        <time>2019-11-29T08:54:07.000Z</time>
      </trkpt>
      <trkpt lat="43.31306" lon="5.68086">
        <ele>747</ele>
        <time>2019-11-29T08:54:08.000Z</time>
      </trkpt>
      <trkpt lat="43.31306" lon="5.68087">
        <ele>747</ele>
        <time>2019-11-29T08:54:09.000Z</time>
      </trkpt>
      <trkpt lat="43.31306" lon="5.68088">
        <ele>747</ele>
        <time>2019-11-29T08:54:10.000Z</time>
      </trkpt>
      <trkpt lat="43.31306" lon="5.68088">
        <ele>747</ele>
        <time>2019-11-29T08:54:11.000Z</time>
      </trkpt>
      <trkpt lat="43.31307" lon="5.68089">
        <ele>747</ele>
        <time>2019-11-29T08:54:12.000Z</time>
      </trkpt>
      <trkpt lat="43.31307" lon="5.68089">
        <ele>746</ele>
        <time>2019-11-29T08:54:13.000Z</time>
      </trkpt>
      <trkpt lat="43.31307" lon="5.6809">
        <ele>746</ele>
        <time>2019-11-29T08:54:14.000Z</time>
      </trkpt>
      <trkpt lat="43.31307" lon="5.6809">
        <ele>746</ele>
        <time>2019-11-29T08:54:15.000Z</time>
      </trkpt>
      <trkpt lat="43.31307" lon="5.68091">
        <ele>746</ele>
        <time>2019-11-29T08:54:16.000Z</time>
      </trkpt>
      <trkpt lat="43.31308" lon="5.68091">
        <ele>746</ele>
        <time>2019-11-29T08:54:17.000Z</time>
      </trkpt>
      <trkpt lat="43.31308" lon="5.68092">
        <ele>746</ele>
        <time>2019-11-29T08:54:18.000Z</time>
      </trkpt>
      <trkpt lat="43.31308" lon="5.68092">
        <ele>746</ele>
        <time>2019-11-29T08:54:19.000Z</time>
      </trkpt>
      <trkpt lat="43.31309" lon="5.68093">
        <ele>746</ele>
        <time>2019-11-29T08:54:20.000Z</time>
      </trkpt>
      <trkpt lat="43.31309" lon="5.68094">
        <ele>745</ele>
        <time>2019-11-29T08:54:21.000Z</time>
      </trkpt>
      <trkpt lat="43.31309" lon="5.68095">
        <ele>745</ele>
        <time>2019-11-29T08:54:22.000Z</time>
      </trkpt>
      <trkpt lat="43.31309" lon="5.68096">
        <ele>745</ele>
        <time>2019-11-29T08:54:23.000Z</time>
      </trkpt>
      <trkpt lat="43.31309" lon="5.68097">
        <ele>745</ele>
        <time>2019-11-29T08:54:24.000Z</time>
      </trkpt>
      <trkpt lat="43.31309" lon="5.68098">
        <ele>745</ele>
        <time>2019-11-29T08:54:25.000Z</time>
      </trkpt>
      <trkpt lat="43.31309" lon="5.68099">
        <ele>745</ele>
        <time>2019-11-29T08:54:26.000Z</time>
      </trkpt>
      <trkpt lat="43.31309" lon="5.681">
        <ele>745</ele>
        <time>2019-11-29T08:54:27.000Z</time>
      </trkpt>
      <trkpt lat="43.3131" lon="5.68101">
        <ele>745</ele>
        <time>2019-11-29T08:54:28.000Z</time>
      </trkpt>
      <trkpt lat="43.3131" lon="5.68102">
        <ele>745</ele>
        <time>2019-11-29T08:54:29.000Z</time>
      </trkpt>
      <trkpt lat="43.31311" lon="5.68103">
        <ele>745</ele>
        <time>2019-11-29T08:54:30.000Z</time>
      </trkpt>
      <trkpt lat="43.31311" lon="5.68104">
        <ele>745</ele>
        <time>2019-11-29T08:54:31.000Z</time>
      </trkpt>
      <trkpt lat="43.31311" lon="5.68105">
        <ele>745</ele>
        <time>2019-11-29T08:54:32.000Z</time>
      </trkpt>
      <trkpt lat="43.31311" lon="5.68106">
        <ele>745</ele>
        <time>2019-11-29T08:54:33.000Z</time>
      </trkpt>
      <trkpt lat="43.31312" lon="5.68107">
        <ele>745</ele>
        <time>2019-11-29T08:54:34.000Z</time>
      </trkpt>
      <trkpt lat="43.31313" lon="5.68108">
        <ele>744</ele>
        <time>2019-11-29T08:54:35.000Z</time>
      </trkpt>
      <trkpt lat="43.31314" lon="5.68108">
        <ele>744</ele>
        <time>2019-11-29T08:54:36.000Z</time>
      </trkpt>
      <trkpt lat="43.31314" lon="5.68109">
        <ele>744</ele>
        <time>2019-11-29T08:54:37.000Z</time>
      </trkpt>
      <trkpt lat="43.31315" lon="5.68109">
        <ele>744</ele>
        <time>2019-11-29T08:54:38.000Z</time>
      </trkpt>
      <trkpt lat="43.31316" lon="5.6811">
        <ele>744</ele>
        <time>2019-11-29T08:54:39.000Z</time>
      </trkpt>
      <trkpt lat="43.31316" lon="5.68111">
        <ele>744</ele>
        <time>2019-11-29T08:54:40.000Z</time>
      </trkpt>
      <trkpt lat="43.31317" lon="5.68112">
        <ele>744</ele>
        <time>2019-11-29T08:54:41.000Z</time>
      </trkpt>
      <trkpt lat="43.31317" lon="5.68112">
        <ele>744</ele>
        <time>2019-11-29T08:54:42.000Z</time>
      </trkpt>
      <trkpt lat="43.31317" lon="5.68113">
        <ele>744</ele>
        <time>2019-11-29T08:54:43.000Z</time>
      </trkpt>
      <trkpt lat="43.31318" lon="5.68114">
        <ele>744</ele>
        <time>2019-11-29T08:54:44.000Z</time>
      </trkpt>
      <trkpt lat="43.31318" lon="5.68115">
        <ele>744</ele>
        <time>2019-11-29T08:54:45.000Z</time>
      </trkpt>
      <trkpt lat="43.31318" lon="5.68116">
        <ele>744</ele>
        <time>2019-11-29T08:54:46.000Z</time>
      </trkpt>
      <trkpt lat="43.31319" lon="5.68117">
        <ele>744</ele>
        <time>2019-11-29T08:54:47.000Z</time>
      </trkpt>
      <trkpt lat="43.31319" lon="5.68118">
        <ele>744</ele>
        <time>2019-11-29T08:54:48.000Z</time>
      </trkpt>
      <trkpt lat="43.3132" lon="5.68118">
        <ele>744</ele>
        <time>2019-11-29T08:54:49.000Z</time>
      </trkpt>
      <trkpt lat="43.3132" lon="5.68119">
        <ele>744</ele>
        <time>2019-11-29T08:54:50.000Z</time>
      </trkpt>
      <trkpt lat="43.31321" lon="5.68119">
        <ele>744</ele>
        <time>2019-11-29T08:54:51.000Z</time>
      </trkpt>
      <trkpt lat="43.31321" lon="5.6812">
        <ele>744</ele>
        <time>2019-11-29T08:54:52.000Z</time>
      </trkpt>
      <trkpt lat="43.31322" lon="5.68121">
        <ele>744</ele>
        <time>2019-11-29T08:54:53.000Z</time>
      </trkpt>
      <trkpt lat="43.31322" lon="5.68122">
        <ele>744</ele>
        <time>2019-11-29T08:54:54.000Z</time>
      </trkpt>
      <trkpt lat="43.31323" lon="5.68122">
        <ele>743</ele>
        <time>2019-11-29T08:54:55.000Z</time>
      </trkpt>
      <trkpt lat="43.31324" lon="5.68123">
        <ele>743</ele>
        <time>2019-11-29T08:54:56.000Z</time>
      </trkpt>
      <trkpt lat="43.31325" lon="5.68123">
        <ele>743</ele>
        <time>2019-11-29T08:54:57.000Z</time>
      </trkpt>
      <trkpt lat="43.31326" lon="5.68124">
        <ele>743</ele>
        <time>2019-11-29T08:54:58.000Z</time>
      </trkpt>
      <trkpt lat="43.31326" lon="5.68125">
        <ele>743</ele>
        <time>2019-11-29T08:54:59.000Z</time>
      </trkpt>
      <trkpt lat="43.31327" lon="5.68126">
        <ele>743</ele>
        <time>2019-11-29T08:55:00.000Z</time>
      </trkpt>
      <trkpt lat="43.31328" lon="5.68127">
        <ele>742</ele>
        <time>2019-11-29T08:55:01.000Z</time>
      </trkpt>
      <trkpt lat="43.31328" lon="5.68127">
        <ele>742</ele>
        <time>2019-11-29T08:55:02.000Z</time>
      </trkpt>
      <trkpt lat="43.31329" lon="5.68128">
        <ele>742</ele>
        <time>2019-11-29T08:55:03.000Z</time>
      </trkpt>
      <trkpt lat="43.31329" lon="5.68128">
        <ele>742</ele>
        <time>2019-11-29T08:55:04.000Z</time>
      </trkpt>
      <trkpt lat="43.3133" lon="5.68129">
        <ele>742</ele>
        <time>2019-11-29T08:55:05.000Z</time>
      </trkpt>
      <trkpt lat="43.31331" lon="5.6813">
        <ele>742</ele>
        <time>2019-11-29T08:55:06.000Z</time>
      </trkpt>
      <trkpt lat="43.31331" lon="5.68131">
        <ele>742</ele>
        <time>2019-11-29T08:55:07.000Z</time>
      </trkpt>
      <trkpt lat="43.31332" lon="5.68132">
        <ele>742</ele>
        <time>2019-11-29T08:55:08.000Z</time>
      </trkpt>
      <trkpt lat="43.31332" lon="5.68132">
        <ele>742</ele>
        <time>2019-11-29T08:55:09.000Z</time>
      </trkpt>
      <trkpt lat="43.31333" lon="5.68133">
        <ele>742</ele>
        <time>2019-11-29T08:55:10.000Z</time>
      </trkpt>
      <trkpt lat="43.31333" lon="5.68134">
        <ele>742</ele>
        <time>2019-11-29T08:55:11.000Z</time>
      </trkpt>
      <trkpt lat="43.31334" lon="5.68134">
        <ele>742</ele>
        <time>2019-11-29T08:55:12.000Z</time>
      </trkpt>
      <trkpt lat="43.31334" lon="5.68134">
        <ele>742</ele>
        <time>2019-11-29T08:55:13.000Z</time>
      </trkpt>
      <trkpt lat="43.31335" lon="5.68135">
        <ele>742</ele>
        <time>2019-11-29T08:55:14.000Z</time>
      </trkpt>
      <trkpt lat="43.31336" lon="5.68135">
        <ele>742</ele>
        <time>2019-11-29T08:55:15.000Z</time>
      </trkpt>
      <trkpt lat="43.31337" lon="5.68136">
        <ele>742</ele>
        <time>2019-11-29T08:55:16.000Z</time>
      </trkpt>
      <trkpt lat="43.31338" lon="5.68136">
        <ele>742</ele>
        <time>2019-11-29T08:55:17.000Z</time>
      </trkpt>
      <trkpt lat="43.31339" lon="5.68136">
        <ele>742</ele>
        <time>2019-11-29T08:55:18.000Z</time>
      </trkpt>
      <trkpt lat="43.3134" lon="5.68136">
        <ele>742</ele>
        <time>2019-11-29T08:55:19.000Z</time>
      </trkpt>
      <trkpt lat="43.31341" lon="5.68137">
        <ele>742</ele>
        <time>2019-11-29T08:55:20.000Z</time>
      </trkpt>
      <trkpt lat="43.31341" lon="5.68137">
        <ele>742</ele>
        <time>2019-11-29T08:55:21.000Z</time>
      </trkpt>
      <trkpt lat="43.31342" lon="5.68137">
        <ele>742</ele>
        <time>2019-11-29T08:55:22.000Z</time>
      </trkpt>
      <trkpt lat="43.31343" lon="5.68137">
        <ele>742</ele>
        <time>2019-11-29T08:55:23.000Z</time>
      </trkpt>
      <trkpt lat="43.31344" lon="5.68138">
        <ele>742</ele>
        <time>2019-11-29T08:55:24.000Z</time>
      </trkpt>
      <trkpt lat="43.31344" lon="5.68139">
        <ele>742</ele>
        <time>2019-11-29T08:55:25.000Z</time>
      </trkpt>
      <trkpt lat="43.31345" lon="5.68139">
        <ele>742</ele>
        <time>2019-11-29T08:55:26.000Z</time>
      </trkpt>
      <trkpt lat="43.31346" lon="5.6814">
        <ele>742</ele>
        <time>2019-11-29T08:55:27.000Z</time>
      </trkpt>
      <trkpt lat="43.31346" lon="5.68141">
        <ele>743</ele>
        <time>2019-11-29T08:55:28.000Z</time>
      </trkpt>
      <trkpt lat="43.31347" lon="5.68142">
        <ele>743</ele>
        <time>2019-11-29T08:55:29.000Z</time>
      </trkpt>
      <trkpt lat="43.31347" lon="5.68143">
        <ele>743</ele>
        <time>2019-11-29T08:55:30.000Z</time>
      </trkpt>
      <trkpt lat="43.31348" lon="5.68143">
        <ele>743</ele>
        <time>2019-11-29T08:55:31.000Z</time>
      </trkpt>
      <trkpt lat="43.31348" lon="5.68144">
        <ele>743</ele>
        <time>2019-11-29T08:55:32.000Z</time>
      </trkpt>
      <trkpt lat="43.31349" lon="5.68145">
        <ele>743</ele>
        <time>2019-11-29T08:55:33.000Z</time>
      </trkpt>
      <trkpt lat="43.3135" lon="5.68145">
        <ele>743</ele>
        <time>2019-11-29T08:55:34.000Z</time>
      </trkpt>
      <trkpt lat="43.31351" lon="5.68145">
        <ele>743</ele>
        <time>2019-11-29T08:55:35.000Z</time>
      </trkpt>
      <trkpt lat="43.31352" lon="5.68146">
        <ele>743</ele>
        <time>2019-11-29T08:55:36.000Z</time>
      </trkpt>
      <trkpt lat="43.31353" lon="5.68146">
        <ele>743</ele>
        <time>2019-11-29T08:55:37.000Z</time>
      </trkpt>
      <trkpt lat="43.31353" lon="5.68146">
        <ele>743</ele>
        <time>2019-11-29T08:55:38.000Z</time>
      </trkpt>
      <trkpt lat="43.31353" lon="5.68146">
        <ele>743</ele>
        <time>2019-11-29T08:55:39.000Z</time>
      </trkpt>
      <trkpt lat="43.31354" lon="5.68146">
        <ele>743</ele>
        <time>2019-11-29T08:55:40.000Z</time>
      </trkpt>
      <trkpt lat="43.31355" lon="5.68146">
        <ele>743</ele>
        <time>2019-11-29T08:55:41.000Z</time>
      </trkpt>
      <trkpt lat="43.31355" lon="5.68146">
        <ele>743</ele>
        <time>2019-11-29T08:55:42.000Z</time>
      </trkpt>
      <trkpt lat="43.31356" lon="5.68146">
        <ele>744</ele>
        <time>2019-11-29T08:55:43.000Z</time>
      </trkpt>
      <trkpt lat="43.31356" lon="5.68147">
        <ele>744</ele>
        <time>2019-11-29T08:55:44.000Z</time>
      </trkpt>
      <trkpt lat="43.31357" lon="5.68147">
        <ele>744</ele>
        <time>2019-11-29T08:55:45.000Z</time>
      </trkpt>
      <trkpt lat="43.31358" lon="5.68147">
        <ele>744</ele>
        <time>2019-11-29T08:55:46.000Z</time>
      </trkpt>
      <trkpt lat="43.31359" lon="5.68148">
        <ele>744</ele>
        <time>2019-11-29T08:55:47.000Z</time>
      </trkpt>
      <trkpt lat="43.31359" lon="5.68148">
        <ele>744</ele>
        <time>2019-11-29T08:55:48.000Z</time>
      </trkpt>
      <trkpt lat="43.3136" lon="5.68148">
        <ele>745</ele>
        <time>2019-11-29T08:55:49.000Z</time>
      </trkpt>
      <trkpt lat="43.3136" lon="5.68148">
        <ele>745</ele>
        <time>2019-11-29T08:55:50.000Z</time>
      </trkpt>
      <trkpt lat="43.31361" lon="5.68149">
        <ele>745</ele>
        <time>2019-11-29T08:55:51.000Z</time>
      </trkpt>
      <trkpt lat="43.31362" lon="5.68149">
        <ele>745</ele>
        <time>2019-11-29T08:55:52.000Z</time>
      </trkpt>
      <trkpt lat="43.31362" lon="5.6815">
        <ele>745</ele>
        <time>2019-11-29T08:55:53.000Z</time>
      </trkpt>
      <trkpt lat="43.31363" lon="5.6815">
        <ele>745</ele>
        <time>2019-11-29T08:55:54.000Z</time>
      </trkpt>
      <trkpt lat="43.31364" lon="5.6815">
        <ele>746</ele>
        <time>2019-11-29T08:55:55.000Z</time>
      </trkpt>
      <trkpt lat="43.31364" lon="5.6815">
        <ele>746</ele>
        <time>2019-11-29T08:55:56.000Z</time>
      </trkpt>
      <trkpt lat="43.31365" lon="5.68151">
        <ele>746</ele>
        <time>2019-11-29T08:55:57.000Z</time>
      </trkpt>
      <trkpt lat="43.31366" lon="5.68151">
        <ele>746</ele>
        <time>2019-11-29T08:55:58.000Z</time>
      </trkpt>
      <trkpt lat="43.31367" lon="5.68151">
        <ele>746</ele>
        <time>2019-11-29T08:55:59.000Z</time>
      </trkpt>
      <trkpt lat="43.31368" lon="5.68151">
        <ele>746</ele>
        <time>2019-11-29T08:56:00.000Z</time>
      </trkpt>
      <trkpt lat="43.31368" lon="5.68151">
        <ele>746</ele>
        <time>2019-11-29T08:56:01.000Z</time>
      </trkpt>
      <trkpt lat="43.31369" lon="5.68151">
        <ele>747</ele>
        <time>2019-11-29T08:56:02.000Z</time>
      </trkpt>
      <trkpt lat="43.3137" lon="5.68151">
        <ele>747</ele>
        <time>2019-11-29T08:56:03.000Z</time>
      </trkpt>
      <trkpt lat="43.31371" lon="5.68152">
        <ele>747</ele>
        <time>2019-11-29T08:56:04.000Z</time>
      </trkpt>
      <trkpt lat="43.31371" lon="5.68152">
        <ele>747</ele>
        <time>2019-11-29T08:56:05.000Z</time>
      </trkpt>
      <trkpt lat="43.31372" lon="5.68153">
        <ele>747</ele>
        <time>2019-11-29T08:56:06.000Z</time>
      </trkpt>
      <trkpt lat="43.31373" lon="5.68154">
        <ele>747</ele>
        <time>2019-11-29T08:56:07.000Z</time>
      </trkpt>
      <trkpt lat="43.31373" lon="5.68155">
        <ele>747</ele>
        <time>2019-11-29T08:56:08.000Z</time>
      </trkpt>
      <trkpt lat="43.31374" lon="5.68155">
        <ele>747</ele>
        <time>2019-11-29T08:56:09.000Z</time>
      </trkpt>
      <trkpt lat="43.31374" lon="5.68156">
        <ele>747</ele>
        <time>2019-11-29T08:56:10.000Z</time>
      </trkpt>
      <trkpt lat="43.31375" lon="5.68157">
        <ele>747</ele>
        <time>2019-11-29T08:56:11.000Z</time>
      </trkpt>
      <trkpt lat="43.31375" lon="5.68157">
        <ele>747</ele>
        <time>2019-11-29T08:56:12.000Z</time>
      </trkpt>
      <trkpt lat="43.31376" lon="5.68158">
        <ele>747</ele>
        <time>2019-11-29T08:56:13.000Z</time>
      </trkpt>
      <trkpt lat="43.31376" lon="5.68159">
        <ele>748</ele>
        <time>2019-11-29T08:56:14.000Z</time>
      </trkpt>
      <trkpt lat="43.31376" lon="5.68159">
        <ele>748</ele>
        <time>2019-11-29T08:56:15.000Z</time>
      </trkpt>
      <trkpt lat="43.31377" lon="5.6816">
        <ele>748</ele>
        <time>2019-11-29T08:56:16.000Z</time>
      </trkpt>
      <trkpt lat="43.31377" lon="5.6816">
        <ele>748</ele>
        <time>2019-11-29T08:56:17.000Z</time>
      </trkpt>
      <trkpt lat="43.31378" lon="5.68161">
        <ele>748</ele>
        <time>2019-11-29T08:56:18.000Z</time>
      </trkpt>
      <trkpt lat="43.31379" lon="5.68161">
        <ele>748</ele>
        <time>2019-11-29T08:56:19.000Z</time>
      </trkpt>
      <trkpt lat="43.3138" lon="5.68161">
        <ele>748</ele>
        <time>2019-11-29T08:56:20.000Z</time>
      </trkpt>
      <trkpt lat="43.3138" lon="5.68161">
        <ele>748</ele>
        <time>2019-11-29T08:56:21.000Z</time>
      </trkpt>
      <trkpt lat="43.31381" lon="5.68162">
        <ele>748</ele>
        <time>2019-11-29T08:56:22.000Z</time>
      </trkpt>
      <trkpt lat="43.31381" lon="5.68162">
        <ele>748</ele>
        <time>2019-11-29T08:56:23.000Z</time>
      </trkpt>
      <trkpt lat="43.31382" lon="5.68163">
        <ele>748</ele>
        <time>2019-11-29T08:56:24.000Z</time>
      </trkpt>
      <trkpt lat="43.31383" lon="5.68164">
        <ele>748</ele>
        <time>2019-11-29T08:56:25.000Z</time>
      </trkpt>
      <trkpt lat="43.31383" lon="5.68165">
        <ele>748</ele>
        <time>2019-11-29T08:56:26.000Z</time>
      </trkpt>
      <trkpt lat="43.31384" lon="5.68166">
        <ele>748</ele>
        <time>2019-11-29T08:56:27.000Z</time>
      </trkpt>
      <trkpt lat="43.31384" lon="5.68166">
        <ele>748</ele>
        <time>2019-11-29T08:56:28.000Z</time>
      </trkpt>
      <trkpt lat="43.31385" lon="5.68167">
        <ele>748</ele>
        <time>2019-11-29T08:56:29.000Z</time>
      </trkpt>
      <trkpt lat="43.31385" lon="5.68167">
        <ele>748</ele>
        <time>2019-11-29T08:56:30.000Z</time>
      </trkpt>
      <trkpt lat="43.31386" lon="5.68168">
        <ele>748</ele>
        <time>2019-11-29T08:56:31.000Z</time>
      </trkpt>
      <trkpt lat="43.31386" lon="5.68168">
        <ele>749</ele>
        <time>2019-11-29T08:56:32.000Z</time>
      </trkpt>
      <trkpt lat="43.31387" lon="5.68169">
        <ele>749</ele>
        <time>2019-11-29T08:56:33.000Z</time>
      </trkpt>
      <trkpt lat="43.31387" lon="5.68169">
        <ele>749</ele>
        <time>2019-11-29T08:56:34.000Z</time>
      </trkpt>
      <trkpt lat="43.31388" lon="5.6817">
        <ele>749</ele>
        <time>2019-11-29T08:56:35.000Z</time>
      </trkpt>
      <trkpt lat="43.31389" lon="5.6817">
        <ele>749</ele>
        <time>2019-11-29T08:56:36.000Z</time>
      </trkpt>
      <trkpt lat="43.31389" lon="5.6817">
        <ele>750</ele>
        <time>2019-11-29T08:56:37.000Z</time>
      </trkpt>
      <trkpt lat="43.3139" lon="5.68171">
        <ele>750</ele>
        <time>2019-11-29T08:56:38.000Z</time>
      </trkpt>
      <trkpt lat="43.31391" lon="5.68171">
        <ele>750</ele>
        <time>2019-11-29T08:56:39.000Z</time>
      </trkpt>
      <trkpt lat="43.31391" lon="5.68171">
        <ele>750</ele>
        <time>2019-11-29T08:56:40.000Z</time>
      </trkpt>
      <trkpt lat="43.31392" lon="5.68172">
        <ele>750</ele>
        <time>2019-11-29T08:56:41.000Z</time>
      </trkpt>
      <trkpt lat="43.31392" lon="5.68172">
        <ele>751</ele>
        <time>2019-11-29T08:56:42.000Z</time>
      </trkpt>
      <trkpt lat="43.31393" lon="5.68173">
        <ele>751</ele>
        <time>2019-11-29T08:56:43.000Z</time>
      </trkpt>
      <trkpt lat="43.31393" lon="5.68174">
        <ele>751</ele>
        <time>2019-11-29T08:56:44.000Z</time>
      </trkpt>
      <trkpt lat="43.31393" lon="5.68174">
        <ele>751</ele>
        <time>2019-11-29T08:56:45.000Z</time>
      </trkpt>
      <trkpt lat="43.31393" lon="5.68175">
        <ele>751</ele>
        <time>2019-11-29T08:56:46.000Z</time>
      </trkpt>
      <trkpt lat="43.31394" lon="5.68176">
        <ele>751</ele>
        <time>2019-11-29T08:56:47.000Z</time>
      </trkpt>
      <trkpt lat="43.31394" lon="5.68176">
        <ele>752</ele>
        <time>2019-11-29T08:56:48.000Z</time>
      </trkpt>
      <trkpt lat="43.31394" lon="5.68177">
        <ele>752</ele>
        <time>2019-11-29T08:56:49.000Z</time>
      </trkpt>
      <trkpt lat="43.31394" lon="5.68178">
        <ele>752</ele>
        <time>2019-11-29T08:56:50.000Z</time>
      </trkpt>
      <trkpt lat="43.31394" lon="5.68178">
        <ele>752</ele>
        <time>2019-11-29T08:56:51.000Z</time>
      </trkpt>
      <trkpt lat="43.31394" lon="5.68179">
        <ele>752</ele>
        <time>2019-11-29T08:56:52.000Z</time>
      </trkpt>
      <trkpt lat="43.31394" lon="5.68179">
        <ele>752</ele>
        <time>2019-11-29T08:56:53.000Z</time>
      </trkpt>
      <trkpt lat="43.31394" lon="5.6818">
        <ele>752</ele>
        <time>2019-11-29T08:56:54.000Z</time>
      </trkpt>
      <trkpt lat="43.31394" lon="5.6818">
        <ele>752</ele>
        <time>2019-11-29T08:56:55.000Z</time>
      </trkpt>
      <trkpt lat="43.31395" lon="5.6818">
        <ele>753</ele>
        <time>2019-11-29T08:56:56.000Z</time>
      </trkpt>
      <trkpt lat="43.31395" lon="5.6818">
        <ele>753</ele>
        <time>2019-11-29T08:56:57.000Z</time>
      </trkpt>
      <trkpt lat="43.31395" lon="5.68181">
        <ele>753</ele>
        <time>2019-11-29T08:56:58.000Z</time>
      </trkpt>
      <trkpt lat="43.31396" lon="5.68181">
        <ele>753</ele>
        <time>2019-11-29T08:56:59.000Z</time>
      </trkpt>
      <trkpt lat="43.31396" lon="5.68181">
        <ele>753</ele>
        <time>2019-11-29T08:57:00.000Z</time>
      </trkpt>
      <trkpt lat="43.31396" lon="5.68181">
        <ele>753</ele>
        <time>2019-11-29T08:57:01.000Z</time>
      </trkpt>
      <trkpt lat="43.31396" lon="5.68182">
        <ele>753</ele>
        <time>2019-11-29T08:57:02.000Z</time>
      </trkpt>
      <trkpt lat="43.31397" lon="5.68182">
        <ele>753</ele>
        <time>2019-11-29T08:57:03.000Z</time>
      </trkpt>
      <trkpt lat="43.31397" lon="5.68182">
        <ele>754</ele>
        <time>2019-11-29T08:57:04.000Z</time>
      </trkpt>
      <trkpt lat="43.31397" lon="5.68182">
        <ele>754</ele>
        <time>2019-11-29T08:57:05.000Z</time>
      </trkpt>
      <trkpt lat="43.31398" lon="5.68181">
        <ele>754</ele>
        <time>2019-11-29T08:57:06.000Z</time>
      </trkpt>
      <trkpt lat="43.31398" lon="5.68181">
        <ele>754</ele>
        <time>2019-11-29T08:57:07.000Z</time>
      </trkpt>
      <trkpt lat="43.31399" lon="5.68181">
        <ele>754</ele>
        <time>2019-11-29T08:57:08.000Z</time>
      </trkpt>
      <trkpt lat="43.314" lon="5.68181">
        <ele>754</ele>
        <time>2019-11-29T08:57:09.000Z</time>
      </trkpt>
      <trkpt lat="43.31401" lon="5.68182">
        <ele>755</ele>
        <time>2019-11-29T08:57:10.000Z</time>
      </trkpt>
      <trkpt lat="43.31401" lon="5.68182">
        <ele>755</ele>
        <time>2019-11-29T08:57:11.000Z</time>
      </trkpt>
      <trkpt lat="43.31402" lon="5.68182">
        <ele>755</ele>
        <time>2019-11-29T08:57:12.000Z</time>
      </trkpt>
      <trkpt lat="43.31402" lon="5.68183">
        <ele>755</ele>
        <time>2019-11-29T08:57:13.000Z</time>
      </trkpt>
      <trkpt lat="43.31403" lon="5.68183">
        <ele>755</ele>
        <time>2019-11-29T08:57:14.000Z</time>
      </trkpt>
      <trkpt lat="43.31403" lon="5.68184">
        <ele>755</ele>
        <time>2019-11-29T08:57:15.000Z</time>
      </trkpt>
      <trkpt lat="43.31403" lon="5.68184">
        <ele>755</ele>
        <time>2019-11-29T08:57:16.000Z</time>
      </trkpt>
      <trkpt lat="43.31404" lon="5.68184">
        <ele>755</ele>
        <time>2019-11-29T08:57:17.000Z</time>
      </trkpt>
      <trkpt lat="43.31404" lon="5.68184">
        <ele>756</ele>
        <time>2019-11-29T08:57:18.000Z</time>
      </trkpt>
      <trkpt lat="43.31404" lon="5.68185">
        <ele>756</ele>
        <time>2019-11-29T08:57:19.000Z</time>
      </trkpt>
      <trkpt lat="43.31405" lon="5.68185">
        <ele>756</ele>
        <time>2019-11-29T08:57:20.000Z</time>
      </trkpt>
      <trkpt lat="43.31405" lon="5.68185">
        <ele>756</ele>
        <time>2019-11-29T08:57:21.000Z</time>
      </trkpt>
      <trkpt lat="43.31406" lon="5.68185">
        <ele>756</ele>
        <time>2019-11-29T08:57:22.000Z</time>
      </trkpt>
      <trkpt lat="43.31406" lon="5.68186">
        <ele>756</ele>
        <time>2019-11-29T08:57:23.000Z</time>
      </trkpt>
      <trkpt lat="43.31407" lon="5.68186">
        <ele>757</ele>
        <time>2019-11-29T08:57:24.000Z</time>
      </trkpt>
      <trkpt lat="43.31407" lon="5.68185">
        <ele>757</ele>
        <time>2019-11-29T08:57:25.000Z</time>
      </trkpt>
      <trkpt lat="43.31408" lon="5.68185">
        <ele>757</ele>
        <time>2019-11-29T08:57:26.000Z</time>
      </trkpt>
      <trkpt lat="43.31408" lon="5.68185">
        <ele>757</ele>
        <time>2019-11-29T08:57:27.000Z</time>
      </trkpt>
      <trkpt lat="43.31408" lon="5.68185">
        <ele>757</ele>
        <time>2019-11-29T08:57:28.000Z</time>
      </trkpt>
      <trkpt lat="43.31409" lon="5.68185">
        <ele>758</ele>
        <time>2019-11-29T08:57:29.000Z</time>
      </trkpt>
      <trkpt lat="43.31409" lon="5.68185">
        <ele>758</ele>
        <time>2019-11-29T08:57:30.000Z</time>
      </trkpt>
      <trkpt lat="43.31409" lon="5.68185">
        <ele>758</ele>
        <time>2019-11-29T08:57:31.000Z</time>
      </trkpt>
      <trkpt lat="43.3141" lon="5.68185">
        <ele>758</ele>
        <time>2019-11-29T08:57:32.000Z</time>
      </trkpt>
      <trkpt lat="43.3141" lon="5.68185">
        <ele>758</ele>
        <time>2019-11-29T08:57:33.000Z</time>
      </trkpt>
      <trkpt lat="43.31411" lon="5.68185">
        <ele>758</ele>
        <time>2019-11-29T08:57:34.000Z</time>
      </trkpt>
      <trkpt lat="43.31412" lon="5.68185">
        <ele>758</ele>
        <time>2019-11-29T08:57:35.000Z</time>
      </trkpt>
      <trkpt lat="43.31412" lon="5.68186">
        <ele>759</ele>
        <time>2019-11-29T08:57:36.000Z</time>
      </trkpt>
      <trkpt lat="43.31413" lon="5.68186">
        <ele>759</ele>
        <time>2019-11-29T08:57:37.000Z</time>
      </trkpt>
      <trkpt lat="43.31413" lon="5.68187">
        <ele>759</ele>
        <time>2019-11-29T08:57:38.000Z</time>
      </trkpt>
      <trkpt lat="43.31414" lon="5.68187">
        <ele>759</ele>
        <time>2019-11-29T08:57:39.000Z</time>
      </trkpt>
      <trkpt lat="43.31414" lon="5.68188">
        <ele>759</ele>
        <time>2019-11-29T08:57:40.000Z</time>
      </trkpt>
      <trkpt lat="43.31415" lon="5.68188">
        <ele>759</ele>
        <time>2019-11-29T08:57:41.000Z</time>
      </trkpt>
      <trkpt lat="43.31415" lon="5.68188">
        <ele>759</ele>
        <time>2019-11-29T08:57:42.000Z</time>
      </trkpt>
      <trkpt lat="43.31415" lon="5.68188">
        <ele>760</ele>
        <time>2019-11-29T08:57:43.000Z</time>
      </trkpt>
      <trkpt lat="43.31416" lon="5.68189">
        <ele>760</ele>
        <time>2019-11-29T08:57:44.000Z</time>
      </trkpt>
      <trkpt lat="43.31416" lon="5.68189">
        <ele>760</ele>
        <time>2019-11-29T08:57:45.000Z</time>
      </trkpt>
      <trkpt lat="43.31417" lon="5.6819">
        <ele>760</ele>
        <time>2019-11-29T08:57:46.000Z</time>
      </trkpt>
      <trkpt lat="43.31417" lon="5.6819">
        <ele>760</ele>
        <time>2019-11-29T08:57:47.000Z</time>
      </trkpt>
      <trkpt lat="43.31417" lon="5.68191">
        <ele>761</ele>
        <time>2019-11-29T08:57:48.000Z</time>
      </trkpt>
      <trkpt lat="43.31417" lon="5.68191">
        <ele>761</ele>
        <time>2019-11-29T08:57:49.000Z</time>
      </trkpt>
      <trkpt lat="43.31418" lon="5.68192">
        <ele>761</ele>
        <time>2019-11-29T08:57:50.000Z</time>
      </trkpt>
      <trkpt lat="43.31418" lon="5.68193">
        <ele>761</ele>
        <time>2019-11-29T08:57:51.000Z</time>
      </trkpt>
      <trkpt lat="43.31418" lon="5.68193">
        <ele>761</ele>
        <time>2019-11-29T08:57:52.000Z</time>
      </trkpt>
      <trkpt lat="43.31418" lon="5.68194">
        <ele>762</ele>
        <time>2019-11-29T08:57:53.000Z</time>
      </trkpt>
      <trkpt lat="43.31418" lon="5.68195">
        <ele>762</ele>
        <time>2019-11-29T08:57:54.000Z</time>
      </trkpt>
      <trkpt lat="43.31418" lon="5.68195">
        <ele>762</ele>
        <time>2019-11-29T08:57:55.000Z</time>
      </trkpt>
      <trkpt lat="43.31418" lon="5.68196">
        <ele>762</ele>
        <time>2019-11-29T08:57:56.000Z</time>
      </trkpt>
      <trkpt lat="43.31418" lon="5.68197">
        <ele>762</ele>
        <time>2019-11-29T08:57:57.000Z</time>
      </trkpt>
      <trkpt lat="43.31419" lon="5.68197">
        <ele>762</ele>
        <time>2019-11-29T08:57:58.000Z</time>
      </trkpt>
      <trkpt lat="43.31419" lon="5.68198">
        <ele>763</ele>
        <time>2019-11-29T08:57:59.000Z</time>
      </trkpt>
      <trkpt lat="43.31419" lon="5.68198">
        <ele>763</ele>
        <time>2019-11-29T08:58:00.000Z</time>
      </trkpt>
      <trkpt lat="43.3142" lon="5.68198">
        <ele>763</ele>
        <time>2019-11-29T08:58:01.000Z</time>
      </trkpt>
      <trkpt lat="43.3142" lon="5.68199">
        <ele>763</ele>
        <time>2019-11-29T08:58:02.000Z</time>
      </trkpt>
      <trkpt lat="43.3142" lon="5.68199">
        <ele>763</ele>
        <time>2019-11-29T08:58:03.000Z</time>
      </trkpt>
      <trkpt lat="43.31421" lon="5.68199">
        <ele>763</ele>
        <time>2019-11-29T08:58:04.000Z</time>
      </trkpt>
      <trkpt lat="43.31421" lon="5.682">
        <ele>763</ele>
        <time>2019-11-29T08:58:05.000Z</time>
      </trkpt>
      <trkpt lat="43.31421" lon="5.682">
        <ele>763</ele>
        <time>2019-11-29T08:58:06.000Z</time>
      </trkpt>
      <trkpt lat="43.31421" lon="5.68201">
        <ele>764</ele>
        <time>2019-11-29T08:58:07.000Z</time>
      </trkpt>
      <trkpt lat="43.31422" lon="5.68201">
        <ele>764</ele>
        <time>2019-11-29T08:58:08.000Z</time>
      </trkpt>
      <trkpt lat="43.31422" lon="5.68202">
        <ele>764</ele>
        <time>2019-11-29T08:58:09.000Z</time>
      </trkpt>
      <trkpt lat="43.31423" lon="5.68202">
        <ele>764</ele>
        <time>2019-11-29T08:58:10.000Z</time>
      </trkpt>
      <trkpt lat="43.31423" lon="5.68203">
        <ele>764</ele>
        <time>2019-11-29T08:58:11.000Z</time>
      </trkpt>
      <trkpt lat="43.31423" lon="5.68204">
        <ele>764</ele>
        <time>2019-11-29T08:58:12.000Z</time>
      </trkpt>
      <trkpt lat="43.31423" lon="5.68205">
        <ele>764</ele>
        <time>2019-11-29T08:58:13.000Z</time>
      </trkpt>
      <trkpt lat="43.31424" lon="5.68205">
        <ele>764</ele>
        <time>2019-11-29T08:58:14.000Z</time>
      </trkpt>
      <trkpt lat="43.31424" lon="5.68206">
        <ele>764</ele>
        <time>2019-11-29T08:58:15.000Z</time>
      </trkpt>
      <trkpt lat="43.31424" lon="5.68207">
        <ele>765</ele>
        <time>2019-11-29T08:58:16.000Z</time>
      </trkpt>
      <trkpt lat="43.31424" lon="5.68208">
        <ele>765</ele>
        <time>2019-11-29T08:58:17.000Z</time>
      </trkpt>
      <trkpt lat="43.31424" lon="5.68209">
        <ele>765</ele>
        <time>2019-11-29T08:58:18.000Z</time>
      </trkpt>
      <trkpt lat="43.31424" lon="5.6821">
        <ele>765</ele>
        <time>2019-11-29T08:58:19.000Z</time>
      </trkpt>
      <trkpt lat="43.31424" lon="5.68211">
        <ele>765</ele>
        <time>2019-11-29T08:58:20.000Z</time>
      </trkpt>
      <trkpt lat="43.31424" lon="5.68212">
        <ele>765</ele>
        <time>2019-11-29T08:58:21.000Z</time>
      </trkpt>
      <trkpt lat="43.31424" lon="5.68213">
        <ele>765</ele>
        <time>2019-11-29T08:58:22.000Z</time>
      </trkpt>
      <trkpt lat="43.31423" lon="5.68213">
        <ele>766</ele>
        <time>2019-11-29T08:58:23.000Z</time>
      </trkpt>
      <trkpt lat="43.31423" lon="5.68214">
        <ele>766</ele>
        <time>2019-11-29T08:58:24.000Z</time>
      </trkpt>
      <trkpt lat="43.31423" lon="5.68215">
        <ele>766</ele>
        <time>2019-11-29T08:58:25.000Z</time>
      </trkpt>
      <trkpt lat="43.31423" lon="5.68215">
        <ele>766</ele>
        <time>2019-11-29T08:58:26.000Z</time>
      </trkpt>
      <trkpt lat="43.31423" lon="5.68216">
        <ele>766</ele>
        <time>2019-11-29T08:58:27.000Z</time>
      </trkpt>
      <trkpt lat="43.31424" lon="5.68217">
        <ele>766</ele>
        <time>2019-11-29T08:58:28.000Z</time>
      </trkpt>
      <trkpt lat="43.31424" lon="5.68218">
        <ele>766</ele>
        <time>2019-11-29T08:58:29.000Z</time>
      </trkpt>
      <trkpt lat="43.31424" lon="5.68218">
        <ele>766</ele>
        <time>2019-11-29T08:58:30.000Z</time>
      </trkpt>
      <trkpt lat="43.31425" lon="5.68219">
        <ele>766</ele>
        <time>2019-11-29T08:58:31.000Z</time>
      </trkpt>
      <trkpt lat="43.31425" lon="5.6822">
        <ele>766</ele>
        <time>2019-11-29T08:58:32.000Z</time>
      </trkpt>
      <trkpt lat="43.31425" lon="5.68221">
        <ele>766</ele>
        <time>2019-11-29T08:58:33.000Z</time>
      </trkpt>
      <trkpt lat="43.31426" lon="5.68222">
        <ele>766</ele>
        <time>2019-11-29T08:58:34.000Z</time>
      </trkpt>
      <trkpt lat="43.31426" lon="5.68223">
        <ele>766</ele>
        <time>2019-11-29T08:58:35.000Z</time>
      </trkpt>
      <trkpt lat="43.31426" lon="5.68223">
        <ele>766</ele>
        <time>2019-11-29T08:58:36.000Z</time>
      </trkpt>
      <trkpt lat="43.31427" lon="5.68223">
        <ele>766</ele>
        <time>2019-11-29T08:58:37.000Z</time>
      </trkpt>
      <trkpt lat="43.31427" lon="5.68224">
        <ele>767</ele>
        <time>2019-11-29T08:58:38.000Z</time>
      </trkpt>
      <trkpt lat="43.31428" lon="5.68224">
        <ele>767</ele>
        <time>2019-11-29T08:58:39.000Z</time>
      </trkpt>
      <trkpt lat="43.31428" lon="5.68225">
        <ele>767</ele>
        <time>2019-11-29T08:58:40.000Z</time>
      </trkpt>
      <trkpt lat="43.31429" lon="5.68226">
        <ele>767</ele>
        <time>2019-11-29T08:58:41.000Z</time>
      </trkpt>
      <trkpt lat="43.31429" lon="5.68226">
        <ele>767</ele>
        <time>2019-11-29T08:58:42.000Z</time>
      </trkpt>
      <trkpt lat="43.3143" lon="5.68227">
        <ele>767</ele>
        <time>2019-11-29T08:58:43.000Z</time>
      </trkpt>
      <trkpt lat="43.3143" lon="5.68228">
        <ele>767</ele>
        <time>2019-11-29T08:58:44.000Z</time>
      </trkpt>
      <trkpt lat="43.31431" lon="5.68228">
        <ele>768</ele>
        <time>2019-11-29T08:58:45.000Z</time>
      </trkpt>
      <trkpt lat="43.31431" lon="5.68229">
        <ele>768</ele>
        <time>2019-11-29T08:58:46.000Z</time>
      </trkpt>
      <trkpt lat="43.31431" lon="5.6823">
        <ele>768</ele>
        <time>2019-11-29T08:58:47.000Z</time>
      </trkpt>
      <trkpt lat="43.31432" lon="5.6823">
        <ele>768</ele>
        <time>2019-11-29T08:58:48.000Z</time>
      </trkpt>
      <trkpt lat="43.31432" lon="5.68231">
        <ele>768</ele>
        <time>2019-11-29T08:58:49.000Z</time>
      </trkpt>
      <trkpt lat="43.31433" lon="5.68232">
        <ele>768</ele>
        <time>2019-11-29T08:58:50.000Z</time>
      </trkpt>
      <trkpt lat="43.31433" lon="5.68232">
        <ele>768</ele>
        <time>2019-11-29T08:58:51.000Z</time>
      </trkpt>
      <trkpt lat="43.31434" lon="5.68233">
        <ele>769</ele>
        <time>2019-11-29T08:58:52.000Z</time>
      </trkpt>
      <trkpt lat="43.31434" lon="5.68234">
        <ele>769</ele>
        <time>2019-11-29T08:58:53.000Z</time>
      </trkpt>
      <trkpt lat="43.31434" lon="5.68234">
        <ele>769</ele>
        <time>2019-11-29T08:58:54.000Z</time>
      </trkpt>
      <trkpt lat="43.31435" lon="5.68235">
        <ele>769</ele>
        <time>2019-11-29T08:58:55.000Z</time>
      </trkpt>
      <trkpt lat="43.31435" lon="5.68236">
        <ele>769</ele>
        <time>2019-11-29T08:58:56.000Z</time>
      </trkpt>
      <trkpt lat="43.31436" lon="5.68236">
        <ele>769</ele>
        <time>2019-11-29T08:58:57.000Z</time>
      </trkpt>
      <trkpt lat="43.31436" lon="5.68237">
        <ele>770</ele>
        <time>2019-11-29T08:58:58.000Z</time>
      </trkpt>
      <trkpt lat="43.31437" lon="5.68238">
        <ele>770</ele>
        <time>2019-11-29T08:58:59.000Z</time>
      </trkpt>
      <trkpt lat="43.31437" lon="5.68239">
        <ele>770</ele>
        <time>2019-11-29T08:59:00.000Z</time>
      </trkpt>
      <trkpt lat="43.31437" lon="5.68239">
        <ele>770</ele>
        <time>2019-11-29T08:59:01.000Z</time>
      </trkpt>
      <trkpt lat="43.31438" lon="5.6824">
        <ele>770</ele>
        <time>2019-11-29T08:59:02.000Z</time>
      </trkpt>
      <trkpt lat="43.31438" lon="5.6824">
        <ele>770</ele>
        <time>2019-11-29T08:59:03.000Z</time>
      </trkpt>
      <trkpt lat="43.31438" lon="5.68241">
        <ele>770</ele>
        <time>2019-11-29T08:59:04.000Z</time>
      </trkpt>
      <trkpt lat="43.31439" lon="5.68242">
        <ele>770</ele>
        <time>2019-11-29T08:59:05.000Z</time>
      </trkpt>
      <trkpt lat="43.31439" lon="5.68243">
        <ele>770</ele>
        <time>2019-11-29T08:59:06.000Z</time>
      </trkpt>
      <trkpt lat="43.31439" lon="5.68243">
        <ele>770</ele>
        <time>2019-11-29T08:59:07.000Z</time>
      </trkpt>
      <trkpt lat="43.3144" lon="5.68244">
        <ele>770</ele>
        <time>2019-11-29T08:59:08.000Z</time>
      </trkpt>
      <trkpt lat="43.3144" lon="5.68245">
        <ele>771</ele>
        <time>2019-11-29T08:59:09.000Z</time>
      </trkpt>
      <trkpt lat="43.3144" lon="5.68246">
        <ele>771</ele>
        <time>2019-11-29T08:59:10.000Z</time>
      </trkpt>
      <trkpt lat="43.31441" lon="5.68246">
        <ele>771</ele>
        <time>2019-11-29T08:59:11.000Z</time>
      </trkpt>
      <trkpt lat="43.31441" lon="5.68247">
        <ele>771</ele>
        <time>2019-11-29T08:59:12.000Z</time>
      </trkpt>
      <trkpt lat="43.31441" lon="5.68248">
        <ele>771</ele>
        <time>2019-11-29T08:59:13.000Z</time>
      </trkpt>
      <trkpt lat="43.31441" lon="5.68249">
        <ele>771</ele>
        <time>2019-11-29T08:59:14.000Z</time>
      </trkpt>
      <trkpt lat="43.31442" lon="5.68249">
        <ele>771</ele>
        <time>2019-11-29T08:59:15.000Z</time>
      </trkpt>
      <trkpt lat="43.31442" lon="5.6825">
        <ele>772</ele>
        <time>2019-11-29T08:59:16.000Z</time>
      </trkpt>
      <trkpt lat="43.31442" lon="5.68251">
        <ele>772</ele>
        <time>2019-11-29T08:59:17.000Z</time>
      </trkpt>
      <trkpt lat="43.31443" lon="5.68251">
        <ele>772</ele>
        <time>2019-11-29T08:59:18.000Z</time>
      </trkpt>
      <trkpt lat="43.31443" lon="5.68252">
        <ele>772</ele>
        <time>2019-11-29T08:59:19.000Z</time>
      </trkpt>
      <trkpt lat="43.31444" lon="5.68252">
        <ele>773</ele>
        <time>2019-11-29T08:59:20.000Z</time>
      </trkpt>
      <trkpt lat="43.31444" lon="5.68253">
        <ele>773</ele>
        <time>2019-11-29T08:59:21.000Z</time>
      </trkpt>
      <trkpt lat="43.31445" lon="5.68253">
        <ele>773</ele>
        <time>2019-11-29T08:59:22.000Z</time>
      </trkpt>
      <trkpt lat="43.31445" lon="5.68254">
        <ele>773</ele>
        <time>2019-11-29T08:59:23.000Z</time>
      </trkpt>
      <trkpt lat="43.31446" lon="5.68254">
        <ele>773</ele>
        <time>2019-11-29T08:59:24.000Z</time>
      </trkpt>
      <trkpt lat="43.31446" lon="5.68254">
        <ele>774</ele>
        <time>2019-11-29T08:59:25.000Z</time>
      </trkpt>
      <trkpt lat="43.31447" lon="5.68254">
        <ele>774</ele>
        <time>2019-11-29T08:59:26.000Z</time>
      </trkpt>
      <trkpt lat="43.31447" lon="5.68254">
        <ele>774</ele>
        <time>2019-11-29T08:59:27.000Z</time>
      </trkpt>
      <trkpt lat="43.31448" lon="5.68255">
        <ele>774</ele>
        <time>2019-11-29T08:59:28.000Z</time>
      </trkpt>
      <trkpt lat="43.31448" lon="5.68255">
        <ele>774</ele>
        <time>2019-11-29T08:59:29.000Z</time>
      </trkpt>
      <trkpt lat="43.31449" lon="5.68255">
        <ele>774</ele>
        <time>2019-11-29T08:59:30.000Z</time>
      </trkpt>
      <trkpt lat="43.31449" lon="5.68256">
        <ele>774</ele>
        <time>2019-11-29T08:59:31.000Z</time>
      </trkpt>
      <trkpt lat="43.3145" lon="5.68257">
        <ele>774</ele>
        <time>2019-11-29T08:59:32.000Z</time>
      </trkpt>
      <trkpt lat="43.3145" lon="5.68258">
        <ele>774</ele>
        <time>2019-11-29T08:59:33.000Z</time>
      </trkpt>
      <trkpt lat="43.3145" lon="5.68258">
        <ele>774</ele>
        <time>2019-11-29T08:59:34.000Z</time>
      </trkpt>
      <trkpt lat="43.3145" lon="5.68258">
        <ele>774</ele>
        <time>2019-11-29T08:59:35.000Z</time>
      </trkpt>
      <trkpt lat="43.3145" lon="5.68258">
        <ele>775</ele>
        <time>2019-11-29T08:59:36.000Z</time>
      </trkpt>
      <trkpt lat="43.3145" lon="5.68258">
        <ele>775</ele>
        <time>2019-11-29T08:59:37.000Z</time>
      </trkpt>
      <trkpt lat="43.3145" lon="5.68258">
        <ele>775</ele>
        <time>2019-11-29T08:59:38.000Z</time>
      </trkpt>
      <trkpt lat="43.3145" lon="5.68258">
        <ele>775</ele>
        <time>2019-11-29T08:59:39.000Z</time>
      </trkpt>
      <trkpt lat="43.3145" lon="5.68258">
        <ele>775</ele>
        <time>2019-11-29T08:59:40.000Z</time>
      </trkpt>
      <trkpt lat="43.3145" lon="5.68258">
        <ele>775</ele>
        <time>2019-11-29T08:59:41.000Z</time>
      </trkpt>
      <trkpt lat="43.3145" lon="5.68258">
        <ele>775</ele>
        <time>2019-11-29T08:59:42.000Z</time>
      </trkpt>
      <trkpt lat="43.3145" lon="5.68258">
        <ele>775</ele>
        <time>2019-11-29T08:59:43.000Z</time>
      </trkpt>
      <trkpt lat="43.3145" lon="5.68259">
        <ele>775</ele>
        <time>2019-11-29T08:59:44.000Z</time>
      </trkpt>
      <trkpt lat="43.3145" lon="5.6826">
        <ele>775</ele>
        <time>2019-11-29T08:59:45.000Z</time>
      </trkpt>
      <trkpt lat="43.31451" lon="5.6826">
        <ele>775</ele>
        <time>2019-11-29T08:59:46.000Z</time>
      </trkpt>
      <trkpt lat="43.31451" lon="5.68261">
        <ele>775</ele>
        <time>2019-11-29T08:59:47.000Z</time>
      </trkpt>
      <trkpt lat="43.31452" lon="5.68261">
        <ele>775</ele>
        <time>2019-11-29T08:59:48.000Z</time>
      </trkpt>
      <trkpt lat="43.31452" lon="5.68262">
        <ele>775</ele>
        <time>2019-11-29T08:59:49.000Z</time>
      </trkpt>
      <trkpt lat="43.31453" lon="5.68263">
        <ele>775</ele>
        <time>2019-11-29T08:59:50.000Z</time>
      </trkpt>
      <trkpt lat="43.31453" lon="5.68263">
        <ele>776</ele>
        <time>2019-11-29T08:59:51.000Z</time>
      </trkpt>
      <trkpt lat="43.31454" lon="5.68264">
        <ele>776</ele>
        <time>2019-11-29T08:59:52.000Z</time>
      </trkpt>
      <trkpt lat="43.31454" lon="5.68265">
        <ele>776</ele>
        <time>2019-11-29T08:59:53.000Z</time>
      </trkpt>
      <trkpt lat="43.31455" lon="5.68265">
        <ele>776</ele>
        <time>2019-11-29T08:59:54.000Z</time>
      </trkpt>
      <trkpt lat="43.31455" lon="5.68266">
        <ele>776</ele>
        <time>2019-11-29T08:59:55.000Z</time>
      </trkpt>
      <trkpt lat="43.31456" lon="5.68267">
        <ele>776</ele>
        <time>2019-11-29T08:59:56.000Z</time>
      </trkpt>
      <trkpt lat="43.31456" lon="5.68267">
        <ele>776</ele>
        <time>2019-11-29T08:59:57.000Z</time>
      </trkpt>
      <trkpt lat="43.31457" lon="5.68268">
        <ele>776</ele>
        <time>2019-11-29T08:59:58.000Z</time>
      </trkpt>
      <trkpt lat="43.31457" lon="5.68268">
        <ele>776</ele>
        <time>2019-11-29T08:59:59.000Z</time>
      </trkpt>
      <trkpt lat="43.31458" lon="5.68269">
        <ele>776</ele>
        <time>2019-11-29T09:00:00.000Z</time>
      </trkpt>
      <trkpt lat="43.31458" lon="5.6827">
        <ele>776</ele>
        <time>2019-11-29T09:00:01.000Z</time>
      </trkpt>
      <trkpt lat="43.31459" lon="5.68271">
        <ele>776</ele>
        <time>2019-11-29T09:00:02.000Z</time>
      </trkpt>
      <trkpt lat="43.31459" lon="5.68271">
        <ele>777</ele>
        <time>2019-11-29T09:00:03.000Z</time>
      </trkpt>
      <trkpt lat="43.31459" lon="5.68272">
        <ele>777</ele>
        <time>2019-11-29T09:00:04.000Z</time>
      </trkpt>
      <trkpt lat="43.3146" lon="5.68273">
        <ele>777</ele>
        <time>2019-11-29T09:00:05.000Z</time>
      </trkpt>
      <trkpt lat="43.3146" lon="5.68273">
        <ele>777</ele>
        <time>2019-11-29T09:00:06.000Z</time>
      </trkpt>
      <trkpt lat="43.3146" lon="5.68274">
        <ele>777</ele>
        <time>2019-11-29T09:00:07.000Z</time>
      </trkpt>
      <trkpt lat="43.31461" lon="5.68275">
        <ele>777</ele>
        <time>2019-11-29T09:00:08.000Z</time>
      </trkpt>
      <trkpt lat="43.31461" lon="5.68275">
        <ele>778</ele>
        <time>2019-11-29T09:00:09.000Z</time>
      </trkpt>
      <trkpt lat="43.31462" lon="5.68276">
        <ele>778</ele>
        <time>2019-11-29T09:00:10.000Z</time>
      </trkpt>
      <trkpt lat="43.31463" lon="5.68277">
        <ele>778</ele>
        <time>2019-11-29T09:00:11.000Z</time>
      </trkpt>
      <trkpt lat="43.31463" lon="5.68277">
        <ele>778</ele>
        <time>2019-11-29T09:00:12.000Z</time>
      </trkpt>
      <trkpt lat="43.31463" lon="5.68278">
        <ele>778</ele>
        <time>2019-11-29T09:00:13.000Z</time>
      </trkpt>
      <trkpt lat="43.31464" lon="5.68279">
        <ele>778</ele>
        <time>2019-11-29T09:00:14.000Z</time>
      </trkpt>
      <trkpt lat="43.31464" lon="5.68281">
        <ele>778</ele>
        <time>2019-11-29T09:00:15.000Z</time>
      </trkpt>
      <trkpt lat="43.31464" lon="5.68282">
        <ele>778</ele>
        <time>2019-11-29T09:00:16.000Z</time>
      </trkpt>
      <trkpt lat="43.31464" lon="5.68283">
        <ele>779</ele>
        <time>2019-11-29T09:00:17.000Z</time>
      </trkpt>
      <trkpt lat="43.31463" lon="5.68284">
        <ele>779</ele>
        <time>2019-11-29T09:00:18.000Z</time>
      </trkpt>
      <trkpt lat="43.31463" lon="5.68285">
        <ele>779</ele>
        <time>2019-11-29T09:00:19.000Z</time>
      </trkpt>
      <trkpt lat="43.31463" lon="5.68286">
        <ele>779</ele>
        <time>2019-11-29T09:00:20.000Z</time>
      </trkpt>
      <trkpt lat="43.31463" lon="5.68287">
        <ele>779</ele>
        <time>2019-11-29T09:00:21.000Z</time>
      </trkpt>
      <trkpt lat="43.31463" lon="5.68288">
        <ele>780</ele>
        <time>2019-11-29T09:00:22.000Z</time>
      </trkpt>
      <trkpt lat="43.31464" lon="5.68289">
        <ele>780</ele>
        <time>2019-11-29T09:00:23.000Z</time>
      </trkpt>
      <trkpt lat="43.31464" lon="5.6829">
        <ele>780</ele>
        <time>2019-11-29T09:00:24.000Z</time>
      </trkpt>
      <trkpt lat="43.31464" lon="5.68291">
        <ele>780</ele>
        <time>2019-11-29T09:00:25.000Z</time>
      </trkpt>
      <trkpt lat="43.31465" lon="5.68292">
        <ele>780</ele>
        <time>2019-11-29T09:00:26.000Z</time>
      </trkpt>
      <trkpt lat="43.31465" lon="5.68293">
        <ele>781</ele>
        <time>2019-11-29T09:00:27.000Z</time>
      </trkpt>
      <trkpt lat="43.31465" lon="5.68293">
        <ele>781</ele>
        <time>2019-11-29T09:00:28.000Z</time>
      </trkpt>
      <trkpt lat="43.31466" lon="5.68294">
        <ele>781</ele>
        <time>2019-11-29T09:00:29.000Z</time>
      </trkpt>
      <trkpt lat="43.31466" lon="5.68294">
        <ele>781</ele>
        <time>2019-11-29T09:00:30.000Z</time>
      </trkpt>
      <trkpt lat="43.31467" lon="5.68295">
        <ele>781</ele>
        <time>2019-11-29T09:00:31.000Z</time>
      </trkpt>
      <trkpt lat="43.31467" lon="5.68295">
        <ele>781</ele>
        <time>2019-11-29T09:00:32.000Z</time>
      </trkpt>
      <trkpt lat="43.31468" lon="5.68295">
        <ele>781</ele>
        <time>2019-11-29T09:00:33.000Z</time>
      </trkpt>
      <trkpt lat="43.31469" lon="5.68296">
        <ele>781</ele>
        <time>2019-11-29T09:00:34.000Z</time>
      </trkpt>
      <trkpt lat="43.31469" lon="5.68296">
        <ele>781</ele>
        <time>2019-11-29T09:00:35.000Z</time>
      </trkpt>
      <trkpt lat="43.31469" lon="5.68296">
        <ele>782</ele>
        <time>2019-11-29T09:00:36.000Z</time>
      </trkpt>
      <trkpt lat="43.3147" lon="5.68296">
        <ele>782</ele>
        <time>2019-11-29T09:00:37.000Z</time>
      </trkpt>
      <trkpt lat="43.31471" lon="5.68296">
        <ele>782</ele>
        <time>2019-11-29T09:00:38.000Z</time>
      </trkpt>
      <trkpt lat="43.31471" lon="5.68296">
        <ele>782</ele>
        <time>2019-11-29T09:00:39.000Z</time>
      </trkpt>
      <trkpt lat="43.31472" lon="5.68296">
        <ele>782</ele>
        <time>2019-11-29T09:00:40.000Z</time>
      </trkpt>
      <trkpt lat="43.31473" lon="5.68297">
        <ele>782</ele>
        <time>2019-11-29T09:00:41.000Z</time>
      </trkpt>
      <trkpt lat="43.31473" lon="5.68297">
        <ele>782</ele>
        <time>2019-11-29T09:00:42.000Z</time>
      </trkpt>
      <trkpt lat="43.31474" lon="5.68297">
        <ele>782</ele>
        <time>2019-11-29T09:00:43.000Z</time>
      </trkpt>
      <trkpt lat="43.31475" lon="5.68298">
        <ele>782</ele>
        <time>2019-11-29T09:00:44.000Z</time>
      </trkpt>
      <trkpt lat="43.31475" lon="5.68298">
        <ele>782</ele>
        <time>2019-11-29T09:00:45.000Z</time>
      </trkpt>
      <trkpt lat="43.31476" lon="5.68299">
        <ele>783</ele>
        <time>2019-11-29T09:00:46.000Z</time>
      </trkpt>
      <trkpt lat="43.31476" lon="5.683">
        <ele>783</ele>
        <time>2019-11-29T09:00:47.000Z</time>
      </trkpt>
      <trkpt lat="43.31476" lon="5.68301">
        <ele>783</ele>
        <time>2019-11-29T09:00:48.000Z</time>
      </trkpt>
      <trkpt lat="43.31476" lon="5.68301">
        <ele>783</ele>
        <time>2019-11-29T09:00:49.000Z</time>
      </trkpt>
      <trkpt lat="43.31476" lon="5.68302">
        <ele>783</ele>
        <time>2019-11-29T09:00:50.000Z</time>
      </trkpt>
      <trkpt lat="43.31476" lon="5.68303">
        <ele>783</ele>
        <time>2019-11-29T09:00:51.000Z</time>
      </trkpt>
      <trkpt lat="43.31476" lon="5.68304">
        <ele>783</ele>
        <time>2019-11-29T09:00:52.000Z</time>
      </trkpt>
      <trkpt lat="43.31477" lon="5.68305">
        <ele>783</ele>
        <time>2019-11-29T09:00:53.000Z</time>
      </trkpt>
      <trkpt lat="43.31477" lon="5.68306">
        <ele>783</ele>
        <time>2019-11-29T09:00:54.000Z</time>
      </trkpt>
      <trkpt lat="43.31478" lon="5.68307">
        <ele>784</ele>
        <time>2019-11-29T09:00:55.000Z</time>
      </trkpt>
      <trkpt lat="43.31478" lon="5.68307">
        <ele>784</ele>
        <time>2019-11-29T09:00:56.000Z</time>
      </trkpt>
      <trkpt lat="43.31478" lon="5.68308">
        <ele>784</ele>
        <time>2019-11-29T09:00:57.000Z</time>
      </trkpt>
      <trkpt lat="43.31479" lon="5.68309">
        <ele>784</ele>
        <time>2019-11-29T09:00:58.000Z</time>
      </trkpt>
      <trkpt lat="43.31479" lon="5.68309">
        <ele>784</ele>
        <time>2019-11-29T09:00:59.000Z</time>
      </trkpt>
      <trkpt lat="43.3148" lon="5.68311">
        <ele>784</ele>
        <time>2019-11-29T09:01:00.000Z</time>
      </trkpt>
      <trkpt lat="43.3148" lon="5.68311">
        <ele>784</ele>
        <time>2019-11-29T09:01:01.000Z</time>
      </trkpt>
      <trkpt lat="43.31481" lon="5.68312">
        <ele>784</ele>
        <time>2019-11-29T09:01:02.000Z</time>
      </trkpt>
      <trkpt lat="43.31481" lon="5.68313">
        <ele>785</ele>
        <time>2019-11-29T09:01:03.000Z</time>
      </trkpt>
      <trkpt lat="43.31482" lon="5.68313">
        <ele>785</ele>
        <time>2019-11-29T09:01:04.000Z</time>
      </trkpt>
      <trkpt lat="43.31482" lon="5.68314">
        <ele>785</ele>
        <time>2019-11-29T09:01:05.000Z</time>
      </trkpt>
      <trkpt lat="43.31483" lon="5.68315">
        <ele>785</ele>
        <time>2019-11-29T09:01:06.000Z</time>
      </trkpt>
      <trkpt lat="43.31483" lon="5.68316">
        <ele>785</ele>
        <time>2019-11-29T09:01:07.000Z</time>
      </trkpt>
      <trkpt lat="43.31483" lon="5.68316">
        <ele>785</ele>
        <time>2019-11-29T09:01:08.000Z</time>
      </trkpt>
      <trkpt lat="43.31484" lon="5.68317">
        <ele>785</ele>
        <time>2019-11-29T09:01:09.000Z</time>
      </trkpt>
      <trkpt lat="43.31484" lon="5.68318">
        <ele>785</ele>
        <time>2019-11-29T09:01:10.000Z</time>
      </trkpt>
      <trkpt lat="43.31485" lon="5.68318">
        <ele>785</ele>
        <time>2019-11-29T09:01:11.000Z</time>
      </trkpt>
      <trkpt lat="43.31485" lon="5.68319">
        <ele>785</ele>
        <time>2019-11-29T09:01:12.000Z</time>
      </trkpt>
      <trkpt lat="43.31486" lon="5.6832">
        <ele>786</ele>
        <time>2019-11-29T09:01:13.000Z</time>
      </trkpt>
      <trkpt lat="43.31486" lon="5.68321">
        <ele>786</ele>
        <time>2019-11-29T09:01:14.000Z</time>
      </trkpt>
      <trkpt lat="43.31486" lon="5.68322">
        <ele>786</ele>
        <time>2019-11-29T09:01:15.000Z</time>
      </trkpt>
      <trkpt lat="43.31486" lon="5.68323">
        <ele>786</ele>
        <time>2019-11-29T09:01:16.000Z</time>
      </trkpt>
      <trkpt lat="43.31486" lon="5.68324">
        <ele>786</ele>
        <time>2019-11-29T09:01:17.000Z</time>
      </trkpt>
      <trkpt lat="43.31486" lon="5.68324">
        <ele>786</ele>
        <time>2019-11-29T09:01:18.000Z</time>
      </trkpt>
      <trkpt lat="43.31486" lon="5.68325">
        <ele>786</ele>
        <time>2019-11-29T09:01:19.000Z</time>
      </trkpt>
      <trkpt lat="43.31487" lon="5.68326">
        <ele>786</ele>
        <time>2019-11-29T09:01:20.000Z</time>
      </trkpt>
      <trkpt lat="43.31487" lon="5.68327">
        <ele>786</ele>
        <time>2019-11-29T09:01:21.000Z</time>
      </trkpt>
      <trkpt lat="43.31487" lon="5.68327">
        <ele>786</ele>
        <time>2019-11-29T09:01:22.000Z</time>
      </trkpt>
      <trkpt lat="43.31487" lon="5.68328">
        <ele>786</ele>
        <time>2019-11-29T09:01:23.000Z</time>
      </trkpt>
      <trkpt lat="43.31487" lon="5.68329">
        <ele>786</ele>
        <time>2019-11-29T09:01:24.000Z</time>
      </trkpt>
      <trkpt lat="43.31488" lon="5.68329">
        <ele>786</ele>
        <time>2019-11-29T09:01:25.000Z</time>
      </trkpt>
      <trkpt lat="43.31488" lon="5.6833">
        <ele>787</ele>
        <time>2019-11-29T09:01:26.000Z</time>
      </trkpt>
      <trkpt lat="43.31489" lon="5.68331">
        <ele>787</ele>
        <time>2019-11-29T09:01:27.000Z</time>
      </trkpt>
      <trkpt lat="43.31489" lon="5.68331">
        <ele>787</ele>
        <time>2019-11-29T09:01:28.000Z</time>
      </trkpt>
      <trkpt lat="43.31489" lon="5.68332">
        <ele>787</ele>
        <time>2019-11-29T09:01:29.000Z</time>
      </trkpt>
      <trkpt lat="43.3149" lon="5.68333">
        <ele>787</ele>
        <time>2019-11-29T09:01:30.000Z</time>
      </trkpt>
      <trkpt lat="43.3149" lon="5.68334">
        <ele>787</ele>
        <time>2019-11-29T09:01:31.000Z</time>
      </trkpt>
      <trkpt lat="43.3149" lon="5.68334">
        <ele>787</ele>
        <time>2019-11-29T09:01:32.000Z</time>
      </trkpt>
      <trkpt lat="43.3149" lon="5.68335">
        <ele>787</ele>
        <time>2019-11-29T09:01:33.000Z</time>
      </trkpt>
      <trkpt lat="43.31491" lon="5.68335">
        <ele>787</ele>
        <time>2019-11-29T09:01:34.000Z</time>
      </trkpt>
      <trkpt lat="43.31491" lon="5.68336">
        <ele>787</ele>
        <time>2019-11-29T09:01:35.000Z</time>
      </trkpt>
      <trkpt lat="43.31492" lon="5.68336">
        <ele>787</ele>
        <time>2019-11-29T09:01:36.000Z</time>
      </trkpt>
      <trkpt lat="43.31492" lon="5.68337">
        <ele>787</ele>
        <time>2019-11-29T09:01:37.000Z</time>
      </trkpt>
      <trkpt lat="43.31492" lon="5.68337">
        <ele>787</ele>
        <time>2019-11-29T09:01:38.000Z</time>
      </trkpt>
      <trkpt lat="43.31493" lon="5.68337">
        <ele>788</ele>
        <time>2019-11-29T09:01:39.000Z</time>
      </trkpt>
      <trkpt lat="43.31493" lon="5.68338">
        <ele>788</ele>
        <time>2019-11-29T09:01:40.000Z</time>
      </trkpt>
      <trkpt lat="43.31493" lon="5.68338">
        <ele>788</ele>
        <time>2019-11-29T09:01:41.000Z</time>
      </trkpt>
      <trkpt lat="43.31494" lon="5.68338">
        <ele>788</ele>
        <time>2019-11-29T09:01:42.000Z</time>
      </trkpt>
      <trkpt lat="43.31494" lon="5.68338">
        <ele>788</ele>
        <time>2019-11-29T09:01:43.000Z</time>
      </trkpt>
      <trkpt lat="43.31495" lon="5.68338">
        <ele>788</ele>
        <time>2019-11-29T09:01:44.000Z</time>
      </trkpt>
      <trkpt lat="43.31495" lon="5.68339">
        <ele>788</ele>
        <time>2019-11-29T09:01:45.000Z</time>
      </trkpt>
      <trkpt lat="43.31496" lon="5.68339">
        <ele>788</ele>
        <time>2019-11-29T09:01:46.000Z</time>
      </trkpt>
      <trkpt lat="43.31496" lon="5.68339">
        <ele>788</ele>
        <time>2019-11-29T09:01:47.000Z</time>
      </trkpt>
      <trkpt lat="43.31496" lon="5.6834">
        <ele>788</ele>
        <time>2019-11-29T09:01:48.000Z</time>
      </trkpt>
      <trkpt lat="43.31497" lon="5.6834">
        <ele>788</ele>
        <time>2019-11-29T09:01:49.000Z</time>
      </trkpt>
      <trkpt lat="43.31497" lon="5.6834">
        <ele>788</ele>
        <time>2019-11-29T09:01:50.000Z</time>
      </trkpt>
      <trkpt lat="43.31498" lon="5.68341">
        <ele>788</ele>
        <time>2019-11-29T09:01:51.000Z</time>
      </trkpt>
      <trkpt lat="43.31498" lon="5.68342">
        <ele>788</ele>
        <time>2019-11-29T09:01:52.000Z</time>
      </trkpt>
      <trkpt lat="43.31498" lon="5.68342">
        <ele>788</ele>
        <time>2019-11-29T09:01:53.000Z</time>
      </trkpt>
      <trkpt lat="43.31498" lon="5.68343">
        <ele>788</ele>
        <time>2019-11-29T09:01:54.000Z</time>
      </trkpt>
      <trkpt lat="43.31498" lon="5.68344">
        <ele>788</ele>
        <time>2019-11-29T09:01:55.000Z</time>
      </trkpt>
      <trkpt lat="43.31498" lon="5.68345">
        <ele>788</ele>
        <time>2019-11-29T09:01:56.000Z</time>
      </trkpt>
      <trkpt lat="43.31499" lon="5.68345">
        <ele>788</ele>
        <time>2019-11-29T09:01:57.000Z</time>
      </trkpt>
      <trkpt lat="43.31499" lon="5.68346">
        <ele>788</ele>
        <time>2019-11-29T09:01:58.000Z</time>
      </trkpt>
      <trkpt lat="43.31499" lon="5.68346">
        <ele>788</ele>
        <time>2019-11-29T09:01:59.000Z</time>
      </trkpt>
      <trkpt lat="43.31499" lon="5.68347">
        <ele>788</ele>
        <time>2019-11-29T09:02:00.000Z</time>
      </trkpt>
      <trkpt lat="43.31499" lon="5.68347">
        <ele>788</ele>
        <time>2019-11-29T09:02:01.000Z</time>
      </trkpt>
      <trkpt lat="43.31499" lon="5.68348">
        <ele>788</ele>
        <time>2019-11-29T09:02:02.000Z</time>
      </trkpt>
      <trkpt lat="43.31499" lon="5.68348">
        <ele>788</ele>
        <time>2019-11-29T09:02:03.000Z</time>
      </trkpt>
      <trkpt lat="43.31499" lon="5.68349">
        <ele>789</ele>
        <time>2019-11-29T09:02:04.000Z</time>
      </trkpt>
      <trkpt lat="43.315" lon="5.6835">
        <ele>789</ele>
        <time>2019-11-29T09:02:05.000Z</time>
      </trkpt>
      <trkpt lat="43.315" lon="5.68351">
        <ele>789</ele>
        <time>2019-11-29T09:02:06.000Z</time>
      </trkpt>
      <trkpt lat="43.315" lon="5.68351">
        <ele>789</ele>
        <time>2019-11-29T09:02:07.000Z</time>
      </trkpt>
      <trkpt lat="43.31501" lon="5.68352">
        <ele>789</ele>
        <time>2019-11-29T09:02:08.000Z</time>
      </trkpt>
      <trkpt lat="43.31501" lon="5.68352">
        <ele>789</ele>
        <time>2019-11-29T09:02:09.000Z</time>
      </trkpt>
      <trkpt lat="43.31502" lon="5.68353">
        <ele>789</ele>
        <time>2019-11-29T09:02:10.000Z</time>
      </trkpt>
      <trkpt lat="43.31502" lon="5.68354">
        <ele>790</ele>
        <time>2019-11-29T09:02:11.000Z</time>
      </trkpt>
      <trkpt lat="43.31503" lon="5.68354">
        <ele>790</ele>
        <time>2019-11-29T09:02:12.000Z</time>
      </trkpt>
      <trkpt lat="43.31503" lon="5.68355">
        <ele>790</ele>
        <time>2019-11-29T09:02:13.000Z</time>
      </trkpt>
      <trkpt lat="43.31504" lon="5.68356">
        <ele>790</ele>
        <time>2019-11-29T09:02:14.000Z</time>
      </trkpt>
      <trkpt lat="43.31504" lon="5.68357">
        <ele>790</ele>
        <time>2019-11-29T09:02:15.000Z</time>
      </trkpt>
      <trkpt lat="43.31504" lon="5.68358">
        <ele>790</ele>
        <time>2019-11-29T09:02:16.000Z</time>
      </trkpt>
      <trkpt lat="43.31504" lon="5.68359">
        <ele>790</ele>
        <time>2019-11-29T09:02:17.000Z</time>
      </trkpt>
      <trkpt lat="43.31504" lon="5.68359">
        <ele>790</ele>
        <time>2019-11-29T09:02:18.000Z</time>
      </trkpt>
      <trkpt lat="43.31505" lon="5.6836">
        <ele>791</ele>
        <time>2019-11-29T09:02:19.000Z</time>
      </trkpt>
      <trkpt lat="43.31505" lon="5.68361">
        <ele>791</ele>
        <time>2019-11-29T09:02:20.000Z</time>
      </trkpt>
      <trkpt lat="43.31505" lon="5.68362">
        <ele>791</ele>
        <time>2019-11-29T09:02:21.000Z</time>
      </trkpt>
      <trkpt lat="43.31505" lon="5.68362">
        <ele>791</ele>
        <time>2019-11-29T09:02:22.000Z</time>
      </trkpt>
      <trkpt lat="43.31506" lon="5.68363">
        <ele>791</ele>
        <time>2019-11-29T09:02:23.000Z</time>
      </trkpt>
      <trkpt lat="43.31506" lon="5.68364">
        <ele>792</ele>
        <time>2019-11-29T09:02:24.000Z</time>
      </trkpt>
      <trkpt lat="43.31506" lon="5.68364">
        <ele>792</ele>
        <time>2019-11-29T09:02:25.000Z</time>
      </trkpt>
      <trkpt lat="43.31507" lon="5.68365">
        <ele>792</ele>
        <time>2019-11-29T09:02:26.000Z</time>
      </trkpt>
      <trkpt lat="43.31507" lon="5.68365">
        <ele>792</ele>
        <time>2019-11-29T09:02:27.000Z</time>
      </trkpt>
      <trkpt lat="43.31508" lon="5.68366">
        <ele>792</ele>
        <time>2019-11-29T09:02:28.000Z</time>
      </trkpt>
      <trkpt lat="43.31508" lon="5.68367">
        <ele>793</ele>
        <time>2019-11-29T09:02:29.000Z</time>
      </trkpt>
      <trkpt lat="43.31508" lon="5.68367">
        <ele>793</ele>
        <time>2019-11-29T09:02:30.000Z</time>
      </trkpt>
      <trkpt lat="43.31508" lon="5.68368">
        <ele>793</ele>
        <time>2019-11-29T09:02:31.000Z</time>
      </trkpt>
      <trkpt lat="43.31508" lon="5.68369">
        <ele>793</ele>
        <time>2019-11-29T09:02:32.000Z</time>
      </trkpt>
      <trkpt lat="43.31508" lon="5.6837">
        <ele>793</ele>
        <time>2019-11-29T09:02:33.000Z</time>
      </trkpt>
      <trkpt lat="43.31508" lon="5.68371">
        <ele>793</ele>
        <time>2019-11-29T09:02:34.000Z</time>
      </trkpt>
      <trkpt lat="43.31508" lon="5.68372">
        <ele>793</ele>
        <time>2019-11-29T09:02:35.000Z</time>
      </trkpt>
      <trkpt lat="43.31508" lon="5.68372">
        <ele>793</ele>
        <time>2019-11-29T09:02:36.000Z</time>
      </trkpt>
      <trkpt lat="43.31508" lon="5.68373">
        <ele>793</ele>
        <time>2019-11-29T09:02:37.000Z</time>
      </trkpt>
      <trkpt lat="43.31508" lon="5.68373">
        <ele>794</ele>
        <time>2019-11-29T09:02:38.000Z</time>
      </trkpt>
      <trkpt lat="43.31507" lon="5.68374">
        <ele>794</ele>
        <time>2019-11-29T09:02:39.000Z</time>
      </trkpt>
      <trkpt lat="43.31507" lon="5.68375">
        <ele>794</ele>
        <time>2019-11-29T09:02:40.000Z</time>
      </trkpt>
      <trkpt lat="43.31507" lon="5.68376">
        <ele>794</ele>
        <time>2019-11-29T09:02:41.000Z</time>
      </trkpt>
      <trkpt lat="43.31506" lon="5.68377">
        <ele>794</ele>
        <time>2019-11-29T09:02:42.000Z</time>
      </trkpt>
      <trkpt lat="43.31506" lon="5.68378">
        <ele>795</ele>
        <time>2019-11-29T09:02:43.000Z</time>
      </trkpt>
      <trkpt lat="43.31506" lon="5.68379">
        <ele>795</ele>
        <time>2019-11-29T09:02:44.000Z</time>
      </trkpt>
      <trkpt lat="43.31506" lon="5.6838">
        <ele>795</ele>
        <time>2019-11-29T09:02:45.000Z</time>
      </trkpt>
      <trkpt lat="43.31505" lon="5.68381">
        <ele>795</ele>
        <time>2019-11-29T09:02:46.000Z</time>
      </trkpt>
      <trkpt lat="43.31505" lon="5.68381">
        <ele>795</ele>
        <time>2019-11-29T09:02:47.000Z</time>
      </trkpt>
      <trkpt lat="43.31505" lon="5.68382">
        <ele>796</ele>
        <time>2019-11-29T09:02:48.000Z</time>
      </trkpt>
      <trkpt lat="43.31505" lon="5.68383">
        <ele>796</ele>
        <time>2019-11-29T09:02:49.000Z</time>
      </trkpt>
      <trkpt lat="43.31505" lon="5.68384">
        <ele>796</ele>
        <time>2019-11-29T09:02:50.000Z</time>
      </trkpt>
      <trkpt lat="43.31506" lon="5.68385">
        <ele>796</ele>
        <time>2019-11-29T09:02:51.000Z</time>
      </trkpt>
      <trkpt lat="43.31506" lon="5.68386">
        <ele>796</ele>
        <time>2019-11-29T09:02:52.000Z</time>
      </trkpt>
      <trkpt lat="43.31506" lon="5.68387">
        <ele>796</ele>
        <time>2019-11-29T09:02:53.000Z</time>
      </trkpt>
      <trkpt lat="43.31506" lon="5.68388">
        <ele>796</ele>
        <time>2019-11-29T09:02:54.000Z</time>
      </trkpt>
      <trkpt lat="43.31506" lon="5.68389">
        <ele>796</ele>
        <time>2019-11-29T09:02:55.000Z</time>
      </trkpt>
      <trkpt lat="43.31506" lon="5.6839">
        <ele>796</ele>
        <time>2019-11-29T09:02:56.000Z</time>
      </trkpt>
      <trkpt lat="43.31507" lon="5.68391">
        <ele>797</ele>
        <time>2019-11-29T09:02:57.000Z</time>
      </trkpt>
      <trkpt lat="43.31507" lon="5.68392">
        <ele>797</ele>
        <time>2019-11-29T09:02:58.000Z</time>
      </trkpt>
      <trkpt lat="43.31507" lon="5.68393">
        <ele>797</ele>
        <time>2019-11-29T09:02:59.000Z</time>
      </trkpt>
      <trkpt lat="43.31507" lon="5.68394">
        <ele>797</ele>
        <time>2019-11-29T09:03:00.000Z</time>
      </trkpt>
      <trkpt lat="43.31507" lon="5.68394">
        <ele>797</ele>
        <time>2019-11-29T09:03:01.000Z</time>
      </trkpt>
      <trkpt lat="43.31506" lon="5.68395">
        <ele>797</ele>
        <time>2019-11-29T09:03:02.000Z</time>
      </trkpt>
      <trkpt lat="43.31506" lon="5.68396">
        <ele>798</ele>
        <time>2019-11-29T09:03:03.000Z</time>
      </trkpt>
      <trkpt lat="43.31506" lon="5.68397">
        <ele>798</ele>
        <time>2019-11-29T09:03:04.000Z</time>
      </trkpt>
      <trkpt lat="43.31506" lon="5.68398">
        <ele>798</ele>
        <time>2019-11-29T09:03:05.000Z</time>
      </trkpt>
      <trkpt lat="43.31506" lon="5.68399">
        <ele>798</ele>
        <time>2019-11-29T09:03:06.000Z</time>
      </trkpt>
      <trkpt lat="43.31506" lon="5.684">
        <ele>798</ele>
        <time>2019-11-29T09:03:07.000Z</time>
      </trkpt>
      <trkpt lat="43.31506" lon="5.68401">
        <ele>798</ele>
        <time>2019-11-29T09:03:08.000Z</time>
      </trkpt>
      <trkpt lat="43.31506" lon="5.68402">
        <ele>798</ele>
        <time>2019-11-29T09:03:09.000Z</time>
      </trkpt>
      <trkpt lat="43.31506" lon="5.68402">
        <ele>799</ele>
        <time>2019-11-29T09:03:10.000Z</time>
      </trkpt>
      <trkpt lat="43.31507" lon="5.68404">
        <ele>799</ele>
        <time>2019-11-29T09:03:11.000Z</time>
      </trkpt>
      <trkpt lat="43.31507" lon="5.68404">
        <ele>799</ele>
        <time>2019-11-29T09:03:12.000Z</time>
      </trkpt>
      <trkpt lat="43.31507" lon="5.68405">
        <ele>799</ele>
        <time>2019-11-29T09:03:13.000Z</time>
      </trkpt>
      <trkpt lat="43.31507" lon="5.68406">
        <ele>799</ele>
        <time>2019-11-29T09:03:14.000Z</time>
      </trkpt>
      <trkpt lat="43.31507" lon="5.68407">
        <ele>800</ele>
        <time>2019-11-29T09:03:15.000Z</time>
      </trkpt>
      <trkpt lat="43.31507" lon="5.68408">
        <ele>800</ele>
        <time>2019-11-29T09:03:16.000Z</time>
      </trkpt>
      <trkpt lat="43.31507" lon="5.68409">
        <ele>800</ele>
        <time>2019-11-29T09:03:17.000Z</time>
      </trkpt>
      <trkpt lat="43.31507" lon="5.6841">
        <ele>800</ele>
        <time>2019-11-29T09:03:18.000Z</time>
      </trkpt>
      <trkpt lat="43.31507" lon="5.6841">
        <ele>800</ele>
        <time>2019-11-29T09:03:19.000Z</time>
      </trkpt>
      <trkpt lat="43.31507" lon="5.68411">
        <ele>800</ele>
        <time>2019-11-29T09:03:20.000Z</time>
      </trkpt>
      <trkpt lat="43.31507" lon="5.68412">
        <ele>800</ele>
        <time>2019-11-29T09:03:21.000Z</time>
      </trkpt>
      <trkpt lat="43.31508" lon="5.68413">
        <ele>800</ele>
        <time>2019-11-29T09:03:22.000Z</time>
      </trkpt>
      <trkpt lat="43.31508" lon="5.68413">
        <ele>800</ele>
        <time>2019-11-29T09:03:23.000Z</time>
      </trkpt>
      <trkpt lat="43.31508" lon="5.68414">
        <ele>801</ele>
        <time>2019-11-29T09:03:24.000Z</time>
      </trkpt>
      <trkpt lat="43.31508" lon="5.68415">
        <ele>801</ele>
        <time>2019-11-29T09:03:25.000Z</time>
      </trkpt>
      <trkpt lat="43.31508" lon="5.68415">
        <ele>801</ele>
        <time>2019-11-29T09:03:26.000Z</time>
      </trkpt>
      <trkpt lat="43.31508" lon="5.68416">
        <ele>801</ele>
        <time>2019-11-29T09:03:27.000Z</time>
      </trkpt>
      <trkpt lat="43.31508" lon="5.68417">
        <ele>801</ele>
        <time>2019-11-29T09:03:28.000Z</time>
      </trkpt>
      <trkpt lat="43.31509" lon="5.68417">
        <ele>802</ele>
        <time>2019-11-29T09:03:29.000Z</time>
      </trkpt>
      <trkpt lat="43.31509" lon="5.68418">
        <ele>802</ele>
        <time>2019-11-29T09:03:30.000Z</time>
      </trkpt>
      <trkpt lat="43.31509" lon="5.68418">
        <ele>802</ele>
        <time>2019-11-29T09:03:31.000Z</time>
      </trkpt>
      <trkpt lat="43.31509" lon="5.68419">
        <ele>802</ele>
        <time>2019-11-29T09:03:32.000Z</time>
      </trkpt>
      <trkpt lat="43.3151" lon="5.68419">
        <ele>802</ele>
        <time>2019-11-29T09:03:33.000Z</time>
      </trkpt>
      <trkpt lat="43.3151" lon="5.6842">
        <ele>802</ele>
        <time>2019-11-29T09:03:34.000Z</time>
      </trkpt>
      <trkpt lat="43.3151" lon="5.68421">
        <ele>802</ele>
        <time>2019-11-29T09:03:35.000Z</time>
      </trkpt>
      <trkpt lat="43.3151" lon="5.68421">
        <ele>803</ele>
        <time>2019-11-29T09:03:36.000Z</time>
      </trkpt>
      <trkpt lat="43.31511" lon="5.68422">
        <ele>803</ele>
        <time>2019-11-29T09:03:37.000Z</time>
      </trkpt>
      <trkpt lat="43.31511" lon="5.68422">
        <ele>803</ele>
        <time>2019-11-29T09:03:38.000Z</time>
      </trkpt>
      <trkpt lat="43.31511" lon="5.68423">
        <ele>803</ele>
        <time>2019-11-29T09:03:39.000Z</time>
      </trkpt>
      <trkpt lat="43.31512" lon="5.68423">
        <ele>803</ele>
        <time>2019-11-29T09:03:40.000Z</time>
      </trkpt>
      <trkpt lat="43.31512" lon="5.68424">
        <ele>804</ele>
        <time>2019-11-29T09:03:41.000Z</time>
      </trkpt>
      <trkpt lat="43.31512" lon="5.68424">
        <ele>804</ele>
        <time>2019-11-29T09:03:42.000Z</time>
      </trkpt>
      <trkpt lat="43.31513" lon="5.68425">
        <ele>804</ele>
        <time>2019-11-29T09:03:43.000Z</time>
      </trkpt>
      <trkpt lat="43.31513" lon="5.68425">
        <ele>804</ele>
        <time>2019-11-29T09:03:44.000Z</time>
      </trkpt>
      <trkpt lat="43.31513" lon="5.68425">
        <ele>804</ele>
        <time>2019-11-29T09:03:45.000Z</time>
      </trkpt>
      <trkpt lat="43.31514" lon="5.68426">
        <ele>804</ele>
        <time>2019-11-29T09:03:46.000Z</time>
      </trkpt>
      <trkpt lat="43.31514" lon="5.68426">
        <ele>804</ele>
        <time>2019-11-29T09:03:47.000Z</time>
      </trkpt>
      <trkpt lat="43.31514" lon="5.68427">
        <ele>804</ele>
        <time>2019-11-29T09:03:48.000Z</time>
      </trkpt>
      <trkpt lat="43.31514" lon="5.68427">
        <ele>804</ele>
        <time>2019-11-29T09:03:49.000Z</time>
      </trkpt>
      <trkpt lat="43.31515" lon="5.68428">
        <ele>805</ele>
        <time>2019-11-29T09:03:50.000Z</time>
      </trkpt>
      <trkpt lat="43.31515" lon="5.68428">
        <ele>805</ele>
        <time>2019-11-29T09:03:51.000Z</time>
      </trkpt>
      <trkpt lat="43.31515" lon="5.68428">
        <ele>805</ele>
        <time>2019-11-29T09:03:52.000Z</time>
      </trkpt>
      <trkpt lat="43.31516" lon="5.68429">
        <ele>805</ele>
        <time>2019-11-29T09:03:53.000Z</time>
      </trkpt>
      <trkpt lat="43.31516" lon="5.68429">
        <ele>805</ele>
        <time>2019-11-29T09:03:54.000Z</time>
      </trkpt>
      <trkpt lat="43.31516" lon="5.68429">
        <ele>806</ele>
        <time>2019-11-29T09:03:55.000Z</time>
      </trkpt>
      <trkpt lat="43.31516" lon="5.68429">
        <ele>806</ele>
        <time>2019-11-29T09:03:56.000Z</time>
      </trkpt>
      <trkpt lat="43.31517" lon="5.68429">
        <ele>806</ele>
        <time>2019-11-29T09:03:57.000Z</time>
      </trkpt>
      <trkpt lat="43.31517" lon="5.6843">
        <ele>806</ele>
        <time>2019-11-29T09:03:58.000Z</time>
      </trkpt>
      <trkpt lat="43.31517" lon="5.6843">
        <ele>806</ele>
        <time>2019-11-29T09:03:59.000Z</time>
      </trkpt>
      <trkpt lat="43.31518" lon="5.6843">
        <ele>806</ele>
        <time>2019-11-29T09:04:00.000Z</time>
      </trkpt>
      <trkpt lat="43.31518" lon="5.68431">
        <ele>806</ele>
        <time>2019-11-29T09:04:01.000Z</time>
      </trkpt>
      <trkpt lat="43.31519" lon="5.68431">
        <ele>807</ele>
        <time>2019-11-29T09:04:02.000Z</time>
      </trkpt>
      <trkpt lat="43.31519" lon="5.68431">
        <ele>807</ele>
        <time>2019-11-29T09:04:03.000Z</time>
      </trkpt>
      <trkpt lat="43.31519" lon="5.68431">
        <ele>807</ele>
        <time>2019-11-29T09:04:04.000Z</time>
      </trkpt>
      <trkpt lat="43.3152" lon="5.68432">
        <ele>807</ele>
        <time>2019-11-29T09:04:05.000Z</time>
      </trkpt>
      <trkpt lat="43.3152" lon="5.68432">
        <ele>807</ele>
        <time>2019-11-29T09:04:06.000Z</time>
      </trkpt>
      <trkpt lat="43.3152" lon="5.68432">
        <ele>807</ele>
        <time>2019-11-29T09:04:07.000Z</time>
      </trkpt>
      <trkpt lat="43.3152" lon="5.68432">
        <ele>807</ele>
        <time>2019-11-29T09:04:08.000Z</time>
      </trkpt>
      <trkpt lat="43.31521" lon="5.68433">
        <ele>807</ele>
        <time>2019-11-29T09:04:09.000Z</time>
      </trkpt>
      <trkpt lat="43.31521" lon="5.68433">
        <ele>807</ele>
        <time>2019-11-29T09:04:10.000Z</time>
      </trkpt>
      <trkpt lat="43.31522" lon="5.68434">
        <ele>807</ele>
        <time>2019-11-29T09:04:11.000Z</time>
      </trkpt>
      <trkpt lat="43.31522" lon="5.68434">
        <ele>807</ele>
        <time>2019-11-29T09:04:12.000Z</time>
      </trkpt>
      <trkpt lat="43.31522" lon="5.68434">
        <ele>807</ele>
        <time>2019-11-29T09:04:13.000Z</time>
      </trkpt>
      <trkpt lat="43.31522" lon="5.68435">
        <ele>808</ele>
        <time>2019-11-29T09:04:14.000Z</time>
      </trkpt>
      <trkpt lat="43.31522" lon="5.68436">
        <ele>808</ele>
        <time>2019-11-29T09:04:15.000Z</time>
      </trkpt>
      <trkpt lat="43.31522" lon="5.68436">
        <ele>808</ele>
        <time>2019-11-29T09:04:16.000Z</time>
      </trkpt>
      <trkpt lat="43.31523" lon="5.68436">
        <ele>808</ele>
        <time>2019-11-29T09:04:17.000Z</time>
      </trkpt>
      <trkpt lat="43.31523" lon="5.68437">
        <ele>808</ele>
        <time>2019-11-29T09:04:18.000Z</time>
      </trkpt>
      <trkpt lat="43.31523" lon="5.68438">
        <ele>808</ele>
        <time>2019-11-29T09:04:19.000Z</time>
      </trkpt>
      <trkpt lat="43.31523" lon="5.68438">
        <ele>809</ele>
        <time>2019-11-29T09:04:20.000Z</time>
      </trkpt>
      <trkpt lat="43.31523" lon="5.68439">
        <ele>809</ele>
        <time>2019-11-29T09:04:21.000Z</time>
      </trkpt>
      <trkpt lat="43.31524" lon="5.68439">
        <ele>809</ele>
        <time>2019-11-29T09:04:22.000Z</time>
      </trkpt>
      <trkpt lat="43.31524" lon="5.6844">
        <ele>809</ele>
        <time>2019-11-29T09:04:23.000Z</time>
      </trkpt>
      <trkpt lat="43.31523" lon="5.6844">
        <ele>809</ele>
        <time>2019-11-29T09:04:24.000Z</time>
      </trkpt>
      <trkpt lat="43.31523" lon="5.6844">
        <ele>809</ele>
        <time>2019-11-29T09:04:25.000Z</time>
      </trkpt>
      <trkpt lat="43.31523" lon="5.68441">
        <ele>810</ele>
        <time>2019-11-29T09:04:26.000Z</time>
      </trkpt>
      <trkpt lat="43.31523" lon="5.68441">
        <ele>810</ele>
        <time>2019-11-29T09:04:27.000Z</time>
      </trkpt>
      <trkpt lat="43.31523" lon="5.68441">
        <ele>810</ele>
        <time>2019-11-29T09:04:28.000Z</time>
      </trkpt>
      <trkpt lat="43.31523" lon="5.68441">
        <ele>810</ele>
        <time>2019-11-29T09:04:29.000Z</time>
      </trkpt>
      <trkpt lat="43.31523" lon="5.68441">
        <ele>810</ele>
        <time>2019-11-29T09:04:30.000Z</time>
      </trkpt>
      <trkpt lat="43.31523" lon="5.68441">
        <ele>810</ele>
        <time>2019-11-29T09:04:31.000Z</time>
      </trkpt>
      <trkpt lat="43.31523" lon="5.68441">
        <ele>810</ele>
        <time>2019-11-29T09:04:32.000Z</time>
      </trkpt>
      <trkpt lat="43.31523" lon="5.68441">
        <ele>810</ele>
        <time>2019-11-29T09:04:33.000Z</time>
      </trkpt>
      <trkpt lat="43.31522" lon="5.68441">
        <ele>810</ele>
        <time>2019-11-29T09:04:34.000Z</time>
      </trkpt>
      <trkpt lat="43.31522" lon="5.68441">
        <ele>810</ele>
        <time>2019-11-29T09:04:35.000Z</time>
      </trkpt>
      <trkpt lat="43.31522" lon="5.68441">
        <ele>810</ele>
        <time>2019-11-29T09:04:36.000Z</time>
      </trkpt>
      <trkpt lat="43.31522" lon="5.68441">
        <ele>810</ele>
        <time>2019-11-29T09:04:37.000Z</time>
      </trkpt>
      <trkpt lat="43.31522" lon="5.68442">
        <ele>810</ele>
        <time>2019-11-29T09:04:38.000Z</time>
      </trkpt>
      <trkpt lat="43.31522" lon="5.68442">
        <ele>810</ele>
        <time>2019-11-29T09:04:39.000Z</time>
      </trkpt>
      <trkpt lat="43.31522" lon="5.68442">
        <ele>810</ele>
        <time>2019-11-29T09:04:40.000Z</time>
      </trkpt>
      <trkpt lat="43.31522" lon="5.68442">
        <ele>810</ele>
        <time>2019-11-29T09:04:41.000Z</time>
      </trkpt>
      <trkpt lat="43.31522" lon="5.68442">
        <ele>810</ele>
        <time>2019-11-29T09:04:42.000Z</time>
      </trkpt>
      <trkpt lat="43.31522" lon="5.68442">
        <ele>810</ele>
        <time>2019-11-29T09:04:43.000Z</time>
      </trkpt>
      <trkpt lat="43.31522" lon="5.68442">
        <ele>810</ele>
        <time>2019-11-29T09:04:44.000Z</time>
      </trkpt>
      <trkpt lat="43.31522" lon="5.68442">
        <ele>810</ele>
        <time>2019-11-29T09:04:45.000Z</time>
      </trkpt>
      <trkpt lat="43.31522" lon="5.68442">
        <ele>810</ele>
        <time>2019-11-29T09:04:46.000Z</time>
      </trkpt>
      <trkpt lat="43.31523" lon="5.68443">
        <ele>810</ele>
        <time>2019-11-29T09:04:47.000Z</time>
      </trkpt>
      <trkpt lat="43.31523" lon="5.68444">
        <ele>810</ele>
        <time>2019-11-29T09:04:48.000Z</time>
      </trkpt>
      <trkpt lat="43.31523" lon="5.68445">
        <ele>811</ele>
        <time>2019-11-29T09:04:49.000Z</time>
      </trkpt>
      <trkpt lat="43.31524" lon="5.68445">
        <ele>811</ele>
        <time>2019-11-29T09:04:50.000Z</time>
      </trkpt>
      <trkpt lat="43.31524" lon="5.68446">
        <ele>811</ele>
        <time>2019-11-29T09:04:51.000Z</time>
      </trkpt>
      <trkpt lat="43.31524" lon="5.68447">
        <ele>811</ele>
        <time>2019-11-29T09:04:52.000Z</time>
      </trkpt>
      <trkpt lat="43.31524" lon="5.68447">
        <ele>811</ele>
        <time>2019-11-29T09:04:53.000Z</time>
      </trkpt>
      <trkpt lat="43.31525" lon="5.68448">
        <ele>811</ele>
        <time>2019-11-29T09:04:54.000Z</time>
      </trkpt>
      <trkpt lat="43.31525" lon="5.68449">
        <ele>811</ele>
        <time>2019-11-29T09:04:55.000Z</time>
      </trkpt>
      <trkpt lat="43.31525" lon="5.68449">
        <ele>812</ele>
        <time>2019-11-29T09:04:56.000Z</time>
      </trkpt>
      <trkpt lat="43.31526" lon="5.6845">
        <ele>812</ele>
        <time>2019-11-29T09:04:57.000Z</time>
      </trkpt>
      <trkpt lat="43.31526" lon="5.6845">
        <ele>812</ele>
        <time>2019-11-29T09:04:58.000Z</time>
      </trkpt>
      <trkpt lat="43.31527" lon="5.68451">
        <ele>812</ele>
        <time>2019-11-29T09:04:59.000Z</time>
      </trkpt>
      <trkpt lat="43.31527" lon="5.68451">
        <ele>812</ele>
        <time>2019-11-29T09:05:00.000Z</time>
      </trkpt>
      <trkpt lat="43.31527" lon="5.68452">
        <ele>812</ele>
        <time>2019-11-29T09:05:01.000Z</time>
      </trkpt>
      <trkpt lat="43.31527" lon="5.68453">
        <ele>812</ele>
        <time>2019-11-29T09:05:02.000Z</time>
      </trkpt>
      <trkpt lat="43.31528" lon="5.68453">
        <ele>812</ele>
        <time>2019-11-29T09:05:03.000Z</time>
      </trkpt>
      <trkpt lat="43.31528" lon="5.68454">
        <ele>813</ele>
        <time>2019-11-29T09:05:04.000Z</time>
      </trkpt>
      <trkpt lat="43.31528" lon="5.68454">
        <ele>813</ele>
        <time>2019-11-29T09:05:05.000Z</time>
      </trkpt>
      <trkpt lat="43.31529" lon="5.68454">
        <ele>813</ele>
        <time>2019-11-29T09:05:06.000Z</time>
      </trkpt>
      <trkpt lat="43.31529" lon="5.68455">
        <ele>813</ele>
        <time>2019-11-29T09:05:07.000Z</time>
      </trkpt>
      <trkpt lat="43.3153" lon="5.68455">
        <ele>813</ele>
        <time>2019-11-29T09:05:08.000Z</time>
      </trkpt>
      <trkpt lat="43.3153" lon="5.68455">
        <ele>813</ele>
        <time>2019-11-29T09:05:09.000Z</time>
      </trkpt>
      <trkpt lat="43.3153" lon="5.68455">
        <ele>814</ele>
        <time>2019-11-29T09:05:10.000Z</time>
      </trkpt>
      <trkpt lat="43.3153" lon="5.68455">
        <ele>814</ele>
        <time>2019-11-29T09:05:11.000Z</time>
      </trkpt>
      <trkpt lat="43.31531" lon="5.68456">
        <ele>814</ele>
        <time>2019-11-29T09:05:12.000Z</time>
      </trkpt>
      <trkpt lat="43.31531" lon="5.68457">
        <ele>814</ele>
        <time>2019-11-29T09:05:13.000Z</time>
      </trkpt>
      <trkpt lat="43.31531" lon="5.68457">
        <ele>814</ele>
        <time>2019-11-29T09:05:14.000Z</time>
      </trkpt>
      <trkpt lat="43.31531" lon="5.68458">
        <ele>814</ele>
        <time>2019-11-29T09:05:15.000Z</time>
      </trkpt>
      <trkpt lat="43.31531" lon="5.68458">
        <ele>814</ele>
        <time>2019-11-29T09:05:16.000Z</time>
      </trkpt>
      <trkpt lat="43.31532" lon="5.68459">
        <ele>814</ele>
        <time>2019-11-29T09:05:17.000Z</time>
      </trkpt>
      <trkpt lat="43.31532" lon="5.68459">
        <ele>815</ele>
        <time>2019-11-29T09:05:18.000Z</time>
      </trkpt>
      <trkpt lat="43.31532" lon="5.6846">
        <ele>815</ele>
        <time>2019-11-29T09:05:19.000Z</time>
      </trkpt>
      <trkpt lat="43.31533" lon="5.6846">
        <ele>815</ele>
        <time>2019-11-29T09:05:20.000Z</time>
      </trkpt>
      <trkpt lat="43.31533" lon="5.68461">
        <ele>815</ele>
        <time>2019-11-29T09:05:21.000Z</time>
      </trkpt>
      <trkpt lat="43.31533" lon="5.68461">
        <ele>815</ele>
        <time>2019-11-29T09:05:22.000Z</time>
      </trkpt>
      <trkpt lat="43.31533" lon="5.68462">
        <ele>815</ele>
        <time>2019-11-29T09:05:23.000Z</time>
      </trkpt>
      <trkpt lat="43.31533" lon="5.68463">
        <ele>815</ele>
        <time>2019-11-29T09:05:24.000Z</time>
      </trkpt>
      <trkpt lat="43.31533" lon="5.68463">
        <ele>815</ele>
        <time>2019-11-29T09:05:25.000Z</time>
      </trkpt>
      <trkpt lat="43.31534" lon="5.68464">
        <ele>816</ele>
        <time>2019-11-29T09:05:26.000Z</time>
      </trkpt>
      <trkpt lat="43.31534" lon="5.68464">
        <ele>816</ele>
        <time>2019-11-29T09:05:27.000Z</time>
      </trkpt>
      <trkpt lat="43.31534" lon="5.68465">
        <ele>816</ele>
        <time>2019-11-29T09:05:28.000Z</time>
      </trkpt>
      <trkpt lat="43.31534" lon="5.68465">
        <ele>816</ele>
        <time>2019-11-29T09:05:29.000Z</time>
      </trkpt>
      <trkpt lat="43.31534" lon="5.68466">
        <ele>816</ele>
        <time>2019-11-29T09:05:30.000Z</time>
      </trkpt>
      <trkpt lat="43.31535" lon="5.68466">
        <ele>816</ele>
        <time>2019-11-29T09:05:31.000Z</time>
      </trkpt>
      <trkpt lat="43.31535" lon="5.68467">
        <ele>817</ele>
        <time>2019-11-29T09:05:32.000Z</time>
      </trkpt>
      <trkpt lat="43.31535" lon="5.68467">
        <ele>817</ele>
        <time>2019-11-29T09:05:33.000Z</time>
      </trkpt>
      <trkpt lat="43.31535" lon="5.68468">
        <ele>817</ele>
        <time>2019-11-29T09:05:34.000Z</time>
      </trkpt>
      <trkpt lat="43.31536" lon="5.68468">
        <ele>817</ele>
        <time>2019-11-29T09:05:35.000Z</time>
      </trkpt>
      <trkpt lat="43.31536" lon="5.68469">
        <ele>817</ele>
        <time>2019-11-29T09:05:36.000Z</time>
      </trkpt>
      <trkpt lat="43.31536" lon="5.68469">
        <ele>818</ele>
        <time>2019-11-29T09:05:37.000Z</time>
      </trkpt>
      <trkpt lat="43.31536" lon="5.6847">
        <ele>818</ele>
        <time>2019-11-29T09:05:38.000Z</time>
      </trkpt>
      <trkpt lat="43.31537" lon="5.6847">
        <ele>818</ele>
        <time>2019-11-29T09:05:39.000Z</time>
      </trkpt>
      <trkpt lat="43.31537" lon="5.6847">
        <ele>818</ele>
        <time>2019-11-29T09:05:40.000Z</time>
      </trkpt>
      <trkpt lat="43.31537" lon="5.6847">
        <ele>818</ele>
        <time>2019-11-29T09:05:41.000Z</time>
      </trkpt>
      <trkpt lat="43.31538" lon="5.68471">
        <ele>818</ele>
        <time>2019-11-29T09:05:42.000Z</time>
      </trkpt>
      <trkpt lat="43.31538" lon="5.68471">
        <ele>818</ele>
        <time>2019-11-29T09:05:43.000Z</time>
      </trkpt>
      <trkpt lat="43.31538" lon="5.68472">
        <ele>819</ele>
        <time>2019-11-29T09:05:44.000Z</time>
      </trkpt>
      <trkpt lat="43.31539" lon="5.68473">
        <ele>819</ele>
        <time>2019-11-29T09:05:45.000Z</time>
      </trkpt>
      <trkpt lat="43.31539" lon="5.68474">
        <ele>819</ele>
        <time>2019-11-29T09:05:46.000Z</time>
      </trkpt>
      <trkpt lat="43.31539" lon="5.68474">
        <ele>819</ele>
        <time>2019-11-29T09:05:47.000Z</time>
      </trkpt>
      <trkpt lat="43.31539" lon="5.68475">
        <ele>819</ele>
        <time>2019-11-29T09:05:48.000Z</time>
      </trkpt>
      <trkpt lat="43.31539" lon="5.68475">
        <ele>819</ele>
        <time>2019-11-29T09:05:49.000Z</time>
      </trkpt>
      <trkpt lat="43.31539" lon="5.68476">
        <ele>819</ele>
        <time>2019-11-29T09:05:50.000Z</time>
      </trkpt>
      <trkpt lat="43.31539" lon="5.68476">
        <ele>819</ele>
        <time>2019-11-29T09:05:51.000Z</time>
      </trkpt>
      <trkpt lat="43.31539" lon="5.68477">
        <ele>820</ele>
        <time>2019-11-29T09:05:52.000Z</time>
      </trkpt>
      <trkpt lat="43.31539" lon="5.68477">
        <ele>820</ele>
        <time>2019-11-29T09:05:53.000Z</time>
      </trkpt>
      <trkpt lat="43.31539" lon="5.68478">
        <ele>820</ele>
        <time>2019-11-29T09:05:54.000Z</time>
      </trkpt>
      <trkpt lat="43.31539" lon="5.68479">
        <ele>820</ele>
        <time>2019-11-29T09:05:55.000Z</time>
      </trkpt>
      <trkpt lat="43.3154" lon="5.68479">
        <ele>821</ele>
        <time>2019-11-29T09:05:56.000Z</time>
      </trkpt>
      <trkpt lat="43.3154" lon="5.68479">
        <ele>821</ele>
        <time>2019-11-29T09:05:57.000Z</time>
      </trkpt>
      <trkpt lat="43.3154" lon="5.6848">
        <ele>821</ele>
        <time>2019-11-29T09:05:58.000Z</time>
      </trkpt>
      <trkpt lat="43.31541" lon="5.6848">
        <ele>821</ele>
        <time>2019-11-29T09:05:59.000Z</time>
      </trkpt>
      <trkpt lat="43.31541" lon="5.68481">
        <ele>821</ele>
        <time>2019-11-29T09:06:00.000Z</time>
      </trkpt>
      <trkpt lat="43.31541" lon="5.68481">
        <ele>821</ele>
        <time>2019-11-29T09:06:01.000Z</time>
      </trkpt>
      <trkpt lat="43.31541" lon="5.68481">
        <ele>822</ele>
        <time>2019-11-29T09:06:02.000Z</time>
      </trkpt>
      <trkpt lat="43.31542" lon="5.68482">
        <ele>822</ele>
        <time>2019-11-29T09:06:03.000Z</time>
      </trkpt>
      <trkpt lat="43.31542" lon="5.68482">
        <ele>822</ele>
        <time>2019-11-29T09:06:04.000Z</time>
      </trkpt>
      <trkpt lat="43.31542" lon="5.68483">
        <ele>822</ele>
        <time>2019-11-29T09:06:05.000Z</time>
      </trkpt>
      <trkpt lat="43.31542" lon="5.68483">
        <ele>822</ele>
        <time>2019-11-29T09:06:06.000Z</time>
      </trkpt>
      <trkpt lat="43.31542" lon="5.68484">
        <ele>822</ele>
        <time>2019-11-29T09:06:07.000Z</time>
      </trkpt>
      <trkpt lat="43.31542" lon="5.68485">
        <ele>822</ele>
        <time>2019-11-29T09:06:08.000Z</time>
      </trkpt>
      <trkpt lat="43.31543" lon="5.68485">
        <ele>822</ele>
        <time>2019-11-29T09:06:09.000Z</time>
      </trkpt>
      <trkpt lat="43.31543" lon="5.68486">
        <ele>822</ele>
        <time>2019-11-29T09:06:10.000Z</time>
      </trkpt>
      <trkpt lat="43.31543" lon="5.68486">
        <ele>822</ele>
        <time>2019-11-29T09:06:11.000Z</time>
      </trkpt>
      <trkpt lat="43.31543" lon="5.68487">
        <ele>822</ele>
        <time>2019-11-29T09:06:12.000Z</time>
      </trkpt>
      <trkpt lat="43.31543" lon="5.68487">
        <ele>823</ele>
        <time>2019-11-29T09:06:13.000Z</time>
      </trkpt>
      <trkpt lat="43.31544" lon="5.68487">
        <ele>823</ele>
        <time>2019-11-29T09:06:14.000Z</time>
      </trkpt>
      <trkpt lat="43.31544" lon="5.68488">
        <ele>823</ele>
        <time>2019-11-29T09:06:15.000Z</time>
      </trkpt>
      <trkpt lat="43.31544" lon="5.68489">
        <ele>823</ele>
        <time>2019-11-29T09:06:16.000Z</time>
      </trkpt>
      <trkpt lat="43.31544" lon="5.68489">
        <ele>823</ele>
        <time>2019-11-29T09:06:17.000Z</time>
      </trkpt>
      <trkpt lat="43.31544" lon="5.68489">
        <ele>824</ele>
        <time>2019-11-29T09:06:18.000Z</time>
      </trkpt>
      <trkpt lat="43.31545" lon="5.6849">
        <ele>824</ele>
        <time>2019-11-29T09:06:19.000Z</time>
      </trkpt>
      <trkpt lat="43.31545" lon="5.6849">
        <ele>824</ele>
        <time>2019-11-29T09:06:20.000Z</time>
      </trkpt>
      <trkpt lat="43.31545" lon="5.6849">
        <ele>824</ele>
        <time>2019-11-29T09:06:21.000Z</time>
      </trkpt>
      <trkpt lat="43.31546" lon="5.68491">
        <ele>824</ele>
        <time>2019-11-29T09:06:22.000Z</time>
      </trkpt>
      <trkpt lat="43.31546" lon="5.68491">
        <ele>824</ele>
        <time>2019-11-29T09:06:23.000Z</time>
      </trkpt>
      <trkpt lat="43.31546" lon="5.68491">
        <ele>825</ele>
        <time>2019-11-29T09:06:24.000Z</time>
      </trkpt>
      <trkpt lat="43.31546" lon="5.68491">
        <ele>825</ele>
        <time>2019-11-29T09:06:25.000Z</time>
      </trkpt>
      <trkpt lat="43.31546" lon="5.68491">
        <ele>825</ele>
        <time>2019-11-29T09:06:26.000Z</time>
      </trkpt>
      <trkpt lat="43.31546" lon="5.68492">
        <ele>825</ele>
        <time>2019-11-29T09:06:27.000Z</time>
      </trkpt>
      <trkpt lat="43.31546" lon="5.68492">
        <ele>825</ele>
        <time>2019-11-29T09:06:28.000Z</time>
      </trkpt>
      <trkpt lat="43.31547" lon="5.68493">
        <ele>825</ele>
        <time>2019-11-29T09:06:29.000Z</time>
      </trkpt>
      <trkpt lat="43.31547" lon="5.68493">
        <ele>825</ele>
        <time>2019-11-29T09:06:30.000Z</time>
      </trkpt>
      <trkpt lat="43.31547" lon="5.68493">
        <ele>825</ele>
        <time>2019-11-29T09:06:31.000Z</time>
      </trkpt>
      <trkpt lat="43.31547" lon="5.68493">
        <ele>825</ele>
        <time>2019-11-29T09:06:32.000Z</time>
      </trkpt>
      <trkpt lat="43.31547" lon="5.68493">
        <ele>825</ele>
        <time>2019-11-29T09:06:33.000Z</time>
      </trkpt>
      <trkpt lat="43.31547" lon="5.68494">
        <ele>825</ele>
        <time>2019-11-29T09:06:34.000Z</time>
      </trkpt>
      <trkpt lat="43.31547" lon="5.68494">
        <ele>826</ele>
        <time>2019-11-29T09:06:35.000Z</time>
      </trkpt>
      <trkpt lat="43.31547" lon="5.68494">
        <ele>826</ele>
        <time>2019-11-29T09:06:36.000Z</time>
      </trkpt>
      <trkpt lat="43.31547" lon="5.68493">
        <ele>826</ele>
        <time>2019-11-29T09:06:37.000Z</time>
      </trkpt>
      <trkpt lat="43.31547" lon="5.68493">
        <ele>826</ele>
        <time>2019-11-29T09:06:38.000Z</time>
      </trkpt>
      <trkpt lat="43.31547" lon="5.68494">
        <ele>826</ele>
        <time>2019-11-29T09:06:39.000Z</time>
      </trkpt>
      <trkpt lat="43.31547" lon="5.68494">
        <ele>826</ele>
        <time>2019-11-29T09:06:40.000Z</time>
      </trkpt>
      <trkpt lat="43.31547" lon="5.68494">
        <ele>826</ele>
        <time>2019-11-29T09:06:41.000Z</time>
      </trkpt>
      <trkpt lat="43.31547" lon="5.68494">
        <ele>826</ele>
        <time>2019-11-29T09:06:42.000Z</time>
      </trkpt>
      <trkpt lat="43.31547" lon="5.68494">
        <ele>826</ele>
        <time>2019-11-29T09:06:43.000Z</time>
      </trkpt>
      <trkpt lat="43.31547" lon="5.68494">
        <ele>826</ele>
        <time>2019-11-29T09:06:44.000Z</time>
      </trkpt>
      <trkpt lat="43.31547" lon="5.68494">
        <ele>826</ele>
        <time>2019-11-29T09:06:45.000Z</time>
      </trkpt>
      <trkpt lat="43.31547" lon="5.68494">
        <ele>826</ele>
        <time>2019-11-29T09:06:46.000Z</time>
      </trkpt>
      <trkpt lat="43.31547" lon="5.68494">
        <ele>826</ele>
        <time>2019-11-29T09:06:47.000Z</time>
      </trkpt>
      <trkpt lat="43.31547" lon="5.68494">
        <ele>826</ele>
        <time>2019-11-29T09:06:48.000Z</time>
      </trkpt>
      <trkpt lat="43.31547" lon="5.68494">
        <ele>826</ele>
        <time>2019-11-29T09:06:49.000Z</time>
      </trkpt>
      <trkpt lat="43.31547" lon="5.68494">
        <ele>826</ele>
        <time>2019-11-29T09:06:50.000Z</time>
      </trkpt>
      <trkpt lat="43.31547" lon="5.68494">
        <ele>826</ele>
        <time>2019-11-29T09:06:51.000Z</time>
      </trkpt>
      <trkpt lat="43.31547" lon="5.68494">
        <ele>826</ele>
        <time>2019-11-29T09:06:52.000Z</time>
      </trkpt>
      <trkpt lat="43.31548" lon="5.68494">
        <ele>826</ele>
        <time>2019-11-29T09:06:53.000Z</time>
      </trkpt>
      <trkpt lat="43.31548" lon="5.68494">
        <ele>826</ele>
        <time>2019-11-29T09:06:54.000Z</time>
      </trkpt>
      <trkpt lat="43.31548" lon="5.68494">
        <ele>826</ele>
        <time>2019-11-29T09:06:55.000Z</time>
      </trkpt>
      <trkpt lat="43.31548" lon="5.68494">
        <ele>826</ele>
        <time>2019-11-29T09:06:56.000Z</time>
      </trkpt>
      <trkpt lat="43.31548" lon="5.68494">
        <ele>826</ele>
        <time>2019-11-29T09:06:57.000Z</time>
      </trkpt>
      <trkpt lat="43.31548" lon="5.68494">
        <ele>826</ele>
        <time>2019-11-29T09:06:58.000Z</time>
      </trkpt>
      <trkpt lat="43.31548" lon="5.68494">
        <ele>826</ele>
        <time>2019-11-29T09:06:59.000Z</time>
      </trkpt>
      <trkpt lat="43.31548" lon="5.68494">
        <ele>826</ele>
        <time>2019-11-29T09:07:00.000Z</time>
      </trkpt>
      <trkpt lat="43.31548" lon="5.68494">
        <ele>827</ele>
        <time>2019-11-29T09:07:01.000Z</time>
      </trkpt>
      <trkpt lat="43.31548" lon="5.68494">
        <ele>827</ele>
        <time>2019-11-29T09:07:02.000Z</time>
      </trkpt>
      <trkpt lat="43.31548" lon="5.68494">
        <ele>827</ele>
        <time>2019-11-29T09:07:03.000Z</time>
      </trkpt>
      <trkpt lat="43.31548" lon="5.68494">
        <ele>827</ele>
        <time>2019-11-29T09:07:04.000Z</time>
      </trkpt>
      <trkpt lat="43.31548" lon="5.68495">
        <ele>827</ele>
        <time>2019-11-29T09:07:05.000Z</time>
      </trkpt>
      <trkpt lat="43.31548" lon="5.68495">
        <ele>827</ele>
        <time>2019-11-29T09:07:06.000Z</time>
      </trkpt>
      <trkpt lat="43.31548" lon="5.68495">
        <ele>827</ele>
        <time>2019-11-29T09:07:07.000Z</time>
      </trkpt>
      <trkpt lat="43.31548" lon="5.68495">
        <ele>827</ele>
        <time>2019-11-29T09:07:08.000Z</time>
      </trkpt>
      <trkpt lat="43.31549" lon="5.68495">
        <ele>827</ele>
        <time>2019-11-29T09:07:09.000Z</time>
      </trkpt>
      <trkpt lat="43.31549" lon="5.68494">
        <ele>827</ele>
        <time>2019-11-29T09:07:10.000Z</time>
      </trkpt>
      <trkpt lat="43.31549" lon="5.68495">
        <ele>827</ele>
        <time>2019-11-29T09:07:11.000Z</time>
      </trkpt>
      <trkpt lat="43.31549" lon="5.68495">
        <ele>827</ele>
        <time>2019-11-29T09:07:12.000Z</time>
      </trkpt>
      <trkpt lat="43.31549" lon="5.68495">
        <ele>827</ele>
        <time>2019-11-29T09:07:13.000Z</time>
      </trkpt>
      <trkpt lat="43.31549" lon="5.68495">
        <ele>827</ele>
        <time>2019-11-29T09:07:14.000Z</time>
      </trkpt>
      <trkpt lat="43.31549" lon="5.68495">
        <ele>827</ele>
        <time>2019-11-29T09:07:15.000Z</time>
      </trkpt>
      <trkpt lat="43.31549" lon="5.68495">
        <ele>827</ele>
        <time>2019-11-29T09:07:16.000Z</time>
      </trkpt>
      <trkpt lat="43.31549" lon="5.68495">
        <ele>827</ele>
        <time>2019-11-29T09:07:17.000Z</time>
      </trkpt>
      <trkpt lat="43.31549" lon="5.68495">
        <ele>827</ele>
        <time>2019-11-29T09:07:18.000Z</time>
      </trkpt>
      <trkpt lat="43.31549" lon="5.68495">
        <ele>827</ele>
        <time>2019-11-29T09:07:19.000Z</time>
      </trkpt>
      <trkpt lat="43.31549" lon="5.68495">
        <ele>827</ele>
        <time>2019-11-29T09:07:20.000Z</time>
      </trkpt>
      <trkpt lat="43.31549" lon="5.68495">
        <ele>827</ele>
        <time>2019-11-29T09:07:21.000Z</time>
      </trkpt>
      <trkpt lat="43.31549" lon="5.68495">
        <ele>827</ele>
        <time>2019-11-29T09:07:22.000Z</time>
      </trkpt>
      <trkpt lat="43.31549" lon="5.68495">
        <ele>827</ele>
        <time>2019-11-29T09:07:23.000Z</time>
      </trkpt>
      <trkpt lat="43.31549" lon="5.68495">
        <ele>827</ele>
        <time>2019-11-29T09:07:24.000Z</time>
      </trkpt>
      <trkpt lat="43.31548" lon="5.68495">
        <ele>827</ele>
        <time>2019-11-29T09:07:25.000Z</time>
      </trkpt>
      <trkpt lat="43.31548" lon="5.68495">
        <ele>827</ele>
        <time>2019-11-29T09:07:26.000Z</time>
      </trkpt>
      <trkpt lat="43.31548" lon="5.68495">
        <ele>827</ele>
        <time>2019-11-29T09:07:27.000Z</time>
      </trkpt>
      <trkpt lat="43.31549" lon="5.68495">
        <ele>827</ele>
        <time>2019-11-29T09:07:28.000Z</time>
      </trkpt>
      <trkpt lat="43.31549" lon="5.68495">
        <ele>827</ele>
        <time>2019-11-29T09:07:29.000Z</time>
      </trkpt>
      <trkpt lat="43.31549" lon="5.68496">
        <ele>827</ele>
        <time>2019-11-29T09:07:30.000Z</time>
      </trkpt>
      <trkpt lat="43.31549" lon="5.68496">
        <ele>827</ele>
        <time>2019-11-29T09:07:31.000Z</time>
      </trkpt>
      <trkpt lat="43.3155" lon="5.68496">
        <ele>827</ele>
        <time>2019-11-29T09:07:32.000Z</time>
      </trkpt>
      <trkpt lat="43.3155" lon="5.68497">
        <ele>828</ele>
        <time>2019-11-29T09:07:33.000Z</time>
      </trkpt>
      <trkpt lat="43.31551" lon="5.68497">
        <ele>828</ele>
        <time>2019-11-29T09:07:34.000Z</time>
      </trkpt>
      <trkpt lat="43.31551" lon="5.68498">
        <ele>828</ele>
        <time>2019-11-29T09:07:35.000Z</time>
      </trkpt>
      <trkpt lat="43.31551" lon="5.68498">
        <ele>828</ele>
        <time>2019-11-29T09:07:36.000Z</time>
      </trkpt>
      <trkpt lat="43.31551" lon="5.68499">
        <ele>828</ele>
        <time>2019-11-29T09:07:37.000Z</time>
      </trkpt>
      <trkpt lat="43.31552" lon="5.68499">
        <ele>828</ele>
        <time>2019-11-29T09:07:38.000Z</time>
      </trkpt>
      <trkpt lat="43.31552" lon="5.68499">
        <ele>828</ele>
        <time>2019-11-29T09:07:39.000Z</time>
      </trkpt>
      <trkpt lat="43.31552" lon="5.68499">
        <ele>828</ele>
        <time>2019-11-29T09:07:40.000Z</time>
      </trkpt>
      <trkpt lat="43.31553" lon="5.685">
        <ele>828</ele>
        <time>2019-11-29T09:07:41.000Z</time>
      </trkpt>
      <trkpt lat="43.31553" lon="5.68501">
        <ele>828</ele>
        <time>2019-11-29T09:07:42.000Z</time>
      </trkpt>
      <trkpt lat="43.31553" lon="5.68501">
        <ele>829</ele>
        <time>2019-11-29T09:07:43.000Z</time>
      </trkpt>
      <trkpt lat="43.31553" lon="5.68502">
        <ele>829</ele>
        <time>2019-11-29T09:07:44.000Z</time>
      </trkpt>
      <trkpt lat="43.31553" lon="5.68502">
        <ele>829</ele>
        <time>2019-11-29T09:07:45.000Z</time>
      </trkpt>
      <trkpt lat="43.31554" lon="5.68502">
        <ele>829</ele>
        <time>2019-11-29T09:07:46.000Z</time>
      </trkpt>
      <trkpt lat="43.31554" lon="5.68503">
        <ele>829</ele>
        <time>2019-11-29T09:07:47.000Z</time>
      </trkpt>
      <trkpt lat="43.31554" lon="5.68503">
        <ele>829</ele>
        <time>2019-11-29T09:07:48.000Z</time>
      </trkpt>
      <trkpt lat="43.31554" lon="5.68504">
        <ele>830</ele>
        <time>2019-11-29T09:07:49.000Z</time>
      </trkpt>
      <trkpt lat="43.31555" lon="5.68504">
        <ele>830</ele>
        <time>2019-11-29T09:07:50.000Z</time>
      </trkpt>
      <trkpt lat="43.31555" lon="5.68505">
        <ele>830</ele>
        <time>2019-11-29T09:07:51.000Z</time>
      </trkpt>
      <trkpt lat="43.31555" lon="5.68505">
        <ele>830</ele>
        <time>2019-11-29T09:07:52.000Z</time>
      </trkpt>
      <trkpt lat="43.31556" lon="5.68505">
        <ele>830</ele>
        <time>2019-11-29T09:07:53.000Z</time>
      </trkpt>
      <trkpt lat="43.31556" lon="5.68506">
        <ele>830</ele>
        <time>2019-11-29T09:07:54.000Z</time>
      </trkpt>
      <trkpt lat="43.31557" lon="5.68506">
        <ele>830</ele>
        <time>2019-11-29T09:07:55.000Z</time>
      </trkpt>
      <trkpt lat="43.31557" lon="5.68507">
        <ele>831</ele>
        <time>2019-11-29T09:07:56.000Z</time>
      </trkpt>
      <trkpt lat="43.31557" lon="5.68507">
        <ele>831</ele>
        <time>2019-11-29T09:07:57.000Z</time>
      </trkpt>
      <trkpt lat="43.31558" lon="5.68507">
        <ele>831</ele>
        <time>2019-11-29T09:07:58.000Z</time>
      </trkpt>
      <trkpt lat="43.31558" lon="5.68508">
        <ele>831</ele>
        <time>2019-11-29T09:07:59.000Z</time>
      </trkpt>
      <trkpt lat="43.31558" lon="5.68508">
        <ele>831</ele>
        <time>2019-11-29T09:08:00.000Z</time>
      </trkpt>
      <trkpt lat="43.31559" lon="5.68508">
        <ele>831</ele>
        <time>2019-11-29T09:08:01.000Z</time>
      </trkpt>
      <trkpt lat="43.31559" lon="5.68508">
        <ele>832</ele>
        <time>2019-11-29T09:08:02.000Z</time>
      </trkpt>
      <trkpt lat="43.3156" lon="5.68508">
        <ele>832</ele>
        <time>2019-11-29T09:08:03.000Z</time>
      </trkpt>
      <trkpt lat="43.3156" lon="5.68509">
        <ele>832</ele>
        <time>2019-11-29T09:08:04.000Z</time>
      </trkpt>
      <trkpt lat="43.3156" lon="5.68509">
        <ele>832</ele>
        <time>2019-11-29T09:08:05.000Z</time>
      </trkpt>
      <trkpt lat="43.3156" lon="5.6851">
        <ele>832</ele>
        <time>2019-11-29T09:08:06.000Z</time>
      </trkpt>
      <trkpt lat="43.3156" lon="5.6851">
        <ele>832</ele>
        <time>2019-11-29T09:08:07.000Z</time>
      </trkpt>
      <trkpt lat="43.31561" lon="5.68511">
        <ele>832</ele>
        <time>2019-11-29T09:08:08.000Z</time>
      </trkpt>
      <trkpt lat="43.31561" lon="5.68512">
        <ele>832</ele>
        <time>2019-11-29T09:08:09.000Z</time>
      </trkpt>
      <trkpt lat="43.31561" lon="5.68512">
        <ele>832</ele>
        <time>2019-11-29T09:08:10.000Z</time>
      </trkpt>
      <trkpt lat="43.31561" lon="5.68512">
        <ele>833</ele>
        <time>2019-11-29T09:08:11.000Z</time>
      </trkpt>
      <trkpt lat="43.31561" lon="5.68513">
        <ele>833</ele>
        <time>2019-11-29T09:08:12.000Z</time>
      </trkpt>
      <trkpt lat="43.31562" lon="5.68513">
        <ele>833</ele>
        <time>2019-11-29T09:08:13.000Z</time>
      </trkpt>
      <trkpt lat="43.31563" lon="5.68513">
        <ele>833</ele>
        <time>2019-11-29T09:08:14.000Z</time>
      </trkpt>
      <trkpt lat="43.31563" lon="5.68514">
        <ele>833</ele>
        <time>2019-11-29T09:08:15.000Z</time>
      </trkpt>
      <trkpt lat="43.31564" lon="5.68514">
        <ele>833</ele>
        <time>2019-11-29T09:08:16.000Z</time>
      </trkpt>
      <trkpt lat="43.31564" lon="5.68515">
        <ele>833</ele>
        <time>2019-11-29T09:08:17.000Z</time>
      </trkpt>
      <trkpt lat="43.31564" lon="5.68515">
        <ele>834</ele>
        <time>2019-11-29T09:08:18.000Z</time>
      </trkpt>
      <trkpt lat="43.31564" lon="5.68515">
        <ele>834</ele>
        <time>2019-11-29T09:08:19.000Z</time>
      </trkpt>
      <trkpt lat="43.31565" lon="5.68516">
        <ele>834</ele>
        <time>2019-11-29T09:08:20.000Z</time>
      </trkpt>
      <trkpt lat="43.31565" lon="5.68516">
        <ele>834</ele>
        <time>2019-11-29T09:08:21.000Z</time>
      </trkpt>
      <trkpt lat="43.31566" lon="5.68516">
        <ele>835</ele>
        <time>2019-11-29T09:08:22.000Z</time>
      </trkpt>
      <trkpt lat="43.31566" lon="5.68516">
        <ele>835</ele>
        <time>2019-11-29T09:08:23.000Z</time>
      </trkpt>
      <trkpt lat="43.31567" lon="5.68516">
        <ele>835</ele>
        <time>2019-11-29T09:08:24.000Z</time>
      </trkpt>
      <trkpt lat="43.31567" lon="5.68516">
        <ele>835</ele>
        <time>2019-11-29T09:08:25.000Z</time>
      </trkpt>
      <trkpt lat="43.31568" lon="5.68516">
        <ele>835</ele>
        <time>2019-11-29T09:08:26.000Z</time>
      </trkpt>
      <trkpt lat="43.31568" lon="5.68517">
        <ele>835</ele>
        <time>2019-11-29T09:08:27.000Z</time>
      </trkpt>
      <trkpt lat="43.31568" lon="5.68517">
        <ele>836</ele>
        <time>2019-11-29T09:08:28.000Z</time>
      </trkpt>
      <trkpt lat="43.31568" lon="5.68517">
        <ele>836</ele>
        <time>2019-11-29T09:08:29.000Z</time>
      </trkpt>
      <trkpt lat="43.31569" lon="5.68518">
        <ele>836</ele>
        <time>2019-11-29T09:08:30.000Z</time>
      </trkpt>
      <trkpt lat="43.31569" lon="5.68518">
        <ele>836</ele>
        <time>2019-11-29T09:08:31.000Z</time>
      </trkpt>
      <trkpt lat="43.31569" lon="5.68518">
        <ele>836</ele>
        <time>2019-11-29T09:08:32.000Z</time>
      </trkpt>
      <trkpt lat="43.3157" lon="5.68518">
        <ele>836</ele>
        <time>2019-11-29T09:08:33.000Z</time>
      </trkpt>
      <trkpt lat="43.3157" lon="5.68519">
        <ele>837</ele>
        <time>2019-11-29T09:08:34.000Z</time>
      </trkpt>
      <trkpt lat="43.3157" lon="5.6852">
        <ele>837</ele>
        <time>2019-11-29T09:08:35.000Z</time>
      </trkpt>
      <trkpt lat="43.3157" lon="5.6852">
        <ele>837</ele>
        <time>2019-11-29T09:08:36.000Z</time>
      </trkpt>
      <trkpt lat="43.3157" lon="5.68521">
        <ele>837</ele>
        <time>2019-11-29T09:08:37.000Z</time>
      </trkpt>
      <trkpt lat="43.3157" lon="5.68522">
        <ele>837</ele>
        <time>2019-11-29T09:08:38.000Z</time>
      </trkpt>
      <trkpt lat="43.3157" lon="5.68523">
        <ele>837</ele>
        <time>2019-11-29T09:08:39.000Z</time>
      </trkpt>
      <trkpt lat="43.3157" lon="5.68523">
        <ele>838</ele>
        <time>2019-11-29T09:08:40.000Z</time>
      </trkpt>
      <trkpt lat="43.3157" lon="5.68524">
        <ele>838</ele>
        <time>2019-11-29T09:08:41.000Z</time>
      </trkpt>
      <trkpt lat="43.3157" lon="5.68524">
        <ele>838</ele>
        <time>2019-11-29T09:08:42.000Z</time>
      </trkpt>
      <trkpt lat="43.3157" lon="5.68525">
        <ele>838</ele>
        <time>2019-11-29T09:08:43.000Z</time>
      </trkpt>
      <trkpt lat="43.3157" lon="5.68525">
        <ele>838</ele>
        <time>2019-11-29T09:08:44.000Z</time>
      </trkpt>
      <trkpt lat="43.3157" lon="5.68526">
        <ele>839</ele>
        <time>2019-11-29T09:08:45.000Z</time>
      </trkpt>
      <trkpt lat="43.31571" lon="5.68526">
        <ele>839</ele>
        <time>2019-11-29T09:08:46.000Z</time>
      </trkpt>
      <trkpt lat="43.31571" lon="5.68527">
        <ele>839</ele>
        <time>2019-11-29T09:08:47.000Z</time>
      </trkpt>
      <trkpt lat="43.31572" lon="5.68527">
        <ele>839</ele>
        <time>2019-11-29T09:08:48.000Z</time>
      </trkpt>
      <trkpt lat="43.31572" lon="5.68528">
        <ele>839</ele>
        <time>2019-11-29T09:08:49.000Z</time>
      </trkpt>
      <trkpt lat="43.31572" lon="5.68528">
        <ele>840</ele>
        <time>2019-11-29T09:08:50.000Z</time>
      </trkpt>
      <trkpt lat="43.31572" lon="5.68529">
        <ele>840</ele>
        <time>2019-11-29T09:08:51.000Z</time>
      </trkpt>
      <trkpt lat="43.31573" lon="5.6853">
        <ele>840</ele>
        <time>2019-11-29T09:08:52.000Z</time>
      </trkpt>
      <trkpt lat="43.31573" lon="5.6853">
        <ele>840</ele>
        <time>2019-11-29T09:08:53.000Z</time>
      </trkpt>
      <trkpt lat="43.31573" lon="5.68531">
        <ele>840</ele>
        <time>2019-11-29T09:08:54.000Z</time>
      </trkpt>
      <trkpt lat="43.31573" lon="5.68531">
        <ele>840</ele>
        <time>2019-11-29T09:08:55.000Z</time>
      </trkpt>
      <trkpt lat="43.31573" lon="5.68532">
        <ele>840</ele>
        <time>2019-11-29T09:08:56.000Z</time>
      </trkpt>
      <trkpt lat="43.31573" lon="5.68532">
        <ele>840</ele>
        <time>2019-11-29T09:08:57.000Z</time>
      </trkpt>
      <trkpt lat="43.31573" lon="5.68533">
        <ele>840</ele>
        <time>2019-11-29T09:08:58.000Z</time>
      </trkpt>
      <trkpt lat="43.31573" lon="5.68533">
        <ele>840</ele>
        <time>2019-11-29T09:08:59.000Z</time>
      </trkpt>
      <trkpt lat="43.31574" lon="5.68534">
        <ele>840</ele>
        <time>2019-11-29T09:09:00.000Z</time>
      </trkpt>
      <trkpt lat="43.31574" lon="5.68534">
        <ele>840</ele>
        <time>2019-11-29T09:09:01.000Z</time>
      </trkpt>
      <trkpt lat="43.31574" lon="5.68535">
        <ele>840</ele>
        <time>2019-11-29T09:09:02.000Z</time>
      </trkpt>
      <trkpt lat="43.31574" lon="5.68535">
        <ele>840</ele>
        <time>2019-11-29T09:09:03.000Z</time>
      </trkpt>
      <trkpt lat="43.31575" lon="5.68535">
        <ele>840</ele>
        <time>2019-11-29T09:09:04.000Z</time>
      </trkpt>
      <trkpt lat="43.31575" lon="5.68536">
        <ele>841</ele>
        <time>2019-11-29T09:09:05.000Z</time>
      </trkpt>
      <trkpt lat="43.31576" lon="5.68536">
        <ele>841</ele>
        <time>2019-11-29T09:09:06.000Z</time>
      </trkpt>
      <trkpt lat="43.31576" lon="5.68536">
        <ele>841</ele>
        <time>2019-11-29T09:09:07.000Z</time>
      </trkpt>
      <trkpt lat="43.31576" lon="5.68536">
        <ele>841</ele>
        <time>2019-11-29T09:09:08.000Z</time>
      </trkpt>
      <trkpt lat="43.31576" lon="5.68536">
        <ele>841</ele>
        <time>2019-11-29T09:09:09.000Z</time>
      </trkpt>
      <trkpt lat="43.31576" lon="5.68536">
        <ele>841</ele>
        <time>2019-11-29T09:09:10.000Z</time>
      </trkpt>
      <trkpt lat="43.31576" lon="5.68536">
        <ele>842</ele>
        <time>2019-11-29T09:09:11.000Z</time>
      </trkpt>
      <trkpt lat="43.31576" lon="5.68537">
        <ele>842</ele>
        <time>2019-11-29T09:09:12.000Z</time>
      </trkpt>
      <trkpt lat="43.31576" lon="5.68537">
        <ele>842</ele>
        <time>2019-11-29T09:09:13.000Z</time>
      </trkpt>
      <trkpt lat="43.31576" lon="5.68537">
        <ele>842</ele>
        <time>2019-11-29T09:09:14.000Z</time>
      </trkpt>
      <trkpt lat="43.31576" lon="5.68537">
        <ele>842</ele>
        <time>2019-11-29T09:09:15.000Z</time>
      </trkpt>
      <trkpt lat="43.31576" lon="5.68537">
        <ele>842</ele>
        <time>2019-11-29T09:09:16.000Z</time>
      </trkpt>
      <trkpt lat="43.31576" lon="5.68537">
        <ele>842</ele>
        <time>2019-11-29T09:09:17.000Z</time>
      </trkpt>
      <trkpt lat="43.31576" lon="5.68537">
        <ele>842</ele>
        <time>2019-11-29T09:09:18.000Z</time>
      </trkpt>
      <trkpt lat="43.31576" lon="5.68537">
        <ele>842</ele>
        <time>2019-11-29T09:09:19.000Z</time>
      </trkpt>
      <trkpt lat="43.31576" lon="5.68537">
        <ele>842</ele>
        <time>2019-11-29T09:09:20.000Z</time>
      </trkpt>
      <trkpt lat="43.31576" lon="5.68537">
        <ele>842</ele>
        <time>2019-11-29T09:09:21.000Z</time>
      </trkpt>
      <trkpt lat="43.31576" lon="5.68537">
        <ele>842</ele>
        <time>2019-11-29T09:09:22.000Z</time>
      </trkpt>
      <trkpt lat="43.31576" lon="5.68537">
        <ele>842</ele>
        <time>2019-11-29T09:09:23.000Z</time>
      </trkpt>
      <trkpt lat="43.31576" lon="5.68537">
        <ele>842</ele>
        <time>2019-11-29T09:09:24.000Z</time>
      </trkpt>
      <trkpt lat="43.31576" lon="5.68537">
        <ele>842</ele>
        <time>2019-11-29T09:09:25.000Z</time>
      </trkpt>
      <trkpt lat="43.31576" lon="5.68537">
        <ele>842</ele>
        <time>2019-11-29T09:09:26.000Z</time>
      </trkpt>
      <trkpt lat="43.31576" lon="5.68537">
        <ele>843</ele>
        <time>2019-11-29T09:09:27.000Z</time>
      </trkpt>
      <trkpt lat="43.31576" lon="5.68537">
        <ele>843</ele>
        <time>2019-11-29T09:09:28.000Z</time>
      </trkpt>
      <trkpt lat="43.31576" lon="5.68537">
        <ele>843</ele>
        <time>2019-11-29T09:09:29.000Z</time>
      </trkpt>
      <trkpt lat="43.31576" lon="5.68537">
        <ele>843</ele>
        <time>2019-11-29T09:09:30.000Z</time>
      </trkpt>
      <trkpt lat="43.31576" lon="5.68537">
        <ele>843</ele>
        <time>2019-11-29T09:09:31.000Z</time>
      </trkpt>
      <trkpt lat="43.31576" lon="5.68537">
        <ele>843</ele>
        <time>2019-11-29T09:09:32.000Z</time>
      </trkpt>
      <trkpt lat="43.31576" lon="5.68537">
        <ele>843</ele>
        <time>2019-11-29T09:09:33.000Z</time>
      </trkpt>
      <trkpt lat="43.31576" lon="5.68537">
        <ele>843</ele>
        <time>2019-11-29T09:09:34.000Z</time>
      </trkpt>
      <trkpt lat="43.31576" lon="5.68537">
        <ele>843</ele>
        <time>2019-11-29T09:09:35.000Z</time>
      </trkpt>
      <trkpt lat="43.31576" lon="5.68537">
        <ele>843</ele>
        <time>2019-11-29T09:09:36.000Z</time>
      </trkpt>
      <trkpt lat="43.31576" lon="5.68537">
        <ele>843</ele>
        <time>2019-11-29T09:09:37.000Z</time>
      </trkpt>
      <trkpt lat="43.31576" lon="5.68537">
        <ele>843</ele>
        <time>2019-11-29T09:09:38.000Z</time>
      </trkpt>
      <trkpt lat="43.31576" lon="5.68537">
        <ele>843</ele>
        <time>2019-11-29T09:09:39.000Z</time>
      </trkpt>
      <trkpt lat="43.31576" lon="5.68537">
        <ele>843</ele>
        <time>2019-11-29T09:09:40.000Z</time>
      </trkpt>
      <trkpt lat="43.31577" lon="5.68537">
        <ele>843</ele>
        <time>2019-11-29T09:09:41.000Z</time>
      </trkpt>
      <trkpt lat="43.31577" lon="5.68537">
        <ele>843</ele>
        <time>2019-11-29T09:09:42.000Z</time>
      </trkpt>
      <trkpt lat="43.31577" lon="5.68537">
        <ele>843</ele>
        <time>2019-11-29T09:09:43.000Z</time>
      </trkpt>
      <trkpt lat="43.31577" lon="5.68537">
        <ele>843</ele>
        <time>2019-11-29T09:09:44.000Z</time>
      </trkpt>
      <trkpt lat="43.31577" lon="5.68537">
        <ele>843</ele>
        <time>2019-11-29T09:09:45.000Z</time>
      </trkpt>
      <trkpt lat="43.31578" lon="5.68537">
        <ele>843</ele>
        <time>2019-11-29T09:09:46.000Z</time>
      </trkpt>
      <trkpt lat="43.31578" lon="5.68537">
        <ele>843</ele>
        <time>2019-11-29T09:09:47.000Z</time>
      </trkpt>
      <trkpt lat="43.31578" lon="5.68537">
        <ele>843</ele>
        <time>2019-11-29T09:09:48.000Z</time>
      </trkpt>
      <trkpt lat="43.31578" lon="5.68537">
        <ele>843</ele>
        <time>2019-11-29T09:09:49.000Z</time>
      </trkpt>
      <trkpt lat="43.31578" lon="5.68537">
        <ele>843</ele>
        <time>2019-11-29T09:09:50.000Z</time>
      </trkpt>
      <trkpt lat="43.31579" lon="5.68537">
        <ele>844</ele>
        <time>2019-11-29T09:09:51.000Z</time>
      </trkpt>
      <trkpt lat="43.31579" lon="5.68536">
        <ele>844</ele>
        <time>2019-11-29T09:09:52.000Z</time>
      </trkpt>
      <trkpt lat="43.31579" lon="5.68536">
        <ele>844</ele>
        <time>2019-11-29T09:09:53.000Z</time>
      </trkpt>
      <trkpt lat="43.3158" lon="5.68537">
        <ele>844</ele>
        <time>2019-11-29T09:09:54.000Z</time>
      </trkpt>
      <trkpt lat="43.3158" lon="5.68537">
        <ele>844</ele>
        <time>2019-11-29T09:09:55.000Z</time>
      </trkpt>
      <trkpt lat="43.31581" lon="5.68538">
        <ele>844</ele>
        <time>2019-11-29T09:09:56.000Z</time>
      </trkpt>
      <trkpt lat="43.31581" lon="5.68538">
        <ele>844</ele>
        <time>2019-11-29T09:09:57.000Z</time>
      </trkpt>
      <trkpt lat="43.31581" lon="5.68539">
        <ele>844</ele>
        <time>2019-11-29T09:09:58.000Z</time>
      </trkpt>
      <trkpt lat="43.31581" lon="5.68539">
        <ele>844</ele>
        <time>2019-11-29T09:09:59.000Z</time>
      </trkpt>
      <trkpt lat="43.31581" lon="5.6854">
        <ele>844</ele>
        <time>2019-11-29T09:10:00.000Z</time>
      </trkpt>
      <trkpt lat="43.31581" lon="5.68539">
        <ele>844</ele>
        <time>2019-11-29T09:10:01.000Z</time>
      </trkpt>
      <trkpt lat="43.31582" lon="5.6854">
        <ele>845</ele>
        <time>2019-11-29T09:10:02.000Z</time>
      </trkpt>
      <trkpt lat="43.31582" lon="5.6854">
        <ele>845</ele>
        <time>2019-11-29T09:10:03.000Z</time>
      </trkpt>
      <trkpt lat="43.31583" lon="5.68541">
        <ele>845</ele>
        <time>2019-11-29T09:10:04.000Z</time>
      </trkpt>
      <trkpt lat="43.31583" lon="5.68541">
        <ele>845</ele>
        <time>2019-11-29T09:10:05.000Z</time>
      </trkpt>
      <trkpt lat="43.31583" lon="5.68542">
        <ele>845</ele>
        <time>2019-11-29T09:10:06.000Z</time>
      </trkpt>
      <trkpt lat="43.31583" lon="5.68542">
        <ele>845</ele>
        <time>2019-11-29T09:10:07.000Z</time>
      </trkpt>
      <trkpt lat="43.31583" lon="5.68542">
        <ele>845</ele>
        <time>2019-11-29T09:10:08.000Z</time>
      </trkpt>
      <trkpt lat="43.31584" lon="5.68542">
        <ele>845</ele>
        <time>2019-11-29T09:10:09.000Z</time>
      </trkpt>
      <trkpt lat="43.31584" lon="5.68543">
        <ele>846</ele>
        <time>2019-11-29T09:10:10.000Z</time>
      </trkpt>
      <trkpt lat="43.31585" lon="5.68543">
        <ele>846</ele>
        <time>2019-11-29T09:10:11.000Z</time>
      </trkpt>
      <trkpt lat="43.31585" lon="5.68543">
        <ele>846</ele>
        <time>2019-11-29T09:10:12.000Z</time>
      </trkpt>
      <trkpt lat="43.31585" lon="5.68543">
        <ele>846</ele>
        <time>2019-11-29T09:10:13.000Z</time>
      </trkpt>
      <trkpt lat="43.31586" lon="5.68544">
        <ele>846</ele>
        <time>2019-11-29T09:10:14.000Z</time>
      </trkpt>
      <trkpt lat="43.31586" lon="5.68544">
        <ele>846</ele>
        <time>2019-11-29T09:10:15.000Z</time>
      </trkpt>
      <trkpt lat="43.31586" lon="5.68545">
        <ele>847</ele>
        <time>2019-11-29T09:10:16.000Z</time>
      </trkpt>
      <trkpt lat="43.31587" lon="5.68545">
        <ele>847</ele>
        <time>2019-11-29T09:10:17.000Z</time>
      </trkpt>
      <trkpt lat="43.31587" lon="5.68546">
        <ele>847</ele>
        <time>2019-11-29T09:10:18.000Z</time>
      </trkpt>
      <trkpt lat="43.31587" lon="5.68546">
        <ele>847</ele>
        <time>2019-11-29T09:10:19.000Z</time>
      </trkpt>
      <trkpt lat="43.31588" lon="5.68546">
        <ele>847</ele>
        <time>2019-11-29T09:10:20.000Z</time>
      </trkpt>
      <trkpt lat="43.31588" lon="5.68547">
        <ele>847</ele>
        <time>2019-11-29T09:10:21.000Z</time>
      </trkpt>
      <trkpt lat="43.31588" lon="5.68547">
        <ele>847</ele>
        <time>2019-11-29T09:10:22.000Z</time>
      </trkpt>
      <trkpt lat="43.31589" lon="5.68548">
        <ele>847</ele>
        <time>2019-11-29T09:10:23.000Z</time>
      </trkpt>
      <trkpt lat="43.31589" lon="5.68548">
        <ele>847</ele>
        <time>2019-11-29T09:10:24.000Z</time>
      </trkpt>
      <trkpt lat="43.31589" lon="5.68549">
        <ele>848</ele>
        <time>2019-11-29T09:10:25.000Z</time>
      </trkpt>
      <trkpt lat="43.3159" lon="5.68549">
        <ele>848</ele>
        <time>2019-11-29T09:10:26.000Z</time>
      </trkpt>
      <trkpt lat="43.3159" lon="5.6855">
        <ele>848</ele>
        <time>2019-11-29T09:10:27.000Z</time>
      </trkpt>
      <trkpt lat="43.3159" lon="5.6855">
        <ele>848</ele>
        <time>2019-11-29T09:10:28.000Z</time>
      </trkpt>
      <trkpt lat="43.31591" lon="5.6855">
        <ele>848</ele>
        <time>2019-11-29T09:10:29.000Z</time>
      </trkpt>
      <trkpt lat="43.31591" lon="5.68551">
        <ele>848</ele>
        <time>2019-11-29T09:10:30.000Z</time>
      </trkpt>
      <trkpt lat="43.31591" lon="5.68551">
        <ele>849</ele>
        <time>2019-11-29T09:10:31.000Z</time>
      </trkpt>
      <trkpt lat="43.31591" lon="5.68552">
        <ele>849</ele>
        <time>2019-11-29T09:10:32.000Z</time>
      </trkpt>
      <trkpt lat="43.31592" lon="5.68552">
        <ele>849</ele>
        <time>2019-11-29T09:10:33.000Z</time>
      </trkpt>
      <trkpt lat="43.31592" lon="5.68553">
        <ele>849</ele>
        <time>2019-11-29T09:10:34.000Z</time>
      </trkpt>
      <trkpt lat="43.31592" lon="5.68553">
        <ele>849</ele>
        <time>2019-11-29T09:10:35.000Z</time>
      </trkpt>
      <trkpt lat="43.31592" lon="5.68554">
        <ele>850</ele>
        <time>2019-11-29T09:10:36.000Z</time>
      </trkpt>
      <trkpt lat="43.31592" lon="5.68554">
        <ele>850</ele>
        <time>2019-11-29T09:10:37.000Z</time>
      </trkpt>
      <trkpt lat="43.31593" lon="5.68555">
        <ele>850</ele>
        <time>2019-11-29T09:10:38.000Z</time>
      </trkpt>
      <trkpt lat="43.31593" lon="5.68555">
        <ele>850</ele>
        <time>2019-11-29T09:10:39.000Z</time>
      </trkpt>
      <trkpt lat="43.31593" lon="5.68555">
        <ele>850</ele>
        <time>2019-11-29T09:10:40.000Z</time>
      </trkpt>
      <trkpt lat="43.31594" lon="5.68556">
        <ele>851</ele>
        <time>2019-11-29T09:10:41.000Z</time>
      </trkpt>
      <trkpt lat="43.31594" lon="5.68556">
        <ele>851</ele>
        <time>2019-11-29T09:10:42.000Z</time>
      </trkpt>
      <trkpt lat="43.31594" lon="5.68557">
        <ele>851</ele>
        <time>2019-11-29T09:10:43.000Z</time>
      </trkpt>
      <trkpt lat="43.31595" lon="5.68557">
        <ele>851</ele>
        <time>2019-11-29T09:10:44.000Z</time>
      </trkpt>
      <trkpt lat="43.31595" lon="5.68558">
        <ele>851</ele>
        <time>2019-11-29T09:10:45.000Z</time>
      </trkpt>
      <trkpt lat="43.31595" lon="5.68558">
        <ele>851</ele>
        <time>2019-11-29T09:10:46.000Z</time>
      </trkpt>
      <trkpt lat="43.31596" lon="5.68559">
        <ele>852</ele>
        <time>2019-11-29T09:10:47.000Z</time>
      </trkpt>
      <trkpt lat="43.31596" lon="5.68559">
        <ele>852</ele>
        <time>2019-11-29T09:10:48.000Z</time>
      </trkpt>
      <trkpt lat="43.31595" lon="5.68559">
        <ele>852</ele>
        <time>2019-11-29T09:10:49.000Z</time>
      </trkpt>
      <trkpt lat="43.31596" lon="5.68559">
        <ele>852</ele>
        <time>2019-11-29T09:10:50.000Z</time>
      </trkpt>
      <trkpt lat="43.31596" lon="5.6856">
        <ele>852</ele>
        <time>2019-11-29T09:10:51.000Z</time>
      </trkpt>
      <trkpt lat="43.31596" lon="5.6856">
        <ele>852</ele>
        <time>2019-11-29T09:10:52.000Z</time>
      </trkpt>
      <trkpt lat="43.31596" lon="5.6856">
        <ele>852</ele>
        <time>2019-11-29T09:10:53.000Z</time>
      </trkpt>
      <trkpt lat="43.31597" lon="5.68561">
        <ele>852</ele>
        <time>2019-11-29T09:10:54.000Z</time>
      </trkpt>
      <trkpt lat="43.31597" lon="5.68561">
        <ele>853</ele>
        <time>2019-11-29T09:10:55.000Z</time>
      </trkpt>
      <trkpt lat="43.31597" lon="5.68561">
        <ele>853</ele>
        <time>2019-11-29T09:10:56.000Z</time>
      </trkpt>
      <trkpt lat="43.31597" lon="5.68561">
        <ele>853</ele>
        <time>2019-11-29T09:10:57.000Z</time>
      </trkpt>
      <trkpt lat="43.31597" lon="5.68561">
        <ele>853</ele>
        <time>2019-11-29T09:10:58.000Z</time>
      </trkpt>
      <trkpt lat="43.31598" lon="5.68561">
        <ele>853</ele>
        <time>2019-11-29T09:10:59.000Z</time>
      </trkpt>
      <trkpt lat="43.31598" lon="5.68561">
        <ele>854</ele>
        <time>2019-11-29T09:11:00.000Z</time>
      </trkpt>
      <trkpt lat="43.31599" lon="5.68562">
        <ele>854</ele>
        <time>2019-11-29T09:11:01.000Z</time>
      </trkpt>
      <trkpt lat="43.31599" lon="5.68562">
        <ele>854</ele>
        <time>2019-11-29T09:11:02.000Z</time>
      </trkpt>
      <trkpt lat="43.316" lon="5.68562">
        <ele>854</ele>
        <time>2019-11-29T09:11:03.000Z</time>
      </trkpt>
      <trkpt lat="43.316" lon="5.68562">
        <ele>854</ele>
        <time>2019-11-29T09:11:04.000Z</time>
      </trkpt>
      <trkpt lat="43.31601" lon="5.68562">
        <ele>855</ele>
        <time>2019-11-29T09:11:05.000Z</time>
      </trkpt>
      <trkpt lat="43.31602" lon="5.68561">
        <ele>855</ele>
        <time>2019-11-29T09:11:06.000Z</time>
      </trkpt>
      <trkpt lat="43.31602" lon="5.68561">
        <ele>855</ele>
        <time>2019-11-29T09:11:07.000Z</time>
      </trkpt>
      <trkpt lat="43.31603" lon="5.68561">
        <ele>855</ele>
        <time>2019-11-29T09:11:08.000Z</time>
      </trkpt>
      <trkpt lat="43.31603" lon="5.68562">
        <ele>855</ele>
        <time>2019-11-29T09:11:09.000Z</time>
      </trkpt>
      <trkpt lat="43.31604" lon="5.68562">
        <ele>855</ele>
        <time>2019-11-29T09:11:10.000Z</time>
      </trkpt>
      <trkpt lat="43.31604" lon="5.68562">
        <ele>855</ele>
        <time>2019-11-29T09:11:11.000Z</time>
      </trkpt>
      <trkpt lat="43.31605" lon="5.68563">
        <ele>855</ele>
        <time>2019-11-29T09:11:12.000Z</time>
      </trkpt>
      <trkpt lat="43.31605" lon="5.68563">
        <ele>855</ele>
        <time>2019-11-29T09:11:13.000Z</time>
      </trkpt>
      <trkpt lat="43.31606" lon="5.68563">
        <ele>855</ele>
        <time>2019-11-29T09:11:14.000Z</time>
      </trkpt>
      <trkpt lat="43.31606" lon="5.68563">
        <ele>855</ele>
        <time>2019-11-29T09:11:15.000Z</time>
      </trkpt>
      <trkpt lat="43.31607" lon="5.68564">
        <ele>855</ele>
        <time>2019-11-29T09:11:16.000Z</time>
      </trkpt>
      <trkpt lat="43.31607" lon="5.68565">
        <ele>855</ele>
        <time>2019-11-29T09:11:17.000Z</time>
      </trkpt>
      <trkpt lat="43.31607" lon="5.68565">
        <ele>855</ele>
        <time>2019-11-29T09:11:18.000Z</time>
      </trkpt>
      <trkpt lat="43.31608" lon="5.68566">
        <ele>855</ele>
        <time>2019-11-29T09:11:19.000Z</time>
      </trkpt>
      <trkpt lat="43.31608" lon="5.68566">
        <ele>855</ele>
        <time>2019-11-29T09:11:20.000Z</time>
      </trkpt>
      <trkpt lat="43.31608" lon="5.68567">
        <ele>856</ele>
        <time>2019-11-29T09:11:21.000Z</time>
      </trkpt>
      <trkpt lat="43.31609" lon="5.68567">
        <ele>856</ele>
        <time>2019-11-29T09:11:22.000Z</time>
      </trkpt>
      <trkpt lat="43.31609" lon="5.68568">
        <ele>856</ele>
        <time>2019-11-29T09:11:23.000Z</time>
      </trkpt>
      <trkpt lat="43.31609" lon="5.68568">
        <ele>856</ele>
        <time>2019-11-29T09:11:24.000Z</time>
      </trkpt>
      <trkpt lat="43.3161" lon="5.68569">
        <ele>856</ele>
        <time>2019-11-29T09:11:25.000Z</time>
      </trkpt>
      <trkpt lat="43.3161" lon="5.68569">
        <ele>856</ele>
        <time>2019-11-29T09:11:26.000Z</time>
      </trkpt>
      <trkpt lat="43.3161" lon="5.6857">
        <ele>856</ele>
        <time>2019-11-29T09:11:27.000Z</time>
      </trkpt>
      <trkpt lat="43.31611" lon="5.6857">
        <ele>856</ele>
        <time>2019-11-29T09:11:28.000Z</time>
      </trkpt>
      <trkpt lat="43.31611" lon="5.68571">
        <ele>857</ele>
        <time>2019-11-29T09:11:29.000Z</time>
      </trkpt>
      <trkpt lat="43.31612" lon="5.68571">
        <ele>857</ele>
        <time>2019-11-29T09:11:30.000Z</time>
      </trkpt>
      <trkpt lat="43.31612" lon="5.68572">
        <ele>857</ele>
        <time>2019-11-29T09:11:31.000Z</time>
      </trkpt>
      <trkpt lat="43.31613" lon="5.68572">
        <ele>857</ele>
        <time>2019-11-29T09:11:32.000Z</time>
      </trkpt>
      <trkpt lat="43.31613" lon="5.68573">
        <ele>857</ele>
        <time>2019-11-29T09:11:33.000Z</time>
      </trkpt>
      <trkpt lat="43.31614" lon="5.68573">
        <ele>857</ele>
        <time>2019-11-29T09:11:34.000Z</time>
      </trkpt>
      <trkpt lat="43.31614" lon="5.68573">
        <ele>857</ele>
        <time>2019-11-29T09:11:35.000Z</time>
      </trkpt>
      <trkpt lat="43.31615" lon="5.68574">
        <ele>858</ele>
        <time>2019-11-29T09:11:36.000Z</time>
      </trkpt>
      <trkpt lat="43.31616" lon="5.68574">
        <ele>858</ele>
        <time>2019-11-29T09:11:37.000Z</time>
      </trkpt>
      <trkpt lat="43.31616" lon="5.68575">
        <ele>858</ele>
        <time>2019-11-29T09:11:38.000Z</time>
      </trkpt>
      <trkpt lat="43.31617" lon="5.68575">
        <ele>858</ele>
        <time>2019-11-29T09:11:39.000Z</time>
      </trkpt>
      <trkpt lat="43.31617" lon="5.68576">
        <ele>858</ele>
        <time>2019-11-29T09:11:40.000Z</time>
      </trkpt>
      <trkpt lat="43.31618" lon="5.68577">
        <ele>859</ele>
        <time>2019-11-29T09:11:41.000Z</time>
      </trkpt>
      <trkpt lat="43.31618" lon="5.68577">
        <ele>859</ele>
        <time>2019-11-29T09:11:42.000Z</time>
      </trkpt>
      <trkpt lat="43.31619" lon="5.68578">
        <ele>859</ele>
        <time>2019-11-29T09:11:43.000Z</time>
      </trkpt>
      <trkpt lat="43.31619" lon="5.68578">
        <ele>859</ele>
        <time>2019-11-29T09:11:44.000Z</time>
      </trkpt>
      <trkpt lat="43.3162" lon="5.68579">
        <ele>859</ele>
        <time>2019-11-29T09:11:45.000Z</time>
      </trkpt>
      <trkpt lat="43.3162" lon="5.6858">
        <ele>859</ele>
        <time>2019-11-29T09:11:46.000Z</time>
      </trkpt>
      <trkpt lat="43.3162" lon="5.6858">
        <ele>860</ele>
        <time>2019-11-29T09:11:47.000Z</time>
      </trkpt>
      <trkpt lat="43.31621" lon="5.68581">
        <ele>860</ele>
        <time>2019-11-29T09:11:48.000Z</time>
      </trkpt>
      <trkpt lat="43.31621" lon="5.68582">
        <ele>860</ele>
        <time>2019-11-29T09:11:49.000Z</time>
      </trkpt>
      <trkpt lat="43.31622" lon="5.68582">
        <ele>860</ele>
        <time>2019-11-29T09:11:50.000Z</time>
      </trkpt>
      <trkpt lat="43.31622" lon="5.68583">
        <ele>860</ele>
        <time>2019-11-29T09:11:51.000Z</time>
      </trkpt>
      <trkpt lat="43.31622" lon="5.68584">
        <ele>861</ele>
        <time>2019-11-29T09:11:52.000Z</time>
      </trkpt>
      <trkpt lat="43.31622" lon="5.68585">
        <ele>861</ele>
        <time>2019-11-29T09:11:53.000Z</time>
      </trkpt>
      <trkpt lat="43.31622" lon="5.68585">
        <ele>861</ele>
        <time>2019-11-29T09:11:54.000Z</time>
      </trkpt>
      <trkpt lat="43.31622" lon="5.68585">
        <ele>861</ele>
        <time>2019-11-29T09:11:55.000Z</time>
      </trkpt>
      <trkpt lat="43.31622" lon="5.68585">
        <ele>861</ele>
        <time>2019-11-29T09:11:56.000Z</time>
      </trkpt>
      <trkpt lat="43.31622" lon="5.68585">
        <ele>861</ele>
        <time>2019-11-29T09:11:57.000Z</time>
      </trkpt>
      <trkpt lat="43.31622" lon="5.68586">
        <ele>861</ele>
        <time>2019-11-29T09:11:58.000Z</time>
      </trkpt>
      <trkpt lat="43.31622" lon="5.68586">
        <ele>862</ele>
        <time>2019-11-29T09:11:59.000Z</time>
      </trkpt>
      <trkpt lat="43.31622" lon="5.68586">
        <ele>862</ele>
        <time>2019-11-29T09:12:00.000Z</time>
      </trkpt>
      <trkpt lat="43.31622" lon="5.68586">
        <ele>862</ele>
        <time>2019-11-29T09:12:01.000Z</time>
      </trkpt>
      <trkpt lat="43.31622" lon="5.68586">
        <ele>862</ele>
        <time>2019-11-29T09:12:02.000Z</time>
      </trkpt>
      <trkpt lat="43.31622" lon="5.68585">
        <ele>862</ele>
        <time>2019-11-29T09:12:03.000Z</time>
      </trkpt>
      <trkpt lat="43.31623" lon="5.68585">
        <ele>862</ele>
        <time>2019-11-29T09:12:04.000Z</time>
      </trkpt>
      <trkpt lat="43.31623" lon="5.68585">
        <ele>862</ele>
        <time>2019-11-29T09:12:05.000Z</time>
      </trkpt>
      <trkpt lat="43.31623" lon="5.68586">
        <ele>862</ele>
        <time>2019-11-29T09:12:06.000Z</time>
      </trkpt>
      <trkpt lat="43.31623" lon="5.68586">
        <ele>862</ele>
        <time>2019-11-29T09:12:07.000Z</time>
      </trkpt>
      <trkpt lat="43.31623" lon="5.68586">
        <ele>862</ele>
        <time>2019-11-29T09:12:08.000Z</time>
      </trkpt>
      <trkpt lat="43.31623" lon="5.68586">
        <ele>863</ele>
        <time>2019-11-29T09:12:09.000Z</time>
      </trkpt>
      <trkpt lat="43.31623" lon="5.68586">
        <ele>863</ele>
        <time>2019-11-29T09:12:10.000Z</time>
      </trkpt>
      <trkpt lat="43.31623" lon="5.68586">
        <ele>863</ele>
        <time>2019-11-29T09:12:11.000Z</time>
      </trkpt>
      <trkpt lat="43.31623" lon="5.68586">
        <ele>863</ele>
        <time>2019-11-29T09:12:12.000Z</time>
      </trkpt>
      <trkpt lat="43.31623" lon="5.68586">
        <ele>863</ele>
        <time>2019-11-29T09:12:13.000Z</time>
      </trkpt>
      <trkpt lat="43.31623" lon="5.68586">
        <ele>863</ele>
        <time>2019-11-29T09:12:14.000Z</time>
      </trkpt>
      <trkpt lat="43.31623" lon="5.68586">
        <ele>863</ele>
        <time>2019-11-29T09:12:15.000Z</time>
      </trkpt>
      <trkpt lat="43.31623" lon="5.68587">
        <ele>863</ele>
        <time>2019-11-29T09:12:16.000Z</time>
      </trkpt>
      <trkpt lat="43.31623" lon="5.68587">
        <ele>863</ele>
        <time>2019-11-29T09:12:17.000Z</time>
      </trkpt>
      <trkpt lat="43.31623" lon="5.68587">
        <ele>863</ele>
        <time>2019-11-29T09:12:18.000Z</time>
      </trkpt>
      <trkpt lat="43.31623" lon="5.68587">
        <ele>863</ele>
        <time>2019-11-29T09:12:19.000Z</time>
      </trkpt>
      <trkpt lat="43.31623" lon="5.68587">
        <ele>863</ele>
        <time>2019-11-29T09:12:20.000Z</time>
      </trkpt>
      <trkpt lat="43.31623" lon="5.68587">
        <ele>863</ele>
        <time>2019-11-29T09:12:21.000Z</time>
      </trkpt>
      <trkpt lat="43.31623" lon="5.68587">
        <ele>863</ele>
        <time>2019-11-29T09:12:22.000Z</time>
      </trkpt>
      <trkpt lat="43.31623" lon="5.68587">
        <ele>863</ele>
        <time>2019-11-29T09:12:23.000Z</time>
      </trkpt>
      <trkpt lat="43.31623" lon="5.68587">
        <ele>863</ele>
        <time>2019-11-29T09:12:24.000Z</time>
      </trkpt>
      <trkpt lat="43.31623" lon="5.68587">
        <ele>863</ele>
        <time>2019-11-29T09:12:25.000Z</time>
      </trkpt>
      <trkpt lat="43.31623" lon="5.68587">
        <ele>863</ele>
        <time>2019-11-29T09:12:26.000Z</time>
      </trkpt>
      <trkpt lat="43.31623" lon="5.68587">
        <ele>863</ele>
        <time>2019-11-29T09:12:27.000Z</time>
      </trkpt>
      <trkpt lat="43.31623" lon="5.68587">
        <ele>863</ele>
        <time>2019-11-29T09:12:28.000Z</time>
      </trkpt>
      <trkpt lat="43.31623" lon="5.68587">
        <ele>863</ele>
        <time>2019-11-29T09:12:29.000Z</time>
      </trkpt>
      <trkpt lat="43.31623" lon="5.68587">
        <ele>863</ele>
        <time>2019-11-29T09:12:30.000Z</time>
      </trkpt>
      <trkpt lat="43.31623" lon="5.68587">
        <ele>863</ele>
        <time>2019-11-29T09:12:31.000Z</time>
      </trkpt>
      <trkpt lat="43.31623" lon="5.68587">
        <ele>863</ele>
        <time>2019-11-29T09:12:32.000Z</time>
      </trkpt>
      <trkpt lat="43.31623" lon="5.68587">
        <ele>863</ele>
        <time>2019-11-29T09:12:33.000Z</time>
      </trkpt>
      <trkpt lat="43.31623" lon="5.68587">
        <ele>863</ele>
        <time>2019-11-29T09:12:34.000Z</time>
      </trkpt>
      <trkpt lat="43.31623" lon="5.68587">
        <ele>863</ele>
        <time>2019-11-29T09:12:35.000Z</time>
      </trkpt>
      <trkpt lat="43.31623" lon="5.68587">
        <ele>863</ele>
        <time>2019-11-29T09:12:36.000Z</time>
      </trkpt>
      <trkpt lat="43.31623" lon="5.68587">
        <ele>863</ele>
        <time>2019-11-29T09:12:37.000Z</time>
      </trkpt>
      <trkpt lat="43.31623" lon="5.68587">
        <ele>863</ele>
        <time>2019-11-29T09:12:38.000Z</time>
      </trkpt>
      <trkpt lat="43.31623" lon="5.68587">
        <ele>863</ele>
        <time>2019-11-29T09:12:39.000Z</time>
      </trkpt>
      <trkpt lat="43.31623" lon="5.68587">
        <ele>863</ele>
        <time>2019-11-29T09:12:40.000Z</time>
      </trkpt>
      <trkpt lat="43.31623" lon="5.68587">
        <ele>863</ele>
        <time>2019-11-29T09:12:41.000Z</time>
      </trkpt>
      <trkpt lat="43.31623" lon="5.68587">
        <ele>863</ele>
        <time>2019-11-29T09:12:42.000Z</time>
      </trkpt>
      <trkpt lat="43.31622" lon="5.68587">
        <ele>863</ele>
        <time>2019-11-29T09:12:43.000Z</time>
      </trkpt>
      <trkpt lat="43.31622" lon="5.68587">
        <ele>863</ele>
        <time>2019-11-29T09:12:44.000Z</time>
      </trkpt>
      <trkpt lat="43.31622" lon="5.68587">
        <ele>863</ele>
        <time>2019-11-29T09:12:45.000Z</time>
      </trkpt>
      <trkpt lat="43.31623" lon="5.68587">
        <ele>863</ele>
        <time>2019-11-29T09:12:46.000Z</time>
      </trkpt>
      <trkpt lat="43.31623" lon="5.68587">
        <ele>863</ele>
        <time>2019-11-29T09:12:47.000Z</time>
      </trkpt>
      <trkpt lat="43.31623" lon="5.68587">
        <ele>863</ele>
        <time>2019-11-29T09:12:48.000Z</time>
      </trkpt>
      <trkpt lat="43.31623" lon="5.68587">
        <ele>863</ele>
        <time>2019-11-29T09:12:49.000Z</time>
      </trkpt>
      <trkpt lat="43.31623" lon="5.68587">
        <ele>863</ele>
        <time>2019-11-29T09:12:50.000Z</time>
      </trkpt>
      <trkpt lat="43.31623" lon="5.68587">
        <ele>863</ele>
        <time>2019-11-29T09:12:51.000Z</time>
      </trkpt>
      <trkpt lat="43.31623" lon="5.68587">
        <ele>863</ele>
        <time>2019-11-29T09:12:52.000Z</time>
      </trkpt>
      <trkpt lat="43.31623" lon="5.68587">
        <ele>863</ele>
        <time>2019-11-29T09:12:53.000Z</time>
      </trkpt>
      <trkpt lat="43.31623" lon="5.68587">
        <ele>863</ele>
        <time>2019-11-29T09:12:54.000Z</time>
      </trkpt>
      <trkpt lat="43.31623" lon="5.68587">
        <ele>863</ele>
        <time>2019-11-29T09:12:55.000Z</time>
      </trkpt>
      <trkpt lat="43.31623" lon="5.68587">
        <ele>863</ele>
        <time>2019-11-29T09:12:56.000Z</time>
      </trkpt>
      <trkpt lat="43.31623" lon="5.68587">
        <ele>863</ele>
        <time>2019-11-29T09:12:57.000Z</time>
      </trkpt>
      <trkpt lat="43.31623" lon="5.68587">
        <ele>863</ele>
        <time>2019-11-29T09:12:58.000Z</time>
      </trkpt>
      <trkpt lat="43.31623" lon="5.68587">
        <ele>863</ele>
        <time>2019-11-29T09:12:59.000Z</time>
      </trkpt>
      <trkpt lat="43.31623" lon="5.68587">
        <ele>863</ele>
        <time>2019-11-29T09:13:00.000Z</time>
      </trkpt>
      <trkpt lat="43.31623" lon="5.68587">
        <ele>863</ele>
        <time>2019-11-29T09:13:01.000Z</time>
      </trkpt>
      <trkpt lat="43.31623" lon="5.68587">
        <ele>863</ele>
        <time>2019-11-29T09:13:02.000Z</time>
      </trkpt>
      <trkpt lat="43.31623" lon="5.68587">
        <ele>863</ele>
        <time>2019-11-29T09:13:03.000Z</time>
      </trkpt>
      <trkpt lat="43.31623" lon="5.68587">
        <ele>863</ele>
        <time>2019-11-29T09:13:04.000Z</time>
      </trkpt>
      <trkpt lat="43.31623" lon="5.68587">
        <ele>863</ele>
        <time>2019-11-29T09:13:05.000Z</time>
      </trkpt>
      <trkpt lat="43.31623" lon="5.68587">
        <ele>863</ele>
        <time>2019-11-29T09:13:06.000Z</time>
      </trkpt>
      <trkpt lat="43.31623" lon="5.68587">
        <ele>863</ele>
        <time>2019-11-29T09:13:07.000Z</time>
      </trkpt>
      <trkpt lat="43.31623" lon="5.68587">
        <ele>863</ele>
        <time>2019-11-29T09:13:08.000Z</time>
      </trkpt>
      <trkpt lat="43.31623" lon="5.68587">
        <ele>863</ele>
        <time>2019-11-29T09:13:09.000Z</time>
      </trkpt>
      <trkpt lat="43.31623" lon="5.68587">
        <ele>863</ele>
        <time>2019-11-29T09:13:10.000Z</time>
      </trkpt>
      <trkpt lat="43.31623" lon="5.68587">
        <ele>863</ele>
        <time>2019-11-29T09:13:11.000Z</time>
      </trkpt>
      <trkpt lat="43.31623" lon="5.68587">
        <ele>863</ele>
        <time>2019-11-29T09:13:12.000Z</time>
      </trkpt>
      <trkpt lat="43.31623" lon="5.68587">
        <ele>863</ele>
        <time>2019-11-29T09:13:13.000Z</time>
      </trkpt>
      <trkpt lat="43.31623" lon="5.68587">
        <ele>863</ele>
        <time>2019-11-29T09:13:14.000Z</time>
      </trkpt>
      <trkpt lat="43.31623" lon="5.68587">
        <ele>863</ele>
        <time>2019-11-29T09:13:15.000Z</time>
      </trkpt>
      <trkpt lat="43.31623" lon="5.68587">
        <ele>863</ele>
        <time>2019-11-29T09:13:16.000Z</time>
      </trkpt>
      <trkpt lat="43.31623" lon="5.68587">
        <ele>863</ele>
        <time>2019-11-29T09:13:17.000Z</time>
      </trkpt>
      <trkpt lat="43.31623" lon="5.68587">
        <ele>863</ele>
        <time>2019-11-29T09:13:18.000Z</time>
      </trkpt>
      <trkpt lat="43.31623" lon="5.68587">
        <ele>863</ele>
        <time>2019-11-29T09:13:19.000Z</time>
      </trkpt>
      <trkpt lat="43.31623" lon="5.68587">
        <ele>863</ele>
        <time>2019-11-29T09:13:20.000Z</time>
      </trkpt>
      <trkpt lat="43.31623" lon="5.68587">
        <ele>863</ele>
        <time>2019-11-29T09:13:21.000Z</time>
      </trkpt>
      <trkpt lat="43.31623" lon="5.68587">
        <ele>863</ele>
        <time>2019-11-29T09:13:22.000Z</time>
      </trkpt>
      <trkpt lat="43.31623" lon="5.68587">
        <ele>863</ele>
        <time>2019-11-29T09:13:23.000Z</time>
      </trkpt>
      <trkpt lat="43.31623" lon="5.68587">
        <ele>863</ele>
        <time>2019-11-29T09:13:24.000Z</time>
      </trkpt>
      <trkpt lat="43.31623" lon="5.68587">
        <ele>863</ele>
        <time>2019-11-29T09:13:25.000Z</time>
      </trkpt>
      <trkpt lat="43.31623" lon="5.68587">
        <ele>863</ele>
        <time>2019-11-29T09:13:26.000Z</time>
      </trkpt>
      <trkpt lat="43.31623" lon="5.68587">
        <ele>863</ele>
        <time>2019-11-29T09:13:27.000Z</time>
      </trkpt>
      <trkpt lat="43.31623" lon="5.68587">
        <ele>863</ele>
        <time>2019-11-29T09:13:28.000Z</time>
      </trkpt>
      <trkpt lat="43.31623" lon="5.68587">
        <ele>863</ele>
        <time>2019-11-29T09:13:29.000Z</time>
      </trkpt>
      <trkpt lat="43.31623" lon="5.68587">
        <ele>863</ele>
        <time>2019-11-29T09:13:30.000Z</time>
      </trkpt>
      <trkpt lat="43.31623" lon="5.68587">
        <ele>863</ele>
        <time>2019-11-29T09:13:31.000Z</time>
      </trkpt>
      <trkpt lat="43.31623" lon="5.68587">
        <ele>863</ele>
        <time>2019-11-29T09:13:32.000Z</time>
      </trkpt>
      <trkpt lat="43.31623" lon="5.68587">
        <ele>863</ele>
        <time>2019-11-29T09:13:33.000Z</time>
      </trkpt>
      <trkpt lat="43.31623" lon="5.68587">
        <ele>863</ele>
        <time>2019-11-29T09:13:34.000Z</time>
      </trkpt>
      <trkpt lat="43.31623" lon="5.68587">
        <ele>863</ele>
        <time>2019-11-29T09:13:35.000Z</time>
      </trkpt>
      <trkpt lat="43.31623" lon="5.68587">
        <ele>863</ele>
        <time>2019-11-29T09:13:36.000Z</time>
      </trkpt>
      <trkpt lat="43.31623" lon="5.68587">
        <ele>863</ele>
        <time>2019-11-29T09:13:37.000Z</time>
      </trkpt>
      <trkpt lat="43.31623" lon="5.68587">
        <ele>863</ele>
        <time>2019-11-29T09:13:38.000Z</time>
      </trkpt>
      <trkpt lat="43.31623" lon="5.68587">
        <ele>863</ele>
        <time>2019-11-29T09:13:39.000Z</time>
      </trkpt>
      <trkpt lat="43.31623" lon="5.68587">
        <ele>863</ele>
        <time>2019-11-29T09:13:40.000Z</time>
      </trkpt>
      <trkpt lat="43.31623" lon="5.68587">
        <ele>863</ele>
        <time>2019-11-29T09:13:41.000Z</time>
      </trkpt>
      <trkpt lat="43.31623" lon="5.68587">
        <ele>863</ele>
        <time>2019-11-29T09:13:42.000Z</time>
      </trkpt>
      <trkpt lat="43.31623" lon="5.68587">
        <ele>863</ele>
        <time>2019-11-29T09:13:43.000Z</time>
      </trkpt>
      <trkpt lat="43.31623" lon="5.68587">
        <ele>863</ele>
        <time>2019-11-29T09:13:44.000Z</time>
      </trkpt>
      <trkpt lat="43.31623" lon="5.68587">
        <ele>864</ele>
        <time>2019-11-29T09:13:45.000Z</time>
      </trkpt>
      <trkpt lat="43.31623" lon="5.68587">
        <ele>864</ele>
        <time>2019-11-29T09:13:46.000Z</time>
      </trkpt>
      <trkpt lat="43.31623" lon="5.68587">
        <ele>864</ele>
        <time>2019-11-29T09:13:47.000Z</time>
      </trkpt>
      <trkpt lat="43.31623" lon="5.68587">
        <ele>864</ele>
        <time>2019-11-29T09:13:48.000Z</time>
      </trkpt>
      <trkpt lat="43.31623" lon="5.68587">
        <ele>864</ele>
        <time>2019-11-29T09:13:49.000Z</time>
      </trkpt>
      <trkpt lat="43.31623" lon="5.68587">
        <ele>864</ele>
        <time>2019-11-29T09:13:50.000Z</time>
      </trkpt>
      <trkpt lat="43.31623" lon="5.68587">
        <ele>864</ele>
        <time>2019-11-29T09:13:51.000Z</time>
      </trkpt>
      <trkpt lat="43.31623" lon="5.68587">
        <ele>864</ele>
        <time>2019-11-29T09:13:52.000Z</time>
      </trkpt>
      <trkpt lat="43.31623" lon="5.68587">
        <ele>864</ele>
        <time>2019-11-29T09:13:53.000Z</time>
      </trkpt>
      <trkpt lat="43.31623" lon="5.68587">
        <ele>864</ele>
        <time>2019-11-29T09:13:54.000Z</time>
      </trkpt>
      <trkpt lat="43.31623" lon="5.68587">
        <ele>864</ele>
        <time>2019-11-29T09:13:55.000Z</time>
      </trkpt>
      <trkpt lat="43.31623" lon="5.68587">
        <ele>864</ele>
        <time>2019-11-29T09:13:56.000Z</time>
      </trkpt>
      <trkpt lat="43.31623" lon="5.68587">
        <ele>864</ele>
        <time>2019-11-29T09:13:57.000Z</time>
      </trkpt>
      <trkpt lat="43.31623" lon="5.68587">
        <ele>864</ele>
        <time>2019-11-29T09:13:58.000Z</time>
      </trkpt>
      <trkpt lat="43.31623" lon="5.68587">
        <ele>864</ele>
        <time>2019-11-29T09:13:59.000Z</time>
      </trkpt>
      <trkpt lat="43.31623" lon="5.68587">
        <ele>864</ele>
        <time>2019-11-29T09:14:00.000Z</time>
      </trkpt>
      <trkpt lat="43.31623" lon="5.68587">
        <ele>864</ele>
        <time>2019-11-29T09:14:01.000Z</time>
      </trkpt>
      <trkpt lat="43.31623" lon="5.68587">
        <ele>864</ele>
        <time>2019-11-29T09:14:02.000Z</time>
      </trkpt>
      <trkpt lat="43.31623" lon="5.68587">
        <ele>864</ele>
        <time>2019-11-29T09:14:03.000Z</time>
      </trkpt>
      <trkpt lat="43.31623" lon="5.68587">
        <ele>864</ele>
        <time>2019-11-29T09:14:04.000Z</time>
      </trkpt>
      <trkpt lat="43.31623" lon="5.68587">
        <ele>864</ele>
        <time>2019-11-29T09:14:05.000Z</time>
      </trkpt>
      <trkpt lat="43.31623" lon="5.68587">
        <ele>864</ele>
        <time>2019-11-29T09:14:06.000Z</time>
      </trkpt>
      <trkpt lat="43.31623" lon="5.68587">
        <ele>864</ele>
        <time>2019-11-29T09:14:07.000Z</time>
      </trkpt>
      <trkpt lat="43.31623" lon="5.68587">
        <ele>864</ele>
        <time>2019-11-29T09:14:08.000Z</time>
      </trkpt>
      <trkpt lat="43.31623" lon="5.68587">
        <ele>864</ele>
        <time>2019-11-29T09:14:09.000Z</time>
      </trkpt>
      <trkpt lat="43.31623" lon="5.68587">
        <ele>864</ele>
        <time>2019-11-29T09:14:10.000Z</time>
      </trkpt>
      <trkpt lat="43.31623" lon="5.68587">
        <ele>864</ele>
        <time>2019-11-29T09:14:11.000Z</time>
      </trkpt>
      <trkpt lat="43.31623" lon="5.68587">
        <ele>864</ele>
        <time>2019-11-29T09:14:12.000Z</time>
      </trkpt>
      <trkpt lat="43.31623" lon="5.68587">
        <ele>864</ele>
        <time>2019-11-29T09:14:13.000Z</time>
      </trkpt>
      <trkpt lat="43.31623" lon="5.68587">
        <ele>864</ele>
        <time>2019-11-29T09:14:14.000Z</time>
      </trkpt>
      <trkpt lat="43.31623" lon="5.68587">
        <ele>864</ele>
        <time>2019-11-29T09:14:15.000Z</time>
      </trkpt>
      <trkpt lat="43.31623" lon="5.68587">
        <ele>864</ele>
        <time>2019-11-29T09:14:16.000Z</time>
      </trkpt>
      <trkpt lat="43.31623" lon="5.68587">
        <ele>864</ele>
        <time>2019-11-29T09:14:17.000Z</time>
      </trkpt>
      <trkpt lat="43.31623" lon="5.68587">
        <ele>864</ele>
        <time>2019-11-29T09:14:18.000Z</time>
      </trkpt>
      <trkpt lat="43.31623" lon="5.68587">
        <ele>864</ele>
        <time>2019-11-29T09:14:19.000Z</time>
      </trkpt>
      <trkpt lat="43.31623" lon="5.68587">
        <ele>864</ele>
        <time>2019-11-29T09:14:20.000Z</time>
      </trkpt>
      <trkpt lat="43.31623" lon="5.68587">
        <ele>864</ele>
        <time>2019-11-29T09:14:21.000Z</time>
      </trkpt>
      <trkpt lat="43.31623" lon="5.68587">
        <ele>864</ele>
        <time>2019-11-29T09:14:22.000Z</time>
      </trkpt>
      <trkpt lat="43.31623" lon="5.68587">
        <ele>864</ele>
        <time>2019-11-29T09:14:23.000Z</time>
      </trkpt>
      <trkpt lat="43.31623" lon="5.68587">
        <ele>864</ele>
        <time>2019-11-29T09:14:24.000Z</time>
      </trkpt>
      <trkpt lat="43.31623" lon="5.68587">
        <ele>864</ele>
        <time>2019-11-29T09:14:25.000Z</time>
      </trkpt>
      <trkpt lat="43.31623" lon="5.68587">
        <ele>864</ele>
        <time>2019-11-29T09:14:26.000Z</time>
      </trkpt>
      <trkpt lat="43.31623" lon="5.68587">
        <ele>864</ele>
        <time>2019-11-29T09:14:27.000Z</time>
      </trkpt>
      <trkpt lat="43.31623" lon="5.68587">
        <ele>864</ele>
        <time>2019-11-29T09:14:28.000Z</time>
      </trkpt>
      <trkpt lat="43.31623" lon="5.68587">
        <ele>864</ele>
        <time>2019-11-29T09:14:29.000Z</time>
      </trkpt>
      <trkpt lat="43.31623" lon="5.68587">
        <ele>864</ele>
        <time>2019-11-29T09:14:30.000Z</time>
      </trkpt>
      <trkpt lat="43.31623" lon="5.68587">
        <ele>864</ele>
        <time>2019-11-29T09:14:31.000Z</time>
      </trkpt>
      <trkpt lat="43.31623" lon="5.68587">
        <ele>864</ele>
        <time>2019-11-29T09:14:32.000Z</time>
      </trkpt>
      <trkpt lat="43.31623" lon="5.68587">
        <ele>864</ele>
        <time>2019-11-29T09:14:33.000Z</time>
      </trkpt>
      <trkpt lat="43.31623" lon="5.68587">
        <ele>864</ele>
        <time>2019-11-29T09:14:34.000Z</time>
      </trkpt>
      <trkpt lat="43.31623" lon="5.68587">
        <ele>864</ele>
        <time>2019-11-29T09:14:35.000Z</time>
      </trkpt>
      <trkpt lat="43.31623" lon="5.68587">
        <ele>864</ele>
        <time>2019-11-29T09:14:36.000Z</time>
      </trkpt>
      <trkpt lat="43.31623" lon="5.68587">
        <ele>864</ele>
        <time>2019-11-29T09:14:37.000Z</time>
      </trkpt>
      <trkpt lat="43.31623" lon="5.68587">
        <ele>864</ele>
        <time>2019-11-29T09:14:38.000Z</time>
      </trkpt>
      <trkpt lat="43.31623" lon="5.68587">
        <ele>864</ele>
        <time>2019-11-29T09:14:39.000Z</time>
      </trkpt>
      <trkpt lat="43.31623" lon="5.68587">
        <ele>864</ele>
        <time>2019-11-29T09:14:40.000Z</time>
      </trkpt>
      <trkpt lat="43.31623" lon="5.68587">
        <ele>864</ele>
        <time>2019-11-29T09:14:41.000Z</time>
      </trkpt>
      <trkpt lat="43.31623" lon="5.68587">
        <ele>864</ele>
        <time>2019-11-29T09:14:42.000Z</time>
      </trkpt>
      <trkpt lat="43.31623" lon="5.68587">
        <ele>864</ele>
        <time>2019-11-29T09:14:43.000Z</time>
      </trkpt>
      <trkpt lat="43.31623" lon="5.68587">
        <ele>864</ele>
        <time>2019-11-29T09:14:44.000Z</time>
      </trkpt>
      <trkpt lat="43.31623" lon="5.68587">
        <ele>864</ele>
        <time>2019-11-29T09:14:45.000Z</time>
      </trkpt>
      <trkpt lat="43.31623" lon="5.68587">
        <ele>864</ele>
        <time>2019-11-29T09:14:46.000Z</time>
      </trkpt>
      <trkpt lat="43.31623" lon="5.68587">
        <ele>864</ele>
        <time>2019-11-29T09:14:47.000Z</time>
      </trkpt>
      <trkpt lat="43.31623" lon="5.68587">
        <ele>864</ele>
        <time>2019-11-29T09:14:48.000Z</time>
      </trkpt>
      <trkpt lat="43.31623" lon="5.68587">
        <ele>864</ele>
        <time>2019-11-29T09:14:49.000Z</time>
      </trkpt>
      <trkpt lat="43.31623" lon="5.68587">
        <ele>864</ele>
        <time>2019-11-29T09:14:50.000Z</time>
      </trkpt>
      <trkpt lat="43.31623" lon="5.68587">
        <ele>864</ele>
        <time>2019-11-29T09:14:51.000Z</time>
      </trkpt>
      <trkpt lat="43.31623" lon="5.68587">
        <ele>864</ele>
        <time>2019-11-29T09:14:52.000Z</time>
      </trkpt>
      <trkpt lat="43.31623" lon="5.68587">
        <ele>864</ele>
        <time>2019-11-29T09:14:53.000Z</time>
      </trkpt>
      <trkpt lat="43.31623" lon="5.68587">
        <ele>864</ele>
        <time>2019-11-29T09:14:54.000Z</time>
      </trkpt>
      <trkpt lat="43.31623" lon="5.68587">
        <ele>864</ele>
        <time>2019-11-29T09:14:55.000Z</time>
      </trkpt>
      <trkpt lat="43.31623" lon="5.68587">
        <ele>864</ele>
        <time>2019-11-29T09:14:56.000Z</time>
      </trkpt>
      <trkpt lat="43.31623" lon="5.68587">
        <ele>864</ele>
        <time>2019-11-29T09:14:57.000Z</time>
      </trkpt>
      <trkpt lat="43.31623" lon="5.68587">
        <ele>864</ele>
        <time>2019-11-29T09:14:58.000Z</time>
      </trkpt>
      <trkpt lat="43.31623" lon="5.68587">
        <ele>864</ele>
        <time>2019-11-29T09:14:59.000Z</time>
      </trkpt>
      <trkpt lat="43.31623" lon="5.68587">
        <ele>864</ele>
        <time>2019-11-29T09:15:00.000Z</time>
      </trkpt>
      <trkpt lat="43.31623" lon="5.68587">
        <ele>864</ele>
        <time>2019-11-29T09:15:01.000Z</time>
      </trkpt>
      <trkpt lat="43.31623" lon="5.68587">
        <ele>864</ele>
        <time>2019-11-29T09:15:02.000Z</time>
      </trkpt>
      <trkpt lat="43.31623" lon="5.68587">
        <ele>864</ele>
        <time>2019-11-29T09:15:03.000Z</time>
      </trkpt>
      <trkpt lat="43.31623" lon="5.68587">
        <ele>864</ele>
        <time>2019-11-29T09:15:04.000Z</time>
      </trkpt>
      <trkpt lat="43.31623" lon="5.68588">
        <ele>864</ele>
        <time>2019-11-29T09:15:05.000Z</time>
      </trkpt>
      <trkpt lat="43.31623" lon="5.68588">
        <ele>864</ele>
        <time>2019-11-29T09:15:06.000Z</time>
      </trkpt>
      <trkpt lat="43.31623" lon="5.68588">
        <ele>864</ele>
        <time>2019-11-29T09:15:07.000Z</time>
      </trkpt>
      <trkpt lat="43.31623" lon="5.68588">
        <ele>864</ele>
        <time>2019-11-29T09:15:08.000Z</time>
      </trkpt>
      <trkpt lat="43.31623" lon="5.68587">
        <ele>864</ele>
        <time>2019-11-29T09:15:09.000Z</time>
      </trkpt>
      <trkpt lat="43.31623" lon="5.68587">
        <ele>864</ele>
        <time>2019-11-29T09:15:10.000Z</time>
      </trkpt>
      <trkpt lat="43.31623" lon="5.68587">
        <ele>864</ele>
        <time>2019-11-29T09:15:11.000Z</time>
      </trkpt>
      <trkpt lat="43.31623" lon="5.68587">
        <ele>864</ele>
        <time>2019-11-29T09:15:12.000Z</time>
      </trkpt>
      <trkpt lat="43.31623" lon="5.68587">
        <ele>864</ele>
        <time>2019-11-29T09:15:13.000Z</time>
      </trkpt>
      <trkpt lat="43.31623" lon="5.68587">
        <ele>864</ele>
        <time>2019-11-29T09:15:14.000Z</time>
      </trkpt>
      <trkpt lat="43.31623" lon="5.68587">
        <ele>864</ele>
        <time>2019-11-29T09:15:15.000Z</time>
      </trkpt>
      <trkpt lat="43.31623" lon="5.68588">
        <ele>864</ele>
        <time>2019-11-29T09:15:16.000Z</time>
      </trkpt>
      <trkpt lat="43.31623" lon="5.68588">
        <ele>864</ele>
        <time>2019-11-29T09:15:17.000Z</time>
      </trkpt>
      <trkpt lat="43.31623" lon="5.68588">
        <ele>864</ele>
        <time>2019-11-29T09:15:18.000Z</time>
      </trkpt>
      <trkpt lat="43.31623" lon="5.68588">
        <ele>864</ele>
        <time>2019-11-29T09:15:19.000Z</time>
      </trkpt>
      <trkpt lat="43.31623" lon="5.68588">
        <ele>864</ele>
        <time>2019-11-29T09:15:20.000Z</time>
      </trkpt>
      <trkpt lat="43.31623" lon="5.68588">
        <ele>864</ele>
        <time>2019-11-29T09:15:21.000Z</time>
      </trkpt>
      <trkpt lat="43.31623" lon="5.68588">
        <ele>864</ele>
        <time>2019-11-29T09:15:22.000Z</time>
      </trkpt>
      <trkpt lat="43.31623" lon="5.68588">
        <ele>864</ele>
        <time>2019-11-29T09:15:23.000Z</time>
      </trkpt>
      <trkpt lat="43.31623" lon="5.68588">
        <ele>864</ele>
        <time>2019-11-29T09:15:24.000Z</time>
      </trkpt>
      <trkpt lat="43.31623" lon="5.68588">
        <ele>865</ele>
        <time>2019-11-29T09:15:25.000Z</time>
      </trkpt>
      <trkpt lat="43.31623" lon="5.68588">
        <ele>865</ele>
        <time>2019-11-29T09:15:26.000Z</time>
      </trkpt>
      <trkpt lat="43.31623" lon="5.68588">
        <ele>865</ele>
        <time>2019-11-29T09:15:27.000Z</time>
      </trkpt>
      <trkpt lat="43.31623" lon="5.68588">
        <ele>865</ele>
        <time>2019-11-29T09:15:28.000Z</time>
      </trkpt>
      <trkpt lat="43.31623" lon="5.68588">
        <ele>865</ele>
        <time>2019-11-29T09:15:29.000Z</time>
      </trkpt>
      <trkpt lat="43.31623" lon="5.68588">
        <ele>865</ele>
        <time>2019-11-29T09:15:30.000Z</time>
      </trkpt>
      <trkpt lat="43.31623" lon="5.68588">
        <ele>865</ele>
        <time>2019-11-29T09:15:31.000Z</time>
      </trkpt>
      <trkpt lat="43.31623" lon="5.68588">
        <ele>865</ele>
        <time>2019-11-29T09:15:32.000Z</time>
      </trkpt>
      <trkpt lat="43.31623" lon="5.68588">
        <ele>865</ele>
        <time>2019-11-29T09:15:33.000Z</time>
      </trkpt>
      <trkpt lat="43.31623" lon="5.68588">
        <ele>865</ele>
        <time>2019-11-29T09:15:34.000Z</time>
      </trkpt>
      <trkpt lat="43.31623" lon="5.68588">
        <ele>865</ele>
        <time>2019-11-29T09:15:35.000Z</time>
      </trkpt>
      <trkpt lat="43.31623" lon="5.68588">
        <ele>865</ele>
        <time>2019-11-29T09:15:36.000Z</time>
      </trkpt>
      <trkpt lat="43.31623" lon="5.68588">
        <ele>865</ele>
        <time>2019-11-29T09:15:37.000Z</time>
      </trkpt>
      <trkpt lat="43.31623" lon="5.68588">
        <ele>865</ele>
        <time>2019-11-29T09:15:38.000Z</time>
      </trkpt>
      <trkpt lat="43.31623" lon="5.68588">
        <ele>865</ele>
        <time>2019-11-29T09:15:39.000Z</time>
      </trkpt>
      <trkpt lat="43.31623" lon="5.68588">
        <ele>865</ele>
        <time>2019-11-29T09:15:40.000Z</time>
      </trkpt>
      <trkpt lat="43.31623" lon="5.68588">
        <ele>865</ele>
        <time>2019-11-29T09:15:41.000Z</time>
      </trkpt>
      <trkpt lat="43.31623" lon="5.68588">
        <ele>865</ele>
        <time>2019-11-29T09:15:42.000Z</time>
      </trkpt>
      <trkpt lat="43.31623" lon="5.68588">
        <ele>865</ele>
        <time>2019-11-29T09:15:43.000Z</time>
      </trkpt>
      <trkpt lat="43.31623" lon="5.68588">
        <ele>865</ele>
        <time>2019-11-29T09:15:44.000Z</time>
      </trkpt>
      <trkpt lat="43.31623" lon="5.68588">
        <ele>865</ele>
        <time>2019-11-29T09:15:45.000Z</time>
      </trkpt>
      <trkpt lat="43.31623" lon="5.68588">
        <ele>865</ele>
        <time>2019-11-29T09:15:46.000Z</time>
      </trkpt>
      <trkpt lat="43.31623" lon="5.68588">
        <ele>865</ele>
        <time>2019-11-29T09:15:47.000Z</time>
      </trkpt>
      <trkpt lat="43.31623" lon="5.68588">
        <ele>865</ele>
        <time>2019-11-29T09:15:48.000Z</time>
      </trkpt>
      <trkpt lat="43.31623" lon="5.68588">
        <ele>865</ele>
        <time>2019-11-29T09:15:49.000Z</time>
      </trkpt>
      <trkpt lat="43.31623" lon="5.68588">
        <ele>865</ele>
        <time>2019-11-29T09:15:50.000Z</time>
      </trkpt>
      <trkpt lat="43.31623" lon="5.68588">
        <ele>865</ele>
        <time>2019-11-29T09:15:51.000Z</time>
      </trkpt>
      <trkpt lat="43.31623" lon="5.68588">
        <ele>865</ele>
        <time>2019-11-29T09:15:52.000Z</time>
      </trkpt>
      <trkpt lat="43.31623" lon="5.68588">
        <ele>865</ele>
        <time>2019-11-29T09:15:53.000Z</time>
      </trkpt>
      <trkpt lat="43.31623" lon="5.68588">
        <ele>865</ele>
        <time>2019-11-29T09:15:54.000Z</time>
      </trkpt>
      <trkpt lat="43.31623" lon="5.68588">
        <ele>865</ele>
        <time>2019-11-29T09:15:55.000Z</time>
      </trkpt>
      <trkpt lat="43.31623" lon="5.68588">
        <ele>865</ele>
        <time>2019-11-29T09:15:56.000Z</time>
      </trkpt>
      <trkpt lat="43.31623" lon="5.68588">
        <ele>865</ele>
        <time>2019-11-29T09:15:57.000Z</time>
      </trkpt>
      <trkpt lat="43.31623" lon="5.68588">
        <ele>865</ele>
        <time>2019-11-29T09:15:58.000Z</time>
      </trkpt>
      <trkpt lat="43.31623" lon="5.68588">
        <ele>865</ele>
        <time>2019-11-29T09:15:59.000Z</time>
      </trkpt>
      <trkpt lat="43.31623" lon="5.68588">
        <ele>865</ele>
        <time>2019-11-29T09:16:00.000Z</time>
      </trkpt>
      <trkpt lat="43.31624" lon="5.68589">
        <ele>865</ele>
        <time>2019-11-29T09:16:01.000Z</time>
      </trkpt>
      <trkpt lat="43.31624" lon="5.68589">
        <ele>865</ele>
        <time>2019-11-29T09:16:02.000Z</time>
      </trkpt>
      <trkpt lat="43.31624" lon="5.68589">
        <ele>865</ele>
        <time>2019-11-29T09:16:03.000Z</time>
      </trkpt>
      <trkpt lat="43.31624" lon="5.68589">
        <ele>865</ele>
        <time>2019-11-29T09:16:04.000Z</time>
      </trkpt>
      <trkpt lat="43.31624" lon="5.68589">
        <ele>866</ele>
        <time>2019-11-29T09:16:05.000Z</time>
      </trkpt>
      <trkpt lat="43.31625" lon="5.6859">
        <ele>866</ele>
        <time>2019-11-29T09:16:06.000Z</time>
      </trkpt>
      <trkpt lat="43.31625" lon="5.68591">
        <ele>866</ele>
        <time>2019-11-29T09:16:07.000Z</time>
      </trkpt>
      <trkpt lat="43.31625" lon="5.68592">
        <ele>866</ele>
        <time>2019-11-29T09:16:08.000Z</time>
      </trkpt>
      <trkpt lat="43.31626" lon="5.68593">
        <ele>866</ele>
        <time>2019-11-29T09:16:09.000Z</time>
      </trkpt>
      <trkpt lat="43.31627" lon="5.68594">
        <ele>866</ele>
        <time>2019-11-29T09:16:10.000Z</time>
      </trkpt>
      <trkpt lat="43.31627" lon="5.68594">
        <ele>866</ele>
        <time>2019-11-29T09:16:11.000Z</time>
      </trkpt>
      <trkpt lat="43.31628" lon="5.68595">
        <ele>866</ele>
        <time>2019-11-29T09:16:12.000Z</time>
      </trkpt>
      <trkpt lat="43.31629" lon="5.68596">
        <ele>866</ele>
        <time>2019-11-29T09:16:13.000Z</time>
      </trkpt>
      <trkpt lat="43.3163" lon="5.68597">
        <ele>866</ele>
        <time>2019-11-29T09:16:14.000Z</time>
      </trkpt>
      <trkpt lat="43.3163" lon="5.68598">
        <ele>866</ele>
        <time>2019-11-29T09:16:15.000Z</time>
      </trkpt>
      <trkpt lat="43.31631" lon="5.68599">
        <ele>866</ele>
        <time>2019-11-29T09:16:16.000Z</time>
      </trkpt>
      <trkpt lat="43.31632" lon="5.686">
        <ele>866</ele>
        <time>2019-11-29T09:16:17.000Z</time>
      </trkpt>
      <trkpt lat="43.31632" lon="5.68601">
        <ele>866</ele>
        <time>2019-11-29T09:16:18.000Z</time>
      </trkpt>
      <trkpt lat="43.31632" lon="5.68602">
        <ele>866</ele>
        <time>2019-11-29T09:16:19.000Z</time>
      </trkpt>
      <trkpt lat="43.31633" lon="5.68604">
        <ele>866</ele>
        <time>2019-11-29T09:16:20.000Z</time>
      </trkpt>
      <trkpt lat="43.31633" lon="5.68605">
        <ele>866</ele>
        <time>2019-11-29T09:16:21.000Z</time>
      </trkpt>
      <trkpt lat="43.31633" lon="5.68606">
        <ele>867</ele>
        <time>2019-11-29T09:16:22.000Z</time>
      </trkpt>
      <trkpt lat="43.31633" lon="5.68608">
        <ele>867</ele>
        <time>2019-11-29T09:16:23.000Z</time>
      </trkpt>
      <trkpt lat="43.31633" lon="5.68609">
        <ele>867</ele>
        <time>2019-11-29T09:16:24.000Z</time>
      </trkpt>
      <trkpt lat="43.31633" lon="5.6861">
        <ele>867</ele>
        <time>2019-11-29T09:16:25.000Z</time>
      </trkpt>
      <trkpt lat="43.31634" lon="5.68611">
        <ele>867</ele>
        <time>2019-11-29T09:16:26.000Z</time>
      </trkpt>
      <trkpt lat="43.31634" lon="5.68612">
        <ele>867</ele>
        <time>2019-11-29T09:16:27.000Z</time>
      </trkpt>
      <trkpt lat="43.31634" lon="5.68613">
        <ele>867</ele>
        <time>2019-11-29T09:16:28.000Z</time>
      </trkpt>
      <trkpt lat="43.31634" lon="5.68614">
        <ele>867</ele>
        <time>2019-11-29T09:16:29.000Z</time>
      </trkpt>
      <trkpt lat="43.31634" lon="5.68614">
        <ele>867</ele>
        <time>2019-11-29T09:16:30.000Z</time>
      </trkpt>
      <trkpt lat="43.31633" lon="5.68615">
        <ele>867</ele>
        <time>2019-11-29T09:16:31.000Z</time>
      </trkpt>
      <trkpt lat="43.31633" lon="5.68615">
        <ele>867</ele>
        <time>2019-11-29T09:16:32.000Z</time>
      </trkpt>
      <trkpt lat="43.31633" lon="5.68616">
        <ele>867</ele>
        <time>2019-11-29T09:16:33.000Z</time>
      </trkpt>
      <trkpt lat="43.31632" lon="5.68618">
        <ele>867</ele>
        <time>2019-11-29T09:16:34.000Z</time>
      </trkpt>
      <trkpt lat="43.31632" lon="5.68619">
        <ele>867</ele>
        <time>2019-11-29T09:16:35.000Z</time>
      </trkpt>
      <trkpt lat="43.31631" lon="5.6862">
        <ele>866</ele>
        <time>2019-11-29T09:16:36.000Z</time>
      </trkpt>
      <trkpt lat="43.31631" lon="5.68621">
        <ele>866</ele>
        <time>2019-11-29T09:16:37.000Z</time>
      </trkpt>
      <trkpt lat="43.3163" lon="5.68622">
        <ele>867</ele>
        <time>2019-11-29T09:16:38.000Z</time>
      </trkpt>
      <trkpt lat="43.3163" lon="5.68623">
        <ele>867</ele>
        <time>2019-11-29T09:16:39.000Z</time>
      </trkpt>
      <trkpt lat="43.3163" lon="5.68624">
        <ele>867</ele>
        <time>2019-11-29T09:16:40.000Z</time>
      </trkpt>
      <trkpt lat="43.31629" lon="5.68626">
        <ele>867</ele>
        <time>2019-11-29T09:16:41.000Z</time>
      </trkpt>
      <trkpt lat="43.31629" lon="5.68627">
        <ele>867</ele>
        <time>2019-11-29T09:16:42.000Z</time>
      </trkpt>
      <trkpt lat="43.31629" lon="5.68627">
        <ele>867</ele>
        <time>2019-11-29T09:16:43.000Z</time>
      </trkpt>
      <trkpt lat="43.31629" lon="5.68628">
        <ele>867</ele>
        <time>2019-11-29T09:16:44.000Z</time>
      </trkpt>
      <trkpt lat="43.31629" lon="5.68629">
        <ele>867</ele>
        <time>2019-11-29T09:16:45.000Z</time>
      </trkpt>
      <trkpt lat="43.31629" lon="5.6863">
        <ele>867</ele>
        <time>2019-11-29T09:16:46.000Z</time>
      </trkpt>
      <trkpt lat="43.31629" lon="5.68631">
        <ele>867</ele>
        <time>2019-11-29T09:16:47.000Z</time>
      </trkpt>
      <trkpt lat="43.31629" lon="5.68632">
        <ele>867</ele>
        <time>2019-11-29T09:16:48.000Z</time>
      </trkpt>
      <trkpt lat="43.31629" lon="5.68632">
        <ele>867</ele>
        <time>2019-11-29T09:16:49.000Z</time>
      </trkpt>
      <trkpt lat="43.31629" lon="5.68632">
        <ele>867</ele>
        <time>2019-11-29T09:16:50.000Z</time>
      </trkpt>
      <trkpt lat="43.31629" lon="5.68632">
        <ele>867</ele>
        <time>2019-11-29T09:16:51.000Z</time>
      </trkpt>
      <trkpt lat="43.31629" lon="5.68632">
        <ele>867</ele>
        <time>2019-11-29T09:16:52.000Z</time>
      </trkpt>
      <trkpt lat="43.31629" lon="5.68632">
        <ele>867</ele>
        <time>2019-11-29T09:16:53.000Z</time>
      </trkpt>
      <trkpt lat="43.31629" lon="5.68633">
        <ele>867</ele>
        <time>2019-11-29T09:16:54.000Z</time>
      </trkpt>
      <trkpt lat="43.31628" lon="5.68633">
        <ele>867</ele>
        <time>2019-11-29T09:16:55.000Z</time>
      </trkpt>
      <trkpt lat="43.31628" lon="5.68634">
        <ele>867</ele>
        <time>2019-11-29T09:16:56.000Z</time>
      </trkpt>
      <trkpt lat="43.31628" lon="5.68635">
        <ele>867</ele>
        <time>2019-11-29T09:16:57.000Z</time>
      </trkpt>
      <trkpt lat="43.31628" lon="5.68636">
        <ele>868</ele>
        <time>2019-11-29T09:16:58.000Z</time>
      </trkpt>
      <trkpt lat="43.31628" lon="5.68636">
        <ele>868</ele>
        <time>2019-11-29T09:16:59.000Z</time>
      </trkpt>
      <trkpt lat="43.31628" lon="5.68636">
        <ele>868</ele>
        <time>2019-11-29T09:17:00.000Z</time>
      </trkpt>
      <trkpt lat="43.31628" lon="5.68636">
        <ele>868</ele>
        <time>2019-11-29T09:17:01.000Z</time>
      </trkpt>
      <trkpt lat="43.31628" lon="5.68636">
        <ele>868</ele>
        <time>2019-11-29T09:17:02.000Z</time>
      </trkpt>
      <trkpt lat="43.31628" lon="5.68636">
        <ele>868</ele>
        <time>2019-11-29T09:17:03.000Z</time>
      </trkpt>
      <trkpt lat="43.31628" lon="5.68636">
        <ele>868</ele>
        <time>2019-11-29T09:17:04.000Z</time>
      </trkpt>
      <trkpt lat="43.31628" lon="5.68636">
        <ele>868</ele>
        <time>2019-11-29T09:17:05.000Z</time>
      </trkpt>
      <trkpt lat="43.31628" lon="5.68636">
        <ele>868</ele>
        <time>2019-11-29T09:17:06.000Z</time>
      </trkpt>
      <trkpt lat="43.31628" lon="5.68636">
        <ele>868</ele>
        <time>2019-11-29T09:17:07.000Z</time>
      </trkpt>
      <trkpt lat="43.31628" lon="5.68636">
        <ele>868</ele>
        <time>2019-11-29T09:17:08.000Z</time>
      </trkpt>
      <trkpt lat="43.31628" lon="5.68637">
        <ele>868</ele>
        <time>2019-11-29T09:17:09.000Z</time>
      </trkpt>
      <trkpt lat="43.31628" lon="5.68637">
        <ele>868</ele>
        <time>2019-11-29T09:17:10.000Z</time>
      </trkpt>
      <trkpt lat="43.31628" lon="5.68637">
        <ele>868</ele>
        <time>2019-11-29T09:17:11.000Z</time>
      </trkpt>
      <trkpt lat="43.31628" lon="5.68637">
        <ele>868</ele>
        <time>2019-11-29T09:17:12.000Z</time>
      </trkpt>
      <trkpt lat="43.31628" lon="5.68636">
        <ele>868</ele>
        <time>2019-11-29T09:17:13.000Z</time>
      </trkpt>
      <trkpt lat="43.31628" lon="5.68637">
        <ele>868</ele>
        <time>2019-11-29T09:17:14.000Z</time>
      </trkpt>
      <trkpt lat="43.31628" lon="5.68637">
        <ele>868</ele>
        <time>2019-11-29T09:17:15.000Z</time>
      </trkpt>
      <trkpt lat="43.31628" lon="5.68637">
        <ele>868</ele>
        <time>2019-11-29T09:17:16.000Z</time>
      </trkpt>
      <trkpt lat="43.31628" lon="5.68637">
        <ele>868</ele>
        <time>2019-11-29T09:17:17.000Z</time>
      </trkpt>
      <trkpt lat="43.31628" lon="5.68637">
        <ele>868</ele>
        <time>2019-11-29T09:17:18.000Z</time>
      </trkpt>
      <trkpt lat="43.31628" lon="5.68637">
        <ele>868</ele>
        <time>2019-11-29T09:17:19.000Z</time>
      </trkpt>
      <trkpt lat="43.31628" lon="5.68637">
        <ele>868</ele>
        <time>2019-11-29T09:17:20.000Z</time>
      </trkpt>
      <trkpt lat="43.31628" lon="5.68637">
        <ele>868</ele>
        <time>2019-11-29T09:17:21.000Z</time>
      </trkpt>
      <trkpt lat="43.31628" lon="5.68637">
        <ele>868</ele>
        <time>2019-11-29T09:17:22.000Z</time>
      </trkpt>
      <trkpt lat="43.31628" lon="5.68637">
        <ele>868</ele>
        <time>2019-11-29T09:17:23.000Z</time>
      </trkpt>
      <trkpt lat="43.31628" lon="5.68637">
        <ele>868</ele>
        <time>2019-11-29T09:17:24.000Z</time>
      </trkpt>
      <trkpt lat="43.31628" lon="5.68637">
        <ele>868</ele>
        <time>2019-11-29T09:17:25.000Z</time>
      </trkpt>
      <trkpt lat="43.31628" lon="5.68638">
        <ele>868</ele>
        <time>2019-11-29T09:17:26.000Z</time>
      </trkpt>
      <trkpt lat="43.31628" lon="5.68638">
        <ele>868</ele>
        <time>2019-11-29T09:17:27.000Z</time>
      </trkpt>
      <trkpt lat="43.31628" lon="5.68639">
        <ele>868</ele>
        <time>2019-11-29T09:17:28.000Z</time>
      </trkpt>
      <trkpt lat="43.31628" lon="5.6864">
        <ele>868</ele>
        <time>2019-11-29T09:17:29.000Z</time>
      </trkpt>
      <trkpt lat="43.31628" lon="5.68641">
        <ele>868</ele>
        <time>2019-11-29T09:17:30.000Z</time>
      </trkpt>
      <trkpt lat="43.31628" lon="5.68642">
        <ele>868</ele>
        <time>2019-11-29T09:17:31.000Z</time>
      </trkpt>
      <trkpt lat="43.31628" lon="5.68642">
        <ele>868</ele>
        <time>2019-11-29T09:17:32.000Z</time>
      </trkpt>
      <trkpt lat="43.31628" lon="5.68643">
        <ele>868</ele>
        <time>2019-11-29T09:17:33.000Z</time>
      </trkpt>
      <trkpt lat="43.31628" lon="5.68644">
        <ele>868</ele>
        <time>2019-11-29T09:17:34.000Z</time>
      </trkpt>
      <trkpt lat="43.31628" lon="5.68645">
        <ele>868</ele>
        <time>2019-11-29T09:17:35.000Z</time>
      </trkpt>
      <trkpt lat="43.31627" lon="5.68646">
        <ele>869</ele>
        <time>2019-11-29T09:17:36.000Z</time>
      </trkpt>
      <trkpt lat="43.31627" lon="5.68647">
        <ele>869</ele>
        <time>2019-11-29T09:17:37.000Z</time>
      </trkpt>
      <trkpt lat="43.31627" lon="5.68648">
        <ele>869</ele>
        <time>2019-11-29T09:17:38.000Z</time>
      </trkpt>
      <trkpt lat="43.31626" lon="5.68649">
        <ele>869</ele>
        <time>2019-11-29T09:17:39.000Z</time>
      </trkpt>
      <trkpt lat="43.31625" lon="5.68649">
        <ele>869</ele>
        <time>2019-11-29T09:17:40.000Z</time>
      </trkpt>
      <trkpt lat="43.31625" lon="5.68649">
        <ele>869</ele>
        <time>2019-11-29T09:17:41.000Z</time>
      </trkpt>
      <trkpt lat="43.31624" lon="5.68649">
        <ele>869</ele>
        <time>2019-11-29T09:17:42.000Z</time>
      </trkpt>
      <trkpt lat="43.31624" lon="5.68649">
        <ele>869</ele>
        <time>2019-11-29T09:17:43.000Z</time>
      </trkpt>
      <trkpt lat="43.31624" lon="5.68649">
        <ele>869</ele>
        <time>2019-11-29T09:17:44.000Z</time>
      </trkpt>
      <trkpt lat="43.31624" lon="5.68649">
        <ele>869</ele>
        <time>2019-11-29T09:17:45.000Z</time>
      </trkpt>
      <trkpt lat="43.31624" lon="5.68649">
        <ele>869</ele>
        <time>2019-11-29T09:17:46.000Z</time>
      </trkpt>
      <trkpt lat="43.31624" lon="5.68649">
        <ele>869</ele>
        <time>2019-11-29T09:17:47.000Z</time>
      </trkpt>
      <trkpt lat="43.31623" lon="5.6865">
        <ele>869</ele>
        <time>2019-11-29T09:17:48.000Z</time>
      </trkpt>
      <trkpt lat="43.31623" lon="5.68652">
        <ele>870</ele>
        <time>2019-11-29T09:17:49.000Z</time>
      </trkpt>
      <trkpt lat="43.31623" lon="5.68653">
        <ele>870</ele>
        <time>2019-11-29T09:17:50.000Z</time>
      </trkpt>
      <trkpt lat="43.31623" lon="5.68654">
        <ele>870</ele>
        <time>2019-11-29T09:17:51.000Z</time>
      </trkpt>
      <trkpt lat="43.31622" lon="5.68655">
        <ele>870</ele>
        <time>2019-11-29T09:17:52.000Z</time>
      </trkpt>
      <trkpt lat="43.31622" lon="5.68656">
        <ele>870</ele>
        <time>2019-11-29T09:17:53.000Z</time>
      </trkpt>
      <trkpt lat="43.31622" lon="5.68657">
        <ele>870</ele>
        <time>2019-11-29T09:17:54.000Z</time>
      </trkpt>
      <trkpt lat="43.31622" lon="5.68657">
        <ele>870</ele>
        <time>2019-11-29T09:17:55.000Z</time>
      </trkpt>
      <trkpt lat="43.31621" lon="5.68657">
        <ele>870</ele>
        <time>2019-11-29T09:17:56.000Z</time>
      </trkpt>
      <trkpt lat="43.31621" lon="5.68658">
        <ele>870</ele>
        <time>2019-11-29T09:17:57.000Z</time>
      </trkpt>
      <trkpt lat="43.31621" lon="5.68658">
        <ele>870</ele>
        <time>2019-11-29T09:17:58.000Z</time>
      </trkpt>
      <trkpt lat="43.31621" lon="5.68659">
        <ele>871</ele>
        <time>2019-11-29T09:17:59.000Z</time>
      </trkpt>
      <trkpt lat="43.31621" lon="5.68661">
        <ele>871</ele>
        <time>2019-11-29T09:18:00.000Z</time>
      </trkpt>
      <trkpt lat="43.31621" lon="5.68662">
        <ele>871</ele>
        <time>2019-11-29T09:18:01.000Z</time>
      </trkpt>
      <trkpt lat="43.3162" lon="5.68663">
        <ele>871</ele>
        <time>2019-11-29T09:18:02.000Z</time>
      </trkpt>
      <trkpt lat="43.3162" lon="5.68664">
        <ele>871</ele>
        <time>2019-11-29T09:18:03.000Z</time>
      </trkpt>
      <trkpt lat="43.3162" lon="5.68665">
        <ele>871</ele>
        <time>2019-11-29T09:18:04.000Z</time>
      </trkpt>
      <trkpt lat="43.3162" lon="5.68666">
        <ele>871</ele>
        <time>2019-11-29T09:18:05.000Z</time>
      </trkpt>
      <trkpt lat="43.3162" lon="5.68667">
        <ele>871</ele>
        <time>2019-11-29T09:18:06.000Z</time>
      </trkpt>
      <trkpt lat="43.3162" lon="5.68669">
        <ele>872</ele>
        <time>2019-11-29T09:18:07.000Z</time>
      </trkpt>
      <trkpt lat="43.3162" lon="5.6867">
        <ele>872</ele>
        <time>2019-11-29T09:18:08.000Z</time>
      </trkpt>
      <trkpt lat="43.3162" lon="5.68671">
        <ele>872</ele>
        <time>2019-11-29T09:18:09.000Z</time>
      </trkpt>
      <trkpt lat="43.3162" lon="5.68672">
        <ele>872</ele>
        <time>2019-11-29T09:18:10.000Z</time>
      </trkpt>
      <trkpt lat="43.3162" lon="5.68674">
        <ele>872</ele>
        <time>2019-11-29T09:18:11.000Z</time>
      </trkpt>
      <trkpt lat="43.3162" lon="5.68674">
        <ele>872</ele>
        <time>2019-11-29T09:18:12.000Z</time>
      </trkpt>
      <trkpt lat="43.31621" lon="5.68674">
        <ele>872</ele>
        <time>2019-11-29T09:18:13.000Z</time>
      </trkpt>
      <trkpt lat="43.31621" lon="5.68675">
        <ele>872</ele>
        <time>2019-11-29T09:18:14.000Z</time>
      </trkpt>
      <trkpt lat="43.31622" lon="5.68675">
        <ele>872</ele>
        <time>2019-11-29T09:18:15.000Z</time>
      </trkpt>
      <trkpt lat="43.31622" lon="5.68675">
        <ele>873</ele>
        <time>2019-11-29T09:18:16.000Z</time>
      </trkpt>
      <trkpt lat="43.31622" lon="5.68676">
        <ele>873</ele>
        <time>2019-11-29T09:18:17.000Z</time>
      </trkpt>
      <trkpt lat="43.31623" lon="5.68677">
        <ele>873</ele>
        <time>2019-11-29T09:18:18.000Z</time>
      </trkpt>
      <trkpt lat="43.31623" lon="5.68677">
        <ele>873</ele>
        <time>2019-11-29T09:18:19.000Z</time>
      </trkpt>
      <trkpt lat="43.31623" lon="5.68677">
        <ele>873</ele>
        <time>2019-11-29T09:18:20.000Z</time>
      </trkpt>
      <trkpt lat="43.31623" lon="5.68677">
        <ele>873</ele>
        <time>2019-11-29T09:18:21.000Z</time>
      </trkpt>
      <trkpt lat="43.31623" lon="5.68678">
        <ele>873</ele>
        <time>2019-11-29T09:18:22.000Z</time>
      </trkpt>
      <trkpt lat="43.31624" lon="5.68679">
        <ele>873</ele>
        <time>2019-11-29T09:18:23.000Z</time>
      </trkpt>
      <trkpt lat="43.31624" lon="5.68679">
        <ele>873</ele>
        <time>2019-11-29T09:18:24.000Z</time>
      </trkpt>
      <trkpt lat="43.31624" lon="5.68679">
        <ele>874</ele>
        <time>2019-11-29T09:18:25.000Z</time>
      </trkpt>
      <trkpt lat="43.31624" lon="5.68679">
        <ele>874</ele>
        <time>2019-11-29T09:18:26.000Z</time>
      </trkpt>
      <trkpt lat="43.31624" lon="5.6868">
        <ele>874</ele>
        <time>2019-11-29T09:18:27.000Z</time>
      </trkpt>
      <trkpt lat="43.31624" lon="5.6868">
        <ele>874</ele>
        <time>2019-11-29T09:18:28.000Z</time>
      </trkpt>
      <trkpt lat="43.31625" lon="5.68681">
        <ele>874</ele>
        <time>2019-11-29T09:18:29.000Z</time>
      </trkpt>
      <trkpt lat="43.31625" lon="5.68683">
        <ele>874</ele>
        <time>2019-11-29T09:18:30.000Z</time>
      </trkpt>
      <trkpt lat="43.31626" lon="5.68684">
        <ele>874</ele>
        <time>2019-11-29T09:18:31.000Z</time>
      </trkpt>
      <trkpt lat="43.31626" lon="5.68685">
        <ele>874</ele>
        <time>2019-11-29T09:18:32.000Z</time>
      </trkpt>
      <trkpt lat="43.31626" lon="5.68687">
        <ele>874</ele>
        <time>2019-11-29T09:18:33.000Z</time>
      </trkpt>
      <trkpt lat="43.31626" lon="5.68688">
        <ele>875</ele>
        <time>2019-11-29T09:18:34.000Z</time>
      </trkpt>
      <trkpt lat="43.31626" lon="5.68689">
        <ele>875</ele>
        <time>2019-11-29T09:18:35.000Z</time>
      </trkpt>
      <trkpt lat="43.31626" lon="5.6869">
        <ele>875</ele>
        <time>2019-11-29T09:18:36.000Z</time>
      </trkpt>
      <trkpt lat="43.31626" lon="5.68692">
        <ele>875</ele>
        <time>2019-11-29T09:18:37.000Z</time>
      </trkpt>
      <trkpt lat="43.31625" lon="5.68693">
        <ele>875</ele>
        <time>2019-11-29T09:18:38.000Z</time>
      </trkpt>
      <trkpt lat="43.31625" lon="5.68694">
        <ele>876</ele>
        <time>2019-11-29T09:18:39.000Z</time>
      </trkpt>
      <trkpt lat="43.31625" lon="5.68695">
        <ele>876</ele>
        <time>2019-11-29T09:18:40.000Z</time>
      </trkpt>
      <trkpt lat="43.31624" lon="5.68695">
        <ele>876</ele>
        <time>2019-11-29T09:18:41.000Z</time>
      </trkpt>
      <trkpt lat="43.31624" lon="5.68696">
        <ele>876</ele>
        <time>2019-11-29T09:18:42.000Z</time>
      </trkpt>
      <trkpt lat="43.31624" lon="5.68697">
        <ele>877</ele>
        <time>2019-11-29T09:18:43.000Z</time>
      </trkpt>
      <trkpt lat="43.31624" lon="5.68698">
        <ele>877</ele>
        <time>2019-11-29T09:18:44.000Z</time>
      </trkpt>
      <trkpt lat="43.31624" lon="5.68699">
        <ele>877</ele>
        <time>2019-11-29T09:18:45.000Z</time>
      </trkpt>
      <trkpt lat="43.31625" lon="5.687">
        <ele>877</ele>
        <time>2019-11-29T09:18:46.000Z</time>
      </trkpt>
      <trkpt lat="43.31625" lon="5.68701">
        <ele>877</ele>
        <time>2019-11-29T09:18:47.000Z</time>
      </trkpt>
      <trkpt lat="43.31626" lon="5.68703">
        <ele>877</ele>
        <time>2019-11-29T09:18:48.000Z</time>
      </trkpt>
      <trkpt lat="43.31626" lon="5.68704">
        <ele>877</ele>
        <time>2019-11-29T09:18:49.000Z</time>
      </trkpt>
      <trkpt lat="43.31626" lon="5.68706">
        <ele>877</ele>
        <time>2019-11-29T09:18:50.000Z</time>
      </trkpt>
      <trkpt lat="43.31626" lon="5.68707">
        <ele>878</ele>
        <time>2019-11-29T09:18:51.000Z</time>
      </trkpt>
      <trkpt lat="43.31626" lon="5.68709">
        <ele>878</ele>
        <time>2019-11-29T09:18:52.000Z</time>
      </trkpt>
      <trkpt lat="43.31627" lon="5.6871">
        <ele>878</ele>
        <time>2019-11-29T09:18:53.000Z</time>
      </trkpt>
      <trkpt lat="43.31627" lon="5.68711">
        <ele>878</ele>
        <time>2019-11-29T09:18:54.000Z</time>
      </trkpt>
      <trkpt lat="43.31628" lon="5.68713">
        <ele>878</ele>
        <time>2019-11-29T09:18:55.000Z</time>
      </trkpt>
      <trkpt lat="43.31629" lon="5.68714">
        <ele>877</ele>
        <time>2019-11-29T09:18:56.000Z</time>
      </trkpt>
      <trkpt lat="43.31629" lon="5.68716">
        <ele>877</ele>
        <time>2019-11-29T09:18:57.000Z</time>
      </trkpt>
      <trkpt lat="43.31629" lon="5.68717">
        <ele>877</ele>
        <time>2019-11-29T09:18:58.000Z</time>
      </trkpt>
      <trkpt lat="43.31628" lon="5.68718">
        <ele>877</ele>
        <time>2019-11-29T09:18:59.000Z</time>
      </trkpt>
      <trkpt lat="43.31628" lon="5.68719">
        <ele>877</ele>
        <time>2019-11-29T09:19:00.000Z</time>
      </trkpt>
      <trkpt lat="43.31628" lon="5.6872">
        <ele>877</ele>
        <time>2019-11-29T09:19:01.000Z</time>
      </trkpt>
      <trkpt lat="43.31629" lon="5.68721">
        <ele>877</ele>
        <time>2019-11-29T09:19:02.000Z</time>
      </trkpt>
      <trkpt lat="43.3163" lon="5.68722">
        <ele>877</ele>
        <time>2019-11-29T09:19:03.000Z</time>
      </trkpt>
      <trkpt lat="43.3163" lon="5.68724">
        <ele>877</ele>
        <time>2019-11-29T09:19:04.000Z</time>
      </trkpt>
      <trkpt lat="43.31631" lon="5.68725">
        <ele>877</ele>
        <time>2019-11-29T09:19:05.000Z</time>
      </trkpt>
      <trkpt lat="43.31631" lon="5.68726">
        <ele>877</ele>
        <time>2019-11-29T09:19:06.000Z</time>
      </trkpt>
      <trkpt lat="43.31632" lon="5.68727">
        <ele>877</ele>
        <time>2019-11-29T09:19:07.000Z</time>
      </trkpt>
      <trkpt lat="43.31633" lon="5.68728">
        <ele>877</ele>
        <time>2019-11-29T09:19:08.000Z</time>
      </trkpt>
      <trkpt lat="43.31634" lon="5.68729">
        <ele>877</ele>
        <time>2019-11-29T09:19:09.000Z</time>
      </trkpt>
      <trkpt lat="43.31634" lon="5.68729">
        <ele>877</ele>
        <time>2019-11-29T09:19:10.000Z</time>
      </trkpt>
      <trkpt lat="43.31635" lon="5.68731">
        <ele>877</ele>
        <time>2019-11-29T09:19:11.000Z</time>
      </trkpt>
      <trkpt lat="43.31636" lon="5.68732">
        <ele>877</ele>
        <time>2019-11-29T09:19:12.000Z</time>
      </trkpt>
      <trkpt lat="43.31636" lon="5.68734">
        <ele>877</ele>
        <time>2019-11-29T09:19:13.000Z</time>
      </trkpt>
      <trkpt lat="43.31636" lon="5.68734">
        <ele>877</ele>
        <time>2019-11-29T09:19:14.000Z</time>
      </trkpt>
      <trkpt lat="43.31636" lon="5.68736">
        <ele>877</ele>
        <time>2019-11-29T09:19:15.000Z</time>
      </trkpt>
      <trkpt lat="43.31637" lon="5.68737">
        <ele>878</ele>
        <time>2019-11-29T09:19:16.000Z</time>
      </trkpt>
      <trkpt lat="43.31637" lon="5.68738">
        <ele>878</ele>
        <time>2019-11-29T09:19:17.000Z</time>
      </trkpt>
      <trkpt lat="43.31637" lon="5.6874">
        <ele>878</ele>
        <time>2019-11-29T09:19:18.000Z</time>
      </trkpt>
      <trkpt lat="43.31637" lon="5.68741">
        <ele>878</ele>
        <time>2019-11-29T09:19:19.000Z</time>
      </trkpt>
      <trkpt lat="43.31637" lon="5.68742">
        <ele>878</ele>
        <time>2019-11-29T09:19:20.000Z</time>
      </trkpt>
      <trkpt lat="43.31638" lon="5.68743">
        <ele>877</ele>
        <time>2019-11-29T09:19:21.000Z</time>
      </trkpt>
      <trkpt lat="43.31639" lon="5.68744">
        <ele>877</ele>
        <time>2019-11-29T09:19:22.000Z</time>
      </trkpt>
      <trkpt lat="43.31639" lon="5.68745">
        <ele>877</ele>
        <time>2019-11-29T09:19:23.000Z</time>
      </trkpt>
      <trkpt lat="43.3164" lon="5.68746">
        <ele>877</ele>
        <time>2019-11-29T09:19:24.000Z</time>
      </trkpt>
      <trkpt lat="43.3164" lon="5.68748">
        <ele>877</ele>
        <time>2019-11-29T09:19:25.000Z</time>
      </trkpt>
      <trkpt lat="43.31641" lon="5.68749">
        <ele>877</ele>
        <time>2019-11-29T09:19:26.000Z</time>
      </trkpt>
      <trkpt lat="43.31642" lon="5.68751">
        <ele>877</ele>
        <time>2019-11-29T09:19:27.000Z</time>
      </trkpt>
      <trkpt lat="43.31642" lon="5.68752">
        <ele>877</ele>
        <time>2019-11-29T09:19:28.000Z</time>
      </trkpt>
      <trkpt lat="43.31643" lon="5.68753">
        <ele>877</ele>
        <time>2019-11-29T09:19:29.000Z</time>
      </trkpt>
      <trkpt lat="43.31644" lon="5.68754">
        <ele>877</ele>
        <time>2019-11-29T09:19:30.000Z</time>
      </trkpt>
      <trkpt lat="43.31645" lon="5.68756">
        <ele>877</ele>
        <time>2019-11-29T09:19:31.000Z</time>
      </trkpt>
      <trkpt lat="43.31646" lon="5.68757">
        <ele>877</ele>
        <time>2019-11-29T09:19:32.000Z</time>
      </trkpt>
      <trkpt lat="43.31646" lon="5.68758">
        <ele>877</ele>
        <time>2019-11-29T09:19:33.000Z</time>
      </trkpt>
      <trkpt lat="43.31647" lon="5.6876">
        <ele>877</ele>
        <time>2019-11-29T09:19:34.000Z</time>
      </trkpt>
      <trkpt lat="43.31647" lon="5.68761">
        <ele>877</ele>
        <time>2019-11-29T09:19:35.000Z</time>
      </trkpt>
      <trkpt lat="43.31647" lon="5.68763">
        <ele>877</ele>
        <time>2019-11-29T09:19:36.000Z</time>
      </trkpt>
      <trkpt lat="43.31647" lon="5.68765">
        <ele>877</ele>
        <time>2019-11-29T09:19:37.000Z</time>
      </trkpt>
      <trkpt lat="43.31647" lon="5.68766">
        <ele>877</ele>
        <time>2019-11-29T09:19:38.000Z</time>
      </trkpt>
      <trkpt lat="43.31647" lon="5.68768">
        <ele>877</ele>
        <time>2019-11-29T09:19:39.000Z</time>
      </trkpt>
      <trkpt lat="43.31647" lon="5.6877">
        <ele>877</ele>
        <time>2019-11-29T09:19:40.000Z</time>
      </trkpt>
      <trkpt lat="43.31646" lon="5.68771">
        <ele>877</ele>
        <time>2019-11-29T09:19:41.000Z</time>
      </trkpt>
      <trkpt lat="43.31646" lon="5.68772">
        <ele>877</ele>
        <time>2019-11-29T09:19:42.000Z</time>
      </trkpt>
      <trkpt lat="43.31645" lon="5.68773">
        <ele>877</ele>
        <time>2019-11-29T09:19:43.000Z</time>
      </trkpt>
      <trkpt lat="43.31644" lon="5.68774">
        <ele>877</ele>
        <time>2019-11-29T09:19:44.000Z</time>
      </trkpt>
      <trkpt lat="43.31644" lon="5.68775">
        <ele>877</ele>
        <time>2019-11-29T09:19:45.000Z</time>
      </trkpt>
      <trkpt lat="43.31644" lon="5.68777">
        <ele>876</ele>
        <time>2019-11-29T09:19:46.000Z</time>
      </trkpt>
      <trkpt lat="43.31644" lon="5.68778">
        <ele>876</ele>
        <time>2019-11-29T09:19:47.000Z</time>
      </trkpt>
      <trkpt lat="43.31644" lon="5.6878">
        <ele>876</ele>
        <time>2019-11-29T09:19:48.000Z</time>
      </trkpt>
      <trkpt lat="43.31644" lon="5.68781">
        <ele>876</ele>
        <time>2019-11-29T09:19:49.000Z</time>
      </trkpt>
      <trkpt lat="43.31644" lon="5.68783">
        <ele>876</ele>
        <time>2019-11-29T09:19:50.000Z</time>
      </trkpt>
      <trkpt lat="43.31644" lon="5.68784">
        <ele>876</ele>
        <time>2019-11-29T09:19:51.000Z</time>
      </trkpt>
      <trkpt lat="43.31643" lon="5.68785">
        <ele>876</ele>
        <time>2019-11-29T09:19:52.000Z</time>
      </trkpt>
      <trkpt lat="43.31643" lon="5.68787">
        <ele>876</ele>
        <time>2019-11-29T09:19:53.000Z</time>
      </trkpt>
      <trkpt lat="43.31643" lon="5.68788">
        <ele>876</ele>
        <time>2019-11-29T09:19:54.000Z</time>
      </trkpt>
      <trkpt lat="43.31642" lon="5.6879">
        <ele>876</ele>
        <time>2019-11-29T09:19:55.000Z</time>
      </trkpt>
      <trkpt lat="43.31642" lon="5.68792">
        <ele>876</ele>
        <time>2019-11-29T09:19:56.000Z</time>
      </trkpt>
      <trkpt lat="43.31642" lon="5.68794">
        <ele>876</ele>
        <time>2019-11-29T09:19:57.000Z</time>
      </trkpt>
      <trkpt lat="43.31642" lon="5.68795">
        <ele>876</ele>
        <time>2019-11-29T09:19:58.000Z</time>
      </trkpt>
      <trkpt lat="43.31642" lon="5.68797">
        <ele>876</ele>
        <time>2019-11-29T09:19:59.000Z</time>
      </trkpt>
      <trkpt lat="43.31641" lon="5.68799">
        <ele>876</ele>
        <time>2019-11-29T09:20:00.000Z</time>
      </trkpt>
      <trkpt lat="43.31641" lon="5.68801">
        <ele>876</ele>
        <time>2019-11-29T09:20:01.000Z</time>
      </trkpt>
      <trkpt lat="43.31641" lon="5.68802">
        <ele>876</ele>
        <time>2019-11-29T09:20:02.000Z</time>
      </trkpt>
      <trkpt lat="43.3164" lon="5.68804">
        <ele>875</ele>
        <time>2019-11-29T09:20:03.000Z</time>
      </trkpt>
      <trkpt lat="43.3164" lon="5.68805">
        <ele>875</ele>
        <time>2019-11-29T09:20:04.000Z</time>
      </trkpt>
      <trkpt lat="43.3164" lon="5.68807">
        <ele>875</ele>
        <time>2019-11-29T09:20:05.000Z</time>
      </trkpt>
      <trkpt lat="43.3164" lon="5.68809">
        <ele>875</ele>
        <time>2019-11-29T09:20:06.000Z</time>
      </trkpt>
      <trkpt lat="43.3164" lon="5.68811">
        <ele>875</ele>
        <time>2019-11-29T09:20:07.000Z</time>
      </trkpt>
      <trkpt lat="43.31639" lon="5.68812">
        <ele>875</ele>
        <time>2019-11-29T09:20:08.000Z</time>
      </trkpt>
      <trkpt lat="43.31639" lon="5.68814">
        <ele>875</ele>
        <time>2019-11-29T09:20:09.000Z</time>
      </trkpt>
      <trkpt lat="43.31638" lon="5.68815">
        <ele>875</ele>
        <time>2019-11-29T09:20:10.000Z</time>
      </trkpt>
      <trkpt lat="43.31638" lon="5.68817">
        <ele>875</ele>
        <time>2019-11-29T09:20:11.000Z</time>
      </trkpt>
      <trkpt lat="43.31637" lon="5.68819">
        <ele>875</ele>
        <time>2019-11-29T09:20:12.000Z</time>
      </trkpt>
      <trkpt lat="43.31637" lon="5.6882">
        <ele>875</ele>
        <time>2019-11-29T09:20:13.000Z</time>
      </trkpt>
      <trkpt lat="43.31636" lon="5.68821">
        <ele>875</ele>
        <time>2019-11-29T09:20:14.000Z</time>
      </trkpt>
      <trkpt lat="43.31636" lon="5.68823">
        <ele>875</ele>
        <time>2019-11-29T09:20:15.000Z</time>
      </trkpt>
      <trkpt lat="43.31635" lon="5.68825">
        <ele>875</ele>
        <time>2019-11-29T09:20:16.000Z</time>
      </trkpt>
      <trkpt lat="43.31635" lon="5.68826">
        <ele>876</ele>
        <time>2019-11-29T09:20:17.000Z</time>
      </trkpt>
      <trkpt lat="43.31634" lon="5.68828">
        <ele>876</ele>
        <time>2019-11-29T09:20:18.000Z</time>
      </trkpt>
      <trkpt lat="43.31634" lon="5.68829">
        <ele>876</ele>
        <time>2019-11-29T09:20:19.000Z</time>
      </trkpt>
      <trkpt lat="43.31634" lon="5.6883">
        <ele>876</ele>
        <time>2019-11-29T09:20:20.000Z</time>
      </trkpt>
      <trkpt lat="43.31633" lon="5.68832">
        <ele>876</ele>
        <time>2019-11-29T09:20:21.000Z</time>
      </trkpt>
      <trkpt lat="43.31633" lon="5.68833">
        <ele>876</ele>
        <time>2019-11-29T09:20:22.000Z</time>
      </trkpt>
      <trkpt lat="43.31632" lon="5.68834">
        <ele>876</ele>
        <time>2019-11-29T09:20:23.000Z</time>
      </trkpt>
      <trkpt lat="43.31632" lon="5.68835">
        <ele>876</ele>
        <time>2019-11-29T09:20:24.000Z</time>
      </trkpt>
      <trkpt lat="43.31632" lon="5.68836">
        <ele>877</ele>
        <time>2019-11-29T09:20:25.000Z</time>
      </trkpt>
      <trkpt lat="43.31631" lon="5.68837">
        <ele>877</ele>
        <time>2019-11-29T09:20:26.000Z</time>
      </trkpt>
      <trkpt lat="43.31631" lon="5.68838">
        <ele>877</ele>
        <time>2019-11-29T09:20:27.000Z</time>
      </trkpt>
      <trkpt lat="43.31631" lon="5.68839">
        <ele>877</ele>
        <time>2019-11-29T09:20:28.000Z</time>
      </trkpt>
      <trkpt lat="43.3163" lon="5.68841">
        <ele>877</ele>
        <time>2019-11-29T09:20:29.000Z</time>
      </trkpt>
      <trkpt lat="43.3163" lon="5.68843">
        <ele>877</ele>
        <time>2019-11-29T09:20:30.000Z</time>
      </trkpt>
      <trkpt lat="43.31629" lon="5.68844">
        <ele>878</ele>
        <time>2019-11-29T09:20:31.000Z</time>
      </trkpt>
      <trkpt lat="43.31629" lon="5.68845">
        <ele>878</ele>
        <time>2019-11-29T09:20:32.000Z</time>
      </trkpt>
      <trkpt lat="43.31628" lon="5.68846">
        <ele>878</ele>
        <time>2019-11-29T09:20:33.000Z</time>
      </trkpt>
      <trkpt lat="43.31627" lon="5.68847">
        <ele>878</ele>
        <time>2019-11-29T09:20:34.000Z</time>
      </trkpt>
      <trkpt lat="43.31626" lon="5.68848">
        <ele>878</ele>
        <time>2019-11-29T09:20:35.000Z</time>
      </trkpt>
      <trkpt lat="43.31626" lon="5.6885">
        <ele>878</ele>
        <time>2019-11-29T09:20:36.000Z</time>
      </trkpt>
      <trkpt lat="43.31625" lon="5.68851">
        <ele>879</ele>
        <time>2019-11-29T09:20:37.000Z</time>
      </trkpt>
      <trkpt lat="43.31624" lon="5.68852">
        <ele>879</ele>
        <time>2019-11-29T09:20:38.000Z</time>
      </trkpt>
      <trkpt lat="43.31624" lon="5.68853">
        <ele>879</ele>
        <time>2019-11-29T09:20:39.000Z</time>
      </trkpt>
      <trkpt lat="43.31623" lon="5.68853">
        <ele>879</ele>
        <time>2019-11-29T09:20:40.000Z</time>
      </trkpt>
      <trkpt lat="43.31623" lon="5.68853">
        <ele>879</ele>
        <time>2019-11-29T09:20:41.000Z</time>
      </trkpt>
      <trkpt lat="43.31623" lon="5.68852">
        <ele>879</ele>
        <time>2019-11-29T09:20:42.000Z</time>
      </trkpt>
      <trkpt lat="43.31623" lon="5.68852">
        <ele>879</ele>
        <time>2019-11-29T09:20:43.000Z</time>
      </trkpt>
      <trkpt lat="43.31623" lon="5.68852">
        <ele>879</ele>
        <time>2019-11-29T09:20:44.000Z</time>
      </trkpt>
      <trkpt lat="43.31623" lon="5.68852">
        <ele>880</ele>
        <time>2019-11-29T09:20:45.000Z</time>
      </trkpt>
      <trkpt lat="43.31623" lon="5.68852">
        <ele>880</ele>
        <time>2019-11-29T09:20:46.000Z</time>
      </trkpt>
      <trkpt lat="43.31623" lon="5.68853">
        <ele>880</ele>
        <time>2019-11-29T09:20:47.000Z</time>
      </trkpt>
      <trkpt lat="43.31623" lon="5.68853">
        <ele>880</ele>
        <time>2019-11-29T09:20:48.000Z</time>
      </trkpt>
      <trkpt lat="43.31623" lon="5.68853">
        <ele>880</ele>
        <time>2019-11-29T09:20:49.000Z</time>
      </trkpt>
      <trkpt lat="43.31623" lon="5.68853">
        <ele>880</ele>
        <time>2019-11-29T09:20:50.000Z</time>
      </trkpt>
      <trkpt lat="43.31623" lon="5.68852">
        <ele>880</ele>
        <time>2019-11-29T09:20:51.000Z</time>
      </trkpt>
      <trkpt lat="43.31623" lon="5.68852">
        <ele>880</ele>
        <time>2019-11-29T09:20:52.000Z</time>
      </trkpt>
      <trkpt lat="43.31623" lon="5.68852">
        <ele>880</ele>
        <time>2019-11-29T09:20:53.000Z</time>
      </trkpt>
      <trkpt lat="43.31623" lon="5.68852">
        <ele>880</ele>
        <time>2019-11-29T09:20:54.000Z</time>
      </trkpt>
      <trkpt lat="43.31623" lon="5.68852">
        <ele>880</ele>
        <time>2019-11-29T09:20:55.000Z</time>
      </trkpt>
      <trkpt lat="43.31623" lon="5.68852">
        <ele>880</ele>
        <time>2019-11-29T09:20:56.000Z</time>
      </trkpt>
      <trkpt lat="43.31623" lon="5.68852">
        <ele>880</ele>
        <time>2019-11-29T09:20:57.000Z</time>
      </trkpt>
      <trkpt lat="43.31623" lon="5.68853">
        <ele>880</ele>
        <time>2019-11-29T09:20:58.000Z</time>
      </trkpt>
      <trkpt lat="43.31623" lon="5.68853">
        <ele>880</ele>
        <time>2019-11-29T09:20:59.000Z</time>
      </trkpt>
      <trkpt lat="43.31622" lon="5.68853">
        <ele>880</ele>
        <time>2019-11-29T09:21:00.000Z</time>
      </trkpt>
      <trkpt lat="43.31622" lon="5.68854">
        <ele>880</ele>
        <time>2019-11-29T09:21:01.000Z</time>
      </trkpt>
      <trkpt lat="43.31621" lon="5.68855">
        <ele>880</ele>
        <time>2019-11-29T09:21:02.000Z</time>
      </trkpt>
      <trkpt lat="43.31621" lon="5.68857">
        <ele>880</ele>
        <time>2019-11-29T09:21:03.000Z</time>
      </trkpt>
      <trkpt lat="43.3162" lon="5.68858">
        <ele>880</ele>
        <time>2019-11-29T09:21:04.000Z</time>
      </trkpt>
      <trkpt lat="43.31619" lon="5.68859">
        <ele>880</ele>
        <time>2019-11-29T09:21:05.000Z</time>
      </trkpt>
      <trkpt lat="43.31618" lon="5.6886">
        <ele>880</ele>
        <time>2019-11-29T09:21:06.000Z</time>
      </trkpt>
      <trkpt lat="43.31618" lon="5.68861">
        <ele>880</ele>
        <time>2019-11-29T09:21:07.000Z</time>
      </trkpt>
      <trkpt lat="43.31617" lon="5.68862">
        <ele>880</ele>
        <time>2019-11-29T09:21:08.000Z</time>
      </trkpt>
      <trkpt lat="43.31616" lon="5.68863">
        <ele>880</ele>
        <time>2019-11-29T09:21:09.000Z</time>
      </trkpt>
      <trkpt lat="43.31616" lon="5.68864">
        <ele>880</ele>
        <time>2019-11-29T09:21:10.000Z</time>
      </trkpt>
      <trkpt lat="43.31615" lon="5.68866">
        <ele>880</ele>
        <time>2019-11-29T09:21:11.000Z</time>
      </trkpt>
      <trkpt lat="43.31614" lon="5.68867">
        <ele>880</ele>
        <time>2019-11-29T09:21:12.000Z</time>
      </trkpt>
      <trkpt lat="43.31614" lon="5.68868">
        <ele>880</ele>
        <time>2019-11-29T09:21:13.000Z</time>
      </trkpt>
      <trkpt lat="43.31614" lon="5.6887">
        <ele>880</ele>
        <time>2019-11-29T09:21:14.000Z</time>
      </trkpt>
      <trkpt lat="43.31613" lon="5.68871">
        <ele>880</ele>
        <time>2019-11-29T09:21:15.000Z</time>
      </trkpt>
      <trkpt lat="43.31613" lon="5.68872">
        <ele>880</ele>
        <time>2019-11-29T09:21:16.000Z</time>
      </trkpt>
      <trkpt lat="43.31612" lon="5.68873">
        <ele>880</ele>
        <time>2019-11-29T09:21:17.000Z</time>
      </trkpt>
      <trkpt lat="43.31612" lon="5.68874">
        <ele>880</ele>
        <time>2019-11-29T09:21:18.000Z</time>
      </trkpt>
      <trkpt lat="43.31612" lon="5.68875">
        <ele>880</ele>
        <time>2019-11-29T09:21:19.000Z</time>
      </trkpt>
      <trkpt lat="43.31611" lon="5.68877">
        <ele>880</ele>
        <time>2019-11-29T09:21:20.000Z</time>
      </trkpt>
      <trkpt lat="43.31611" lon="5.68878">
        <ele>880</ele>
        <time>2019-11-29T09:21:21.000Z</time>
      </trkpt>
      <trkpt lat="43.3161" lon="5.68879">
        <ele>880</ele>
        <time>2019-11-29T09:21:22.000Z</time>
      </trkpt>
      <trkpt lat="43.3161" lon="5.6888">
        <ele>880</ele>
        <time>2019-11-29T09:21:23.000Z</time>
      </trkpt>
      <trkpt lat="43.31609" lon="5.68881">
        <ele>880</ele>
        <time>2019-11-29T09:21:24.000Z</time>
      </trkpt>
      <trkpt lat="43.31609" lon="5.68883">
        <ele>880</ele>
        <time>2019-11-29T09:21:25.000Z</time>
      </trkpt>
      <trkpt lat="43.31609" lon="5.68884">
        <ele>881</ele>
        <time>2019-11-29T09:21:26.000Z</time>
      </trkpt>
      <trkpt lat="43.31609" lon="5.68885">
        <ele>881</ele>
        <time>2019-11-29T09:21:27.000Z</time>
      </trkpt>
      <trkpt lat="43.31608" lon="5.68886">
        <ele>881</ele>
        <time>2019-11-29T09:21:28.000Z</time>
      </trkpt>
      <trkpt lat="43.31608" lon="5.68887">
        <ele>881</ele>
        <time>2019-11-29T09:21:29.000Z</time>
      </trkpt>
      <trkpt lat="43.31608" lon="5.68888">
        <ele>882</ele>
        <time>2019-11-29T09:21:30.000Z</time>
      </trkpt>
      <trkpt lat="43.31607" lon="5.6889">
        <ele>882</ele>
        <time>2019-11-29T09:21:31.000Z</time>
      </trkpt>
      <trkpt lat="43.31607" lon="5.68891">
        <ele>882</ele>
        <time>2019-11-29T09:21:32.000Z</time>
      </trkpt>
      <trkpt lat="43.31606" lon="5.68892">
        <ele>882</ele>
        <time>2019-11-29T09:21:33.000Z</time>
      </trkpt>
      <trkpt lat="43.31606" lon="5.68893">
        <ele>882</ele>
        <time>2019-11-29T09:21:34.000Z</time>
      </trkpt>
      <trkpt lat="43.31606" lon="5.68894">
        <ele>882</ele>
        <time>2019-11-29T09:21:35.000Z</time>
      </trkpt>
      <trkpt lat="43.31606" lon="5.68894">
        <ele>882</ele>
        <time>2019-11-29T09:21:36.000Z</time>
      </trkpt>
      <trkpt lat="43.31605" lon="5.68895">
        <ele>883</ele>
        <time>2019-11-29T09:21:37.000Z</time>
      </trkpt>
      <trkpt lat="43.31604" lon="5.68895">
        <ele>883</ele>
        <time>2019-11-29T09:21:38.000Z</time>
      </trkpt>
      <trkpt lat="43.31604" lon="5.68896">
        <ele>883</ele>
        <time>2019-11-29T09:21:39.000Z</time>
      </trkpt>
      <trkpt lat="43.31603" lon="5.68896">
        <ele>883</ele>
        <time>2019-11-29T09:21:40.000Z</time>
      </trkpt>
      <trkpt lat="43.31603" lon="5.68897">
        <ele>883</ele>
        <time>2019-11-29T09:21:41.000Z</time>
      </trkpt>
      <trkpt lat="43.31602" lon="5.68897">
        <ele>883</ele>
        <time>2019-11-29T09:21:42.000Z</time>
      </trkpt>
      <trkpt lat="43.31602" lon="5.68898">
        <ele>883</ele>
        <time>2019-11-29T09:21:43.000Z</time>
      </trkpt>
      <trkpt lat="43.31602" lon="5.68898">
        <ele>884</ele>
        <time>2019-11-29T09:21:44.000Z</time>
      </trkpt>
      <trkpt lat="43.31602" lon="5.68899">
        <ele>884</ele>
        <time>2019-11-29T09:21:45.000Z</time>
      </trkpt>
      <trkpt lat="43.31601" lon="5.68899">
        <ele>884</ele>
        <time>2019-11-29T09:21:46.000Z</time>
      </trkpt>
      <trkpt lat="43.31601" lon="5.689">
        <ele>884</ele>
        <time>2019-11-29T09:21:47.000Z</time>
      </trkpt>
      <trkpt lat="43.316" lon="5.689">
        <ele>884</ele>
        <time>2019-11-29T09:21:48.000Z</time>
      </trkpt>
      <trkpt lat="43.316" lon="5.689">
        <ele>884</ele>
        <time>2019-11-29T09:21:49.000Z</time>
      </trkpt>
      <trkpt lat="43.31599" lon="5.689">
        <ele>884</ele>
        <time>2019-11-29T09:21:50.000Z</time>
      </trkpt>
      <trkpt lat="43.31599" lon="5.68901">
        <ele>885</ele>
        <time>2019-11-29T09:21:51.000Z</time>
      </trkpt>
      <trkpt lat="43.31599" lon="5.68901">
        <ele>885</ele>
        <time>2019-11-29T09:21:52.000Z</time>
      </trkpt>
      <trkpt lat="43.31599" lon="5.68903">
        <ele>885</ele>
        <time>2019-11-29T09:21:53.000Z</time>
      </trkpt>
      <trkpt lat="43.31599" lon="5.68903">
        <ele>885</ele>
        <time>2019-11-29T09:21:54.000Z</time>
      </trkpt>
      <trkpt lat="43.31599" lon="5.68904">
        <ele>885</ele>
        <time>2019-11-29T09:21:55.000Z</time>
      </trkpt>
      <trkpt lat="43.31599" lon="5.68905">
        <ele>885</ele>
        <time>2019-11-29T09:21:56.000Z</time>
      </trkpt>
      <trkpt lat="43.31599" lon="5.68906">
        <ele>885</ele>
        <time>2019-11-29T09:21:57.000Z</time>
      </trkpt>
      <trkpt lat="43.31599" lon="5.68907">
        <ele>885</ele>
        <time>2019-11-29T09:21:58.000Z</time>
      </trkpt>
      <trkpt lat="43.31599" lon="5.68907">
        <ele>885</ele>
        <time>2019-11-29T09:21:59.000Z</time>
      </trkpt>
      <trkpt lat="43.31599" lon="5.68908">
        <ele>885</ele>
        <time>2019-11-29T09:22:00.000Z</time>
      </trkpt>
      <trkpt lat="43.31599" lon="5.68909">
        <ele>886</ele>
        <time>2019-11-29T09:22:01.000Z</time>
      </trkpt>
      <trkpt lat="43.316" lon="5.68909">
        <ele>886</ele>
        <time>2019-11-29T09:22:02.000Z</time>
      </trkpt>
      <trkpt lat="43.316" lon="5.6891">
        <ele>886</ele>
        <time>2019-11-29T09:22:03.000Z</time>
      </trkpt>
      <trkpt lat="43.316" lon="5.68911">
        <ele>885</ele>
        <time>2019-11-29T09:22:04.000Z</time>
      </trkpt>
      <trkpt lat="43.31599" lon="5.68912">
        <ele>885</ele>
        <time>2019-11-29T09:22:05.000Z</time>
      </trkpt>
      <trkpt lat="43.31599" lon="5.68912">
        <ele>885</ele>
        <time>2019-11-29T09:22:06.000Z</time>
      </trkpt>
      <trkpt lat="43.31598" lon="5.68913">
        <ele>885</ele>
        <time>2019-11-29T09:22:07.000Z</time>
      </trkpt>
      <trkpt lat="43.31598" lon="5.68913">
        <ele>885</ele>
        <time>2019-11-29T09:22:08.000Z</time>
      </trkpt>
      <trkpt lat="43.31598" lon="5.68914">
        <ele>886</ele>
        <time>2019-11-29T09:22:09.000Z</time>
      </trkpt>
      <trkpt lat="43.31597" lon="5.68914">
        <ele>885</ele>
        <time>2019-11-29T09:22:10.000Z</time>
      </trkpt>
      <trkpt lat="43.31597" lon="5.68914">
        <ele>885</ele>
        <time>2019-11-29T09:22:11.000Z</time>
      </trkpt>
      <trkpt lat="43.31597" lon="5.68915">
        <ele>885</ele>
        <time>2019-11-29T09:22:12.000Z</time>
      </trkpt>
      <trkpt lat="43.31597" lon="5.68916">
        <ele>885</ele>
        <time>2019-11-29T09:22:13.000Z</time>
      </trkpt>
      <trkpt lat="43.31597" lon="5.68916">
        <ele>885</ele>
        <time>2019-11-29T09:22:14.000Z</time>
      </trkpt>
      <trkpt lat="43.31597" lon="5.68916">
        <ele>885</ele>
        <time>2019-11-29T09:22:15.000Z</time>
      </trkpt>
      <trkpt lat="43.31597" lon="5.68917">
        <ele>885</ele>
        <time>2019-11-29T09:22:16.000Z</time>
      </trkpt>
      <trkpt lat="43.31597" lon="5.68917">
        <ele>885</ele>
        <time>2019-11-29T09:22:17.000Z</time>
      </trkpt>
      <trkpt lat="43.31597" lon="5.68918">
        <ele>885</ele>
        <time>2019-11-29T09:22:18.000Z</time>
      </trkpt>
      <trkpt lat="43.31597" lon="5.68918">
        <ele>885</ele>
        <time>2019-11-29T09:22:19.000Z</time>
      </trkpt>
      <trkpt lat="43.31597" lon="5.68919">
        <ele>885</ele>
        <time>2019-11-29T09:22:20.000Z</time>
      </trkpt>
      <trkpt lat="43.31597" lon="5.68919">
        <ele>885</ele>
        <time>2019-11-29T09:22:21.000Z</time>
      </trkpt>
      <trkpt lat="43.31597" lon="5.6892">
        <ele>885</ele>
        <time>2019-11-29T09:22:22.000Z</time>
      </trkpt>
      <trkpt lat="43.31597" lon="5.6892">
        <ele>885</ele>
        <time>2019-11-29T09:22:23.000Z</time>
      </trkpt>
      <trkpt lat="43.31597" lon="5.6892">
        <ele>885</ele>
        <time>2019-11-29T09:22:24.000Z</time>
      </trkpt>
      <trkpt lat="43.31597" lon="5.68921">
        <ele>885</ele>
        <time>2019-11-29T09:22:25.000Z</time>
      </trkpt>
      <trkpt lat="43.31597" lon="5.68921">
        <ele>885</ele>
        <time>2019-11-29T09:22:26.000Z</time>
      </trkpt>
      <trkpt lat="43.31597" lon="5.68921">
        <ele>885</ele>
        <time>2019-11-29T09:22:27.000Z</time>
      </trkpt>
      <trkpt lat="43.31597" lon="5.68922">
        <ele>885</ele>
        <time>2019-11-29T09:22:28.000Z</time>
      </trkpt>
      <trkpt lat="43.31598" lon="5.68922">
        <ele>885</ele>
        <time>2019-11-29T09:22:29.000Z</time>
      </trkpt>
      <trkpt lat="43.31598" lon="5.68923">
        <ele>885</ele>
        <time>2019-11-29T09:22:30.000Z</time>
      </trkpt>
      <trkpt lat="43.31598" lon="5.68923">
        <ele>885</ele>
        <time>2019-11-29T09:22:31.000Z</time>
      </trkpt>
      <trkpt lat="43.31598" lon="5.68924">
        <ele>885</ele>
        <time>2019-11-29T09:22:32.000Z</time>
      </trkpt>
      <trkpt lat="43.31598" lon="5.68924">
        <ele>884</ele>
        <time>2019-11-29T09:22:33.000Z</time>
      </trkpt>
      <trkpt lat="43.31598" lon="5.68925">
        <ele>884</ele>
        <time>2019-11-29T09:22:34.000Z</time>
      </trkpt>
      <trkpt lat="43.31597" lon="5.68925">
        <ele>884</ele>
        <time>2019-11-29T09:22:35.000Z</time>
      </trkpt>
      <trkpt lat="43.31597" lon="5.68926">
        <ele>884</ele>
        <time>2019-11-29T09:22:36.000Z</time>
      </trkpt>
      <trkpt lat="43.31597" lon="5.68926">
        <ele>884</ele>
        <time>2019-11-29T09:22:37.000Z</time>
      </trkpt>
      <trkpt lat="43.31597" lon="5.68926">
        <ele>884</ele>
        <time>2019-11-29T09:22:38.000Z</time>
      </trkpt>
      <trkpt lat="43.31596" lon="5.68926">
        <ele>884</ele>
        <time>2019-11-29T09:22:39.000Z</time>
      </trkpt>
      <trkpt lat="43.31596" lon="5.68926">
        <ele>884</ele>
        <time>2019-11-29T09:22:40.000Z</time>
      </trkpt>
      <trkpt lat="43.31595" lon="5.68926">
        <ele>884</ele>
        <time>2019-11-29T09:22:41.000Z</time>
      </trkpt>
      <trkpt lat="43.31595" lon="5.68926">
        <ele>884</ele>
        <time>2019-11-29T09:22:42.000Z</time>
      </trkpt>
      <trkpt lat="43.31595" lon="5.68927">
        <ele>884</ele>
        <time>2019-11-29T09:22:43.000Z</time>
      </trkpt>
      <trkpt lat="43.31595" lon="5.68928">
        <ele>883</ele>
        <time>2019-11-29T09:22:44.000Z</time>
      </trkpt>
      <trkpt lat="43.31594" lon="5.68929">
        <ele>883</ele>
        <time>2019-11-29T09:22:45.000Z</time>
      </trkpt>
      <trkpt lat="43.31594" lon="5.68929">
        <ele>883</ele>
        <time>2019-11-29T09:22:46.000Z</time>
      </trkpt>
      <trkpt lat="43.31593" lon="5.68928">
        <ele>883</ele>
        <time>2019-11-29T09:22:47.000Z</time>
      </trkpt>
      <trkpt lat="43.31593" lon="5.68928">
        <ele>883</ele>
        <time>2019-11-29T09:22:48.000Z</time>
      </trkpt>
      <trkpt lat="43.31593" lon="5.68927">
        <ele>883</ele>
        <time>2019-11-29T09:22:49.000Z</time>
      </trkpt>
      <trkpt lat="43.31592" lon="5.68927">
        <ele>883</ele>
        <time>2019-11-29T09:22:50.000Z</time>
      </trkpt>
      <trkpt lat="43.31592" lon="5.68927">
        <ele>883</ele>
        <time>2019-11-29T09:22:51.000Z</time>
      </trkpt>
      <trkpt lat="43.31592" lon="5.68927">
        <ele>883</ele>
        <time>2019-11-29T09:22:52.000Z</time>
      </trkpt>
      <trkpt lat="43.31592" lon="5.68928">
        <ele>883</ele>
        <time>2019-11-29T09:22:53.000Z</time>
      </trkpt>
      <trkpt lat="43.31592" lon="5.68929">
        <ele>883</ele>
        <time>2019-11-29T09:22:54.000Z</time>
      </trkpt>
      <trkpt lat="43.31592" lon="5.68929">
        <ele>883</ele>
        <time>2019-11-29T09:22:55.000Z</time>
      </trkpt>
      <trkpt lat="43.31592" lon="5.68931">
        <ele>883</ele>
        <time>2019-11-29T09:22:56.000Z</time>
      </trkpt>
      <trkpt lat="43.31592" lon="5.68931">
        <ele>882</ele>
        <time>2019-11-29T09:22:57.000Z</time>
      </trkpt>
      <trkpt lat="43.31592" lon="5.68932">
        <ele>882</ele>
        <time>2019-11-29T09:22:58.000Z</time>
      </trkpt>
      <trkpt lat="43.31591" lon="5.68932">
        <ele>882</ele>
        <time>2019-11-29T09:22:59.000Z</time>
      </trkpt>
      <trkpt lat="43.3159" lon="5.68932">
        <ele>882</ele>
        <time>2019-11-29T09:23:00.000Z</time>
      </trkpt>
      <trkpt lat="43.3159" lon="5.68932">
        <ele>882</ele>
        <time>2019-11-29T09:23:01.000Z</time>
      </trkpt>
      <trkpt lat="43.3159" lon="5.68933">
        <ele>881</ele>
        <time>2019-11-29T09:23:02.000Z</time>
      </trkpt>
      <trkpt lat="43.31589" lon="5.68933">
        <ele>881</ele>
        <time>2019-11-29T09:23:03.000Z</time>
      </trkpt>
      <trkpt lat="43.31589" lon="5.68934">
        <ele>881</ele>
        <time>2019-11-29T09:23:04.000Z</time>
      </trkpt>
      <trkpt lat="43.31589" lon="5.68934">
        <ele>881</ele>
        <time>2019-11-29T09:23:05.000Z</time>
      </trkpt>
      <trkpt lat="43.31588" lon="5.68935">
        <ele>880</ele>
        <time>2019-11-29T09:23:06.000Z</time>
      </trkpt>
      <trkpt lat="43.31588" lon="5.68935">
        <ele>880</ele>
        <time>2019-11-29T09:23:07.000Z</time>
      </trkpt>
      <trkpt lat="43.31587" lon="5.68936">
        <ele>880</ele>
        <time>2019-11-29T09:23:08.000Z</time>
      </trkpt>
      <trkpt lat="43.31587" lon="5.68936">
        <ele>880</ele>
        <time>2019-11-29T09:23:09.000Z</time>
      </trkpt>
      <trkpt lat="43.31586" lon="5.68937">
        <ele>879</ele>
        <time>2019-11-29T09:23:10.000Z</time>
      </trkpt>
      <trkpt lat="43.31585" lon="5.68938">
        <ele>879</ele>
        <time>2019-11-29T09:23:11.000Z</time>
      </trkpt>
      <trkpt lat="43.31584" lon="5.68938">
        <ele>879</ele>
        <time>2019-11-29T09:23:12.000Z</time>
      </trkpt>
      <trkpt lat="43.31583" lon="5.68939">
        <ele>879</ele>
        <time>2019-11-29T09:23:13.000Z</time>
      </trkpt>
      <trkpt lat="43.31583" lon="5.68939">
        <ele>879</ele>
        <time>2019-11-29T09:23:14.000Z</time>
      </trkpt>
      <trkpt lat="43.31582" lon="5.68939">
        <ele>879</ele>
        <time>2019-11-29T09:23:15.000Z</time>
      </trkpt>
      <trkpt lat="43.31581" lon="5.68939">
        <ele>878</ele>
        <time>2019-11-29T09:23:16.000Z</time>
      </trkpt>
      <trkpt lat="43.3158" lon="5.68938">
        <ele>878</ele>
        <time>2019-11-29T09:23:17.000Z</time>
      </trkpt>
      <trkpt lat="43.31579" lon="5.68938">
        <ele>878</ele>
        <time>2019-11-29T09:23:18.000Z</time>
      </trkpt>
      <trkpt lat="43.31579" lon="5.68938">
        <ele>878</ele>
        <time>2019-11-29T09:23:19.000Z</time>
      </trkpt>
      <trkpt lat="43.31578" lon="5.68938">
        <ele>878</ele>
        <time>2019-11-29T09:23:20.000Z</time>
      </trkpt>
      <trkpt lat="43.31577" lon="5.68937">
        <ele>878</ele>
        <time>2019-11-29T09:23:21.000Z</time>
      </trkpt>
      <trkpt lat="43.31576" lon="5.68937">
        <ele>877</ele>
        <time>2019-11-29T09:23:22.000Z</time>
      </trkpt>
      <trkpt lat="43.31576" lon="5.68938">
        <ele>877</ele>
        <time>2019-11-29T09:23:23.000Z</time>
      </trkpt>
      <trkpt lat="43.31575" lon="5.68938">
        <ele>877</ele>
        <time>2019-11-29T09:23:24.000Z</time>
      </trkpt>
      <trkpt lat="43.31574" lon="5.68938">
        <ele>876</ele>
        <time>2019-11-29T09:23:25.000Z</time>
      </trkpt>
      <trkpt lat="43.31573" lon="5.68938">
        <ele>876</ele>
        <time>2019-11-29T09:23:26.000Z</time>
      </trkpt>
      <trkpt lat="43.31572" lon="5.68938">
        <ele>876</ele>
        <time>2019-11-29T09:23:27.000Z</time>
      </trkpt>
      <trkpt lat="43.31571" lon="5.68938">
        <ele>875</ele>
        <time>2019-11-29T09:23:28.000Z</time>
      </trkpt>
      <trkpt lat="43.3157" lon="5.68938">
        <ele>875</ele>
        <time>2019-11-29T09:23:29.000Z</time>
      </trkpt>
      <trkpt lat="43.31569" lon="5.68938">
        <ele>875</ele>
        <time>2019-11-29T09:23:30.000Z</time>
      </trkpt>
      <trkpt lat="43.31568" lon="5.68938">
        <ele>875</ele>
        <time>2019-11-29T09:23:31.000Z</time>
      </trkpt>
      <trkpt lat="43.31567" lon="5.68939">
        <ele>875</ele>
        <time>2019-11-29T09:23:32.000Z</time>
      </trkpt>
      <trkpt lat="43.31566" lon="5.68939">
        <ele>874</ele>
        <time>2019-11-29T09:23:33.000Z</time>
      </trkpt>
      <trkpt lat="43.31565" lon="5.68939">
        <ele>874</ele>
        <time>2019-11-29T09:23:34.000Z</time>
      </trkpt>
      <trkpt lat="43.31563" lon="5.68939">
        <ele>874</ele>
        <time>2019-11-29T09:23:35.000Z</time>
      </trkpt>
      <trkpt lat="43.31562" lon="5.68939">
        <ele>874</ele>
        <time>2019-11-29T09:23:36.000Z</time>
      </trkpt>
      <trkpt lat="43.31561" lon="5.68939">
        <ele>874</ele>
        <time>2019-11-29T09:23:37.000Z</time>
      </trkpt>
      <trkpt lat="43.3156" lon="5.68939">
        <ele>874</ele>
        <time>2019-11-29T09:23:38.000Z</time>
      </trkpt>
      <trkpt lat="43.31558" lon="5.68939">
        <ele>874</ele>
        <time>2019-11-29T09:23:39.000Z</time>
      </trkpt>
      <trkpt lat="43.31558" lon="5.6894">
        <ele>873</ele>
        <time>2019-11-29T09:23:40.000Z</time>
      </trkpt>
      <trkpt lat="43.31557" lon="5.6894">
        <ele>873</ele>
        <time>2019-11-29T09:23:41.000Z</time>
      </trkpt>
      <trkpt lat="43.31556" lon="5.68941">
        <ele>873</ele>
        <time>2019-11-29T09:23:42.000Z</time>
      </trkpt>
      <trkpt lat="43.31555" lon="5.68941">
        <ele>873</ele>
        <time>2019-11-29T09:23:43.000Z</time>
      </trkpt>
      <trkpt lat="43.31554" lon="5.68942">
        <ele>873</ele>
        <time>2019-11-29T09:23:44.000Z</time>
      </trkpt>
      <trkpt lat="43.31553" lon="5.68943">
        <ele>873</ele>
        <time>2019-11-29T09:23:45.000Z</time>
      </trkpt>
      <trkpt lat="43.31552" lon="5.68944">
        <ele>873</ele>
        <time>2019-11-29T09:23:46.000Z</time>
      </trkpt>
      <trkpt lat="43.31552" lon="5.68946">
        <ele>873</ele>
        <time>2019-11-29T09:23:47.000Z</time>
      </trkpt>
      <trkpt lat="43.31551" lon="5.68947">
        <ele>873</ele>
        <time>2019-11-29T09:23:48.000Z</time>
      </trkpt>
      <trkpt lat="43.3155" lon="5.68948">
        <ele>873</ele>
        <time>2019-11-29T09:23:49.000Z</time>
      </trkpt>
      <trkpt lat="43.31549" lon="5.68948">
        <ele>873</ele>
        <time>2019-11-29T09:23:50.000Z</time>
      </trkpt>
      <trkpt lat="43.31548" lon="5.68948">
        <ele>873</ele>
        <time>2019-11-29T09:23:51.000Z</time>
      </trkpt>
      <trkpt lat="43.31547" lon="5.68948">
        <ele>873</ele>
        <time>2019-11-29T09:23:52.000Z</time>
      </trkpt>
      <trkpt lat="43.31546" lon="5.68948">
        <ele>873</ele>
        <time>2019-11-29T09:23:53.000Z</time>
      </trkpt>
      <trkpt lat="43.31546" lon="5.68947">
        <ele>873</ele>
        <time>2019-11-29T09:23:54.000Z</time>
      </trkpt>
      <trkpt lat="43.31546" lon="5.68947">
        <ele>873</ele>
        <time>2019-11-29T09:23:55.000Z</time>
      </trkpt>
      <trkpt lat="43.31546" lon="5.68947">
        <ele>873</ele>
        <time>2019-11-29T09:23:56.000Z</time>
      </trkpt>
      <trkpt lat="43.31546" lon="5.68947">
        <ele>873</ele>
        <time>2019-11-29T09:23:57.000Z</time>
      </trkpt>
      <trkpt lat="43.31546" lon="5.68947">
        <ele>873</ele>
        <time>2019-11-29T09:23:58.000Z</time>
      </trkpt>
      <trkpt lat="43.31546" lon="5.68947">
        <ele>873</ele>
        <time>2019-11-29T09:23:59.000Z</time>
      </trkpt>
      <trkpt lat="43.31546" lon="5.68947">
        <ele>873</ele>
        <time>2019-11-29T09:24:00.000Z</time>
      </trkpt>
      <trkpt lat="43.31546" lon="5.68947">
        <ele>873</ele>
        <time>2019-11-29T09:24:01.000Z</time>
      </trkpt>
      <trkpt lat="43.31546" lon="5.68947">
        <ele>873</ele>
        <time>2019-11-29T09:24:02.000Z</time>
      </trkpt>
      <trkpt lat="43.31546" lon="5.68947">
        <ele>873</ele>
        <time>2019-11-29T09:24:03.000Z</time>
      </trkpt>
      <trkpt lat="43.31546" lon="5.68947">
        <ele>873</ele>
        <time>2019-11-29T09:24:04.000Z</time>
      </trkpt>
      <trkpt lat="43.31546" lon="5.68947">
        <ele>873</ele>
        <time>2019-11-29T09:24:05.000Z</time>
      </trkpt>
      <trkpt lat="43.31546" lon="5.68947">
        <ele>873</ele>
        <time>2019-11-29T09:24:06.000Z</time>
      </trkpt>
      <trkpt lat="43.31546" lon="5.68947">
        <ele>873</ele>
        <time>2019-11-29T09:24:07.000Z</time>
      </trkpt>
      <trkpt lat="43.31545" lon="5.68947">
        <ele>873</ele>
        <time>2019-11-29T09:24:08.000Z</time>
      </trkpt>
      <trkpt lat="43.31545" lon="5.68947">
        <ele>873</ele>
        <time>2019-11-29T09:24:09.000Z</time>
      </trkpt>
      <trkpt lat="43.31545" lon="5.68946">
        <ele>873</ele>
        <time>2019-11-29T09:24:10.000Z</time>
      </trkpt>
      <trkpt lat="43.31545" lon="5.68946">
        <ele>873</ele>
        <time>2019-11-29T09:24:11.000Z</time>
      </trkpt>
      <trkpt lat="43.31545" lon="5.68946">
        <ele>873</ele>
        <time>2019-11-29T09:24:12.000Z</time>
      </trkpt>
      <trkpt lat="43.31545" lon="5.68946">
        <ele>873</ele>
        <time>2019-11-29T09:24:13.000Z</time>
      </trkpt>
      <trkpt lat="43.31545" lon="5.68946">
        <ele>873</ele>
        <time>2019-11-29T09:24:14.000Z</time>
      </trkpt>
      <trkpt lat="43.31545" lon="5.68946">
        <ele>873</ele>
        <time>2019-11-29T09:24:15.000Z</time>
      </trkpt>
      <trkpt lat="43.31545" lon="5.68946">
        <ele>873</ele>
        <time>2019-11-29T09:24:16.000Z</time>
      </trkpt>
      <trkpt lat="43.31545" lon="5.68946">
        <ele>873</ele>
        <time>2019-11-29T09:24:17.000Z</time>
      </trkpt>
      <trkpt lat="43.31545" lon="5.68946">
        <ele>873</ele>
        <time>2019-11-29T09:24:18.000Z</time>
      </trkpt>
      <trkpt lat="43.31545" lon="5.68946">
        <ele>873</ele>
        <time>2019-11-29T09:24:19.000Z</time>
      </trkpt>
      <trkpt lat="43.31545" lon="5.68946">
        <ele>873</ele>
        <time>2019-11-29T09:24:20.000Z</time>
      </trkpt>
      <trkpt lat="43.31545" lon="5.68946">
        <ele>873</ele>
        <time>2019-11-29T09:24:21.000Z</time>
      </trkpt>
      <trkpt lat="43.31545" lon="5.68946">
        <ele>873</ele>
        <time>2019-11-29T09:24:22.000Z</time>
      </trkpt>
      <trkpt lat="43.31545" lon="5.68946">
        <ele>873</ele>
        <time>2019-11-29T09:24:23.000Z</time>
      </trkpt>
      <trkpt lat="43.31545" lon="5.68946">
        <ele>873</ele>
        <time>2019-11-29T09:24:24.000Z</time>
      </trkpt>
      <trkpt lat="43.31545" lon="5.68946">
        <ele>873</ele>
        <time>2019-11-29T09:24:25.000Z</time>
      </trkpt>
      <trkpt lat="43.31545" lon="5.68946">
        <ele>873</ele>
        <time>2019-11-29T09:24:26.000Z</time>
      </trkpt>
      <trkpt lat="43.31545" lon="5.68946">
        <ele>873</ele>
        <time>2019-11-29T09:24:27.000Z</time>
      </trkpt>
      <trkpt lat="43.31545" lon="5.68946">
        <ele>873</ele>
        <time>2019-11-29T09:24:28.000Z</time>
      </trkpt>
      <trkpt lat="43.31545" lon="5.68946">
        <ele>873</ele>
        <time>2019-11-29T09:24:29.000Z</time>
      </trkpt>
      <trkpt lat="43.31545" lon="5.68946">
        <ele>873</ele>
        <time>2019-11-29T09:24:30.000Z</time>
      </trkpt>
      <trkpt lat="43.31545" lon="5.68946">
        <ele>873</ele>
        <time>2019-11-29T09:24:31.000Z</time>
      </trkpt>
      <trkpt lat="43.31545" lon="5.68946">
        <ele>873</ele>
        <time>2019-11-29T09:24:32.000Z</time>
      </trkpt>
      <trkpt lat="43.31545" lon="5.68946">
        <ele>873</ele>
        <time>2019-11-29T09:24:33.000Z</time>
      </trkpt>
      <trkpt lat="43.31545" lon="5.68947">
        <ele>873</ele>
        <time>2019-11-29T09:24:34.000Z</time>
      </trkpt>
      <trkpt lat="43.31545" lon="5.68947">
        <ele>873</ele>
        <time>2019-11-29T09:24:35.000Z</time>
      </trkpt>
      <trkpt lat="43.31545" lon="5.68947">
        <ele>873</ele>
        <time>2019-11-29T09:24:36.000Z</time>
      </trkpt>
      <trkpt lat="43.31545" lon="5.68947">
        <ele>873</ele>
        <time>2019-11-29T09:24:37.000Z</time>
      </trkpt>
      <trkpt lat="43.31545" lon="5.68947">
        <ele>873</ele>
        <time>2019-11-29T09:24:38.000Z</time>
      </trkpt>
      <trkpt lat="43.31545" lon="5.68947">
        <ele>873</ele>
        <time>2019-11-29T09:24:39.000Z</time>
      </trkpt>
      <trkpt lat="43.31545" lon="5.68947">
        <ele>873</ele>
        <time>2019-11-29T09:24:40.000Z</time>
      </trkpt>
      <trkpt lat="43.31545" lon="5.68947">
        <ele>873</ele>
        <time>2019-11-29T09:24:41.000Z</time>
      </trkpt>
      <trkpt lat="43.31545" lon="5.68947">
        <ele>873</ele>
        <time>2019-11-29T09:24:42.000Z</time>
      </trkpt>
      <trkpt lat="43.31545" lon="5.68947">
        <ele>873</ele>
        <time>2019-11-29T09:24:43.000Z</time>
      </trkpt>
      <trkpt lat="43.31545" lon="5.68946">
        <ele>873</ele>
        <time>2019-11-29T09:24:44.000Z</time>
      </trkpt>
      <trkpt lat="43.31545" lon="5.68946">
        <ele>873</ele>
        <time>2019-11-29T09:24:45.000Z</time>
      </trkpt>
      <trkpt lat="43.31545" lon="5.68946">
        <ele>873</ele>
        <time>2019-11-29T09:24:46.000Z</time>
      </trkpt>
      <trkpt lat="43.31545" lon="5.68947">
        <ele>873</ele>
        <time>2019-11-29T09:24:47.000Z</time>
      </trkpt>
      <trkpt lat="43.31545" lon="5.68947">
        <ele>873</ele>
        <time>2019-11-29T09:24:48.000Z</time>
      </trkpt>
      <trkpt lat="43.31545" lon="5.68947">
        <ele>873</ele>
        <time>2019-11-29T09:24:49.000Z</time>
      </trkpt>
      <trkpt lat="43.31545" lon="5.68947">
        <ele>873</ele>
        <time>2019-11-29T09:24:50.000Z</time>
      </trkpt>
      <trkpt lat="43.31545" lon="5.68947">
        <ele>873</ele>
        <time>2019-11-29T09:24:51.000Z</time>
      </trkpt>
      <trkpt lat="43.31545" lon="5.68947">
        <ele>873</ele>
        <time>2019-11-29T09:24:52.000Z</time>
      </trkpt>
      <trkpt lat="43.31545" lon="5.68947">
        <ele>873</ele>
        <time>2019-11-29T09:24:53.000Z</time>
      </trkpt>
      <trkpt lat="43.31545" lon="5.68947">
        <ele>873</ele>
        <time>2019-11-29T09:24:54.000Z</time>
      </trkpt>
      <trkpt lat="43.31545" lon="5.68947">
        <ele>873</ele>
        <time>2019-11-29T09:24:55.000Z</time>
      </trkpt>
      <trkpt lat="43.31545" lon="5.68947">
        <ele>873</ele>
        <time>2019-11-29T09:24:56.000Z</time>
      </trkpt>
      <trkpt lat="43.31545" lon="5.68947">
        <ele>873</ele>
        <time>2019-11-29T09:24:57.000Z</time>
      </trkpt>
      <trkpt lat="43.31545" lon="5.68947">
        <ele>873</ele>
        <time>2019-11-29T09:24:58.000Z</time>
      </trkpt>
      <trkpt lat="43.31545" lon="5.68947">
        <ele>873</ele>
        <time>2019-11-29T09:24:59.000Z</time>
      </trkpt>
      <trkpt lat="43.31545" lon="5.68947">
        <ele>873</ele>
        <time>2019-11-29T09:25:00.000Z</time>
      </trkpt>
      <trkpt lat="43.31545" lon="5.68947">
        <ele>873</ele>
        <time>2019-11-29T09:25:01.000Z</time>
      </trkpt>
      <trkpt lat="43.31545" lon="5.68947">
        <ele>873</ele>
        <time>2019-11-29T09:25:02.000Z</time>
      </trkpt>
      <trkpt lat="43.31545" lon="5.68947">
        <ele>873</ele>
        <time>2019-11-29T09:25:03.000Z</time>
      </trkpt>
      <trkpt lat="43.31545" lon="5.68947">
        <ele>873</ele>
        <time>2019-11-29T09:25:04.000Z</time>
      </trkpt>
      <trkpt lat="43.31544" lon="5.68947">
        <ele>873</ele>
        <time>2019-11-29T09:25:05.000Z</time>
      </trkpt>
      <trkpt lat="43.31544" lon="5.68946">
        <ele>873</ele>
        <time>2019-11-29T09:25:06.000Z</time>
      </trkpt>
      <trkpt lat="43.31543" lon="5.68945">
        <ele>873</ele>
        <time>2019-11-29T09:25:07.000Z</time>
      </trkpt>
      <trkpt lat="43.31543" lon="5.68945">
        <ele>873</ele>
        <time>2019-11-29T09:25:08.000Z</time>
      </trkpt>
      <trkpt lat="43.31542" lon="5.68944">
        <ele>873</ele>
        <time>2019-11-29T09:25:09.000Z</time>
      </trkpt>
      <trkpt lat="43.31542" lon="5.68944">
        <ele>873</ele>
        <time>2019-11-29T09:25:10.000Z</time>
      </trkpt>
      <trkpt lat="43.31542" lon="5.68944">
        <ele>873</ele>
        <time>2019-11-29T09:25:11.000Z</time>
      </trkpt>
      <trkpt lat="43.31542" lon="5.68944">
        <ele>873</ele>
        <time>2019-11-29T09:25:12.000Z</time>
      </trkpt>
      <trkpt lat="43.31541" lon="5.68944">
        <ele>873</ele>
        <time>2019-11-29T09:25:13.000Z</time>
      </trkpt>
      <trkpt lat="43.31541" lon="5.68944">
        <ele>873</ele>
        <time>2019-11-29T09:25:14.000Z</time>
      </trkpt>
      <trkpt lat="43.31541" lon="5.68944">
        <ele>873</ele>
        <time>2019-11-29T09:25:15.000Z</time>
      </trkpt>
      <trkpt lat="43.31541" lon="5.68944">
        <ele>873</ele>
        <time>2019-11-29T09:25:16.000Z</time>
      </trkpt>
      <trkpt lat="43.31541" lon="5.68944">
        <ele>873</ele>
        <time>2019-11-29T09:25:17.000Z</time>
      </trkpt>
      <trkpt lat="43.31541" lon="5.68944">
        <ele>873</ele>
        <time>2019-11-29T09:25:18.000Z</time>
      </trkpt>
      <trkpt lat="43.31541" lon="5.68944">
        <ele>873</ele>
        <time>2019-11-29T09:25:19.000Z</time>
      </trkpt>
      <trkpt lat="43.31541" lon="5.68944">
        <ele>873</ele>
        <time>2019-11-29T09:25:20.000Z</time>
      </trkpt>
      <trkpt lat="43.31541" lon="5.68944">
        <ele>873</ele>
        <time>2019-11-29T09:25:21.000Z</time>
      </trkpt>
      <trkpt lat="43.31541" lon="5.68944">
        <ele>873</ele>
        <time>2019-11-29T09:25:22.000Z</time>
      </trkpt>
      <trkpt lat="43.31541" lon="5.68944">
        <ele>873</ele>
        <time>2019-11-29T09:25:23.000Z</time>
      </trkpt>
      <trkpt lat="43.31541" lon="5.68944">
        <ele>873</ele>
        <time>2019-11-29T09:25:24.000Z</time>
      </trkpt>
      <trkpt lat="43.31541" lon="5.68943">
        <ele>873</ele>
        <time>2019-11-29T09:25:25.000Z</time>
      </trkpt>
      <trkpt lat="43.31541" lon="5.68943">
        <ele>873</ele>
        <time>2019-11-29T09:25:26.000Z</time>
      </trkpt>
      <trkpt lat="43.31541" lon="5.68943">
        <ele>873</ele>
        <time>2019-11-29T09:25:27.000Z</time>
      </trkpt>
      <trkpt lat="43.31541" lon="5.68943">
        <ele>873</ele>
        <time>2019-11-29T09:25:28.000Z</time>
      </trkpt>
      <trkpt lat="43.31541" lon="5.68943">
        <ele>873</ele>
        <time>2019-11-29T09:25:29.000Z</time>
      </trkpt>
      <trkpt lat="43.31541" lon="5.68943">
        <ele>873</ele>
        <time>2019-11-29T09:25:30.000Z</time>
      </trkpt>
      <trkpt lat="43.3154" lon="5.68944">
        <ele>873</ele>
        <time>2019-11-29T09:25:31.000Z</time>
      </trkpt>
      <trkpt lat="43.3154" lon="5.68944">
        <ele>873</ele>
        <time>2019-11-29T09:25:32.000Z</time>
      </trkpt>
      <trkpt lat="43.31539" lon="5.68945">
        <ele>873</ele>
        <time>2019-11-29T09:25:33.000Z</time>
      </trkpt>
      <trkpt lat="43.31538" lon="5.68945">
        <ele>873</ele>
        <time>2019-11-29T09:25:34.000Z</time>
      </trkpt>
      <trkpt lat="43.31537" lon="5.68946">
        <ele>873</ele>
        <time>2019-11-29T09:25:35.000Z</time>
      </trkpt>
      <trkpt lat="43.31536" lon="5.68946">
        <ele>873</ele>
        <time>2019-11-29T09:25:36.000Z</time>
      </trkpt>
      <trkpt lat="43.31535" lon="5.68947">
        <ele>873</ele>
        <time>2019-11-29T09:25:37.000Z</time>
      </trkpt>
      <trkpt lat="43.31534" lon="5.68948">
        <ele>873</ele>
        <time>2019-11-29T09:25:38.000Z</time>
      </trkpt>
      <trkpt lat="43.31533" lon="5.68949">
        <ele>873</ele>
        <time>2019-11-29T09:25:39.000Z</time>
      </trkpt>
      <trkpt lat="43.31532" lon="5.6895">
        <ele>873</ele>
        <time>2019-11-29T09:25:40.000Z</time>
      </trkpt>
      <trkpt lat="43.31531" lon="5.68951">
        <ele>873</ele>
        <time>2019-11-29T09:25:41.000Z</time>
      </trkpt>
      <trkpt lat="43.3153" lon="5.68952">
        <ele>873</ele>
        <time>2019-11-29T09:25:42.000Z</time>
      </trkpt>
      <trkpt lat="43.31529" lon="5.68952">
        <ele>874</ele>
        <time>2019-11-29T09:25:43.000Z</time>
      </trkpt>
      <trkpt lat="43.31528" lon="5.68952">
        <ele>874</ele>
        <time>2019-11-29T09:25:44.000Z</time>
      </trkpt>
      <trkpt lat="43.31526" lon="5.68953">
        <ele>874</ele>
        <time>2019-11-29T09:25:45.000Z</time>
      </trkpt>
      <trkpt lat="43.31525" lon="5.68952">
        <ele>874</ele>
        <time>2019-11-29T09:25:46.000Z</time>
      </trkpt>
      <trkpt lat="43.31524" lon="5.68952">
        <ele>874</ele>
        <time>2019-11-29T09:25:47.000Z</time>
      </trkpt>
      <trkpt lat="43.31523" lon="5.68951">
        <ele>874</ele>
        <time>2019-11-29T09:25:48.000Z</time>
      </trkpt>
      <trkpt lat="43.31522" lon="5.68951">
        <ele>874</ele>
        <time>2019-11-29T09:25:49.000Z</time>
      </trkpt>
      <trkpt lat="43.31521" lon="5.68951">
        <ele>874</ele>
        <time>2019-11-29T09:25:50.000Z</time>
      </trkpt>
      <trkpt lat="43.3152" lon="5.6895">
        <ele>874</ele>
        <time>2019-11-29T09:25:51.000Z</time>
      </trkpt>
      <trkpt lat="43.31519" lon="5.6895">
        <ele>874</ele>
        <time>2019-11-29T09:25:52.000Z</time>
      </trkpt>
      <trkpt lat="43.31518" lon="5.68949">
        <ele>874</ele>
        <time>2019-11-29T09:25:53.000Z</time>
      </trkpt>
      <trkpt lat="43.31517" lon="5.68949">
        <ele>874</ele>
        <time>2019-11-29T09:25:54.000Z</time>
      </trkpt>
      <trkpt lat="43.31517" lon="5.68949">
        <ele>874</ele>
        <time>2019-11-29T09:25:55.000Z</time>
      </trkpt>
      <trkpt lat="43.31516" lon="5.68948">
        <ele>874</ele>
        <time>2019-11-29T09:25:56.000Z</time>
      </trkpt>
      <trkpt lat="43.31515" lon="5.68948">
        <ele>874</ele>
        <time>2019-11-29T09:25:57.000Z</time>
      </trkpt>
      <trkpt lat="43.31514" lon="5.68948">
        <ele>875</ele>
        <time>2019-11-29T09:25:58.000Z</time>
      </trkpt>
      <trkpt lat="43.31514" lon="5.68948">
        <ele>875</ele>
        <time>2019-11-29T09:25:59.000Z</time>
      </trkpt>
      <trkpt lat="43.31513" lon="5.68948">
        <ele>875</ele>
        <time>2019-11-29T09:26:00.000Z</time>
      </trkpt>
      <trkpt lat="43.31512" lon="5.68947">
        <ele>875</ele>
        <time>2019-11-29T09:26:01.000Z</time>
      </trkpt>
      <trkpt lat="43.31511" lon="5.68948">
        <ele>875</ele>
        <time>2019-11-29T09:26:02.000Z</time>
      </trkpt>
      <trkpt lat="43.31511" lon="5.68947">
        <ele>875</ele>
        <time>2019-11-29T09:26:03.000Z</time>
      </trkpt>
      <trkpt lat="43.3151" lon="5.68947">
        <ele>875</ele>
        <time>2019-11-29T09:26:04.000Z</time>
      </trkpt>
      <trkpt lat="43.3151" lon="5.68946">
        <ele>875</ele>
        <time>2019-11-29T09:26:05.000Z</time>
      </trkpt>
      <trkpt lat="43.3151" lon="5.68946">
        <ele>875</ele>
        <time>2019-11-29T09:26:06.000Z</time>
      </trkpt>
      <trkpt lat="43.31509" lon="5.68946">
        <ele>875</ele>
        <time>2019-11-29T09:26:07.000Z</time>
      </trkpt>
      <trkpt lat="43.31509" lon="5.68946">
        <ele>875</ele>
        <time>2019-11-29T09:26:08.000Z</time>
      </trkpt>
      <trkpt lat="43.31508" lon="5.68946">
        <ele>875</ele>
        <time>2019-11-29T09:26:09.000Z</time>
      </trkpt>
      <trkpt lat="43.31508" lon="5.68946">
        <ele>875</ele>
        <time>2019-11-29T09:26:10.000Z</time>
      </trkpt>
      <trkpt lat="43.31508" lon="5.68946">
        <ele>875</ele>
        <time>2019-11-29T09:26:11.000Z</time>
      </trkpt>
      <trkpt lat="43.31508" lon="5.68946">
        <ele>875</ele>
        <time>2019-11-29T09:26:12.000Z</time>
      </trkpt>
      <trkpt lat="43.31508" lon="5.68946">
        <ele>875</ele>
        <time>2019-11-29T09:26:13.000Z</time>
      </trkpt>
      <trkpt lat="43.31507" lon="5.68946">
        <ele>875</ele>
        <time>2019-11-29T09:26:14.000Z</time>
      </trkpt>
      <trkpt lat="43.31507" lon="5.68946">
        <ele>875</ele>
        <time>2019-11-29T09:26:15.000Z</time>
      </trkpt>
      <trkpt lat="43.31507" lon="5.68946">
        <ele>875</ele>
        <time>2019-11-29T09:26:16.000Z</time>
      </trkpt>
      <trkpt lat="43.31507" lon="5.68947">
        <ele>875</ele>
        <time>2019-11-29T09:26:17.000Z</time>
      </trkpt>
      <trkpt lat="43.31506" lon="5.68947">
        <ele>875</ele>
        <time>2019-11-29T09:26:18.000Z</time>
      </trkpt>
      <trkpt lat="43.31506" lon="5.68948">
        <ele>875</ele>
        <time>2019-11-29T09:26:19.000Z</time>
      </trkpt>
      <trkpt lat="43.31505" lon="5.68948">
        <ele>875</ele>
        <time>2019-11-29T09:26:20.000Z</time>
      </trkpt>
      <trkpt lat="43.31505" lon="5.68949">
        <ele>875</ele>
        <time>2019-11-29T09:26:21.000Z</time>
      </trkpt>
      <trkpt lat="43.31504" lon="5.68949">
        <ele>875</ele>
        <time>2019-11-29T09:26:22.000Z</time>
      </trkpt>
      <trkpt lat="43.31504" lon="5.68949">
        <ele>875</ele>
        <time>2019-11-29T09:26:23.000Z</time>
      </trkpt>
      <trkpt lat="43.31503" lon="5.68949">
        <ele>875</ele>
        <time>2019-11-29T09:26:24.000Z</time>
      </trkpt>
      <trkpt lat="43.31503" lon="5.68948">
        <ele>875</ele>
        <time>2019-11-29T09:26:25.000Z</time>
      </trkpt>
      <trkpt lat="43.31503" lon="5.68948">
        <ele>875</ele>
        <time>2019-11-29T09:26:26.000Z</time>
      </trkpt>
      <trkpt lat="43.31502" lon="5.68948">
        <ele>876</ele>
        <time>2019-11-29T09:26:27.000Z</time>
      </trkpt>
      <trkpt lat="43.31502" lon="5.68948">
        <ele>876</ele>
        <time>2019-11-29T09:26:28.000Z</time>
      </trkpt>
      <trkpt lat="43.31502" lon="5.68948">
        <ele>876</ele>
        <time>2019-11-29T09:26:29.000Z</time>
      </trkpt>
      <trkpt lat="43.31503" lon="5.68948">
        <ele>875</ele>
        <time>2019-11-29T09:26:30.000Z</time>
      </trkpt>
      <trkpt lat="43.31503" lon="5.68948">
        <ele>875</ele>
        <time>2019-11-29T09:26:31.000Z</time>
      </trkpt>
      <trkpt lat="43.31503" lon="5.68949">
        <ele>875</ele>
        <time>2019-11-29T09:26:32.000Z</time>
      </trkpt>
      <trkpt lat="43.31503" lon="5.68949">
        <ele>875</ele>
        <time>2019-11-29T09:26:33.000Z</time>
      </trkpt>
      <trkpt lat="43.31503" lon="5.68949">
        <ele>875</ele>
        <time>2019-11-29T09:26:34.000Z</time>
      </trkpt>
      <trkpt lat="43.31503" lon="5.68949">
        <ele>875</ele>
        <time>2019-11-29T09:26:35.000Z</time>
      </trkpt>
      <trkpt lat="43.31503" lon="5.68949">
        <ele>875</ele>
        <time>2019-11-29T09:26:36.000Z</time>
      </trkpt>
      <trkpt lat="43.31502" lon="5.68949">
        <ele>875</ele>
        <time>2019-11-29T09:26:37.000Z</time>
      </trkpt>
      <trkpt lat="43.31502" lon="5.68949">
        <ele>875</ele>
        <time>2019-11-29T09:26:38.000Z</time>
      </trkpt>
      <trkpt lat="43.31502" lon="5.68949">
        <ele>875</ele>
        <time>2019-11-29T09:26:39.000Z</time>
      </trkpt>
      <trkpt lat="43.31502" lon="5.68949">
        <ele>875</ele>
        <time>2019-11-29T09:26:40.000Z</time>
      </trkpt>
      <trkpt lat="43.31502" lon="5.68949">
        <ele>875</ele>
        <time>2019-11-29T09:26:41.000Z</time>
      </trkpt>
      <trkpt lat="43.31502" lon="5.68949">
        <ele>875</ele>
        <time>2019-11-29T09:26:42.000Z</time>
      </trkpt>
      <trkpt lat="43.31502" lon="5.68949">
        <ele>875</ele>
        <time>2019-11-29T09:26:43.000Z</time>
      </trkpt>
      <trkpt lat="43.31501" lon="5.68949">
        <ele>875</ele>
        <time>2019-11-29T09:26:44.000Z</time>
      </trkpt>
      <trkpt lat="43.31501" lon="5.68948">
        <ele>875</ele>
        <time>2019-11-29T09:26:45.000Z</time>
      </trkpt>
      <trkpt lat="43.315" lon="5.68948">
        <ele>875</ele>
        <time>2019-11-29T09:26:46.000Z</time>
      </trkpt>
      <trkpt lat="43.31499" lon="5.68947">
        <ele>875</ele>
        <time>2019-11-29T09:26:47.000Z</time>
      </trkpt>
      <trkpt lat="43.31498" lon="5.68947">
        <ele>875</ele>
        <time>2019-11-29T09:26:48.000Z</time>
      </trkpt>
      <trkpt lat="43.31498" lon="5.68947">
        <ele>875</ele>
        <time>2019-11-29T09:26:49.000Z</time>
      </trkpt>
      <trkpt lat="43.31497" lon="5.68947">
        <ele>875</ele>
        <time>2019-11-29T09:26:50.000Z</time>
      </trkpt>
      <trkpt lat="43.31497" lon="5.68947">
        <ele>875</ele>
        <time>2019-11-29T09:26:51.000Z</time>
      </trkpt>
      <trkpt lat="43.31496" lon="5.68947">
        <ele>875</ele>
        <time>2019-11-29T09:26:52.000Z</time>
      </trkpt>
      <trkpt lat="43.31496" lon="5.68946">
        <ele>875</ele>
        <time>2019-11-29T09:26:53.000Z</time>
      </trkpt>
      <trkpt lat="43.31495" lon="5.68946">
        <ele>875</ele>
        <time>2019-11-29T09:26:54.000Z</time>
      </trkpt>
      <trkpt lat="43.31495" lon="5.68946">
        <ele>875</ele>
        <time>2019-11-29T09:26:55.000Z</time>
      </trkpt>
      <trkpt lat="43.31494" lon="5.68945">
        <ele>875</ele>
        <time>2019-11-29T09:26:56.000Z</time>
      </trkpt>
      <trkpt lat="43.31494" lon="5.68945">
        <ele>875</ele>
        <time>2019-11-29T09:26:57.000Z</time>
      </trkpt>
      <trkpt lat="43.31493" lon="5.68944">
        <ele>875</ele>
        <time>2019-11-29T09:26:58.000Z</time>
      </trkpt>
      <trkpt lat="43.31493" lon="5.68944">
        <ele>875</ele>
        <time>2019-11-29T09:26:59.000Z</time>
      </trkpt>
      <trkpt lat="43.31492" lon="5.68943">
        <ele>875</ele>
        <time>2019-11-29T09:27:00.000Z</time>
      </trkpt>
      <trkpt lat="43.31492" lon="5.68943">
        <ele>874</ele>
        <time>2019-11-29T09:27:01.000Z</time>
      </trkpt>
      <trkpt lat="43.31492" lon="5.68943">
        <ele>874</ele>
        <time>2019-11-29T09:27:02.000Z</time>
      </trkpt>
      <trkpt lat="43.31491" lon="5.68942">
        <ele>874</ele>
        <time>2019-11-29T09:27:03.000Z</time>
      </trkpt>
      <trkpt lat="43.31491" lon="5.68942">
        <ele>874</ele>
        <time>2019-11-29T09:27:04.000Z</time>
      </trkpt>
      <trkpt lat="43.3149" lon="5.68941">
        <ele>874</ele>
        <time>2019-11-29T09:27:05.000Z</time>
      </trkpt>
      <trkpt lat="43.31489" lon="5.6894">
        <ele>874</ele>
        <time>2019-11-29T09:27:06.000Z</time>
      </trkpt>
      <trkpt lat="43.31489" lon="5.6894">
        <ele>874</ele>
        <time>2019-11-29T09:27:07.000Z</time>
      </trkpt>
      <trkpt lat="43.31488" lon="5.68939">
        <ele>874</ele>
        <time>2019-11-29T09:27:08.000Z</time>
      </trkpt>
      <trkpt lat="43.31487" lon="5.68938">
        <ele>874</ele>
        <time>2019-11-29T09:27:09.000Z</time>
      </trkpt>
      <trkpt lat="43.31486" lon="5.68937">
        <ele>874</ele>
        <time>2019-11-29T09:27:10.000Z</time>
      </trkpt>
      <trkpt lat="43.31486" lon="5.68937">
        <ele>874</ele>
        <time>2019-11-29T09:27:11.000Z</time>
      </trkpt>
      <trkpt lat="43.31485" lon="5.68936">
        <ele>874</ele>
        <time>2019-11-29T09:27:12.000Z</time>
      </trkpt>
      <trkpt lat="43.31484" lon="5.68936">
        <ele>874</ele>
        <time>2019-11-29T09:27:13.000Z</time>
      </trkpt>
      <trkpt lat="43.31483" lon="5.68935">
        <ele>874</ele>
        <time>2019-11-29T09:27:14.000Z</time>
      </trkpt>
      <trkpt lat="43.31482" lon="5.68935">
        <ele>874</ele>
        <time>2019-11-29T09:27:15.000Z</time>
      </trkpt>
      <trkpt lat="43.31481" lon="5.68934">
        <ele>873</ele>
        <time>2019-11-29T09:27:16.000Z</time>
      </trkpt>
      <trkpt lat="43.31481" lon="5.68934">
        <ele>873</ele>
        <time>2019-11-29T09:27:17.000Z</time>
      </trkpt>
      <trkpt lat="43.3148" lon="5.68934">
        <ele>873</ele>
        <time>2019-11-29T09:27:18.000Z</time>
      </trkpt>
      <trkpt lat="43.31479" lon="5.68934">
        <ele>873</ele>
        <time>2019-11-29T09:27:19.000Z</time>
      </trkpt>
      <trkpt lat="43.31478" lon="5.68933">
        <ele>873</ele>
        <time>2019-11-29T09:27:20.000Z</time>
      </trkpt>
      <trkpt lat="43.31477" lon="5.68933">
        <ele>873</ele>
        <time>2019-11-29T09:27:21.000Z</time>
      </trkpt>
      <trkpt lat="43.31476" lon="5.68933">
        <ele>873</ele>
        <time>2019-11-29T09:27:22.000Z</time>
      </trkpt>
      <trkpt lat="43.31475" lon="5.68932">
        <ele>873</ele>
        <time>2019-11-29T09:27:23.000Z</time>
      </trkpt>
      <trkpt lat="43.31474" lon="5.68932">
        <ele>873</ele>
        <time>2019-11-29T09:27:24.000Z</time>
      </trkpt>
      <trkpt lat="43.31473" lon="5.68932">
        <ele>873</ele>
        <time>2019-11-29T09:27:25.000Z</time>
      </trkpt>
      <trkpt lat="43.31472" lon="5.68931">
        <ele>873</ele>
        <time>2019-11-29T09:27:26.000Z</time>
      </trkpt>
      <trkpt lat="43.31472" lon="5.6893">
        <ele>872</ele>
        <time>2019-11-29T09:27:27.000Z</time>
      </trkpt>
      <trkpt lat="43.31471" lon="5.68929">
        <ele>872</ele>
        <time>2019-11-29T09:27:28.000Z</time>
      </trkpt>
      <trkpt lat="43.3147" lon="5.68929">
        <ele>872</ele>
        <time>2019-11-29T09:27:29.000Z</time>
      </trkpt>
      <trkpt lat="43.31469" lon="5.68928">
        <ele>872</ele>
        <time>2019-11-29T09:27:30.000Z</time>
      </trkpt>
      <trkpt lat="43.31468" lon="5.68928">
        <ele>872</ele>
        <time>2019-11-29T09:27:31.000Z</time>
      </trkpt>
      <trkpt lat="43.31467" lon="5.68927">
        <ele>872</ele>
        <time>2019-11-29T09:27:32.000Z</time>
      </trkpt>
      <trkpt lat="43.31466" lon="5.68927">
        <ele>871</ele>
        <time>2019-11-29T09:27:33.000Z</time>
      </trkpt>
      <trkpt lat="43.31465" lon="5.68926">
        <ele>871</ele>
        <time>2019-11-29T09:27:34.000Z</time>
      </trkpt>
      <trkpt lat="43.31465" lon="5.68926">
        <ele>871</ele>
        <time>2019-11-29T09:27:35.000Z</time>
      </trkpt>
      <trkpt lat="43.31464" lon="5.68926">
        <ele>871</ele>
        <time>2019-11-29T09:27:36.000Z</time>
      </trkpt>
      <trkpt lat="43.31464" lon="5.68926">
        <ele>871</ele>
        <time>2019-11-29T09:27:37.000Z</time>
      </trkpt>
      <trkpt lat="43.31463" lon="5.68926">
        <ele>871</ele>
        <time>2019-11-29T09:27:38.000Z</time>
      </trkpt>
      <trkpt lat="43.31463" lon="5.68926">
        <ele>871</ele>
        <time>2019-11-29T09:27:39.000Z</time>
      </trkpt>
      <trkpt lat="43.31462" lon="5.68925">
        <ele>871</ele>
        <time>2019-11-29T09:27:40.000Z</time>
      </trkpt>
      <trkpt lat="43.31461" lon="5.68925">
        <ele>870</ele>
        <time>2019-11-29T09:27:41.000Z</time>
      </trkpt>
      <trkpt lat="43.3146" lon="5.68924">
        <ele>870</ele>
        <time>2019-11-29T09:27:42.000Z</time>
      </trkpt>
      <trkpt lat="43.31459" lon="5.68924">
        <ele>870</ele>
        <time>2019-11-29T09:27:43.000Z</time>
      </trkpt>
      <trkpt lat="43.31458" lon="5.68923">
        <ele>870</ele>
        <time>2019-11-29T09:27:44.000Z</time>
      </trkpt>
      <trkpt lat="43.31457" lon="5.68923">
        <ele>870</ele>
        <time>2019-11-29T09:27:45.000Z</time>
      </trkpt>
      <trkpt lat="43.31456" lon="5.68922">
        <ele>870</ele>
        <time>2019-11-29T09:27:46.000Z</time>
      </trkpt>
      <trkpt lat="43.31455" lon="5.68921">
        <ele>870</ele>
        <time>2019-11-29T09:27:47.000Z</time>
      </trkpt>
      <trkpt lat="43.31454" lon="5.68921">
        <ele>869</ele>
        <time>2019-11-29T09:27:48.000Z</time>
      </trkpt>
      <trkpt lat="43.31453" lon="5.6892">
        <ele>869</ele>
        <time>2019-11-29T09:27:49.000Z</time>
      </trkpt>
      <trkpt lat="43.31452" lon="5.6892">
        <ele>869</ele>
        <time>2019-11-29T09:27:50.000Z</time>
      </trkpt>
      <trkpt lat="43.31451" lon="5.68919">
        <ele>869</ele>
        <time>2019-11-29T09:27:51.000Z</time>
      </trkpt>
      <trkpt lat="43.3145" lon="5.68919">
        <ele>869</ele>
        <time>2019-11-29T09:27:52.000Z</time>
      </trkpt>
      <trkpt lat="43.31449" lon="5.68918">
        <ele>869</ele>
        <time>2019-11-29T09:27:53.000Z</time>
      </trkpt>
      <trkpt lat="43.31448" lon="5.68918">
        <ele>869</ele>
        <time>2019-11-29T09:27:54.000Z</time>
      </trkpt>
      <trkpt lat="43.31447" lon="5.68917">
        <ele>868</ele>
        <time>2019-11-29T09:27:55.000Z</time>
      </trkpt>
      <trkpt lat="43.31446" lon="5.68917">
        <ele>868</ele>
        <time>2019-11-29T09:27:56.000Z</time>
      </trkpt>
      <trkpt lat="43.31446" lon="5.68916">
        <ele>868</ele>
        <time>2019-11-29T09:27:57.000Z</time>
      </trkpt>
      <trkpt lat="43.31445" lon="5.68915">
        <ele>868</ele>
        <time>2019-11-29T09:27:58.000Z</time>
      </trkpt>
      <trkpt lat="43.31444" lon="5.68914">
        <ele>868</ele>
        <time>2019-11-29T09:27:59.000Z</time>
      </trkpt>
      <trkpt lat="43.31443" lon="5.68914">
        <ele>868</ele>
        <time>2019-11-29T09:28:00.000Z</time>
      </trkpt>
      <trkpt lat="43.31442" lon="5.68913">
        <ele>868</ele>
        <time>2019-11-29T09:28:01.000Z</time>
      </trkpt>
      <trkpt lat="43.31441" lon="5.68913">
        <ele>868</ele>
        <time>2019-11-29T09:28:02.000Z</time>
      </trkpt>
      <trkpt lat="43.31441" lon="5.68912">
        <ele>868</ele>
        <time>2019-11-29T09:28:03.000Z</time>
      </trkpt>
      <trkpt lat="43.3144" lon="5.68911">
        <ele>868</ele>
        <time>2019-11-29T09:28:04.000Z</time>
      </trkpt>
      <trkpt lat="43.31439" lon="5.6891">
        <ele>868</ele>
        <time>2019-11-29T09:28:05.000Z</time>
      </trkpt>
      <trkpt lat="43.31438" lon="5.6891">
        <ele>868</ele>
        <time>2019-11-29T09:28:06.000Z</time>
      </trkpt>
      <trkpt lat="43.31438" lon="5.68909">
        <ele>867</ele>
        <time>2019-11-29T09:28:07.000Z</time>
      </trkpt>
      <trkpt lat="43.31437" lon="5.68908">
        <ele>867</ele>
        <time>2019-11-29T09:28:08.000Z</time>
      </trkpt>
      <trkpt lat="43.31436" lon="5.68908">
        <ele>867</ele>
        <time>2019-11-29T09:28:09.000Z</time>
      </trkpt>
      <trkpt lat="43.31435" lon="5.68907">
        <ele>867</ele>
        <time>2019-11-29T09:28:10.000Z</time>
      </trkpt>
      <trkpt lat="43.31434" lon="5.68906">
        <ele>867</ele>
        <time>2019-11-29T09:28:11.000Z</time>
      </trkpt>
      <trkpt lat="43.31433" lon="5.68906">
        <ele>867</ele>
        <time>2019-11-29T09:28:12.000Z</time>
      </trkpt>
      <trkpt lat="43.31432" lon="5.68905">
        <ele>867</ele>
        <time>2019-11-29T09:28:13.000Z</time>
      </trkpt>
      <trkpt lat="43.3143" lon="5.68905">
        <ele>867</ele>
        <time>2019-11-29T09:28:14.000Z</time>
      </trkpt>
      <trkpt lat="43.31429" lon="5.68905">
        <ele>867</ele>
        <time>2019-11-29T09:28:15.000Z</time>
      </trkpt>
      <trkpt lat="43.31428" lon="5.68904">
        <ele>866</ele>
        <time>2019-11-29T09:28:16.000Z</time>
      </trkpt>
      <trkpt lat="43.31427" lon="5.68904">
        <ele>866</ele>
        <time>2019-11-29T09:28:17.000Z</time>
      </trkpt>
      <trkpt lat="43.31426" lon="5.68904">
        <ele>866</ele>
        <time>2019-11-29T09:28:18.000Z</time>
      </trkpt>
      <trkpt lat="43.31425" lon="5.68904">
        <ele>866</ele>
        <time>2019-11-29T09:28:19.000Z</time>
      </trkpt>
      <trkpt lat="43.31424" lon="5.68904">
        <ele>866</ele>
        <time>2019-11-29T09:28:20.000Z</time>
      </trkpt>
      <trkpt lat="43.31423" lon="5.68904">
        <ele>866</ele>
        <time>2019-11-29T09:28:21.000Z</time>
      </trkpt>
      <trkpt lat="43.31422" lon="5.68903">
        <ele>866</ele>
        <time>2019-11-29T09:28:22.000Z</time>
      </trkpt>
      <trkpt lat="43.31421" lon="5.68902">
        <ele>865</ele>
        <time>2019-11-29T09:28:23.000Z</time>
      </trkpt>
      <trkpt lat="43.3142" lon="5.68902">
        <ele>865</ele>
        <time>2019-11-29T09:28:24.000Z</time>
      </trkpt>
      <trkpt lat="43.31419" lon="5.68901">
        <ele>865</ele>
        <time>2019-11-29T09:28:25.000Z</time>
      </trkpt>
      <trkpt lat="43.31418" lon="5.68901">
        <ele>865</ele>
        <time>2019-11-29T09:28:26.000Z</time>
      </trkpt>
      <trkpt lat="43.31417" lon="5.689">
        <ele>865</ele>
        <time>2019-11-29T09:28:27.000Z</time>
      </trkpt>
      <trkpt lat="43.31417" lon="5.689">
        <ele>865</ele>
        <time>2019-11-29T09:28:28.000Z</time>
      </trkpt>
      <trkpt lat="43.31416" lon="5.689">
        <ele>865</ele>
        <time>2019-11-29T09:28:29.000Z</time>
      </trkpt>
      <trkpt lat="43.31415" lon="5.68899">
        <ele>865</ele>
        <time>2019-11-29T09:28:30.000Z</time>
      </trkpt>
      <trkpt lat="43.31414" lon="5.68898">
        <ele>865</ele>
        <time>2019-11-29T09:28:31.000Z</time>
      </trkpt>
      <trkpt lat="43.31413" lon="5.68897">
        <ele>865</ele>
        <time>2019-11-29T09:28:32.000Z</time>
      </trkpt>
      <trkpt lat="43.31412" lon="5.68897">
        <ele>865</ele>
        <time>2019-11-29T09:28:33.000Z</time>
      </trkpt>
      <trkpt lat="43.31411" lon="5.68896">
        <ele>865</ele>
        <time>2019-11-29T09:28:34.000Z</time>
      </trkpt>
      <trkpt lat="43.3141" lon="5.68895">
        <ele>864</ele>
        <time>2019-11-29T09:28:35.000Z</time>
      </trkpt>
      <trkpt lat="43.31409" lon="5.68894">
        <ele>864</ele>
        <time>2019-11-29T09:28:36.000Z</time>
      </trkpt>
      <trkpt lat="43.31408" lon="5.68894">
        <ele>864</ele>
        <time>2019-11-29T09:28:37.000Z</time>
      </trkpt>
      <trkpt lat="43.31407" lon="5.68893">
        <ele>864</ele>
        <time>2019-11-29T09:28:38.000Z</time>
      </trkpt>
      <trkpt lat="43.31407" lon="5.68893">
        <ele>863</ele>
        <time>2019-11-29T09:28:39.000Z</time>
      </trkpt>
      <trkpt lat="43.31406" lon="5.68892">
        <ele>863</ele>
        <time>2019-11-29T09:28:40.000Z</time>
      </trkpt>
      <trkpt lat="43.31405" lon="5.68891">
        <ele>863</ele>
        <time>2019-11-29T09:28:41.000Z</time>
      </trkpt>
      <trkpt lat="43.31404" lon="5.68889">
        <ele>863</ele>
        <time>2019-11-29T09:28:42.000Z</time>
      </trkpt>
      <trkpt lat="43.31404" lon="5.68888">
        <ele>863</ele>
        <time>2019-11-29T09:28:43.000Z</time>
      </trkpt>
      <trkpt lat="43.31403" lon="5.68887">
        <ele>862</ele>
        <time>2019-11-29T09:28:44.000Z</time>
      </trkpt>
      <trkpt lat="43.31402" lon="5.68886">
        <ele>862</ele>
        <time>2019-11-29T09:28:45.000Z</time>
      </trkpt>
      <trkpt lat="43.31401" lon="5.68885">
        <ele>862</ele>
        <time>2019-11-29T09:28:46.000Z</time>
      </trkpt>
      <trkpt lat="43.314" lon="5.68884">
        <ele>862</ele>
        <time>2019-11-29T09:28:47.000Z</time>
      </trkpt>
      <trkpt lat="43.31399" lon="5.68883">
        <ele>862</ele>
        <time>2019-11-29T09:28:48.000Z</time>
      </trkpt>
      <trkpt lat="43.31398" lon="5.68882">
        <ele>862</ele>
        <time>2019-11-29T09:28:49.000Z</time>
      </trkpt>
      <trkpt lat="43.31397" lon="5.68881">
        <ele>861</ele>
        <time>2019-11-29T09:28:50.000Z</time>
      </trkpt>
      <trkpt lat="43.31397" lon="5.6888">
        <ele>861</ele>
        <time>2019-11-29T09:28:51.000Z</time>
      </trkpt>
      <trkpt lat="43.31396" lon="5.68879">
        <ele>861</ele>
        <time>2019-11-29T09:28:52.000Z</time>
      </trkpt>
      <trkpt lat="43.31396" lon="5.68878">
        <ele>861</ele>
        <time>2019-11-29T09:28:53.000Z</time>
      </trkpt>
      <trkpt lat="43.31395" lon="5.68877">
        <ele>861</ele>
        <time>2019-11-29T09:28:54.000Z</time>
      </trkpt>
      <trkpt lat="43.31394" lon="5.68876">
        <ele>861</ele>
        <time>2019-11-29T09:28:55.000Z</time>
      </trkpt>
      <trkpt lat="43.31394" lon="5.68875">
        <ele>861</ele>
        <time>2019-11-29T09:28:56.000Z</time>
      </trkpt>
      <trkpt lat="43.31393" lon="5.68874">
        <ele>861</ele>
        <time>2019-11-29T09:28:57.000Z</time>
      </trkpt>
      <trkpt lat="43.31393" lon="5.68872">
        <ele>861</ele>
        <time>2019-11-29T09:28:58.000Z</time>
      </trkpt>
      <trkpt lat="43.31392" lon="5.68871">
        <ele>860</ele>
        <time>2019-11-29T09:28:59.000Z</time>
      </trkpt>
      <trkpt lat="43.31392" lon="5.6887">
        <ele>860</ele>
        <time>2019-11-29T09:29:00.000Z</time>
      </trkpt>
      <trkpt lat="43.31391" lon="5.68868">
        <ele>860</ele>
        <time>2019-11-29T09:29:01.000Z</time>
      </trkpt>
      <trkpt lat="43.31391" lon="5.68867">
        <ele>860</ele>
        <time>2019-11-29T09:29:02.000Z</time>
      </trkpt>
      <trkpt lat="43.31391" lon="5.68866">
        <ele>860</ele>
        <time>2019-11-29T09:29:03.000Z</time>
      </trkpt>
      <trkpt lat="43.3139" lon="5.68865">
        <ele>860</ele>
        <time>2019-11-29T09:29:04.000Z</time>
      </trkpt>
      <trkpt lat="43.3139" lon="5.68865">
        <ele>859</ele>
        <time>2019-11-29T09:29:05.000Z</time>
      </trkpt>
      <trkpt lat="43.31389" lon="5.68864">
        <ele>859</ele>
        <time>2019-11-29T09:29:06.000Z</time>
      </trkpt>
      <trkpt lat="43.31389" lon="5.68862">
        <ele>859</ele>
        <time>2019-11-29T09:29:07.000Z</time>
      </trkpt>
      <trkpt lat="43.31388" lon="5.68861">
        <ele>859</ele>
        <time>2019-11-29T09:29:08.000Z</time>
      </trkpt>
      <trkpt lat="43.31388" lon="5.6886">
        <ele>859</ele>
        <time>2019-11-29T09:29:09.000Z</time>
      </trkpt>
      <trkpt lat="43.31387" lon="5.68859">
        <ele>859</ele>
        <time>2019-11-29T09:29:10.000Z</time>
      </trkpt>
      <trkpt lat="43.31386" lon="5.68858">
        <ele>859</ele>
        <time>2019-11-29T09:29:11.000Z</time>
      </trkpt>
      <trkpt lat="43.31386" lon="5.68857">
        <ele>859</ele>
        <time>2019-11-29T09:29:12.000Z</time>
      </trkpt>
      <trkpt lat="43.31385" lon="5.68856">
        <ele>859</ele>
        <time>2019-11-29T09:29:13.000Z</time>
      </trkpt>
      <trkpt lat="43.31384" lon="5.68855">
        <ele>858</ele>
        <time>2019-11-29T09:29:14.000Z</time>
      </trkpt>
      <trkpt lat="43.31383" lon="5.68854">
        <ele>858</ele>
        <time>2019-11-29T09:29:15.000Z</time>
      </trkpt>
      <trkpt lat="43.31383" lon="5.68853">
        <ele>858</ele>
        <time>2019-11-29T09:29:16.000Z</time>
      </trkpt>
      <trkpt lat="43.31382" lon="5.68853">
        <ele>858</ele>
        <time>2019-11-29T09:29:17.000Z</time>
      </trkpt>
      <trkpt lat="43.31381" lon="5.68852">
        <ele>858</ele>
        <time>2019-11-29T09:29:18.000Z</time>
      </trkpt>
      <trkpt lat="43.3138" lon="5.68851">
        <ele>858</ele>
        <time>2019-11-29T09:29:19.000Z</time>
      </trkpt>
      <trkpt lat="43.31379" lon="5.6885">
        <ele>857</ele>
        <time>2019-11-29T09:29:20.000Z</time>
      </trkpt>
      <trkpt lat="43.31379" lon="5.68849">
        <ele>857</ele>
        <time>2019-11-29T09:29:21.000Z</time>
      </trkpt>
      <trkpt lat="43.31378" lon="5.68848">
        <ele>857</ele>
        <time>2019-11-29T09:29:22.000Z</time>
      </trkpt>
      <trkpt lat="43.31377" lon="5.68847">
        <ele>857</ele>
        <time>2019-11-29T09:29:23.000Z</time>
      </trkpt>
      <trkpt lat="43.31376" lon="5.68846">
        <ele>857</ele>
        <time>2019-11-29T09:29:24.000Z</time>
      </trkpt>
      <trkpt lat="43.31376" lon="5.68845">
        <ele>857</ele>
        <time>2019-11-29T09:29:25.000Z</time>
      </trkpt>
      <trkpt lat="43.31375" lon="5.68844">
        <ele>856</ele>
        <time>2019-11-29T09:29:26.000Z</time>
      </trkpt>
      <trkpt lat="43.31375" lon="5.68844">
        <ele>856</ele>
        <time>2019-11-29T09:29:27.000Z</time>
      </trkpt>
      <trkpt lat="43.31373" lon="5.68843">
        <ele>856</ele>
        <time>2019-11-29T09:29:28.000Z</time>
      </trkpt>
      <trkpt lat="43.31372" lon="5.68843">
        <ele>856</ele>
        <time>2019-11-29T09:29:29.000Z</time>
      </trkpt>
      <trkpt lat="43.31372" lon="5.68842">
        <ele>856</ele>
        <time>2019-11-29T09:29:30.000Z</time>
      </trkpt>
      <trkpt lat="43.31371" lon="5.68842">
        <ele>856</ele>
        <time>2019-11-29T09:29:31.000Z</time>
      </trkpt>
      <trkpt lat="43.31371" lon="5.68841">
        <ele>856</ele>
        <time>2019-11-29T09:29:32.000Z</time>
      </trkpt>
      <trkpt lat="43.3137" lon="5.68841">
        <ele>856</ele>
        <time>2019-11-29T09:29:33.000Z</time>
      </trkpt>
      <trkpt lat="43.3137" lon="5.68841">
        <ele>856</ele>
        <time>2019-11-29T09:29:34.000Z</time>
      </trkpt>
      <trkpt lat="43.31369" lon="5.6884">
        <ele>856</ele>
        <time>2019-11-29T09:29:35.000Z</time>
      </trkpt>
      <trkpt lat="43.31368" lon="5.6884">
        <ele>855</ele>
        <time>2019-11-29T09:29:36.000Z</time>
      </trkpt>
      <trkpt lat="43.31367" lon="5.68839">
        <ele>855</ele>
        <time>2019-11-29T09:29:37.000Z</time>
      </trkpt>
      <trkpt lat="43.31367" lon="5.68839">
        <ele>855</ele>
        <time>2019-11-29T09:29:38.000Z</time>
      </trkpt>
      <trkpt lat="43.31366" lon="5.68838">
        <ele>855</ele>
        <time>2019-11-29T09:29:39.000Z</time>
      </trkpt>
      <trkpt lat="43.31366" lon="5.68838">
        <ele>855</ele>
        <time>2019-11-29T09:29:40.000Z</time>
      </trkpt>
      <trkpt lat="43.31365" lon="5.68837">
        <ele>855</ele>
        <time>2019-11-29T09:29:41.000Z</time>
      </trkpt>
      <trkpt lat="43.31365" lon="5.68837">
        <ele>855</ele>
        <time>2019-11-29T09:29:42.000Z</time>
      </trkpt>
      <trkpt lat="43.31364" lon="5.68836">
        <ele>854</ele>
        <time>2019-11-29T09:29:43.000Z</time>
      </trkpt>
      <trkpt lat="43.31364" lon="5.68836">
        <ele>854</ele>
        <time>2019-11-29T09:29:44.000Z</time>
      </trkpt>
      <trkpt lat="43.31363" lon="5.68835">
        <ele>854</ele>
        <time>2019-11-29T09:29:45.000Z</time>
      </trkpt>
      <trkpt lat="43.31362" lon="5.68834">
        <ele>854</ele>
        <time>2019-11-29T09:29:46.000Z</time>
      </trkpt>
      <trkpt lat="43.31362" lon="5.68834">
        <ele>854</ele>
        <time>2019-11-29T09:29:47.000Z</time>
      </trkpt>
      <trkpt lat="43.31361" lon="5.68833">
        <ele>854</ele>
        <time>2019-11-29T09:29:48.000Z</time>
      </trkpt>
      <trkpt lat="43.31361" lon="5.68833">
        <ele>853</ele>
        <time>2019-11-29T09:29:49.000Z</time>
      </trkpt>
      <trkpt lat="43.3136" lon="5.68832">
        <ele>853</ele>
        <time>2019-11-29T09:29:50.000Z</time>
      </trkpt>
      <trkpt lat="43.3136" lon="5.68831">
        <ele>853</ele>
        <time>2019-11-29T09:29:51.000Z</time>
      </trkpt>
      <trkpt lat="43.31359" lon="5.68831">
        <ele>853</ele>
        <time>2019-11-29T09:29:52.000Z</time>
      </trkpt>
      <trkpt lat="43.31359" lon="5.6883">
        <ele>853</ele>
        <time>2019-11-29T09:29:53.000Z</time>
      </trkpt>
      <trkpt lat="43.31359" lon="5.6883">
        <ele>853</ele>
        <time>2019-11-29T09:29:54.000Z</time>
      </trkpt>
      <trkpt lat="43.31358" lon="5.68831">
        <ele>853</ele>
        <time>2019-11-29T09:29:55.000Z</time>
      </trkpt>
      <trkpt lat="43.31358" lon="5.68831">
        <ele>853</ele>
        <time>2019-11-29T09:29:56.000Z</time>
      </trkpt>
      <trkpt lat="43.31357" lon="5.6883">
        <ele>853</ele>
        <time>2019-11-29T09:29:57.000Z</time>
      </trkpt>
      <trkpt lat="43.31357" lon="5.6883">
        <ele>853</ele>
        <time>2019-11-29T09:29:58.000Z</time>
      </trkpt>
      <trkpt lat="43.31356" lon="5.68829">
        <ele>853</ele>
        <time>2019-11-29T09:29:59.000Z</time>
      </trkpt>
      <trkpt lat="43.31356" lon="5.68828">
        <ele>853</ele>
        <time>2019-11-29T09:30:00.000Z</time>
      </trkpt>
      <trkpt lat="43.31355" lon="5.68828">
        <ele>853</ele>
        <time>2019-11-29T09:30:01.000Z</time>
      </trkpt>
      <trkpt lat="43.31354" lon="5.68827">
        <ele>853</ele>
        <time>2019-11-29T09:30:02.000Z</time>
      </trkpt>
      <trkpt lat="43.31353" lon="5.68827">
        <ele>853</ele>
        <time>2019-11-29T09:30:03.000Z</time>
      </trkpt>
      <trkpt lat="43.31352" lon="5.68826">
        <ele>853</ele>
        <time>2019-11-29T09:30:04.000Z</time>
      </trkpt>
      <trkpt lat="43.31351" lon="5.68826">
        <ele>853</ele>
        <time>2019-11-29T09:30:05.000Z</time>
      </trkpt>
      <trkpt lat="43.31351" lon="5.68825">
        <ele>853</ele>
        <time>2019-11-29T09:30:06.000Z</time>
      </trkpt>
      <trkpt lat="43.3135" lon="5.68825">
        <ele>853</ele>
        <time>2019-11-29T09:30:07.000Z</time>
      </trkpt>
      <trkpt lat="43.31349" lon="5.68824">
        <ele>852</ele>
        <time>2019-11-29T09:30:08.000Z</time>
      </trkpt>
      <trkpt lat="43.31348" lon="5.68823">
        <ele>852</ele>
        <time>2019-11-29T09:30:09.000Z</time>
      </trkpt>
      <trkpt lat="43.31348" lon="5.68823">
        <ele>852</ele>
        <time>2019-11-29T09:30:10.000Z</time>
      </trkpt>
      <trkpt lat="43.31347" lon="5.68823">
        <ele>852</ele>
        <time>2019-11-29T09:30:11.000Z</time>
      </trkpt>
      <trkpt lat="43.31346" lon="5.68822">
        <ele>852</ele>
        <time>2019-11-29T09:30:12.000Z</time>
      </trkpt>
      <trkpt lat="43.31345" lon="5.68822">
        <ele>852</ele>
        <time>2019-11-29T09:30:13.000Z</time>
      </trkpt>
      <trkpt lat="43.31344" lon="5.68822">
        <ele>852</ele>
        <time>2019-11-29T09:30:14.000Z</time>
      </trkpt>
      <trkpt lat="43.31343" lon="5.68822">
        <ele>852</ele>
        <time>2019-11-29T09:30:15.000Z</time>
      </trkpt>
      <trkpt lat="43.31342" lon="5.68822">
        <ele>852</ele>
        <time>2019-11-29T09:30:16.000Z</time>
      </trkpt>
      <trkpt lat="43.31341" lon="5.68821">
        <ele>852</ele>
        <time>2019-11-29T09:30:17.000Z</time>
      </trkpt>
      <trkpt lat="43.3134" lon="5.68821">
        <ele>851</ele>
        <time>2019-11-29T09:30:18.000Z</time>
      </trkpt>
      <trkpt lat="43.3134" lon="5.6882">
        <ele>851</ele>
        <time>2019-11-29T09:30:19.000Z</time>
      </trkpt>
      <trkpt lat="43.31339" lon="5.68819">
        <ele>851</ele>
        <time>2019-11-29T09:30:20.000Z</time>
      </trkpt>
      <trkpt lat="43.31339" lon="5.68817">
        <ele>851</ele>
        <time>2019-11-29T09:30:21.000Z</time>
      </trkpt>
      <trkpt lat="43.31339" lon="5.68816">
        <ele>851</ele>
        <time>2019-11-29T09:30:22.000Z</time>
      </trkpt>
      <trkpt lat="43.31338" lon="5.68815">
        <ele>851</ele>
        <time>2019-11-29T09:30:23.000Z</time>
      </trkpt>
      <trkpt lat="43.31338" lon="5.68814">
        <ele>851</ele>
        <time>2019-11-29T09:30:24.000Z</time>
      </trkpt>
      <trkpt lat="43.31337" lon="5.68813">
        <ele>851</ele>
        <time>2019-11-29T09:30:25.000Z</time>
      </trkpt>
      <trkpt lat="43.31337" lon="5.68812">
        <ele>850</ele>
        <time>2019-11-29T09:30:26.000Z</time>
      </trkpt>
      <trkpt lat="43.31336" lon="5.68812">
        <ele>850</ele>
        <time>2019-11-29T09:30:27.000Z</time>
      </trkpt>
      <trkpt lat="43.31336" lon="5.68811">
        <ele>850</ele>
        <time>2019-11-29T09:30:28.000Z</time>
      </trkpt>
      <trkpt lat="43.31335" lon="5.68811">
        <ele>850</ele>
        <time>2019-11-29T09:30:29.000Z</time>
      </trkpt>
      <trkpt lat="43.31335" lon="5.68811">
        <ele>850</ele>
        <time>2019-11-29T09:30:30.000Z</time>
      </trkpt>
      <trkpt lat="43.31335" lon="5.6881">
        <ele>850</ele>
        <time>2019-11-29T09:30:31.000Z</time>
      </trkpt>
      <trkpt lat="43.31334" lon="5.6881">
        <ele>850</ele>
        <time>2019-11-29T09:30:32.000Z</time>
      </trkpt>
      <trkpt lat="43.31334" lon="5.68809">
        <ele>850</ele>
        <time>2019-11-29T09:30:33.000Z</time>
      </trkpt>
      <trkpt lat="43.31333" lon="5.68808">
        <ele>850</ele>
        <time>2019-11-29T09:30:34.000Z</time>
      </trkpt>
      <trkpt lat="43.31332" lon="5.68807">
        <ele>850</ele>
        <time>2019-11-29T09:30:35.000Z</time>
      </trkpt>
      <trkpt lat="43.31331" lon="5.68807">
        <ele>849</ele>
        <time>2019-11-29T09:30:36.000Z</time>
      </trkpt>
      <trkpt lat="43.31331" lon="5.68806">
        <ele>849</ele>
        <time>2019-11-29T09:30:37.000Z</time>
      </trkpt>
      <trkpt lat="43.3133" lon="5.68805">
        <ele>849</ele>
        <time>2019-11-29T09:30:38.000Z</time>
      </trkpt>
      <trkpt lat="43.31329" lon="5.68804">
        <ele>849</ele>
        <time>2019-11-29T09:30:39.000Z</time>
      </trkpt>
      <trkpt lat="43.31328" lon="5.68803">
        <ele>849</ele>
        <time>2019-11-29T09:30:40.000Z</time>
      </trkpt>
      <trkpt lat="43.31327" lon="5.68802">
        <ele>849</ele>
        <time>2019-11-29T09:30:41.000Z</time>
      </trkpt>
      <trkpt lat="43.31326" lon="5.68802">
        <ele>849</ele>
        <time>2019-11-29T09:30:42.000Z</time>
      </trkpt>
      <trkpt lat="43.31325" lon="5.68801">
        <ele>849</ele>
        <time>2019-11-29T09:30:43.000Z</time>
      </trkpt>
      <trkpt lat="43.31324" lon="5.68801">
        <ele>848</ele>
        <time>2019-11-29T09:30:44.000Z</time>
      </trkpt>
      <trkpt lat="43.31324" lon="5.688">
        <ele>848</ele>
        <time>2019-11-29T09:30:45.000Z</time>
      </trkpt>
      <trkpt lat="43.31323" lon="5.68799">
        <ele>848</ele>
        <time>2019-11-29T09:30:46.000Z</time>
      </trkpt>
      <trkpt lat="43.31322" lon="5.68798">
        <ele>848</ele>
        <time>2019-11-29T09:30:47.000Z</time>
      </trkpt>
      <trkpt lat="43.31321" lon="5.68797">
        <ele>848</ele>
        <time>2019-11-29T09:30:48.000Z</time>
      </trkpt>
      <trkpt lat="43.31321" lon="5.68796">
        <ele>848</ele>
        <time>2019-11-29T09:30:49.000Z</time>
      </trkpt>
      <trkpt lat="43.31321" lon="5.68795">
        <ele>848</ele>
        <time>2019-11-29T09:30:50.000Z</time>
      </trkpt>
      <trkpt lat="43.3132" lon="5.68794">
        <ele>848</ele>
        <time>2019-11-29T09:30:51.000Z</time>
      </trkpt>
      <trkpt lat="43.3132" lon="5.68793">
        <ele>847</ele>
        <time>2019-11-29T09:30:52.000Z</time>
      </trkpt>
      <trkpt lat="43.3132" lon="5.68792">
        <ele>847</ele>
        <time>2019-11-29T09:30:53.000Z</time>
      </trkpt>
      <trkpt lat="43.3132" lon="5.6879">
        <ele>847</ele>
        <time>2019-11-29T09:30:54.000Z</time>
      </trkpt>
      <trkpt lat="43.31319" lon="5.68789">
        <ele>847</ele>
        <time>2019-11-29T09:30:55.000Z</time>
      </trkpt>
      <trkpt lat="43.31318" lon="5.68789">
        <ele>847</ele>
        <time>2019-11-29T09:30:56.000Z</time>
      </trkpt>
      <trkpt lat="43.31318" lon="5.68788">
        <ele>847</ele>
        <time>2019-11-29T09:30:57.000Z</time>
      </trkpt>
      <trkpt lat="43.31317" lon="5.68787">
        <ele>847</ele>
        <time>2019-11-29T09:30:58.000Z</time>
      </trkpt>
      <trkpt lat="43.31317" lon="5.68786">
        <ele>847</ele>
        <time>2019-11-29T09:30:59.000Z</time>
      </trkpt>
      <trkpt lat="43.31316" lon="5.68785">
        <ele>847</ele>
        <time>2019-11-29T09:31:00.000Z</time>
      </trkpt>
      <trkpt lat="43.31315" lon="5.68784">
        <ele>846</ele>
        <time>2019-11-29T09:31:01.000Z</time>
      </trkpt>
      <trkpt lat="43.31314" lon="5.68783">
        <ele>846</ele>
        <time>2019-11-29T09:31:02.000Z</time>
      </trkpt>
      <trkpt lat="43.31314" lon="5.68782">
        <ele>846</ele>
        <time>2019-11-29T09:31:03.000Z</time>
      </trkpt>
      <trkpt lat="43.31313" lon="5.68781">
        <ele>846</ele>
        <time>2019-11-29T09:31:04.000Z</time>
      </trkpt>
      <trkpt lat="43.31313" lon="5.68781">
        <ele>846</ele>
        <time>2019-11-29T09:31:05.000Z</time>
      </trkpt>
      <trkpt lat="43.31312" lon="5.6878">
        <ele>846</ele>
        <time>2019-11-29T09:31:06.000Z</time>
      </trkpt>
      <trkpt lat="43.31312" lon="5.68779">
        <ele>845</ele>
        <time>2019-11-29T09:31:07.000Z</time>
      </trkpt>
      <trkpt lat="43.31311" lon="5.68779">
        <ele>845</ele>
        <time>2019-11-29T09:31:08.000Z</time>
      </trkpt>
      <trkpt lat="43.31311" lon="5.68778">
        <ele>845</ele>
        <time>2019-11-29T09:31:09.000Z</time>
      </trkpt>
      <trkpt lat="43.3131" lon="5.68777">
        <ele>845</ele>
        <time>2019-11-29T09:31:10.000Z</time>
      </trkpt>
      <trkpt lat="43.3131" lon="5.68776">
        <ele>845</ele>
        <time>2019-11-29T09:31:11.000Z</time>
      </trkpt>
      <trkpt lat="43.31309" lon="5.68776">
        <ele>844</ele>
        <time>2019-11-29T09:31:12.000Z</time>
      </trkpt>
      <trkpt lat="43.31309" lon="5.68775">
        <ele>844</ele>
        <time>2019-11-29T09:31:13.000Z</time>
      </trkpt>
      <trkpt lat="43.31308" lon="5.68774">
        <ele>844</ele>
        <time>2019-11-29T09:31:14.000Z</time>
      </trkpt>
      <trkpt lat="43.31308" lon="5.68774">
        <ele>844</ele>
        <time>2019-11-29T09:31:15.000Z</time>
      </trkpt>
      <trkpt lat="43.31308" lon="5.68773">
        <ele>844</ele>
        <time>2019-11-29T09:31:16.000Z</time>
      </trkpt>
      <trkpt lat="43.31308" lon="5.68773">
        <ele>844</ele>
        <time>2019-11-29T09:31:17.000Z</time>
      </trkpt>
      <trkpt lat="43.31307" lon="5.68772">
        <ele>843</ele>
        <time>2019-11-29T09:31:18.000Z</time>
      </trkpt>
      <trkpt lat="43.31307" lon="5.68772">
        <ele>843</ele>
        <time>2019-11-29T09:31:19.000Z</time>
      </trkpt>
      <trkpt lat="43.31306" lon="5.68771">
        <ele>843</ele>
        <time>2019-11-29T09:31:20.000Z</time>
      </trkpt>
      <trkpt lat="43.31306" lon="5.68771">
        <ele>843</ele>
        <time>2019-11-29T09:31:21.000Z</time>
      </trkpt>
      <trkpt lat="43.31305" lon="5.6877">
        <ele>843</ele>
        <time>2019-11-29T09:31:22.000Z</time>
      </trkpt>
      <trkpt lat="43.31305" lon="5.6877">
        <ele>843</ele>
        <time>2019-11-29T09:31:23.000Z</time>
      </trkpt>
      <trkpt lat="43.31304" lon="5.68769">
        <ele>843</ele>
        <time>2019-11-29T09:31:24.000Z</time>
      </trkpt>
      <trkpt lat="43.31303" lon="5.68769">
        <ele>843</ele>
        <time>2019-11-29T09:31:25.000Z</time>
      </trkpt>
      <trkpt lat="43.31303" lon="5.68769">
        <ele>842</ele>
        <time>2019-11-29T09:31:26.000Z</time>
      </trkpt>
      <trkpt lat="43.31302" lon="5.68768">
        <ele>842</ele>
        <time>2019-11-29T09:31:27.000Z</time>
      </trkpt>
      <trkpt lat="43.31301" lon="5.68767">
        <ele>842</ele>
        <time>2019-11-29T09:31:28.000Z</time>
      </trkpt>
      <trkpt lat="43.31301" lon="5.68767">
        <ele>842</ele>
        <time>2019-11-29T09:31:29.000Z</time>
      </trkpt>
      <trkpt lat="43.313" lon="5.68766">
        <ele>842</ele>
        <time>2019-11-29T09:31:30.000Z</time>
      </trkpt>
      <trkpt lat="43.31299" lon="5.68765">
        <ele>841</ele>
        <time>2019-11-29T09:31:31.000Z</time>
      </trkpt>
      <trkpt lat="43.31298" lon="5.68765">
        <ele>841</ele>
        <time>2019-11-29T09:31:32.000Z</time>
      </trkpt>
      <trkpt lat="43.31298" lon="5.68764">
        <ele>841</ele>
        <time>2019-11-29T09:31:33.000Z</time>
      </trkpt>
      <trkpt lat="43.31297" lon="5.68763">
        <ele>841</ele>
        <time>2019-11-29T09:31:34.000Z</time>
      </trkpt>
      <trkpt lat="43.31296" lon="5.68762">
        <ele>841</ele>
        <time>2019-11-29T09:31:35.000Z</time>
      </trkpt>
      <trkpt lat="43.31295" lon="5.68761">
        <ele>841</ele>
        <time>2019-11-29T09:31:36.000Z</time>
      </trkpt>
      <trkpt lat="43.31295" lon="5.68761">
        <ele>841</ele>
        <time>2019-11-29T09:31:37.000Z</time>
      </trkpt>
      <trkpt lat="43.31294" lon="5.6876">
        <ele>840</ele>
        <time>2019-11-29T09:31:38.000Z</time>
      </trkpt>
      <trkpt lat="43.31294" lon="5.68759">
        <ele>840</ele>
        <time>2019-11-29T09:31:39.000Z</time>
      </trkpt>
      <trkpt lat="43.31293" lon="5.68758">
        <ele>840</ele>
        <time>2019-11-29T09:31:40.000Z</time>
      </trkpt>
      <trkpt lat="43.31292" lon="5.68757">
        <ele>840</ele>
        <time>2019-11-29T09:31:41.000Z</time>
      </trkpt>
      <trkpt lat="43.31291" lon="5.68756">
        <ele>840</ele>
        <time>2019-11-29T09:31:42.000Z</time>
      </trkpt>
      <trkpt lat="43.31291" lon="5.68755">
        <ele>840</ele>
        <time>2019-11-29T09:31:43.000Z</time>
      </trkpt>
      <trkpt lat="43.3129" lon="5.68755">
        <ele>840</ele>
        <time>2019-11-29T09:31:44.000Z</time>
      </trkpt>
      <trkpt lat="43.31289" lon="5.68754">
        <ele>840</ele>
        <time>2019-11-29T09:31:45.000Z</time>
      </trkpt>
      <trkpt lat="43.31289" lon="5.68753">
        <ele>839</ele>
        <time>2019-11-29T09:31:46.000Z</time>
      </trkpt>
      <trkpt lat="43.31288" lon="5.68752">
        <ele>839</ele>
        <time>2019-11-29T09:31:47.000Z</time>
      </trkpt>
      <trkpt lat="43.31288" lon="5.68751">
        <ele>839</ele>
        <time>2019-11-29T09:31:48.000Z</time>
      </trkpt>
      <trkpt lat="43.31287" lon="5.6875">
        <ele>839</ele>
        <time>2019-11-29T09:31:49.000Z</time>
      </trkpt>
      <trkpt lat="43.31287" lon="5.68749">
        <ele>839</ele>
        <time>2019-11-29T09:31:50.000Z</time>
      </trkpt>
      <trkpt lat="43.31286" lon="5.68749">
        <ele>839</ele>
        <time>2019-11-29T09:31:51.000Z</time>
      </trkpt>
      <trkpt lat="43.31285" lon="5.68748">
        <ele>839</ele>
        <time>2019-11-29T09:31:52.000Z</time>
      </trkpt>
      <trkpt lat="43.31285" lon="5.68747">
        <ele>839</ele>
        <time>2019-11-29T09:31:53.000Z</time>
      </trkpt>
      <trkpt lat="43.31284" lon="5.68747">
        <ele>838</ele>
        <time>2019-11-29T09:31:54.000Z</time>
      </trkpt>
      <trkpt lat="43.31283" lon="5.68745">
        <ele>838</ele>
        <time>2019-11-29T09:31:55.000Z</time>
      </trkpt>
      <trkpt lat="43.31283" lon="5.68744">
        <ele>838</ele>
        <time>2019-11-29T09:31:56.000Z</time>
      </trkpt>
      <trkpt lat="43.31282" lon="5.68743">
        <ele>838</ele>
        <time>2019-11-29T09:31:57.000Z</time>
      </trkpt>
      <trkpt lat="43.31282" lon="5.68743">
        <ele>838</ele>
        <time>2019-11-29T09:31:58.000Z</time>
      </trkpt>
      <trkpt lat="43.31281" lon="5.68742">
        <ele>838</ele>
        <time>2019-11-29T09:31:59.000Z</time>
      </trkpt>
      <trkpt lat="43.3128" lon="5.68741">
        <ele>838</ele>
        <time>2019-11-29T09:32:00.000Z</time>
      </trkpt>
      <trkpt lat="43.31279" lon="5.6874">
        <ele>838</ele>
        <time>2019-11-29T09:32:01.000Z</time>
      </trkpt>
      <trkpt lat="43.31278" lon="5.68739">
        <ele>837</ele>
        <time>2019-11-29T09:32:02.000Z</time>
      </trkpt>
      <trkpt lat="43.31277" lon="5.68738">
        <ele>837</ele>
        <time>2019-11-29T09:32:03.000Z</time>
      </trkpt>
      <trkpt lat="43.31276" lon="5.68738">
        <ele>837</ele>
        <time>2019-11-29T09:32:04.000Z</time>
      </trkpt>
      <trkpt lat="43.31275" lon="5.68737">
        <ele>837</ele>
        <time>2019-11-29T09:32:05.000Z</time>
      </trkpt>
      <trkpt lat="43.31274" lon="5.68736">
        <ele>837</ele>
        <time>2019-11-29T09:32:06.000Z</time>
      </trkpt>
      <trkpt lat="43.31273" lon="5.68736">
        <ele>837</ele>
        <time>2019-11-29T09:32:07.000Z</time>
      </trkpt>
      <trkpt lat="43.31272" lon="5.68735">
        <ele>837</ele>
        <time>2019-11-29T09:32:08.000Z</time>
      </trkpt>
      <trkpt lat="43.31271" lon="5.68734">
        <ele>837</ele>
        <time>2019-11-29T09:32:09.000Z</time>
      </trkpt>
      <trkpt lat="43.3127" lon="5.68733">
        <ele>836</ele>
        <time>2019-11-29T09:32:10.000Z</time>
      </trkpt>
      <trkpt lat="43.31269" lon="5.68733">
        <ele>836</ele>
        <time>2019-11-29T09:32:11.000Z</time>
      </trkpt>
      <trkpt lat="43.31268" lon="5.68732">
        <ele>836</ele>
        <time>2019-11-29T09:32:12.000Z</time>
      </trkpt>
      <trkpt lat="43.31267" lon="5.68731">
        <ele>836</ele>
        <time>2019-11-29T09:32:13.000Z</time>
      </trkpt>
      <trkpt lat="43.31266" lon="5.6873">
        <ele>836</ele>
        <time>2019-11-29T09:32:14.000Z</time>
      </trkpt>
      <trkpt lat="43.31265" lon="5.68729">
        <ele>836</ele>
        <time>2019-11-29T09:32:15.000Z</time>
      </trkpt>
      <trkpt lat="43.31264" lon="5.68729">
        <ele>836</ele>
        <time>2019-11-29T09:32:16.000Z</time>
      </trkpt>
      <trkpt lat="43.31263" lon="5.68729">
        <ele>835</ele>
        <time>2019-11-29T09:32:17.000Z</time>
      </trkpt>
      <trkpt lat="43.31262" lon="5.68728">
        <ele>835</ele>
        <time>2019-11-29T09:32:18.000Z</time>
      </trkpt>
      <trkpt lat="43.31261" lon="5.68727">
        <ele>835</ele>
        <time>2019-11-29T09:32:19.000Z</time>
      </trkpt>
      <trkpt lat="43.31261" lon="5.68726">
        <ele>835</ele>
        <time>2019-11-29T09:32:20.000Z</time>
      </trkpt>
      <trkpt lat="43.3126" lon="5.68725">
        <ele>835</ele>
        <time>2019-11-29T09:32:21.000Z</time>
      </trkpt>
      <trkpt lat="43.31259" lon="5.68724">
        <ele>835</ele>
        <time>2019-11-29T09:32:22.000Z</time>
      </trkpt>
      <trkpt lat="43.31258" lon="5.68723">
        <ele>834</ele>
        <time>2019-11-29T09:32:23.000Z</time>
      </trkpt>
      <trkpt lat="43.31257" lon="5.68722">
        <ele>834</ele>
        <time>2019-11-29T09:32:24.000Z</time>
      </trkpt>
      <trkpt lat="43.31256" lon="5.68722">
        <ele>834</ele>
        <time>2019-11-29T09:32:25.000Z</time>
      </trkpt>
      <trkpt lat="43.31256" lon="5.68721">
        <ele>834</ele>
        <time>2019-11-29T09:32:26.000Z</time>
      </trkpt>
      <trkpt lat="43.31255" lon="5.68721">
        <ele>834</ele>
        <time>2019-11-29T09:32:27.000Z</time>
      </trkpt>
      <trkpt lat="43.31254" lon="5.6872">
        <ele>834</ele>
        <time>2019-11-29T09:32:28.000Z</time>
      </trkpt>
      <trkpt lat="43.31253" lon="5.68719">
        <ele>834</ele>
        <time>2019-11-29T09:32:29.000Z</time>
      </trkpt>
      <trkpt lat="43.31253" lon="5.68718">
        <ele>833</ele>
        <time>2019-11-29T09:32:30.000Z</time>
      </trkpt>
      <trkpt lat="43.31252" lon="5.68717">
        <ele>833</ele>
        <time>2019-11-29T09:32:31.000Z</time>
      </trkpt>
      <trkpt lat="43.31251" lon="5.68717">
        <ele>833</ele>
        <time>2019-11-29T09:32:32.000Z</time>
      </trkpt>
      <trkpt lat="43.31251" lon="5.68716">
        <ele>833</ele>
        <time>2019-11-29T09:32:33.000Z</time>
      </trkpt>
      <trkpt lat="43.3125" lon="5.68715">
        <ele>833</ele>
        <time>2019-11-29T09:32:34.000Z</time>
      </trkpt>
      <trkpt lat="43.31249" lon="5.68714">
        <ele>833</ele>
        <time>2019-11-29T09:32:35.000Z</time>
      </trkpt>
      <trkpt lat="43.31249" lon="5.68713">
        <ele>832</ele>
        <time>2019-11-29T09:32:36.000Z</time>
      </trkpt>
      <trkpt lat="43.31248" lon="5.68712">
        <ele>832</ele>
        <time>2019-11-29T09:32:37.000Z</time>
      </trkpt>
      <trkpt lat="43.31247" lon="5.68711">
        <ele>832</ele>
        <time>2019-11-29T09:32:38.000Z</time>
      </trkpt>
      <trkpt lat="43.31246" lon="5.68711">
        <ele>832</ele>
        <time>2019-11-29T09:32:39.000Z</time>
      </trkpt>
      <trkpt lat="43.31245" lon="5.6871">
        <ele>832</ele>
        <time>2019-11-29T09:32:40.000Z</time>
      </trkpt>
      <trkpt lat="43.31244" lon="5.6871">
        <ele>831</ele>
        <time>2019-11-29T09:32:41.000Z</time>
      </trkpt>
      <trkpt lat="43.31244" lon="5.68709">
        <ele>831</ele>
        <time>2019-11-29T09:32:42.000Z</time>
      </trkpt>
      <trkpt lat="43.31243" lon="5.68708">
        <ele>831</ele>
        <time>2019-11-29T09:32:43.000Z</time>
      </trkpt>
      <trkpt lat="43.31242" lon="5.68708">
        <ele>831</ele>
        <time>2019-11-29T09:32:44.000Z</time>
      </trkpt>
      <trkpt lat="43.31241" lon="5.68707">
        <ele>831</ele>
        <time>2019-11-29T09:32:45.000Z</time>
      </trkpt>
      <trkpt lat="43.3124" lon="5.68706">
        <ele>831</ele>
        <time>2019-11-29T09:32:46.000Z</time>
      </trkpt>
      <trkpt lat="43.31239" lon="5.68705">
        <ele>830</ele>
        <time>2019-11-29T09:32:47.000Z</time>
      </trkpt>
      <trkpt lat="43.31238" lon="5.68705">
        <ele>830</ele>
        <time>2019-11-29T09:32:48.000Z</time>
      </trkpt>
      <trkpt lat="43.31237" lon="5.68704">
        <ele>830</ele>
        <time>2019-11-29T09:32:49.000Z</time>
      </trkpt>
      <trkpt lat="43.31236" lon="5.68703">
        <ele>830</ele>
        <time>2019-11-29T09:32:50.000Z</time>
      </trkpt>
      <trkpt lat="43.31235" lon="5.68702">
        <ele>829</ele>
        <time>2019-11-29T09:32:51.000Z</time>
      </trkpt>
      <trkpt lat="43.31234" lon="5.68702">
        <ele>829</ele>
        <time>2019-11-29T09:32:52.000Z</time>
      </trkpt>
      <trkpt lat="43.31233" lon="5.68701">
        <ele>829</ele>
        <time>2019-11-29T09:32:53.000Z</time>
      </trkpt>
      <trkpt lat="43.31233" lon="5.687">
        <ele>829</ele>
        <time>2019-11-29T09:32:54.000Z</time>
      </trkpt>
      <trkpt lat="43.31232" lon="5.68699">
        <ele>829</ele>
        <time>2019-11-29T09:32:55.000Z</time>
      </trkpt>
      <trkpt lat="43.31231" lon="5.68698">
        <ele>828</ele>
        <time>2019-11-29T09:32:56.000Z</time>
      </trkpt>
      <trkpt lat="43.3123" lon="5.68698">
        <ele>828</ele>
        <time>2019-11-29T09:32:57.000Z</time>
      </trkpt>
      <trkpt lat="43.31229" lon="5.68697">
        <ele>828</ele>
        <time>2019-11-29T09:32:58.000Z</time>
      </trkpt>
      <trkpt lat="43.31229" lon="5.68696">
        <ele>828</ele>
        <time>2019-11-29T09:32:59.000Z</time>
      </trkpt>
      <trkpt lat="43.31228" lon="5.68696">
        <ele>827</ele>
        <time>2019-11-29T09:33:00.000Z</time>
      </trkpt>
      <trkpt lat="43.31227" lon="5.68695">
        <ele>827</ele>
        <time>2019-11-29T09:33:01.000Z</time>
      </trkpt>
      <trkpt lat="43.31226" lon="5.68694">
        <ele>827</ele>
        <time>2019-11-29T09:33:02.000Z</time>
      </trkpt>
      <trkpt lat="43.31225" lon="5.68694">
        <ele>827</ele>
        <time>2019-11-29T09:33:03.000Z</time>
      </trkpt>
      <trkpt lat="43.31225" lon="5.68693">
        <ele>827</ele>
        <time>2019-11-29T09:33:04.000Z</time>
      </trkpt>
      <trkpt lat="43.31224" lon="5.68692">
        <ele>827</ele>
        <time>2019-11-29T09:33:05.000Z</time>
      </trkpt>
      <trkpt lat="43.31223" lon="5.68692">
        <ele>826</ele>
        <time>2019-11-29T09:33:06.000Z</time>
      </trkpt>
      <trkpt lat="43.31222" lon="5.68691">
        <ele>826</ele>
        <time>2019-11-29T09:33:07.000Z</time>
      </trkpt>
      <trkpt lat="43.31222" lon="5.6869">
        <ele>826</ele>
        <time>2019-11-29T09:33:08.000Z</time>
      </trkpt>
      <trkpt lat="43.31221" lon="5.68689">
        <ele>826</ele>
        <time>2019-11-29T09:33:09.000Z</time>
      </trkpt>
      <trkpt lat="43.3122" lon="5.68689">
        <ele>826</ele>
        <time>2019-11-29T09:33:10.000Z</time>
      </trkpt>
      <trkpt lat="43.3122" lon="5.68688">
        <ele>826</ele>
        <time>2019-11-29T09:33:11.000Z</time>
      </trkpt>
      <trkpt lat="43.31219" lon="5.68688">
        <ele>826</ele>
        <time>2019-11-29T09:33:12.000Z</time>
      </trkpt>
      <trkpt lat="43.31218" lon="5.68687">
        <ele>826</ele>
        <time>2019-11-29T09:33:13.000Z</time>
      </trkpt>
      <trkpt lat="43.31217" lon="5.68686">
        <ele>826</ele>
        <time>2019-11-29T09:33:14.000Z</time>
      </trkpt>
      <trkpt lat="43.31217" lon="5.68686">
        <ele>825</ele>
        <time>2019-11-29T09:33:15.000Z</time>
      </trkpt>
      <trkpt lat="43.31216" lon="5.68685">
        <ele>825</ele>
        <time>2019-11-29T09:33:16.000Z</time>
      </trkpt>
      <trkpt lat="43.31215" lon="5.68684">
        <ele>825</ele>
        <time>2019-11-29T09:33:17.000Z</time>
      </trkpt>
      <trkpt lat="43.31215" lon="5.68684">
        <ele>825</ele>
        <time>2019-11-29T09:33:18.000Z</time>
      </trkpt>
      <trkpt lat="43.31214" lon="5.68684">
        <ele>825</ele>
        <time>2019-11-29T09:33:19.000Z</time>
      </trkpt>
      <trkpt lat="43.31213" lon="5.68683">
        <ele>825</ele>
        <time>2019-11-29T09:33:20.000Z</time>
      </trkpt>
      <trkpt lat="43.31213" lon="5.68683">
        <ele>825</ele>
        <time>2019-11-29T09:33:21.000Z</time>
      </trkpt>
      <trkpt lat="43.31212" lon="5.68682">
        <ele>825</ele>
        <time>2019-11-29T09:33:22.000Z</time>
      </trkpt>
      <trkpt lat="43.31211" lon="5.68682">
        <ele>825</ele>
        <time>2019-11-29T09:33:23.000Z</time>
      </trkpt>
      <trkpt lat="43.3121" lon="5.68682">
        <ele>825</ele>
        <time>2019-11-29T09:33:24.000Z</time>
      </trkpt>
      <trkpt lat="43.31209" lon="5.68682">
        <ele>825</ele>
        <time>2019-11-29T09:33:25.000Z</time>
      </trkpt>
      <trkpt lat="43.31209" lon="5.68681">
        <ele>825</ele>
        <time>2019-11-29T09:33:26.000Z</time>
      </trkpt>
      <trkpt lat="43.31208" lon="5.68681">
        <ele>825</ele>
        <time>2019-11-29T09:33:27.000Z</time>
      </trkpt>
      <trkpt lat="43.31207" lon="5.68681">
        <ele>824</ele>
        <time>2019-11-29T09:33:28.000Z</time>
      </trkpt>
      <trkpt lat="43.31206" lon="5.68681">
        <ele>824</ele>
        <time>2019-11-29T09:33:29.000Z</time>
      </trkpt>
      <trkpt lat="43.31205" lon="5.6868">
        <ele>824</ele>
        <time>2019-11-29T09:33:30.000Z</time>
      </trkpt>
      <trkpt lat="43.31204" lon="5.6868">
        <ele>824</ele>
        <time>2019-11-29T09:33:31.000Z</time>
      </trkpt>
      <trkpt lat="43.31203" lon="5.68679">
        <ele>824</ele>
        <time>2019-11-29T09:33:32.000Z</time>
      </trkpt>
      <trkpt lat="43.31203" lon="5.68679">
        <ele>824</ele>
        <time>2019-11-29T09:33:33.000Z</time>
      </trkpt>
      <trkpt lat="43.31202" lon="5.68678">
        <ele>824</ele>
        <time>2019-11-29T09:33:34.000Z</time>
      </trkpt>
      <trkpt lat="43.31201" lon="5.68677">
        <ele>824</ele>
        <time>2019-11-29T09:33:35.000Z</time>
      </trkpt>
      <trkpt lat="43.31201" lon="5.68677">
        <ele>823</ele>
        <time>2019-11-29T09:33:36.000Z</time>
      </trkpt>
      <trkpt lat="43.312" lon="5.68676">
        <ele>823</ele>
        <time>2019-11-29T09:33:37.000Z</time>
      </trkpt>
      <trkpt lat="43.31199" lon="5.68675">
        <ele>823</ele>
        <time>2019-11-29T09:33:38.000Z</time>
      </trkpt>
      <trkpt lat="43.31198" lon="5.68675">
        <ele>823</ele>
        <time>2019-11-29T09:33:39.000Z</time>
      </trkpt>
      <trkpt lat="43.31198" lon="5.68674">
        <ele>823</ele>
        <time>2019-11-29T09:33:40.000Z</time>
      </trkpt>
      <trkpt lat="43.31196" lon="5.68674">
        <ele>823</ele>
        <time>2019-11-29T09:33:41.000Z</time>
      </trkpt>
      <trkpt lat="43.31195" lon="5.68674">
        <ele>823</ele>
        <time>2019-11-29T09:33:42.000Z</time>
      </trkpt>
      <trkpt lat="43.31194" lon="5.68674">
        <ele>822</ele>
        <time>2019-11-29T09:33:43.000Z</time>
      </trkpt>
      <trkpt lat="43.31194" lon="5.68674">
        <ele>822</ele>
        <time>2019-11-29T09:33:44.000Z</time>
      </trkpt>
      <trkpt lat="43.31193" lon="5.68673">
        <ele>822</ele>
        <time>2019-11-29T09:33:45.000Z</time>
      </trkpt>
      <trkpt lat="43.31192" lon="5.68673">
        <ele>822</ele>
        <time>2019-11-29T09:33:46.000Z</time>
      </trkpt>
      <trkpt lat="43.31191" lon="5.68673">
        <ele>822</ele>
        <time>2019-11-29T09:33:47.000Z</time>
      </trkpt>
      <trkpt lat="43.3119" lon="5.68672">
        <ele>822</ele>
        <time>2019-11-29T09:33:48.000Z</time>
      </trkpt>
      <trkpt lat="43.31189" lon="5.68672">
        <ele>822</ele>
        <time>2019-11-29T09:33:49.000Z</time>
      </trkpt>
      <trkpt lat="43.31189" lon="5.68671">
        <ele>822</ele>
        <time>2019-11-29T09:33:50.000Z</time>
      </trkpt>
      <trkpt lat="43.31188" lon="5.68671">
        <ele>821</ele>
        <time>2019-11-29T09:33:51.000Z</time>
      </trkpt>
      <trkpt lat="43.31187" lon="5.6867">
        <ele>821</ele>
        <time>2019-11-29T09:33:52.000Z</time>
      </trkpt>
      <trkpt lat="43.31187" lon="5.6867">
        <ele>821</ele>
        <time>2019-11-29T09:33:53.000Z</time>
      </trkpt>
      <trkpt lat="43.31186" lon="5.6867">
        <ele>821</ele>
        <time>2019-11-29T09:33:54.000Z</time>
      </trkpt>
      <trkpt lat="43.31185" lon="5.68669">
        <ele>821</ele>
        <time>2019-11-29T09:33:55.000Z</time>
      </trkpt>
      <trkpt lat="43.31184" lon="5.68669">
        <ele>821</ele>
        <time>2019-11-29T09:33:56.000Z</time>
      </trkpt>
      <trkpt lat="43.31183" lon="5.68668">
        <ele>821</ele>
        <time>2019-11-29T09:33:57.000Z</time>
      </trkpt>
      <trkpt lat="43.31183" lon="5.68668">
        <ele>821</ele>
        <time>2019-11-29T09:33:58.000Z</time>
      </trkpt>
      <trkpt lat="43.31182" lon="5.68668">
        <ele>820</ele>
        <time>2019-11-29T09:33:59.000Z</time>
      </trkpt>
      <trkpt lat="43.31181" lon="5.68667">
        <ele>820</ele>
        <time>2019-11-29T09:34:00.000Z</time>
      </trkpt>
      <trkpt lat="43.31181" lon="5.68667">
        <ele>820</ele>
        <time>2019-11-29T09:34:01.000Z</time>
      </trkpt>
      <trkpt lat="43.3118" lon="5.68666">
        <ele>820</ele>
        <time>2019-11-29T09:34:02.000Z</time>
      </trkpt>
      <trkpt lat="43.31179" lon="5.68666">
        <ele>820</ele>
        <time>2019-11-29T09:34:03.000Z</time>
      </trkpt>
      <trkpt lat="43.31178" lon="5.68665">
        <ele>820</ele>
        <time>2019-11-29T09:34:04.000Z</time>
      </trkpt>
      <trkpt lat="43.31178" lon="5.68664">
        <ele>820</ele>
        <time>2019-11-29T09:34:05.000Z</time>
      </trkpt>
      <trkpt lat="43.31177" lon="5.68663">
        <ele>820</ele>
        <time>2019-11-29T09:34:06.000Z</time>
      </trkpt>
      <trkpt lat="43.31176" lon="5.68663">
        <ele>820</ele>
        <time>2019-11-29T09:34:07.000Z</time>
      </trkpt>
      <trkpt lat="43.31175" lon="5.68662">
        <ele>820</ele>
        <time>2019-11-29T09:34:08.000Z</time>
      </trkpt>
      <trkpt lat="43.31175" lon="5.68662">
        <ele>820</ele>
        <time>2019-11-29T09:34:09.000Z</time>
      </trkpt>
      <trkpt lat="43.31174" lon="5.68661">
        <ele>820</ele>
        <time>2019-11-29T09:34:10.000Z</time>
      </trkpt>
      <trkpt lat="43.31173" lon="5.6866">
        <ele>820</ele>
        <time>2019-11-29T09:34:11.000Z</time>
      </trkpt>
      <trkpt lat="43.31172" lon="5.68659">
        <ele>820</ele>
        <time>2019-11-29T09:34:12.000Z</time>
      </trkpt>
      <trkpt lat="43.31172" lon="5.68659">
        <ele>819</ele>
        <time>2019-11-29T09:34:13.000Z</time>
      </trkpt>
      <trkpt lat="43.31171" lon="5.68658">
        <ele>819</ele>
        <time>2019-11-29T09:34:14.000Z</time>
      </trkpt>
      <trkpt lat="43.3117" lon="5.68657">
        <ele>819</ele>
        <time>2019-11-29T09:34:15.000Z</time>
      </trkpt>
      <trkpt lat="43.31169" lon="5.68656">
        <ele>819</ele>
        <time>2019-11-29T09:34:16.000Z</time>
      </trkpt>
      <trkpt lat="43.31169" lon="5.68656">
        <ele>819</ele>
        <time>2019-11-29T09:34:17.000Z</time>
      </trkpt>
      <trkpt lat="43.31168" lon="5.68655">
        <ele>819</ele>
        <time>2019-11-29T09:34:18.000Z</time>
      </trkpt>
      <trkpt lat="43.31167" lon="5.68654">
        <ele>818</ele>
        <time>2019-11-29T09:34:19.000Z</time>
      </trkpt>
      <trkpt lat="43.31167" lon="5.68653">
        <ele>818</ele>
        <time>2019-11-29T09:34:20.000Z</time>
      </trkpt>
      <trkpt lat="43.31166" lon="5.68652">
        <ele>818</ele>
        <time>2019-11-29T09:34:21.000Z</time>
      </trkpt>
      <trkpt lat="43.31165" lon="5.68651">
        <ele>818</ele>
        <time>2019-11-29T09:34:22.000Z</time>
      </trkpt>
      <trkpt lat="43.31164" lon="5.68651">
        <ele>818</ele>
        <time>2019-11-29T09:34:23.000Z</time>
      </trkpt>
      <trkpt lat="43.31163" lon="5.6865">
        <ele>818</ele>
        <time>2019-11-29T09:34:24.000Z</time>
      </trkpt>
      <trkpt lat="43.31162" lon="5.6865">
        <ele>817</ele>
        <time>2019-11-29T09:34:25.000Z</time>
      </trkpt>
      <trkpt lat="43.31161" lon="5.68649">
        <ele>817</ele>
        <time>2019-11-29T09:34:26.000Z</time>
      </trkpt>
      <trkpt lat="43.3116" lon="5.68648">
        <ele>817</ele>
        <time>2019-11-29T09:34:27.000Z</time>
      </trkpt>
      <trkpt lat="43.3116" lon="5.68648">
        <ele>817</ele>
        <time>2019-11-29T09:34:28.000Z</time>
      </trkpt>
      <trkpt lat="43.31159" lon="5.68647">
        <ele>817</ele>
        <time>2019-11-29T09:34:29.000Z</time>
      </trkpt>
      <trkpt lat="43.31158" lon="5.68646">
        <ele>816</ele>
        <time>2019-11-29T09:34:30.000Z</time>
      </trkpt>
      <trkpt lat="43.31157" lon="5.68646">
        <ele>816</ele>
        <time>2019-11-29T09:34:31.000Z</time>
      </trkpt>
      <trkpt lat="43.31156" lon="5.68645">
        <ele>816</ele>
        <time>2019-11-29T09:34:32.000Z</time>
      </trkpt>
      <trkpt lat="43.31155" lon="5.68645">
        <ele>816</ele>
        <time>2019-11-29T09:34:33.000Z</time>
      </trkpt>
      <trkpt lat="43.31154" lon="5.68644">
        <ele>815</ele>
        <time>2019-11-29T09:34:34.000Z</time>
      </trkpt>
      <trkpt lat="43.31153" lon="5.68644">
        <ele>815</ele>
        <time>2019-11-29T09:34:35.000Z</time>
      </trkpt>
      <trkpt lat="43.31152" lon="5.68644">
        <ele>815</ele>
        <time>2019-11-29T09:34:36.000Z</time>
      </trkpt>
      <trkpt lat="43.31151" lon="5.68644">
        <ele>815</ele>
        <time>2019-11-29T09:34:37.000Z</time>
      </trkpt>
      <trkpt lat="43.3115" lon="5.68644">
        <ele>815</ele>
        <time>2019-11-29T09:34:38.000Z</time>
      </trkpt>
      <trkpt lat="43.3115" lon="5.68643">
        <ele>815</ele>
        <time>2019-11-29T09:34:39.000Z</time>
      </trkpt>
      <trkpt lat="43.31149" lon="5.68643">
        <ele>815</ele>
        <time>2019-11-29T09:34:40.000Z</time>
      </trkpt>
      <trkpt lat="43.31148" lon="5.68642">
        <ele>814</ele>
        <time>2019-11-29T09:34:41.000Z</time>
      </trkpt>
      <trkpt lat="43.31147" lon="5.68641">
        <ele>814</ele>
        <time>2019-11-29T09:34:42.000Z</time>
      </trkpt>
      <trkpt lat="43.31146" lon="5.68641">
        <ele>814</ele>
        <time>2019-11-29T09:34:43.000Z</time>
      </trkpt>
      <trkpt lat="43.31146" lon="5.6864">
        <ele>814</ele>
        <time>2019-11-29T09:34:44.000Z</time>
      </trkpt>
      <trkpt lat="43.31145" lon="5.6864">
        <ele>814</ele>
        <time>2019-11-29T09:34:45.000Z</time>
      </trkpt>
      <trkpt lat="43.31144" lon="5.68639">
        <ele>814</ele>
        <time>2019-11-29T09:34:46.000Z</time>
      </trkpt>
      <trkpt lat="43.31143" lon="5.68638">
        <ele>814</ele>
        <time>2019-11-29T09:34:47.000Z</time>
      </trkpt>
      <trkpt lat="43.31142" lon="5.68638">
        <ele>813</ele>
        <time>2019-11-29T09:34:48.000Z</time>
      </trkpt>
      <trkpt lat="43.31142" lon="5.68637">
        <ele>813</ele>
        <time>2019-11-29T09:34:49.000Z</time>
      </trkpt>
      <trkpt lat="43.31141" lon="5.68637">
        <ele>813</ele>
        <time>2019-11-29T09:34:50.000Z</time>
      </trkpt>
      <trkpt lat="43.31141" lon="5.68636">
        <ele>813</ele>
        <time>2019-11-29T09:34:51.000Z</time>
      </trkpt>
      <trkpt lat="43.3114" lon="5.68635">
        <ele>813</ele>
        <time>2019-11-29T09:34:52.000Z</time>
      </trkpt>
      <trkpt lat="43.31139" lon="5.68635">
        <ele>813</ele>
        <time>2019-11-29T09:34:53.000Z</time>
      </trkpt>
      <trkpt lat="43.31137" lon="5.68635">
        <ele>813</ele>
        <time>2019-11-29T09:34:54.000Z</time>
      </trkpt>
      <trkpt lat="43.31136" lon="5.68635">
        <ele>813</ele>
        <time>2019-11-29T09:34:55.000Z</time>
      </trkpt>
      <trkpt lat="43.31135" lon="5.68635">
        <ele>813</ele>
        <time>2019-11-29T09:34:56.000Z</time>
      </trkpt>
      <trkpt lat="43.31134" lon="5.68635">
        <ele>813</ele>
        <time>2019-11-29T09:34:57.000Z</time>
      </trkpt>
      <trkpt lat="43.31133" lon="5.68635">
        <ele>812</ele>
        <time>2019-11-29T09:34:58.000Z</time>
      </trkpt>
      <trkpt lat="43.31132" lon="5.68635">
        <ele>812</ele>
        <time>2019-11-29T09:34:59.000Z</time>
      </trkpt>
      <trkpt lat="43.31131" lon="5.68634">
        <ele>812</ele>
        <time>2019-11-29T09:35:00.000Z</time>
      </trkpt>
      <trkpt lat="43.3113" lon="5.68634">
        <ele>812</ele>
        <time>2019-11-29T09:35:01.000Z</time>
      </trkpt>
      <trkpt lat="43.31129" lon="5.68633">
        <ele>812</ele>
        <time>2019-11-29T09:35:02.000Z</time>
      </trkpt>
      <trkpt lat="43.31128" lon="5.68633">
        <ele>812</ele>
        <time>2019-11-29T09:35:03.000Z</time>
      </trkpt>
      <trkpt lat="43.31127" lon="5.68633">
        <ele>812</ele>
        <time>2019-11-29T09:35:04.000Z</time>
      </trkpt>
      <trkpt lat="43.31126" lon="5.68633">
        <ele>812</ele>
        <time>2019-11-29T09:35:05.000Z</time>
      </trkpt>
      <trkpt lat="43.31125" lon="5.68632">
        <ele>812</ele>
        <time>2019-11-29T09:35:06.000Z</time>
      </trkpt>
      <trkpt lat="43.31124" lon="5.68632">
        <ele>812</ele>
        <time>2019-11-29T09:35:07.000Z</time>
      </trkpt>
      <trkpt lat="43.31123" lon="5.68632">
        <ele>812</ele>
        <time>2019-11-29T09:35:08.000Z</time>
      </trkpt>
      <trkpt lat="43.31122" lon="5.68632">
        <ele>812</ele>
        <time>2019-11-29T09:35:09.000Z</time>
      </trkpt>
      <trkpt lat="43.31121" lon="5.68631">
        <ele>812</ele>
        <time>2019-11-29T09:35:10.000Z</time>
      </trkpt>
      <trkpt lat="43.31121" lon="5.68631">
        <ele>812</ele>
        <time>2019-11-29T09:35:11.000Z</time>
      </trkpt>
      <trkpt lat="43.3112" lon="5.68631">
        <ele>812</ele>
        <time>2019-11-29T09:35:12.000Z</time>
      </trkpt>
      <trkpt lat="43.31119" lon="5.68631">
        <ele>812</ele>
        <time>2019-11-29T09:35:13.000Z</time>
      </trkpt>
      <trkpt lat="43.31118" lon="5.68631">
        <ele>812</ele>
        <time>2019-11-29T09:35:14.000Z</time>
      </trkpt>
      <trkpt lat="43.31117" lon="5.6863">
        <ele>812</ele>
        <time>2019-11-29T09:35:15.000Z</time>
      </trkpt>
      <trkpt lat="43.31116" lon="5.6863">
        <ele>812</ele>
        <time>2019-11-29T09:35:16.000Z</time>
      </trkpt>
      <trkpt lat="43.31115" lon="5.6863">
        <ele>812</ele>
        <time>2019-11-29T09:35:17.000Z</time>
      </trkpt>
      <trkpt lat="43.31113" lon="5.68629">
        <ele>812</ele>
        <time>2019-11-29T09:35:18.000Z</time>
      </trkpt>
      <trkpt lat="43.31112" lon="5.68629">
        <ele>812</ele>
        <time>2019-11-29T09:35:19.000Z</time>
      </trkpt>
      <trkpt lat="43.31111" lon="5.68628">
        <ele>812</ele>
        <time>2019-11-29T09:35:20.000Z</time>
      </trkpt>
      <trkpt lat="43.3111" lon="5.68627">
        <ele>811</ele>
        <time>2019-11-29T09:35:21.000Z</time>
      </trkpt>
      <trkpt lat="43.31109" lon="5.68627">
        <ele>811</ele>
        <time>2019-11-29T09:35:22.000Z</time>
      </trkpt>
      <trkpt lat="43.31108" lon="5.68627">
        <ele>811</ele>
        <time>2019-11-29T09:35:23.000Z</time>
      </trkpt>
      <trkpt lat="43.31108" lon="5.68627">
        <ele>811</ele>
        <time>2019-11-29T09:35:24.000Z</time>
      </trkpt>
      <trkpt lat="43.31107" lon="5.68627">
        <ele>811</ele>
        <time>2019-11-29T09:35:25.000Z</time>
      </trkpt>
      <trkpt lat="43.31106" lon="5.68627">
        <ele>811</ele>
        <time>2019-11-29T09:35:26.000Z</time>
      </trkpt>
      <trkpt lat="43.31105" lon="5.68627">
        <ele>811</ele>
        <time>2019-11-29T09:35:27.000Z</time>
      </trkpt>
      <trkpt lat="43.31104" lon="5.68627">
        <ele>811</ele>
        <time>2019-11-29T09:35:28.000Z</time>
      </trkpt>
      <trkpt lat="43.31104" lon="5.68627">
        <ele>811</ele>
        <time>2019-11-29T09:35:29.000Z</time>
      </trkpt>
      <trkpt lat="43.31103" lon="5.68627">
        <ele>811</ele>
        <time>2019-11-29T09:35:30.000Z</time>
      </trkpt>
      <trkpt lat="43.31102" lon="5.68627">
        <ele>811</ele>
        <time>2019-11-29T09:35:31.000Z</time>
      </trkpt>
      <trkpt lat="43.31101" lon="5.68627">
        <ele>810</ele>
        <time>2019-11-29T09:35:32.000Z</time>
      </trkpt>
      <trkpt lat="43.311" lon="5.68627">
        <ele>810</ele>
        <time>2019-11-29T09:35:33.000Z</time>
      </trkpt>
      <trkpt lat="43.31099" lon="5.68627">
        <ele>810</ele>
        <time>2019-11-29T09:35:34.000Z</time>
      </trkpt>
      <trkpt lat="43.31098" lon="5.68627">
        <ele>810</ele>
        <time>2019-11-29T09:35:35.000Z</time>
      </trkpt>
      <trkpt lat="43.31097" lon="5.68627">
        <ele>810</ele>
        <time>2019-11-29T09:35:36.000Z</time>
      </trkpt>
      <trkpt lat="43.31096" lon="5.68627">
        <ele>810</ele>
        <time>2019-11-29T09:35:37.000Z</time>
      </trkpt>
      <trkpt lat="43.31095" lon="5.68627">
        <ele>810</ele>
        <time>2019-11-29T09:35:38.000Z</time>
      </trkpt>
      <trkpt lat="43.31094" lon="5.68626">
        <ele>809</ele>
        <time>2019-11-29T09:35:39.000Z</time>
      </trkpt>
      <trkpt lat="43.31093" lon="5.68626">
        <ele>809</ele>
        <time>2019-11-29T09:35:40.000Z</time>
      </trkpt>
      <trkpt lat="43.31093" lon="5.68626">
        <ele>809</ele>
        <time>2019-11-29T09:35:41.000Z</time>
      </trkpt>
      <trkpt lat="43.31092" lon="5.68625">
        <ele>809</ele>
        <time>2019-11-29T09:35:42.000Z</time>
      </trkpt>
      <trkpt lat="43.31091" lon="5.68625">
        <ele>809</ele>
        <time>2019-11-29T09:35:43.000Z</time>
      </trkpt>
      <trkpt lat="43.31091" lon="5.68624">
        <ele>809</ele>
        <time>2019-11-29T09:35:44.000Z</time>
      </trkpt>
      <trkpt lat="43.3109" lon="5.68624">
        <ele>809</ele>
        <time>2019-11-29T09:35:45.000Z</time>
      </trkpt>
      <trkpt lat="43.31089" lon="5.68624">
        <ele>809</ele>
        <time>2019-11-29T09:35:46.000Z</time>
      </trkpt>
      <trkpt lat="43.31088" lon="5.68624">
        <ele>809</ele>
        <time>2019-11-29T09:35:47.000Z</time>
      </trkpt>
      <trkpt lat="43.31087" lon="5.68625">
        <ele>809</ele>
        <time>2019-11-29T09:35:48.000Z</time>
      </trkpt>
      <trkpt lat="43.31087" lon="5.68625">
        <ele>809</ele>
        <time>2019-11-29T09:35:49.000Z</time>
      </trkpt>
      <trkpt lat="43.31086" lon="5.68624">
        <ele>808</ele>
        <time>2019-11-29T09:35:50.000Z</time>
      </trkpt>
      <trkpt lat="43.31086" lon="5.68624">
        <ele>808</ele>
        <time>2019-11-29T09:35:51.000Z</time>
      </trkpt>
      <trkpt lat="43.31085" lon="5.68624">
        <ele>808</ele>
        <time>2019-11-29T09:35:52.000Z</time>
      </trkpt>
      <trkpt lat="43.31084" lon="5.68624">
        <ele>808</ele>
        <time>2019-11-29T09:35:53.000Z</time>
      </trkpt>
      <trkpt lat="43.31084" lon="5.68624">
        <ele>808</ele>
        <time>2019-11-29T09:35:54.000Z</time>
      </trkpt>
      <trkpt lat="43.31083" lon="5.68623">
        <ele>807</ele>
        <time>2019-11-29T09:35:55.000Z</time>
      </trkpt>
      <trkpt lat="43.31082" lon="5.68623">
        <ele>807</ele>
        <time>2019-11-29T09:35:56.000Z</time>
      </trkpt>
      <trkpt lat="43.31081" lon="5.68623">
        <ele>807</ele>
        <time>2019-11-29T09:35:57.000Z</time>
      </trkpt>
      <trkpt lat="43.31081" lon="5.68622">
        <ele>806</ele>
        <time>2019-11-29T09:35:58.000Z</time>
      </trkpt>
      <trkpt lat="43.3108" lon="5.68623">
        <ele>806</ele>
        <time>2019-11-29T09:35:59.000Z</time>
      </trkpt>
      <trkpt lat="43.31079" lon="5.68623">
        <ele>806</ele>
        <time>2019-11-29T09:36:00.000Z</time>
      </trkpt>
      <trkpt lat="43.31079" lon="5.68623">
        <ele>805</ele>
        <time>2019-11-29T09:36:01.000Z</time>
      </trkpt>
      <trkpt lat="43.31079" lon="5.68623">
        <ele>805</ele>
        <time>2019-11-29T09:36:02.000Z</time>
      </trkpt>
      <trkpt lat="43.31078" lon="5.68623">
        <ele>805</ele>
        <time>2019-11-29T09:36:03.000Z</time>
      </trkpt>
      <trkpt lat="43.31078" lon="5.68623">
        <ele>805</ele>
        <time>2019-11-29T09:36:04.000Z</time>
      </trkpt>
      <trkpt lat="43.31078" lon="5.68623">
        <ele>805</ele>
        <time>2019-11-29T09:36:05.000Z</time>
      </trkpt>
      <trkpt lat="43.31078" lon="5.68623">
        <ele>804</ele>
        <time>2019-11-29T09:36:06.000Z</time>
      </trkpt>
      <trkpt lat="43.31077" lon="5.68623">
        <ele>804</ele>
        <time>2019-11-29T09:36:07.000Z</time>
      </trkpt>
      <trkpt lat="43.31077" lon="5.68623">
        <ele>804</ele>
        <time>2019-11-29T09:36:08.000Z</time>
      </trkpt>
      <trkpt lat="43.31077" lon="5.68623">
        <ele>804</ele>
        <time>2019-11-29T09:36:09.000Z</time>
      </trkpt>
      <trkpt lat="43.31077" lon="5.68623">
        <ele>804</ele>
        <time>2019-11-29T09:36:10.000Z</time>
      </trkpt>
      <trkpt lat="43.31077" lon="5.68623">
        <ele>804</ele>
        <time>2019-11-29T09:36:11.000Z</time>
      </trkpt>
      <trkpt lat="43.31077" lon="5.68624">
        <ele>803</ele>
        <time>2019-11-29T09:36:12.000Z</time>
      </trkpt>
      <trkpt lat="43.31076" lon="5.68624">
        <ele>803</ele>
        <time>2019-11-29T09:36:13.000Z</time>
      </trkpt>
      <trkpt lat="43.31076" lon="5.68624">
        <ele>803</ele>
        <time>2019-11-29T09:36:14.000Z</time>
      </trkpt>
      <trkpt lat="43.31076" lon="5.68624">
        <ele>803</ele>
        <time>2019-11-29T09:36:15.000Z</time>
      </trkpt>
      <trkpt lat="43.31075" lon="5.68624">
        <ele>803</ele>
        <time>2019-11-29T09:36:16.000Z</time>
      </trkpt>
      <trkpt lat="43.31075" lon="5.68624">
        <ele>803</ele>
        <time>2019-11-29T09:36:17.000Z</time>
      </trkpt>
      <trkpt lat="43.31075" lon="5.68624">
        <ele>803</ele>
        <time>2019-11-29T09:36:18.000Z</time>
      </trkpt>
      <trkpt lat="43.31075" lon="5.68625">
        <ele>803</ele>
        <time>2019-11-29T09:36:19.000Z</time>
      </trkpt>
      <trkpt lat="43.31075" lon="5.68624">
        <ele>803</ele>
        <time>2019-11-29T09:36:20.000Z</time>
      </trkpt>
      <trkpt lat="43.31075" lon="5.68624">
        <ele>803</ele>
        <time>2019-11-29T09:36:21.000Z</time>
      </trkpt>
      <trkpt lat="43.31074" lon="5.68624">
        <ele>802</ele>
        <time>2019-11-29T09:36:22.000Z</time>
      </trkpt>
      <trkpt lat="43.31073" lon="5.68624">
        <ele>802</ele>
        <time>2019-11-29T09:36:23.000Z</time>
      </trkpt>
      <trkpt lat="43.31073" lon="5.68624">
        <ele>802</ele>
        <time>2019-11-29T09:36:24.000Z</time>
      </trkpt>
      <trkpt lat="43.31073" lon="5.68624">
        <ele>802</ele>
        <time>2019-11-29T09:36:25.000Z</time>
      </trkpt>
      <trkpt lat="43.31073" lon="5.68624">
        <ele>802</ele>
        <time>2019-11-29T09:36:26.000Z</time>
      </trkpt>
      <trkpt lat="43.31072" lon="5.68624">
        <ele>802</ele>
        <time>2019-11-29T09:36:27.000Z</time>
      </trkpt>
      <trkpt lat="43.31072" lon="5.68624">
        <ele>802</ele>
        <time>2019-11-29T09:36:28.000Z</time>
      </trkpt>
      <trkpt lat="43.31072" lon="5.68624">
        <ele>802</ele>
        <time>2019-11-29T09:36:29.000Z</time>
      </trkpt>
      <trkpt lat="43.31072" lon="5.68624">
        <ele>802</ele>
        <time>2019-11-29T09:36:30.000Z</time>
      </trkpt>
      <trkpt lat="43.31072" lon="5.68624">
        <ele>802</ele>
        <time>2019-11-29T09:36:31.000Z</time>
      </trkpt>
      <trkpt lat="43.31072" lon="5.68624">
        <ele>802</ele>
        <time>2019-11-29T09:36:32.000Z</time>
      </trkpt>
      <trkpt lat="43.31072" lon="5.68624">
        <ele>802</ele>
        <time>2019-11-29T09:36:33.000Z</time>
      </trkpt>
      <trkpt lat="43.31072" lon="5.68625">
        <ele>802</ele>
        <time>2019-11-29T09:36:34.000Z</time>
      </trkpt>
      <trkpt lat="43.31072" lon="5.68625">
        <ele>802</ele>
        <time>2019-11-29T09:36:35.000Z</time>
      </trkpt>
      <trkpt lat="43.31072" lon="5.68625">
        <ele>802</ele>
        <time>2019-11-29T09:36:36.000Z</time>
      </trkpt>
      <trkpt lat="43.31071" lon="5.68625">
        <ele>801</ele>
        <time>2019-11-29T09:36:37.000Z</time>
      </trkpt>
      <trkpt lat="43.31071" lon="5.68624">
        <ele>801</ele>
        <time>2019-11-29T09:36:38.000Z</time>
      </trkpt>
      <trkpt lat="43.3107" lon="5.68624">
        <ele>801</ele>
        <time>2019-11-29T09:36:39.000Z</time>
      </trkpt>
      <trkpt lat="43.3107" lon="5.68624">
        <ele>801</ele>
        <time>2019-11-29T09:36:40.000Z</time>
      </trkpt>
      <trkpt lat="43.31069" lon="5.68623">
        <ele>801</ele>
        <time>2019-11-29T09:36:41.000Z</time>
      </trkpt>
      <trkpt lat="43.31068" lon="5.68623">
        <ele>801</ele>
        <time>2019-11-29T09:36:42.000Z</time>
      </trkpt>
      <trkpt lat="43.31067" lon="5.68622">
        <ele>801</ele>
        <time>2019-11-29T09:36:43.000Z</time>
      </trkpt>
      <trkpt lat="43.31066" lon="5.68622">
        <ele>801</ele>
        <time>2019-11-29T09:36:44.000Z</time>
      </trkpt>
      <trkpt lat="43.31065" lon="5.68621">
        <ele>801</ele>
        <time>2019-11-29T09:36:45.000Z</time>
      </trkpt>
      <trkpt lat="43.31064" lon="5.6862">
        <ele>801</ele>
        <time>2019-11-29T09:36:46.000Z</time>
      </trkpt>
      <trkpt lat="43.31064" lon="5.6862">
        <ele>801</ele>
        <time>2019-11-29T09:36:47.000Z</time>
      </trkpt>
      <trkpt lat="43.31063" lon="5.68619">
        <ele>800</ele>
        <time>2019-11-29T09:36:48.000Z</time>
      </trkpt>
      <trkpt lat="43.31062" lon="5.68619">
        <ele>800</ele>
        <time>2019-11-29T09:36:49.000Z</time>
      </trkpt>
      <trkpt lat="43.31062" lon="5.68618">
        <ele>800</ele>
        <time>2019-11-29T09:36:50.000Z</time>
      </trkpt>
      <trkpt lat="43.31061" lon="5.68617">
        <ele>800</ele>
        <time>2019-11-29T09:36:51.000Z</time>
      </trkpt>
      <trkpt lat="43.3106" lon="5.68617">
        <ele>800</ele>
        <time>2019-11-29T09:36:52.000Z</time>
      </trkpt>
      <trkpt lat="43.31059" lon="5.68616">
        <ele>800</ele>
        <time>2019-11-29T09:36:53.000Z</time>
      </trkpt>
      <trkpt lat="43.31058" lon="5.68615">
        <ele>800</ele>
        <time>2019-11-29T09:36:54.000Z</time>
      </trkpt>
      <trkpt lat="43.31058" lon="5.68615">
        <ele>799</ele>
        <time>2019-11-29T09:36:55.000Z</time>
      </trkpt>
      <trkpt lat="43.31057" lon="5.68615">
        <ele>799</ele>
        <time>2019-11-29T09:36:56.000Z</time>
      </trkpt>
      <trkpt lat="43.31056" lon="5.68615">
        <ele>799</ele>
        <time>2019-11-29T09:36:57.000Z</time>
      </trkpt>
      <trkpt lat="43.31055" lon="5.68615">
        <ele>799</ele>
        <time>2019-11-29T09:36:58.000Z</time>
      </trkpt>
      <trkpt lat="43.31054" lon="5.68615">
        <ele>799</ele>
        <time>2019-11-29T09:36:59.000Z</time>
      </trkpt>
      <trkpt lat="43.31054" lon="5.68616">
        <ele>799</ele>
        <time>2019-11-29T09:37:00.000Z</time>
      </trkpt>
      <trkpt lat="43.31053" lon="5.68616">
        <ele>799</ele>
        <time>2019-11-29T09:37:01.000Z</time>
      </trkpt>
      <trkpt lat="43.31052" lon="5.68615">
        <ele>799</ele>
        <time>2019-11-29T09:37:02.000Z</time>
      </trkpt>
      <trkpt lat="43.31052" lon="5.68615">
        <ele>799</ele>
        <time>2019-11-29T09:37:03.000Z</time>
      </trkpt>
      <trkpt lat="43.31051" lon="5.68615">
        <ele>798</ele>
        <time>2019-11-29T09:37:04.000Z</time>
      </trkpt>
      <trkpt lat="43.3105" lon="5.68615">
        <ele>798</ele>
        <time>2019-11-29T09:37:05.000Z</time>
      </trkpt>
      <trkpt lat="43.31049" lon="5.68615">
        <ele>798</ele>
        <time>2019-11-29T09:37:06.000Z</time>
      </trkpt>
      <trkpt lat="43.31048" lon="5.68615">
        <ele>798</ele>
        <time>2019-11-29T09:37:07.000Z</time>
      </trkpt>
      <trkpt lat="43.31047" lon="5.68615">
        <ele>798</ele>
        <time>2019-11-29T09:37:08.000Z</time>
      </trkpt>
      <trkpt lat="43.31046" lon="5.68615">
        <ele>798</ele>
        <time>2019-11-29T09:37:09.000Z</time>
      </trkpt>
      <trkpt lat="43.31044" lon="5.68615">
        <ele>798</ele>
        <time>2019-11-29T09:37:10.000Z</time>
      </trkpt>
      <trkpt lat="43.31043" lon="5.68615">
        <ele>798</ele>
        <time>2019-11-29T09:37:11.000Z</time>
      </trkpt>
      <trkpt lat="43.31042" lon="5.68615">
        <ele>798</ele>
        <time>2019-11-29T09:37:12.000Z</time>
      </trkpt>
      <trkpt lat="43.31041" lon="5.68616">
        <ele>798</ele>
        <time>2019-11-29T09:37:13.000Z</time>
      </trkpt>
      <trkpt lat="43.3104" lon="5.68616">
        <ele>798</ele>
        <time>2019-11-29T09:37:14.000Z</time>
      </trkpt>
      <trkpt lat="43.31039" lon="5.68616">
        <ele>798</ele>
        <time>2019-11-29T09:37:15.000Z</time>
      </trkpt>
      <trkpt lat="43.31038" lon="5.68617">
        <ele>798</ele>
        <time>2019-11-29T09:37:16.000Z</time>
      </trkpt>
      <trkpt lat="43.31037" lon="5.68618">
        <ele>798</ele>
        <time>2019-11-29T09:37:17.000Z</time>
      </trkpt>
      <trkpt lat="43.31036" lon="5.68618">
        <ele>798</ele>
        <time>2019-11-29T09:37:18.000Z</time>
      </trkpt>
      <trkpt lat="43.31035" lon="5.68619">
        <ele>798</ele>
        <time>2019-11-29T09:37:19.000Z</time>
      </trkpt>
      <trkpt lat="43.31034" lon="5.68619">
        <ele>798</ele>
        <time>2019-11-29T09:37:20.000Z</time>
      </trkpt>
      <trkpt lat="43.31034" lon="5.6862">
        <ele>798</ele>
        <time>2019-11-29T09:37:21.000Z</time>
      </trkpt>
      <trkpt lat="43.31033" lon="5.6862">
        <ele>798</ele>
        <time>2019-11-29T09:37:22.000Z</time>
      </trkpt>
      <trkpt lat="43.31032" lon="5.68621">
        <ele>798</ele>
        <time>2019-11-29T09:37:23.000Z</time>
      </trkpt>
      <trkpt lat="43.31032" lon="5.68621">
        <ele>798</ele>
        <time>2019-11-29T09:37:24.000Z</time>
      </trkpt>
      <trkpt lat="43.31031" lon="5.68621">
        <ele>798</ele>
        <time>2019-11-29T09:37:25.000Z</time>
      </trkpt>
      <trkpt lat="43.3103" lon="5.68621">
        <ele>798</ele>
        <time>2019-11-29T09:37:26.000Z</time>
      </trkpt>
      <trkpt lat="43.3103" lon="5.68621">
        <ele>798</ele>
        <time>2019-11-29T09:37:27.000Z</time>
      </trkpt>
      <trkpt lat="43.31029" lon="5.68622">
        <ele>797</ele>
        <time>2019-11-29T09:37:28.000Z</time>
      </trkpt>
      <trkpt lat="43.31029" lon="5.68622">
        <ele>797</ele>
        <time>2019-11-29T09:37:29.000Z</time>
      </trkpt>
      <trkpt lat="43.31028" lon="5.68623">
        <ele>797</ele>
        <time>2019-11-29T09:37:30.000Z</time>
      </trkpt>
      <trkpt lat="43.31027" lon="5.68623">
        <ele>797</ele>
        <time>2019-11-29T09:37:31.000Z</time>
      </trkpt>
      <trkpt lat="43.31027" lon="5.68623">
        <ele>797</ele>
        <time>2019-11-29T09:37:32.000Z</time>
      </trkpt>
      <trkpt lat="43.31026" lon="5.68623">
        <ele>797</ele>
        <time>2019-11-29T09:37:33.000Z</time>
      </trkpt>
      <trkpt lat="43.31026" lon="5.68624">
        <ele>797</ele>
        <time>2019-11-29T09:37:34.000Z</time>
      </trkpt>
      <trkpt lat="43.31025" lon="5.68624">
        <ele>797</ele>
        <time>2019-11-29T09:37:35.000Z</time>
      </trkpt>
      <trkpt lat="43.31024" lon="5.68624">
        <ele>797</ele>
        <time>2019-11-29T09:37:36.000Z</time>
      </trkpt>
      <trkpt lat="43.31024" lon="5.68624">
        <ele>797</ele>
        <time>2019-11-29T09:37:37.000Z</time>
      </trkpt>
      <trkpt lat="43.31023" lon="5.68623">
        <ele>797</ele>
        <time>2019-11-29T09:37:38.000Z</time>
      </trkpt>
      <trkpt lat="43.31022" lon="5.68623">
        <ele>797</ele>
        <time>2019-11-29T09:37:39.000Z</time>
      </trkpt>
      <trkpt lat="43.31022" lon="5.68623">
        <ele>797</ele>
        <time>2019-11-29T09:37:40.000Z</time>
      </trkpt>
      <trkpt lat="43.3102" lon="5.68623">
        <ele>797</ele>
        <time>2019-11-29T09:37:41.000Z</time>
      </trkpt>
      <trkpt lat="43.31019" lon="5.68623">
        <ele>797</ele>
        <time>2019-11-29T09:37:42.000Z</time>
      </trkpt>
      <trkpt lat="43.31018" lon="5.68622">
        <ele>797</ele>
        <time>2019-11-29T09:37:43.000Z</time>
      </trkpt>
      <trkpt lat="43.31017" lon="5.68622">
        <ele>797</ele>
        <time>2019-11-29T09:37:44.000Z</time>
      </trkpt>
      <trkpt lat="43.31016" lon="5.68621">
        <ele>797</ele>
        <time>2019-11-29T09:37:45.000Z</time>
      </trkpt>
      <trkpt lat="43.31015" lon="5.68621">
        <ele>797</ele>
        <time>2019-11-29T09:37:46.000Z</time>
      </trkpt>
      <trkpt lat="43.31014" lon="5.68621">
        <ele>797</ele>
        <time>2019-11-29T09:37:47.000Z</time>
      </trkpt>
      <trkpt lat="43.31013" lon="5.68622">
        <ele>798</ele>
        <time>2019-11-29T09:37:48.000Z</time>
      </trkpt>
      <trkpt lat="43.31012" lon="5.68622">
        <ele>798</ele>
        <time>2019-11-29T09:37:49.000Z</time>
      </trkpt>
      <trkpt lat="43.31011" lon="5.68623">
        <ele>798</ele>
        <time>2019-11-29T09:37:50.000Z</time>
      </trkpt>
      <trkpt lat="43.3101" lon="5.68623">
        <ele>798</ele>
        <time>2019-11-29T09:37:51.000Z</time>
      </trkpt>
      <trkpt lat="43.31009" lon="5.68623">
        <ele>798</ele>
        <time>2019-11-29T09:37:52.000Z</time>
      </trkpt>
      <trkpt lat="43.31008" lon="5.68623">
        <ele>798</ele>
        <time>2019-11-29T09:37:53.000Z</time>
      </trkpt>
      <trkpt lat="43.31007" lon="5.68623">
        <ele>798</ele>
        <time>2019-11-29T09:37:54.000Z</time>
      </trkpt>
      <trkpt lat="43.31007" lon="5.68624">
        <ele>799</ele>
        <time>2019-11-29T09:37:55.000Z</time>
      </trkpt>
      <trkpt lat="43.31007" lon="5.68625">
        <ele>799</ele>
        <time>2019-11-29T09:37:56.000Z</time>
      </trkpt>
      <trkpt lat="43.31006" lon="5.68625">
        <ele>799</ele>
        <time>2019-11-29T09:37:57.000Z</time>
      </trkpt>
      <trkpt lat="43.31006" lon="5.68626">
        <ele>799</ele>
        <time>2019-11-29T09:37:58.000Z</time>
      </trkpt>
      <trkpt lat="43.31005" lon="5.68627">
        <ele>799</ele>
        <time>2019-11-29T09:37:59.000Z</time>
      </trkpt>
      <trkpt lat="43.31004" lon="5.68628">
        <ele>799</ele>
        <time>2019-11-29T09:38:00.000Z</time>
      </trkpt>
      <trkpt lat="43.31004" lon="5.68628">
        <ele>800</ele>
        <time>2019-11-29T09:38:01.000Z</time>
      </trkpt>
      <trkpt lat="43.31003" lon="5.68629">
        <ele>800</ele>
        <time>2019-11-29T09:38:02.000Z</time>
      </trkpt>
      <trkpt lat="43.31001" lon="5.68629">
        <ele>800</ele>
        <time>2019-11-29T09:38:03.000Z</time>
      </trkpt>
      <trkpt lat="43.31" lon="5.6863">
        <ele>800</ele>
        <time>2019-11-29T09:38:04.000Z</time>
      </trkpt>
      <trkpt lat="43.30999" lon="5.6863">
        <ele>800</ele>
        <time>2019-11-29T09:38:05.000Z</time>
      </trkpt>
      <trkpt lat="43.30998" lon="5.68631">
        <ele>800</ele>
        <time>2019-11-29T09:38:06.000Z</time>
      </trkpt>
      <trkpt lat="43.30997" lon="5.68631">
        <ele>800</ele>
        <time>2019-11-29T09:38:07.000Z</time>
      </trkpt>
      <trkpt lat="43.30996" lon="5.68631">
        <ele>800</ele>
        <time>2019-11-29T09:38:08.000Z</time>
      </trkpt>
      <trkpt lat="43.30996" lon="5.68632">
        <ele>800</ele>
        <time>2019-11-29T09:38:09.000Z</time>
      </trkpt>
      <trkpt lat="43.30995" lon="5.68632">
        <ele>800</ele>
        <time>2019-11-29T09:38:10.000Z</time>
      </trkpt>
      <trkpt lat="43.30995" lon="5.68633">
        <ele>800</ele>
        <time>2019-11-29T09:38:11.000Z</time>
      </trkpt>
      <trkpt lat="43.30994" lon="5.68634">
        <ele>800</ele>
        <time>2019-11-29T09:38:12.000Z</time>
      </trkpt>
      <trkpt lat="43.30994" lon="5.68634">
        <ele>800</ele>
        <time>2019-11-29T09:38:13.000Z</time>
      </trkpt>
      <trkpt lat="43.30993" lon="5.68635">
        <ele>801</ele>
        <time>2019-11-29T09:38:14.000Z</time>
      </trkpt>
      <trkpt lat="43.30993" lon="5.68635">
        <ele>801</ele>
        <time>2019-11-29T09:38:15.000Z</time>
      </trkpt>
      <trkpt lat="43.30992" lon="5.68635">
        <ele>801</ele>
        <time>2019-11-29T09:38:16.000Z</time>
      </trkpt>
      <trkpt lat="43.30991" lon="5.68636">
        <ele>801</ele>
        <time>2019-11-29T09:38:17.000Z</time>
      </trkpt>
      <trkpt lat="43.3099" lon="5.68636">
        <ele>801</ele>
        <time>2019-11-29T09:38:18.000Z</time>
      </trkpt>
      <trkpt lat="43.3099" lon="5.68637">
        <ele>801</ele>
        <time>2019-11-29T09:38:19.000Z</time>
      </trkpt>
      <trkpt lat="43.30989" lon="5.68638">
        <ele>802</ele>
        <time>2019-11-29T09:38:20.000Z</time>
      </trkpt>
      <trkpt lat="43.30988" lon="5.68638">
        <ele>802</ele>
        <time>2019-11-29T09:38:21.000Z</time>
      </trkpt>
      <trkpt lat="43.30987" lon="5.68638">
        <ele>802</ele>
        <time>2019-11-29T09:38:22.000Z</time>
      </trkpt>
      <trkpt lat="43.30986" lon="5.68638">
        <ele>802</ele>
        <time>2019-11-29T09:38:23.000Z</time>
      </trkpt>
      <trkpt lat="43.30985" lon="5.68638">
        <ele>802</ele>
        <time>2019-11-29T09:38:24.000Z</time>
      </trkpt>
      <trkpt lat="43.30984" lon="5.68639">
        <ele>802</ele>
        <time>2019-11-29T09:38:25.000Z</time>
      </trkpt>
      <trkpt lat="43.30983" lon="5.68639">
        <ele>802</ele>
        <time>2019-11-29T09:38:26.000Z</time>
      </trkpt>
      <trkpt lat="43.30982" lon="5.68639">
        <ele>802</ele>
        <time>2019-11-29T09:38:27.000Z</time>
      </trkpt>
      <trkpt lat="43.30981" lon="5.6864">
        <ele>802</ele>
        <time>2019-11-29T09:38:28.000Z</time>
      </trkpt>
      <trkpt lat="43.3098" lon="5.6864">
        <ele>802</ele>
        <time>2019-11-29T09:38:29.000Z</time>
      </trkpt>
      <trkpt lat="43.30979" lon="5.6864">
        <ele>802</ele>
        <time>2019-11-29T09:38:30.000Z</time>
      </trkpt>
      <trkpt lat="43.30978" lon="5.6864">
        <ele>802</ele>
        <time>2019-11-29T09:38:31.000Z</time>
      </trkpt>
      <trkpt lat="43.30977" lon="5.68641">
        <ele>802</ele>
        <time>2019-11-29T09:38:32.000Z</time>
      </trkpt>
      <trkpt lat="43.30976" lon="5.68641">
        <ele>802</ele>
        <time>2019-11-29T09:38:33.000Z</time>
      </trkpt>
      <trkpt lat="43.30975" lon="5.68642">
        <ele>802</ele>
        <time>2019-11-29T09:38:34.000Z</time>
      </trkpt>
      <trkpt lat="43.30974" lon="5.68643">
        <ele>801</ele>
        <time>2019-11-29T09:38:35.000Z</time>
      </trkpt>
      <trkpt lat="43.30973" lon="5.68644">
        <ele>801</ele>
        <time>2019-11-29T09:38:36.000Z</time>
      </trkpt>
      <trkpt lat="43.30972" lon="5.68645">
        <ele>801</ele>
        <time>2019-11-29T09:38:37.000Z</time>
      </trkpt>
      <trkpt lat="43.3097" lon="5.68646">
        <ele>801</ele>
        <time>2019-11-29T09:38:38.000Z</time>
      </trkpt>
      <trkpt lat="43.30969" lon="5.68646">
        <ele>800</ele>
        <time>2019-11-29T09:38:39.000Z</time>
      </trkpt>
      <trkpt lat="43.30968" lon="5.68647">
        <ele>800</ele>
        <time>2019-11-29T09:38:40.000Z</time>
      </trkpt>
      <trkpt lat="43.30967" lon="5.68648">
        <ele>800</ele>
        <time>2019-11-29T09:38:41.000Z</time>
      </trkpt>
      <trkpt lat="43.30966" lon="5.68649">
        <ele>800</ele>
        <time>2019-11-29T09:38:42.000Z</time>
      </trkpt>
      <trkpt lat="43.30965" lon="5.6865">
        <ele>799</ele>
        <time>2019-11-29T09:38:43.000Z</time>
      </trkpt>
      <trkpt lat="43.30964" lon="5.68651">
        <ele>799</ele>
        <time>2019-11-29T09:38:44.000Z</time>
      </trkpt>
      <trkpt lat="43.30963" lon="5.68652">
        <ele>799</ele>
        <time>2019-11-29T09:38:45.000Z</time>
      </trkpt>
      <trkpt lat="43.30962" lon="5.68653">
        <ele>799</ele>
        <time>2019-11-29T09:38:46.000Z</time>
      </trkpt>
      <trkpt lat="43.30962" lon="5.68654">
        <ele>799</ele>
        <time>2019-11-29T09:38:47.000Z</time>
      </trkpt>
      <trkpt lat="43.30961" lon="5.68655">
        <ele>799</ele>
        <time>2019-11-29T09:38:48.000Z</time>
      </trkpt>
      <trkpt lat="43.3096" lon="5.68655">
        <ele>799</ele>
        <time>2019-11-29T09:38:49.000Z</time>
      </trkpt>
      <trkpt lat="43.30959" lon="5.68656">
        <ele>799</ele>
        <time>2019-11-29T09:38:50.000Z</time>
      </trkpt>
      <trkpt lat="43.30957" lon="5.68656">
        <ele>798</ele>
        <time>2019-11-29T09:38:51.000Z</time>
      </trkpt>
      <trkpt lat="43.30956" lon="5.68656">
        <ele>798</ele>
        <time>2019-11-29T09:38:52.000Z</time>
      </trkpt>
      <trkpt lat="43.30954" lon="5.68656">
        <ele>798</ele>
        <time>2019-11-29T09:38:53.000Z</time>
      </trkpt>
      <trkpt lat="43.30953" lon="5.68657">
        <ele>798</ele>
        <time>2019-11-29T09:38:54.000Z</time>
      </trkpt>
      <trkpt lat="43.30952" lon="5.68658">
        <ele>798</ele>
        <time>2019-11-29T09:38:55.000Z</time>
      </trkpt>
      <trkpt lat="43.30952" lon="5.68659">
        <ele>798</ele>
        <time>2019-11-29T09:38:56.000Z</time>
      </trkpt>
      <trkpt lat="43.3095" lon="5.6866">
        <ele>798</ele>
        <time>2019-11-29T09:38:57.000Z</time>
      </trkpt>
      <trkpt lat="43.30949" lon="5.6866">
        <ele>798</ele>
        <time>2019-11-29T09:38:58.000Z</time>
      </trkpt>
      <trkpt lat="43.30948" lon="5.68661">
        <ele>799</ele>
        <time>2019-11-29T09:38:59.000Z</time>
      </trkpt>
      <trkpt lat="43.30947" lon="5.68661">
        <ele>799</ele>
        <time>2019-11-29T09:39:00.000Z</time>
      </trkpt>
      <trkpt lat="43.30945" lon="5.68661">
        <ele>799</ele>
        <time>2019-11-29T09:39:01.000Z</time>
      </trkpt>
      <trkpt lat="43.30944" lon="5.68661">
        <ele>799</ele>
        <time>2019-11-29T09:39:02.000Z</time>
      </trkpt>
      <trkpt lat="43.30943" lon="5.68662">
        <ele>799</ele>
        <time>2019-11-29T09:39:03.000Z</time>
      </trkpt>
      <trkpt lat="43.30943" lon="5.68662">
        <ele>798</ele>
        <time>2019-11-29T09:39:04.000Z</time>
      </trkpt>
      <trkpt lat="43.30942" lon="5.68662">
        <ele>798</ele>
        <time>2019-11-29T09:39:05.000Z</time>
      </trkpt>
      <trkpt lat="43.30942" lon="5.68662">
        <ele>798</ele>
        <time>2019-11-29T09:39:06.000Z</time>
      </trkpt>
      <trkpt lat="43.30941" lon="5.68662">
        <ele>798</ele>
        <time>2019-11-29T09:39:07.000Z</time>
      </trkpt>
      <trkpt lat="43.3094" lon="5.68662">
        <ele>798</ele>
        <time>2019-11-29T09:39:08.000Z</time>
      </trkpt>
      <trkpt lat="43.30939" lon="5.68662">
        <ele>798</ele>
        <time>2019-11-29T09:39:09.000Z</time>
      </trkpt>
      <trkpt lat="43.30939" lon="5.68662">
        <ele>798</ele>
        <time>2019-11-29T09:39:10.000Z</time>
      </trkpt>
      <trkpt lat="43.30939" lon="5.68662">
        <ele>798</ele>
        <time>2019-11-29T09:39:11.000Z</time>
      </trkpt>
      <trkpt lat="43.30938" lon="5.68662">
        <ele>798</ele>
        <time>2019-11-29T09:39:12.000Z</time>
      </trkpt>
      <trkpt lat="43.30938" lon="5.68662">
        <ele>799</ele>
        <time>2019-11-29T09:39:13.000Z</time>
      </trkpt>
      <trkpt lat="43.30938" lon="5.68662">
        <ele>799</ele>
        <time>2019-11-29T09:39:14.000Z</time>
      </trkpt>
      <trkpt lat="43.30938" lon="5.68662">
        <ele>799</ele>
        <time>2019-11-29T09:39:15.000Z</time>
      </trkpt>
      <trkpt lat="43.30938" lon="5.68662">
        <ele>799</ele>
        <time>2019-11-29T09:39:16.000Z</time>
      </trkpt>
      <trkpt lat="43.30938" lon="5.68662">
        <ele>799</ele>
        <time>2019-11-29T09:39:17.000Z</time>
      </trkpt>
      <trkpt lat="43.30938" lon="5.68662">
        <ele>799</ele>
        <time>2019-11-29T09:39:18.000Z</time>
      </trkpt>
      <trkpt lat="43.30938" lon="5.68662">
        <ele>799</ele>
        <time>2019-11-29T09:39:19.000Z</time>
      </trkpt>
      <trkpt lat="43.30938" lon="5.68662">
        <ele>799</ele>
        <time>2019-11-29T09:39:20.000Z</time>
      </trkpt>
      <trkpt lat="43.30938" lon="5.68662">
        <ele>799</ele>
        <time>2019-11-29T09:39:21.000Z</time>
      </trkpt>
      <trkpt lat="43.30938" lon="5.68662">
        <ele>799</ele>
        <time>2019-11-29T09:39:22.000Z</time>
      </trkpt>
      <trkpt lat="43.30938" lon="5.68662">
        <ele>799</ele>
        <time>2019-11-29T09:39:23.000Z</time>
      </trkpt>
      <trkpt lat="43.30938" lon="5.68662">
        <ele>799</ele>
        <time>2019-11-29T09:39:24.000Z</time>
      </trkpt>
      <trkpt lat="43.30938" lon="5.68662">
        <ele>799</ele>
        <time>2019-11-29T09:39:25.000Z</time>
      </trkpt>
      <trkpt lat="43.30938" lon="5.68662">
        <ele>799</ele>
        <time>2019-11-29T09:39:26.000Z</time>
      </trkpt>
      <trkpt lat="43.30938" lon="5.68662">
        <ele>799</ele>
        <time>2019-11-29T09:39:27.000Z</time>
      </trkpt>
      <trkpt lat="43.30938" lon="5.68662">
        <ele>799</ele>
        <time>2019-11-29T09:39:28.000Z</time>
      </trkpt>
      <trkpt lat="43.30938" lon="5.68662">
        <ele>799</ele>
        <time>2019-11-29T09:39:29.000Z</time>
      </trkpt>
      <trkpt lat="43.30938" lon="5.68662">
        <ele>799</ele>
        <time>2019-11-29T09:39:30.000Z</time>
      </trkpt>
      <trkpt lat="43.30938" lon="5.68662">
        <ele>799</ele>
        <time>2019-11-29T09:39:31.000Z</time>
      </trkpt>
      <trkpt lat="43.30938" lon="5.68662">
        <ele>799</ele>
        <time>2019-11-29T09:39:32.000Z</time>
      </trkpt>
      <trkpt lat="43.30938" lon="5.68662">
        <ele>799</ele>
        <time>2019-11-29T09:39:33.000Z</time>
      </trkpt>
      <trkpt lat="43.30938" lon="5.68662">
        <ele>799</ele>
        <time>2019-11-29T09:39:34.000Z</time>
      </trkpt>
      <trkpt lat="43.30938" lon="5.68662">
        <ele>799</ele>
        <time>2019-11-29T09:39:35.000Z</time>
      </trkpt>
      <trkpt lat="43.30938" lon="5.68662">
        <ele>799</ele>
        <time>2019-11-29T09:39:36.000Z</time>
      </trkpt>
      <trkpt lat="43.30938" lon="5.68662">
        <ele>799</ele>
        <time>2019-11-29T09:39:37.000Z</time>
      </trkpt>
      <trkpt lat="43.30938" lon="5.68662">
        <ele>799</ele>
        <time>2019-11-29T09:39:38.000Z</time>
      </trkpt>
      <trkpt lat="43.30938" lon="5.68662">
        <ele>799</ele>
        <time>2019-11-29T09:39:39.000Z</time>
      </trkpt>
      <trkpt lat="43.30938" lon="5.68662">
        <ele>799</ele>
        <time>2019-11-29T09:39:40.000Z</time>
      </trkpt>
      <trkpt lat="43.30938" lon="5.68662">
        <ele>799</ele>
        <time>2019-11-29T09:39:41.000Z</time>
      </trkpt>
      <trkpt lat="43.30938" lon="5.68662">
        <ele>799</ele>
        <time>2019-11-29T09:39:42.000Z</time>
      </trkpt>
      <trkpt lat="43.30938" lon="5.68662">
        <ele>799</ele>
        <time>2019-11-29T09:39:43.000Z</time>
      </trkpt>
      <trkpt lat="43.30938" lon="5.68662">
        <ele>799</ele>
        <time>2019-11-29T09:39:44.000Z</time>
      </trkpt>
      <trkpt lat="43.30938" lon="5.68662">
        <ele>799</ele>
        <time>2019-11-29T09:39:45.000Z</time>
      </trkpt>
      <trkpt lat="43.30938" lon="5.68662">
        <ele>799</ele>
        <time>2019-11-29T09:39:46.000Z</time>
      </trkpt>
      <trkpt lat="43.30938" lon="5.68662">
        <ele>799</ele>
        <time>2019-11-29T09:39:47.000Z</time>
      </trkpt>
      <trkpt lat="43.30938" lon="5.68662">
        <ele>799</ele>
        <time>2019-11-29T09:39:48.000Z</time>
      </trkpt>
      <trkpt lat="43.30938" lon="5.68662">
        <ele>799</ele>
        <time>2019-11-29T09:39:49.000Z</time>
      </trkpt>
      <trkpt lat="43.30937" lon="5.68662">
        <ele>799</ele>
        <time>2019-11-29T09:39:50.000Z</time>
      </trkpt>
      <trkpt lat="43.30937" lon="5.68662">
        <ele>799</ele>
        <time>2019-11-29T09:39:51.000Z</time>
      </trkpt>
      <trkpt lat="43.30937" lon="5.68662">
        <ele>799</ele>
        <time>2019-11-29T09:39:52.000Z</time>
      </trkpt>
      <trkpt lat="43.30937" lon="5.68662">
        <ele>799</ele>
        <time>2019-11-29T09:39:53.000Z</time>
      </trkpt>
      <trkpt lat="43.30937" lon="5.68662">
        <ele>799</ele>
        <time>2019-11-29T09:39:54.000Z</time>
      </trkpt>
      <trkpt lat="43.30937" lon="5.68662">
        <ele>799</ele>
        <time>2019-11-29T09:39:55.000Z</time>
      </trkpt>
      <trkpt lat="43.30937" lon="5.68662">
        <ele>799</ele>
        <time>2019-11-29T09:39:56.000Z</time>
      </trkpt>
      <trkpt lat="43.30937" lon="5.68662">
        <ele>799</ele>
        <time>2019-11-29T09:39:57.000Z</time>
      </trkpt>
      <trkpt lat="43.30937" lon="5.68662">
        <ele>799</ele>
        <time>2019-11-29T09:39:58.000Z</time>
      </trkpt>
      <trkpt lat="43.30937" lon="5.68662">
        <ele>799</ele>
        <time>2019-11-29T09:39:59.000Z</time>
      </trkpt>
      <trkpt lat="43.30937" lon="5.68662">
        <ele>799</ele>
        <time>2019-11-29T09:40:00.000Z</time>
      </trkpt>
      <trkpt lat="43.30937" lon="5.68662">
        <ele>799</ele>
        <time>2019-11-29T09:40:01.000Z</time>
      </trkpt>
      <trkpt lat="43.30937" lon="5.68662">
        <ele>799</ele>
        <time>2019-11-29T09:40:02.000Z</time>
      </trkpt>
      <trkpt lat="43.30937" lon="5.68662">
        <ele>799</ele>
        <time>2019-11-29T09:40:03.000Z</time>
      </trkpt>
      <trkpt lat="43.30937" lon="5.68662">
        <ele>799</ele>
        <time>2019-11-29T09:40:04.000Z</time>
      </trkpt>
      <trkpt lat="43.30937" lon="5.68662">
        <ele>799</ele>
        <time>2019-11-29T09:40:05.000Z</time>
      </trkpt>
      <trkpt lat="43.30937" lon="5.68662">
        <ele>799</ele>
        <time>2019-11-29T09:40:06.000Z</time>
      </trkpt>
      <trkpt lat="43.30937" lon="5.68662">
        <ele>799</ele>
        <time>2019-11-29T09:40:07.000Z</time>
      </trkpt>
      <trkpt lat="43.30937" lon="5.68662">
        <ele>799</ele>
        <time>2019-11-29T09:40:08.000Z</time>
      </trkpt>
      <trkpt lat="43.30937" lon="5.68662">
        <ele>799</ele>
        <time>2019-11-29T09:40:09.000Z</time>
      </trkpt>
      <trkpt lat="43.30937" lon="5.68662">
        <ele>799</ele>
        <time>2019-11-29T09:40:10.000Z</time>
      </trkpt>
      <trkpt lat="43.30937" lon="5.68662">
        <ele>799</ele>
        <time>2019-11-29T09:40:11.000Z</time>
      </trkpt>
      <trkpt lat="43.30937" lon="5.68662">
        <ele>799</ele>
        <time>2019-11-29T09:40:12.000Z</time>
      </trkpt>
      <trkpt lat="43.30937" lon="5.68662">
        <ele>799</ele>
        <time>2019-11-29T09:40:13.000Z</time>
      </trkpt>
      <trkpt lat="43.30937" lon="5.68662">
        <ele>799</ele>
        <time>2019-11-29T09:40:14.000Z</time>
      </trkpt>
      <trkpt lat="43.30937" lon="5.68662">
        <ele>799</ele>
        <time>2019-11-29T09:40:15.000Z</time>
      </trkpt>
      <trkpt lat="43.30937" lon="5.68662">
        <ele>799</ele>
        <time>2019-11-29T09:40:16.000Z</time>
      </trkpt>
      <trkpt lat="43.30937" lon="5.68662">
        <ele>799</ele>
        <time>2019-11-29T09:40:17.000Z</time>
      </trkpt>
      <trkpt lat="43.30937" lon="5.68662">
        <ele>799</ele>
        <time>2019-11-29T09:40:18.000Z</time>
      </trkpt>
      <trkpt lat="43.30937" lon="5.68662">
        <ele>799</ele>
        <time>2019-11-29T09:40:19.000Z</time>
      </trkpt>
      <trkpt lat="43.30937" lon="5.68662">
        <ele>799</ele>
        <time>2019-11-29T09:40:20.000Z</time>
      </trkpt>
      <trkpt lat="43.30937" lon="5.68662">
        <ele>799</ele>
        <time>2019-11-29T09:40:21.000Z</time>
      </trkpt>
      <trkpt lat="43.30937" lon="5.68662">
        <ele>799</ele>
        <time>2019-11-29T09:40:22.000Z</time>
      </trkpt>
      <trkpt lat="43.30937" lon="5.68662">
        <ele>799</ele>
        <time>2019-11-29T09:40:23.000Z</time>
      </trkpt>
      <trkpt lat="43.30937" lon="5.68662">
        <ele>799</ele>
        <time>2019-11-29T09:40:24.000Z</time>
      </trkpt>
      <trkpt lat="43.30937" lon="5.68662">
        <ele>799</ele>
        <time>2019-11-29T09:40:25.000Z</time>
      </trkpt>
      <trkpt lat="43.30937" lon="5.68662">
        <ele>799</ele>
        <time>2019-11-29T09:40:26.000Z</time>
      </trkpt>
      <trkpt lat="43.30937" lon="5.68662">
        <ele>799</ele>
        <time>2019-11-29T09:40:27.000Z</time>
      </trkpt>
      <trkpt lat="43.30937" lon="5.68662">
        <ele>799</ele>
        <time>2019-11-29T09:40:28.000Z</time>
      </trkpt>
      <trkpt lat="43.30937" lon="5.68662">
        <ele>799</ele>
        <time>2019-11-29T09:40:29.000Z</time>
      </trkpt>
      <trkpt lat="43.30937" lon="5.68662">
        <ele>799</ele>
        <time>2019-11-29T09:40:30.000Z</time>
      </trkpt>
      <trkpt lat="43.30937" lon="5.68662">
        <ele>799</ele>
        <time>2019-11-29T09:40:31.000Z</time>
      </trkpt>
      <trkpt lat="43.30937" lon="5.68662">
        <ele>799</ele>
        <time>2019-11-29T09:40:32.000Z</time>
      </trkpt>
      <trkpt lat="43.30937" lon="5.68662">
        <ele>799</ele>
        <time>2019-11-29T09:40:33.000Z</time>
      </trkpt>
      <trkpt lat="43.30937" lon="5.68662">
        <ele>799</ele>
        <time>2019-11-29T09:40:34.000Z</time>
      </trkpt>
      <trkpt lat="43.30937" lon="5.68662">
        <ele>799</ele>
        <time>2019-11-29T09:40:35.000Z</time>
      </trkpt>
      <trkpt lat="43.30937" lon="5.68662">
        <ele>799</ele>
        <time>2019-11-29T09:40:36.000Z</time>
      </trkpt>
      <trkpt lat="43.30938" lon="5.68662">
        <ele>799</ele>
        <time>2019-11-29T09:40:37.000Z</time>
      </trkpt>
      <trkpt lat="43.30938" lon="5.68662">
        <ele>799</ele>
        <time>2019-11-29T09:40:38.000Z</time>
      </trkpt>
      <trkpt lat="43.30938" lon="5.68662">
        <ele>799</ele>
        <time>2019-11-29T09:40:39.000Z</time>
      </trkpt>
      <trkpt lat="43.30938" lon="5.68662">
        <ele>799</ele>
        <time>2019-11-29T09:40:40.000Z</time>
      </trkpt>
      <trkpt lat="43.30938" lon="5.68662">
        <ele>799</ele>
        <time>2019-11-29T09:40:41.000Z</time>
      </trkpt>
      <trkpt lat="43.30938" lon="5.68662">
        <ele>799</ele>
        <time>2019-11-29T09:40:42.000Z</time>
      </trkpt>
      <trkpt lat="43.30938" lon="5.68662">
        <ele>799</ele>
        <time>2019-11-29T09:40:43.000Z</time>
      </trkpt>
      <trkpt lat="43.30937" lon="5.68662">
        <ele>799</ele>
        <time>2019-11-29T09:40:44.000Z</time>
      </trkpt>
      <trkpt lat="43.30937" lon="5.68662">
        <ele>799</ele>
        <time>2019-11-29T09:40:45.000Z</time>
      </trkpt>
      <trkpt lat="43.30937" lon="5.68662">
        <ele>799</ele>
        <time>2019-11-29T09:40:46.000Z</time>
      </trkpt>
      <trkpt lat="43.30937" lon="5.68662">
        <ele>799</ele>
        <time>2019-11-29T09:40:47.000Z</time>
      </trkpt>
      <trkpt lat="43.30938" lon="5.68662">
        <ele>799</ele>
        <time>2019-11-29T09:40:48.000Z</time>
      </trkpt>
      <trkpt lat="43.30938" lon="5.68662">
        <ele>799</ele>
        <time>2019-11-29T09:40:49.000Z</time>
      </trkpt>
      <trkpt lat="43.30938" lon="5.68662">
        <ele>799</ele>
        <time>2019-11-29T09:40:50.000Z</time>
      </trkpt>
      <trkpt lat="43.30937" lon="5.68662">
        <ele>799</ele>
        <time>2019-11-29T09:40:51.000Z</time>
      </trkpt>
      <trkpt lat="43.30937" lon="5.68662">
        <ele>799</ele>
        <time>2019-11-29T09:40:52.000Z</time>
      </trkpt>
      <trkpt lat="43.30937" lon="5.68662">
        <ele>799</ele>
        <time>2019-11-29T09:40:53.000Z</time>
      </trkpt>
      <trkpt lat="43.30937" lon="5.68662">
        <ele>799</ele>
        <time>2019-11-29T09:40:54.000Z</time>
      </trkpt>
      <trkpt lat="43.30937" lon="5.68662">
        <ele>799</ele>
        <time>2019-11-29T09:40:55.000Z</time>
      </trkpt>
      <trkpt lat="43.30937" lon="5.68662">
        <ele>799</ele>
        <time>2019-11-29T09:40:56.000Z</time>
      </trkpt>
      <trkpt lat="43.30937" lon="5.68662">
        <ele>799</ele>
        <time>2019-11-29T09:40:57.000Z</time>
      </trkpt>
      <trkpt lat="43.30938" lon="5.68663">
        <ele>799</ele>
        <time>2019-11-29T09:40:58.000Z</time>
      </trkpt>
      <trkpt lat="43.30938" lon="5.68662">
        <ele>799</ele>
        <time>2019-11-29T09:40:59.000Z</time>
      </trkpt>
      <trkpt lat="43.30938" lon="5.68662">
        <ele>799</ele>
        <time>2019-11-29T09:41:00.000Z</time>
      </trkpt>
      <trkpt lat="43.30937" lon="5.68662">
        <ele>800</ele>
        <time>2019-11-29T09:41:01.000Z</time>
      </trkpt>
      <trkpt lat="43.30937" lon="5.68662">
        <ele>800</ele>
        <time>2019-11-29T09:41:02.000Z</time>
      </trkpt>
      <trkpt lat="43.30937" lon="5.68662">
        <ele>800</ele>
        <time>2019-11-29T09:41:03.000Z</time>
      </trkpt>
      <trkpt lat="43.30937" lon="5.68662">
        <ele>800</ele>
        <time>2019-11-29T09:41:04.000Z</time>
      </trkpt>
      <trkpt lat="43.30937" lon="5.68662">
        <ele>800</ele>
        <time>2019-11-29T09:41:05.000Z</time>
      </trkpt>
      <trkpt lat="43.30937" lon="5.68662">
        <ele>800</ele>
        <time>2019-11-29T09:41:06.000Z</time>
      </trkpt>
      <trkpt lat="43.30937" lon="5.68662">
        <ele>800</ele>
        <time>2019-11-29T09:41:07.000Z</time>
      </trkpt>
      <trkpt lat="43.30937" lon="5.68662">
        <ele>800</ele>
        <time>2019-11-29T09:41:08.000Z</time>
      </trkpt>
      <trkpt lat="43.30937" lon="5.68662">
        <ele>800</ele>
        <time>2019-11-29T09:41:09.000Z</time>
      </trkpt>
      <trkpt lat="43.30937" lon="5.68662">
        <ele>800</ele>
        <time>2019-11-29T09:41:10.000Z</time>
      </trkpt>
      <trkpt lat="43.30937" lon="5.68662">
        <ele>800</ele>
        <time>2019-11-29T09:41:11.000Z</time>
      </trkpt>
      <trkpt lat="43.30937" lon="5.68662">
        <ele>800</ele>
        <time>2019-11-29T09:41:12.000Z</time>
      </trkpt>
      <trkpt lat="43.30938" lon="5.68662">
        <ele>800</ele>
        <time>2019-11-29T09:41:13.000Z</time>
      </trkpt>
      <trkpt lat="43.30938" lon="5.68662">
        <ele>800</ele>
        <time>2019-11-29T09:41:14.000Z</time>
      </trkpt>
      <trkpt lat="43.30938" lon="5.68662">
        <ele>800</ele>
        <time>2019-11-29T09:41:15.000Z</time>
      </trkpt>
      <trkpt lat="43.30937" lon="5.68662">
        <ele>800</ele>
        <time>2019-11-29T09:41:16.000Z</time>
      </trkpt>
      <trkpt lat="43.30937" lon="5.68662">
        <ele>800</ele>
        <time>2019-11-29T09:41:17.000Z</time>
      </trkpt>
      <trkpt lat="43.30937" lon="5.68662">
        <ele>800</ele>
        <time>2019-11-29T09:41:18.000Z</time>
      </trkpt>
      <trkpt lat="43.30937" lon="5.68662">
        <ele>800</ele>
        <time>2019-11-29T09:41:19.000Z</time>
      </trkpt>
      <trkpt lat="43.30937" lon="5.68662">
        <ele>800</ele>
        <time>2019-11-29T09:41:20.000Z</time>
      </trkpt>
      <trkpt lat="43.30937" lon="5.68662">
        <ele>800</ele>
        <time>2019-11-29T09:41:21.000Z</time>
      </trkpt>
      <trkpt lat="43.30938" lon="5.68662">
        <ele>800</ele>
        <time>2019-11-29T09:41:22.000Z</time>
      </trkpt>
      <trkpt lat="43.30938" lon="5.68662">
        <ele>800</ele>
        <time>2019-11-29T09:41:23.000Z</time>
      </trkpt>
      <trkpt lat="43.30938" lon="5.68663">
        <ele>800</ele>
        <time>2019-11-29T09:41:24.000Z</time>
      </trkpt>
      <trkpt lat="43.30938" lon="5.68663">
        <ele>800</ele>
        <time>2019-11-29T09:41:25.000Z</time>
      </trkpt>
      <trkpt lat="43.30938" lon="5.68663">
        <ele>800</ele>
        <time>2019-11-29T09:41:26.000Z</time>
      </trkpt>
      <trkpt lat="43.30938" lon="5.68663">
        <ele>800</ele>
        <time>2019-11-29T09:41:27.000Z</time>
      </trkpt>
      <trkpt lat="43.30938" lon="5.68663">
        <ele>800</ele>
        <time>2019-11-29T09:41:28.000Z</time>
      </trkpt>
      <trkpt lat="43.30938" lon="5.68663">
        <ele>800</ele>
        <time>2019-11-29T09:41:29.000Z</time>
      </trkpt>
      <trkpt lat="43.30938" lon="5.68663">
        <ele>800</ele>
        <time>2019-11-29T09:41:30.000Z</time>
      </trkpt>
      <trkpt lat="43.30938" lon="5.68663">
        <ele>800</ele>
        <time>2019-11-29T09:41:31.000Z</time>
      </trkpt>
      <trkpt lat="43.30938" lon="5.68663">
        <ele>800</ele>
        <time>2019-11-29T09:41:32.000Z</time>
      </trkpt>
      <trkpt lat="43.30938" lon="5.68663">
        <ele>800</ele>
        <time>2019-11-29T09:41:33.000Z</time>
      </trkpt>
      <trkpt lat="43.30938" lon="5.68663">
        <ele>800</ele>
        <time>2019-11-29T09:41:34.000Z</time>
      </trkpt>
      <trkpt lat="43.30938" lon="5.68663">
        <ele>800</ele>
        <time>2019-11-29T09:41:35.000Z</time>
      </trkpt>
      <trkpt lat="43.30938" lon="5.68664">
        <ele>800</ele>
        <time>2019-11-29T09:41:36.000Z</time>
      </trkpt>
      <trkpt lat="43.30937" lon="5.68665">
        <ele>800</ele>
        <time>2019-11-29T09:41:37.000Z</time>
      </trkpt>
      <trkpt lat="43.30937" lon="5.68666">
        <ele>800</ele>
        <time>2019-11-29T09:41:38.000Z</time>
      </trkpt>
      <trkpt lat="43.30937" lon="5.68667">
        <ele>800</ele>
        <time>2019-11-29T09:41:39.000Z</time>
      </trkpt>
      <trkpt lat="43.30936" lon="5.68668">
        <ele>800</ele>
        <time>2019-11-29T09:41:40.000Z</time>
      </trkpt>
      <trkpt lat="43.30936" lon="5.68669">
        <ele>800</ele>
        <time>2019-11-29T09:41:41.000Z</time>
      </trkpt>
      <trkpt lat="43.30936" lon="5.6867">
        <ele>800</ele>
        <time>2019-11-29T09:41:42.000Z</time>
      </trkpt>
      <trkpt lat="43.30935" lon="5.68671">
        <ele>800</ele>
        <time>2019-11-29T09:41:43.000Z</time>
      </trkpt>
      <trkpt lat="43.30935" lon="5.68672">
        <ele>800</ele>
        <time>2019-11-29T09:41:44.000Z</time>
      </trkpt>
      <trkpt lat="43.30934" lon="5.68672">
        <ele>800</ele>
        <time>2019-11-29T09:41:45.000Z</time>
      </trkpt>
      <trkpt lat="43.30933" lon="5.68673">
        <ele>800</ele>
        <time>2019-11-29T09:41:46.000Z</time>
      </trkpt>
      <trkpt lat="43.30932" lon="5.68674">
        <ele>800</ele>
        <time>2019-11-29T09:41:47.000Z</time>
      </trkpt>
      <trkpt lat="43.30932" lon="5.68674">
        <ele>800</ele>
        <time>2019-11-29T09:41:48.000Z</time>
      </trkpt>
      <trkpt lat="43.30932" lon="5.68675">
        <ele>800</ele>
        <time>2019-11-29T09:41:49.000Z</time>
      </trkpt>
      <trkpt lat="43.30931" lon="5.68676">
        <ele>800</ele>
        <time>2019-11-29T09:41:50.000Z</time>
      </trkpt>
      <trkpt lat="43.30931" lon="5.68676">
        <ele>800</ele>
        <time>2019-11-29T09:41:51.000Z</time>
      </trkpt>
      <trkpt lat="43.3093" lon="5.68676">
        <ele>800</ele>
        <time>2019-11-29T09:41:52.000Z</time>
      </trkpt>
      <trkpt lat="43.30929" lon="5.68676">
        <ele>800</ele>
        <time>2019-11-29T09:41:53.000Z</time>
      </trkpt>
      <trkpt lat="43.30929" lon="5.68676">
        <ele>799</ele>
        <time>2019-11-29T09:41:54.000Z</time>
      </trkpt>
      <trkpt lat="43.30928" lon="5.68676">
        <ele>799</ele>
        <time>2019-11-29T09:41:55.000Z</time>
      </trkpt>
      <trkpt lat="43.30927" lon="5.68677">
        <ele>799</ele>
        <time>2019-11-29T09:41:56.000Z</time>
      </trkpt>
      <trkpt lat="43.30926" lon="5.68677">
        <ele>799</ele>
        <time>2019-11-29T09:41:57.000Z</time>
      </trkpt>
      <trkpt lat="43.30926" lon="5.68678">
        <ele>799</ele>
        <time>2019-11-29T09:41:58.000Z</time>
      </trkpt>
      <trkpt lat="43.30925" lon="5.68679">
        <ele>799</ele>
        <time>2019-11-29T09:41:59.000Z</time>
      </trkpt>
      <trkpt lat="43.30924" lon="5.68679">
        <ele>799</ele>
        <time>2019-11-29T09:42:00.000Z</time>
      </trkpt>
      <trkpt lat="43.30923" lon="5.6868">
        <ele>799</ele>
        <time>2019-11-29T09:42:01.000Z</time>
      </trkpt>
      <trkpt lat="43.30923" lon="5.6868">
        <ele>799</ele>
        <time>2019-11-29T09:42:02.000Z</time>
      </trkpt>
      <trkpt lat="43.30922" lon="5.68681">
        <ele>799</ele>
        <time>2019-11-29T09:42:03.000Z</time>
      </trkpt>
      <trkpt lat="43.30922" lon="5.68682">
        <ele>799</ele>
        <time>2019-11-29T09:42:04.000Z</time>
      </trkpt>
      <trkpt lat="43.30921" lon="5.68682">
        <ele>799</ele>
        <time>2019-11-29T09:42:05.000Z</time>
      </trkpt>
      <trkpt lat="43.3092" lon="5.68682">
        <ele>799</ele>
        <time>2019-11-29T09:42:06.000Z</time>
      </trkpt>
      <trkpt lat="43.3092" lon="5.68683">
        <ele>799</ele>
        <time>2019-11-29T09:42:07.000Z</time>
      </trkpt>
      <trkpt lat="43.30919" lon="5.68684">
        <ele>799</ele>
        <time>2019-11-29T09:42:08.000Z</time>
      </trkpt>
      <trkpt lat="43.30918" lon="5.68684">
        <ele>799</ele>
        <time>2019-11-29T09:42:09.000Z</time>
      </trkpt>
      <trkpt lat="43.30918" lon="5.68685">
        <ele>799</ele>
        <time>2019-11-29T09:42:10.000Z</time>
      </trkpt>
      <trkpt lat="43.30917" lon="5.68686">
        <ele>798</ele>
        <time>2019-11-29T09:42:11.000Z</time>
      </trkpt>
      <trkpt lat="43.30916" lon="5.68686">
        <ele>798</ele>
        <time>2019-11-29T09:42:12.000Z</time>
      </trkpt>
      <trkpt lat="43.30916" lon="5.68686">
        <ele>798</ele>
        <time>2019-11-29T09:42:13.000Z</time>
      </trkpt>
      <trkpt lat="43.30915" lon="5.68686">
        <ele>798</ele>
        <time>2019-11-29T09:42:14.000Z</time>
      </trkpt>
      <trkpt lat="43.30914" lon="5.68686">
        <ele>797</ele>
        <time>2019-11-29T09:42:15.000Z</time>
      </trkpt>
      <trkpt lat="43.30913" lon="5.68686">
        <ele>797</ele>
        <time>2019-11-29T09:42:16.000Z</time>
      </trkpt>
      <trkpt lat="43.30912" lon="5.68687">
        <ele>797</ele>
        <time>2019-11-29T09:42:17.000Z</time>
      </trkpt>
      <trkpt lat="43.30912" lon="5.68687">
        <ele>797</ele>
        <time>2019-11-29T09:42:18.000Z</time>
      </trkpt>
      <trkpt lat="43.30911" lon="5.68688">
        <ele>797</ele>
        <time>2019-11-29T09:42:19.000Z</time>
      </trkpt>
      <trkpt lat="43.3091" lon="5.68688">
        <ele>796</ele>
        <time>2019-11-29T09:42:20.000Z</time>
      </trkpt>
      <trkpt lat="43.3091" lon="5.68689">
        <ele>796</ele>
        <time>2019-11-29T09:42:21.000Z</time>
      </trkpt>
      <trkpt lat="43.30909" lon="5.68689">
        <ele>796</ele>
        <time>2019-11-29T09:42:22.000Z</time>
      </trkpt>
      <trkpt lat="43.30908" lon="5.6869">
        <ele>796</ele>
        <time>2019-11-29T09:42:23.000Z</time>
      </trkpt>
      <trkpt lat="43.30907" lon="5.6869">
        <ele>796</ele>
        <time>2019-11-29T09:42:24.000Z</time>
      </trkpt>
      <trkpt lat="43.30906" lon="5.68691">
        <ele>795</ele>
        <time>2019-11-29T09:42:25.000Z</time>
      </trkpt>
      <trkpt lat="43.30905" lon="5.68691">
        <ele>795</ele>
        <time>2019-11-29T09:42:26.000Z</time>
      </trkpt>
      <trkpt lat="43.30905" lon="5.68692">
        <ele>795</ele>
        <time>2019-11-29T09:42:27.000Z</time>
      </trkpt>
      <trkpt lat="43.30904" lon="5.68693">
        <ele>795</ele>
        <time>2019-11-29T09:42:28.000Z</time>
      </trkpt>
      <trkpt lat="43.30903" lon="5.68694">
        <ele>795</ele>
        <time>2019-11-29T09:42:29.000Z</time>
      </trkpt>
      <trkpt lat="43.30902" lon="5.68695">
        <ele>794</ele>
        <time>2019-11-29T09:42:30.000Z</time>
      </trkpt>
      <trkpt lat="43.30901" lon="5.68695">
        <ele>794</ele>
        <time>2019-11-29T09:42:31.000Z</time>
      </trkpt>
      <trkpt lat="43.30901" lon="5.68696">
        <ele>794</ele>
        <time>2019-11-29T09:42:32.000Z</time>
      </trkpt>
      <trkpt lat="43.309" lon="5.68697">
        <ele>794</ele>
        <time>2019-11-29T09:42:33.000Z</time>
      </trkpt>
      <trkpt lat="43.30899" lon="5.68698">
        <ele>794</ele>
        <time>2019-11-29T09:42:34.000Z</time>
      </trkpt>
      <trkpt lat="43.30899" lon="5.687">
        <ele>793</ele>
        <time>2019-11-29T09:42:35.000Z</time>
      </trkpt>
      <trkpt lat="43.30898" lon="5.68701">
        <ele>793</ele>
        <time>2019-11-29T09:42:36.000Z</time>
      </trkpt>
      <trkpt lat="43.30898" lon="5.68703">
        <ele>793</ele>
        <time>2019-11-29T09:42:37.000Z</time>
      </trkpt>
      <trkpt lat="43.30898" lon="5.68705">
        <ele>793</ele>
        <time>2019-11-29T09:42:38.000Z</time>
      </trkpt>
      <trkpt lat="43.30898" lon="5.68706">
        <ele>793</ele>
        <time>2019-11-29T09:42:39.000Z</time>
      </trkpt>
      <trkpt lat="43.30897" lon="5.68707">
        <ele>793</ele>
        <time>2019-11-29T09:42:40.000Z</time>
      </trkpt>
      <trkpt lat="43.30896" lon="5.68708">
        <ele>793</ele>
        <time>2019-11-29T09:42:41.000Z</time>
      </trkpt>
      <trkpt lat="43.30895" lon="5.68709">
        <ele>793</ele>
        <time>2019-11-29T09:42:42.000Z</time>
      </trkpt>
      <trkpt lat="43.30895" lon="5.68711">
        <ele>793</ele>
        <time>2019-11-29T09:42:43.000Z</time>
      </trkpt>
      <trkpt lat="43.30894" lon="5.68712">
        <ele>793</ele>
        <time>2019-11-29T09:42:44.000Z</time>
      </trkpt>
      <trkpt lat="43.30893" lon="5.68714">
        <ele>793</ele>
        <time>2019-11-29T09:42:45.000Z</time>
      </trkpt>
      <trkpt lat="43.30893" lon="5.68715">
        <ele>793</ele>
        <time>2019-11-29T09:42:46.000Z</time>
      </trkpt>
      <trkpt lat="43.30892" lon="5.68716">
        <ele>793</ele>
        <time>2019-11-29T09:42:47.000Z</time>
      </trkpt>
      <trkpt lat="43.30891" lon="5.68718">
        <ele>793</ele>
        <time>2019-11-29T09:42:48.000Z</time>
      </trkpt>
      <trkpt lat="43.3089" lon="5.68719">
        <ele>793</ele>
        <time>2019-11-29T09:42:49.000Z</time>
      </trkpt>
      <trkpt lat="43.30889" lon="5.68721">
        <ele>793</ele>
        <time>2019-11-29T09:42:50.000Z</time>
      </trkpt>
      <trkpt lat="43.30889" lon="5.68722">
        <ele>792</ele>
        <time>2019-11-29T09:42:51.000Z</time>
      </trkpt>
      <trkpt lat="43.30888" lon="5.68723">
        <ele>792</ele>
        <time>2019-11-29T09:42:52.000Z</time>
      </trkpt>
      <trkpt lat="43.30887" lon="5.68724">
        <ele>792</ele>
        <time>2019-11-29T09:42:53.000Z</time>
      </trkpt>
      <trkpt lat="43.30887" lon="5.68725">
        <ele>792</ele>
        <time>2019-11-29T09:42:54.000Z</time>
      </trkpt>
      <trkpt lat="43.30886" lon="5.68726">
        <ele>792</ele>
        <time>2019-11-29T09:42:55.000Z</time>
      </trkpt>
      <trkpt lat="43.30885" lon="5.68727">
        <ele>792</ele>
        <time>2019-11-29T09:42:56.000Z</time>
      </trkpt>
      <trkpt lat="43.30885" lon="5.68728">
        <ele>792</ele>
        <time>2019-11-29T09:42:57.000Z</time>
      </trkpt>
      <trkpt lat="43.30884" lon="5.68728">
        <ele>792</ele>
        <time>2019-11-29T09:42:58.000Z</time>
      </trkpt>
      <trkpt lat="43.30883" lon="5.68729">
        <ele>792</ele>
        <time>2019-11-29T09:42:59.000Z</time>
      </trkpt>
      <trkpt lat="43.30882" lon="5.68729">
        <ele>792</ele>
        <time>2019-11-29T09:43:00.000Z</time>
      </trkpt>
      <trkpt lat="43.30881" lon="5.6873">
        <ele>792</ele>
        <time>2019-11-29T09:43:01.000Z</time>
      </trkpt>
      <trkpt lat="43.30881" lon="5.68731">
        <ele>791</ele>
        <time>2019-11-29T09:43:02.000Z</time>
      </trkpt>
      <trkpt lat="43.3088" lon="5.68732">
        <ele>791</ele>
        <time>2019-11-29T09:43:03.000Z</time>
      </trkpt>
      <trkpt lat="43.30879" lon="5.68734">
        <ele>791</ele>
        <time>2019-11-29T09:43:04.000Z</time>
      </trkpt>
      <trkpt lat="43.30878" lon="5.68735">
        <ele>791</ele>
        <time>2019-11-29T09:43:05.000Z</time>
      </trkpt>
      <trkpt lat="43.30877" lon="5.68736">
        <ele>791</ele>
        <time>2019-11-29T09:43:06.000Z</time>
      </trkpt>
      <trkpt lat="43.30877" lon="5.68736">
        <ele>791</ele>
        <time>2019-11-29T09:43:07.000Z</time>
      </trkpt>
      <trkpt lat="43.30876" lon="5.68737">
        <ele>790</ele>
        <time>2019-11-29T09:43:08.000Z</time>
      </trkpt>
      <trkpt lat="43.30876" lon="5.68738">
        <ele>790</ele>
        <time>2019-11-29T09:43:09.000Z</time>
      </trkpt>
      <trkpt lat="43.30875" lon="5.68738">
        <ele>790</ele>
        <time>2019-11-29T09:43:10.000Z</time>
      </trkpt>
      <trkpt lat="43.30874" lon="5.68739">
        <ele>790</ele>
        <time>2019-11-29T09:43:11.000Z</time>
      </trkpt>
      <trkpt lat="43.30874" lon="5.6874">
        <ele>790</ele>
        <time>2019-11-29T09:43:12.000Z</time>
      </trkpt>
      <trkpt lat="43.30873" lon="5.6874">
        <ele>789</ele>
        <time>2019-11-29T09:43:13.000Z</time>
      </trkpt>
      <trkpt lat="43.30873" lon="5.68741">
        <ele>789</ele>
        <time>2019-11-29T09:43:14.000Z</time>
      </trkpt>
      <trkpt lat="43.30873" lon="5.68742">
        <ele>789</ele>
        <time>2019-11-29T09:43:15.000Z</time>
      </trkpt>
      <trkpt lat="43.30872" lon="5.68743">
        <ele>789</ele>
        <time>2019-11-29T09:43:16.000Z</time>
      </trkpt>
      <trkpt lat="43.30872" lon="5.68743">
        <ele>789</ele>
        <time>2019-11-29T09:43:17.000Z</time>
      </trkpt>
      <trkpt lat="43.30871" lon="5.68744">
        <ele>789</ele>
        <time>2019-11-29T09:43:18.000Z</time>
      </trkpt>
      <trkpt lat="43.3087" lon="5.68744">
        <ele>789</ele>
        <time>2019-11-29T09:43:19.000Z</time>
      </trkpt>
      <trkpt lat="43.30869" lon="5.68745">
        <ele>788</ele>
        <time>2019-11-29T09:43:20.000Z</time>
      </trkpt>
      <trkpt lat="43.30868" lon="5.68746">
        <ele>788</ele>
        <time>2019-11-29T09:43:21.000Z</time>
      </trkpt>
      <trkpt lat="43.30867" lon="5.68748">
        <ele>788</ele>
        <time>2019-11-29T09:43:22.000Z</time>
      </trkpt>
      <trkpt lat="43.30867" lon="5.68749">
        <ele>788</ele>
        <time>2019-11-29T09:43:23.000Z</time>
      </trkpt>
      <trkpt lat="43.30867" lon="5.68751">
        <ele>788</ele>
        <time>2019-11-29T09:43:24.000Z</time>
      </trkpt>
      <trkpt lat="43.30867" lon="5.68752">
        <ele>788</ele>
        <time>2019-11-29T09:43:25.000Z</time>
      </trkpt>
      <trkpt lat="43.30867" lon="5.68753">
        <ele>788</ele>
        <time>2019-11-29T09:43:26.000Z</time>
      </trkpt>
      <trkpt lat="43.30867" lon="5.68753">
        <ele>788</ele>
        <time>2019-11-29T09:43:27.000Z</time>
      </trkpt>
      <trkpt lat="43.30867" lon="5.68753">
        <ele>787</ele>
        <time>2019-11-29T09:43:28.000Z</time>
      </trkpt>
      <trkpt lat="43.30867" lon="5.68753">
        <ele>787</ele>
        <time>2019-11-29T09:43:29.000Z</time>
      </trkpt>
      <trkpt lat="43.30867" lon="5.68753">
        <ele>787</ele>
        <time>2019-11-29T09:43:30.000Z</time>
      </trkpt>
      <trkpt lat="43.30867" lon="5.68753">
        <ele>787</ele>
        <time>2019-11-29T09:43:31.000Z</time>
      </trkpt>
      <trkpt lat="43.30867" lon="5.68753">
        <ele>787</ele>
        <time>2019-11-29T09:43:32.000Z</time>
      </trkpt>
      <trkpt lat="43.30867" lon="5.68753">
        <ele>787</ele>
        <time>2019-11-29T09:43:33.000Z</time>
      </trkpt>
      <trkpt lat="43.30867" lon="5.68753">
        <ele>787</ele>
        <time>2019-11-29T09:43:34.000Z</time>
      </trkpt>
      <trkpt lat="43.30867" lon="5.68753">
        <ele>787</ele>
        <time>2019-11-29T09:43:35.000Z</time>
      </trkpt>
      <trkpt lat="43.30867" lon="5.68753">
        <ele>787</ele>
        <time>2019-11-29T09:43:36.000Z</time>
      </trkpt>
      <trkpt lat="43.30867" lon="5.68752">
        <ele>787</ele>
        <time>2019-11-29T09:43:37.000Z</time>
      </trkpt>
      <trkpt lat="43.30868" lon="5.68753">
        <ele>787</ele>
        <time>2019-11-29T09:43:38.000Z</time>
      </trkpt>
      <trkpt lat="43.30868" lon="5.68753">
        <ele>787</ele>
        <time>2019-11-29T09:43:39.000Z</time>
      </trkpt>
      <trkpt lat="43.30868" lon="5.68754">
        <ele>787</ele>
        <time>2019-11-29T09:43:40.000Z</time>
      </trkpt>
      <trkpt lat="43.30868" lon="5.68755">
        <ele>787</ele>
        <time>2019-11-29T09:43:41.000Z</time>
      </trkpt>
      <trkpt lat="43.30868" lon="5.68755">
        <ele>787</ele>
        <time>2019-11-29T09:43:42.000Z</time>
      </trkpt>
      <trkpt lat="43.30868" lon="5.68756">
        <ele>787</ele>
        <time>2019-11-29T09:43:43.000Z</time>
      </trkpt>
      <trkpt lat="43.30868" lon="5.68756">
        <ele>787</ele>
        <time>2019-11-29T09:43:44.000Z</time>
      </trkpt>
      <trkpt lat="43.30867" lon="5.68757">
        <ele>787</ele>
        <time>2019-11-29T09:43:45.000Z</time>
      </trkpt>
      <trkpt lat="43.30867" lon="5.68758">
        <ele>787</ele>
        <time>2019-11-29T09:43:46.000Z</time>
      </trkpt>
      <trkpt lat="43.30868" lon="5.68759">
        <ele>786</ele>
        <time>2019-11-29T09:43:47.000Z</time>
      </trkpt>
      <trkpt lat="43.30868" lon="5.6876">
        <ele>786</ele>
        <time>2019-11-29T09:43:48.000Z</time>
      </trkpt>
      <trkpt lat="43.30868" lon="5.68761">
        <ele>786</ele>
        <time>2019-11-29T09:43:49.000Z</time>
      </trkpt>
      <trkpt lat="43.30868" lon="5.68761">
        <ele>786</ele>
        <time>2019-11-29T09:43:50.000Z</time>
      </trkpt>
      <trkpt lat="43.30868" lon="5.68761">
        <ele>786</ele>
        <time>2019-11-29T09:43:51.000Z</time>
      </trkpt>
      <trkpt lat="43.30868" lon="5.68761">
        <ele>786</ele>
        <time>2019-11-29T09:43:52.000Z</time>
      </trkpt>
      <trkpt lat="43.30868" lon="5.68761">
        <ele>786</ele>
        <time>2019-11-29T09:43:53.000Z</time>
      </trkpt>
      <trkpt lat="43.30868" lon="5.68762">
        <ele>786</ele>
        <time>2019-11-29T09:43:54.000Z</time>
      </trkpt>
      <trkpt lat="43.30868" lon="5.68762">
        <ele>786</ele>
        <time>2019-11-29T09:43:55.000Z</time>
      </trkpt>
      <trkpt lat="43.30868" lon="5.68762">
        <ele>786</ele>
        <time>2019-11-29T09:43:56.000Z</time>
      </trkpt>
      <trkpt lat="43.30868" lon="5.68762">
        <ele>786</ele>
        <time>2019-11-29T09:43:57.000Z</time>
      </trkpt>
      <trkpt lat="43.30868" lon="5.68762">
        <ele>786</ele>
        <time>2019-11-29T09:43:58.000Z</time>
      </trkpt>
      <trkpt lat="43.30868" lon="5.68762">
        <ele>786</ele>
        <time>2019-11-29T09:43:59.000Z</time>
      </trkpt>
      <trkpt lat="43.30868" lon="5.68762">
        <ele>786</ele>
        <time>2019-11-29T09:44:00.000Z</time>
      </trkpt>
      <trkpt lat="43.30868" lon="5.68762">
        <ele>786</ele>
        <time>2019-11-29T09:44:01.000Z</time>
      </trkpt>
      <trkpt lat="43.30868" lon="5.68762">
        <ele>786</ele>
        <time>2019-11-29T09:44:02.000Z</time>
      </trkpt>
      <trkpt lat="43.30868" lon="5.68762">
        <ele>786</ele>
        <time>2019-11-29T09:44:03.000Z</time>
      </trkpt>
      <trkpt lat="43.30868" lon="5.68762">
        <ele>786</ele>
        <time>2019-11-29T09:44:04.000Z</time>
      </trkpt>
      <trkpt lat="43.30868" lon="5.68762">
        <ele>786</ele>
        <time>2019-11-29T09:44:05.000Z</time>
      </trkpt>
      <trkpt lat="43.30868" lon="5.68762">
        <ele>786</ele>
        <time>2019-11-29T09:44:06.000Z</time>
      </trkpt>
      <trkpt lat="43.30868" lon="5.68762">
        <ele>786</ele>
        <time>2019-11-29T09:44:07.000Z</time>
      </trkpt>
      <trkpt lat="43.30868" lon="5.68762">
        <ele>786</ele>
        <time>2019-11-29T09:44:08.000Z</time>
      </trkpt>
      <trkpt lat="43.30868" lon="5.68763">
        <ele>786</ele>
        <time>2019-11-29T09:44:09.000Z</time>
      </trkpt>
      <trkpt lat="43.30868" lon="5.68763">
        <ele>786</ele>
        <time>2019-11-29T09:44:10.000Z</time>
      </trkpt>
      <trkpt lat="43.30868" lon="5.68763">
        <ele>786</ele>
        <time>2019-11-29T09:44:11.000Z</time>
      </trkpt>
      <trkpt lat="43.30868" lon="5.68763">
        <ele>786</ele>
        <time>2019-11-29T09:44:12.000Z</time>
      </trkpt>
      <trkpt lat="43.30868" lon="5.68763">
        <ele>786</ele>
        <time>2019-11-29T09:44:13.000Z</time>
      </trkpt>
      <trkpt lat="43.30868" lon="5.68763">
        <ele>786</ele>
        <time>2019-11-29T09:44:14.000Z</time>
      </trkpt>
      <trkpt lat="43.30868" lon="5.68763">
        <ele>786</ele>
        <time>2019-11-29T09:44:15.000Z</time>
      </trkpt>
      <trkpt lat="43.30868" lon="5.68763">
        <ele>786</ele>
        <time>2019-11-29T09:44:16.000Z</time>
      </trkpt>
      <trkpt lat="43.30868" lon="5.68764">
        <ele>786</ele>
        <time>2019-11-29T09:44:17.000Z</time>
      </trkpt>
      <trkpt lat="43.30868" lon="5.68764">
        <ele>786</ele>
        <time>2019-11-29T09:44:18.000Z</time>
      </trkpt>
      <trkpt lat="43.30868" lon="5.68764">
        <ele>786</ele>
        <time>2019-11-29T09:44:19.000Z</time>
      </trkpt>
      <trkpt lat="43.30869" lon="5.68764">
        <ele>786</ele>
        <time>2019-11-29T09:44:20.000Z</time>
      </trkpt>
      <trkpt lat="43.30869" lon="5.68764">
        <ele>786</ele>
        <time>2019-11-29T09:44:21.000Z</time>
      </trkpt>
      <trkpt lat="43.30869" lon="5.68764">
        <ele>786</ele>
        <time>2019-11-29T09:44:22.000Z</time>
      </trkpt>
      <trkpt lat="43.30869" lon="5.68764">
        <ele>786</ele>
        <time>2019-11-29T09:44:23.000Z</time>
      </trkpt>
      <trkpt lat="43.30869" lon="5.68764">
        <ele>786</ele>
        <time>2019-11-29T09:44:24.000Z</time>
      </trkpt>
      <trkpt lat="43.30869" lon="5.68765">
        <ele>786</ele>
        <time>2019-11-29T09:44:25.000Z</time>
      </trkpt>
      <trkpt lat="43.30869" lon="5.68766">
        <ele>786</ele>
        <time>2019-11-29T09:44:26.000Z</time>
      </trkpt>
      <trkpt lat="43.30869" lon="5.68767">
        <ele>786</ele>
        <time>2019-11-29T09:44:27.000Z</time>
      </trkpt>
      <trkpt lat="43.30869" lon="5.68768">
        <ele>786</ele>
        <time>2019-11-29T09:44:28.000Z</time>
      </trkpt>
      <trkpt lat="43.30869" lon="5.68769">
        <ele>786</ele>
        <time>2019-11-29T09:44:29.000Z</time>
      </trkpt>
      <trkpt lat="43.30869" lon="5.68769">
        <ele>786</ele>
        <time>2019-11-29T09:44:30.000Z</time>
      </trkpt>
      <trkpt lat="43.30869" lon="5.6877">
        <ele>786</ele>
        <time>2019-11-29T09:44:31.000Z</time>
      </trkpt>
      <trkpt lat="43.30869" lon="5.6877">
        <ele>786</ele>
        <time>2019-11-29T09:44:32.000Z</time>
      </trkpt>
      <trkpt lat="43.3087" lon="5.68771">
        <ele>786</ele>
        <time>2019-11-29T09:44:33.000Z</time>
      </trkpt>
      <trkpt lat="43.3087" lon="5.68773">
        <ele>786</ele>
        <time>2019-11-29T09:44:34.000Z</time>
      </trkpt>
      <trkpt lat="43.3087" lon="5.68774">
        <ele>786</ele>
        <time>2019-11-29T09:44:35.000Z</time>
      </trkpt>
      <trkpt lat="43.3087" lon="5.68775">
        <ele>786</ele>
        <time>2019-11-29T09:44:36.000Z</time>
      </trkpt>
      <trkpt lat="43.30869" lon="5.68776">
        <ele>786</ele>
        <time>2019-11-29T09:44:37.000Z</time>
      </trkpt>
      <trkpt lat="43.30869" lon="5.68777">
        <ele>786</ele>
        <time>2019-11-29T09:44:38.000Z</time>
      </trkpt>
      <trkpt lat="43.30869" lon="5.68778">
        <ele>786</ele>
        <time>2019-11-29T09:44:39.000Z</time>
      </trkpt>
      <trkpt lat="43.30869" lon="5.68779">
        <ele>786</ele>
        <time>2019-11-29T09:44:40.000Z</time>
      </trkpt>
      <trkpt lat="43.30868" lon="5.6878">
        <ele>786</ele>
        <time>2019-11-29T09:44:41.000Z</time>
      </trkpt>
      <trkpt lat="43.30868" lon="5.68781">
        <ele>786</ele>
        <time>2019-11-29T09:44:42.000Z</time>
      </trkpt>
      <trkpt lat="43.30869" lon="5.68782">
        <ele>786</ele>
        <time>2019-11-29T09:44:43.000Z</time>
      </trkpt>
      <trkpt lat="43.30869" lon="5.68782">
        <ele>786</ele>
        <time>2019-11-29T09:44:44.000Z</time>
      </trkpt>
      <trkpt lat="43.30869" lon="5.68783">
        <ele>785</ele>
        <time>2019-11-29T09:44:45.000Z</time>
      </trkpt>
      <trkpt lat="43.30869" lon="5.68783">
        <ele>785</ele>
        <time>2019-11-29T09:44:46.000Z</time>
      </trkpt>
      <trkpt lat="43.30869" lon="5.68783">
        <ele>785</ele>
        <time>2019-11-29T09:44:47.000Z</time>
      </trkpt>
      <trkpt lat="43.30869" lon="5.68784">
        <ele>785</ele>
        <time>2019-11-29T09:44:48.000Z</time>
      </trkpt>
      <trkpt lat="43.30869" lon="5.68784">
        <ele>785</ele>
        <time>2019-11-29T09:44:49.000Z</time>
      </trkpt>
      <trkpt lat="43.30869" lon="5.68784">
        <ele>785</ele>
        <time>2019-11-29T09:44:50.000Z</time>
      </trkpt>
      <trkpt lat="43.30869" lon="5.68784">
        <ele>785</ele>
        <time>2019-11-29T09:44:51.000Z</time>
      </trkpt>
      <trkpt lat="43.30869" lon="5.68784">
        <ele>785</ele>
        <time>2019-11-29T09:44:52.000Z</time>
      </trkpt>
      <trkpt lat="43.3087" lon="5.68784">
        <ele>785</ele>
        <time>2019-11-29T09:44:53.000Z</time>
      </trkpt>
      <trkpt lat="43.3087" lon="5.68784">
        <ele>785</ele>
        <time>2019-11-29T09:44:54.000Z</time>
      </trkpt>
      <trkpt lat="43.3087" lon="5.68784">
        <ele>785</ele>
        <time>2019-11-29T09:44:55.000Z</time>
      </trkpt>
      <trkpt lat="43.3087" lon="5.68784">
        <ele>785</ele>
        <time>2019-11-29T09:44:56.000Z</time>
      </trkpt>
      <trkpt lat="43.3087" lon="5.68784">
        <ele>785</ele>
        <time>2019-11-29T09:44:57.000Z</time>
      </trkpt>
      <trkpt lat="43.3087" lon="5.68784">
        <ele>785</ele>
        <time>2019-11-29T09:44:58.000Z</time>
      </trkpt>
      <trkpt lat="43.3087" lon="5.68784">
        <ele>785</ele>
        <time>2019-11-29T09:44:59.000Z</time>
      </trkpt>
      <trkpt lat="43.3087" lon="5.68784">
        <ele>785</ele>
        <time>2019-11-29T09:45:00.000Z</time>
      </trkpt>
      <trkpt lat="43.3087" lon="5.68784">
        <ele>785</ele>
        <time>2019-11-29T09:45:01.000Z</time>
      </trkpt>
      <trkpt lat="43.3087" lon="5.68784">
        <ele>785</ele>
        <time>2019-11-29T09:45:02.000Z</time>
      </trkpt>
      <trkpt lat="43.3087" lon="5.68784">
        <ele>785</ele>
        <time>2019-11-29T09:45:03.000Z</time>
      </trkpt>
      <trkpt lat="43.3087" lon="5.68784">
        <ele>785</ele>
        <time>2019-11-29T09:45:04.000Z</time>
      </trkpt>
      <trkpt lat="43.3087" lon="5.68784">
        <ele>785</ele>
        <time>2019-11-29T09:45:05.000Z</time>
      </trkpt>
      <trkpt lat="43.3087" lon="5.68785">
        <ele>785</ele>
        <time>2019-11-29T09:45:06.000Z</time>
      </trkpt>
      <trkpt lat="43.3087" lon="5.68786">
        <ele>785</ele>
        <time>2019-11-29T09:45:07.000Z</time>
      </trkpt>
      <trkpt lat="43.3087" lon="5.68787">
        <ele>785</ele>
        <time>2019-11-29T09:45:08.000Z</time>
      </trkpt>
      <trkpt lat="43.3087" lon="5.68788">
        <ele>785</ele>
        <time>2019-11-29T09:45:09.000Z</time>
      </trkpt>
      <trkpt lat="43.3087" lon="5.68789">
        <ele>785</ele>
        <time>2019-11-29T09:45:10.000Z</time>
      </trkpt>
      <trkpt lat="43.3087" lon="5.6879">
        <ele>785</ele>
        <time>2019-11-29T09:45:11.000Z</time>
      </trkpt>
      <trkpt lat="43.3087" lon="5.68791">
        <ele>785</ele>
        <time>2019-11-29T09:45:12.000Z</time>
      </trkpt>
      <trkpt lat="43.3087" lon="5.68792">
        <ele>785</ele>
        <time>2019-11-29T09:45:13.000Z</time>
      </trkpt>
      <trkpt lat="43.3087" lon="5.68793">
        <ele>785</ele>
        <time>2019-11-29T09:45:14.000Z</time>
      </trkpt>
      <trkpt lat="43.30869" lon="5.68794">
        <ele>784</ele>
        <time>2019-11-29T09:45:15.000Z</time>
      </trkpt>
      <trkpt lat="43.30869" lon="5.68795">
        <ele>784</ele>
        <time>2019-11-29T09:45:16.000Z</time>
      </trkpt>
      <trkpt lat="43.30868" lon="5.68796">
        <ele>784</ele>
        <time>2019-11-29T09:45:17.000Z</time>
      </trkpt>
      <trkpt lat="43.30868" lon="5.68796">
        <ele>784</ele>
        <time>2019-11-29T09:45:18.000Z</time>
      </trkpt>
      <trkpt lat="43.30867" lon="5.68796">
        <ele>784</ele>
        <time>2019-11-29T09:45:19.000Z</time>
      </trkpt>
      <trkpt lat="43.30867" lon="5.68796">
        <ele>784</ele>
        <time>2019-11-29T09:45:20.000Z</time>
      </trkpt>
      <trkpt lat="43.30866" lon="5.68797">
        <ele>783</ele>
        <time>2019-11-29T09:45:21.000Z</time>
      </trkpt>
      <trkpt lat="43.30866" lon="5.68797">
        <ele>783</ele>
        <time>2019-11-29T09:45:22.000Z</time>
      </trkpt>
      <trkpt lat="43.30865" lon="5.68798">
        <ele>783</ele>
        <time>2019-11-29T09:45:23.000Z</time>
      </trkpt>
      <trkpt lat="43.30864" lon="5.68798">
        <ele>783</ele>
        <time>2019-11-29T09:45:24.000Z</time>
      </trkpt>
      <trkpt lat="43.30863" lon="5.68798">
        <ele>782</ele>
        <time>2019-11-29T09:45:25.000Z</time>
      </trkpt>
      <trkpt lat="43.30863" lon="5.68797">
        <ele>782</ele>
        <time>2019-11-29T09:45:26.000Z</time>
      </trkpt>
      <trkpt lat="43.30862" lon="5.68797">
        <ele>782</ele>
        <time>2019-11-29T09:45:27.000Z</time>
      </trkpt>
      <trkpt lat="43.30862" lon="5.68797">
        <ele>782</ele>
        <time>2019-11-29T09:45:28.000Z</time>
      </trkpt>
      <trkpt lat="43.30861" lon="5.68797">
        <ele>782</ele>
        <time>2019-11-29T09:45:29.000Z</time>
      </trkpt>
      <trkpt lat="43.30861" lon="5.68797">
        <ele>782</ele>
        <time>2019-11-29T09:45:30.000Z</time>
      </trkpt>
      <trkpt lat="43.30861" lon="5.68796">
        <ele>781</ele>
        <time>2019-11-29T09:45:31.000Z</time>
      </trkpt>
      <trkpt lat="43.30861" lon="5.68796">
        <ele>781</ele>
        <time>2019-11-29T09:45:32.000Z</time>
      </trkpt>
      <trkpt lat="43.30861" lon="5.68795">
        <ele>781</ele>
        <time>2019-11-29T09:45:33.000Z</time>
      </trkpt>
      <trkpt lat="43.3086" lon="5.68795">
        <ele>781</ele>
        <time>2019-11-29T09:45:34.000Z</time>
      </trkpt>
      <trkpt lat="43.3086" lon="5.68795">
        <ele>781</ele>
        <time>2019-11-29T09:45:35.000Z</time>
      </trkpt>
      <trkpt lat="43.30859" lon="5.68794">
        <ele>781</ele>
        <time>2019-11-29T09:45:36.000Z</time>
      </trkpt>
      <trkpt lat="43.30859" lon="5.68793">
        <ele>780</ele>
        <time>2019-11-29T09:45:37.000Z</time>
      </trkpt>
      <trkpt lat="43.30858" lon="5.68793">
        <ele>780</ele>
        <time>2019-11-29T09:45:38.000Z</time>
      </trkpt>
      <trkpt lat="43.30857" lon="5.68793">
        <ele>780</ele>
        <time>2019-11-29T09:45:39.000Z</time>
      </trkpt>
      <trkpt lat="43.30857" lon="5.68794">
        <ele>780</ele>
        <time>2019-11-29T09:45:40.000Z</time>
      </trkpt>
      <trkpt lat="43.30856" lon="5.68795">
        <ele>779</ele>
        <time>2019-11-29T09:45:41.000Z</time>
      </trkpt>
      <trkpt lat="43.30855" lon="5.68796">
        <ele>779</ele>
        <time>2019-11-29T09:45:42.000Z</time>
      </trkpt>
      <trkpt lat="43.30855" lon="5.68797">
        <ele>779</ele>
        <time>2019-11-29T09:45:43.000Z</time>
      </trkpt>
      <trkpt lat="43.30854" lon="5.68798">
        <ele>779</ele>
        <time>2019-11-29T09:45:44.000Z</time>
      </trkpt>
      <trkpt lat="43.30853" lon="5.68799">
        <ele>778</ele>
        <time>2019-11-29T09:45:45.000Z</time>
      </trkpt>
      <trkpt lat="43.30852" lon="5.68799">
        <ele>778</ele>
        <time>2019-11-29T09:45:46.000Z</time>
      </trkpt>
      <trkpt lat="43.30852" lon="5.688">
        <ele>778</ele>
        <time>2019-11-29T09:45:47.000Z</time>
      </trkpt>
      <trkpt lat="43.30851" lon="5.688">
        <ele>778</ele>
        <time>2019-11-29T09:45:48.000Z</time>
      </trkpt>
      <trkpt lat="43.30851" lon="5.68801">
        <ele>777</ele>
        <time>2019-11-29T09:45:49.000Z</time>
      </trkpt>
      <trkpt lat="43.3085" lon="5.68803">
        <ele>777</ele>
        <time>2019-11-29T09:45:50.000Z</time>
      </trkpt>
      <trkpt lat="43.3085" lon="5.68804">
        <ele>777</ele>
        <time>2019-11-29T09:45:51.000Z</time>
      </trkpt>
      <trkpt lat="43.3085" lon="5.68805">
        <ele>777</ele>
        <time>2019-11-29T09:45:52.000Z</time>
      </trkpt>
      <trkpt lat="43.30849" lon="5.68805">
        <ele>777</ele>
        <time>2019-11-29T09:45:53.000Z</time>
      </trkpt>
      <trkpt lat="43.30848" lon="5.68805">
        <ele>776</ele>
        <time>2019-11-29T09:45:54.000Z</time>
      </trkpt>
      <trkpt lat="43.30847" lon="5.68806">
        <ele>776</ele>
        <time>2019-11-29T09:45:55.000Z</time>
      </trkpt>
      <trkpt lat="43.30847" lon="5.68806">
        <ele>776</ele>
        <time>2019-11-29T09:45:56.000Z</time>
      </trkpt>
      <trkpt lat="43.30846" lon="5.68807">
        <ele>776</ele>
        <time>2019-11-29T09:45:57.000Z</time>
      </trkpt>
      <trkpt lat="43.30845" lon="5.68807">
        <ele>776</ele>
        <time>2019-11-29T09:45:58.000Z</time>
      </trkpt>
      <trkpt lat="43.30844" lon="5.68807">
        <ele>776</ele>
        <time>2019-11-29T09:45:59.000Z</time>
      </trkpt>
      <trkpt lat="43.30842" lon="5.68807">
        <ele>775</ele>
        <time>2019-11-29T09:46:00.000Z</time>
      </trkpt>
      <trkpt lat="43.30841" lon="5.68807">
        <ele>775</ele>
        <time>2019-11-29T09:46:01.000Z</time>
      </trkpt>
      <trkpt lat="43.3084" lon="5.68806">
        <ele>775</ele>
        <time>2019-11-29T09:46:02.000Z</time>
      </trkpt>
      <trkpt lat="43.30839" lon="5.68806">
        <ele>775</ele>
        <time>2019-11-29T09:46:03.000Z</time>
      </trkpt>
      <trkpt lat="43.30838" lon="5.68805">
        <ele>775</ele>
        <time>2019-11-29T09:46:04.000Z</time>
      </trkpt>
      <trkpt lat="43.30836" lon="5.68805">
        <ele>775</ele>
        <time>2019-11-29T09:46:05.000Z</time>
      </trkpt>
      <trkpt lat="43.30836" lon="5.68804">
        <ele>774</ele>
        <time>2019-11-29T09:46:06.000Z</time>
      </trkpt>
      <trkpt lat="43.30835" lon="5.68804">
        <ele>774</ele>
        <time>2019-11-29T09:46:07.000Z</time>
      </trkpt>
      <trkpt lat="43.30835" lon="5.68804">
        <ele>774</ele>
        <time>2019-11-29T09:46:08.000Z</time>
      </trkpt>
      <trkpt lat="43.30834" lon="5.68804">
        <ele>774</ele>
        <time>2019-11-29T09:46:09.000Z</time>
      </trkpt>
      <trkpt lat="43.30834" lon="5.68804">
        <ele>774</ele>
        <time>2019-11-29T09:46:10.000Z</time>
      </trkpt>
      <trkpt lat="43.30833" lon="5.68803">
        <ele>774</ele>
        <time>2019-11-29T09:46:11.000Z</time>
      </trkpt>
      <trkpt lat="43.30832" lon="5.68803">
        <ele>773</ele>
        <time>2019-11-29T09:46:12.000Z</time>
      </trkpt>
      <trkpt lat="43.30832" lon="5.68802">
        <ele>773</ele>
        <time>2019-11-29T09:46:13.000Z</time>
      </trkpt>
      <trkpt lat="43.30831" lon="5.68801">
        <ele>773</ele>
        <time>2019-11-29T09:46:14.000Z</time>
      </trkpt>
      <trkpt lat="43.30829" lon="5.688">
        <ele>773</ele>
        <time>2019-11-29T09:46:15.000Z</time>
      </trkpt>
      <trkpt lat="43.30828" lon="5.688">
        <ele>773</ele>
        <time>2019-11-29T09:46:16.000Z</time>
      </trkpt>
      <trkpt lat="43.30826" lon="5.68799">
        <ele>772</ele>
        <time>2019-11-29T09:46:17.000Z</time>
      </trkpt>
      <trkpt lat="43.30825" lon="5.68798">
        <ele>772</ele>
        <time>2019-11-29T09:46:18.000Z</time>
      </trkpt>
      <trkpt lat="43.30824" lon="5.68797">
        <ele>772</ele>
        <time>2019-11-29T09:46:19.000Z</time>
      </trkpt>
      <trkpt lat="43.30823" lon="5.68797">
        <ele>772</ele>
        <time>2019-11-29T09:46:20.000Z</time>
      </trkpt>
      <trkpt lat="43.30822" lon="5.68797">
        <ele>772</ele>
        <time>2019-11-29T09:46:21.000Z</time>
      </trkpt>
      <trkpt lat="43.30821" lon="5.68797">
        <ele>772</ele>
        <time>2019-11-29T09:46:22.000Z</time>
      </trkpt>
      <trkpt lat="43.3082" lon="5.68797">
        <ele>772</ele>
        <time>2019-11-29T09:46:23.000Z</time>
      </trkpt>
      <trkpt lat="43.30818" lon="5.68798">
        <ele>772</ele>
        <time>2019-11-29T09:46:24.000Z</time>
      </trkpt>
      <trkpt lat="43.30817" lon="5.68798">
        <ele>772</ele>
        <time>2019-11-29T09:46:25.000Z</time>
      </trkpt>
      <trkpt lat="43.30816" lon="5.68798">
        <ele>772</ele>
        <time>2019-11-29T09:46:26.000Z</time>
      </trkpt>
      <trkpt lat="43.30814" lon="5.68797">
        <ele>771</ele>
        <time>2019-11-29T09:46:27.000Z</time>
      </trkpt>
      <trkpt lat="43.30813" lon="5.68797">
        <ele>771</ele>
        <time>2019-11-29T09:46:28.000Z</time>
      </trkpt>
      <trkpt lat="43.30812" lon="5.68796">
        <ele>771</ele>
        <time>2019-11-29T09:46:29.000Z</time>
      </trkpt>
      <trkpt lat="43.30811" lon="5.68795">
        <ele>771</ele>
        <time>2019-11-29T09:46:30.000Z</time>
      </trkpt>
      <trkpt lat="43.3081" lon="5.68794">
        <ele>771</ele>
        <time>2019-11-29T09:46:31.000Z</time>
      </trkpt>
      <trkpt lat="43.30809" lon="5.68793">
        <ele>771</ele>
        <time>2019-11-29T09:46:32.000Z</time>
      </trkpt>
      <trkpt lat="43.30808" lon="5.68792">
        <ele>771</ele>
        <time>2019-11-29T09:46:33.000Z</time>
      </trkpt>
      <trkpt lat="43.30806" lon="5.68791">
        <ele>770</ele>
        <time>2019-11-29T09:46:34.000Z</time>
      </trkpt>
      <trkpt lat="43.30805" lon="5.6879">
        <ele>770</ele>
        <time>2019-11-29T09:46:35.000Z</time>
      </trkpt>
      <trkpt lat="43.30803" lon="5.6879">
        <ele>770</ele>
        <time>2019-11-29T09:46:36.000Z</time>
      </trkpt>
      <trkpt lat="43.30802" lon="5.68789">
        <ele>770</ele>
        <time>2019-11-29T09:46:37.000Z</time>
      </trkpt>
      <trkpt lat="43.30801" lon="5.68789">
        <ele>769</ele>
        <time>2019-11-29T09:46:38.000Z</time>
      </trkpt>
      <trkpt lat="43.308" lon="5.68788">
        <ele>769</ele>
        <time>2019-11-29T09:46:39.000Z</time>
      </trkpt>
      <trkpt lat="43.30798" lon="5.68788">
        <ele>769</ele>
        <time>2019-11-29T09:46:40.000Z</time>
      </trkpt>
      <trkpt lat="43.30797" lon="5.68787">
        <ele>768</ele>
        <time>2019-11-29T09:46:41.000Z</time>
      </trkpt>
      <trkpt lat="43.30796" lon="5.68786">
        <ele>768</ele>
        <time>2019-11-29T09:46:42.000Z</time>
      </trkpt>
      <trkpt lat="43.30795" lon="5.68785">
        <ele>768</ele>
        <time>2019-11-29T09:46:43.000Z</time>
      </trkpt>
      <trkpt lat="43.30795" lon="5.68784">
        <ele>767</ele>
        <time>2019-11-29T09:46:44.000Z</time>
      </trkpt>
      <trkpt lat="43.30795" lon="5.68783">
        <ele>767</ele>
        <time>2019-11-29T09:46:45.000Z</time>
      </trkpt>
      <trkpt lat="43.30794" lon="5.68782">
        <ele>767</ele>
        <time>2019-11-29T09:46:46.000Z</time>
      </trkpt>
      <trkpt lat="43.30793" lon="5.68782">
        <ele>766</ele>
        <time>2019-11-29T09:46:47.000Z</time>
      </trkpt>
      <trkpt lat="43.30793" lon="5.68781">
        <ele>766</ele>
        <time>2019-11-29T09:46:48.000Z</time>
      </trkpt>
      <trkpt lat="43.30792" lon="5.68781">
        <ele>766</ele>
        <time>2019-11-29T09:46:49.000Z</time>
      </trkpt>
      <trkpt lat="43.30791" lon="5.6878">
        <ele>766</ele>
        <time>2019-11-29T09:46:50.000Z</time>
      </trkpt>
      <trkpt lat="43.3079" lon="5.68779">
        <ele>766</ele>
        <time>2019-11-29T09:46:51.000Z</time>
      </trkpt>
      <trkpt lat="43.30789" lon="5.68779">
        <ele>765</ele>
        <time>2019-11-29T09:46:52.000Z</time>
      </trkpt>
      <trkpt lat="43.30788" lon="5.68779">
        <ele>765</ele>
        <time>2019-11-29T09:46:53.000Z</time>
      </trkpt>
      <trkpt lat="43.30788" lon="5.68779">
        <ele>765</ele>
        <time>2019-11-29T09:46:54.000Z</time>
      </trkpt>
      <trkpt lat="43.30787" lon="5.68779">
        <ele>765</ele>
        <time>2019-11-29T09:46:55.000Z</time>
      </trkpt>
      <trkpt lat="43.30786" lon="5.68778">
        <ele>764</ele>
        <time>2019-11-29T09:46:56.000Z</time>
      </trkpt>
      <trkpt lat="43.30785" lon="5.68778">
        <ele>764</ele>
        <time>2019-11-29T09:46:57.000Z</time>
      </trkpt>
      <trkpt lat="43.30785" lon="5.68777">
        <ele>764</ele>
        <time>2019-11-29T09:46:58.000Z</time>
      </trkpt>
      <trkpt lat="43.30784" lon="5.68776">
        <ele>764</ele>
        <time>2019-11-29T09:46:59.000Z</time>
      </trkpt>
      <trkpt lat="43.30783" lon="5.68775">
        <ele>763</ele>
        <time>2019-11-29T09:47:00.000Z</time>
      </trkpt>
      <trkpt lat="43.30782" lon="5.68774">
        <ele>763</ele>
        <time>2019-11-29T09:47:01.000Z</time>
      </trkpt>
      <trkpt lat="43.30782" lon="5.68773">
        <ele>763</ele>
        <time>2019-11-29T09:47:02.000Z</time>
      </trkpt>
      <trkpt lat="43.30781" lon="5.68773">
        <ele>763</ele>
        <time>2019-11-29T09:47:03.000Z</time>
      </trkpt>
      <trkpt lat="43.30781" lon="5.68772">
        <ele>763</ele>
        <time>2019-11-29T09:47:04.000Z</time>
      </trkpt>
      <trkpt lat="43.3078" lon="5.68771">
        <ele>762</ele>
        <time>2019-11-29T09:47:05.000Z</time>
      </trkpt>
      <trkpt lat="43.3078" lon="5.6877">
        <ele>762</ele>
        <time>2019-11-29T09:47:06.000Z</time>
      </trkpt>
      <trkpt lat="43.30779" lon="5.68769">
        <ele>762</ele>
        <time>2019-11-29T09:47:07.000Z</time>
      </trkpt>
      <trkpt lat="43.30778" lon="5.68768">
        <ele>762</ele>
        <time>2019-11-29T09:47:08.000Z</time>
      </trkpt>
      <trkpt lat="43.30777" lon="5.68767">
        <ele>762</ele>
        <time>2019-11-29T09:47:09.000Z</time>
      </trkpt>
      <trkpt lat="43.30776" lon="5.68767">
        <ele>762</ele>
        <time>2019-11-29T09:47:10.000Z</time>
      </trkpt>
      <trkpt lat="43.30775" lon="5.68766">
        <ele>762</ele>
        <time>2019-11-29T09:47:11.000Z</time>
      </trkpt>
      <trkpt lat="43.30774" lon="5.68766">
        <ele>762</ele>
        <time>2019-11-29T09:47:12.000Z</time>
      </trkpt>
      <trkpt lat="43.30773" lon="5.68766">
        <ele>761</ele>
        <time>2019-11-29T09:47:13.000Z</time>
      </trkpt>
      <trkpt lat="43.30771" lon="5.68765">
        <ele>761</ele>
        <time>2019-11-29T09:47:14.000Z</time>
      </trkpt>
      <trkpt lat="43.3077" lon="5.68765">
        <ele>761</ele>
        <time>2019-11-29T09:47:15.000Z</time>
      </trkpt>
      <trkpt lat="43.30769" lon="5.68764">
        <ele>761</ele>
        <time>2019-11-29T09:47:16.000Z</time>
      </trkpt>
      <trkpt lat="43.30768" lon="5.68763">
        <ele>761</ele>
        <time>2019-11-29T09:47:17.000Z</time>
      </trkpt>
      <trkpt lat="43.30767" lon="5.68762">
        <ele>761</ele>
        <time>2019-11-29T09:47:18.000Z</time>
      </trkpt>
      <trkpt lat="43.30766" lon="5.68762">
        <ele>761</ele>
        <time>2019-11-29T09:47:19.000Z</time>
      </trkpt>
      <trkpt lat="43.30765" lon="5.68761">
        <ele>760</ele>
        <time>2019-11-29T09:47:20.000Z</time>
      </trkpt>
      <trkpt lat="43.30763" lon="5.68761">
        <ele>760</ele>
        <time>2019-11-29T09:47:21.000Z</time>
      </trkpt>
      <trkpt lat="43.30762" lon="5.68761">
        <ele>760</ele>
        <time>2019-11-29T09:47:22.000Z</time>
      </trkpt>
      <trkpt lat="43.30761" lon="5.6876">
        <ele>760</ele>
        <time>2019-11-29T09:47:23.000Z</time>
      </trkpt>
      <trkpt lat="43.3076" lon="5.68759">
        <ele>760</ele>
        <time>2019-11-29T09:47:24.000Z</time>
      </trkpt>
      <trkpt lat="43.30759" lon="5.68759">
        <ele>760</ele>
        <time>2019-11-29T09:47:25.000Z</time>
      </trkpt>
      <trkpt lat="43.30758" lon="5.68758">
        <ele>760</ele>
        <time>2019-11-29T09:47:26.000Z</time>
      </trkpt>
      <trkpt lat="43.30757" lon="5.68757">
        <ele>760</ele>
        <time>2019-11-29T09:47:27.000Z</time>
      </trkpt>
      <trkpt lat="43.30756" lon="5.68756">
        <ele>760</ele>
        <time>2019-11-29T09:47:28.000Z</time>
      </trkpt>
      <trkpt lat="43.30755" lon="5.68755">
        <ele>760</ele>
        <time>2019-11-29T09:47:29.000Z</time>
      </trkpt>
      <trkpt lat="43.30754" lon="5.68755">
        <ele>760</ele>
        <time>2019-11-29T09:47:30.000Z</time>
      </trkpt>
      <trkpt lat="43.30752" lon="5.68755">
        <ele>760</ele>
        <time>2019-11-29T09:47:31.000Z</time>
      </trkpt>
      <trkpt lat="43.30751" lon="5.68754">
        <ele>760</ele>
        <time>2019-11-29T09:47:32.000Z</time>
      </trkpt>
      <trkpt lat="43.3075" lon="5.68754">
        <ele>760</ele>
        <time>2019-11-29T09:47:33.000Z</time>
      </trkpt>
      <trkpt lat="43.30749" lon="5.68753">
        <ele>760</ele>
        <time>2019-11-29T09:47:34.000Z</time>
      </trkpt>
      <trkpt lat="43.30748" lon="5.68753">
        <ele>759</ele>
        <time>2019-11-29T09:47:35.000Z</time>
      </trkpt>
      <trkpt lat="43.30747" lon="5.68752">
        <ele>759</ele>
        <time>2019-11-29T09:47:36.000Z</time>
      </trkpt>
      <trkpt lat="43.30746" lon="5.68751">
        <ele>759</ele>
        <time>2019-11-29T09:47:37.000Z</time>
      </trkpt>
      <trkpt lat="43.30745" lon="5.68751">
        <ele>759</ele>
        <time>2019-11-29T09:47:38.000Z</time>
      </trkpt>
      <trkpt lat="43.30744" lon="5.6875">
        <ele>759</ele>
        <time>2019-11-29T09:47:39.000Z</time>
      </trkpt>
      <trkpt lat="43.30742" lon="5.68749">
        <ele>759</ele>
        <time>2019-11-29T09:47:40.000Z</time>
      </trkpt>
      <trkpt lat="43.30741" lon="5.68749">
        <ele>759</ele>
        <time>2019-11-29T09:47:41.000Z</time>
      </trkpt>
      <trkpt lat="43.3074" lon="5.68748">
        <ele>759</ele>
        <time>2019-11-29T09:47:42.000Z</time>
      </trkpt>
      <trkpt lat="43.30739" lon="5.68748">
        <ele>759</ele>
        <time>2019-11-29T09:47:43.000Z</time>
      </trkpt>
      <trkpt lat="43.30738" lon="5.68747">
        <ele>758</ele>
        <time>2019-11-29T09:47:44.000Z</time>
      </trkpt>
      <trkpt lat="43.30736" lon="5.68747">
        <ele>758</ele>
        <time>2019-11-29T09:47:45.000Z</time>
      </trkpt>
      <trkpt lat="43.30735" lon="5.68746">
        <ele>758</ele>
        <time>2019-11-29T09:47:46.000Z</time>
      </trkpt>
      <trkpt lat="43.30734" lon="5.68745">
        <ele>758</ele>
        <time>2019-11-29T09:47:47.000Z</time>
      </trkpt>
      <trkpt lat="43.30733" lon="5.68745">
        <ele>758</ele>
        <time>2019-11-29T09:47:48.000Z</time>
      </trkpt>
      <trkpt lat="43.30732" lon="5.68745">
        <ele>758</ele>
        <time>2019-11-29T09:47:49.000Z</time>
      </trkpt>
      <trkpt lat="43.30731" lon="5.68745">
        <ele>758</ele>
        <time>2019-11-29T09:47:50.000Z</time>
      </trkpt>
      <trkpt lat="43.30729" lon="5.68745">
        <ele>758</ele>
        <time>2019-11-29T09:47:51.000Z</time>
      </trkpt>
      <trkpt lat="43.30728" lon="5.68746">
        <ele>758</ele>
        <time>2019-11-29T09:47:52.000Z</time>
      </trkpt>
      <trkpt lat="43.30727" lon="5.68745">
        <ele>758</ele>
        <time>2019-11-29T09:47:53.000Z</time>
      </trkpt>
      <trkpt lat="43.30726" lon="5.68744">
        <ele>758</ele>
        <time>2019-11-29T09:47:54.000Z</time>
      </trkpt>
      <trkpt lat="43.30725" lon="5.68744">
        <ele>758</ele>
        <time>2019-11-29T09:47:55.000Z</time>
      </trkpt>
      <trkpt lat="43.30724" lon="5.68743">
        <ele>758</ele>
        <time>2019-11-29T09:47:56.000Z</time>
      </trkpt>
      <trkpt lat="43.30723" lon="5.68743">
        <ele>758</ele>
        <time>2019-11-29T09:47:57.000Z</time>
      </trkpt>
      <trkpt lat="43.30723" lon="5.68743">
        <ele>758</ele>
        <time>2019-11-29T09:47:58.000Z</time>
      </trkpt>
      <trkpt lat="43.30721" lon="5.68743">
        <ele>758</ele>
        <time>2019-11-29T09:47:59.000Z</time>
      </trkpt>
      <trkpt lat="43.3072" lon="5.68743">
        <ele>758</ele>
        <time>2019-11-29T09:48:00.000Z</time>
      </trkpt>
      <trkpt lat="43.30719" lon="5.68743">
        <ele>758</ele>
        <time>2019-11-29T09:48:01.000Z</time>
      </trkpt>
      <trkpt lat="43.30718" lon="5.68743">
        <ele>758</ele>
        <time>2019-11-29T09:48:02.000Z</time>
      </trkpt>
      <trkpt lat="43.30717" lon="5.68743">
        <ele>758</ele>
        <time>2019-11-29T09:48:03.000Z</time>
      </trkpt>
      <trkpt lat="43.30716" lon="5.68743">
        <ele>758</ele>
        <time>2019-11-29T09:48:04.000Z</time>
      </trkpt>
      <trkpt lat="43.30714" lon="5.68744">
        <ele>758</ele>
        <time>2019-11-29T09:48:05.000Z</time>
      </trkpt>
      <trkpt lat="43.30713" lon="5.68745">
        <ele>758</ele>
        <time>2019-11-29T09:48:06.000Z</time>
      </trkpt>
      <trkpt lat="43.30712" lon="5.68746">
        <ele>758</ele>
        <time>2019-11-29T09:48:07.000Z</time>
      </trkpt>
      <trkpt lat="43.30711" lon="5.68748">
        <ele>758</ele>
        <time>2019-11-29T09:48:08.000Z</time>
      </trkpt>
      <trkpt lat="43.3071" lon="5.68748">
        <ele>758</ele>
        <time>2019-11-29T09:48:09.000Z</time>
      </trkpt>
      <trkpt lat="43.30709" lon="5.68748">
        <ele>758</ele>
        <time>2019-11-29T09:48:10.000Z</time>
      </trkpt>
      <trkpt lat="43.30707" lon="5.68748">
        <ele>758</ele>
        <time>2019-11-29T09:48:11.000Z</time>
      </trkpt>
      <trkpt lat="43.30706" lon="5.68748">
        <ele>758</ele>
        <time>2019-11-29T09:48:12.000Z</time>
      </trkpt>
      <trkpt lat="43.30705" lon="5.68749">
        <ele>758</ele>
        <time>2019-11-29T09:48:13.000Z</time>
      </trkpt>
      <trkpt lat="43.30705" lon="5.6875">
        <ele>758</ele>
        <time>2019-11-29T09:48:14.000Z</time>
      </trkpt>
      <trkpt lat="43.30704" lon="5.68751">
        <ele>758</ele>
        <time>2019-11-29T09:48:15.000Z</time>
      </trkpt>
      <trkpt lat="43.30702" lon="5.68751">
        <ele>758</ele>
        <time>2019-11-29T09:48:16.000Z</time>
      </trkpt>
      <trkpt lat="43.30701" lon="5.68752">
        <ele>758</ele>
        <time>2019-11-29T09:48:17.000Z</time>
      </trkpt>
      <trkpt lat="43.307" lon="5.68751">
        <ele>758</ele>
        <time>2019-11-29T09:48:18.000Z</time>
      </trkpt>
      <trkpt lat="43.30699" lon="5.68751">
        <ele>758</ele>
        <time>2019-11-29T09:48:19.000Z</time>
      </trkpt>
      <trkpt lat="43.30698" lon="5.6875">
        <ele>758</ele>
        <time>2019-11-29T09:48:20.000Z</time>
      </trkpt>
      <trkpt lat="43.30696" lon="5.6875">
        <ele>758</ele>
        <time>2019-11-29T09:48:21.000Z</time>
      </trkpt>
      <trkpt lat="43.30695" lon="5.6875">
        <ele>758</ele>
        <time>2019-11-29T09:48:22.000Z</time>
      </trkpt>
      <trkpt lat="43.30694" lon="5.6875">
        <ele>758</ele>
        <time>2019-11-29T09:48:23.000Z</time>
      </trkpt>
      <trkpt lat="43.30692" lon="5.6875">
        <ele>758</ele>
        <time>2019-11-29T09:48:24.000Z</time>
      </trkpt>
      <trkpt lat="43.30691" lon="5.6875">
        <ele>758</ele>
        <time>2019-11-29T09:48:25.000Z</time>
      </trkpt>
      <trkpt lat="43.3069" lon="5.6875">
        <ele>758</ele>
        <time>2019-11-29T09:48:26.000Z</time>
      </trkpt>
      <trkpt lat="43.30688" lon="5.68751">
        <ele>758</ele>
        <time>2019-11-29T09:48:27.000Z</time>
      </trkpt>
      <trkpt lat="43.30687" lon="5.68751">
        <ele>758</ele>
        <time>2019-11-29T09:48:28.000Z</time>
      </trkpt>
      <trkpt lat="43.30686" lon="5.68751">
        <ele>758</ele>
        <time>2019-11-29T09:48:29.000Z</time>
      </trkpt>
      <trkpt lat="43.30684" lon="5.68751">
        <ele>758</ele>
        <time>2019-11-29T09:48:30.000Z</time>
      </trkpt>
      <trkpt lat="43.30683" lon="5.68752">
        <ele>758</ele>
        <time>2019-11-29T09:48:31.000Z</time>
      </trkpt>
      <trkpt lat="43.30682" lon="5.68752">
        <ele>758</ele>
        <time>2019-11-29T09:48:32.000Z</time>
      </trkpt>
      <trkpt lat="43.3068" lon="5.68752">
        <ele>758</ele>
        <time>2019-11-29T09:48:33.000Z</time>
      </trkpt>
      <trkpt lat="43.30679" lon="5.68752">
        <ele>758</ele>
        <time>2019-11-29T09:48:34.000Z</time>
      </trkpt>
      <trkpt lat="43.30678" lon="5.68752">
        <ele>758</ele>
        <time>2019-11-29T09:48:35.000Z</time>
      </trkpt>
      <trkpt lat="43.30678" lon="5.68752">
        <ele>758</ele>
        <time>2019-11-29T09:48:36.000Z</time>
      </trkpt>
      <trkpt lat="43.30677" lon="5.68751">
        <ele>758</ele>
        <time>2019-11-29T09:48:37.000Z</time>
      </trkpt>
      <trkpt lat="43.30676" lon="5.68751">
        <ele>758</ele>
        <time>2019-11-29T09:48:38.000Z</time>
      </trkpt>
      <trkpt lat="43.30675" lon="5.68751">
        <ele>758</ele>
        <time>2019-11-29T09:48:39.000Z</time>
      </trkpt>
      <trkpt lat="43.30674" lon="5.6875">
        <ele>758</ele>
        <time>2019-11-29T09:48:40.000Z</time>
      </trkpt>
      <trkpt lat="43.30674" lon="5.6875">
        <ele>758</ele>
        <time>2019-11-29T09:48:41.000Z</time>
      </trkpt>
      <trkpt lat="43.30673" lon="5.6875">
        <ele>758</ele>
        <time>2019-11-29T09:48:42.000Z</time>
      </trkpt>
      <trkpt lat="43.30672" lon="5.6875">
        <ele>758</ele>
        <time>2019-11-29T09:48:43.000Z</time>
      </trkpt>
      <trkpt lat="43.30671" lon="5.68749">
        <ele>758</ele>
        <time>2019-11-29T09:48:44.000Z</time>
      </trkpt>
      <trkpt lat="43.3067" lon="5.68749">
        <ele>758</ele>
        <time>2019-11-29T09:48:45.000Z</time>
      </trkpt>
      <trkpt lat="43.30669" lon="5.68748">
        <ele>758</ele>
        <time>2019-11-29T09:48:46.000Z</time>
      </trkpt>
      <trkpt lat="43.30668" lon="5.68748">
        <ele>758</ele>
        <time>2019-11-29T09:48:47.000Z</time>
      </trkpt>
      <trkpt lat="43.30667" lon="5.68747">
        <ele>758</ele>
        <time>2019-11-29T09:48:48.000Z</time>
      </trkpt>
      <trkpt lat="43.30666" lon="5.68747">
        <ele>758</ele>
        <time>2019-11-29T09:48:49.000Z</time>
      </trkpt>
      <trkpt lat="43.30666" lon="5.68746">
        <ele>758</ele>
        <time>2019-11-29T09:48:50.000Z</time>
      </trkpt>
      <trkpt lat="43.30665" lon="5.68746">
        <ele>758</ele>
        <time>2019-11-29T09:48:51.000Z</time>
      </trkpt>
      <trkpt lat="43.30664" lon="5.68745">
        <ele>758</ele>
        <time>2019-11-29T09:48:52.000Z</time>
      </trkpt>
      <trkpt lat="43.30664" lon="5.68745">
        <ele>758</ele>
        <time>2019-11-29T09:48:53.000Z</time>
      </trkpt>
      <trkpt lat="43.30663" lon="5.68745">
        <ele>758</ele>
        <time>2019-11-29T09:48:54.000Z</time>
      </trkpt>
      <trkpt lat="43.30662" lon="5.68745">
        <ele>758</ele>
        <time>2019-11-29T09:48:55.000Z</time>
      </trkpt>
      <trkpt lat="43.30661" lon="5.68744">
        <ele>758</ele>
        <time>2019-11-29T09:48:56.000Z</time>
      </trkpt>
      <trkpt lat="43.3066" lon="5.68744">
        <ele>759</ele>
        <time>2019-11-29T09:48:57.000Z</time>
      </trkpt>
      <trkpt lat="43.3066" lon="5.68744">
        <ele>759</ele>
        <time>2019-11-29T09:48:58.000Z</time>
      </trkpt>
      <trkpt lat="43.30659" lon="5.68744">
        <ele>759</ele>
        <time>2019-11-29T09:48:59.000Z</time>
      </trkpt>
      <trkpt lat="43.30659" lon="5.68743">
        <ele>760</ele>
        <time>2019-11-29T09:49:00.000Z</time>
      </trkpt>
      <trkpt lat="43.30658" lon="5.68743">
        <ele>760</ele>
        <time>2019-11-29T09:49:01.000Z</time>
      </trkpt>
      <trkpt lat="43.30657" lon="5.68743">
        <ele>760</ele>
        <time>2019-11-29T09:49:02.000Z</time>
      </trkpt>
      <trkpt lat="43.30657" lon="5.68743">
        <ele>760</ele>
        <time>2019-11-29T09:49:03.000Z</time>
      </trkpt>
      <trkpt lat="43.30656" lon="5.68742">
        <ele>761</ele>
        <time>2019-11-29T09:49:04.000Z</time>
      </trkpt>
      <trkpt lat="43.30655" lon="5.68741">
        <ele>761</ele>
        <time>2019-11-29T09:49:05.000Z</time>
      </trkpt>
      <trkpt lat="43.30654" lon="5.6874">
        <ele>761</ele>
        <time>2019-11-29T09:49:06.000Z</time>
      </trkpt>
      <trkpt lat="43.30653" lon="5.68739">
        <ele>761</ele>
        <time>2019-11-29T09:49:07.000Z</time>
      </trkpt>
      <trkpt lat="43.30653" lon="5.68739">
        <ele>761</ele>
        <time>2019-11-29T09:49:08.000Z</time>
      </trkpt>
      <trkpt lat="43.30652" lon="5.68738">
        <ele>761</ele>
        <time>2019-11-29T09:49:09.000Z</time>
      </trkpt>
      <trkpt lat="43.30651" lon="5.68737">
        <ele>762</ele>
        <time>2019-11-29T09:49:10.000Z</time>
      </trkpt>
      <trkpt lat="43.3065" lon="5.68737">
        <ele>762</ele>
        <time>2019-11-29T09:49:11.000Z</time>
      </trkpt>
      <trkpt lat="43.30649" lon="5.68736">
        <ele>762</ele>
        <time>2019-11-29T09:49:12.000Z</time>
      </trkpt>
      <trkpt lat="43.30649" lon="5.68735">
        <ele>762</ele>
        <time>2019-11-29T09:49:13.000Z</time>
      </trkpt>
      <trkpt lat="43.30648" lon="5.68735">
        <ele>762</ele>
        <time>2019-11-29T09:49:14.000Z</time>
      </trkpt>
      <trkpt lat="43.30648" lon="5.68735">
        <ele>762</ele>
        <time>2019-11-29T09:49:15.000Z</time>
      </trkpt>
      <trkpt lat="43.30648" lon="5.68735">
        <ele>762</ele>
        <time>2019-11-29T09:49:16.000Z</time>
      </trkpt>
      <trkpt lat="43.30648" lon="5.68735">
        <ele>762</ele>
        <time>2019-11-29T09:49:17.000Z</time>
      </trkpt>
      <trkpt lat="43.30648" lon="5.68735">
        <ele>762</ele>
        <time>2019-11-29T09:49:18.000Z</time>
      </trkpt>
      <trkpt lat="43.30648" lon="5.68735">
        <ele>762</ele>
        <time>2019-11-29T09:49:19.000Z</time>
      </trkpt>
      <trkpt lat="43.30648" lon="5.68735">
        <ele>762</ele>
        <time>2019-11-29T09:49:20.000Z</time>
      </trkpt>
      <trkpt lat="43.30648" lon="5.68735">
        <ele>763</ele>
        <time>2019-11-29T09:49:21.000Z</time>
      </trkpt>
      <trkpt lat="43.30648" lon="5.68735">
        <ele>763</ele>
        <time>2019-11-29T09:49:22.000Z</time>
      </trkpt>
      <trkpt lat="43.30648" lon="5.68735">
        <ele>763</ele>
        <time>2019-11-29T09:49:23.000Z</time>
      </trkpt>
      <trkpt lat="43.30648" lon="5.68735">
        <ele>763</ele>
        <time>2019-11-29T09:49:24.000Z</time>
      </trkpt>
      <trkpt lat="43.30648" lon="5.68735">
        <ele>763</ele>
        <time>2019-11-29T09:49:25.000Z</time>
      </trkpt>
      <trkpt lat="43.30648" lon="5.68735">
        <ele>763</ele>
        <time>2019-11-29T09:49:26.000Z</time>
      </trkpt>
      <trkpt lat="43.30648" lon="5.68735">
        <ele>763</ele>
        <time>2019-11-29T09:49:27.000Z</time>
      </trkpt>
      <trkpt lat="43.30648" lon="5.68735">
        <ele>763</ele>
        <time>2019-11-29T09:49:28.000Z</time>
      </trkpt>
      <trkpt lat="43.30648" lon="5.68735">
        <ele>763</ele>
        <time>2019-11-29T09:49:29.000Z</time>
      </trkpt>
      <trkpt lat="43.30648" lon="5.68735">
        <ele>763</ele>
        <time>2019-11-29T09:49:30.000Z</time>
      </trkpt>
      <trkpt lat="43.30648" lon="5.68735">
        <ele>763</ele>
        <time>2019-11-29T09:49:31.000Z</time>
      </trkpt>
      <trkpt lat="43.30648" lon="5.68735">
        <ele>763</ele>
        <time>2019-11-29T09:49:32.000Z</time>
      </trkpt>
      <trkpt lat="43.30648" lon="5.68735">
        <ele>763</ele>
        <time>2019-11-29T09:49:33.000Z</time>
      </trkpt>
      <trkpt lat="43.30648" lon="5.68735">
        <ele>763</ele>
        <time>2019-11-29T09:49:34.000Z</time>
      </trkpt>
      <trkpt lat="43.30648" lon="5.68735">
        <ele>763</ele>
        <time>2019-11-29T09:49:35.000Z</time>
      </trkpt>
      <trkpt lat="43.30648" lon="5.68735">
        <ele>763</ele>
        <time>2019-11-29T09:49:36.000Z</time>
      </trkpt>
      <trkpt lat="43.30648" lon="5.68735">
        <ele>763</ele>
        <time>2019-11-29T09:49:37.000Z</time>
      </trkpt>
      <trkpt lat="43.30648" lon="5.68735">
        <ele>763</ele>
        <time>2019-11-29T09:49:38.000Z</time>
      </trkpt>
      <trkpt lat="43.30648" lon="5.68735">
        <ele>763</ele>
        <time>2019-11-29T09:49:39.000Z</time>
      </trkpt>
      <trkpt lat="43.30648" lon="5.68735">
        <ele>763</ele>
        <time>2019-11-29T09:49:40.000Z</time>
      </trkpt>
      <trkpt lat="43.30648" lon="5.68735">
        <ele>763</ele>
        <time>2019-11-29T09:49:41.000Z</time>
      </trkpt>
      <trkpt lat="43.30648" lon="5.68735">
        <ele>763</ele>
        <time>2019-11-29T09:49:42.000Z</time>
      </trkpt>
      <trkpt lat="43.30648" lon="5.68735">
        <ele>763</ele>
        <time>2019-11-29T09:49:43.000Z</time>
      </trkpt>
      <trkpt lat="43.30648" lon="5.68735">
        <ele>763</ele>
        <time>2019-11-29T09:49:44.000Z</time>
      </trkpt>
      <trkpt lat="43.30648" lon="5.68735">
        <ele>763</ele>
        <time>2019-11-29T09:49:45.000Z</time>
      </trkpt>
      <trkpt lat="43.30648" lon="5.68735">
        <ele>763</ele>
        <time>2019-11-29T09:49:46.000Z</time>
      </trkpt>
      <trkpt lat="43.30648" lon="5.68735">
        <ele>763</ele>
        <time>2019-11-29T09:49:47.000Z</time>
      </trkpt>
      <trkpt lat="43.30648" lon="5.68735">
        <ele>763</ele>
        <time>2019-11-29T09:49:48.000Z</time>
      </trkpt>
      <trkpt lat="43.30648" lon="5.68735">
        <ele>763</ele>
        <time>2019-11-29T09:49:49.000Z</time>
      </trkpt>
      <trkpt lat="43.30648" lon="5.68735">
        <ele>764</ele>
        <time>2019-11-29T09:49:50.000Z</time>
      </trkpt>
      <trkpt lat="43.30647" lon="5.68734">
        <ele>764</ele>
        <time>2019-11-29T09:49:51.000Z</time>
      </trkpt>
      <trkpt lat="43.30647" lon="5.68734">
        <ele>764</ele>
        <time>2019-11-29T09:49:52.000Z</time>
      </trkpt>
      <trkpt lat="43.30646" lon="5.68733">
        <ele>764</ele>
        <time>2019-11-29T09:49:53.000Z</time>
      </trkpt>
      <trkpt lat="43.30645" lon="5.68732">
        <ele>764</ele>
        <time>2019-11-29T09:49:54.000Z</time>
      </trkpt>
      <trkpt lat="43.30644" lon="5.68732">
        <ele>764</ele>
        <time>2019-11-29T09:49:55.000Z</time>
      </trkpt>
      <trkpt lat="43.30644" lon="5.68731">
        <ele>764</ele>
        <time>2019-11-29T09:49:56.000Z</time>
      </trkpt>
      <trkpt lat="43.30643" lon="5.6873">
        <ele>764</ele>
        <time>2019-11-29T09:49:57.000Z</time>
      </trkpt>
      <trkpt lat="43.30643" lon="5.68729">
        <ele>764</ele>
        <time>2019-11-29T09:49:58.000Z</time>
      </trkpt>
      <trkpt lat="43.30642" lon="5.68728">
        <ele>764</ele>
        <time>2019-11-29T09:49:59.000Z</time>
      </trkpt>
      <trkpt lat="43.30642" lon="5.68728">
        <ele>764</ele>
        <time>2019-11-29T09:50:00.000Z</time>
      </trkpt>
      <trkpt lat="43.30641" lon="5.68727">
        <ele>764</ele>
        <time>2019-11-29T09:50:01.000Z</time>
      </trkpt>
      <trkpt lat="43.3064" lon="5.68727">
        <ele>764</ele>
        <time>2019-11-29T09:50:02.000Z</time>
      </trkpt>
      <trkpt lat="43.30639" lon="5.68726">
        <ele>764</ele>
        <time>2019-11-29T09:50:03.000Z</time>
      </trkpt>
      <trkpt lat="43.30639" lon="5.68725">
        <ele>765</ele>
        <time>2019-11-29T09:50:04.000Z</time>
      </trkpt>
      <trkpt lat="43.30638" lon="5.68724">
        <ele>765</ele>
        <time>2019-11-29T09:50:05.000Z</time>
      </trkpt>
      <trkpt lat="43.30637" lon="5.68723">
        <ele>765</ele>
        <time>2019-11-29T09:50:06.000Z</time>
      </trkpt>
      <trkpt lat="43.30637" lon="5.68723">
        <ele>765</ele>
        <time>2019-11-29T09:50:07.000Z</time>
      </trkpt>
      <trkpt lat="43.30636" lon="5.68722">
        <ele>765</ele>
        <time>2019-11-29T09:50:08.000Z</time>
      </trkpt>
      <trkpt lat="43.30635" lon="5.68722">
        <ele>765</ele>
        <time>2019-11-29T09:50:09.000Z</time>
      </trkpt>
      <trkpt lat="43.30635" lon="5.68721">
        <ele>765</ele>
        <time>2019-11-29T09:50:10.000Z</time>
      </trkpt>
      <trkpt lat="43.30634" lon="5.68721">
        <ele>765</ele>
        <time>2019-11-29T09:50:11.000Z</time>
      </trkpt>
      <trkpt lat="43.30633" lon="5.6872">
        <ele>765</ele>
        <time>2019-11-29T09:50:12.000Z</time>
      </trkpt>
      <trkpt lat="43.30633" lon="5.6872">
        <ele>765</ele>
        <time>2019-11-29T09:50:13.000Z</time>
      </trkpt>
      <trkpt lat="43.30632" lon="5.6872">
        <ele>765</ele>
        <time>2019-11-29T09:50:14.000Z</time>
      </trkpt>
      <trkpt lat="43.30631" lon="5.68719">
        <ele>766</ele>
        <time>2019-11-29T09:50:15.000Z</time>
      </trkpt>
      <trkpt lat="43.3063" lon="5.68718">
        <ele>766</ele>
        <time>2019-11-29T09:50:16.000Z</time>
      </trkpt>
      <trkpt lat="43.3063" lon="5.68718">
        <ele>766</ele>
        <time>2019-11-29T09:50:17.000Z</time>
      </trkpt>
      <trkpt lat="43.30629" lon="5.68717">
        <ele>766</ele>
        <time>2019-11-29T09:50:18.000Z</time>
      </trkpt>
      <trkpt lat="43.30628" lon="5.68717">
        <ele>766</ele>
        <time>2019-11-29T09:50:19.000Z</time>
      </trkpt>
      <trkpt lat="43.30627" lon="5.68717">
        <ele>766</ele>
        <time>2019-11-29T09:50:20.000Z</time>
      </trkpt>
      <trkpt lat="43.30626" lon="5.68716">
        <ele>766</ele>
        <time>2019-11-29T09:50:21.000Z</time>
      </trkpt>
      <trkpt lat="43.30626" lon="5.68716">
        <ele>766</ele>
        <time>2019-11-29T09:50:22.000Z</time>
      </trkpt>
      <trkpt lat="43.30625" lon="5.68716">
        <ele>766</ele>
        <time>2019-11-29T09:50:23.000Z</time>
      </trkpt>
      <trkpt lat="43.30624" lon="5.68715">
        <ele>766</ele>
        <time>2019-11-29T09:50:24.000Z</time>
      </trkpt>
      <trkpt lat="43.30623" lon="5.68715">
        <ele>766</ele>
        <time>2019-11-29T09:50:25.000Z</time>
      </trkpt>
      <trkpt lat="43.30623" lon="5.68715">
        <ele>766</ele>
        <time>2019-11-29T09:50:26.000Z</time>
      </trkpt>
      <trkpt lat="43.30622" lon="5.68714">
        <ele>766</ele>
        <time>2019-11-29T09:50:27.000Z</time>
      </trkpt>
      <trkpt lat="43.30622" lon="5.68714">
        <ele>767</ele>
        <time>2019-11-29T09:50:28.000Z</time>
      </trkpt>
      <trkpt lat="43.30621" lon="5.68713">
        <ele>767</ele>
        <time>2019-11-29T09:50:29.000Z</time>
      </trkpt>
      <trkpt lat="43.3062" lon="5.68713">
        <ele>767</ele>
        <time>2019-11-29T09:50:30.000Z</time>
      </trkpt>
      <trkpt lat="43.3062" lon="5.68713">
        <ele>767</ele>
        <time>2019-11-29T09:50:31.000Z</time>
      </trkpt>
      <trkpt lat="43.30619" lon="5.68712">
        <ele>767</ele>
        <time>2019-11-29T09:50:32.000Z</time>
      </trkpt>
      <trkpt lat="43.30618" lon="5.68711">
        <ele>767</ele>
        <time>2019-11-29T09:50:33.000Z</time>
      </trkpt>
      <trkpt lat="43.30618" lon="5.6871">
        <ele>767</ele>
        <time>2019-11-29T09:50:34.000Z</time>
      </trkpt>
      <trkpt lat="43.30617" lon="5.6871">
        <ele>767</ele>
        <time>2019-11-29T09:50:35.000Z</time>
      </trkpt>
      <trkpt lat="43.30616" lon="5.6871">
        <ele>768</ele>
        <time>2019-11-29T09:50:36.000Z</time>
      </trkpt>
      <trkpt lat="43.30615" lon="5.68709">
        <ele>768</ele>
        <time>2019-11-29T09:50:37.000Z</time>
      </trkpt>
      <trkpt lat="43.30615" lon="5.68709">
        <ele>768</ele>
        <time>2019-11-29T09:50:38.000Z</time>
      </trkpt>
      <trkpt lat="43.30614" lon="5.68709">
        <ele>768</ele>
        <time>2019-11-29T09:50:39.000Z</time>
      </trkpt>
      <trkpt lat="43.30613" lon="5.68709">
        <ele>768</ele>
        <time>2019-11-29T09:50:40.000Z</time>
      </trkpt>
      <trkpt lat="43.30612" lon="5.68709">
        <ele>768</ele>
        <time>2019-11-29T09:50:41.000Z</time>
      </trkpt>
      <trkpt lat="43.30611" lon="5.68709">
        <ele>768</ele>
        <time>2019-11-29T09:50:42.000Z</time>
      </trkpt>
      <trkpt lat="43.30611" lon="5.68708">
        <ele>768</ele>
        <time>2019-11-29T09:50:43.000Z</time>
      </trkpt>
      <trkpt lat="43.3061" lon="5.68708">
        <ele>768</ele>
        <time>2019-11-29T09:50:44.000Z</time>
      </trkpt>
      <trkpt lat="43.30609" lon="5.68708">
        <ele>768</ele>
        <time>2019-11-29T09:50:45.000Z</time>
      </trkpt>
      <trkpt lat="43.30608" lon="5.68708">
        <ele>768</ele>
        <time>2019-11-29T09:50:46.000Z</time>
      </trkpt>
      <trkpt lat="43.30608" lon="5.68708">
        <ele>768</ele>
        <time>2019-11-29T09:50:47.000Z</time>
      </trkpt>
      <trkpt lat="43.30607" lon="5.68708">
        <ele>768</ele>
        <time>2019-11-29T09:50:48.000Z</time>
      </trkpt>
      <trkpt lat="43.30607" lon="5.68708">
        <ele>768</ele>
        <time>2019-11-29T09:50:49.000Z</time>
      </trkpt>
      <trkpt lat="43.30606" lon="5.68708">
        <ele>768</ele>
        <time>2019-11-29T09:50:50.000Z</time>
      </trkpt>
      <trkpt lat="43.30606" lon="5.68708">
        <ele>769</ele>
        <time>2019-11-29T09:50:51.000Z</time>
      </trkpt>
      <trkpt lat="43.30605" lon="5.68708">
        <ele>769</ele>
        <time>2019-11-29T09:50:52.000Z</time>
      </trkpt>
      <trkpt lat="43.30604" lon="5.68708">
        <ele>769</ele>
        <time>2019-11-29T09:50:53.000Z</time>
      </trkpt>
      <trkpt lat="43.30604" lon="5.68708">
        <ele>769</ele>
        <time>2019-11-29T09:50:54.000Z</time>
      </trkpt>
      <trkpt lat="43.30603" lon="5.68707">
        <ele>769</ele>
        <time>2019-11-29T09:50:55.000Z</time>
      </trkpt>
      <trkpt lat="43.30602" lon="5.68707">
        <ele>770</ele>
        <time>2019-11-29T09:50:56.000Z</time>
      </trkpt>
      <trkpt lat="43.30602" lon="5.68707">
        <ele>770</ele>
        <time>2019-11-29T09:50:57.000Z</time>
      </trkpt>
      <trkpt lat="43.30601" lon="5.68707">
        <ele>770</ele>
        <time>2019-11-29T09:50:58.000Z</time>
      </trkpt>
      <trkpt lat="43.306" lon="5.68707">
        <ele>770</ele>
        <time>2019-11-29T09:50:59.000Z</time>
      </trkpt>
      <trkpt lat="43.306" lon="5.68707">
        <ele>770</ele>
        <time>2019-11-29T09:51:00.000Z</time>
      </trkpt>
      <trkpt lat="43.30599" lon="5.68708">
        <ele>770</ele>
        <time>2019-11-29T09:51:01.000Z</time>
      </trkpt>
      <trkpt lat="43.30599" lon="5.68708">
        <ele>770</ele>
        <time>2019-11-29T09:51:02.000Z</time>
      </trkpt>
      <trkpt lat="43.30598" lon="5.68709">
        <ele>771</ele>
        <time>2019-11-29T09:51:03.000Z</time>
      </trkpt>
      <trkpt lat="43.30598" lon="5.68709">
        <ele>771</ele>
        <time>2019-11-29T09:51:04.000Z</time>
      </trkpt>
      <trkpt lat="43.30597" lon="5.68709">
        <ele>771</ele>
        <time>2019-11-29T09:51:05.000Z</time>
      </trkpt>
      <trkpt lat="43.30597" lon="5.6871">
        <ele>771</ele>
        <time>2019-11-29T09:51:06.000Z</time>
      </trkpt>
      <trkpt lat="43.30596" lon="5.6871">
        <ele>771</ele>
        <time>2019-11-29T09:51:07.000Z</time>
      </trkpt>
      <trkpt lat="43.30595" lon="5.6871">
        <ele>771</ele>
        <time>2019-11-29T09:51:08.000Z</time>
      </trkpt>
      <trkpt lat="43.30595" lon="5.68709">
        <ele>771</ele>
        <time>2019-11-29T09:51:09.000Z</time>
      </trkpt>
      <trkpt lat="43.30594" lon="5.68709">
        <ele>771</ele>
        <time>2019-11-29T09:51:10.000Z</time>
      </trkpt>
      <trkpt lat="43.30594" lon="5.68709">
        <ele>772</ele>
        <time>2019-11-29T09:51:11.000Z</time>
      </trkpt>
      <trkpt lat="43.30593" lon="5.68708">
        <ele>772</ele>
        <time>2019-11-29T09:51:12.000Z</time>
      </trkpt>
      <trkpt lat="43.30592" lon="5.68708">
        <ele>772</ele>
        <time>2019-11-29T09:51:13.000Z</time>
      </trkpt>
      <trkpt lat="43.30592" lon="5.68708">
        <ele>772</ele>
        <time>2019-11-29T09:51:14.000Z</time>
      </trkpt>
      <trkpt lat="43.30591" lon="5.68708">
        <ele>772</ele>
        <time>2019-11-29T09:51:15.000Z</time>
      </trkpt>
      <trkpt lat="43.3059" lon="5.68708">
        <ele>772</ele>
        <time>2019-11-29T09:51:16.000Z</time>
      </trkpt>
      <trkpt lat="43.3059" lon="5.68708">
        <ele>772</ele>
        <time>2019-11-29T09:51:17.000Z</time>
      </trkpt>
      <trkpt lat="43.30589" lon="5.68707">
        <ele>773</ele>
        <time>2019-11-29T09:51:18.000Z</time>
      </trkpt>
      <trkpt lat="43.30588" lon="5.68707">
        <ele>773</ele>
        <time>2019-11-29T09:51:19.000Z</time>
      </trkpt>
      <trkpt lat="43.30588" lon="5.68706">
        <ele>773</ele>
        <time>2019-11-29T09:51:20.000Z</time>
      </trkpt>
      <trkpt lat="43.30588" lon="5.68705">
        <ele>773</ele>
        <time>2019-11-29T09:51:21.000Z</time>
      </trkpt>
      <trkpt lat="43.30587" lon="5.68705">
        <ele>773</ele>
        <time>2019-11-29T09:51:22.000Z</time>
      </trkpt>
      <trkpt lat="43.30587" lon="5.68704">
        <ele>773</ele>
        <time>2019-11-29T09:51:23.000Z</time>
      </trkpt>
      <trkpt lat="43.30587" lon="5.68703">
        <ele>773</ele>
        <time>2019-11-29T09:51:24.000Z</time>
      </trkpt>
      <trkpt lat="43.30586" lon="5.68703">
        <ele>773</ele>
        <time>2019-11-29T09:51:25.000Z</time>
      </trkpt>
      <trkpt lat="43.30586" lon="5.68702">
        <ele>773</ele>
        <time>2019-11-29T09:51:26.000Z</time>
      </trkpt>
      <trkpt lat="43.30585" lon="5.68702">
        <ele>773</ele>
        <time>2019-11-29T09:51:27.000Z</time>
      </trkpt>
      <trkpt lat="43.30584" lon="5.68702">
        <ele>774</ele>
        <time>2019-11-29T09:51:28.000Z</time>
      </trkpt>
      <trkpt lat="43.30584" lon="5.68701">
        <ele>774</ele>
        <time>2019-11-29T09:51:29.000Z</time>
      </trkpt>
      <trkpt lat="43.30583" lon="5.68701">
        <ele>774</ele>
        <time>2019-11-29T09:51:30.000Z</time>
      </trkpt>
      <trkpt lat="43.30582" lon="5.687">
        <ele>774</ele>
        <time>2019-11-29T09:51:31.000Z</time>
      </trkpt>
      <trkpt lat="43.30581" lon="5.687">
        <ele>774</ele>
        <time>2019-11-29T09:51:32.000Z</time>
      </trkpt>
      <trkpt lat="43.30581" lon="5.687">
        <ele>774</ele>
        <time>2019-11-29T09:51:33.000Z</time>
      </trkpt>
      <trkpt lat="43.3058" lon="5.68699">
        <ele>774</ele>
        <time>2019-11-29T09:51:34.000Z</time>
      </trkpt>
      <trkpt lat="43.30579" lon="5.68699">
        <ele>774</ele>
        <time>2019-11-29T09:51:35.000Z</time>
      </trkpt>
      <trkpt lat="43.30579" lon="5.68699">
        <ele>775</ele>
        <time>2019-11-29T09:51:36.000Z</time>
      </trkpt>
      <trkpt lat="43.30578" lon="5.68698">
        <ele>775</ele>
        <time>2019-11-29T09:51:37.000Z</time>
      </trkpt>
      <trkpt lat="43.30578" lon="5.68698">
        <ele>775</ele>
        <time>2019-11-29T09:51:38.000Z</time>
      </trkpt>
      <trkpt lat="43.30577" lon="5.68698">
        <ele>775</ele>
        <time>2019-11-29T09:51:39.000Z</time>
      </trkpt>
      <trkpt lat="43.30577" lon="5.68698">
        <ele>775</ele>
        <time>2019-11-29T09:51:40.000Z</time>
      </trkpt>
      <trkpt lat="43.30577" lon="5.68698">
        <ele>776</ele>
        <time>2019-11-29T09:51:41.000Z</time>
      </trkpt>
      <trkpt lat="43.30576" lon="5.68697">
        <ele>776</ele>
        <time>2019-11-29T09:51:42.000Z</time>
      </trkpt>
      <trkpt lat="43.30575" lon="5.68698">
        <ele>776</ele>
        <time>2019-11-29T09:51:43.000Z</time>
      </trkpt>
      <trkpt lat="43.30574" lon="5.68698">
        <ele>776</ele>
        <time>2019-11-29T09:51:44.000Z</time>
      </trkpt>
      <trkpt lat="43.30573" lon="5.68698">
        <ele>776</ele>
        <time>2019-11-29T09:51:45.000Z</time>
      </trkpt>
      <trkpt lat="43.30573" lon="5.68698">
        <ele>776</ele>
        <time>2019-11-29T09:51:46.000Z</time>
      </trkpt>
      <trkpt lat="43.30572" lon="5.68697">
        <ele>777</ele>
        <time>2019-11-29T09:51:47.000Z</time>
      </trkpt>
      <trkpt lat="43.30572" lon="5.68697">
        <ele>777</ele>
        <time>2019-11-29T09:51:48.000Z</time>
      </trkpt>
      <trkpt lat="43.30571" lon="5.68697">
        <ele>777</ele>
        <time>2019-11-29T09:51:49.000Z</time>
      </trkpt>
      <trkpt lat="43.30571" lon="5.68697">
        <ele>777</ele>
        <time>2019-11-29T09:51:50.000Z</time>
      </trkpt>
      <trkpt lat="43.30571" lon="5.68696">
        <ele>778</ele>
        <time>2019-11-29T09:51:51.000Z</time>
      </trkpt>
      <trkpt lat="43.3057" lon="5.68696">
        <ele>778</ele>
        <time>2019-11-29T09:51:52.000Z</time>
      </trkpt>
      <trkpt lat="43.3057" lon="5.68695">
        <ele>778</ele>
        <time>2019-11-29T09:51:53.000Z</time>
      </trkpt>
      <trkpt lat="43.3057" lon="5.68695">
        <ele>778</ele>
        <time>2019-11-29T09:51:54.000Z</time>
      </trkpt>
      <trkpt lat="43.30569" lon="5.68695">
        <ele>778</ele>
        <time>2019-11-29T09:51:55.000Z</time>
      </trkpt>
      <trkpt lat="43.30569" lon="5.68695">
        <ele>778</ele>
        <time>2019-11-29T09:51:56.000Z</time>
      </trkpt>
      <trkpt lat="43.30568" lon="5.68695">
        <ele>779</ele>
        <time>2019-11-29T09:51:57.000Z</time>
      </trkpt>
      <trkpt lat="43.30568" lon="5.68695">
        <ele>779</ele>
        <time>2019-11-29T09:51:58.000Z</time>
      </trkpt>
      <trkpt lat="43.30567" lon="5.68694">
        <ele>779</ele>
        <time>2019-11-29T09:51:59.000Z</time>
      </trkpt>
      <trkpt lat="43.30566" lon="5.68695">
        <ele>779</ele>
        <time>2019-11-29T09:52:00.000Z</time>
      </trkpt>
      <trkpt lat="43.30566" lon="5.68694">
        <ele>779</ele>
        <time>2019-11-29T09:52:01.000Z</time>
      </trkpt>
      <trkpt lat="43.30565" lon="5.68694">
        <ele>779</ele>
        <time>2019-11-29T09:52:02.000Z</time>
      </trkpt>
      <trkpt lat="43.30565" lon="5.68694">
        <ele>779</ele>
        <time>2019-11-29T09:52:03.000Z</time>
      </trkpt>
      <trkpt lat="43.30565" lon="5.68693">
        <ele>780</ele>
        <time>2019-11-29T09:52:04.000Z</time>
      </trkpt>
      <trkpt lat="43.30564" lon="5.68693">
        <ele>780</ele>
        <time>2019-11-29T09:52:05.000Z</time>
      </trkpt>
      <trkpt lat="43.30563" lon="5.68693">
        <ele>780</ele>
        <time>2019-11-29T09:52:06.000Z</time>
      </trkpt>
      <trkpt lat="43.30563" lon="5.68693">
        <ele>780</ele>
        <time>2019-11-29T09:52:07.000Z</time>
      </trkpt>
      <trkpt lat="43.30562" lon="5.68692">
        <ele>780</ele>
        <time>2019-11-29T09:52:08.000Z</time>
      </trkpt>
      <trkpt lat="43.30562" lon="5.68692">
        <ele>781</ele>
        <time>2019-11-29T09:52:09.000Z</time>
      </trkpt>
      <trkpt lat="43.30561" lon="5.68692">
        <ele>781</ele>
        <time>2019-11-29T09:52:10.000Z</time>
      </trkpt>
      <trkpt lat="43.30561" lon="5.68692">
        <ele>781</ele>
        <time>2019-11-29T09:52:11.000Z</time>
      </trkpt>
      <trkpt lat="43.30561" lon="5.68692">
        <ele>781</ele>
        <time>2019-11-29T09:52:12.000Z</time>
      </trkpt>
      <trkpt lat="43.3056" lon="5.68692">
        <ele>781</ele>
        <time>2019-11-29T09:52:13.000Z</time>
      </trkpt>
      <trkpt lat="43.30559" lon="5.68692">
        <ele>781</ele>
        <time>2019-11-29T09:52:14.000Z</time>
      </trkpt>
      <trkpt lat="43.30559" lon="5.68692">
        <ele>781</ele>
        <time>2019-11-29T09:52:15.000Z</time>
      </trkpt>
      <trkpt lat="43.30558" lon="5.68691">
        <ele>782</ele>
        <time>2019-11-29T09:52:16.000Z</time>
      </trkpt>
      <trkpt lat="43.30558" lon="5.68691">
        <ele>782</ele>
        <time>2019-11-29T09:52:17.000Z</time>
      </trkpt>
      <trkpt lat="43.30557" lon="5.68691">
        <ele>782</ele>
        <time>2019-11-29T09:52:18.000Z</time>
      </trkpt>
      <trkpt lat="43.30556" lon="5.6869">
        <ele>782</ele>
        <time>2019-11-29T09:52:19.000Z</time>
      </trkpt>
      <trkpt lat="43.30556" lon="5.6869">
        <ele>782</ele>
        <time>2019-11-29T09:52:20.000Z</time>
      </trkpt>
      <trkpt lat="43.30555" lon="5.6869">
        <ele>782</ele>
        <time>2019-11-29T09:52:21.000Z</time>
      </trkpt>
      <trkpt lat="43.30555" lon="5.6869">
        <ele>782</ele>
        <time>2019-11-29T09:52:22.000Z</time>
      </trkpt>
      <trkpt lat="43.30554" lon="5.6869">
        <ele>782</ele>
        <time>2019-11-29T09:52:23.000Z</time>
      </trkpt>
      <trkpt lat="43.30554" lon="5.6869">
        <ele>782</ele>
        <time>2019-11-29T09:52:24.000Z</time>
      </trkpt>
      <trkpt lat="43.30553" lon="5.6869">
        <ele>782</ele>
        <time>2019-11-29T09:52:25.000Z</time>
      </trkpt>
      <trkpt lat="43.30553" lon="5.6869">
        <ele>783</ele>
        <time>2019-11-29T09:52:26.000Z</time>
      </trkpt>
      <trkpt lat="43.30553" lon="5.6869">
        <ele>783</ele>
        <time>2019-11-29T09:52:27.000Z</time>
      </trkpt>
      <trkpt lat="43.30553" lon="5.6869">
        <ele>783</ele>
        <time>2019-11-29T09:52:28.000Z</time>
      </trkpt>
      <trkpt lat="43.30553" lon="5.6869">
        <ele>783</ele>
        <time>2019-11-29T09:52:29.000Z</time>
      </trkpt>
      <trkpt lat="43.30553" lon="5.6869">
        <ele>783</ele>
        <time>2019-11-29T09:52:30.000Z</time>
      </trkpt>
      <trkpt lat="43.30552" lon="5.6869">
        <ele>783</ele>
        <time>2019-11-29T09:52:31.000Z</time>
      </trkpt>
      <trkpt lat="43.30552" lon="5.6869">
        <ele>783</ele>
        <time>2019-11-29T09:52:32.000Z</time>
      </trkpt>
      <trkpt lat="43.30552" lon="5.68691">
        <ele>783</ele>
        <time>2019-11-29T09:52:33.000Z</time>
      </trkpt>
      <trkpt lat="43.30552" lon="5.68691">
        <ele>783</ele>
        <time>2019-11-29T09:52:34.000Z</time>
      </trkpt>
      <trkpt lat="43.30552" lon="5.68691">
        <ele>784</ele>
        <time>2019-11-29T09:52:35.000Z</time>
      </trkpt>
      <trkpt lat="43.30552" lon="5.68692">
        <ele>784</ele>
        <time>2019-11-29T09:52:36.000Z</time>
      </trkpt>
      <trkpt lat="43.30553" lon="5.68693">
        <ele>784</ele>
        <time>2019-11-29T09:52:37.000Z</time>
      </trkpt>
      <trkpt lat="43.30553" lon="5.68693">
        <ele>784</ele>
        <time>2019-11-29T09:52:38.000Z</time>
      </trkpt>
      <trkpt lat="43.30553" lon="5.68693">
        <ele>784</ele>
        <time>2019-11-29T09:52:39.000Z</time>
      </trkpt>
      <trkpt lat="43.30553" lon="5.68694">
        <ele>784</ele>
        <time>2019-11-29T09:52:40.000Z</time>
      </trkpt>
      <trkpt lat="43.30554" lon="5.68694">
        <ele>784</ele>
        <time>2019-11-29T09:52:41.000Z</time>
      </trkpt>
      <trkpt lat="43.30554" lon="5.68695">
        <ele>785</ele>
        <time>2019-11-29T09:52:42.000Z</time>
      </trkpt>
      <trkpt lat="43.30554" lon="5.68695">
        <ele>785</ele>
        <time>2019-11-29T09:52:43.000Z</time>
      </trkpt>
      <trkpt lat="43.30554" lon="5.68695">
        <ele>785</ele>
        <time>2019-11-29T09:52:44.000Z</time>
      </trkpt>
      <trkpt lat="43.30554" lon="5.68695">
        <ele>785</ele>
        <time>2019-11-29T09:52:45.000Z</time>
      </trkpt>
      <trkpt lat="43.30555" lon="5.68694">
        <ele>785</ele>
        <time>2019-11-29T09:52:46.000Z</time>
      </trkpt>
      <trkpt lat="43.30555" lon="5.68694">
        <ele>785</ele>
        <time>2019-11-29T09:52:47.000Z</time>
      </trkpt>
      <trkpt lat="43.30555" lon="5.68694">
        <ele>785</ele>
        <time>2019-11-29T09:52:48.000Z</time>
      </trkpt>
      <trkpt lat="43.30555" lon="5.68694">
        <ele>786</ele>
        <time>2019-11-29T09:52:49.000Z</time>
      </trkpt>
      <trkpt lat="43.30555" lon="5.68694">
        <ele>786</ele>
        <time>2019-11-29T09:52:50.000Z</time>
      </trkpt>
      <trkpt lat="43.30555" lon="5.68694">
        <ele>786</ele>
        <time>2019-11-29T09:52:51.000Z</time>
      </trkpt>
      <trkpt lat="43.30555" lon="5.68694">
        <ele>786</ele>
        <time>2019-11-29T09:52:52.000Z</time>
      </trkpt>
      <trkpt lat="43.30555" lon="5.68694">
        <ele>787</ele>
        <time>2019-11-29T09:52:53.000Z</time>
      </trkpt>
      <trkpt lat="43.30555" lon="5.68694">
        <ele>787</ele>
        <time>2019-11-29T09:52:54.000Z</time>
      </trkpt>
      <trkpt lat="43.30555" lon="5.68694">
        <ele>787</ele>
        <time>2019-11-29T09:52:55.000Z</time>
      </trkpt>
      <trkpt lat="43.30555" lon="5.68694">
        <ele>787</ele>
        <time>2019-11-29T09:52:56.000Z</time>
      </trkpt>
      <trkpt lat="43.30556" lon="5.68694">
        <ele>787</ele>
        <time>2019-11-29T09:52:57.000Z</time>
      </trkpt>
      <trkpt lat="43.30556" lon="5.68694">
        <ele>787</ele>
        <time>2019-11-29T09:52:58.000Z</time>
      </trkpt>
      <trkpt lat="43.30556" lon="5.68694">
        <ele>787</ele>
        <time>2019-11-29T09:52:59.000Z</time>
      </trkpt>
      <trkpt lat="43.30556" lon="5.68694">
        <ele>787</ele>
        <time>2019-11-29T09:53:00.000Z</time>
      </trkpt>
      <trkpt lat="43.30556" lon="5.68694">
        <ele>787</ele>
        <time>2019-11-29T09:53:01.000Z</time>
      </trkpt>
      <trkpt lat="43.30556" lon="5.68694">
        <ele>788</ele>
        <time>2019-11-29T09:53:02.000Z</time>
      </trkpt>
      <trkpt lat="43.30556" lon="5.68694">
        <ele>788</ele>
        <time>2019-11-29T09:53:03.000Z</time>
      </trkpt>
      <trkpt lat="43.30556" lon="5.68694">
        <ele>788</ele>
        <time>2019-11-29T09:53:04.000Z</time>
      </trkpt>
      <trkpt lat="43.30556" lon="5.68694">
        <ele>788</ele>
        <time>2019-11-29T09:53:05.000Z</time>
      </trkpt>
      <trkpt lat="43.30556" lon="5.68694">
        <ele>788</ele>
        <time>2019-11-29T09:53:06.000Z</time>
      </trkpt>
      <trkpt lat="43.30556" lon="5.68694">
        <ele>788</ele>
        <time>2019-11-29T09:53:07.000Z</time>
      </trkpt>
      <trkpt lat="43.30556" lon="5.68694">
        <ele>788</ele>
        <time>2019-11-29T09:53:08.000Z</time>
      </trkpt>
      <trkpt lat="43.30556" lon="5.68694">
        <ele>788</ele>
        <time>2019-11-29T09:53:09.000Z</time>
      </trkpt>
      <trkpt lat="43.30556" lon="5.68694">
        <ele>788</ele>
        <time>2019-11-29T09:53:10.000Z</time>
      </trkpt>
      <trkpt lat="43.30556" lon="5.68693">
        <ele>789</ele>
        <time>2019-11-29T09:53:11.000Z</time>
      </trkpt>
      <trkpt lat="43.30556" lon="5.68694">
        <ele>789</ele>
        <time>2019-11-29T09:53:12.000Z</time>
      </trkpt>
      <trkpt lat="43.30557" lon="5.68695">
        <ele>789</ele>
        <time>2019-11-29T09:53:13.000Z</time>
      </trkpt>
      <trkpt lat="43.30557" lon="5.68696">
        <ele>789</ele>
        <time>2019-11-29T09:53:14.000Z</time>
      </trkpt>
      <trkpt lat="43.30557" lon="5.68696">
        <ele>789</ele>
        <time>2019-11-29T09:53:15.000Z</time>
      </trkpt>
      <trkpt lat="43.30557" lon="5.68697">
        <ele>789</ele>
        <time>2019-11-29T09:53:16.000Z</time>
      </trkpt>
      <trkpt lat="43.30558" lon="5.68697">
        <ele>789</ele>
        <time>2019-11-29T09:53:17.000Z</time>
      </trkpt>
      <trkpt lat="43.30558" lon="5.68697">
        <ele>790</ele>
        <time>2019-11-29T09:53:18.000Z</time>
      </trkpt>
      <trkpt lat="43.30558" lon="5.68698">
        <ele>790</ele>
        <time>2019-11-29T09:53:19.000Z</time>
      </trkpt>
      <trkpt lat="43.30558" lon="5.68699">
        <ele>790</ele>
        <time>2019-11-29T09:53:20.000Z</time>
      </trkpt>
      <trkpt lat="43.30558" lon="5.68699">
        <ele>790</ele>
        <time>2019-11-29T09:53:21.000Z</time>
      </trkpt>
      <trkpt lat="43.30558" lon="5.68699">
        <ele>790</ele>
        <time>2019-11-29T09:53:22.000Z</time>
      </trkpt>
      <trkpt lat="43.30558" lon="5.68699">
        <ele>791</ele>
        <time>2019-11-29T09:53:23.000Z</time>
      </trkpt>
      <trkpt lat="43.30557" lon="5.68699">
        <ele>791</ele>
        <time>2019-11-29T09:53:24.000Z</time>
      </trkpt>
      <trkpt lat="43.30557" lon="5.68699">
        <ele>791</ele>
        <time>2019-11-29T09:53:25.000Z</time>
      </trkpt>
      <trkpt lat="43.30557" lon="5.68699">
        <ele>791</ele>
        <time>2019-11-29T09:53:26.000Z</time>
      </trkpt>
      <trkpt lat="43.30556" lon="5.68699">
        <ele>791</ele>
        <time>2019-11-29T09:53:27.000Z</time>
      </trkpt>
      <trkpt lat="43.30556" lon="5.68698">
        <ele>791</ele>
        <time>2019-11-29T09:53:28.000Z</time>
      </trkpt>
      <trkpt lat="43.30556" lon="5.68698">
        <ele>791</ele>
        <time>2019-11-29T09:53:29.000Z</time>
      </trkpt>
      <trkpt lat="43.30555" lon="5.68698">
        <ele>791</ele>
        <time>2019-11-29T09:53:30.000Z</time>
      </trkpt>
      <trkpt lat="43.30555" lon="5.68699">
        <ele>791</ele>
        <time>2019-11-29T09:53:31.000Z</time>
      </trkpt>
      <trkpt lat="43.30554" lon="5.68699">
        <ele>791</ele>
        <time>2019-11-29T09:53:32.000Z</time>
      </trkpt>
      <trkpt lat="43.30554" lon="5.68699">
        <ele>791</ele>
        <time>2019-11-29T09:53:33.000Z</time>
      </trkpt>
      <trkpt lat="43.30553" lon="5.68699">
        <ele>791</ele>
        <time>2019-11-29T09:53:34.000Z</time>
      </trkpt>
      <trkpt lat="43.30553" lon="5.68699">
        <ele>792</ele>
        <time>2019-11-29T09:53:35.000Z</time>
      </trkpt>
      <trkpt lat="43.30553" lon="5.68699">
        <ele>792</ele>
        <time>2019-11-29T09:53:36.000Z</time>
      </trkpt>
      <trkpt lat="43.30553" lon="5.68699">
        <ele>792</ele>
        <time>2019-11-29T09:53:37.000Z</time>
      </trkpt>
      <trkpt lat="43.30553" lon="5.68699">
        <ele>792</ele>
        <time>2019-11-29T09:53:38.000Z</time>
      </trkpt>
      <trkpt lat="43.30552" lon="5.68699">
        <ele>792</ele>
        <time>2019-11-29T09:53:39.000Z</time>
      </trkpt>
      <trkpt lat="43.30552" lon="5.68699">
        <ele>792</ele>
        <time>2019-11-29T09:53:40.000Z</time>
      </trkpt>
      <trkpt lat="43.30552" lon="5.68699">
        <ele>792</ele>
        <time>2019-11-29T09:53:41.000Z</time>
      </trkpt>
      <trkpt lat="43.30551" lon="5.68699">
        <ele>792</ele>
        <time>2019-11-29T09:53:42.000Z</time>
      </trkpt>
      <trkpt lat="43.30551" lon="5.68699">
        <ele>792</ele>
        <time>2019-11-29T09:53:43.000Z</time>
      </trkpt>
      <trkpt lat="43.30551" lon="5.68699">
        <ele>792</ele>
        <time>2019-11-29T09:53:44.000Z</time>
      </trkpt>
      <trkpt lat="43.3055" lon="5.687">
        <ele>792</ele>
        <time>2019-11-29T09:53:45.000Z</time>
      </trkpt>
      <trkpt lat="43.3055" lon="5.68699">
        <ele>792</ele>
        <time>2019-11-29T09:53:46.000Z</time>
      </trkpt>
      <trkpt lat="43.30549" lon="5.68699">
        <ele>792</ele>
        <time>2019-11-29T09:53:47.000Z</time>
      </trkpt>
      <trkpt lat="43.30549" lon="5.68699">
        <ele>792</ele>
        <time>2019-11-29T09:53:48.000Z</time>
      </trkpt>
      <trkpt lat="43.30549" lon="5.68698">
        <ele>792</ele>
        <time>2019-11-29T09:53:49.000Z</time>
      </trkpt>
      <trkpt lat="43.30548" lon="5.68697">
        <ele>793</ele>
        <time>2019-11-29T09:53:50.000Z</time>
      </trkpt>
      <trkpt lat="43.30548" lon="5.68697">
        <ele>793</ele>
        <time>2019-11-29T09:53:51.000Z</time>
      </trkpt>
      <trkpt lat="43.30548" lon="5.68696">
        <ele>793</ele>
        <time>2019-11-29T09:53:52.000Z</time>
      </trkpt>
      <trkpt lat="43.30547" lon="5.68696">
        <ele>793</ele>
        <time>2019-11-29T09:53:53.000Z</time>
      </trkpt>
      <trkpt lat="43.30547" lon="5.68695">
        <ele>793</ele>
        <time>2019-11-29T09:53:54.000Z</time>
      </trkpt>
      <trkpt lat="43.30547" lon="5.68695">
        <ele>793</ele>
        <time>2019-11-29T09:53:55.000Z</time>
      </trkpt>
      <trkpt lat="43.30547" lon="5.68695">
        <ele>793</ele>
        <time>2019-11-29T09:53:56.000Z</time>
      </trkpt>
      <trkpt lat="43.30547" lon="5.68694">
        <ele>794</ele>
        <time>2019-11-29T09:53:57.000Z</time>
      </trkpt>
      <trkpt lat="43.30547" lon="5.68693">
        <ele>794</ele>
        <time>2019-11-29T09:53:58.000Z</time>
      </trkpt>
      <trkpt lat="43.30547" lon="5.68692">
        <ele>794</ele>
        <time>2019-11-29T09:53:59.000Z</time>
      </trkpt>
      <trkpt lat="43.30547" lon="5.68692">
        <ele>794</ele>
        <time>2019-11-29T09:54:00.000Z</time>
      </trkpt>
      <trkpt lat="43.30546" lon="5.68692">
        <ele>794</ele>
        <time>2019-11-29T09:54:01.000Z</time>
      </trkpt>
      <trkpt lat="43.30546" lon="5.68691">
        <ele>795</ele>
        <time>2019-11-29T09:54:02.000Z</time>
      </trkpt>
      <trkpt lat="43.30546" lon="5.68691">
        <ele>795</ele>
        <time>2019-11-29T09:54:03.000Z</time>
      </trkpt>
      <trkpt lat="43.30546" lon="5.68691">
        <ele>795</ele>
        <time>2019-11-29T09:54:04.000Z</time>
      </trkpt>
      <trkpt lat="43.30546" lon="5.68691">
        <ele>795</ele>
        <time>2019-11-29T09:54:05.000Z</time>
      </trkpt>
      <trkpt lat="43.30546" lon="5.68691">
        <ele>795</ele>
        <time>2019-11-29T09:54:06.000Z</time>
      </trkpt>
      <trkpt lat="43.30546" lon="5.68691">
        <ele>795</ele>
        <time>2019-11-29T09:54:07.000Z</time>
      </trkpt>
      <trkpt lat="43.30545" lon="5.68691">
        <ele>795</ele>
        <time>2019-11-29T09:54:08.000Z</time>
      </trkpt>
      <trkpt lat="43.30545" lon="5.6869">
        <ele>796</ele>
        <time>2019-11-29T09:54:09.000Z</time>
      </trkpt>
      <trkpt lat="43.30545" lon="5.6869">
        <ele>796</ele>
        <time>2019-11-29T09:54:10.000Z</time>
      </trkpt>
      <trkpt lat="43.30545" lon="5.6869">
        <ele>796</ele>
        <time>2019-11-29T09:54:11.000Z</time>
      </trkpt>
      <trkpt lat="43.30545" lon="5.6869">
        <ele>796</ele>
        <time>2019-11-29T09:54:12.000Z</time>
      </trkpt>
      <trkpt lat="43.30545" lon="5.6869">
        <ele>796</ele>
        <time>2019-11-29T09:54:13.000Z</time>
      </trkpt>
      <trkpt lat="43.30545" lon="5.6869">
        <ele>796</ele>
        <time>2019-11-29T09:54:14.000Z</time>
      </trkpt>
      <trkpt lat="43.30545" lon="5.6869">
        <ele>796</ele>
        <time>2019-11-29T09:54:15.000Z</time>
      </trkpt>
      <trkpt lat="43.30545" lon="5.6869">
        <ele>796</ele>
        <time>2019-11-29T09:54:16.000Z</time>
      </trkpt>
      <trkpt lat="43.30545" lon="5.6869">
        <ele>796</ele>
        <time>2019-11-29T09:54:17.000Z</time>
      </trkpt>
      <trkpt lat="43.30545" lon="5.6869">
        <ele>796</ele>
        <time>2019-11-29T09:54:18.000Z</time>
      </trkpt>
      <trkpt lat="43.30545" lon="5.68691">
        <ele>796</ele>
        <time>2019-11-29T09:54:19.000Z</time>
      </trkpt>
      <trkpt lat="43.30545" lon="5.68691">
        <ele>796</ele>
        <time>2019-11-29T09:54:20.000Z</time>
      </trkpt>
      <trkpt lat="43.30546" lon="5.68691">
        <ele>796</ele>
        <time>2019-11-29T09:54:21.000Z</time>
      </trkpt>
      <trkpt lat="43.30546" lon="5.68691">
        <ele>796</ele>
        <time>2019-11-29T09:54:22.000Z</time>
      </trkpt>
      <trkpt lat="43.30546" lon="5.6869">
        <ele>797</ele>
        <time>2019-11-29T09:54:23.000Z</time>
      </trkpt>
      <trkpt lat="43.30546" lon="5.6869">
        <ele>797</ele>
        <time>2019-11-29T09:54:24.000Z</time>
      </trkpt>
      <trkpt lat="43.30546" lon="5.6869">
        <ele>797</ele>
        <time>2019-11-29T09:54:25.000Z</time>
      </trkpt>
      <trkpt lat="43.30546" lon="5.6869">
        <ele>797</ele>
        <time>2019-11-29T09:54:26.000Z</time>
      </trkpt>
      <trkpt lat="43.30546" lon="5.6869">
        <ele>797</ele>
        <time>2019-11-29T09:54:27.000Z</time>
      </trkpt>
      <trkpt lat="43.30546" lon="5.68689">
        <ele>797</ele>
        <time>2019-11-29T09:54:28.000Z</time>
      </trkpt>
      <trkpt lat="43.30545" lon="5.68689">
        <ele>797</ele>
        <time>2019-11-29T09:54:29.000Z</time>
      </trkpt>
      <trkpt lat="43.30545" lon="5.68688">
        <ele>797</ele>
        <time>2019-11-29T09:54:30.000Z</time>
      </trkpt>
      <trkpt lat="43.30546" lon="5.68688">
        <ele>797</ele>
        <time>2019-11-29T09:54:31.000Z</time>
      </trkpt>
      <trkpt lat="43.30546" lon="5.68687">
        <ele>797</ele>
        <time>2019-11-29T09:54:32.000Z</time>
      </trkpt>
      <trkpt lat="43.30546" lon="5.68687">
        <ele>797</ele>
        <time>2019-11-29T09:54:33.000Z</time>
      </trkpt>
      <trkpt lat="43.30546" lon="5.68687">
        <ele>798</ele>
        <time>2019-11-29T09:54:34.000Z</time>
      </trkpt>
      <trkpt lat="43.30546" lon="5.68687">
        <ele>798</ele>
        <time>2019-11-29T09:54:35.000Z</time>
      </trkpt>
      <trkpt lat="43.30546" lon="5.68687">
        <ele>798</ele>
        <time>2019-11-29T09:54:36.000Z</time>
      </trkpt>
      <trkpt lat="43.30546" lon="5.68687">
        <ele>798</ele>
        <time>2019-11-29T09:54:37.000Z</time>
      </trkpt>
      <trkpt lat="43.30546" lon="5.68686">
        <ele>798</ele>
        <time>2019-11-29T09:54:38.000Z</time>
      </trkpt>
      <trkpt lat="43.30546" lon="5.68685">
        <ele>799</ele>
        <time>2019-11-29T09:54:39.000Z</time>
      </trkpt>
      <trkpt lat="43.30546" lon="5.68685">
        <ele>799</ele>
        <time>2019-11-29T09:54:40.000Z</time>
      </trkpt>
      <trkpt lat="43.30546" lon="5.68684">
        <ele>799</ele>
        <time>2019-11-29T09:54:41.000Z</time>
      </trkpt>
      <trkpt lat="43.30546" lon="5.68684">
        <ele>799</ele>
        <time>2019-11-29T09:54:42.000Z</time>
      </trkpt>
      <trkpt lat="43.30546" lon="5.68684">
        <ele>799</ele>
        <time>2019-11-29T09:54:43.000Z</time>
      </trkpt>
      <trkpt lat="43.30546" lon="5.68684">
        <ele>800</ele>
        <time>2019-11-29T09:54:44.000Z</time>
      </trkpt>
      <trkpt lat="43.30546" lon="5.68683">
        <ele>800</ele>
        <time>2019-11-29T09:54:45.000Z</time>
      </trkpt>
      <trkpt lat="43.30545" lon="5.68683">
        <ele>800</ele>
        <time>2019-11-29T09:54:46.000Z</time>
      </trkpt>
      <trkpt lat="43.30545" lon="5.68682">
        <ele>800</ele>
        <time>2019-11-29T09:54:47.000Z</time>
      </trkpt>
      <trkpt lat="43.30544" lon="5.68682">
        <ele>800</ele>
        <time>2019-11-29T09:54:48.000Z</time>
      </trkpt>
      <trkpt lat="43.30544" lon="5.68681">
        <ele>800</ele>
        <time>2019-11-29T09:54:49.000Z</time>
      </trkpt>
      <trkpt lat="43.30543" lon="5.68681">
        <ele>801</ele>
        <time>2019-11-29T09:54:50.000Z</time>
      </trkpt>
      <trkpt lat="43.30542" lon="5.6868">
        <ele>801</ele>
        <time>2019-11-29T09:54:51.000Z</time>
      </trkpt>
      <trkpt lat="43.30542" lon="5.68679">
        <ele>801</ele>
        <time>2019-11-29T09:54:52.000Z</time>
      </trkpt>
      <trkpt lat="43.30542" lon="5.68678">
        <ele>801</ele>
        <time>2019-11-29T09:54:53.000Z</time>
      </trkpt>
      <trkpt lat="43.30541" lon="5.68678">
        <ele>801</ele>
        <time>2019-11-29T09:54:54.000Z</time>
      </trkpt>
      <trkpt lat="43.30541" lon="5.68677">
        <ele>801</ele>
        <time>2019-11-29T09:54:55.000Z</time>
      </trkpt>
      <trkpt lat="43.3054" lon="5.68676">
        <ele>801</ele>
        <time>2019-11-29T09:54:56.000Z</time>
      </trkpt>
      <trkpt lat="43.3054" lon="5.68675">
        <ele>801</ele>
        <time>2019-11-29T09:54:57.000Z</time>
      </trkpt>
      <trkpt lat="43.30539" lon="5.68675">
        <ele>801</ele>
        <time>2019-11-29T09:54:58.000Z</time>
      </trkpt>
      <trkpt lat="43.30539" lon="5.68674">
        <ele>801</ele>
        <time>2019-11-29T09:54:59.000Z</time>
      </trkpt>
      <trkpt lat="43.30539" lon="5.68673">
        <ele>801</ele>
        <time>2019-11-29T09:55:00.000Z</time>
      </trkpt>
      <trkpt lat="43.30539" lon="5.68672">
        <ele>801</ele>
        <time>2019-11-29T09:55:01.000Z</time>
      </trkpt>
      <trkpt lat="43.30539" lon="5.68671">
        <ele>801</ele>
        <time>2019-11-29T09:55:02.000Z</time>
      </trkpt>
      <trkpt lat="43.30539" lon="5.68671">
        <ele>801</ele>
        <time>2019-11-29T09:55:03.000Z</time>
      </trkpt>
      <trkpt lat="43.30538" lon="5.6867">
        <ele>802</ele>
        <time>2019-11-29T09:55:04.000Z</time>
      </trkpt>
      <trkpt lat="43.30538" lon="5.68669">
        <ele>802</ele>
        <time>2019-11-29T09:55:05.000Z</time>
      </trkpt>
      <trkpt lat="43.30538" lon="5.68668">
        <ele>802</ele>
        <time>2019-11-29T09:55:06.000Z</time>
      </trkpt>
      <trkpt lat="43.30537" lon="5.68668">
        <ele>802</ele>
        <time>2019-11-29T09:55:07.000Z</time>
      </trkpt>
      <trkpt lat="43.30537" lon="5.68668">
        <ele>802</ele>
        <time>2019-11-29T09:55:08.000Z</time>
      </trkpt>
      <trkpt lat="43.30537" lon="5.68667">
        <ele>802</ele>
        <time>2019-11-29T09:55:09.000Z</time>
      </trkpt>
      <trkpt lat="43.30536" lon="5.68666">
        <ele>802</ele>
        <time>2019-11-29T09:55:10.000Z</time>
      </trkpt>
      <trkpt lat="43.30536" lon="5.68665">
        <ele>802</ele>
        <time>2019-11-29T09:55:11.000Z</time>
      </trkpt>
      <trkpt lat="43.30536" lon="5.68664">
        <ele>802</ele>
        <time>2019-11-29T09:55:12.000Z</time>
      </trkpt>
      <trkpt lat="43.30535" lon="5.68664">
        <ele>803</ele>
        <time>2019-11-29T09:55:13.000Z</time>
      </trkpt>
      <trkpt lat="43.30535" lon="5.68664">
        <ele>803</ele>
        <time>2019-11-29T09:55:14.000Z</time>
      </trkpt>
      <trkpt lat="43.30535" lon="5.68663">
        <ele>803</ele>
        <time>2019-11-29T09:55:15.000Z</time>
      </trkpt>
      <trkpt lat="43.30535" lon="5.68662">
        <ele>803</ele>
        <time>2019-11-29T09:55:16.000Z</time>
      </trkpt>
      <trkpt lat="43.30534" lon="5.68661">
        <ele>804</ele>
        <time>2019-11-29T09:55:17.000Z</time>
      </trkpt>
      <trkpt lat="43.30534" lon="5.68661">
        <ele>804</ele>
        <time>2019-11-29T09:55:18.000Z</time>
      </trkpt>
      <trkpt lat="43.30533" lon="5.6866">
        <ele>804</ele>
        <time>2019-11-29T09:55:19.000Z</time>
      </trkpt>
      <trkpt lat="43.30532" lon="5.68659">
        <ele>804</ele>
        <time>2019-11-29T09:55:20.000Z</time>
      </trkpt>
      <trkpt lat="43.30532" lon="5.68658">
        <ele>805</ele>
        <time>2019-11-29T09:55:21.000Z</time>
      </trkpt>
      <trkpt lat="43.30531" lon="5.68657">
        <ele>805</ele>
        <time>2019-11-29T09:55:22.000Z</time>
      </trkpt>
      <trkpt lat="43.30531" lon="5.68656">
        <ele>805</ele>
        <time>2019-11-29T09:55:23.000Z</time>
      </trkpt>
      <trkpt lat="43.3053" lon="5.68656">
        <ele>805</ele>
        <time>2019-11-29T09:55:24.000Z</time>
      </trkpt>
      <trkpt lat="43.3053" lon="5.68656">
        <ele>806</ele>
        <time>2019-11-29T09:55:25.000Z</time>
      </trkpt>
      <trkpt lat="43.30529" lon="5.68655">
        <ele>806</ele>
        <time>2019-11-29T09:55:26.000Z</time>
      </trkpt>
      <trkpt lat="43.30528" lon="5.68654">
        <ele>806</ele>
        <time>2019-11-29T09:55:27.000Z</time>
      </trkpt>
      <trkpt lat="43.30528" lon="5.68653">
        <ele>806</ele>
        <time>2019-11-29T09:55:28.000Z</time>
      </trkpt>
      <trkpt lat="43.30528" lon="5.68652">
        <ele>806</ele>
        <time>2019-11-29T09:55:29.000Z</time>
      </trkpt>
      <trkpt lat="43.30528" lon="5.68651">
        <ele>806</ele>
        <time>2019-11-29T09:55:30.000Z</time>
      </trkpt>
      <trkpt lat="43.30527" lon="5.6865">
        <ele>806</ele>
        <time>2019-11-29T09:55:31.000Z</time>
      </trkpt>
      <trkpt lat="43.30527" lon="5.6865">
        <ele>807</ele>
        <time>2019-11-29T09:55:32.000Z</time>
      </trkpt>
      <trkpt lat="43.30528" lon="5.6865">
        <ele>807</ele>
        <time>2019-11-29T09:55:33.000Z</time>
      </trkpt>
      <trkpt lat="43.30528" lon="5.6865">
        <ele>807</ele>
        <time>2019-11-29T09:55:34.000Z</time>
      </trkpt>
      <trkpt lat="43.30528" lon="5.6865">
        <ele>807</ele>
        <time>2019-11-29T09:55:35.000Z</time>
      </trkpt>
      <trkpt lat="43.30528" lon="5.68649">
        <ele>807</ele>
        <time>2019-11-29T09:55:36.000Z</time>
      </trkpt>
      <trkpt lat="43.30528" lon="5.68649">
        <ele>807</ele>
        <time>2019-11-29T09:55:37.000Z</time>
      </trkpt>
      <trkpt lat="43.30528" lon="5.68649">
        <ele>807</ele>
        <time>2019-11-29T09:55:38.000Z</time>
      </trkpt>
      <trkpt lat="43.30528" lon="5.68649">
        <ele>807</ele>
        <time>2019-11-29T09:55:39.000Z</time>
      </trkpt>
      <trkpt lat="43.30528" lon="5.68649">
        <ele>807</ele>
        <time>2019-11-29T09:55:40.000Z</time>
      </trkpt>
      <trkpt lat="43.30528" lon="5.68649">
        <ele>807</ele>
        <time>2019-11-29T09:55:41.000Z</time>
      </trkpt>
      <trkpt lat="43.30528" lon="5.68649">
        <ele>807</ele>
        <time>2019-11-29T09:55:42.000Z</time>
      </trkpt>
      <trkpt lat="43.30528" lon="5.68649">
        <ele>807</ele>
        <time>2019-11-29T09:55:43.000Z</time>
      </trkpt>
      <trkpt lat="43.30528" lon="5.68649">
        <ele>807</ele>
        <time>2019-11-29T09:55:44.000Z</time>
      </trkpt>
      <trkpt lat="43.30528" lon="5.68649">
        <ele>807</ele>
        <time>2019-11-29T09:55:45.000Z</time>
      </trkpt>
      <trkpt lat="43.30528" lon="5.68649">
        <ele>807</ele>
        <time>2019-11-29T09:55:46.000Z</time>
      </trkpt>
      <trkpt lat="43.30527" lon="5.68648">
        <ele>807</ele>
        <time>2019-11-29T09:55:47.000Z</time>
      </trkpt>
      <trkpt lat="43.30527" lon="5.68647">
        <ele>807</ele>
        <time>2019-11-29T09:55:48.000Z</time>
      </trkpt>
      <trkpt lat="43.30528" lon="5.68647">
        <ele>807</ele>
        <time>2019-11-29T09:55:49.000Z</time>
      </trkpt>
      <trkpt lat="43.30527" lon="5.68646">
        <ele>807</ele>
        <time>2019-11-29T09:55:50.000Z</time>
      </trkpt>
      <trkpt lat="43.30528" lon="5.68645">
        <ele>807</ele>
        <time>2019-11-29T09:55:51.000Z</time>
      </trkpt>
      <trkpt lat="43.30528" lon="5.68645">
        <ele>807</ele>
        <time>2019-11-29T09:55:52.000Z</time>
      </trkpt>
      <trkpt lat="43.30527" lon="5.68645">
        <ele>808</ele>
        <time>2019-11-29T09:55:53.000Z</time>
      </trkpt>
      <trkpt lat="43.30528" lon="5.68644">
        <ele>808</ele>
        <time>2019-11-29T09:55:54.000Z</time>
      </trkpt>
      <trkpt lat="43.30528" lon="5.68644">
        <ele>808</ele>
        <time>2019-11-29T09:55:55.000Z</time>
      </trkpt>
      <trkpt lat="43.30528" lon="5.68643">
        <ele>808</ele>
        <time>2019-11-29T09:55:56.000Z</time>
      </trkpt>
      <trkpt lat="43.30528" lon="5.68643">
        <ele>808</ele>
        <time>2019-11-29T09:55:57.000Z</time>
      </trkpt>
      <trkpt lat="43.30528" lon="5.68643">
        <ele>808</ele>
        <time>2019-11-29T09:55:58.000Z</time>
      </trkpt>
      <trkpt lat="43.30528" lon="5.68643">
        <ele>808</ele>
        <time>2019-11-29T09:55:59.000Z</time>
      </trkpt>
      <trkpt lat="43.30528" lon="5.68642">
        <ele>808</ele>
        <time>2019-11-29T09:56:00.000Z</time>
      </trkpt>
      <trkpt lat="43.30527" lon="5.68641">
        <ele>808</ele>
        <time>2019-11-29T09:56:01.000Z</time>
      </trkpt>
      <trkpt lat="43.30527" lon="5.68639">
        <ele>808</ele>
        <time>2019-11-29T09:56:02.000Z</time>
      </trkpt>
      <trkpt lat="43.30527" lon="5.68638">
        <ele>808</ele>
        <time>2019-11-29T09:56:03.000Z</time>
      </trkpt>
      <trkpt lat="43.30527" lon="5.68636">
        <ele>808</ele>
        <time>2019-11-29T09:56:04.000Z</time>
      </trkpt>
      <trkpt lat="43.30527" lon="5.68635">
        <ele>808</ele>
        <time>2019-11-29T09:56:05.000Z</time>
      </trkpt>
      <trkpt lat="43.30527" lon="5.68633">
        <ele>808</ele>
        <time>2019-11-29T09:56:06.000Z</time>
      </trkpt>
      <trkpt lat="43.30527" lon="5.68632">
        <ele>808</ele>
        <time>2019-11-29T09:56:07.000Z</time>
      </trkpt>
      <trkpt lat="43.30527" lon="5.6863">
        <ele>808</ele>
        <time>2019-11-29T09:56:08.000Z</time>
      </trkpt>
      <trkpt lat="43.30527" lon="5.68629">
        <ele>808</ele>
        <time>2019-11-29T09:56:09.000Z</time>
      </trkpt>
      <trkpt lat="43.30528" lon="5.68628">
        <ele>808</ele>
        <time>2019-11-29T09:56:10.000Z</time>
      </trkpt>
      <trkpt lat="43.30528" lon="5.68627">
        <ele>808</ele>
        <time>2019-11-29T09:56:11.000Z</time>
      </trkpt>
      <trkpt lat="43.30528" lon="5.68626">
        <ele>808</ele>
        <time>2019-11-29T09:56:12.000Z</time>
      </trkpt>
      <trkpt lat="43.30528" lon="5.68625">
        <ele>808</ele>
        <time>2019-11-29T09:56:13.000Z</time>
      </trkpt>
      <trkpt lat="43.30527" lon="5.68624">
        <ele>808</ele>
        <time>2019-11-29T09:56:14.000Z</time>
      </trkpt>
      <trkpt lat="43.30527" lon="5.68623">
        <ele>808</ele>
        <time>2019-11-29T09:56:15.000Z</time>
      </trkpt>
      <trkpt lat="43.30527" lon="5.68622">
        <ele>808</ele>
        <time>2019-11-29T09:56:16.000Z</time>
      </trkpt>
      <trkpt lat="43.30527" lon="5.68621">
        <ele>808</ele>
        <time>2019-11-29T09:56:17.000Z</time>
      </trkpt>
      <trkpt lat="43.30527" lon="5.6862">
        <ele>809</ele>
        <time>2019-11-29T09:56:18.000Z</time>
      </trkpt>
      <trkpt lat="43.30527" lon="5.68619">
        <ele>809</ele>
        <time>2019-11-29T09:56:19.000Z</time>
      </trkpt>
      <trkpt lat="43.30528" lon="5.68618">
        <ele>809</ele>
        <time>2019-11-29T09:56:20.000Z</time>
      </trkpt>
      <trkpt lat="43.30528" lon="5.68617">
        <ele>809</ele>
        <time>2019-11-29T09:56:21.000Z</time>
      </trkpt>
      <trkpt lat="43.30527" lon="5.68617">
        <ele>809</ele>
        <time>2019-11-29T09:56:22.000Z</time>
      </trkpt>
      <trkpt lat="43.30527" lon="5.68616">
        <ele>809</ele>
        <time>2019-11-29T09:56:23.000Z</time>
      </trkpt>
      <trkpt lat="43.30527" lon="5.68615">
        <ele>809</ele>
        <time>2019-11-29T09:56:24.000Z</time>
      </trkpt>
      <trkpt lat="43.30527" lon="5.68614">
        <ele>809</ele>
        <time>2019-11-29T09:56:25.000Z</time>
      </trkpt>
      <trkpt lat="43.30527" lon="5.68614">
        <ele>810</ele>
        <time>2019-11-29T09:56:26.000Z</time>
      </trkpt>
      <trkpt lat="43.30527" lon="5.68613">
        <ele>810</ele>
        <time>2019-11-29T09:56:27.000Z</time>
      </trkpt>
      <trkpt lat="43.30527" lon="5.68613">
        <ele>810</ele>
        <time>2019-11-29T09:56:28.000Z</time>
      </trkpt>
      <trkpt lat="43.30527" lon="5.68613">
        <ele>810</ele>
        <time>2019-11-29T09:56:29.000Z</time>
      </trkpt>
      <trkpt lat="43.30527" lon="5.68613">
        <ele>810</ele>
        <time>2019-11-29T09:56:30.000Z</time>
      </trkpt>
      <trkpt lat="43.30527" lon="5.68613">
        <ele>810</ele>
        <time>2019-11-29T09:56:31.000Z</time>
      </trkpt>
      <trkpt lat="43.30527" lon="5.68612">
        <ele>810</ele>
        <time>2019-11-29T09:56:32.000Z</time>
      </trkpt>
      <trkpt lat="43.30527" lon="5.68611">
        <ele>810</ele>
        <time>2019-11-29T09:56:33.000Z</time>
      </trkpt>
      <trkpt lat="43.30526" lon="5.6861">
        <ele>810</ele>
        <time>2019-11-29T09:56:34.000Z</time>
      </trkpt>
      <trkpt lat="43.30526" lon="5.68608">
        <ele>810</ele>
        <time>2019-11-29T09:56:35.000Z</time>
      </trkpt>
      <trkpt lat="43.30526" lon="5.68607">
        <ele>810</ele>
        <time>2019-11-29T09:56:36.000Z</time>
      </trkpt>
      <trkpt lat="43.30526" lon="5.68605">
        <ele>810</ele>
        <time>2019-11-29T09:56:37.000Z</time>
      </trkpt>
      <trkpt lat="43.30526" lon="5.68604">
        <ele>810</ele>
        <time>2019-11-29T09:56:38.000Z</time>
      </trkpt>
      <trkpt lat="43.30526" lon="5.68604">
        <ele>810</ele>
        <time>2019-11-29T09:56:39.000Z</time>
      </trkpt>
      <trkpt lat="43.30525" lon="5.68603">
        <ele>810</ele>
        <time>2019-11-29T09:56:40.000Z</time>
      </trkpt>
      <trkpt lat="43.30525" lon="5.68603">
        <ele>810</ele>
        <time>2019-11-29T09:56:41.000Z</time>
      </trkpt>
      <trkpt lat="43.30525" lon="5.68602">
        <ele>809</ele>
        <time>2019-11-29T09:56:42.000Z</time>
      </trkpt>
      <trkpt lat="43.30524" lon="5.68601">
        <ele>810</ele>
        <time>2019-11-29T09:56:43.000Z</time>
      </trkpt>
      <trkpt lat="43.30524" lon="5.68601">
        <ele>809</ele>
        <time>2019-11-29T09:56:44.000Z</time>
      </trkpt>
      <trkpt lat="43.30524" lon="5.686">
        <ele>809</ele>
        <time>2019-11-29T09:56:45.000Z</time>
      </trkpt>
      <trkpt lat="43.30524" lon="5.686">
        <ele>809</ele>
        <time>2019-11-29T09:56:46.000Z</time>
      </trkpt>
      <trkpt lat="43.30524" lon="5.686">
        <ele>809</ele>
        <time>2019-11-29T09:56:47.000Z</time>
      </trkpt>
      <trkpt lat="43.30524" lon="5.68599">
        <ele>809</ele>
        <time>2019-11-29T09:56:48.000Z</time>
      </trkpt>
      <trkpt lat="43.30524" lon="5.68598">
        <ele>809</ele>
        <time>2019-11-29T09:56:49.000Z</time>
      </trkpt>
      <trkpt lat="43.30524" lon="5.68598">
        <ele>810</ele>
        <time>2019-11-29T09:56:50.000Z</time>
      </trkpt>
      <trkpt lat="43.30525" lon="5.68597">
        <ele>810</ele>
        <time>2019-11-29T09:56:51.000Z</time>
      </trkpt>
      <trkpt lat="43.30525" lon="5.68597">
        <ele>810</ele>
        <time>2019-11-29T09:56:52.000Z</time>
      </trkpt>
      <trkpt lat="43.30524" lon="5.68597">
        <ele>810</ele>
        <time>2019-11-29T09:56:53.000Z</time>
      </trkpt>
      <trkpt lat="43.30525" lon="5.68597">
        <ele>810</ele>
        <time>2019-11-29T09:56:54.000Z</time>
      </trkpt>
      <trkpt lat="43.30524" lon="5.68596">
        <ele>810</ele>
        <time>2019-11-29T09:56:55.000Z</time>
      </trkpt>
      <trkpt lat="43.30524" lon="5.68596">
        <ele>810</ele>
        <time>2019-11-29T09:56:56.000Z</time>
      </trkpt>
      <trkpt lat="43.30524" lon="5.68595">
        <ele>810</ele>
        <time>2019-11-29T09:56:57.000Z</time>
      </trkpt>
      <trkpt lat="43.30523" lon="5.68594">
        <ele>810</ele>
        <time>2019-11-29T09:56:58.000Z</time>
      </trkpt>
      <trkpt lat="43.30523" lon="5.68594">
        <ele>810</ele>
        <time>2019-11-29T09:56:59.000Z</time>
      </trkpt>
      <trkpt lat="43.30523" lon="5.68594">
        <ele>810</ele>
        <time>2019-11-29T09:57:00.000Z</time>
      </trkpt>
      <trkpt lat="43.30523" lon="5.68593">
        <ele>810</ele>
        <time>2019-11-29T09:57:01.000Z</time>
      </trkpt>
      <trkpt lat="43.30523" lon="5.68593">
        <ele>809</ele>
        <time>2019-11-29T09:57:02.000Z</time>
      </trkpt>
      <trkpt lat="43.30523" lon="5.68593">
        <ele>809</ele>
        <time>2019-11-29T09:57:03.000Z</time>
      </trkpt>
      <trkpt lat="43.30523" lon="5.68593">
        <ele>809</ele>
        <time>2019-11-29T09:57:04.000Z</time>
      </trkpt>
      <trkpt lat="43.30522" lon="5.68593">
        <ele>809</ele>
        <time>2019-11-29T09:57:05.000Z</time>
      </trkpt>
      <trkpt lat="43.30522" lon="5.68593">
        <ele>809</ele>
        <time>2019-11-29T09:57:06.000Z</time>
      </trkpt>
      <trkpt lat="43.30521" lon="5.68593">
        <ele>809</ele>
        <time>2019-11-29T09:57:07.000Z</time>
      </trkpt>
      <trkpt lat="43.30521" lon="5.68592">
        <ele>809</ele>
        <time>2019-11-29T09:57:08.000Z</time>
      </trkpt>
      <trkpt lat="43.30521" lon="5.68592">
        <ele>809</ele>
        <time>2019-11-29T09:57:09.000Z</time>
      </trkpt>
      <trkpt lat="43.3052" lon="5.68592">
        <ele>809</ele>
        <time>2019-11-29T09:57:10.000Z</time>
      </trkpt>
      <trkpt lat="43.30519" lon="5.68591">
        <ele>809</ele>
        <time>2019-11-29T09:57:11.000Z</time>
      </trkpt>
      <trkpt lat="43.30519" lon="5.68591">
        <ele>809</ele>
        <time>2019-11-29T09:57:12.000Z</time>
      </trkpt>
      <trkpt lat="43.30519" lon="5.6859">
        <ele>809</ele>
        <time>2019-11-29T09:57:13.000Z</time>
      </trkpt>
      <trkpt lat="43.30518" lon="5.68589">
        <ele>809</ele>
        <time>2019-11-29T09:57:14.000Z</time>
      </trkpt>
      <trkpt lat="43.30518" lon="5.68589">
        <ele>809</ele>
        <time>2019-11-29T09:57:15.000Z</time>
      </trkpt>
      <trkpt lat="43.30518" lon="5.68588">
        <ele>809</ele>
        <time>2019-11-29T09:57:16.000Z</time>
      </trkpt>
      <trkpt lat="43.30517" lon="5.68588">
        <ele>809</ele>
        <time>2019-11-29T09:57:17.000Z</time>
      </trkpt>
      <trkpt lat="43.30517" lon="5.68586">
        <ele>809</ele>
        <time>2019-11-29T09:57:18.000Z</time>
      </trkpt>
      <trkpt lat="43.30517" lon="5.68585">
        <ele>809</ele>
        <time>2019-11-29T09:57:19.000Z</time>
      </trkpt>
      <trkpt lat="43.30517" lon="5.68585">
        <ele>809</ele>
        <time>2019-11-29T09:57:20.000Z</time>
      </trkpt>
      <trkpt lat="43.30517" lon="5.68584">
        <ele>809</ele>
        <time>2019-11-29T09:57:21.000Z</time>
      </trkpt>
      <trkpt lat="43.30517" lon="5.68583">
        <ele>809</ele>
        <time>2019-11-29T09:57:22.000Z</time>
      </trkpt>
      <trkpt lat="43.30517" lon="5.68582">
        <ele>809</ele>
        <time>2019-11-29T09:57:23.000Z</time>
      </trkpt>
      <trkpt lat="43.30517" lon="5.68582">
        <ele>809</ele>
        <time>2019-11-29T09:57:24.000Z</time>
      </trkpt>
      <trkpt lat="43.30517" lon="5.68581">
        <ele>809</ele>
        <time>2019-11-29T09:57:25.000Z</time>
      </trkpt>
      <trkpt lat="43.30517" lon="5.68581">
        <ele>809</ele>
        <time>2019-11-29T09:57:26.000Z</time>
      </trkpt>
      <trkpt lat="43.30517" lon="5.6858">
        <ele>808</ele>
        <time>2019-11-29T09:57:27.000Z</time>
      </trkpt>
      <trkpt lat="43.30517" lon="5.68579">
        <ele>808</ele>
        <time>2019-11-29T09:57:28.000Z</time>
      </trkpt>
      <trkpt lat="43.30517" lon="5.68579">
        <ele>808</ele>
        <time>2019-11-29T09:57:29.000Z</time>
      </trkpt>
      <trkpt lat="43.30516" lon="5.68578">
        <ele>808</ele>
        <time>2019-11-29T09:57:30.000Z</time>
      </trkpt>
      <trkpt lat="43.30516" lon="5.68577">
        <ele>808</ele>
        <time>2019-11-29T09:57:31.000Z</time>
      </trkpt>
      <trkpt lat="43.30516" lon="5.68576">
        <ele>808</ele>
        <time>2019-11-29T09:57:32.000Z</time>
      </trkpt>
      <trkpt lat="43.30516" lon="5.68575">
        <ele>807</ele>
        <time>2019-11-29T09:57:33.000Z</time>
      </trkpt>
      <trkpt lat="43.30516" lon="5.68575">
        <ele>807</ele>
        <time>2019-11-29T09:57:34.000Z</time>
      </trkpt>
      <trkpt lat="43.30516" lon="5.68574">
        <ele>807</ele>
        <time>2019-11-29T09:57:35.000Z</time>
      </trkpt>
      <trkpt lat="43.30516" lon="5.68573">
        <ele>807</ele>
        <time>2019-11-29T09:57:36.000Z</time>
      </trkpt>
      <trkpt lat="43.30516" lon="5.68573">
        <ele>807</ele>
        <time>2019-11-29T09:57:37.000Z</time>
      </trkpt>
      <trkpt lat="43.30515" lon="5.68574">
        <ele>807</ele>
        <time>2019-11-29T09:57:38.000Z</time>
      </trkpt>
      <trkpt lat="43.30515" lon="5.68574">
        <ele>807</ele>
        <time>2019-11-29T09:57:39.000Z</time>
      </trkpt>
      <trkpt lat="43.30514" lon="5.68574">
        <ele>807</ele>
        <time>2019-11-29T09:57:40.000Z</time>
      </trkpt>
      <trkpt lat="43.30514" lon="5.68574">
        <ele>806</ele>
        <time>2019-11-29T09:57:41.000Z</time>
      </trkpt>
      <trkpt lat="43.30514" lon="5.68574">
        <ele>806</ele>
        <time>2019-11-29T09:57:42.000Z</time>
      </trkpt>
      <trkpt lat="43.30514" lon="5.68574">
        <ele>806</ele>
        <time>2019-11-29T09:57:43.000Z</time>
      </trkpt>
      <trkpt lat="43.30513" lon="5.68573">
        <ele>806</ele>
        <time>2019-11-29T09:57:44.000Z</time>
      </trkpt>
      <trkpt lat="43.30513" lon="5.68573">
        <ele>806</ele>
        <time>2019-11-29T09:57:45.000Z</time>
      </trkpt>
      <trkpt lat="43.30513" lon="5.68572">
        <ele>806</ele>
        <time>2019-11-29T09:57:46.000Z</time>
      </trkpt>
      <trkpt lat="43.30513" lon="5.68572">
        <ele>805</ele>
        <time>2019-11-29T09:57:47.000Z</time>
      </trkpt>
      <trkpt lat="43.30513" lon="5.68571">
        <ele>805</ele>
        <time>2019-11-29T09:57:48.000Z</time>
      </trkpt>
      <trkpt lat="43.30513" lon="5.6857">
        <ele>805</ele>
        <time>2019-11-29T09:57:49.000Z</time>
      </trkpt>
      <trkpt lat="43.30513" lon="5.6857">
        <ele>805</ele>
        <time>2019-11-29T09:57:50.000Z</time>
      </trkpt>
      <trkpt lat="43.30513" lon="5.68569">
        <ele>805</ele>
        <time>2019-11-29T09:57:51.000Z</time>
      </trkpt>
      <trkpt lat="43.30512" lon="5.68568">
        <ele>805</ele>
        <time>2019-11-29T09:57:52.000Z</time>
      </trkpt>
      <trkpt lat="43.30512" lon="5.68567">
        <ele>805</ele>
        <time>2019-11-29T09:57:53.000Z</time>
      </trkpt>
      <trkpt lat="43.30512" lon="5.68566">
        <ele>804</ele>
        <time>2019-11-29T09:57:54.000Z</time>
      </trkpt>
      <trkpt lat="43.30512" lon="5.68565">
        <ele>804</ele>
        <time>2019-11-29T09:57:55.000Z</time>
      </trkpt>
      <trkpt lat="43.30512" lon="5.68563">
        <ele>804</ele>
        <time>2019-11-29T09:57:56.000Z</time>
      </trkpt>
      <trkpt lat="43.30512" lon="5.68562">
        <ele>804</ele>
        <time>2019-11-29T09:57:57.000Z</time>
      </trkpt>
      <trkpt lat="43.30512" lon="5.68561">
        <ele>804</ele>
        <time>2019-11-29T09:57:58.000Z</time>
      </trkpt>
      <trkpt lat="43.30512" lon="5.6856">
        <ele>804</ele>
        <time>2019-11-29T09:57:59.000Z</time>
      </trkpt>
      <trkpt lat="43.30512" lon="5.68559">
        <ele>803</ele>
        <time>2019-11-29T09:58:00.000Z</time>
      </trkpt>
      <trkpt lat="43.30511" lon="5.68557">
        <ele>803</ele>
        <time>2019-11-29T09:58:01.000Z</time>
      </trkpt>
      <trkpt lat="43.30511" lon="5.68556">
        <ele>803</ele>
        <time>2019-11-29T09:58:02.000Z</time>
      </trkpt>
      <trkpt lat="43.3051" lon="5.68555">
        <ele>803</ele>
        <time>2019-11-29T09:58:03.000Z</time>
      </trkpt>
      <trkpt lat="43.3051" lon="5.68554">
        <ele>803</ele>
        <time>2019-11-29T09:58:04.000Z</time>
      </trkpt>
      <trkpt lat="43.3051" lon="5.68553">
        <ele>803</ele>
        <time>2019-11-29T09:58:05.000Z</time>
      </trkpt>
      <trkpt lat="43.30509" lon="5.68551">
        <ele>802</ele>
        <time>2019-11-29T09:58:06.000Z</time>
      </trkpt>
      <trkpt lat="43.30509" lon="5.6855">
        <ele>802</ele>
        <time>2019-11-29T09:58:07.000Z</time>
      </trkpt>
      <trkpt lat="43.30508" lon="5.68549">
        <ele>802</ele>
        <time>2019-11-29T09:58:08.000Z</time>
      </trkpt>
      <trkpt lat="43.30508" lon="5.68548">
        <ele>802</ele>
        <time>2019-11-29T09:58:09.000Z</time>
      </trkpt>
      <trkpt lat="43.30507" lon="5.68547">
        <ele>802</ele>
        <time>2019-11-29T09:58:10.000Z</time>
      </trkpt>
      <trkpt lat="43.30507" lon="5.68545">
        <ele>802</ele>
        <time>2019-11-29T09:58:11.000Z</time>
      </trkpt>
      <trkpt lat="43.30506" lon="5.68544">
        <ele>802</ele>
        <time>2019-11-29T09:58:12.000Z</time>
      </trkpt>
      <trkpt lat="43.30505" lon="5.68543">
        <ele>801</ele>
        <time>2019-11-29T09:58:13.000Z</time>
      </trkpt>
      <trkpt lat="43.30505" lon="5.68542">
        <ele>801</ele>
        <time>2019-11-29T09:58:14.000Z</time>
      </trkpt>
      <trkpt lat="43.30505" lon="5.68541">
        <ele>801</ele>
        <time>2019-11-29T09:58:15.000Z</time>
      </trkpt>
      <trkpt lat="43.30504" lon="5.6854">
        <ele>801</ele>
        <time>2019-11-29T09:58:16.000Z</time>
      </trkpt>
      <trkpt lat="43.30504" lon="5.68539">
        <ele>801</ele>
        <time>2019-11-29T09:58:17.000Z</time>
      </trkpt>
      <trkpt lat="43.30504" lon="5.68538">
        <ele>801</ele>
        <time>2019-11-29T09:58:18.000Z</time>
      </trkpt>
      <trkpt lat="43.30504" lon="5.68537">
        <ele>800</ele>
        <time>2019-11-29T09:58:19.000Z</time>
      </trkpt>
      <trkpt lat="43.30504" lon="5.68537">
        <ele>800</ele>
        <time>2019-11-29T09:58:20.000Z</time>
      </trkpt>
      <trkpt lat="43.30503" lon="5.68536">
        <ele>800</ele>
        <time>2019-11-29T09:58:21.000Z</time>
      </trkpt>
      <trkpt lat="43.30502" lon="5.68536">
        <ele>800</ele>
        <time>2019-11-29T09:58:22.000Z</time>
      </trkpt>
      <trkpt lat="43.30501" lon="5.68536">
        <ele>800</ele>
        <time>2019-11-29T09:58:23.000Z</time>
      </trkpt>
      <trkpt lat="43.30501" lon="5.68536">
        <ele>800</ele>
        <time>2019-11-29T09:58:24.000Z</time>
      </trkpt>
      <trkpt lat="43.305" lon="5.68536">
        <ele>800</ele>
        <time>2019-11-29T09:58:25.000Z</time>
      </trkpt>
      <trkpt lat="43.305" lon="5.68536">
        <ele>800</ele>
        <time>2019-11-29T09:58:26.000Z</time>
      </trkpt>
      <trkpt lat="43.30499" lon="5.68536">
        <ele>799</ele>
        <time>2019-11-29T09:58:27.000Z</time>
      </trkpt>
      <trkpt lat="43.30499" lon="5.68536">
        <ele>799</ele>
        <time>2019-11-29T09:58:28.000Z</time>
      </trkpt>
      <trkpt lat="43.30498" lon="5.68536">
        <ele>799</ele>
        <time>2019-11-29T09:58:29.000Z</time>
      </trkpt>
      <trkpt lat="43.30498" lon="5.68536">
        <ele>799</ele>
        <time>2019-11-29T09:58:30.000Z</time>
      </trkpt>
      <trkpt lat="43.30498" lon="5.68536">
        <ele>799</ele>
        <time>2019-11-29T09:58:31.000Z</time>
      </trkpt>
      <trkpt lat="43.30497" lon="5.68535">
        <ele>798</ele>
        <time>2019-11-29T09:58:32.000Z</time>
      </trkpt>
      <trkpt lat="43.30497" lon="5.68535">
        <ele>798</ele>
        <time>2019-11-29T09:58:33.000Z</time>
      </trkpt>
      <trkpt lat="43.30497" lon="5.68535">
        <ele>798</ele>
        <time>2019-11-29T09:58:34.000Z</time>
      </trkpt>
      <trkpt lat="43.30497" lon="5.68535">
        <ele>798</ele>
        <time>2019-11-29T09:58:35.000Z</time>
      </trkpt>
      <trkpt lat="43.30496" lon="5.68535">
        <ele>798</ele>
        <time>2019-11-29T09:58:36.000Z</time>
      </trkpt>
      <trkpt lat="43.30496" lon="5.68534">
        <ele>798</ele>
        <time>2019-11-29T09:58:37.000Z</time>
      </trkpt>
      <trkpt lat="43.30495" lon="5.68534">
        <ele>798</ele>
        <time>2019-11-29T09:58:38.000Z</time>
      </trkpt>
      <trkpt lat="43.30495" lon="5.68533">
        <ele>797</ele>
        <time>2019-11-29T09:58:39.000Z</time>
      </trkpt>
      <trkpt lat="43.30494" lon="5.68532">
        <ele>797</ele>
        <time>2019-11-29T09:58:40.000Z</time>
      </trkpt>
      <trkpt lat="43.30494" lon="5.68532">
        <ele>797</ele>
        <time>2019-11-29T09:58:41.000Z</time>
      </trkpt>
      <trkpt lat="43.30494" lon="5.68531">
        <ele>797</ele>
        <time>2019-11-29T09:58:42.000Z</time>
      </trkpt>
      <trkpt lat="43.30493" lon="5.6853">
        <ele>797</ele>
        <time>2019-11-29T09:58:43.000Z</time>
      </trkpt>
      <trkpt lat="43.30493" lon="5.68529">
        <ele>796</ele>
        <time>2019-11-29T09:58:44.000Z</time>
      </trkpt>
      <trkpt lat="43.30493" lon="5.68527">
        <ele>796</ele>
        <time>2019-11-29T09:58:45.000Z</time>
      </trkpt>
      <trkpt lat="43.30492" lon="5.68526">
        <ele>796</ele>
        <time>2019-11-29T09:58:46.000Z</time>
      </trkpt>
      <trkpt lat="43.30492" lon="5.68525">
        <ele>796</ele>
        <time>2019-11-29T09:58:47.000Z</time>
      </trkpt>
      <trkpt lat="43.30492" lon="5.68525">
        <ele>796</ele>
        <time>2019-11-29T09:58:48.000Z</time>
      </trkpt>
      <trkpt lat="43.30492" lon="5.68525">
        <ele>796</ele>
        <time>2019-11-29T09:58:49.000Z</time>
      </trkpt>
      <trkpt lat="43.30492" lon="5.68525">
        <ele>796</ele>
        <time>2019-11-29T09:58:50.000Z</time>
      </trkpt>
      <trkpt lat="43.30492" lon="5.68525">
        <ele>796</ele>
        <time>2019-11-29T09:58:51.000Z</time>
      </trkpt>
      <trkpt lat="43.30492" lon="5.68525">
        <ele>796</ele>
        <time>2019-11-29T09:58:52.000Z</time>
      </trkpt>
      <trkpt lat="43.30492" lon="5.68525">
        <ele>796</ele>
        <time>2019-11-29T09:58:53.000Z</time>
      </trkpt>
      <trkpt lat="43.30492" lon="5.68525">
        <ele>796</ele>
        <time>2019-11-29T09:58:54.000Z</time>
      </trkpt>
      <trkpt lat="43.30492" lon="5.68524">
        <ele>796</ele>
        <time>2019-11-29T09:58:55.000Z</time>
      </trkpt>
      <trkpt lat="43.30491" lon="5.68523">
        <ele>796</ele>
        <time>2019-11-29T09:58:56.000Z</time>
      </trkpt>
      <trkpt lat="43.30491" lon="5.68522">
        <ele>796</ele>
        <time>2019-11-29T09:58:57.000Z</time>
      </trkpt>
      <trkpt lat="43.30491" lon="5.68521">
        <ele>796</ele>
        <time>2019-11-29T09:58:58.000Z</time>
      </trkpt>
      <trkpt lat="43.3049" lon="5.6852">
        <ele>796</ele>
        <time>2019-11-29T09:58:59.000Z</time>
      </trkpt>
      <trkpt lat="43.3049" lon="5.68519">
        <ele>796</ele>
        <time>2019-11-29T09:59:00.000Z</time>
      </trkpt>
      <trkpt lat="43.3049" lon="5.68518">
        <ele>796</ele>
        <time>2019-11-29T09:59:01.000Z</time>
      </trkpt>
      <trkpt lat="43.3049" lon="5.68517">
        <ele>796</ele>
        <time>2019-11-29T09:59:02.000Z</time>
      </trkpt>
      <trkpt lat="43.30489" lon="5.68515">
        <ele>796</ele>
        <time>2019-11-29T09:59:03.000Z</time>
      </trkpt>
      <trkpt lat="43.3049" lon="5.68515">
        <ele>796</ele>
        <time>2019-11-29T09:59:04.000Z</time>
      </trkpt>
      <trkpt lat="43.3049" lon="5.68514">
        <ele>795</ele>
        <time>2019-11-29T09:59:05.000Z</time>
      </trkpt>
      <trkpt lat="43.3049" lon="5.68514">
        <ele>795</ele>
        <time>2019-11-29T09:59:06.000Z</time>
      </trkpt>
      <trkpt lat="43.3049" lon="5.68512">
        <ele>795</ele>
        <time>2019-11-29T09:59:07.000Z</time>
      </trkpt>
      <trkpt lat="43.3049" lon="5.68512">
        <ele>795</ele>
        <time>2019-11-29T09:59:08.000Z</time>
      </trkpt>
      <trkpt lat="43.3049" lon="5.6851">
        <ele>795</ele>
        <time>2019-11-29T09:59:09.000Z</time>
      </trkpt>
      <trkpt lat="43.3049" lon="5.68509">
        <ele>795</ele>
        <time>2019-11-29T09:59:10.000Z</time>
      </trkpt>
      <trkpt lat="43.3049" lon="5.68508">
        <ele>795</ele>
        <time>2019-11-29T09:59:11.000Z</time>
      </trkpt>
      <trkpt lat="43.3049" lon="5.68507">
        <ele>795</ele>
        <time>2019-11-29T09:59:12.000Z</time>
      </trkpt>
      <trkpt lat="43.3049" lon="5.68506">
        <ele>795</ele>
        <time>2019-11-29T09:59:13.000Z</time>
      </trkpt>
      <trkpt lat="43.3049" lon="5.68505">
        <ele>795</ele>
        <time>2019-11-29T09:59:14.000Z</time>
      </trkpt>
      <trkpt lat="43.3049" lon="5.68504">
        <ele>795</ele>
        <time>2019-11-29T09:59:15.000Z</time>
      </trkpt>
      <trkpt lat="43.30489" lon="5.68503">
        <ele>795</ele>
        <time>2019-11-29T09:59:16.000Z</time>
      </trkpt>
      <trkpt lat="43.30489" lon="5.68502">
        <ele>795</ele>
        <time>2019-11-29T09:59:17.000Z</time>
      </trkpt>
      <trkpt lat="43.30489" lon="5.68501">
        <ele>794</ele>
        <time>2019-11-29T09:59:18.000Z</time>
      </trkpt>
      <trkpt lat="43.30488" lon="5.685">
        <ele>794</ele>
        <time>2019-11-29T09:59:19.000Z</time>
      </trkpt>
      <trkpt lat="43.30488" lon="5.68498">
        <ele>794</ele>
        <time>2019-11-29T09:59:20.000Z</time>
      </trkpt>
      <trkpt lat="43.30487" lon="5.68497">
        <ele>794</ele>
        <time>2019-11-29T09:59:21.000Z</time>
      </trkpt>
      <trkpt lat="43.30487" lon="5.68496">
        <ele>794</ele>
        <time>2019-11-29T09:59:22.000Z</time>
      </trkpt>
      <trkpt lat="43.30487" lon="5.68494">
        <ele>794</ele>
        <time>2019-11-29T09:59:23.000Z</time>
      </trkpt>
      <trkpt lat="43.30487" lon="5.68493">
        <ele>794</ele>
        <time>2019-11-29T09:59:24.000Z</time>
      </trkpt>
      <trkpt lat="43.30486" lon="5.68492">
        <ele>794</ele>
        <time>2019-11-29T09:59:25.000Z</time>
      </trkpt>
      <trkpt lat="43.30486" lon="5.68492">
        <ele>794</ele>
        <time>2019-11-29T09:59:26.000Z</time>
      </trkpt>
      <trkpt lat="43.30486" lon="5.68491">
        <ele>794</ele>
        <time>2019-11-29T09:59:27.000Z</time>
      </trkpt>
      <trkpt lat="43.30486" lon="5.6849">
        <ele>794</ele>
        <time>2019-11-29T09:59:28.000Z</time>
      </trkpt>
      <trkpt lat="43.30485" lon="5.68489">
        <ele>794</ele>
        <time>2019-11-29T09:59:29.000Z</time>
      </trkpt>
      <trkpt lat="43.30485" lon="5.68488">
        <ele>794</ele>
        <time>2019-11-29T09:59:30.000Z</time>
      </trkpt>
      <trkpt lat="43.30485" lon="5.68488">
        <ele>794</ele>
        <time>2019-11-29T09:59:31.000Z</time>
      </trkpt>
      <trkpt lat="43.30485" lon="5.68488">
        <ele>794</ele>
        <time>2019-11-29T09:59:32.000Z</time>
      </trkpt>
      <trkpt lat="43.30485" lon="5.68487">
        <ele>794</ele>
        <time>2019-11-29T09:59:33.000Z</time>
      </trkpt>
      <trkpt lat="43.30485" lon="5.68487">
        <ele>793</ele>
        <time>2019-11-29T09:59:34.000Z</time>
      </trkpt>
      <trkpt lat="43.30485" lon="5.68487">
        <ele>793</ele>
        <time>2019-11-29T09:59:35.000Z</time>
      </trkpt>
      <trkpt lat="43.30485" lon="5.68488">
        <ele>793</ele>
        <time>2019-11-29T09:59:36.000Z</time>
      </trkpt>
      <trkpt lat="43.30485" lon="5.68488">
        <ele>793</ele>
        <time>2019-11-29T09:59:37.000Z</time>
      </trkpt>
      <trkpt lat="43.30484" lon="5.68488">
        <ele>793</ele>
        <time>2019-11-29T09:59:38.000Z</time>
      </trkpt>
      <trkpt lat="43.30484" lon="5.68488">
        <ele>793</ele>
        <time>2019-11-29T09:59:39.000Z</time>
      </trkpt>
      <trkpt lat="43.30484" lon="5.68488">
        <ele>793</ele>
        <time>2019-11-29T09:59:40.000Z</time>
      </trkpt>
      <trkpt lat="43.30483" lon="5.68489">
        <ele>793</ele>
        <time>2019-11-29T09:59:41.000Z</time>
      </trkpt>
      <trkpt lat="43.30482" lon="5.68489">
        <ele>793</ele>
        <time>2019-11-29T09:59:42.000Z</time>
      </trkpt>
      <trkpt lat="43.30482" lon="5.68488">
        <ele>793</ele>
        <time>2019-11-29T09:59:43.000Z</time>
      </trkpt>
      <trkpt lat="43.30481" lon="5.68488">
        <ele>792</ele>
        <time>2019-11-29T09:59:44.000Z</time>
      </trkpt>
      <trkpt lat="43.3048" lon="5.68487">
        <ele>792</ele>
        <time>2019-11-29T09:59:45.000Z</time>
      </trkpt>
      <trkpt lat="43.3048" lon="5.68486">
        <ele>792</ele>
        <time>2019-11-29T09:59:46.000Z</time>
      </trkpt>
      <trkpt lat="43.3048" lon="5.68486">
        <ele>792</ele>
        <time>2019-11-29T09:59:47.000Z</time>
      </trkpt>
      <trkpt lat="43.3048" lon="5.68486">
        <ele>792</ele>
        <time>2019-11-29T09:59:48.000Z</time>
      </trkpt>
      <trkpt lat="43.30479" lon="5.68486">
        <ele>792</ele>
        <time>2019-11-29T09:59:49.000Z</time>
      </trkpt>
      <trkpt lat="43.30479" lon="5.68485">
        <ele>791</ele>
        <time>2019-11-29T09:59:50.000Z</time>
      </trkpt>
      <trkpt lat="43.30478" lon="5.68485">
        <ele>791</ele>
        <time>2019-11-29T09:59:51.000Z</time>
      </trkpt>
      <trkpt lat="43.30478" lon="5.68484">
        <ele>791</ele>
        <time>2019-11-29T09:59:52.000Z</time>
      </trkpt>
      <trkpt lat="43.30478" lon="5.68484">
        <ele>791</ele>
        <time>2019-11-29T09:59:53.000Z</time>
      </trkpt>
      <trkpt lat="43.30478" lon="5.68484">
        <ele>791</ele>
        <time>2019-11-29T09:59:54.000Z</time>
      </trkpt>
      <trkpt lat="43.30478" lon="5.68484">
        <ele>791</ele>
        <time>2019-11-29T09:59:55.000Z</time>
      </trkpt>
      <trkpt lat="43.30478" lon="5.68484">
        <ele>791</ele>
        <time>2019-11-29T09:59:56.000Z</time>
      </trkpt>
      <trkpt lat="43.30478" lon="5.68485">
        <ele>791</ele>
        <time>2019-11-29T09:59:57.000Z</time>
      </trkpt>
      <trkpt lat="43.30477" lon="5.68485">
        <ele>791</ele>
        <time>2019-11-29T09:59:58.000Z</time>
      </trkpt>
      <trkpt lat="43.30476" lon="5.68485">
        <ele>790</ele>
        <time>2019-11-29T09:59:59.000Z</time>
      </trkpt>
      <trkpt lat="43.30476" lon="5.68485">
        <ele>790</ele>
        <time>2019-11-29T10:00:00.000Z</time>
      </trkpt>
      <trkpt lat="43.30475" lon="5.68485">
        <ele>790</ele>
        <time>2019-11-29T10:00:01.000Z</time>
      </trkpt>
      <trkpt lat="43.30475" lon="5.68486">
        <ele>790</ele>
        <time>2019-11-29T10:00:02.000Z</time>
      </trkpt>
      <trkpt lat="43.30474" lon="5.68486">
        <ele>790</ele>
        <time>2019-11-29T10:00:03.000Z</time>
      </trkpt>
      <trkpt lat="43.30474" lon="5.68487">
        <ele>790</ele>
        <time>2019-11-29T10:00:04.000Z</time>
      </trkpt>
      <trkpt lat="43.30473" lon="5.68487">
        <ele>790</ele>
        <time>2019-11-29T10:00:05.000Z</time>
      </trkpt>
      <trkpt lat="43.30473" lon="5.68487">
        <ele>790</ele>
        <time>2019-11-29T10:00:06.000Z</time>
      </trkpt>
      <trkpt lat="43.30473" lon="5.68487">
        <ele>790</ele>
        <time>2019-11-29T10:00:07.000Z</time>
      </trkpt>
      <trkpt lat="43.30472" lon="5.68487">
        <ele>790</ele>
        <time>2019-11-29T10:00:08.000Z</time>
      </trkpt>
      <trkpt lat="43.30472" lon="5.68487">
        <ele>790</ele>
        <time>2019-11-29T10:00:09.000Z</time>
      </trkpt>
      <trkpt lat="43.30472" lon="5.68487">
        <ele>790</ele>
        <time>2019-11-29T10:00:10.000Z</time>
      </trkpt>
      <trkpt lat="43.30472" lon="5.68487">
        <ele>790</ele>
        <time>2019-11-29T10:00:11.000Z</time>
      </trkpt>
      <trkpt lat="43.30472" lon="5.68487">
        <ele>790</ele>
        <time>2019-11-29T10:00:12.000Z</time>
      </trkpt>
      <trkpt lat="43.30472" lon="5.68487">
        <ele>790</ele>
        <time>2019-11-29T10:00:13.000Z</time>
      </trkpt>
      <trkpt lat="43.30472" lon="5.68487">
        <ele>790</ele>
        <time>2019-11-29T10:00:14.000Z</time>
      </trkpt>
      <trkpt lat="43.30472" lon="5.68487">
        <ele>790</ele>
        <time>2019-11-29T10:00:15.000Z</time>
      </trkpt>
      <trkpt lat="43.30472" lon="5.68487">
        <ele>790</ele>
        <time>2019-11-29T10:00:16.000Z</time>
      </trkpt>
      <trkpt lat="43.30472" lon="5.68487">
        <ele>790</ele>
        <time>2019-11-29T10:00:17.000Z</time>
      </trkpt>
      <trkpt lat="43.30472" lon="5.68487">
        <ele>790</ele>
        <time>2019-11-29T10:00:18.000Z</time>
      </trkpt>
      <trkpt lat="43.30472" lon="5.68487">
        <ele>790</ele>
        <time>2019-11-29T10:00:19.000Z</time>
      </trkpt>
      <trkpt lat="43.30472" lon="5.68487">
        <ele>790</ele>
        <time>2019-11-29T10:00:20.000Z</time>
      </trkpt>
      <trkpt lat="43.30473" lon="5.68487">
        <ele>789</ele>
        <time>2019-11-29T10:00:21.000Z</time>
      </trkpt>
      <trkpt lat="43.30473" lon="5.68487">
        <ele>790</ele>
        <time>2019-11-29T10:00:22.000Z</time>
      </trkpt>
      <trkpt lat="43.30473" lon="5.68487">
        <ele>790</ele>
        <time>2019-11-29T10:00:23.000Z</time>
      </trkpt>
      <trkpt lat="43.30473" lon="5.68486">
        <ele>790</ele>
        <time>2019-11-29T10:00:24.000Z</time>
      </trkpt>
      <trkpt lat="43.30473" lon="5.68486">
        <ele>790</ele>
        <time>2019-11-29T10:00:25.000Z</time>
      </trkpt>
      <trkpt lat="43.30473" lon="5.68486">
        <ele>790</ele>
        <time>2019-11-29T10:00:26.000Z</time>
      </trkpt>
      <trkpt lat="43.30473" lon="5.68486">
        <ele>789</ele>
        <time>2019-11-29T10:00:27.000Z</time>
      </trkpt>
      <trkpt lat="43.30473" lon="5.68486">
        <ele>789</ele>
        <time>2019-11-29T10:00:28.000Z</time>
      </trkpt>
      <trkpt lat="43.30473" lon="5.68486">
        <ele>789</ele>
        <time>2019-11-29T10:00:29.000Z</time>
      </trkpt>
      <trkpt lat="43.30473" lon="5.68487">
        <ele>789</ele>
        <time>2019-11-29T10:00:30.000Z</time>
      </trkpt>
      <trkpt lat="43.30473" lon="5.68487">
        <ele>789</ele>
        <time>2019-11-29T10:00:31.000Z</time>
      </trkpt>
      <trkpt lat="43.30473" lon="5.68487">
        <ele>789</ele>
        <time>2019-11-29T10:00:32.000Z</time>
      </trkpt>
      <trkpt lat="43.30473" lon="5.68487">
        <ele>789</ele>
        <time>2019-11-29T10:00:33.000Z</time>
      </trkpt>
      <trkpt lat="43.30473" lon="5.68487">
        <ele>789</ele>
        <time>2019-11-29T10:00:34.000Z</time>
      </trkpt>
      <trkpt lat="43.30473" lon="5.68487">
        <ele>789</ele>
        <time>2019-11-29T10:00:35.000Z</time>
      </trkpt>
      <trkpt lat="43.30473" lon="5.68487">
        <ele>789</ele>
        <time>2019-11-29T10:00:36.000Z</time>
      </trkpt>
      <trkpt lat="43.30473" lon="5.68487">
        <ele>789</ele>
        <time>2019-11-29T10:00:37.000Z</time>
      </trkpt>
      <trkpt lat="43.30473" lon="5.68487">
        <ele>789</ele>
        <time>2019-11-29T10:00:38.000Z</time>
      </trkpt>
      <trkpt lat="43.30473" lon="5.68487">
        <ele>789</ele>
        <time>2019-11-29T10:00:39.000Z</time>
      </trkpt>
      <trkpt lat="43.30473" lon="5.68487">
        <ele>789</ele>
        <time>2019-11-29T10:00:40.000Z</time>
      </trkpt>
      <trkpt lat="43.30473" lon="5.68487">
        <ele>789</ele>
        <time>2019-11-29T10:00:41.000Z</time>
      </trkpt>
      <trkpt lat="43.30473" lon="5.68487">
        <ele>789</ele>
        <time>2019-11-29T10:00:42.000Z</time>
      </trkpt>
      <trkpt lat="43.30473" lon="5.68487">
        <ele>789</ele>
        <time>2019-11-29T10:00:43.000Z</time>
      </trkpt>
      <trkpt lat="43.30473" lon="5.68487">
        <ele>789</ele>
        <time>2019-11-29T10:00:44.000Z</time>
      </trkpt>
      <trkpt lat="43.30473" lon="5.68487">
        <ele>789</ele>
        <time>2019-11-29T10:00:45.000Z</time>
      </trkpt>
      <trkpt lat="43.30473" lon="5.68487">
        <ele>789</ele>
        <time>2019-11-29T10:00:46.000Z</time>
      </trkpt>
      <trkpt lat="43.30473" lon="5.68487">
        <ele>789</ele>
        <time>2019-11-29T10:00:47.000Z</time>
      </trkpt>
      <trkpt lat="43.30473" lon="5.68487">
        <ele>789</ele>
        <time>2019-11-29T10:00:48.000Z</time>
      </trkpt>
      <trkpt lat="43.30473" lon="5.68487">
        <ele>789</ele>
        <time>2019-11-29T10:00:49.000Z</time>
      </trkpt>
      <trkpt lat="43.30473" lon="5.68487">
        <ele>789</ele>
        <time>2019-11-29T10:00:50.000Z</time>
      </trkpt>
      <trkpt lat="43.30473" lon="5.68487">
        <ele>789</ele>
        <time>2019-11-29T10:00:51.000Z</time>
      </trkpt>
      <trkpt lat="43.30473" lon="5.68487">
        <ele>789</ele>
        <time>2019-11-29T10:00:52.000Z</time>
      </trkpt>
      <trkpt lat="43.30473" lon="5.68487">
        <ele>789</ele>
        <time>2019-11-29T10:00:53.000Z</time>
      </trkpt>
      <trkpt lat="43.30473" lon="5.68487">
        <ele>789</ele>
        <time>2019-11-29T10:00:54.000Z</time>
      </trkpt>
      <trkpt lat="43.30473" lon="5.68487">
        <ele>789</ele>
        <time>2019-11-29T10:00:55.000Z</time>
      </trkpt>
      <trkpt lat="43.30473" lon="5.68487">
        <ele>789</ele>
        <time>2019-11-29T10:00:56.000Z</time>
      </trkpt>
      <trkpt lat="43.30473" lon="5.68487">
        <ele>789</ele>
        <time>2019-11-29T10:00:57.000Z</time>
      </trkpt>
      <trkpt lat="43.30473" lon="5.68487">
        <ele>789</ele>
        <time>2019-11-29T10:00:58.000Z</time>
      </trkpt>
      <trkpt lat="43.30473" lon="5.68487">
        <ele>789</ele>
        <time>2019-11-29T10:00:59.000Z</time>
      </trkpt>
      <trkpt lat="43.30473" lon="5.68487">
        <ele>789</ele>
        <time>2019-11-29T10:01:00.000Z</time>
      </trkpt>
      <trkpt lat="43.30473" lon="5.68487">
        <ele>789</ele>
        <time>2019-11-29T10:01:01.000Z</time>
      </trkpt>
      <trkpt lat="43.30473" lon="5.68487">
        <ele>789</ele>
        <time>2019-11-29T10:01:02.000Z</time>
      </trkpt>
      <trkpt lat="43.30473" lon="5.68487">
        <ele>789</ele>
        <time>2019-11-29T10:01:03.000Z</time>
      </trkpt>
      <trkpt lat="43.30472" lon="5.68487">
        <ele>789</ele>
        <time>2019-11-29T10:01:04.000Z</time>
      </trkpt>
      <trkpt lat="43.30471" lon="5.68486">
        <ele>789</ele>
        <time>2019-11-29T10:01:05.000Z</time>
      </trkpt>
      <trkpt lat="43.30471" lon="5.68486">
        <ele>789</ele>
        <time>2019-11-29T10:01:06.000Z</time>
      </trkpt>
      <trkpt lat="43.3047" lon="5.68486">
        <ele>789</ele>
        <time>2019-11-29T10:01:07.000Z</time>
      </trkpt>
      <trkpt lat="43.3047" lon="5.68486">
        <ele>789</ele>
        <time>2019-11-29T10:01:08.000Z</time>
      </trkpt>
      <trkpt lat="43.3047" lon="5.68486">
        <ele>789</ele>
        <time>2019-11-29T10:01:09.000Z</time>
      </trkpt>
      <trkpt lat="43.3047" lon="5.68486">
        <ele>789</ele>
        <time>2019-11-29T10:01:10.000Z</time>
      </trkpt>
      <trkpt lat="43.3047" lon="5.68486">
        <ele>789</ele>
        <time>2019-11-29T10:01:11.000Z</time>
      </trkpt>
      <trkpt lat="43.3047" lon="5.68486">
        <ele>789</ele>
        <time>2019-11-29T10:01:12.000Z</time>
      </trkpt>
      <trkpt lat="43.3047" lon="5.68486">
        <ele>789</ele>
        <time>2019-11-29T10:01:13.000Z</time>
      </trkpt>
      <trkpt lat="43.3047" lon="5.68486">
        <ele>789</ele>
        <time>2019-11-29T10:01:14.000Z</time>
      </trkpt>
      <trkpt lat="43.3047" lon="5.68486">
        <ele>789</ele>
        <time>2019-11-29T10:01:15.000Z</time>
      </trkpt>
      <trkpt lat="43.3047" lon="5.68486">
        <ele>789</ele>
        <time>2019-11-29T10:01:16.000Z</time>
      </trkpt>
      <trkpt lat="43.3047" lon="5.68486">
        <ele>788</ele>
        <time>2019-11-29T10:01:17.000Z</time>
      </trkpt>
      <trkpt lat="43.3047" lon="5.68486">
        <ele>788</ele>
        <time>2019-11-29T10:01:18.000Z</time>
      </trkpt>
      <trkpt lat="43.3047" lon="5.68486">
        <ele>788</ele>
        <time>2019-11-29T10:01:19.000Z</time>
      </trkpt>
      <trkpt lat="43.3047" lon="5.68486">
        <ele>788</ele>
        <time>2019-11-29T10:01:20.000Z</time>
      </trkpt>
      <trkpt lat="43.3047" lon="5.68486">
        <ele>788</ele>
        <time>2019-11-29T10:01:21.000Z</time>
      </trkpt>
      <trkpt lat="43.3047" lon="5.68486">
        <ele>788</ele>
        <time>2019-11-29T10:01:22.000Z</time>
      </trkpt>
      <trkpt lat="43.3047" lon="5.68486">
        <ele>788</ele>
        <time>2019-11-29T10:01:23.000Z</time>
      </trkpt>
      <trkpt lat="43.3047" lon="5.68486">
        <ele>788</ele>
        <time>2019-11-29T10:01:24.000Z</time>
      </trkpt>
      <trkpt lat="43.3047" lon="5.68486">
        <ele>788</ele>
        <time>2019-11-29T10:01:25.000Z</time>
      </trkpt>
      <trkpt lat="43.3047" lon="5.68486">
        <ele>788</ele>
        <time>2019-11-29T10:01:26.000Z</time>
      </trkpt>
      <trkpt lat="43.3047" lon="5.68486">
        <ele>788</ele>
        <time>2019-11-29T10:01:27.000Z</time>
      </trkpt>
      <trkpt lat="43.3047" lon="5.68486">
        <ele>788</ele>
        <time>2019-11-29T10:01:28.000Z</time>
      </trkpt>
      <trkpt lat="43.3047" lon="5.68486">
        <ele>788</ele>
        <time>2019-11-29T10:01:29.000Z</time>
      </trkpt>
      <trkpt lat="43.3047" lon="5.68486">
        <ele>788</ele>
        <time>2019-11-29T10:01:30.000Z</time>
      </trkpt>
      <trkpt lat="43.3047" lon="5.68486">
        <ele>788</ele>
        <time>2019-11-29T10:01:31.000Z</time>
      </trkpt>
      <trkpt lat="43.3047" lon="5.68486">
        <ele>788</ele>
        <time>2019-11-29T10:01:32.000Z</time>
      </trkpt>
      <trkpt lat="43.3047" lon="5.68486">
        <ele>788</ele>
        <time>2019-11-29T10:01:33.000Z</time>
      </trkpt>
      <trkpt lat="43.3047" lon="5.68486">
        <ele>788</ele>
        <time>2019-11-29T10:01:34.000Z</time>
      </trkpt>
      <trkpt lat="43.3047" lon="5.68486">
        <ele>788</ele>
        <time>2019-11-29T10:01:35.000Z</time>
      </trkpt>
      <trkpt lat="43.3047" lon="5.68486">
        <ele>788</ele>
        <time>2019-11-29T10:01:36.000Z</time>
      </trkpt>
      <trkpt lat="43.3047" lon="5.68486">
        <ele>788</ele>
        <time>2019-11-29T10:01:37.000Z</time>
      </trkpt>
      <trkpt lat="43.3047" lon="5.68486">
        <ele>788</ele>
        <time>2019-11-29T10:01:38.000Z</time>
      </trkpt>
      <trkpt lat="43.3047" lon="5.68486">
        <ele>788</ele>
        <time>2019-11-29T10:01:39.000Z</time>
      </trkpt>
      <trkpt lat="43.3047" lon="5.68486">
        <ele>788</ele>
        <time>2019-11-29T10:01:40.000Z</time>
      </trkpt>
      <trkpt lat="43.3047" lon="5.68486">
        <ele>788</ele>
        <time>2019-11-29T10:01:41.000Z</time>
      </trkpt>
      <trkpt lat="43.3047" lon="5.68486">
        <ele>788</ele>
        <time>2019-11-29T10:01:42.000Z</time>
      </trkpt>
      <trkpt lat="43.3047" lon="5.68486">
        <ele>788</ele>
        <time>2019-11-29T10:01:43.000Z</time>
      </trkpt>
      <trkpt lat="43.3047" lon="5.68486">
        <ele>788</ele>
        <time>2019-11-29T10:01:44.000Z</time>
      </trkpt>
      <trkpt lat="43.3047" lon="5.68486">
        <ele>788</ele>
        <time>2019-11-29T10:01:45.000Z</time>
      </trkpt>
      <trkpt lat="43.3047" lon="5.68486">
        <ele>788</ele>
        <time>2019-11-29T10:01:46.000Z</time>
      </trkpt>
      <trkpt lat="43.3047" lon="5.68486">
        <ele>788</ele>
        <time>2019-11-29T10:01:47.000Z</time>
      </trkpt>
      <trkpt lat="43.3047" lon="5.68486">
        <ele>788</ele>
        <time>2019-11-29T10:01:48.000Z</time>
      </trkpt>
      <trkpt lat="43.3047" lon="5.68486">
        <ele>788</ele>
        <time>2019-11-29T10:01:49.000Z</time>
      </trkpt>
      <trkpt lat="43.3047" lon="5.68486">
        <ele>788</ele>
        <time>2019-11-29T10:01:50.000Z</time>
      </trkpt>
      <trkpt lat="43.3047" lon="5.68486">
        <ele>788</ele>
        <time>2019-11-29T10:01:51.000Z</time>
      </trkpt>
      <trkpt lat="43.3047" lon="5.68486">
        <ele>788</ele>
        <time>2019-11-29T10:01:52.000Z</time>
      </trkpt>
      <trkpt lat="43.30469" lon="5.68486">
        <ele>788</ele>
        <time>2019-11-29T10:01:53.000Z</time>
      </trkpt>
      <trkpt lat="43.30469" lon="5.68485">
        <ele>788</ele>
        <time>2019-11-29T10:01:54.000Z</time>
      </trkpt>
      <trkpt lat="43.30468" lon="5.68485">
        <ele>788</ele>
        <time>2019-11-29T10:01:55.000Z</time>
      </trkpt>
      <trkpt lat="43.30467" lon="5.68485">
        <ele>788</ele>
        <time>2019-11-29T10:01:56.000Z</time>
      </trkpt>
      <trkpt lat="43.30467" lon="5.68485">
        <ele>787</ele>
        <time>2019-11-29T10:01:57.000Z</time>
      </trkpt>
      <trkpt lat="43.30466" lon="5.68484">
        <ele>787</ele>
        <time>2019-11-29T10:01:58.000Z</time>
      </trkpt>
      <trkpt lat="43.30466" lon="5.68484">
        <ele>787</ele>
        <time>2019-11-29T10:01:59.000Z</time>
      </trkpt>
      <trkpt lat="43.30465" lon="5.68484">
        <ele>787</ele>
        <time>2019-11-29T10:02:00.000Z</time>
      </trkpt>
      <trkpt lat="43.30465" lon="5.68483">
        <ele>787</ele>
        <time>2019-11-29T10:02:01.000Z</time>
      </trkpt>
      <trkpt lat="43.30464" lon="5.68482">
        <ele>787</ele>
        <time>2019-11-29T10:02:02.000Z</time>
      </trkpt>
      <trkpt lat="43.30464" lon="5.68481">
        <ele>787</ele>
        <time>2019-11-29T10:02:03.000Z</time>
      </trkpt>
      <trkpt lat="43.30464" lon="5.68481">
        <ele>786</ele>
        <time>2019-11-29T10:02:04.000Z</time>
      </trkpt>
      <trkpt lat="43.30464" lon="5.6848">
        <ele>786</ele>
        <time>2019-11-29T10:02:05.000Z</time>
      </trkpt>
      <trkpt lat="43.30464" lon="5.68479">
        <ele>786</ele>
        <time>2019-11-29T10:02:06.000Z</time>
      </trkpt>
      <trkpt lat="43.30464" lon="5.68478">
        <ele>786</ele>
        <time>2019-11-29T10:02:07.000Z</time>
      </trkpt>
      <trkpt lat="43.30464" lon="5.68478">
        <ele>786</ele>
        <time>2019-11-29T10:02:08.000Z</time>
      </trkpt>
      <trkpt lat="43.30464" lon="5.68478">
        <ele>785</ele>
        <time>2019-11-29T10:02:09.000Z</time>
      </trkpt>
      <trkpt lat="43.30464" lon="5.68477">
        <ele>785</ele>
        <time>2019-11-29T10:02:10.000Z</time>
      </trkpt>
      <trkpt lat="43.30464" lon="5.68476">
        <ele>785</ele>
        <time>2019-11-29T10:02:11.000Z</time>
      </trkpt>
      <trkpt lat="43.30463" lon="5.68475">
        <ele>785</ele>
        <time>2019-11-29T10:02:12.000Z</time>
      </trkpt>
      <trkpt lat="43.30463" lon="5.68474">
        <ele>785</ele>
        <time>2019-11-29T10:02:13.000Z</time>
      </trkpt>
      <trkpt lat="43.30463" lon="5.68473">
        <ele>784</ele>
        <time>2019-11-29T10:02:14.000Z</time>
      </trkpt>
      <trkpt lat="43.30462" lon="5.68472">
        <ele>784</ele>
        <time>2019-11-29T10:02:15.000Z</time>
      </trkpt>
      <trkpt lat="43.30462" lon="5.68471">
        <ele>784</ele>
        <time>2019-11-29T10:02:16.000Z</time>
      </trkpt>
      <trkpt lat="43.30462" lon="5.68469">
        <ele>784</ele>
        <time>2019-11-29T10:02:17.000Z</time>
      </trkpt>
      <trkpt lat="43.30463" lon="5.68468">
        <ele>784</ele>
        <time>2019-11-29T10:02:18.000Z</time>
      </trkpt>
      <trkpt lat="43.30463" lon="5.68466">
        <ele>784</ele>
        <time>2019-11-29T10:02:19.000Z</time>
      </trkpt>
      <trkpt lat="43.30464" lon="5.68466">
        <ele>783</ele>
        <time>2019-11-29T10:02:20.000Z</time>
      </trkpt>
      <trkpt lat="43.30464" lon="5.68464">
        <ele>783</ele>
        <time>2019-11-29T10:02:21.000Z</time>
      </trkpt>
      <trkpt lat="43.30465" lon="5.68464">
        <ele>783</ele>
        <time>2019-11-29T10:02:22.000Z</time>
      </trkpt>
      <trkpt lat="43.30466" lon="5.68462">
        <ele>783</ele>
        <time>2019-11-29T10:02:23.000Z</time>
      </trkpt>
      <trkpt lat="43.30466" lon="5.68462">
        <ele>783</ele>
        <time>2019-11-29T10:02:24.000Z</time>
      </trkpt>
      <trkpt lat="43.30467" lon="5.68461">
        <ele>783</ele>
        <time>2019-11-29T10:02:25.000Z</time>
      </trkpt>
      <trkpt lat="43.30467" lon="5.6846">
        <ele>783</ele>
        <time>2019-11-29T10:02:26.000Z</time>
      </trkpt>
      <trkpt lat="43.30467" lon="5.6846">
        <ele>783</ele>
        <time>2019-11-29T10:02:27.000Z</time>
      </trkpt>
      <trkpt lat="43.30466" lon="5.6846">
        <ele>783</ele>
        <time>2019-11-29T10:02:28.000Z</time>
      </trkpt>
      <trkpt lat="43.30466" lon="5.68459">
        <ele>783</ele>
        <time>2019-11-29T10:02:29.000Z</time>
      </trkpt>
      <trkpt lat="43.30466" lon="5.68458">
        <ele>783</ele>
        <time>2019-11-29T10:02:30.000Z</time>
      </trkpt>
      <trkpt lat="43.30465" lon="5.68458">
        <ele>783</ele>
        <time>2019-11-29T10:02:31.000Z</time>
      </trkpt>
      <trkpt lat="43.30465" lon="5.68457">
        <ele>783</ele>
        <time>2019-11-29T10:02:32.000Z</time>
      </trkpt>
      <trkpt lat="43.30465" lon="5.68456">
        <ele>783</ele>
        <time>2019-11-29T10:02:33.000Z</time>
      </trkpt>
      <trkpt lat="43.30464" lon="5.68455">
        <ele>783</ele>
        <time>2019-11-29T10:02:34.000Z</time>
      </trkpt>
      <trkpt lat="43.30464" lon="5.68455">
        <ele>783</ele>
        <time>2019-11-29T10:02:35.000Z</time>
      </trkpt>
      <trkpt lat="43.30463" lon="5.68454">
        <ele>783</ele>
        <time>2019-11-29T10:02:36.000Z</time>
      </trkpt>
      <trkpt lat="43.30463" lon="5.68454">
        <ele>783</ele>
        <time>2019-11-29T10:02:37.000Z</time>
      </trkpt>
      <trkpt lat="43.30462" lon="5.68453">
        <ele>783</ele>
        <time>2019-11-29T10:02:38.000Z</time>
      </trkpt>
      <trkpt lat="43.30462" lon="5.68452">
        <ele>783</ele>
        <time>2019-11-29T10:02:39.000Z</time>
      </trkpt>
      <trkpt lat="43.30462" lon="5.68451">
        <ele>783</ele>
        <time>2019-11-29T10:02:40.000Z</time>
      </trkpt>
      <trkpt lat="43.30462" lon="5.6845">
        <ele>783</ele>
        <time>2019-11-29T10:02:41.000Z</time>
      </trkpt>
      <trkpt lat="43.30463" lon="5.6845">
        <ele>782</ele>
        <time>2019-11-29T10:02:42.000Z</time>
      </trkpt>
      <trkpt lat="43.30463" lon="5.68449">
        <ele>782</ele>
        <time>2019-11-29T10:02:43.000Z</time>
      </trkpt>
      <trkpt lat="43.30463" lon="5.68449">
        <ele>782</ele>
        <time>2019-11-29T10:02:44.000Z</time>
      </trkpt>
      <trkpt lat="43.30463" lon="5.68449">
        <ele>782</ele>
        <time>2019-11-29T10:02:45.000Z</time>
      </trkpt>
      <trkpt lat="43.30463" lon="5.68449">
        <ele>782</ele>
        <time>2019-11-29T10:02:46.000Z</time>
      </trkpt>
      <trkpt lat="43.30462" lon="5.68449">
        <ele>782</ele>
        <time>2019-11-29T10:02:47.000Z</time>
      </trkpt>
      <trkpt lat="43.30462" lon="5.68449">
        <ele>782</ele>
        <time>2019-11-29T10:02:48.000Z</time>
      </trkpt>
      <trkpt lat="43.30462" lon="5.68448">
        <ele>782</ele>
        <time>2019-11-29T10:02:49.000Z</time>
      </trkpt>
      <trkpt lat="43.30462" lon="5.68447">
        <ele>782</ele>
        <time>2019-11-29T10:02:50.000Z</time>
      </trkpt>
      <trkpt lat="43.30462" lon="5.68447">
        <ele>782</ele>
        <time>2019-11-29T10:02:51.000Z</time>
      </trkpt>
      <trkpt lat="43.30462" lon="5.68446">
        <ele>782</ele>
        <time>2019-11-29T10:02:52.000Z</time>
      </trkpt>
      <trkpt lat="43.30461" lon="5.68445">
        <ele>782</ele>
        <time>2019-11-29T10:02:53.000Z</time>
      </trkpt>
      <trkpt lat="43.30461" lon="5.68445">
        <ele>781</ele>
        <time>2019-11-29T10:02:54.000Z</time>
      </trkpt>
      <trkpt lat="43.30461" lon="5.68444">
        <ele>781</ele>
        <time>2019-11-29T10:02:55.000Z</time>
      </trkpt>
      <trkpt lat="43.30461" lon="5.68443">
        <ele>781</ele>
        <time>2019-11-29T10:02:56.000Z</time>
      </trkpt>
      <trkpt lat="43.30461" lon="5.68443">
        <ele>781</ele>
        <time>2019-11-29T10:02:57.000Z</time>
      </trkpt>
      <trkpt lat="43.30461" lon="5.68443">
        <ele>781</ele>
        <time>2019-11-29T10:02:58.000Z</time>
      </trkpt>
      <trkpt lat="43.30461" lon="5.68442">
        <ele>781</ele>
        <time>2019-11-29T10:02:59.000Z</time>
      </trkpt>
      <trkpt lat="43.30461" lon="5.68443">
        <ele>781</ele>
        <time>2019-11-29T10:03:00.000Z</time>
      </trkpt>
      <trkpt lat="43.30461" lon="5.68443">
        <ele>781</ele>
        <time>2019-11-29T10:03:01.000Z</time>
      </trkpt>
      <trkpt lat="43.3046" lon="5.68442">
        <ele>781</ele>
        <time>2019-11-29T10:03:02.000Z</time>
      </trkpt>
      <trkpt lat="43.3046" lon="5.68442">
        <ele>781</ele>
        <time>2019-11-29T10:03:03.000Z</time>
      </trkpt>
      <trkpt lat="43.3046" lon="5.68442">
        <ele>781</ele>
        <time>2019-11-29T10:03:04.000Z</time>
      </trkpt>
      <trkpt lat="43.3046" lon="5.68442">
        <ele>780</ele>
        <time>2019-11-29T10:03:05.000Z</time>
      </trkpt>
      <trkpt lat="43.3046" lon="5.68442">
        <ele>780</ele>
        <time>2019-11-29T10:03:06.000Z</time>
      </trkpt>
      <trkpt lat="43.30459" lon="5.68441">
        <ele>780</ele>
        <time>2019-11-29T10:03:07.000Z</time>
      </trkpt>
      <trkpt lat="43.30458" lon="5.68439">
        <ele>780</ele>
        <time>2019-11-29T10:03:08.000Z</time>
      </trkpt>
      <trkpt lat="43.30457" lon="5.68438">
        <ele>780</ele>
        <time>2019-11-29T10:03:09.000Z</time>
      </trkpt>
      <trkpt lat="43.30456" lon="5.68437">
        <ele>780</ele>
        <time>2019-11-29T10:03:10.000Z</time>
      </trkpt>
      <trkpt lat="43.30456" lon="5.68437">
        <ele>780</ele>
        <time>2019-11-29T10:03:11.000Z</time>
      </trkpt>
      <trkpt lat="43.30456" lon="5.68436">
        <ele>780</ele>
        <time>2019-11-29T10:03:12.000Z</time>
      </trkpt>
      <trkpt lat="43.30456" lon="5.68436">
        <ele>780</ele>
        <time>2019-11-29T10:03:13.000Z</time>
      </trkpt>
      <trkpt lat="43.30456" lon="5.68436">
        <ele>780</ele>
        <time>2019-11-29T10:03:14.000Z</time>
      </trkpt>
      <trkpt lat="43.30456" lon="5.68436">
        <ele>780</ele>
        <time>2019-11-29T10:03:15.000Z</time>
      </trkpt>
      <trkpt lat="43.30457" lon="5.68436">
        <ele>780</ele>
        <time>2019-11-29T10:03:16.000Z</time>
      </trkpt>
      <trkpt lat="43.30457" lon="5.68436">
        <ele>780</ele>
        <time>2019-11-29T10:03:17.000Z</time>
      </trkpt>
      <trkpt lat="43.30457" lon="5.68436">
        <ele>780</ele>
        <time>2019-11-29T10:03:18.000Z</time>
      </trkpt>
      <trkpt lat="43.30457" lon="5.68437">
        <ele>780</ele>
        <time>2019-11-29T10:03:19.000Z</time>
      </trkpt>
      <trkpt lat="43.30456" lon="5.68438">
        <ele>780</ele>
        <time>2019-11-29T10:03:20.000Z</time>
      </trkpt>
      <trkpt lat="43.30455" lon="5.68438">
        <ele>779</ele>
        <time>2019-11-29T10:03:21.000Z</time>
      </trkpt>
      <trkpt lat="43.30454" lon="5.68438">
        <ele>779</ele>
        <time>2019-11-29T10:03:22.000Z</time>
      </trkpt>
      <trkpt lat="43.30454" lon="5.68438">
        <ele>779</ele>
        <time>2019-11-29T10:03:23.000Z</time>
      </trkpt>
      <trkpt lat="43.30453" lon="5.68438">
        <ele>779</ele>
        <time>2019-11-29T10:03:24.000Z</time>
      </trkpt>
      <trkpt lat="43.30452" lon="5.68438">
        <ele>780</ele>
        <time>2019-11-29T10:03:25.000Z</time>
      </trkpt>
      <trkpt lat="43.30451" lon="5.68439">
        <ele>780</ele>
        <time>2019-11-29T10:03:26.000Z</time>
      </trkpt>
      <trkpt lat="43.3045" lon="5.68438">
        <ele>780</ele>
        <time>2019-11-29T10:03:27.000Z</time>
      </trkpt>
      <trkpt lat="43.30449" lon="5.68438">
        <ele>780</ele>
        <time>2019-11-29T10:03:28.000Z</time>
      </trkpt>
      <trkpt lat="43.30448" lon="5.68437">
        <ele>780</ele>
        <time>2019-11-29T10:03:29.000Z</time>
      </trkpt>
      <trkpt lat="43.30447" lon="5.68436">
        <ele>780</ele>
        <time>2019-11-29T10:03:30.000Z</time>
      </trkpt>
      <trkpt lat="43.30446" lon="5.68436">
        <ele>780</ele>
        <time>2019-11-29T10:03:31.000Z</time>
      </trkpt>
      <trkpt lat="43.30446" lon="5.68435">
        <ele>780</ele>
        <time>2019-11-29T10:03:32.000Z</time>
      </trkpt>
      <trkpt lat="43.30445" lon="5.68435">
        <ele>780</ele>
        <time>2019-11-29T10:03:33.000Z</time>
      </trkpt>
      <trkpt lat="43.30445" lon="5.68435">
        <ele>780</ele>
        <time>2019-11-29T10:03:34.000Z</time>
      </trkpt>
      <trkpt lat="43.30445" lon="5.68435">
        <ele>780</ele>
        <time>2019-11-29T10:03:35.000Z</time>
      </trkpt>
      <trkpt lat="43.30445" lon="5.68435">
        <ele>780</ele>
        <time>2019-11-29T10:03:36.000Z</time>
      </trkpt>
      <trkpt lat="43.30445" lon="5.68435">
        <ele>780</ele>
        <time>2019-11-29T10:03:37.000Z</time>
      </trkpt>
      <trkpt lat="43.30445" lon="5.68435">
        <ele>780</ele>
        <time>2019-11-29T10:03:38.000Z</time>
      </trkpt>
      <trkpt lat="43.30445" lon="5.68435">
        <ele>780</ele>
        <time>2019-11-29T10:03:39.000Z</time>
      </trkpt>
      <trkpt lat="43.30445" lon="5.68435">
        <ele>780</ele>
        <time>2019-11-29T10:03:40.000Z</time>
      </trkpt>
      <trkpt lat="43.30444" lon="5.68435">
        <ele>780</ele>
        <time>2019-11-29T10:03:41.000Z</time>
      </trkpt>
      <trkpt lat="43.30444" lon="5.68435">
        <ele>780</ele>
        <time>2019-11-29T10:03:42.000Z</time>
      </trkpt>
      <trkpt lat="43.30444" lon="5.68435">
        <ele>780</ele>
        <time>2019-11-29T10:03:43.000Z</time>
      </trkpt>
      <trkpt lat="43.30444" lon="5.68435">
        <ele>780</ele>
        <time>2019-11-29T10:03:44.000Z</time>
      </trkpt>
      <trkpt lat="43.30444" lon="5.68434">
        <ele>780</ele>
        <time>2019-11-29T10:03:45.000Z</time>
      </trkpt>
      <trkpt lat="43.30445" lon="5.68434">
        <ele>780</ele>
        <time>2019-11-29T10:03:46.000Z</time>
      </trkpt>
      <trkpt lat="43.30445" lon="5.68434">
        <ele>780</ele>
        <time>2019-11-29T10:03:47.000Z</time>
      </trkpt>
      <trkpt lat="43.30445" lon="5.68434">
        <ele>780</ele>
        <time>2019-11-29T10:03:48.000Z</time>
      </trkpt>
      <trkpt lat="43.30445" lon="5.68434">
        <ele>780</ele>
        <time>2019-11-29T10:03:49.000Z</time>
      </trkpt>
      <trkpt lat="43.30444" lon="5.68435">
        <ele>780</ele>
        <time>2019-11-29T10:03:50.000Z</time>
      </trkpt>
      <trkpt lat="43.30444" lon="5.68435">
        <ele>780</ele>
        <time>2019-11-29T10:03:51.000Z</time>
      </trkpt>
      <trkpt lat="43.30444" lon="5.68435">
        <ele>780</ele>
        <time>2019-11-29T10:03:52.000Z</time>
      </trkpt>
      <trkpt lat="43.30445" lon="5.68435">
        <ele>780</ele>
        <time>2019-11-29T10:03:53.000Z</time>
      </trkpt>
      <trkpt lat="43.30445" lon="5.68435">
        <ele>780</ele>
        <time>2019-11-29T10:03:54.000Z</time>
      </trkpt>
      <trkpt lat="43.30445" lon="5.68435">
        <ele>780</ele>
        <time>2019-11-29T10:03:55.000Z</time>
      </trkpt>
      <trkpt lat="43.30445" lon="5.68435">
        <ele>780</ele>
        <time>2019-11-29T10:03:56.000Z</time>
      </trkpt>
      <trkpt lat="43.30445" lon="5.68435">
        <ele>780</ele>
        <time>2019-11-29T10:03:57.000Z</time>
      </trkpt>
      <trkpt lat="43.30445" lon="5.68435">
        <ele>780</ele>
        <time>2019-11-29T10:03:58.000Z</time>
      </trkpt>
      <trkpt lat="43.30445" lon="5.68435">
        <ele>780</ele>
        <time>2019-11-29T10:03:59.000Z</time>
      </trkpt>
      <trkpt lat="43.30444" lon="5.68435">
        <ele>780</ele>
        <time>2019-11-29T10:04:00.000Z</time>
      </trkpt>
      <trkpt lat="43.30444" lon="5.68435">
        <ele>780</ele>
        <time>2019-11-29T10:04:01.000Z</time>
      </trkpt>
      <trkpt lat="43.30444" lon="5.68435">
        <ele>780</ele>
        <time>2019-11-29T10:04:02.000Z</time>
      </trkpt>
      <trkpt lat="43.30444" lon="5.68435">
        <ele>780</ele>
        <time>2019-11-29T10:04:03.000Z</time>
      </trkpt>
      <trkpt lat="43.30444" lon="5.68435">
        <ele>780</ele>
        <time>2019-11-29T10:04:04.000Z</time>
      </trkpt>
      <trkpt lat="43.30444" lon="5.68435">
        <ele>780</ele>
        <time>2019-11-29T10:04:05.000Z</time>
      </trkpt>
      <trkpt lat="43.30444" lon="5.68435">
        <ele>780</ele>
        <time>2019-11-29T10:04:06.000Z</time>
      </trkpt>
      <trkpt lat="43.30444" lon="5.68435">
        <ele>780</ele>
        <time>2019-11-29T10:04:07.000Z</time>
      </trkpt>
      <trkpt lat="43.30444" lon="5.68435">
        <ele>780</ele>
        <time>2019-11-29T10:04:08.000Z</time>
      </trkpt>
      <trkpt lat="43.30444" lon="5.68435">
        <ele>780</ele>
        <time>2019-11-29T10:04:09.000Z</time>
      </trkpt>
      <trkpt lat="43.30444" lon="5.68436">
        <ele>780</ele>
        <time>2019-11-29T10:04:10.000Z</time>
      </trkpt>
      <trkpt lat="43.30444" lon="5.68436">
        <ele>780</ele>
        <time>2019-11-29T10:04:11.000Z</time>
      </trkpt>
      <trkpt lat="43.30444" lon="5.68436">
        <ele>780</ele>
        <time>2019-11-29T10:04:12.000Z</time>
      </trkpt>
      <trkpt lat="43.30444" lon="5.68436">
        <ele>780</ele>
        <time>2019-11-29T10:04:13.000Z</time>
      </trkpt>
      <trkpt lat="43.30444" lon="5.68436">
        <ele>780</ele>
        <time>2019-11-29T10:04:14.000Z</time>
      </trkpt>
      <trkpt lat="43.30444" lon="5.68436">
        <ele>780</ele>
        <time>2019-11-29T10:04:15.000Z</time>
      </trkpt>
      <trkpt lat="43.30444" lon="5.68436">
        <ele>780</ele>
        <time>2019-11-29T10:04:16.000Z</time>
      </trkpt>
      <trkpt lat="43.30444" lon="5.68436">
        <ele>780</ele>
        <time>2019-11-29T10:04:17.000Z</time>
      </trkpt>
      <trkpt lat="43.30444" lon="5.68436">
        <ele>780</ele>
        <time>2019-11-29T10:04:18.000Z</time>
      </trkpt>
      <trkpt lat="43.30444" lon="5.68436">
        <ele>780</ele>
        <time>2019-11-29T10:04:19.000Z</time>
      </trkpt>
      <trkpt lat="43.30444" lon="5.68436">
        <ele>780</ele>
        <time>2019-11-29T10:04:20.000Z</time>
      </trkpt>
      <trkpt lat="43.30444" lon="5.68436">
        <ele>780</ele>
        <time>2019-11-29T10:04:21.000Z</time>
      </trkpt>
      <trkpt lat="43.30444" lon="5.68436">
        <ele>780</ele>
        <time>2019-11-29T10:04:22.000Z</time>
      </trkpt>
      <trkpt lat="43.30444" lon="5.68436">
        <ele>780</ele>
        <time>2019-11-29T10:04:23.000Z</time>
      </trkpt>
      <trkpt lat="43.30444" lon="5.68436">
        <ele>780</ele>
        <time>2019-11-29T10:04:24.000Z</time>
      </trkpt>
      <trkpt lat="43.30444" lon="5.68436">
        <ele>780</ele>
        <time>2019-11-29T10:04:25.000Z</time>
      </trkpt>
      <trkpt lat="43.30444" lon="5.68435">
        <ele>780</ele>
        <time>2019-11-29T10:04:26.000Z</time>
      </trkpt>
      <trkpt lat="43.30444" lon="5.68435">
        <ele>780</ele>
        <time>2019-11-29T10:04:27.000Z</time>
      </trkpt>
      <trkpt lat="43.30444" lon="5.68435">
        <ele>780</ele>
        <time>2019-11-29T10:04:28.000Z</time>
      </trkpt>
      <trkpt lat="43.30444" lon="5.68435">
        <ele>780</ele>
        <time>2019-11-29T10:04:29.000Z</time>
      </trkpt>
      <trkpt lat="43.30444" lon="5.68435">
        <ele>780</ele>
        <time>2019-11-29T10:04:30.000Z</time>
      </trkpt>
      <trkpt lat="43.30444" lon="5.68435">
        <ele>780</ele>
        <time>2019-11-29T10:04:31.000Z</time>
      </trkpt>
      <trkpt lat="43.30444" lon="5.68435">
        <ele>780</ele>
        <time>2019-11-29T10:04:32.000Z</time>
      </trkpt>
      <trkpt lat="43.30444" lon="5.68435">
        <ele>780</ele>
        <time>2019-11-29T10:04:33.000Z</time>
      </trkpt>
      <trkpt lat="43.30444" lon="5.68435">
        <ele>780</ele>
        <time>2019-11-29T10:04:34.000Z</time>
      </trkpt>
      <trkpt lat="43.30444" lon="5.68435">
        <ele>780</ele>
        <time>2019-11-29T10:04:35.000Z</time>
      </trkpt>
      <trkpt lat="43.30444" lon="5.68435">
        <ele>780</ele>
        <time>2019-11-29T10:04:36.000Z</time>
      </trkpt>
      <trkpt lat="43.30444" lon="5.68435">
        <ele>780</ele>
        <time>2019-11-29T10:04:37.000Z</time>
      </trkpt>
      <trkpt lat="43.30444" lon="5.68435">
        <ele>780</ele>
        <time>2019-11-29T10:04:38.000Z</time>
      </trkpt>
      <trkpt lat="43.30444" lon="5.68435">
        <ele>780</ele>
        <time>2019-11-29T10:04:39.000Z</time>
      </trkpt>
      <trkpt lat="43.30444" lon="5.68435">
        <ele>780</ele>
        <time>2019-11-29T10:04:40.000Z</time>
      </trkpt>
      <trkpt lat="43.30444" lon="5.68435">
        <ele>780</ele>
        <time>2019-11-29T10:04:41.000Z</time>
      </trkpt>
      <trkpt lat="43.30444" lon="5.68435">
        <ele>780</ele>
        <time>2019-11-29T10:04:42.000Z</time>
      </trkpt>
      <trkpt lat="43.30444" lon="5.68435">
        <ele>780</ele>
        <time>2019-11-29T10:04:43.000Z</time>
      </trkpt>
      <trkpt lat="43.30444" lon="5.68435">
        <ele>780</ele>
        <time>2019-11-29T10:04:44.000Z</time>
      </trkpt>
      <trkpt lat="43.30444" lon="5.68435">
        <ele>780</ele>
        <time>2019-11-29T10:04:45.000Z</time>
      </trkpt>
      <trkpt lat="43.30444" lon="5.68435">
        <ele>780</ele>
        <time>2019-11-29T10:04:46.000Z</time>
      </trkpt>
      <trkpt lat="43.30444" lon="5.68435">
        <ele>780</ele>
        <time>2019-11-29T10:04:47.000Z</time>
      </trkpt>
      <trkpt lat="43.30444" lon="5.68435">
        <ele>780</ele>
        <time>2019-11-29T10:04:48.000Z</time>
      </trkpt>
      <trkpt lat="43.30444" lon="5.68436">
        <ele>780</ele>
        <time>2019-11-29T10:04:49.000Z</time>
      </trkpt>
      <trkpt lat="43.30443" lon="5.68436">
        <ele>780</ele>
        <time>2019-11-29T10:04:50.000Z</time>
      </trkpt>
      <trkpt lat="43.30443" lon="5.68435">
        <ele>780</ele>
        <time>2019-11-29T10:04:51.000Z</time>
      </trkpt>
      <trkpt lat="43.30443" lon="5.68434">
        <ele>780</ele>
        <time>2019-11-29T10:04:52.000Z</time>
      </trkpt>
      <trkpt lat="43.30443" lon="5.68433">
        <ele>780</ele>
        <time>2019-11-29T10:04:53.000Z</time>
      </trkpt>
      <trkpt lat="43.30443" lon="5.68433">
        <ele>781</ele>
        <time>2019-11-29T10:04:54.000Z</time>
      </trkpt>
      <trkpt lat="43.30443" lon="5.68432">
        <ele>781</ele>
        <time>2019-11-29T10:04:55.000Z</time>
      </trkpt>
      <trkpt lat="43.30443" lon="5.68432">
        <ele>781</ele>
        <time>2019-11-29T10:04:56.000Z</time>
      </trkpt>
      <trkpt lat="43.30442" lon="5.68432">
        <ele>781</ele>
        <time>2019-11-29T10:04:57.000Z</time>
      </trkpt>
      <trkpt lat="43.30442" lon="5.68432">
        <ele>781</ele>
        <time>2019-11-29T10:04:58.000Z</time>
      </trkpt>
      <trkpt lat="43.30442" lon="5.68432">
        <ele>781</ele>
        <time>2019-11-29T10:04:59.000Z</time>
      </trkpt>
      <trkpt lat="43.30442" lon="5.68432">
        <ele>781</ele>
        <time>2019-11-29T10:05:00.000Z</time>
      </trkpt>
      <trkpt lat="43.30442" lon="5.68431">
        <ele>781</ele>
        <time>2019-11-29T10:05:01.000Z</time>
      </trkpt>
      <trkpt lat="43.30442" lon="5.6843">
        <ele>781</ele>
        <time>2019-11-29T10:05:02.000Z</time>
      </trkpt>
      <trkpt lat="43.30442" lon="5.68429">
        <ele>781</ele>
        <time>2019-11-29T10:05:03.000Z</time>
      </trkpt>
      <trkpt lat="43.30442" lon="5.68429">
        <ele>781</ele>
        <time>2019-11-29T10:05:04.000Z</time>
      </trkpt>
      <trkpt lat="43.30442" lon="5.68429">
        <ele>781</ele>
        <time>2019-11-29T10:05:05.000Z</time>
      </trkpt>
      <trkpt lat="43.30442" lon="5.68429">
        <ele>781</ele>
        <time>2019-11-29T10:05:06.000Z</time>
      </trkpt>
      <trkpt lat="43.30442" lon="5.68429">
        <ele>781</ele>
        <time>2019-11-29T10:05:07.000Z</time>
      </trkpt>
      <trkpt lat="43.30442" lon="5.68429">
        <ele>781</ele>
        <time>2019-11-29T10:05:08.000Z</time>
      </trkpt>
      <trkpt lat="43.30442" lon="5.68429">
        <ele>781</ele>
        <time>2019-11-29T10:05:09.000Z</time>
      </trkpt>
      <trkpt lat="43.30442" lon="5.68429">
        <ele>781</ele>
        <time>2019-11-29T10:05:10.000Z</time>
      </trkpt>
      <trkpt lat="43.30442" lon="5.68429">
        <ele>781</ele>
        <time>2019-11-29T10:05:11.000Z</time>
      </trkpt>
      <trkpt lat="43.30442" lon="5.68429">
        <ele>781</ele>
        <time>2019-11-29T10:05:12.000Z</time>
      </trkpt>
      <trkpt lat="43.30442" lon="5.68429">
        <ele>781</ele>
        <time>2019-11-29T10:05:13.000Z</time>
      </trkpt>
      <trkpt lat="43.30442" lon="5.68429">
        <ele>781</ele>
        <time>2019-11-29T10:05:14.000Z</time>
      </trkpt>
      <trkpt lat="43.30442" lon="5.68429">
        <ele>781</ele>
        <time>2019-11-29T10:05:15.000Z</time>
      </trkpt>
      <trkpt lat="43.30442" lon="5.68429">
        <ele>781</ele>
        <time>2019-11-29T10:05:16.000Z</time>
      </trkpt>
      <trkpt lat="43.30442" lon="5.68429">
        <ele>781</ele>
        <time>2019-11-29T10:05:17.000Z</time>
      </trkpt>
      <trkpt lat="43.30442" lon="5.68428">
        <ele>781</ele>
        <time>2019-11-29T10:05:18.000Z</time>
      </trkpt>
      <trkpt lat="43.30442" lon="5.68428">
        <ele>781</ele>
        <time>2019-11-29T10:05:19.000Z</time>
      </trkpt>
      <trkpt lat="43.30442" lon="5.68428">
        <ele>781</ele>
        <time>2019-11-29T10:05:20.000Z</time>
      </trkpt>
      <trkpt lat="43.30442" lon="5.68429">
        <ele>781</ele>
        <time>2019-11-29T10:05:21.000Z</time>
      </trkpt>
      <trkpt lat="43.30442" lon="5.68429">
        <ele>781</ele>
        <time>2019-11-29T10:05:22.000Z</time>
      </trkpt>
      <trkpt lat="43.30442" lon="5.68429">
        <ele>781</ele>
        <time>2019-11-29T10:05:23.000Z</time>
      </trkpt>
      <trkpt lat="43.30443" lon="5.68429">
        <ele>781</ele>
        <time>2019-11-29T10:05:24.000Z</time>
      </trkpt>
      <trkpt lat="43.30443" lon="5.68429">
        <ele>781</ele>
        <time>2019-11-29T10:05:25.000Z</time>
      </trkpt>
      <trkpt lat="43.30442" lon="5.68429">
        <ele>781</ele>
        <time>2019-11-29T10:05:26.000Z</time>
      </trkpt>
      <trkpt lat="43.30442" lon="5.68429">
        <ele>781</ele>
        <time>2019-11-29T10:05:27.000Z</time>
      </trkpt>
      <trkpt lat="43.30442" lon="5.68429">
        <ele>781</ele>
        <time>2019-11-29T10:05:28.000Z</time>
      </trkpt>
      <trkpt lat="43.30442" lon="5.68429">
        <ele>781</ele>
        <time>2019-11-29T10:05:29.000Z</time>
      </trkpt>
      <trkpt lat="43.30442" lon="5.68429">
        <ele>781</ele>
        <time>2019-11-29T10:05:30.000Z</time>
      </trkpt>
      <trkpt lat="43.30442" lon="5.68429">
        <ele>781</ele>
        <time>2019-11-29T10:05:31.000Z</time>
      </trkpt>
      <trkpt lat="43.30442" lon="5.68429">
        <ele>781</ele>
        <time>2019-11-29T10:05:32.000Z</time>
      </trkpt>
      <trkpt lat="43.30442" lon="5.68429">
        <ele>781</ele>
        <time>2019-11-29T10:05:33.000Z</time>
      </trkpt>
      <trkpt lat="43.30442" lon="5.68429">
        <ele>781</ele>
        <time>2019-11-29T10:05:34.000Z</time>
      </trkpt>
      <trkpt lat="43.30442" lon="5.68429">
        <ele>781</ele>
        <time>2019-11-29T10:05:35.000Z</time>
      </trkpt>
      <trkpt lat="43.30442" lon="5.68429">
        <ele>781</ele>
        <time>2019-11-29T10:05:36.000Z</time>
      </trkpt>
      <trkpt lat="43.30442" lon="5.68429">
        <ele>781</ele>
        <time>2019-11-29T10:05:37.000Z</time>
      </trkpt>
      <trkpt lat="43.30442" lon="5.68429">
        <ele>781</ele>
        <time>2019-11-29T10:05:38.000Z</time>
      </trkpt>
      <trkpt lat="43.30442" lon="5.68428">
        <ele>781</ele>
        <time>2019-11-29T10:05:39.000Z</time>
      </trkpt>
      <trkpt lat="43.30442" lon="5.68427">
        <ele>781</ele>
        <time>2019-11-29T10:05:40.000Z</time>
      </trkpt>
      <trkpt lat="43.30442" lon="5.68426">
        <ele>781</ele>
        <time>2019-11-29T10:05:41.000Z</time>
      </trkpt>
      <trkpt lat="43.30442" lon="5.68425">
        <ele>780</ele>
        <time>2019-11-29T10:05:42.000Z</time>
      </trkpt>
      <trkpt lat="43.30442" lon="5.68424">
        <ele>780</ele>
        <time>2019-11-29T10:05:43.000Z</time>
      </trkpt>
      <trkpt lat="43.30442" lon="5.68423">
        <ele>780</ele>
        <time>2019-11-29T10:05:44.000Z</time>
      </trkpt>
      <trkpt lat="43.30442" lon="5.68423">
        <ele>780</ele>
        <time>2019-11-29T10:05:45.000Z</time>
      </trkpt>
      <trkpt lat="43.30441" lon="5.68422">
        <ele>780</ele>
        <time>2019-11-29T10:05:46.000Z</time>
      </trkpt>
      <trkpt lat="43.30441" lon="5.68421">
        <ele>779</ele>
        <time>2019-11-29T10:05:47.000Z</time>
      </trkpt>
      <trkpt lat="43.3044" lon="5.6842">
        <ele>779</ele>
        <time>2019-11-29T10:05:48.000Z</time>
      </trkpt>
      <trkpt lat="43.3044" lon="5.68419">
        <ele>779</ele>
        <time>2019-11-29T10:05:49.000Z</time>
      </trkpt>
      <trkpt lat="43.3044" lon="5.68418">
        <ele>779</ele>
        <time>2019-11-29T10:05:50.000Z</time>
      </trkpt>
      <trkpt lat="43.3044" lon="5.68417">
        <ele>779</ele>
        <time>2019-11-29T10:05:51.000Z</time>
      </trkpt>
      <trkpt lat="43.3044" lon="5.68416">
        <ele>778</ele>
        <time>2019-11-29T10:05:52.000Z</time>
      </trkpt>
      <trkpt lat="43.3044" lon="5.68415">
        <ele>778</ele>
        <time>2019-11-29T10:05:53.000Z</time>
      </trkpt>
      <trkpt lat="43.30441" lon="5.68414">
        <ele>778</ele>
        <time>2019-11-29T10:05:54.000Z</time>
      </trkpt>
      <trkpt lat="43.30441" lon="5.68413">
        <ele>778</ele>
        <time>2019-11-29T10:05:55.000Z</time>
      </trkpt>
      <trkpt lat="43.30441" lon="5.68412">
        <ele>778</ele>
        <time>2019-11-29T10:05:56.000Z</time>
      </trkpt>
      <trkpt lat="43.30441" lon="5.68412">
        <ele>778</ele>
        <time>2019-11-29T10:05:57.000Z</time>
      </trkpt>
      <trkpt lat="43.30441" lon="5.68412">
        <ele>778</ele>
        <time>2019-11-29T10:05:58.000Z</time>
      </trkpt>
      <trkpt lat="43.30441" lon="5.68412">
        <ele>778</ele>
        <time>2019-11-29T10:05:59.000Z</time>
      </trkpt>
      <trkpt lat="43.30441" lon="5.68412">
        <ele>778</ele>
        <time>2019-11-29T10:06:00.000Z</time>
      </trkpt>
      <trkpt lat="43.30441" lon="5.68411">
        <ele>777</ele>
        <time>2019-11-29T10:06:01.000Z</time>
      </trkpt>
      <trkpt lat="43.30441" lon="5.6841">
        <ele>777</ele>
        <time>2019-11-29T10:06:02.000Z</time>
      </trkpt>
      <trkpt lat="43.3044" lon="5.68409">
        <ele>777</ele>
        <time>2019-11-29T10:06:03.000Z</time>
      </trkpt>
      <trkpt lat="43.3044" lon="5.68408">
        <ele>777</ele>
        <time>2019-11-29T10:06:04.000Z</time>
      </trkpt>
      <trkpt lat="43.3044" lon="5.68407">
        <ele>777</ele>
        <time>2019-11-29T10:06:05.000Z</time>
      </trkpt>
      <trkpt lat="43.30439" lon="5.68407">
        <ele>777</ele>
        <time>2019-11-29T10:06:06.000Z</time>
      </trkpt>
      <trkpt lat="43.30439" lon="5.68405">
        <ele>777</ele>
        <time>2019-11-29T10:06:07.000Z</time>
      </trkpt>
      <trkpt lat="43.30439" lon="5.68404">
        <ele>777</ele>
        <time>2019-11-29T10:06:08.000Z</time>
      </trkpt>
      <trkpt lat="43.30439" lon="5.68403">
        <ele>777</ele>
        <time>2019-11-29T10:06:09.000Z</time>
      </trkpt>
      <trkpt lat="43.30439" lon="5.68403">
        <ele>777</ele>
        <time>2019-11-29T10:06:10.000Z</time>
      </trkpt>
      <trkpt lat="43.30439" lon="5.68403">
        <ele>777</ele>
        <time>2019-11-29T10:06:11.000Z</time>
      </trkpt>
      <trkpt lat="43.30439" lon="5.68403">
        <ele>777</ele>
        <time>2019-11-29T10:06:12.000Z</time>
      </trkpt>
      <trkpt lat="43.30439" lon="5.68403">
        <ele>777</ele>
        <time>2019-11-29T10:06:13.000Z</time>
      </trkpt>
      <trkpt lat="43.30439" lon="5.68403">
        <ele>776</ele>
        <time>2019-11-29T10:06:14.000Z</time>
      </trkpt>
      <trkpt lat="43.30439" lon="5.68403">
        <ele>776</ele>
        <time>2019-11-29T10:06:15.000Z</time>
      </trkpt>
      <trkpt lat="43.30439" lon="5.68403">
        <ele>776</ele>
        <time>2019-11-29T10:06:16.000Z</time>
      </trkpt>
      <trkpt lat="43.30439" lon="5.68403">
        <ele>776</ele>
        <time>2019-11-29T10:06:17.000Z</time>
      </trkpt>
      <trkpt lat="43.30439" lon="5.68403">
        <ele>776</ele>
        <time>2019-11-29T10:06:18.000Z</time>
      </trkpt>
      <trkpt lat="43.30439" lon="5.68403">
        <ele>776</ele>
        <time>2019-11-29T10:06:19.000Z</time>
      </trkpt>
      <trkpt lat="43.30439" lon="5.68403">
        <ele>776</ele>
        <time>2019-11-29T10:06:20.000Z</time>
      </trkpt>
      <trkpt lat="43.30439" lon="5.68402">
        <ele>776</ele>
        <time>2019-11-29T10:06:21.000Z</time>
      </trkpt>
      <trkpt lat="43.30439" lon="5.68402">
        <ele>776</ele>
        <time>2019-11-29T10:06:22.000Z</time>
      </trkpt>
      <trkpt lat="43.30439" lon="5.68402">
        <ele>776</ele>
        <time>2019-11-29T10:06:23.000Z</time>
      </trkpt>
      <trkpt lat="43.30439" lon="5.68402">
        <ele>776</ele>
        <time>2019-11-29T10:06:24.000Z</time>
      </trkpt>
      <trkpt lat="43.30439" lon="5.68402">
        <ele>776</ele>
        <time>2019-11-29T10:06:25.000Z</time>
      </trkpt>
      <trkpt lat="43.30439" lon="5.68402">
        <ele>776</ele>
        <time>2019-11-29T10:06:26.000Z</time>
      </trkpt>
      <trkpt lat="43.30439" lon="5.68402">
        <ele>776</ele>
        <time>2019-11-29T10:06:27.000Z</time>
      </trkpt>
      <trkpt lat="43.30439" lon="5.68402">
        <ele>776</ele>
        <time>2019-11-29T10:06:28.000Z</time>
      </trkpt>
      <trkpt lat="43.30438" lon="5.68401">
        <ele>776</ele>
        <time>2019-11-29T10:06:29.000Z</time>
      </trkpt>
      <trkpt lat="43.30438" lon="5.684">
        <ele>776</ele>
        <time>2019-11-29T10:06:30.000Z</time>
      </trkpt>
      <trkpt lat="43.30437" lon="5.68399">
        <ele>775</ele>
        <time>2019-11-29T10:06:31.000Z</time>
      </trkpt>
      <trkpt lat="43.30437" lon="5.68398">
        <ele>775</ele>
        <time>2019-11-29T10:06:32.000Z</time>
      </trkpt>
      <trkpt lat="43.30436" lon="5.68397">
        <ele>775</ele>
        <time>2019-11-29T10:06:33.000Z</time>
      </trkpt>
      <trkpt lat="43.30435" lon="5.68396">
        <ele>775</ele>
        <time>2019-11-29T10:06:34.000Z</time>
      </trkpt>
      <trkpt lat="43.30435" lon="5.68395">
        <ele>775</ele>
        <time>2019-11-29T10:06:35.000Z</time>
      </trkpt>
      <trkpt lat="43.30435" lon="5.68395">
        <ele>775</ele>
        <time>2019-11-29T10:06:36.000Z</time>
      </trkpt>
      <trkpt lat="43.30434" lon="5.68394">
        <ele>775</ele>
        <time>2019-11-29T10:06:37.000Z</time>
      </trkpt>
      <trkpt lat="43.30434" lon="5.68394">
        <ele>775</ele>
        <time>2019-11-29T10:06:38.000Z</time>
      </trkpt>
      <trkpt lat="43.30434" lon="5.68393">
        <ele>774</ele>
        <time>2019-11-29T10:06:39.000Z</time>
      </trkpt>
      <trkpt lat="43.30433" lon="5.68392">
        <ele>774</ele>
        <time>2019-11-29T10:06:40.000Z</time>
      </trkpt>
      <trkpt lat="43.30433" lon="5.68392">
        <ele>774</ele>
        <time>2019-11-29T10:06:41.000Z</time>
      </trkpt>
      <trkpt lat="43.30433" lon="5.68392">
        <ele>774</ele>
        <time>2019-11-29T10:06:42.000Z</time>
      </trkpt>
      <trkpt lat="43.30433" lon="5.68392">
        <ele>774</ele>
        <time>2019-11-29T10:06:43.000Z</time>
      </trkpt>
      <trkpt lat="43.30433" lon="5.68392">
        <ele>774</ele>
        <time>2019-11-29T10:06:44.000Z</time>
      </trkpt>
      <trkpt lat="43.30433" lon="5.68392">
        <ele>774</ele>
        <time>2019-11-29T10:06:45.000Z</time>
      </trkpt>
      <trkpt lat="43.30432" lon="5.68392">
        <ele>774</ele>
        <time>2019-11-29T10:06:46.000Z</time>
      </trkpt>
      <trkpt lat="43.30431" lon="5.68393">
        <ele>774</ele>
        <time>2019-11-29T10:06:47.000Z</time>
      </trkpt>
      <trkpt lat="43.30431" lon="5.68394">
        <ele>774</ele>
        <time>2019-11-29T10:06:48.000Z</time>
      </trkpt>
      <trkpt lat="43.3043" lon="5.68394">
        <ele>774</ele>
        <time>2019-11-29T10:06:49.000Z</time>
      </trkpt>
      <trkpt lat="43.30429" lon="5.68394">
        <ele>774</ele>
        <time>2019-11-29T10:06:50.000Z</time>
      </trkpt>
      <trkpt lat="43.30429" lon="5.68393">
        <ele>773</ele>
        <time>2019-11-29T10:06:51.000Z</time>
      </trkpt>
      <trkpt lat="43.30428" lon="5.68393">
        <ele>773</ele>
        <time>2019-11-29T10:06:52.000Z</time>
      </trkpt>
      <trkpt lat="43.30427" lon="5.68392">
        <ele>773</ele>
        <time>2019-11-29T10:06:53.000Z</time>
      </trkpt>
      <trkpt lat="43.30427" lon="5.68391">
        <ele>773</ele>
        <time>2019-11-29T10:06:54.000Z</time>
      </trkpt>
      <trkpt lat="43.30426" lon="5.6839">
        <ele>773</ele>
        <time>2019-11-29T10:06:55.000Z</time>
      </trkpt>
      <trkpt lat="43.30426" lon="5.68388">
        <ele>773</ele>
        <time>2019-11-29T10:06:56.000Z</time>
      </trkpt>
      <trkpt lat="43.30426" lon="5.68387">
        <ele>773</ele>
        <time>2019-11-29T10:06:57.000Z</time>
      </trkpt>
      <trkpt lat="43.30425" lon="5.68386">
        <ele>773</ele>
        <time>2019-11-29T10:06:58.000Z</time>
      </trkpt>
      <trkpt lat="43.30425" lon="5.68385">
        <ele>772</ele>
        <time>2019-11-29T10:06:59.000Z</time>
      </trkpt>
      <trkpt lat="43.30424" lon="5.68384">
        <ele>772</ele>
        <time>2019-11-29T10:07:00.000Z</time>
      </trkpt>
      <trkpt lat="43.30424" lon="5.68383">
        <ele>772</ele>
        <time>2019-11-29T10:07:01.000Z</time>
      </trkpt>
      <trkpt lat="43.30424" lon="5.68381">
        <ele>772</ele>
        <time>2019-11-29T10:07:02.000Z</time>
      </trkpt>
      <trkpt lat="43.30424" lon="5.6838">
        <ele>772</ele>
        <time>2019-11-29T10:07:03.000Z</time>
      </trkpt>
      <trkpt lat="43.30424" lon="5.68378">
        <ele>772</ele>
        <time>2019-11-29T10:07:04.000Z</time>
      </trkpt>
      <trkpt lat="43.30424" lon="5.68377">
        <ele>772</ele>
        <time>2019-11-29T10:07:05.000Z</time>
      </trkpt>
      <trkpt lat="43.30424" lon="5.68376">
        <ele>772</ele>
        <time>2019-11-29T10:07:06.000Z</time>
      </trkpt>
      <trkpt lat="43.30424" lon="5.68375">
        <ele>772</ele>
        <time>2019-11-29T10:07:07.000Z</time>
      </trkpt>
      <trkpt lat="43.30424" lon="5.68375">
        <ele>772</ele>
        <time>2019-11-29T10:07:08.000Z</time>
      </trkpt>
      <trkpt lat="43.30425" lon="5.68375">
        <ele>772</ele>
        <time>2019-11-29T10:07:09.000Z</time>
      </trkpt>
      <trkpt lat="43.30425" lon="5.68375">
        <ele>772</ele>
        <time>2019-11-29T10:07:10.000Z</time>
      </trkpt>
      <trkpt lat="43.30425" lon="5.68375">
        <ele>772</ele>
        <time>2019-11-29T10:07:11.000Z</time>
      </trkpt>
      <trkpt lat="43.30425" lon="5.68375">
        <ele>772</ele>
        <time>2019-11-29T10:07:12.000Z</time>
      </trkpt>
      <trkpt lat="43.30425" lon="5.68375">
        <ele>772</ele>
        <time>2019-11-29T10:07:13.000Z</time>
      </trkpt>
      <trkpt lat="43.30425" lon="5.68375">
        <ele>772</ele>
        <time>2019-11-29T10:07:14.000Z</time>
      </trkpt>
      <trkpt lat="43.30425" lon="5.68375">
        <ele>772</ele>
        <time>2019-11-29T10:07:15.000Z</time>
      </trkpt>
      <trkpt lat="43.30425" lon="5.68375">
        <ele>772</ele>
        <time>2019-11-29T10:07:16.000Z</time>
      </trkpt>
      <trkpt lat="43.30425" lon="5.68375">
        <ele>771</ele>
        <time>2019-11-29T10:07:17.000Z</time>
      </trkpt>
      <trkpt lat="43.30424" lon="5.68375">
        <ele>771</ele>
        <time>2019-11-29T10:07:18.000Z</time>
      </trkpt>
      <trkpt lat="43.30424" lon="5.68375">
        <ele>771</ele>
        <time>2019-11-29T10:07:19.000Z</time>
      </trkpt>
      <trkpt lat="43.30423" lon="5.68374">
        <ele>771</ele>
        <time>2019-11-29T10:07:20.000Z</time>
      </trkpt>
      <trkpt lat="43.30423" lon="5.68373">
        <ele>771</ele>
        <time>2019-11-29T10:07:21.000Z</time>
      </trkpt>
      <trkpt lat="43.30422" lon="5.68373">
        <ele>771</ele>
        <time>2019-11-29T10:07:22.000Z</time>
      </trkpt>
      <trkpt lat="43.30422" lon="5.68372">
        <ele>771</ele>
        <time>2019-11-29T10:07:23.000Z</time>
      </trkpt>
      <trkpt lat="43.30422" lon="5.68372">
        <ele>771</ele>
        <time>2019-11-29T10:07:24.000Z</time>
      </trkpt>
      <trkpt lat="43.30422" lon="5.68371">
        <ele>771</ele>
        <time>2019-11-29T10:07:25.000Z</time>
      </trkpt>
      <trkpt lat="43.30421" lon="5.6837">
        <ele>770</ele>
        <time>2019-11-29T10:07:26.000Z</time>
      </trkpt>
      <trkpt lat="43.30421" lon="5.6837">
        <ele>770</ele>
        <time>2019-11-29T10:07:27.000Z</time>
      </trkpt>
      <trkpt lat="43.3042" lon="5.68369">
        <ele>770</ele>
        <time>2019-11-29T10:07:28.000Z</time>
      </trkpt>
      <trkpt lat="43.3042" lon="5.68368">
        <ele>770</ele>
        <time>2019-11-29T10:07:29.000Z</time>
      </trkpt>
      <trkpt lat="43.3042" lon="5.68368">
        <ele>770</ele>
        <time>2019-11-29T10:07:30.000Z</time>
      </trkpt>
      <trkpt lat="43.3042" lon="5.68368">
        <ele>770</ele>
        <time>2019-11-29T10:07:31.000Z</time>
      </trkpt>
      <trkpt lat="43.3042" lon="5.68368">
        <ele>770</ele>
        <time>2019-11-29T10:07:32.000Z</time>
      </trkpt>
      <trkpt lat="43.3042" lon="5.68369">
        <ele>770</ele>
        <time>2019-11-29T10:07:33.000Z</time>
      </trkpt>
      <trkpt lat="43.3042" lon="5.68369">
        <ele>770</ele>
        <time>2019-11-29T10:07:34.000Z</time>
      </trkpt>
      <trkpt lat="43.3042" lon="5.68369">
        <ele>770</ele>
        <time>2019-11-29T10:07:35.000Z</time>
      </trkpt>
      <trkpt lat="43.3042" lon="5.68369">
        <ele>770</ele>
        <time>2019-11-29T10:07:36.000Z</time>
      </trkpt>
      <trkpt lat="43.3042" lon="5.68368">
        <ele>770</ele>
        <time>2019-11-29T10:07:37.000Z</time>
      </trkpt>
      <trkpt lat="43.30419" lon="5.68368">
        <ele>770</ele>
        <time>2019-11-29T10:07:38.000Z</time>
      </trkpt>
      <trkpt lat="43.30419" lon="5.68367">
        <ele>770</ele>
        <time>2019-11-29T10:07:39.000Z</time>
      </trkpt>
      <trkpt lat="43.30419" lon="5.68366">
        <ele>770</ele>
        <time>2019-11-29T10:07:40.000Z</time>
      </trkpt>
      <trkpt lat="43.30418" lon="5.68365">
        <ele>770</ele>
        <time>2019-11-29T10:07:41.000Z</time>
      </trkpt>
      <trkpt lat="43.30418" lon="5.68364">
        <ele>770</ele>
        <time>2019-11-29T10:07:42.000Z</time>
      </trkpt>
      <trkpt lat="43.30417" lon="5.68363">
        <ele>770</ele>
        <time>2019-11-29T10:07:43.000Z</time>
      </trkpt>
      <trkpt lat="43.30417" lon="5.68362">
        <ele>770</ele>
        <time>2019-11-29T10:07:44.000Z</time>
      </trkpt>
      <trkpt lat="43.30417" lon="5.68361">
        <ele>770</ele>
        <time>2019-11-29T10:07:45.000Z</time>
      </trkpt>
      <trkpt lat="43.30417" lon="5.6836">
        <ele>770</ele>
        <time>2019-11-29T10:07:46.000Z</time>
      </trkpt>
      <trkpt lat="43.30417" lon="5.68359">
        <ele>770</ele>
        <time>2019-11-29T10:07:47.000Z</time>
      </trkpt>
      <trkpt lat="43.30417" lon="5.68358">
        <ele>770</ele>
        <time>2019-11-29T10:07:48.000Z</time>
      </trkpt>
      <trkpt lat="43.30417" lon="5.68357">
        <ele>770</ele>
        <time>2019-11-29T10:07:49.000Z</time>
      </trkpt>
      <trkpt lat="43.30417" lon="5.68356">
        <ele>770</ele>
        <time>2019-11-29T10:07:50.000Z</time>
      </trkpt>
      <trkpt lat="43.30416" lon="5.68355">
        <ele>770</ele>
        <time>2019-11-29T10:07:51.000Z</time>
      </trkpt>
      <trkpt lat="43.30416" lon="5.68354">
        <ele>770</ele>
        <time>2019-11-29T10:07:52.000Z</time>
      </trkpt>
      <trkpt lat="43.30416" lon="5.68354">
        <ele>769</ele>
        <time>2019-11-29T10:07:53.000Z</time>
      </trkpt>
      <trkpt lat="43.30416" lon="5.68352">
        <ele>769</ele>
        <time>2019-11-29T10:07:54.000Z</time>
      </trkpt>
      <trkpt lat="43.30416" lon="5.68352">
        <ele>769</ele>
        <time>2019-11-29T10:07:55.000Z</time>
      </trkpt>
      <trkpt lat="43.30416" lon="5.68351">
        <ele>769</ele>
        <time>2019-11-29T10:07:56.000Z</time>
      </trkpt>
      <trkpt lat="43.30416" lon="5.6835">
        <ele>769</ele>
        <time>2019-11-29T10:07:57.000Z</time>
      </trkpt>
      <trkpt lat="43.30416" lon="5.6835">
        <ele>769</ele>
        <time>2019-11-29T10:07:58.000Z</time>
      </trkpt>
      <trkpt lat="43.30416" lon="5.6835">
        <ele>769</ele>
        <time>2019-11-29T10:07:59.000Z</time>
      </trkpt>
      <trkpt lat="43.30417" lon="5.68349">
        <ele>769</ele>
        <time>2019-11-29T10:08:00.000Z</time>
      </trkpt>
      <trkpt lat="43.30417" lon="5.68349">
        <ele>769</ele>
        <time>2019-11-29T10:08:01.000Z</time>
      </trkpt>
      <trkpt lat="43.30417" lon="5.68349">
        <ele>769</ele>
        <time>2019-11-29T10:08:02.000Z</time>
      </trkpt>
      <trkpt lat="43.30417" lon="5.68349">
        <ele>769</ele>
        <time>2019-11-29T10:08:03.000Z</time>
      </trkpt>
      <trkpt lat="43.30417" lon="5.68349">
        <ele>769</ele>
        <time>2019-11-29T10:08:04.000Z</time>
      </trkpt>
      <trkpt lat="43.30417" lon="5.68349">
        <ele>769</ele>
        <time>2019-11-29T10:08:05.000Z</time>
      </trkpt>
      <trkpt lat="43.30417" lon="5.68349">
        <ele>769</ele>
        <time>2019-11-29T10:08:06.000Z</time>
      </trkpt>
      <trkpt lat="43.30416" lon="5.68348">
        <ele>769</ele>
        <time>2019-11-29T10:08:07.000Z</time>
      </trkpt>
      <trkpt lat="43.30416" lon="5.68347">
        <ele>769</ele>
        <time>2019-11-29T10:08:08.000Z</time>
      </trkpt>
      <trkpt lat="43.30415" lon="5.68347">
        <ele>769</ele>
        <time>2019-11-29T10:08:09.000Z</time>
      </trkpt>
      <trkpt lat="43.30414" lon="5.68345">
        <ele>769</ele>
        <time>2019-11-29T10:08:10.000Z</time>
      </trkpt>
      <trkpt lat="43.30414" lon="5.68344">
        <ele>769</ele>
        <time>2019-11-29T10:08:11.000Z</time>
      </trkpt>
      <trkpt lat="43.30413" lon="5.68343">
        <ele>768</ele>
        <time>2019-11-29T10:08:12.000Z</time>
      </trkpt>
      <trkpt lat="43.30413" lon="5.68342">
        <ele>768</ele>
        <time>2019-11-29T10:08:13.000Z</time>
      </trkpt>
      <trkpt lat="43.30412" lon="5.68341">
        <ele>768</ele>
        <time>2019-11-29T10:08:14.000Z</time>
      </trkpt>
      <trkpt lat="43.30411" lon="5.6834">
        <ele>768</ele>
        <time>2019-11-29T10:08:15.000Z</time>
      </trkpt>
      <trkpt lat="43.30411" lon="5.68339">
        <ele>768</ele>
        <time>2019-11-29T10:08:16.000Z</time>
      </trkpt>
      <trkpt lat="43.30411" lon="5.68338">
        <ele>768</ele>
        <time>2019-11-29T10:08:17.000Z</time>
      </trkpt>
      <trkpt lat="43.30411" lon="5.68336">
        <ele>768</ele>
        <time>2019-11-29T10:08:18.000Z</time>
      </trkpt>
      <trkpt lat="43.30412" lon="5.68335">
        <ele>768</ele>
        <time>2019-11-29T10:08:19.000Z</time>
      </trkpt>
      <trkpt lat="43.30412" lon="5.68333">
        <ele>768</ele>
        <time>2019-11-29T10:08:20.000Z</time>
      </trkpt>
      <trkpt lat="43.30412" lon="5.68333">
        <ele>768</ele>
        <time>2019-11-29T10:08:21.000Z</time>
      </trkpt>
      <trkpt lat="43.30411" lon="5.68331">
        <ele>768</ele>
        <time>2019-11-29T10:08:22.000Z</time>
      </trkpt>
      <trkpt lat="43.30411" lon="5.68331">
        <ele>768</ele>
        <time>2019-11-29T10:08:23.000Z</time>
      </trkpt>
      <trkpt lat="43.30411" lon="5.68331">
        <ele>768</ele>
        <time>2019-11-29T10:08:24.000Z</time>
      </trkpt>
      <trkpt lat="43.3041" lon="5.68331">
        <ele>768</ele>
        <time>2019-11-29T10:08:25.000Z</time>
      </trkpt>
      <trkpt lat="43.30409" lon="5.6833">
        <ele>768</ele>
        <time>2019-11-29T10:08:26.000Z</time>
      </trkpt>
      <trkpt lat="43.30409" lon="5.6833">
        <ele>768</ele>
        <time>2019-11-29T10:08:27.000Z</time>
      </trkpt>
      <trkpt lat="43.30408" lon="5.68329">
        <ele>768</ele>
        <time>2019-11-29T10:08:28.000Z</time>
      </trkpt>
      <trkpt lat="43.30408" lon="5.68327">
        <ele>768</ele>
        <time>2019-11-29T10:08:29.000Z</time>
      </trkpt>
      <trkpt lat="43.30408" lon="5.68327">
        <ele>768</ele>
        <time>2019-11-29T10:08:30.000Z</time>
      </trkpt>
      <trkpt lat="43.30408" lon="5.68327">
        <ele>768</ele>
        <time>2019-11-29T10:08:31.000Z</time>
      </trkpt>
      <trkpt lat="43.30408" lon="5.68327">
        <ele>768</ele>
        <time>2019-11-29T10:08:32.000Z</time>
      </trkpt>
      <trkpt lat="43.30408" lon="5.68327">
        <ele>768</ele>
        <time>2019-11-29T10:08:33.000Z</time>
      </trkpt>
      <trkpt lat="43.30408" lon="5.68327">
        <ele>768</ele>
        <time>2019-11-29T10:08:34.000Z</time>
      </trkpt>
      <trkpt lat="43.30408" lon="5.68327">
        <ele>768</ele>
        <time>2019-11-29T10:08:35.000Z</time>
      </trkpt>
      <trkpt lat="43.30407" lon="5.68327">
        <ele>768</ele>
        <time>2019-11-29T10:08:36.000Z</time>
      </trkpt>
      <trkpt lat="43.30407" lon="5.68326">
        <ele>768</ele>
        <time>2019-11-29T10:08:37.000Z</time>
      </trkpt>
      <trkpt lat="43.30407" lon="5.68326">
        <ele>768</ele>
        <time>2019-11-29T10:08:38.000Z</time>
      </trkpt>
      <trkpt lat="43.30407" lon="5.68326">
        <ele>768</ele>
        <time>2019-11-29T10:08:39.000Z</time>
      </trkpt>
      <trkpt lat="43.30407" lon="5.68325">
        <ele>768</ele>
        <time>2019-11-29T10:08:40.000Z</time>
      </trkpt>
      <trkpt lat="43.30407" lon="5.68325">
        <ele>768</ele>
        <time>2019-11-29T10:08:41.000Z</time>
      </trkpt>
      <trkpt lat="43.30407" lon="5.68325">
        <ele>768</ele>
        <time>2019-11-29T10:08:42.000Z</time>
      </trkpt>
      <trkpt lat="43.30407" lon="5.68324">
        <ele>768</ele>
        <time>2019-11-29T10:08:43.000Z</time>
      </trkpt>
      <trkpt lat="43.30407" lon="5.68324">
        <ele>768</ele>
        <time>2019-11-29T10:08:44.000Z</time>
      </trkpt>
      <trkpt lat="43.30406" lon="5.68325">
        <ele>768</ele>
        <time>2019-11-29T10:08:45.000Z</time>
      </trkpt>
      <trkpt lat="43.30406" lon="5.68325">
        <ele>768</ele>
        <time>2019-11-29T10:08:46.000Z</time>
      </trkpt>
      <trkpt lat="43.30406" lon="5.68324">
        <ele>768</ele>
        <time>2019-11-29T10:08:47.000Z</time>
      </trkpt>
      <trkpt lat="43.30406" lon="5.68324">
        <ele>768</ele>
        <time>2019-11-29T10:08:48.000Z</time>
      </trkpt>
      <trkpt lat="43.30405" lon="5.68323">
        <ele>768</ele>
        <time>2019-11-29T10:08:49.000Z</time>
      </trkpt>
      <trkpt lat="43.30404" lon="5.68322">
        <ele>768</ele>
        <time>2019-11-29T10:08:50.000Z</time>
      </trkpt>
      <trkpt lat="43.30404" lon="5.68321">
        <ele>768</ele>
        <time>2019-11-29T10:08:51.000Z</time>
      </trkpt>
      <trkpt lat="43.30404" lon="5.68321">
        <ele>768</ele>
        <time>2019-11-29T10:08:52.000Z</time>
      </trkpt>
      <trkpt lat="43.30404" lon="5.6832">
        <ele>768</ele>
        <time>2019-11-29T10:08:53.000Z</time>
      </trkpt>
      <trkpt lat="43.30404" lon="5.6832">
        <ele>768</ele>
        <time>2019-11-29T10:08:54.000Z</time>
      </trkpt>
      <trkpt lat="43.30404" lon="5.68319">
        <ele>767</ele>
        <time>2019-11-29T10:08:55.000Z</time>
      </trkpt>
      <trkpt lat="43.30404" lon="5.68319">
        <ele>767</ele>
        <time>2019-11-29T10:08:56.000Z</time>
      </trkpt>
      <trkpt lat="43.30404" lon="5.68319">
        <ele>767</ele>
        <time>2019-11-29T10:08:57.000Z</time>
      </trkpt>
      <trkpt lat="43.30404" lon="5.68319">
        <ele>767</ele>
        <time>2019-11-29T10:08:58.000Z</time>
      </trkpt>
      <trkpt lat="43.30404" lon="5.68319">
        <ele>767</ele>
        <time>2019-11-29T10:08:59.000Z</time>
      </trkpt>
      <trkpt lat="43.30404" lon="5.68319">
        <ele>767</ele>
        <time>2019-11-29T10:09:00.000Z</time>
      </trkpt>
      <trkpt lat="43.30404" lon="5.68319">
        <ele>767</ele>
        <time>2019-11-29T10:09:01.000Z</time>
      </trkpt>
      <trkpt lat="43.30404" lon="5.68319">
        <ele>767</ele>
        <time>2019-11-29T10:09:02.000Z</time>
      </trkpt>
      <trkpt lat="43.30404" lon="5.68319">
        <ele>767</ele>
        <time>2019-11-29T10:09:03.000Z</time>
      </trkpt>
      <trkpt lat="43.30404" lon="5.68319">
        <ele>767</ele>
        <time>2019-11-29T10:09:04.000Z</time>
      </trkpt>
      <trkpt lat="43.30404" lon="5.68319">
        <ele>767</ele>
        <time>2019-11-29T10:09:05.000Z</time>
      </trkpt>
      <trkpt lat="43.30404" lon="5.68319">
        <ele>767</ele>
        <time>2019-11-29T10:09:06.000Z</time>
      </trkpt>
      <trkpt lat="43.30403" lon="5.68319">
        <ele>767</ele>
        <time>2019-11-29T10:09:07.000Z</time>
      </trkpt>
      <trkpt lat="43.30402" lon="5.68319">
        <ele>767</ele>
        <time>2019-11-29T10:09:08.000Z</time>
      </trkpt>
      <trkpt lat="43.30402" lon="5.68319">
        <ele>767</ele>
        <time>2019-11-29T10:09:09.000Z</time>
      </trkpt>
      <trkpt lat="43.30402" lon="5.68319">
        <ele>766</ele>
        <time>2019-11-29T10:09:10.000Z</time>
      </trkpt>
      <trkpt lat="43.30401" lon="5.68319">
        <ele>766</ele>
        <time>2019-11-29T10:09:11.000Z</time>
      </trkpt>
      <trkpt lat="43.30401" lon="5.68318">
        <ele>766</ele>
        <time>2019-11-29T10:09:12.000Z</time>
      </trkpt>
      <trkpt lat="43.30401" lon="5.68317">
        <ele>766</ele>
        <time>2019-11-29T10:09:13.000Z</time>
      </trkpt>
      <trkpt lat="43.30401" lon="5.68317">
        <ele>766</ele>
        <time>2019-11-29T10:09:14.000Z</time>
      </trkpt>
      <trkpt lat="43.30401" lon="5.68316">
        <ele>766</ele>
        <time>2019-11-29T10:09:15.000Z</time>
      </trkpt>
      <trkpt lat="43.30401" lon="5.68316">
        <ele>766</ele>
        <time>2019-11-29T10:09:16.000Z</time>
      </trkpt>
      <trkpt lat="43.304" lon="5.68316">
        <ele>766</ele>
        <time>2019-11-29T10:09:17.000Z</time>
      </trkpt>
      <trkpt lat="43.304" lon="5.68316">
        <ele>765</ele>
        <time>2019-11-29T10:09:18.000Z</time>
      </trkpt>
      <trkpt lat="43.304" lon="5.68315">
        <ele>765</ele>
        <time>2019-11-29T10:09:19.000Z</time>
      </trkpt>
      <trkpt lat="43.304" lon="5.68315">
        <ele>765</ele>
        <time>2019-11-29T10:09:20.000Z</time>
      </trkpt>
      <trkpt lat="43.304" lon="5.68315">
        <ele>765</ele>
        <time>2019-11-29T10:09:21.000Z</time>
      </trkpt>
      <trkpt lat="43.304" lon="5.68314">
        <ele>765</ele>
        <time>2019-11-29T10:09:22.000Z</time>
      </trkpt>
      <trkpt lat="43.304" lon="5.68313">
        <ele>765</ele>
        <time>2019-11-29T10:09:23.000Z</time>
      </trkpt>
      <trkpt lat="43.304" lon="5.68313">
        <ele>765</ele>
        <time>2019-11-29T10:09:24.000Z</time>
      </trkpt>
      <trkpt lat="43.304" lon="5.68313">
        <ele>765</ele>
        <time>2019-11-29T10:09:25.000Z</time>
      </trkpt>
      <trkpt lat="43.304" lon="5.68313">
        <ele>765</ele>
        <time>2019-11-29T10:09:26.000Z</time>
      </trkpt>
      <trkpt lat="43.304" lon="5.68313">
        <ele>765</ele>
        <time>2019-11-29T10:09:27.000Z</time>
      </trkpt>
      <trkpt lat="43.30399" lon="5.68313">
        <ele>765</ele>
        <time>2019-11-29T10:09:28.000Z</time>
      </trkpt>
      <trkpt lat="43.30399" lon="5.68313">
        <ele>765</ele>
        <time>2019-11-29T10:09:29.000Z</time>
      </trkpt>
      <trkpt lat="43.30399" lon="5.68313">
        <ele>764</ele>
        <time>2019-11-29T10:09:30.000Z</time>
      </trkpt>
      <trkpt lat="43.30399" lon="5.68312">
        <ele>764</ele>
        <time>2019-11-29T10:09:31.000Z</time>
      </trkpt>
      <trkpt lat="43.30399" lon="5.68311">
        <ele>764</ele>
        <time>2019-11-29T10:09:32.000Z</time>
      </trkpt>
      <trkpt lat="43.30399" lon="5.6831">
        <ele>764</ele>
        <time>2019-11-29T10:09:33.000Z</time>
      </trkpt>
      <trkpt lat="43.30399" lon="5.68309">
        <ele>764</ele>
        <time>2019-11-29T10:09:34.000Z</time>
      </trkpt>
      <trkpt lat="43.30399" lon="5.68309">
        <ele>764</ele>
        <time>2019-11-29T10:09:35.000Z</time>
      </trkpt>
      <trkpt lat="43.30398" lon="5.68309">
        <ele>764</ele>
        <time>2019-11-29T10:09:36.000Z</time>
      </trkpt>
      <trkpt lat="43.30397" lon="5.68309">
        <ele>763</ele>
        <time>2019-11-29T10:09:37.000Z</time>
      </trkpt>
      <trkpt lat="43.30397" lon="5.68308">
        <ele>763</ele>
        <time>2019-11-29T10:09:38.000Z</time>
      </trkpt>
      <trkpt lat="43.30396" lon="5.68308">
        <ele>763</ele>
        <time>2019-11-29T10:09:39.000Z</time>
      </trkpt>
      <trkpt lat="43.30396" lon="5.68307">
        <ele>763</ele>
        <time>2019-11-29T10:09:40.000Z</time>
      </trkpt>
      <trkpt lat="43.30395" lon="5.68306">
        <ele>763</ele>
        <time>2019-11-29T10:09:41.000Z</time>
      </trkpt>
      <trkpt lat="43.30395" lon="5.68305">
        <ele>763</ele>
        <time>2019-11-29T10:09:42.000Z</time>
      </trkpt>
      <trkpt lat="43.30395" lon="5.68304">
        <ele>763</ele>
        <time>2019-11-29T10:09:43.000Z</time>
      </trkpt>
      <trkpt lat="43.30394" lon="5.68303">
        <ele>762</ele>
        <time>2019-11-29T10:09:44.000Z</time>
      </trkpt>
      <trkpt lat="43.30394" lon="5.68302">
        <ele>762</ele>
        <time>2019-11-29T10:09:45.000Z</time>
      </trkpt>
      <trkpt lat="43.30394" lon="5.68301">
        <ele>762</ele>
        <time>2019-11-29T10:09:46.000Z</time>
      </trkpt>
      <trkpt lat="43.30394" lon="5.683">
        <ele>762</ele>
        <time>2019-11-29T10:09:47.000Z</time>
      </trkpt>
      <trkpt lat="43.30393" lon="5.683">
        <ele>762</ele>
        <time>2019-11-29T10:09:48.000Z</time>
      </trkpt>
      <trkpt lat="43.30393" lon="5.683">
        <ele>762</ele>
        <time>2019-11-29T10:09:49.000Z</time>
      </trkpt>
      <trkpt lat="43.30392" lon="5.683">
        <ele>761</ele>
        <time>2019-11-29T10:09:50.000Z</time>
      </trkpt>
      <trkpt lat="43.30391" lon="5.683">
        <ele>761</ele>
        <time>2019-11-29T10:09:51.000Z</time>
      </trkpt>
      <trkpt lat="43.30389" lon="5.68299">
        <ele>761</ele>
        <time>2019-11-29T10:09:52.000Z</time>
      </trkpt>
      <trkpt lat="43.30388" lon="5.68299">
        <ele>761</ele>
        <time>2019-11-29T10:09:53.000Z</time>
      </trkpt>
      <trkpt lat="43.30387" lon="5.683">
        <ele>761</ele>
        <time>2019-11-29T10:09:54.000Z</time>
      </trkpt>
      <trkpt lat="43.30386" lon="5.683">
        <ele>761</ele>
        <time>2019-11-29T10:09:55.000Z</time>
      </trkpt>
      <trkpt lat="43.30385" lon="5.683">
        <ele>761</ele>
        <time>2019-11-29T10:09:56.000Z</time>
      </trkpt>
      <trkpt lat="43.30384" lon="5.68299">
        <ele>761</ele>
        <time>2019-11-29T10:09:57.000Z</time>
      </trkpt>
      <trkpt lat="43.30383" lon="5.68298">
        <ele>761</ele>
        <time>2019-11-29T10:09:58.000Z</time>
      </trkpt>
      <trkpt lat="43.30383" lon="5.68297">
        <ele>761</ele>
        <time>2019-11-29T10:09:59.000Z</time>
      </trkpt>
      <trkpt lat="43.30382" lon="5.68296">
        <ele>761</ele>
        <time>2019-11-29T10:10:00.000Z</time>
      </trkpt>
      <trkpt lat="43.30381" lon="5.68296">
        <ele>760</ele>
        <time>2019-11-29T10:10:01.000Z</time>
      </trkpt>
      <trkpt lat="43.30381" lon="5.68296">
        <ele>760</ele>
        <time>2019-11-29T10:10:02.000Z</time>
      </trkpt>
      <trkpt lat="43.3038" lon="5.68296">
        <ele>760</ele>
        <time>2019-11-29T10:10:03.000Z</time>
      </trkpt>
      <trkpt lat="43.30379" lon="5.68297">
        <ele>760</ele>
        <time>2019-11-29T10:10:04.000Z</time>
      </trkpt>
      <trkpt lat="43.30378" lon="5.68297">
        <ele>760</ele>
        <time>2019-11-29T10:10:05.000Z</time>
      </trkpt>
      <trkpt lat="43.30377" lon="5.68297">
        <ele>760</ele>
        <time>2019-11-29T10:10:06.000Z</time>
      </trkpt>
      <trkpt lat="43.30376" lon="5.68297">
        <ele>760</ele>
        <time>2019-11-29T10:10:07.000Z</time>
      </trkpt>
      <trkpt lat="43.30375" lon="5.68297">
        <ele>760</ele>
        <time>2019-11-29T10:10:08.000Z</time>
      </trkpt>
      <trkpt lat="43.30373" lon="5.68297">
        <ele>760</ele>
        <time>2019-11-29T10:10:09.000Z</time>
      </trkpt>
      <trkpt lat="43.30373" lon="5.68297">
        <ele>760</ele>
        <time>2019-11-29T10:10:10.000Z</time>
      </trkpt>
      <trkpt lat="43.30372" lon="5.68297">
        <ele>760</ele>
        <time>2019-11-29T10:10:11.000Z</time>
      </trkpt>
      <trkpt lat="43.3037" lon="5.68297">
        <ele>760</ele>
        <time>2019-11-29T10:10:12.000Z</time>
      </trkpt>
      <trkpt lat="43.30369" lon="5.68298">
        <ele>760</ele>
        <time>2019-11-29T10:10:13.000Z</time>
      </trkpt>
      <trkpt lat="43.30368" lon="5.68298">
        <ele>760</ele>
        <time>2019-11-29T10:10:14.000Z</time>
      </trkpt>
      <trkpt lat="43.30367" lon="5.68299">
        <ele>760</ele>
        <time>2019-11-29T10:10:15.000Z</time>
      </trkpt>
      <trkpt lat="43.30366" lon="5.68299">
        <ele>759</ele>
        <time>2019-11-29T10:10:16.000Z</time>
      </trkpt>
      <trkpt lat="43.30366" lon="5.683">
        <ele>759</ele>
        <time>2019-11-29T10:10:17.000Z</time>
      </trkpt>
      <trkpt lat="43.30365" lon="5.68301">
        <ele>759</ele>
        <time>2019-11-29T10:10:18.000Z</time>
      </trkpt>
      <trkpt lat="43.30364" lon="5.68302">
        <ele>759</ele>
        <time>2019-11-29T10:10:19.000Z</time>
      </trkpt>
      <trkpt lat="43.30363" lon="5.68303">
        <ele>759</ele>
        <time>2019-11-29T10:10:20.000Z</time>
      </trkpt>
      <trkpt lat="43.30362" lon="5.68305">
        <ele>759</ele>
        <time>2019-11-29T10:10:21.000Z</time>
      </trkpt>
      <trkpt lat="43.30361" lon="5.68305">
        <ele>759</ele>
        <time>2019-11-29T10:10:22.000Z</time>
      </trkpt>
      <trkpt lat="43.3036" lon="5.68306">
        <ele>759</ele>
        <time>2019-11-29T10:10:23.000Z</time>
      </trkpt>
      <trkpt lat="43.30359" lon="5.68307">
        <ele>759</ele>
        <time>2019-11-29T10:10:24.000Z</time>
      </trkpt>
      <trkpt lat="43.30358" lon="5.68307">
        <ele>758</ele>
        <time>2019-11-29T10:10:25.000Z</time>
      </trkpt>
      <trkpt lat="43.30358" lon="5.68308">
        <ele>758</ele>
        <time>2019-11-29T10:10:26.000Z</time>
      </trkpt>
      <trkpt lat="43.30357" lon="5.68309">
        <ele>758</ele>
        <time>2019-11-29T10:10:27.000Z</time>
      </trkpt>
      <trkpt lat="43.30356" lon="5.6831">
        <ele>758</ele>
        <time>2019-11-29T10:10:28.000Z</time>
      </trkpt>
      <trkpt lat="43.30355" lon="5.6831">
        <ele>758</ele>
        <time>2019-11-29T10:10:29.000Z</time>
      </trkpt>
      <trkpt lat="43.30354" lon="5.68311">
        <ele>758</ele>
        <time>2019-11-29T10:10:30.000Z</time>
      </trkpt>
      <trkpt lat="43.30353" lon="5.68311">
        <ele>758</ele>
        <time>2019-11-29T10:10:31.000Z</time>
      </trkpt>
      <trkpt lat="43.30352" lon="5.68312">
        <ele>758</ele>
        <time>2019-11-29T10:10:32.000Z</time>
      </trkpt>
      <trkpt lat="43.30352" lon="5.68312">
        <ele>758</ele>
        <time>2019-11-29T10:10:33.000Z</time>
      </trkpt>
      <trkpt lat="43.30351" lon="5.68312">
        <ele>758</ele>
        <time>2019-11-29T10:10:34.000Z</time>
      </trkpt>
      <trkpt lat="43.30351" lon="5.68312">
        <ele>758</ele>
        <time>2019-11-29T10:10:35.000Z</time>
      </trkpt>
      <trkpt lat="43.30351" lon="5.68312">
        <ele>757</ele>
        <time>2019-11-29T10:10:36.000Z</time>
      </trkpt>
      <trkpt lat="43.30351" lon="5.68312">
        <ele>757</ele>
        <time>2019-11-29T10:10:37.000Z</time>
      </trkpt>
      <trkpt lat="43.30351" lon="5.68312">
        <ele>757</ele>
        <time>2019-11-29T10:10:38.000Z</time>
      </trkpt>
      <trkpt lat="43.30351" lon="5.68312">
        <ele>757</ele>
        <time>2019-11-29T10:10:39.000Z</time>
      </trkpt>
      <trkpt lat="43.30351" lon="5.68312">
        <ele>757</ele>
        <time>2019-11-29T10:10:40.000Z</time>
      </trkpt>
      <trkpt lat="43.30351" lon="5.68311">
        <ele>757</ele>
        <time>2019-11-29T10:10:41.000Z</time>
      </trkpt>
      <trkpt lat="43.30351" lon="5.68311">
        <ele>757</ele>
        <time>2019-11-29T10:10:42.000Z</time>
      </trkpt>
      <trkpt lat="43.30352" lon="5.6831">
        <ele>757</ele>
        <time>2019-11-29T10:10:43.000Z</time>
      </trkpt>
      <trkpt lat="43.30352" lon="5.68309">
        <ele>757</ele>
        <time>2019-11-29T10:10:44.000Z</time>
      </trkpt>
      <trkpt lat="43.30352" lon="5.68309">
        <ele>757</ele>
        <time>2019-11-29T10:10:45.000Z</time>
      </trkpt>
      <trkpt lat="43.30352" lon="5.68308">
        <ele>757</ele>
        <time>2019-11-29T10:10:46.000Z</time>
      </trkpt>
      <trkpt lat="43.30351" lon="5.68307">
        <ele>756</ele>
        <time>2019-11-29T10:10:47.000Z</time>
      </trkpt>
      <trkpt lat="43.30351" lon="5.68306">
        <ele>756</ele>
        <time>2019-11-29T10:10:48.000Z</time>
      </trkpt>
      <trkpt lat="43.3035" lon="5.68305">
        <ele>756</ele>
        <time>2019-11-29T10:10:49.000Z</time>
      </trkpt>
      <trkpt lat="43.3035" lon="5.68304">
        <ele>756</ele>
        <time>2019-11-29T10:10:50.000Z</time>
      </trkpt>
      <trkpt lat="43.30349" lon="5.68303">
        <ele>756</ele>
        <time>2019-11-29T10:10:51.000Z</time>
      </trkpt>
      <trkpt lat="43.30349" lon="5.68302">
        <ele>755</ele>
        <time>2019-11-29T10:10:52.000Z</time>
      </trkpt>
      <trkpt lat="43.30349" lon="5.68302">
        <ele>755</ele>
        <time>2019-11-29T10:10:53.000Z</time>
      </trkpt>
      <trkpt lat="43.30349" lon="5.68301">
        <ele>755</ele>
        <time>2019-11-29T10:10:54.000Z</time>
      </trkpt>
      <trkpt lat="43.30349" lon="5.68301">
        <ele>755</ele>
        <time>2019-11-29T10:10:55.000Z</time>
      </trkpt>
      <trkpt lat="43.30349" lon="5.68301">
        <ele>755</ele>
        <time>2019-11-29T10:10:56.000Z</time>
      </trkpt>
      <trkpt lat="43.30349" lon="5.68301">
        <ele>755</ele>
        <time>2019-11-29T10:10:57.000Z</time>
      </trkpt>
      <trkpt lat="43.30349" lon="5.68301">
        <ele>755</ele>
        <time>2019-11-29T10:10:58.000Z</time>
      </trkpt>
      <trkpt lat="43.30349" lon="5.683">
        <ele>755</ele>
        <time>2019-11-29T10:10:59.000Z</time>
      </trkpt>
      <trkpt lat="43.30348" lon="5.683">
        <ele>755</ele>
        <time>2019-11-29T10:11:00.000Z</time>
      </trkpt>
      <trkpt lat="43.30348" lon="5.68299">
        <ele>755</ele>
        <time>2019-11-29T10:11:01.000Z</time>
      </trkpt>
      <trkpt lat="43.30347" lon="5.68299">
        <ele>755</ele>
        <time>2019-11-29T10:11:02.000Z</time>
      </trkpt>
      <trkpt lat="43.30347" lon="5.68298">
        <ele>755</ele>
        <time>2019-11-29T10:11:03.000Z</time>
      </trkpt>
      <trkpt lat="43.30347" lon="5.68297">
        <ele>755</ele>
        <time>2019-11-29T10:11:04.000Z</time>
      </trkpt>
      <trkpt lat="43.30346" lon="5.68296">
        <ele>755</ele>
        <time>2019-11-29T10:11:05.000Z</time>
      </trkpt>
      <trkpt lat="43.30346" lon="5.68295">
        <ele>755</ele>
        <time>2019-11-29T10:11:06.000Z</time>
      </trkpt>
      <trkpt lat="43.30346" lon="5.68295">
        <ele>755</ele>
        <time>2019-11-29T10:11:07.000Z</time>
      </trkpt>
      <trkpt lat="43.30346" lon="5.68294">
        <ele>755</ele>
        <time>2019-11-29T10:11:08.000Z</time>
      </trkpt>
      <trkpt lat="43.30345" lon="5.68294">
        <ele>754</ele>
        <time>2019-11-29T10:11:09.000Z</time>
      </trkpt>
      <trkpt lat="43.30345" lon="5.68293">
        <ele>754</ele>
        <time>2019-11-29T10:11:10.000Z</time>
      </trkpt>
      <trkpt lat="43.30344" lon="5.68292">
        <ele>754</ele>
        <time>2019-11-29T10:11:11.000Z</time>
      </trkpt>
      <trkpt lat="43.30344" lon="5.68291">
        <ele>754</ele>
        <time>2019-11-29T10:11:12.000Z</time>
      </trkpt>
      <trkpt lat="43.30343" lon="5.6829">
        <ele>754</ele>
        <time>2019-11-29T10:11:13.000Z</time>
      </trkpt>
      <trkpt lat="43.30342" lon="5.68288">
        <ele>754</ele>
        <time>2019-11-29T10:11:14.000Z</time>
      </trkpt>
      <trkpt lat="43.30342" lon="5.68287">
        <ele>754</ele>
        <time>2019-11-29T10:11:15.000Z</time>
      </trkpt>
      <trkpt lat="43.30341" lon="5.68286">
        <ele>753</ele>
        <time>2019-11-29T10:11:16.000Z</time>
      </trkpt>
      <trkpt lat="43.30341" lon="5.68285">
        <ele>753</ele>
        <time>2019-11-29T10:11:17.000Z</time>
      </trkpt>
      <trkpt lat="43.3034" lon="5.68283">
        <ele>753</ele>
        <time>2019-11-29T10:11:18.000Z</time>
      </trkpt>
      <trkpt lat="43.3034" lon="5.68282">
        <ele>753</ele>
        <time>2019-11-29T10:11:19.000Z</time>
      </trkpt>
      <trkpt lat="43.30339" lon="5.6828">
        <ele>753</ele>
        <time>2019-11-29T10:11:20.000Z</time>
      </trkpt>
      <trkpt lat="43.30339" lon="5.6828">
        <ele>753</ele>
        <time>2019-11-29T10:11:21.000Z</time>
      </trkpt>
      <trkpt lat="43.30339" lon="5.68279">
        <ele>753</ele>
        <time>2019-11-29T10:11:22.000Z</time>
      </trkpt>
      <trkpt lat="43.30338" lon="5.68278">
        <ele>753</ele>
        <time>2019-11-29T10:11:23.000Z</time>
      </trkpt>
      <trkpt lat="43.30338" lon="5.68277">
        <ele>753</ele>
        <time>2019-11-29T10:11:24.000Z</time>
      </trkpt>
      <trkpt lat="43.30337" lon="5.68276">
        <ele>753</ele>
        <time>2019-11-29T10:11:25.000Z</time>
      </trkpt>
      <trkpt lat="43.30337" lon="5.68275">
        <ele>753</ele>
        <time>2019-11-29T10:11:26.000Z</time>
      </trkpt>
      <trkpt lat="43.30336" lon="5.68274">
        <ele>753</ele>
        <time>2019-11-29T10:11:27.000Z</time>
      </trkpt>
      <trkpt lat="43.30336" lon="5.68274">
        <ele>753</ele>
        <time>2019-11-29T10:11:28.000Z</time>
      </trkpt>
      <trkpt lat="43.30335" lon="5.68272">
        <ele>753</ele>
        <time>2019-11-29T10:11:29.000Z</time>
      </trkpt>
      <trkpt lat="43.30335" lon="5.68272">
        <ele>753</ele>
        <time>2019-11-29T10:11:30.000Z</time>
      </trkpt>
      <trkpt lat="43.30335" lon="5.68271">
        <ele>753</ele>
        <time>2019-11-29T10:11:31.000Z</time>
      </trkpt>
      <trkpt lat="43.30335" lon="5.68271">
        <ele>753</ele>
        <time>2019-11-29T10:11:32.000Z</time>
      </trkpt>
      <trkpt lat="43.30334" lon="5.68271">
        <ele>753</ele>
        <time>2019-11-29T10:11:33.000Z</time>
      </trkpt>
      <trkpt lat="43.30334" lon="5.68271">
        <ele>753</ele>
        <time>2019-11-29T10:11:34.000Z</time>
      </trkpt>
      <trkpt lat="43.30334" lon="5.68271">
        <ele>753</ele>
        <time>2019-11-29T10:11:35.000Z</time>
      </trkpt>
      <trkpt lat="43.30334" lon="5.68271">
        <ele>753</ele>
        <time>2019-11-29T10:11:36.000Z</time>
      </trkpt>
      <trkpt lat="43.30335" lon="5.6827">
        <ele>753</ele>
        <time>2019-11-29T10:11:37.000Z</time>
      </trkpt>
      <trkpt lat="43.30335" lon="5.6827">
        <ele>753</ele>
        <time>2019-11-29T10:11:38.000Z</time>
      </trkpt>
      <trkpt lat="43.30335" lon="5.68269">
        <ele>753</ele>
        <time>2019-11-29T10:11:39.000Z</time>
      </trkpt>
      <trkpt lat="43.30335" lon="5.68269">
        <ele>753</ele>
        <time>2019-11-29T10:11:40.000Z</time>
      </trkpt>
      <trkpt lat="43.30335" lon="5.68268">
        <ele>753</ele>
        <time>2019-11-29T10:11:41.000Z</time>
      </trkpt>
      <trkpt lat="43.30334" lon="5.68267">
        <ele>752</ele>
        <time>2019-11-29T10:11:42.000Z</time>
      </trkpt>
      <trkpt lat="43.30333" lon="5.68267">
        <ele>752</ele>
        <time>2019-11-29T10:11:43.000Z</time>
      </trkpt>
      <trkpt lat="43.30332" lon="5.68267">
        <ele>752</ele>
        <time>2019-11-29T10:11:44.000Z</time>
      </trkpt>
      <trkpt lat="43.30332" lon="5.68266">
        <ele>752</ele>
        <time>2019-11-29T10:11:45.000Z</time>
      </trkpt>
      <trkpt lat="43.30331" lon="5.68266">
        <ele>752</ele>
        <time>2019-11-29T10:11:46.000Z</time>
      </trkpt>
      <trkpt lat="43.30329" lon="5.68266">
        <ele>753</ele>
        <time>2019-11-29T10:11:47.000Z</time>
      </trkpt>
      <trkpt lat="43.30328" lon="5.68266">
        <ele>753</ele>
        <time>2019-11-29T10:11:48.000Z</time>
      </trkpt>
      <trkpt lat="43.30327" lon="5.68266">
        <ele>753</ele>
        <time>2019-11-29T10:11:49.000Z</time>
      </trkpt>
      <trkpt lat="43.30327" lon="5.68266">
        <ele>753</ele>
        <time>2019-11-29T10:11:50.000Z</time>
      </trkpt>
      <trkpt lat="43.30326" lon="5.68265">
        <ele>753</ele>
        <time>2019-11-29T10:11:51.000Z</time>
      </trkpt>
      <trkpt lat="43.30325" lon="5.68265">
        <ele>753</ele>
        <time>2019-11-29T10:11:52.000Z</time>
      </trkpt>
      <trkpt lat="43.30324" lon="5.68264">
        <ele>753</ele>
        <time>2019-11-29T10:11:53.000Z</time>
      </trkpt>
      <trkpt lat="43.30323" lon="5.68263">
        <ele>753</ele>
        <time>2019-11-29T10:11:54.000Z</time>
      </trkpt>
      <trkpt lat="43.30323" lon="5.68263">
        <ele>753</ele>
        <time>2019-11-29T10:11:55.000Z</time>
      </trkpt>
      <trkpt lat="43.30322" lon="5.68262">
        <ele>753</ele>
        <time>2019-11-29T10:11:56.000Z</time>
      </trkpt>
      <trkpt lat="43.30322" lon="5.68261">
        <ele>753</ele>
        <time>2019-11-29T10:11:57.000Z</time>
      </trkpt>
      <trkpt lat="43.30322" lon="5.6826">
        <ele>752</ele>
        <time>2019-11-29T10:11:58.000Z</time>
      </trkpt>
      <trkpt lat="43.30321" lon="5.6826">
        <ele>752</ele>
        <time>2019-11-29T10:11:59.000Z</time>
      </trkpt>
      <trkpt lat="43.30321" lon="5.68259">
        <ele>752</ele>
        <time>2019-11-29T10:12:00.000Z</time>
      </trkpt>
      <trkpt lat="43.3032" lon="5.68259">
        <ele>752</ele>
        <time>2019-11-29T10:12:01.000Z</time>
      </trkpt>
      <trkpt lat="43.30319" lon="5.68258">
        <ele>752</ele>
        <time>2019-11-29T10:12:02.000Z</time>
      </trkpt>
      <trkpt lat="43.30319" lon="5.68258">
        <ele>752</ele>
        <time>2019-11-29T10:12:03.000Z</time>
      </trkpt>
      <trkpt lat="43.30319" lon="5.68257">
        <ele>752</ele>
        <time>2019-11-29T10:12:04.000Z</time>
      </trkpt>
      <trkpt lat="43.30319" lon="5.68256">
        <ele>752</ele>
        <time>2019-11-29T10:12:05.000Z</time>
      </trkpt>
      <trkpt lat="43.30319" lon="5.68255">
        <ele>751</ele>
        <time>2019-11-29T10:12:06.000Z</time>
      </trkpt>
      <trkpt lat="43.30319" lon="5.68254">
        <ele>751</ele>
        <time>2019-11-29T10:12:07.000Z</time>
      </trkpt>
      <trkpt lat="43.30319" lon="5.68254">
        <ele>751</ele>
        <time>2019-11-29T10:12:08.000Z</time>
      </trkpt>
      <trkpt lat="43.30319" lon="5.68253">
        <ele>751</ele>
        <time>2019-11-29T10:12:09.000Z</time>
      </trkpt>
      <trkpt lat="43.30318" lon="5.68253">
        <ele>751</ele>
        <time>2019-11-29T10:12:10.000Z</time>
      </trkpt>
      <trkpt lat="43.30317" lon="5.68253">
        <ele>751</ele>
        <time>2019-11-29T10:12:11.000Z</time>
      </trkpt>
      <trkpt lat="43.30317" lon="5.68253">
        <ele>751</ele>
        <time>2019-11-29T10:12:12.000Z</time>
      </trkpt>
      <trkpt lat="43.30317" lon="5.68253">
        <ele>751</ele>
        <time>2019-11-29T10:12:13.000Z</time>
      </trkpt>
      <trkpt lat="43.30317" lon="5.68253">
        <ele>751</ele>
        <time>2019-11-29T10:12:14.000Z</time>
      </trkpt>
      <trkpt lat="43.30316" lon="5.68252">
        <ele>751</ele>
        <time>2019-11-29T10:12:15.000Z</time>
      </trkpt>
      <trkpt lat="43.30316" lon="5.68252">
        <ele>751</ele>
        <time>2019-11-29T10:12:16.000Z</time>
      </trkpt>
      <trkpt lat="43.30316" lon="5.68251">
        <ele>751</ele>
        <time>2019-11-29T10:12:17.000Z</time>
      </trkpt>
      <trkpt lat="43.30316" lon="5.6825">
        <ele>751</ele>
        <time>2019-11-29T10:12:18.000Z</time>
      </trkpt>
      <trkpt lat="43.30316" lon="5.68249">
        <ele>751</ele>
        <time>2019-11-29T10:12:19.000Z</time>
      </trkpt>
      <trkpt lat="43.30316" lon="5.68248">
        <ele>751</ele>
        <time>2019-11-29T10:12:20.000Z</time>
      </trkpt>
      <trkpt lat="43.30316" lon="5.68248">
        <ele>750</ele>
        <time>2019-11-29T10:12:21.000Z</time>
      </trkpt>
      <trkpt lat="43.30315" lon="5.68248">
        <ele>750</ele>
        <time>2019-11-29T10:12:22.000Z</time>
      </trkpt>
      <trkpt lat="43.30315" lon="5.68248">
        <ele>750</ele>
        <time>2019-11-29T10:12:23.000Z</time>
      </trkpt>
      <trkpt lat="43.30314" lon="5.68248">
        <ele>750</ele>
        <time>2019-11-29T10:12:24.000Z</time>
      </trkpt>
      <trkpt lat="43.30313" lon="5.68248">
        <ele>750</ele>
        <time>2019-11-29T10:12:25.000Z</time>
      </trkpt>
      <trkpt lat="43.30312" lon="5.68247">
        <ele>750</ele>
        <time>2019-11-29T10:12:26.000Z</time>
      </trkpt>
      <trkpt lat="43.30312" lon="5.68247">
        <ele>750</ele>
        <time>2019-11-29T10:12:27.000Z</time>
      </trkpt>
      <trkpt lat="43.30311" lon="5.68245">
        <ele>750</ele>
        <time>2019-11-29T10:12:28.000Z</time>
      </trkpt>
      <trkpt lat="43.30311" lon="5.68245">
        <ele>750</ele>
        <time>2019-11-29T10:12:29.000Z</time>
      </trkpt>
      <trkpt lat="43.30311" lon="5.68244">
        <ele>750</ele>
        <time>2019-11-29T10:12:30.000Z</time>
      </trkpt>
      <trkpt lat="43.30312" lon="5.68243">
        <ele>750</ele>
        <time>2019-11-29T10:12:31.000Z</time>
      </trkpt>
      <trkpt lat="43.30312" lon="5.68243">
        <ele>750</ele>
        <time>2019-11-29T10:12:32.000Z</time>
      </trkpt>
      <trkpt lat="43.30313" lon="5.68242">
        <ele>750</ele>
        <time>2019-11-29T10:12:33.000Z</time>
      </trkpt>
      <trkpt lat="43.30314" lon="5.68242">
        <ele>750</ele>
        <time>2019-11-29T10:12:34.000Z</time>
      </trkpt>
      <trkpt lat="43.30314" lon="5.68242">
        <ele>750</ele>
        <time>2019-11-29T10:12:35.000Z</time>
      </trkpt>
      <trkpt lat="43.30314" lon="5.68241">
        <ele>750</ele>
        <time>2019-11-29T10:12:36.000Z</time>
      </trkpt>
      <trkpt lat="43.30315" lon="5.68241">
        <ele>750</ele>
        <time>2019-11-29T10:12:37.000Z</time>
      </trkpt>
      <trkpt lat="43.30315" lon="5.6824">
        <ele>750</ele>
        <time>2019-11-29T10:12:38.000Z</time>
      </trkpt>
      <trkpt lat="43.30316" lon="5.68239">
        <ele>750</ele>
        <time>2019-11-29T10:12:39.000Z</time>
      </trkpt>
      <trkpt lat="43.30317" lon="5.68238">
        <ele>750</ele>
        <time>2019-11-29T10:12:40.000Z</time>
      </trkpt>
      <trkpt lat="43.30317" lon="5.68237">
        <ele>750</ele>
        <time>2019-11-29T10:12:41.000Z</time>
      </trkpt>
      <trkpt lat="43.30318" lon="5.68237">
        <ele>750</ele>
        <time>2019-11-29T10:12:42.000Z</time>
      </trkpt>
      <trkpt lat="43.30318" lon="5.68236">
        <ele>750</ele>
        <time>2019-11-29T10:12:43.000Z</time>
      </trkpt>
      <trkpt lat="43.30319" lon="5.68236">
        <ele>750</ele>
        <time>2019-11-29T10:12:44.000Z</time>
      </trkpt>
      <trkpt lat="43.30319" lon="5.68235">
        <ele>750</ele>
        <time>2019-11-29T10:12:45.000Z</time>
      </trkpt>
      <trkpt lat="43.30319" lon="5.68236">
        <ele>750</ele>
        <time>2019-11-29T10:12:46.000Z</time>
      </trkpt>
      <trkpt lat="43.30319" lon="5.68236">
        <ele>750</ele>
        <time>2019-11-29T10:12:47.000Z</time>
      </trkpt>
      <trkpt lat="43.30319" lon="5.68235">
        <ele>750</ele>
        <time>2019-11-29T10:12:48.000Z</time>
      </trkpt>
      <trkpt lat="43.30319" lon="5.68235">
        <ele>750</ele>
        <time>2019-11-29T10:12:49.000Z</time>
      </trkpt>
      <trkpt lat="43.30319" lon="5.68235">
        <ele>750</ele>
        <time>2019-11-29T10:12:50.000Z</time>
      </trkpt>
      <trkpt lat="43.30319" lon="5.68235">
        <ele>750</ele>
        <time>2019-11-29T10:12:51.000Z</time>
      </trkpt>
      <trkpt lat="43.30318" lon="5.68235">
        <ele>750</ele>
        <time>2019-11-29T10:12:52.000Z</time>
      </trkpt>
      <trkpt lat="43.30318" lon="5.68235">
        <ele>750</ele>
        <time>2019-11-29T10:12:53.000Z</time>
      </trkpt>
      <trkpt lat="43.30317" lon="5.68234">
        <ele>750</ele>
        <time>2019-11-29T10:12:54.000Z</time>
      </trkpt>
      <trkpt lat="43.30317" lon="5.68233">
        <ele>749</ele>
        <time>2019-11-29T10:12:55.000Z</time>
      </trkpt>
      <trkpt lat="43.30317" lon="5.68233">
        <ele>749</ele>
        <time>2019-11-29T10:12:56.000Z</time>
      </trkpt>
      <trkpt lat="43.30316" lon="5.68232">
        <ele>749</ele>
        <time>2019-11-29T10:12:57.000Z</time>
      </trkpt>
      <trkpt lat="43.30315" lon="5.68231">
        <ele>749</ele>
        <time>2019-11-29T10:12:58.000Z</time>
      </trkpt>
      <trkpt lat="43.30315" lon="5.68231">
        <ele>749</ele>
        <time>2019-11-29T10:12:59.000Z</time>
      </trkpt>
      <trkpt lat="43.30315" lon="5.6823">
        <ele>749</ele>
        <time>2019-11-29T10:13:00.000Z</time>
      </trkpt>
      <trkpt lat="43.30314" lon="5.6823">
        <ele>748</ele>
        <time>2019-11-29T10:13:01.000Z</time>
      </trkpt>
      <trkpt lat="43.30313" lon="5.68229">
        <ele>748</ele>
        <time>2019-11-29T10:13:02.000Z</time>
      </trkpt>
      <trkpt lat="43.30313" lon="5.68229">
        <ele>748</ele>
        <time>2019-11-29T10:13:03.000Z</time>
      </trkpt>
      <trkpt lat="43.30313" lon="5.68228">
        <ele>748</ele>
        <time>2019-11-29T10:13:04.000Z</time>
      </trkpt>
      <trkpt lat="43.30312" lon="5.68227">
        <ele>748</ele>
        <time>2019-11-29T10:13:05.000Z</time>
      </trkpt>
      <trkpt lat="43.30312" lon="5.68227">
        <ele>747</ele>
        <time>2019-11-29T10:13:06.000Z</time>
      </trkpt>
      <trkpt lat="43.30312" lon="5.68226">
        <ele>747</ele>
        <time>2019-11-29T10:13:07.000Z</time>
      </trkpt>
      <trkpt lat="43.30311" lon="5.68226">
        <ele>747</ele>
        <time>2019-11-29T10:13:08.000Z</time>
      </trkpt>
      <trkpt lat="43.30311" lon="5.68225">
        <ele>747</ele>
        <time>2019-11-29T10:13:09.000Z</time>
      </trkpt>
      <trkpt lat="43.30311" lon="5.68224">
        <ele>747</ele>
        <time>2019-11-29T10:13:10.000Z</time>
      </trkpt>
      <trkpt lat="43.3031" lon="5.68224">
        <ele>746</ele>
        <time>2019-11-29T10:13:11.000Z</time>
      </trkpt>
      <trkpt lat="43.3031" lon="5.68223">
        <ele>746</ele>
        <time>2019-11-29T10:13:12.000Z</time>
      </trkpt>
      <trkpt lat="43.30309" lon="5.68222">
        <ele>746</ele>
        <time>2019-11-29T10:13:13.000Z</time>
      </trkpt>
      <trkpt lat="43.30309" lon="5.68222">
        <ele>746</ele>
        <time>2019-11-29T10:13:14.000Z</time>
      </trkpt>
      <trkpt lat="43.30309" lon="5.68222">
        <ele>746</ele>
        <time>2019-11-29T10:13:15.000Z</time>
      </trkpt>
      <trkpt lat="43.30308" lon="5.68222">
        <ele>746</ele>
        <time>2019-11-29T10:13:16.000Z</time>
      </trkpt>
      <trkpt lat="43.30307" lon="5.68221">
        <ele>745</ele>
        <time>2019-11-29T10:13:17.000Z</time>
      </trkpt>
      <trkpt lat="43.30306" lon="5.68221">
        <ele>745</ele>
        <time>2019-11-29T10:13:18.000Z</time>
      </trkpt>
      <trkpt lat="43.30305" lon="5.6822">
        <ele>745</ele>
        <time>2019-11-29T10:13:19.000Z</time>
      </trkpt>
      <trkpt lat="43.30305" lon="5.6822">
        <ele>745</ele>
        <time>2019-11-29T10:13:20.000Z</time>
      </trkpt>
      <trkpt lat="43.30305" lon="5.6822">
        <ele>745</ele>
        <time>2019-11-29T10:13:21.000Z</time>
      </trkpt>
      <trkpt lat="43.30304" lon="5.68219">
        <ele>745</ele>
        <time>2019-11-29T10:13:22.000Z</time>
      </trkpt>
      <trkpt lat="43.30304" lon="5.68219">
        <ele>745</ele>
        <time>2019-11-29T10:13:23.000Z</time>
      </trkpt>
      <trkpt lat="43.30304" lon="5.68218">
        <ele>745</ele>
        <time>2019-11-29T10:13:24.000Z</time>
      </trkpt>
      <trkpt lat="43.30304" lon="5.68218">
        <ele>745</ele>
        <time>2019-11-29T10:13:25.000Z</time>
      </trkpt>
      <trkpt lat="43.30304" lon="5.68218">
        <ele>745</ele>
        <time>2019-11-29T10:13:26.000Z</time>
      </trkpt>
      <trkpt lat="43.30304" lon="5.68218">
        <ele>745</ele>
        <time>2019-11-29T10:13:27.000Z</time>
      </trkpt>
      <trkpt lat="43.30304" lon="5.68218">
        <ele>745</ele>
        <time>2019-11-29T10:13:28.000Z</time>
      </trkpt>
      <trkpt lat="43.30304" lon="5.68218">
        <ele>745</ele>
        <time>2019-11-29T10:13:29.000Z</time>
      </trkpt>
      <trkpt lat="43.30304" lon="5.68218">
        <ele>745</ele>
        <time>2019-11-29T10:13:30.000Z</time>
      </trkpt>
      <trkpt lat="43.30304" lon="5.68218">
        <ele>744</ele>
        <time>2019-11-29T10:13:31.000Z</time>
      </trkpt>
      <trkpt lat="43.30304" lon="5.68218">
        <ele>744</ele>
        <time>2019-11-29T10:13:32.000Z</time>
      </trkpt>
      <trkpt lat="43.30304" lon="5.68218">
        <ele>744</ele>
        <time>2019-11-29T10:13:33.000Z</time>
      </trkpt>
      <trkpt lat="43.30304" lon="5.68218">
        <ele>744</ele>
        <time>2019-11-29T10:13:34.000Z</time>
      </trkpt>
      <trkpt lat="43.30304" lon="5.68218">
        <ele>744</ele>
        <time>2019-11-29T10:13:35.000Z</time>
      </trkpt>
      <trkpt lat="43.30304" lon="5.68218">
        <ele>744</ele>
        <time>2019-11-29T10:13:36.000Z</time>
      </trkpt>
      <trkpt lat="43.30303" lon="5.68218">
        <ele>744</ele>
        <time>2019-11-29T10:13:37.000Z</time>
      </trkpt>
      <trkpt lat="43.30303" lon="5.68218">
        <ele>744</ele>
        <time>2019-11-29T10:13:38.000Z</time>
      </trkpt>
      <trkpt lat="43.30303" lon="5.68218">
        <ele>744</ele>
        <time>2019-11-29T10:13:39.000Z</time>
      </trkpt>
      <trkpt lat="43.30303" lon="5.68218">
        <ele>744</ele>
        <time>2019-11-29T10:13:40.000Z</time>
      </trkpt>
      <trkpt lat="43.30303" lon="5.68219">
        <ele>744</ele>
        <time>2019-11-29T10:13:41.000Z</time>
      </trkpt>
      <trkpt lat="43.30303" lon="5.68219">
        <ele>744</ele>
        <time>2019-11-29T10:13:42.000Z</time>
      </trkpt>
      <trkpt lat="43.30303" lon="5.68219">
        <ele>744</ele>
        <time>2019-11-29T10:13:43.000Z</time>
      </trkpt>
      <trkpt lat="43.30303" lon="5.68219">
        <ele>744</ele>
        <time>2019-11-29T10:13:44.000Z</time>
      </trkpt>
      <trkpt lat="43.30304" lon="5.68219">
        <ele>744</ele>
        <time>2019-11-29T10:13:45.000Z</time>
      </trkpt>
      <trkpt lat="43.30303" lon="5.68219">
        <ele>744</ele>
        <time>2019-11-29T10:13:46.000Z</time>
      </trkpt>
      <trkpt lat="43.30303" lon="5.68219">
        <ele>744</ele>
        <time>2019-11-29T10:13:47.000Z</time>
      </trkpt>
      <trkpt lat="43.30303" lon="5.68219">
        <ele>744</ele>
        <time>2019-11-29T10:13:48.000Z</time>
      </trkpt>
      <trkpt lat="43.30303" lon="5.68219">
        <ele>744</ele>
        <time>2019-11-29T10:13:49.000Z</time>
      </trkpt>
      <trkpt lat="43.30303" lon="5.68219">
        <ele>744</ele>
        <time>2019-11-29T10:13:50.000Z</time>
      </trkpt>
      <trkpt lat="43.30303" lon="5.68219">
        <ele>744</ele>
        <time>2019-11-29T10:13:51.000Z</time>
      </trkpt>
      <trkpt lat="43.30303" lon="5.68218">
        <ele>744</ele>
        <time>2019-11-29T10:13:52.000Z</time>
      </trkpt>
      <trkpt lat="43.30303" lon="5.68218">
        <ele>744</ele>
        <time>2019-11-29T10:13:53.000Z</time>
      </trkpt>
      <trkpt lat="43.30303" lon="5.68219">
        <ele>744</ele>
        <time>2019-11-29T10:13:54.000Z</time>
      </trkpt>
      <trkpt lat="43.30303" lon="5.68219">
        <ele>744</ele>
        <time>2019-11-29T10:13:55.000Z</time>
      </trkpt>
      <trkpt lat="43.30303" lon="5.68219">
        <ele>744</ele>
        <time>2019-11-29T10:13:56.000Z</time>
      </trkpt>
      <trkpt lat="43.30303" lon="5.68219">
        <ele>744</ele>
        <time>2019-11-29T10:13:57.000Z</time>
      </trkpt>
      <trkpt lat="43.30303" lon="5.68219">
        <ele>744</ele>
        <time>2019-11-29T10:13:58.000Z</time>
      </trkpt>
      <trkpt lat="43.30303" lon="5.68218">
        <ele>744</ele>
        <time>2019-11-29T10:13:59.000Z</time>
      </trkpt>
      <trkpt lat="43.30303" lon="5.68218">
        <ele>744</ele>
        <time>2019-11-29T10:14:00.000Z</time>
      </trkpt>
      <trkpt lat="43.30303" lon="5.68218">
        <ele>744</ele>
        <time>2019-11-29T10:14:01.000Z</time>
      </trkpt>
      <trkpt lat="43.30303" lon="5.68218">
        <ele>744</ele>
        <time>2019-11-29T10:14:02.000Z</time>
      </trkpt>
      <trkpt lat="43.30303" lon="5.68218">
        <ele>744</ele>
        <time>2019-11-29T10:14:03.000Z</time>
      </trkpt>
      <trkpt lat="43.30303" lon="5.68218">
        <ele>744</ele>
        <time>2019-11-29T10:14:04.000Z</time>
      </trkpt>
      <trkpt lat="43.30303" lon="5.68218">
        <ele>744</ele>
        <time>2019-11-29T10:14:05.000Z</time>
      </trkpt>
      <trkpt lat="43.30303" lon="5.68218">
        <ele>744</ele>
        <time>2019-11-29T10:14:06.000Z</time>
      </trkpt>
      <trkpt lat="43.30303" lon="5.68218">
        <ele>744</ele>
        <time>2019-11-29T10:14:07.000Z</time>
      </trkpt>
      <trkpt lat="43.30303" lon="5.68218">
        <ele>744</ele>
        <time>2019-11-29T10:14:08.000Z</time>
      </trkpt>
      <trkpt lat="43.30303" lon="5.68218">
        <ele>744</ele>
        <time>2019-11-29T10:14:09.000Z</time>
      </trkpt>
      <trkpt lat="43.30303" lon="5.68218">
        <ele>744</ele>
        <time>2019-11-29T10:14:10.000Z</time>
      </trkpt>
      <trkpt lat="43.30303" lon="5.68218">
        <ele>744</ele>
        <time>2019-11-29T10:14:11.000Z</time>
      </trkpt>
      <trkpt lat="43.30303" lon="5.68218">
        <ele>744</ele>
        <time>2019-11-29T10:14:12.000Z</time>
      </trkpt>
      <trkpt lat="43.30303" lon="5.68218">
        <ele>744</ele>
        <time>2019-11-29T10:14:13.000Z</time>
      </trkpt>
      <trkpt lat="43.30303" lon="5.68218">
        <ele>744</ele>
        <time>2019-11-29T10:14:14.000Z</time>
      </trkpt>
      <trkpt lat="43.30303" lon="5.68218">
        <ele>744</ele>
        <time>2019-11-29T10:14:15.000Z</time>
      </trkpt>
      <trkpt lat="43.30303" lon="5.68218">
        <ele>744</ele>
        <time>2019-11-29T10:14:16.000Z</time>
      </trkpt>
      <trkpt lat="43.30303" lon="5.68218">
        <ele>744</ele>
        <time>2019-11-29T10:14:17.000Z</time>
      </trkpt>
      <trkpt lat="43.30303" lon="5.68218">
        <ele>744</ele>
        <time>2019-11-29T10:14:18.000Z</time>
      </trkpt>
      <trkpt lat="43.30303" lon="5.68218">
        <ele>744</ele>
        <time>2019-11-29T10:14:19.000Z</time>
      </trkpt>
      <trkpt lat="43.30303" lon="5.68218">
        <ele>744</ele>
        <time>2019-11-29T10:14:20.000Z</time>
      </trkpt>
      <trkpt lat="43.30303" lon="5.68218">
        <ele>744</ele>
        <time>2019-11-29T10:14:21.000Z</time>
      </trkpt>
      <trkpt lat="43.30303" lon="5.68218">
        <ele>744</ele>
        <time>2019-11-29T10:14:22.000Z</time>
      </trkpt>
      <trkpt lat="43.30303" lon="5.68218">
        <ele>744</ele>
        <time>2019-11-29T10:14:23.000Z</time>
      </trkpt>
      <trkpt lat="43.30304" lon="5.68218">
        <ele>744</ele>
        <time>2019-11-29T10:14:24.000Z</time>
      </trkpt>
      <trkpt lat="43.30304" lon="5.68218">
        <ele>744</ele>
        <time>2019-11-29T10:14:25.000Z</time>
      </trkpt>
      <trkpt lat="43.30304" lon="5.68218">
        <ele>744</ele>
        <time>2019-11-29T10:14:26.000Z</time>
      </trkpt>
      <trkpt lat="43.30304" lon="5.68218">
        <ele>744</ele>
        <time>2019-11-29T10:14:27.000Z</time>
      </trkpt>
      <trkpt lat="43.30304" lon="5.68218">
        <ele>744</ele>
        <time>2019-11-29T10:14:28.000Z</time>
      </trkpt>
      <trkpt lat="43.30304" lon="5.68218">
        <ele>744</ele>
        <time>2019-11-29T10:14:29.000Z</time>
      </trkpt>
      <trkpt lat="43.30304" lon="5.68218">
        <ele>744</ele>
        <time>2019-11-29T10:14:30.000Z</time>
      </trkpt>
      <trkpt lat="43.30304" lon="5.68218">
        <ele>744</ele>
        <time>2019-11-29T10:14:31.000Z</time>
      </trkpt>
      <trkpt lat="43.30304" lon="5.68218">
        <ele>744</ele>
        <time>2019-11-29T10:14:32.000Z</time>
      </trkpt>
      <trkpt lat="43.30304" lon="5.68218">
        <ele>744</ele>
        <time>2019-11-29T10:14:33.000Z</time>
      </trkpt>
      <trkpt lat="43.30304" lon="5.68219">
        <ele>744</ele>
        <time>2019-11-29T10:14:34.000Z</time>
      </trkpt>
      <trkpt lat="43.30304" lon="5.68219">
        <ele>744</ele>
        <time>2019-11-29T10:14:35.000Z</time>
      </trkpt>
      <trkpt lat="43.30304" lon="5.68219">
        <ele>744</ele>
        <time>2019-11-29T10:14:36.000Z</time>
      </trkpt>
      <trkpt lat="43.30304" lon="5.68219">
        <ele>744</ele>
        <time>2019-11-29T10:14:37.000Z</time>
      </trkpt>
      <trkpt lat="43.30304" lon="5.68219">
        <ele>744</ele>
        <time>2019-11-29T10:14:38.000Z</time>
      </trkpt>
      <trkpt lat="43.30304" lon="5.68219">
        <ele>744</ele>
        <time>2019-11-29T10:14:39.000Z</time>
      </trkpt>
      <trkpt lat="43.30304" lon="5.68219">
        <ele>744</ele>
        <time>2019-11-29T10:14:40.000Z</time>
      </trkpt>
      <trkpt lat="43.30304" lon="5.68219">
        <ele>744</ele>
        <time>2019-11-29T10:14:41.000Z</time>
      </trkpt>
      <trkpt lat="43.30304" lon="5.68219">
        <ele>744</ele>
        <time>2019-11-29T10:14:42.000Z</time>
      </trkpt>
      <trkpt lat="43.30304" lon="5.68219">
        <ele>744</ele>
        <time>2019-11-29T10:14:43.000Z</time>
      </trkpt>
      <trkpt lat="43.30304" lon="5.68219">
        <ele>744</ele>
        <time>2019-11-29T10:14:44.000Z</time>
      </trkpt>
      <trkpt lat="43.30304" lon="5.68219">
        <ele>744</ele>
        <time>2019-11-29T10:14:45.000Z</time>
      </trkpt>
      <trkpt lat="43.30304" lon="5.68219">
        <ele>744</ele>
        <time>2019-11-29T10:14:46.000Z</time>
      </trkpt>
      <trkpt lat="43.30304" lon="5.68219">
        <ele>744</ele>
        <time>2019-11-29T10:14:47.000Z</time>
      </trkpt>
      <trkpt lat="43.30304" lon="5.68219">
        <ele>744</ele>
        <time>2019-11-29T10:14:48.000Z</time>
      </trkpt>
      <trkpt lat="43.30304" lon="5.68219">
        <ele>744</ele>
        <time>2019-11-29T10:14:49.000Z</time>
      </trkpt>
      <trkpt lat="43.30304" lon="5.68219">
        <ele>744</ele>
        <time>2019-11-29T10:14:50.000Z</time>
      </trkpt>
      <trkpt lat="43.30304" lon="5.68219">
        <ele>744</ele>
        <time>2019-11-29T10:14:51.000Z</time>
      </trkpt>
      <trkpt lat="43.30304" lon="5.68219">
        <ele>744</ele>
        <time>2019-11-29T10:14:52.000Z</time>
      </trkpt>
      <trkpt lat="43.30304" lon="5.68219">
        <ele>744</ele>
        <time>2019-11-29T10:14:53.000Z</time>
      </trkpt>
      <trkpt lat="43.30304" lon="5.68219">
        <ele>744</ele>
        <time>2019-11-29T10:14:54.000Z</time>
      </trkpt>
      <trkpt lat="43.30304" lon="5.68219">
        <ele>744</ele>
        <time>2019-11-29T10:14:55.000Z</time>
      </trkpt>
      <trkpt lat="43.30304" lon="5.68219">
        <ele>744</ele>
        <time>2019-11-29T10:14:56.000Z</time>
      </trkpt>
      <trkpt lat="43.30304" lon="5.68219">
        <ele>744</ele>
        <time>2019-11-29T10:14:57.000Z</time>
      </trkpt>
      <trkpt lat="43.30304" lon="5.68219">
        <ele>744</ele>
        <time>2019-11-29T10:14:58.000Z</time>
      </trkpt>
      <trkpt lat="43.30304" lon="5.68219">
        <ele>744</ele>
        <time>2019-11-29T10:14:59.000Z</time>
      </trkpt>
      <trkpt lat="43.30304" lon="5.68219">
        <ele>744</ele>
        <time>2019-11-29T10:15:00.000Z</time>
      </trkpt>
      <trkpt lat="43.30304" lon="5.68219">
        <ele>744</ele>
        <time>2019-11-29T10:15:01.000Z</time>
      </trkpt>
      <trkpt lat="43.30304" lon="5.68219">
        <ele>744</ele>
        <time>2019-11-29T10:15:02.000Z</time>
      </trkpt>
      <trkpt lat="43.30304" lon="5.68219">
        <ele>744</ele>
        <time>2019-11-29T10:15:03.000Z</time>
      </trkpt>
      <trkpt lat="43.30304" lon="5.68219">
        <ele>744</ele>
        <time>2019-11-29T10:15:04.000Z</time>
      </trkpt>
      <trkpt lat="43.30304" lon="5.68219">
        <ele>744</ele>
        <time>2019-11-29T10:15:05.000Z</time>
      </trkpt>
      <trkpt lat="43.30304" lon="5.68219">
        <ele>744</ele>
        <time>2019-11-29T10:15:06.000Z</time>
      </trkpt>
      <trkpt lat="43.30304" lon="5.68219">
        <ele>744</ele>
        <time>2019-11-29T10:15:07.000Z</time>
      </trkpt>
      <trkpt lat="43.30304" lon="5.68219">
        <ele>744</ele>
        <time>2019-11-29T10:15:08.000Z</time>
      </trkpt>
      <trkpt lat="43.30304" lon="5.68219">
        <ele>744</ele>
        <time>2019-11-29T10:15:09.000Z</time>
      </trkpt>
      <trkpt lat="43.30304" lon="5.68219">
        <ele>744</ele>
        <time>2019-11-29T10:15:10.000Z</time>
      </trkpt>
      <trkpt lat="43.30304" lon="5.68219">
        <ele>744</ele>
        <time>2019-11-29T10:15:11.000Z</time>
      </trkpt>
      <trkpt lat="43.30304" lon="5.68219">
        <ele>744</ele>
        <time>2019-11-29T10:15:12.000Z</time>
      </trkpt>
      <trkpt lat="43.30303" lon="5.68219">
        <ele>744</ele>
        <time>2019-11-29T10:15:13.000Z</time>
      </trkpt>
      <trkpt lat="43.30304" lon="5.68218">
        <ele>744</ele>
        <time>2019-11-29T10:15:14.000Z</time>
      </trkpt>
      <trkpt lat="43.30303" lon="5.68219">
        <ele>744</ele>
        <time>2019-11-29T10:15:15.000Z</time>
      </trkpt>
      <trkpt lat="43.30303" lon="5.68219">
        <ele>744</ele>
        <time>2019-11-29T10:15:16.000Z</time>
      </trkpt>
      <trkpt lat="43.30303" lon="5.68219">
        <ele>744</ele>
        <time>2019-11-29T10:15:17.000Z</time>
      </trkpt>
      <trkpt lat="43.30303" lon="5.68219">
        <ele>744</ele>
        <time>2019-11-29T10:15:18.000Z</time>
      </trkpt>
      <trkpt lat="43.30303" lon="5.68219">
        <ele>744</ele>
        <time>2019-11-29T10:15:19.000Z</time>
      </trkpt>
      <trkpt lat="43.30303" lon="5.68219">
        <ele>744</ele>
        <time>2019-11-29T10:15:20.000Z</time>
      </trkpt>
      <trkpt lat="43.30303" lon="5.68219">
        <ele>744</ele>
        <time>2019-11-29T10:15:21.000Z</time>
      </trkpt>
      <trkpt lat="43.30303" lon="5.68219">
        <ele>744</ele>
        <time>2019-11-29T10:15:22.000Z</time>
      </trkpt>
      <trkpt lat="43.30304" lon="5.68219">
        <ele>744</ele>
        <time>2019-11-29T10:15:23.000Z</time>
      </trkpt>
      <trkpt lat="43.30304" lon="5.68219">
        <ele>744</ele>
        <time>2019-11-29T10:15:24.000Z</time>
      </trkpt>
      <trkpt lat="43.30304" lon="5.68219">
        <ele>744</ele>
        <time>2019-11-29T10:15:25.000Z</time>
      </trkpt>
      <trkpt lat="43.30304" lon="5.68219">
        <ele>744</ele>
        <time>2019-11-29T10:15:26.000Z</time>
      </trkpt>
      <trkpt lat="43.30304" lon="5.68219">
        <ele>744</ele>
        <time>2019-11-29T10:15:27.000Z</time>
      </trkpt>
      <trkpt lat="43.30304" lon="5.68219">
        <ele>744</ele>
        <time>2019-11-29T10:15:28.000Z</time>
      </trkpt>
      <trkpt lat="43.30304" lon="5.68219">
        <ele>744</ele>
        <time>2019-11-29T10:15:29.000Z</time>
      </trkpt>
      <trkpt lat="43.30303" lon="5.68219">
        <ele>744</ele>
        <time>2019-11-29T10:15:30.000Z</time>
      </trkpt>
      <trkpt lat="43.30303" lon="5.68219">
        <ele>744</ele>
        <time>2019-11-29T10:15:31.000Z</time>
      </trkpt>
      <trkpt lat="43.30303" lon="5.68219">
        <ele>744</ele>
        <time>2019-11-29T10:15:32.000Z</time>
      </trkpt>
      <trkpt lat="43.30303" lon="5.68219">
        <ele>744</ele>
        <time>2019-11-29T10:15:33.000Z</time>
      </trkpt>
      <trkpt lat="43.30303" lon="5.68219">
        <ele>744</ele>
        <time>2019-11-29T10:15:34.000Z</time>
      </trkpt>
      <trkpt lat="43.30303" lon="5.68219">
        <ele>744</ele>
        <time>2019-11-29T10:15:35.000Z</time>
      </trkpt>
      <trkpt lat="43.30303" lon="5.68219">
        <ele>744</ele>
        <time>2019-11-29T10:15:36.000Z</time>
      </trkpt>
      <trkpt lat="43.30303" lon="5.68219">
        <ele>743</ele>
        <time>2019-11-29T10:15:37.000Z</time>
      </trkpt>
      <trkpt lat="43.30303" lon="5.68219">
        <ele>743</ele>
        <time>2019-11-29T10:15:38.000Z</time>
      </trkpt>
      <trkpt lat="43.30303" lon="5.68219">
        <ele>743</ele>
        <time>2019-11-29T10:15:39.000Z</time>
      </trkpt>
      <trkpt lat="43.30303" lon="5.68219">
        <ele>743</ele>
        <time>2019-11-29T10:15:40.000Z</time>
      </trkpt>
      <trkpt lat="43.30303" lon="5.68219">
        <ele>743</ele>
        <time>2019-11-29T10:15:41.000Z</time>
      </trkpt>
      <trkpt lat="43.30303" lon="5.68219">
        <ele>743</ele>
        <time>2019-11-29T10:15:42.000Z</time>
      </trkpt>
      <trkpt lat="43.30303" lon="5.68219">
        <ele>743</ele>
        <time>2019-11-29T10:15:43.000Z</time>
      </trkpt>
      <trkpt lat="43.30303" lon="5.68219">
        <ele>743</ele>
        <time>2019-11-29T10:15:44.000Z</time>
      </trkpt>
      <trkpt lat="43.30303" lon="5.68219">
        <ele>743</ele>
        <time>2019-11-29T10:15:45.000Z</time>
      </trkpt>
      <trkpt lat="43.30303" lon="5.68219">
        <ele>743</ele>
        <time>2019-11-29T10:15:46.000Z</time>
      </trkpt>
      <trkpt lat="43.30303" lon="5.68219">
        <ele>743</ele>
        <time>2019-11-29T10:15:47.000Z</time>
      </trkpt>
      <trkpt lat="43.30303" lon="5.68219">
        <ele>743</ele>
        <time>2019-11-29T10:15:48.000Z</time>
      </trkpt>
      <trkpt lat="43.30303" lon="5.68219">
        <ele>743</ele>
        <time>2019-11-29T10:15:49.000Z</time>
      </trkpt>
      <trkpt lat="43.30303" lon="5.68219">
        <ele>743</ele>
        <time>2019-11-29T10:15:50.000Z</time>
      </trkpt>
      <trkpt lat="43.30303" lon="5.68219">
        <ele>743</ele>
        <time>2019-11-29T10:15:51.000Z</time>
      </trkpt>
      <trkpt lat="43.30303" lon="5.68219">
        <ele>743</ele>
        <time>2019-11-29T10:15:52.000Z</time>
      </trkpt>
      <trkpt lat="43.30303" lon="5.68219">
        <ele>743</ele>
        <time>2019-11-29T10:15:53.000Z</time>
      </trkpt>
      <trkpt lat="43.30303" lon="5.68219">
        <ele>743</ele>
        <time>2019-11-29T10:15:54.000Z</time>
      </trkpt>
      <trkpt lat="43.30303" lon="5.68219">
        <ele>743</ele>
        <time>2019-11-29T10:15:55.000Z</time>
      </trkpt>
      <trkpt lat="43.30303" lon="5.68219">
        <ele>743</ele>
        <time>2019-11-29T10:15:56.000Z</time>
      </trkpt>
      <trkpt lat="43.30303" lon="5.68219">
        <ele>743</ele>
        <time>2019-11-29T10:15:57.000Z</time>
      </trkpt>
      <trkpt lat="43.30303" lon="5.68219">
        <ele>743</ele>
        <time>2019-11-29T10:15:58.000Z</time>
      </trkpt>
      <trkpt lat="43.30303" lon="5.68219">
        <ele>743</ele>
        <time>2019-11-29T10:15:59.000Z</time>
      </trkpt>
      <trkpt lat="43.30303" lon="5.68219">
        <ele>743</ele>
        <time>2019-11-29T10:16:00.000Z</time>
      </trkpt>
      <trkpt lat="43.30303" lon="5.68219">
        <ele>743</ele>
        <time>2019-11-29T10:16:01.000Z</time>
      </trkpt>
      <trkpt lat="43.30303" lon="5.68219">
        <ele>743</ele>
        <time>2019-11-29T10:16:02.000Z</time>
      </trkpt>
      <trkpt lat="43.30303" lon="5.68219">
        <ele>743</ele>
        <time>2019-11-29T10:16:03.000Z</time>
      </trkpt>
      <trkpt lat="43.30303" lon="5.68219">
        <ele>743</ele>
        <time>2019-11-29T10:16:04.000Z</time>
      </trkpt>
      <trkpt lat="43.30303" lon="5.68219">
        <ele>743</ele>
        <time>2019-11-29T10:16:05.000Z</time>
      </trkpt>
      <trkpt lat="43.30303" lon="5.68219">
        <ele>743</ele>
        <time>2019-11-29T10:16:06.000Z</time>
      </trkpt>
      <trkpt lat="43.30303" lon="5.68219">
        <ele>743</ele>
        <time>2019-11-29T10:16:07.000Z</time>
      </trkpt>
      <trkpt lat="43.30303" lon="5.68219">
        <ele>743</ele>
        <time>2019-11-29T10:16:08.000Z</time>
      </trkpt>
      <trkpt lat="43.30303" lon="5.68219">
        <ele>743</ele>
        <time>2019-11-29T10:16:09.000Z</time>
      </trkpt>
      <trkpt lat="43.30303" lon="5.68219">
        <ele>743</ele>
        <time>2019-11-29T10:16:10.000Z</time>
      </trkpt>
      <trkpt lat="43.30303" lon="5.68219">
        <ele>743</ele>
        <time>2019-11-29T10:16:11.000Z</time>
      </trkpt>
      <trkpt lat="43.30303" lon="5.68219">
        <ele>743</ele>
        <time>2019-11-29T10:16:12.000Z</time>
      </trkpt>
      <trkpt lat="43.30303" lon="5.68219">
        <ele>743</ele>
        <time>2019-11-29T10:16:13.000Z</time>
      </trkpt>
      <trkpt lat="43.30304" lon="5.68219">
        <ele>743</ele>
        <time>2019-11-29T10:16:14.000Z</time>
      </trkpt>
      <trkpt lat="43.30304" lon="5.68219">
        <ele>743</ele>
        <time>2019-11-29T10:16:15.000Z</time>
      </trkpt>
      <trkpt lat="43.30305" lon="5.6822">
        <ele>743</ele>
        <time>2019-11-29T10:16:16.000Z</time>
      </trkpt>
      <trkpt lat="43.30305" lon="5.6822">
        <ele>743</ele>
        <time>2019-11-29T10:16:17.000Z</time>
      </trkpt>
      <trkpt lat="43.30306" lon="5.68221">
        <ele>743</ele>
        <time>2019-11-29T10:16:18.000Z</time>
      </trkpt>
      <trkpt lat="43.30307" lon="5.68221">
        <ele>743</ele>
        <time>2019-11-29T10:16:19.000Z</time>
      </trkpt>
      <trkpt lat="43.30307" lon="5.68221">
        <ele>744</ele>
        <time>2019-11-29T10:16:20.000Z</time>
      </trkpt>
      <trkpt lat="43.30308" lon="5.68221">
        <ele>744</ele>
        <time>2019-11-29T10:16:21.000Z</time>
      </trkpt>
      <trkpt lat="43.30308" lon="5.68221">
        <ele>744</ele>
        <time>2019-11-29T10:16:22.000Z</time>
      </trkpt>
      <trkpt lat="43.30309" lon="5.68221">
        <ele>744</ele>
        <time>2019-11-29T10:16:23.000Z</time>
      </trkpt>
      <trkpt lat="43.3031" lon="5.68221">
        <ele>744</ele>
        <time>2019-11-29T10:16:24.000Z</time>
      </trkpt>
      <trkpt lat="43.3031" lon="5.68221">
        <ele>744</ele>
        <time>2019-11-29T10:16:25.000Z</time>
      </trkpt>
      <trkpt lat="43.3031" lon="5.6822">
        <ele>744</ele>
        <time>2019-11-29T10:16:26.000Z</time>
      </trkpt>
      <trkpt lat="43.3031" lon="5.6822">
        <ele>744</ele>
        <time>2019-11-29T10:16:27.000Z</time>
      </trkpt>
      <trkpt lat="43.3031" lon="5.68219">
        <ele>744</ele>
        <time>2019-11-29T10:16:28.000Z</time>
      </trkpt>
      <trkpt lat="43.30311" lon="5.68218">
        <ele>744</ele>
        <time>2019-11-29T10:16:29.000Z</time>
      </trkpt>
      <trkpt lat="43.30311" lon="5.68218">
        <ele>744</ele>
        <time>2019-11-29T10:16:30.000Z</time>
      </trkpt>
      <trkpt lat="43.30311" lon="5.68217">
        <ele>744</ele>
        <time>2019-11-29T10:16:31.000Z</time>
      </trkpt>
      <trkpt lat="43.30311" lon="5.68217">
        <ele>744</ele>
        <time>2019-11-29T10:16:32.000Z</time>
      </trkpt>
      <trkpt lat="43.30311" lon="5.68217">
        <ele>744</ele>
        <time>2019-11-29T10:16:33.000Z</time>
      </trkpt>
      <trkpt lat="43.30311" lon="5.68217">
        <ele>744</ele>
        <time>2019-11-29T10:16:34.000Z</time>
      </trkpt>
      <trkpt lat="43.30311" lon="5.68216">
        <ele>744</ele>
        <time>2019-11-29T10:16:35.000Z</time>
      </trkpt>
      <trkpt lat="43.30311" lon="5.68215">
        <ele>744</ele>
        <time>2019-11-29T10:16:36.000Z</time>
      </trkpt>
      <trkpt lat="43.30311" lon="5.68214">
        <ele>744</ele>
        <time>2019-11-29T10:16:37.000Z</time>
      </trkpt>
      <trkpt lat="43.30311" lon="5.68214">
        <ele>744</ele>
        <time>2019-11-29T10:16:38.000Z</time>
      </trkpt>
      <trkpt lat="43.30312" lon="5.68214">
        <ele>744</ele>
        <time>2019-11-29T10:16:39.000Z</time>
      </trkpt>
      <trkpt lat="43.30312" lon="5.68214">
        <ele>744</ele>
        <time>2019-11-29T10:16:40.000Z</time>
      </trkpt>
      <trkpt lat="43.30312" lon="5.68214">
        <ele>744</ele>
        <time>2019-11-29T10:16:41.000Z</time>
      </trkpt>
      <trkpt lat="43.30312" lon="5.68214">
        <ele>744</ele>
        <time>2019-11-29T10:16:42.000Z</time>
      </trkpt>
      <trkpt lat="43.30312" lon="5.68214">
        <ele>744</ele>
        <time>2019-11-29T10:16:43.000Z</time>
      </trkpt>
      <trkpt lat="43.30311" lon="5.68213">
        <ele>743</ele>
        <time>2019-11-29T10:16:44.000Z</time>
      </trkpt>
      <trkpt lat="43.30311" lon="5.68211">
        <ele>743</ele>
        <time>2019-11-29T10:16:45.000Z</time>
      </trkpt>
      <trkpt lat="43.30311" lon="5.68211">
        <ele>743</ele>
        <time>2019-11-29T10:16:46.000Z</time>
      </trkpt>
      <trkpt lat="43.30311" lon="5.6821">
        <ele>743</ele>
        <time>2019-11-29T10:16:47.000Z</time>
      </trkpt>
      <trkpt lat="43.30311" lon="5.68209">
        <ele>743</ele>
        <time>2019-11-29T10:16:48.000Z</time>
      </trkpt>
      <trkpt lat="43.30311" lon="5.68209">
        <ele>743</ele>
        <time>2019-11-29T10:16:49.000Z</time>
      </trkpt>
      <trkpt lat="43.30311" lon="5.68209">
        <ele>743</ele>
        <time>2019-11-29T10:16:50.000Z</time>
      </trkpt>
      <trkpt lat="43.30311" lon="5.68208">
        <ele>743</ele>
        <time>2019-11-29T10:16:51.000Z</time>
      </trkpt>
      <trkpt lat="43.30311" lon="5.68208">
        <ele>743</ele>
        <time>2019-11-29T10:16:52.000Z</time>
      </trkpt>
      <trkpt lat="43.30311" lon="5.68208">
        <ele>743</ele>
        <time>2019-11-29T10:16:53.000Z</time>
      </trkpt>
      <trkpt lat="43.30311" lon="5.68208">
        <ele>743</ele>
        <time>2019-11-29T10:16:54.000Z</time>
      </trkpt>
      <trkpt lat="43.30311" lon="5.68208">
        <ele>743</ele>
        <time>2019-11-29T10:16:55.000Z</time>
      </trkpt>
      <trkpt lat="43.30311" lon="5.68208">
        <ele>743</ele>
        <time>2019-11-29T10:16:56.000Z</time>
      </trkpt>
      <trkpt lat="43.30311" lon="5.68208">
        <ele>743</ele>
        <time>2019-11-29T10:16:57.000Z</time>
      </trkpt>
      <trkpt lat="43.30311" lon="5.68207">
        <ele>743</ele>
        <time>2019-11-29T10:16:58.000Z</time>
      </trkpt>
      <trkpt lat="43.30311" lon="5.68207">
        <ele>743</ele>
        <time>2019-11-29T10:16:59.000Z</time>
      </trkpt>
      <trkpt lat="43.30311" lon="5.68207">
        <ele>743</ele>
        <time>2019-11-29T10:17:00.000Z</time>
      </trkpt>
      <trkpt lat="43.30311" lon="5.68207">
        <ele>743</ele>
        <time>2019-11-29T10:17:01.000Z</time>
      </trkpt>
      <trkpt lat="43.30311" lon="5.68207">
        <ele>743</ele>
        <time>2019-11-29T10:17:02.000Z</time>
      </trkpt>
      <trkpt lat="43.30311" lon="5.68207">
        <ele>743</ele>
        <time>2019-11-29T10:17:03.000Z</time>
      </trkpt>
      <trkpt lat="43.30311" lon="5.68207">
        <ele>743</ele>
        <time>2019-11-29T10:17:04.000Z</time>
      </trkpt>
      <trkpt lat="43.30311" lon="5.68207">
        <ele>743</ele>
        <time>2019-11-29T10:17:05.000Z</time>
      </trkpt>
      <trkpt lat="43.30311" lon="5.68207">
        <ele>743</ele>
        <time>2019-11-29T10:17:06.000Z</time>
      </trkpt>
      <trkpt lat="43.30311" lon="5.68207">
        <ele>743</ele>
        <time>2019-11-29T10:17:07.000Z</time>
      </trkpt>
      <trkpt lat="43.30311" lon="5.68207">
        <ele>743</ele>
        <time>2019-11-29T10:17:08.000Z</time>
      </trkpt>
      <trkpt lat="43.30311" lon="5.68207">
        <ele>743</ele>
        <time>2019-11-29T10:17:09.000Z</time>
      </trkpt>
      <trkpt lat="43.30311" lon="5.68207">
        <ele>743</ele>
        <time>2019-11-29T10:17:10.000Z</time>
      </trkpt>
      <trkpt lat="43.30311" lon="5.68207">
        <ele>743</ele>
        <time>2019-11-29T10:17:11.000Z</time>
      </trkpt>
      <trkpt lat="43.30311" lon="5.68207">
        <ele>743</ele>
        <time>2019-11-29T10:17:12.000Z</time>
      </trkpt>
      <trkpt lat="43.30311" lon="5.68207">
        <ele>743</ele>
        <time>2019-11-29T10:17:13.000Z</time>
      </trkpt>
      <trkpt lat="43.30312" lon="5.68207">
        <ele>743</ele>
        <time>2019-11-29T10:17:14.000Z</time>
      </trkpt>
      <trkpt lat="43.30312" lon="5.68207">
        <ele>742</ele>
        <time>2019-11-29T10:17:15.000Z</time>
      </trkpt>
      <trkpt lat="43.30313" lon="5.68207">
        <ele>742</ele>
        <time>2019-11-29T10:17:16.000Z</time>
      </trkpt>
      <trkpt lat="43.30313" lon="5.68207">
        <ele>742</ele>
        <time>2019-11-29T10:17:17.000Z</time>
      </trkpt>
      <trkpt lat="43.30313" lon="5.68206">
        <ele>742</ele>
        <time>2019-11-29T10:17:18.000Z</time>
      </trkpt>
      <trkpt lat="43.30314" lon="5.68206">
        <ele>742</ele>
        <time>2019-11-29T10:17:19.000Z</time>
      </trkpt>
      <trkpt lat="43.30314" lon="5.68206">
        <ele>742</ele>
        <time>2019-11-29T10:17:20.000Z</time>
      </trkpt>
      <trkpt lat="43.30314" lon="5.68205">
        <ele>742</ele>
        <time>2019-11-29T10:17:21.000Z</time>
      </trkpt>
      <trkpt lat="43.30315" lon="5.68205">
        <ele>742</ele>
        <time>2019-11-29T10:17:22.000Z</time>
      </trkpt>
      <trkpt lat="43.30315" lon="5.68205">
        <ele>742</ele>
        <time>2019-11-29T10:17:23.000Z</time>
      </trkpt>
      <trkpt lat="43.30316" lon="5.68204">
        <ele>742</ele>
        <time>2019-11-29T10:17:24.000Z</time>
      </trkpt>
      <trkpt lat="43.30316" lon="5.68204">
        <ele>742</ele>
        <time>2019-11-29T10:17:25.000Z</time>
      </trkpt>
      <trkpt lat="43.30316" lon="5.68204">
        <ele>742</ele>
        <time>2019-11-29T10:17:26.000Z</time>
      </trkpt>
      <trkpt lat="43.30316" lon="5.68204">
        <ele>742</ele>
        <time>2019-11-29T10:17:27.000Z</time>
      </trkpt>
      <trkpt lat="43.30316" lon="5.68204">
        <ele>742</ele>
        <time>2019-11-29T10:17:28.000Z</time>
      </trkpt>
      <trkpt lat="43.30316" lon="5.68203">
        <ele>742</ele>
        <time>2019-11-29T10:17:29.000Z</time>
      </trkpt>
      <trkpt lat="43.30316" lon="5.68203">
        <ele>742</ele>
        <time>2019-11-29T10:17:30.000Z</time>
      </trkpt>
      <trkpt lat="43.30316" lon="5.68203">
        <ele>742</ele>
        <time>2019-11-29T10:17:31.000Z</time>
      </trkpt>
      <trkpt lat="43.30316" lon="5.68203">
        <ele>742</ele>
        <time>2019-11-29T10:17:32.000Z</time>
      </trkpt>
      <trkpt lat="43.30317" lon="5.68203">
        <ele>742</ele>
        <time>2019-11-29T10:17:33.000Z</time>
      </trkpt>
      <trkpt lat="43.30317" lon="5.68203">
        <ele>742</ele>
        <time>2019-11-29T10:17:34.000Z</time>
      </trkpt>
      <trkpt lat="43.30317" lon="5.68203">
        <ele>742</ele>
        <time>2019-11-29T10:17:35.000Z</time>
      </trkpt>
      <trkpt lat="43.30317" lon="5.68203">
        <ele>742</ele>
        <time>2019-11-29T10:17:36.000Z</time>
      </trkpt>
      <trkpt lat="43.30318" lon="5.68203">
        <ele>742</ele>
        <time>2019-11-29T10:17:37.000Z</time>
      </trkpt>
      <trkpt lat="43.30318" lon="5.68203">
        <ele>742</ele>
        <time>2019-11-29T10:17:38.000Z</time>
      </trkpt>
      <trkpt lat="43.30318" lon="5.68202">
        <ele>742</ele>
        <time>2019-11-29T10:17:39.000Z</time>
      </trkpt>
      <trkpt lat="43.30318" lon="5.68202">
        <ele>742</ele>
        <time>2019-11-29T10:17:40.000Z</time>
      </trkpt>
      <trkpt lat="43.30318" lon="5.68202">
        <ele>742</ele>
        <time>2019-11-29T10:17:41.000Z</time>
      </trkpt>
      <trkpt lat="43.30318" lon="5.68202">
        <ele>742</ele>
        <time>2019-11-29T10:17:42.000Z</time>
      </trkpt>
      <trkpt lat="43.30318" lon="5.68202">
        <ele>742</ele>
        <time>2019-11-29T10:17:43.000Z</time>
      </trkpt>
      <trkpt lat="43.30318" lon="5.68201">
        <ele>742</ele>
        <time>2019-11-29T10:17:44.000Z</time>
      </trkpt>
      <trkpt lat="43.30319" lon="5.682">
        <ele>742</ele>
        <time>2019-11-29T10:17:45.000Z</time>
      </trkpt>
      <trkpt lat="43.30319" lon="5.68199">
        <ele>742</ele>
        <time>2019-11-29T10:17:46.000Z</time>
      </trkpt>
      <trkpt lat="43.30319" lon="5.68199">
        <ele>741</ele>
        <time>2019-11-29T10:17:47.000Z</time>
      </trkpt>
      <trkpt lat="43.3032" lon="5.68198">
        <ele>741</ele>
        <time>2019-11-29T10:17:48.000Z</time>
      </trkpt>
      <trkpt lat="43.3032" lon="5.68198">
        <ele>741</ele>
        <time>2019-11-29T10:17:49.000Z</time>
      </trkpt>
      <trkpt lat="43.3032" lon="5.68197">
        <ele>741</ele>
        <time>2019-11-29T10:17:50.000Z</time>
      </trkpt>
      <trkpt lat="43.3032" lon="5.68196">
        <ele>741</ele>
        <time>2019-11-29T10:17:51.000Z</time>
      </trkpt>
      <trkpt lat="43.3032" lon="5.68196">
        <ele>741</ele>
        <time>2019-11-29T10:17:52.000Z</time>
      </trkpt>
      <trkpt lat="43.3032" lon="5.68196">
        <ele>741</ele>
        <time>2019-11-29T10:17:53.000Z</time>
      </trkpt>
      <trkpt lat="43.3032" lon="5.68196">
        <ele>741</ele>
        <time>2019-11-29T10:17:54.000Z</time>
      </trkpt>
      <trkpt lat="43.3032" lon="5.68196">
        <ele>741</ele>
        <time>2019-11-29T10:17:55.000Z</time>
      </trkpt>
      <trkpt lat="43.3032" lon="5.68196">
        <ele>741</ele>
        <time>2019-11-29T10:17:56.000Z</time>
      </trkpt>
      <trkpt lat="43.3032" lon="5.68196">
        <ele>741</ele>
        <time>2019-11-29T10:17:57.000Z</time>
      </trkpt>
      <trkpt lat="43.3032" lon="5.68196">
        <ele>741</ele>
        <time>2019-11-29T10:17:58.000Z</time>
      </trkpt>
      <trkpt lat="43.3032" lon="5.68195">
        <ele>741</ele>
        <time>2019-11-29T10:17:59.000Z</time>
      </trkpt>
      <trkpt lat="43.3032" lon="5.68195">
        <ele>741</ele>
        <time>2019-11-29T10:18:00.000Z</time>
      </trkpt>
      <trkpt lat="43.30321" lon="5.68195">
        <ele>741</ele>
        <time>2019-11-29T10:18:01.000Z</time>
      </trkpt>
      <trkpt lat="43.30321" lon="5.68194">
        <ele>741</ele>
        <time>2019-11-29T10:18:02.000Z</time>
      </trkpt>
      <trkpt lat="43.30321" lon="5.68194">
        <ele>741</ele>
        <time>2019-11-29T10:18:03.000Z</time>
      </trkpt>
      <trkpt lat="43.30322" lon="5.68194">
        <ele>741</ele>
        <time>2019-11-29T10:18:04.000Z</time>
      </trkpt>
      <trkpt lat="43.30322" lon="5.68194">
        <ele>741</ele>
        <time>2019-11-29T10:18:05.000Z</time>
      </trkpt>
      <trkpt lat="43.30322" lon="5.68193">
        <ele>741</ele>
        <time>2019-11-29T10:18:06.000Z</time>
      </trkpt>
      <trkpt lat="43.30322" lon="5.68193">
        <ele>740</ele>
        <time>2019-11-29T10:18:07.000Z</time>
      </trkpt>
      <trkpt lat="43.30322" lon="5.68193">
        <ele>740</ele>
        <time>2019-11-29T10:18:08.000Z</time>
      </trkpt>
      <trkpt lat="43.30323" lon="5.68192">
        <ele>740</ele>
        <time>2019-11-29T10:18:09.000Z</time>
      </trkpt>
      <trkpt lat="43.30323" lon="5.68192">
        <ele>740</ele>
        <time>2019-11-29T10:18:10.000Z</time>
      </trkpt>
      <trkpt lat="43.30323" lon="5.68192">
        <ele>740</ele>
        <time>2019-11-29T10:18:11.000Z</time>
      </trkpt>
      <trkpt lat="43.30323" lon="5.68191">
        <ele>740</ele>
        <time>2019-11-29T10:18:12.000Z</time>
      </trkpt>
      <trkpt lat="43.30324" lon="5.6819">
        <ele>740</ele>
        <time>2019-11-29T10:18:13.000Z</time>
      </trkpt>
      <trkpt lat="43.30324" lon="5.6819">
        <ele>740</ele>
        <time>2019-11-29T10:18:14.000Z</time>
      </trkpt>
      <trkpt lat="43.30324" lon="5.6819">
        <ele>740</ele>
        <time>2019-11-29T10:18:15.000Z</time>
      </trkpt>
      <trkpt lat="43.30324" lon="5.6819">
        <ele>740</ele>
        <time>2019-11-29T10:18:16.000Z</time>
      </trkpt>
      <trkpt lat="43.30324" lon="5.6819">
        <ele>740</ele>
        <time>2019-11-29T10:18:17.000Z</time>
      </trkpt>
      <trkpt lat="43.30324" lon="5.6819">
        <ele>740</ele>
        <time>2019-11-29T10:18:18.000Z</time>
      </trkpt>
      <trkpt lat="43.30324" lon="5.68189">
        <ele>739</ele>
        <time>2019-11-29T10:18:19.000Z</time>
      </trkpt>
      <trkpt lat="43.30324" lon="5.68189">
        <ele>739</ele>
        <time>2019-11-29T10:18:20.000Z</time>
      </trkpt>
      <trkpt lat="43.30324" lon="5.68188">
        <ele>739</ele>
        <time>2019-11-29T10:18:21.000Z</time>
      </trkpt>
      <trkpt lat="43.30324" lon="5.68187">
        <ele>739</ele>
        <time>2019-11-29T10:18:22.000Z</time>
      </trkpt>
      <trkpt lat="43.30324" lon="5.68186">
        <ele>739</ele>
        <time>2019-11-29T10:18:23.000Z</time>
      </trkpt>
      <trkpt lat="43.30325" lon="5.68185">
        <ele>739</ele>
        <time>2019-11-29T10:18:24.000Z</time>
      </trkpt>
      <trkpt lat="43.30325" lon="5.68183">
        <ele>739</ele>
        <time>2019-11-29T10:18:25.000Z</time>
      </trkpt>
      <trkpt lat="43.30325" lon="5.68182">
        <ele>739</ele>
        <time>2019-11-29T10:18:26.000Z</time>
      </trkpt>
      <trkpt lat="43.30325" lon="5.68182">
        <ele>739</ele>
        <time>2019-11-29T10:18:27.000Z</time>
      </trkpt>
      <trkpt lat="43.30326" lon="5.68181">
        <ele>739</ele>
        <time>2019-11-29T10:18:28.000Z</time>
      </trkpt>
      <trkpt lat="43.30326" lon="5.68181">
        <ele>739</ele>
        <time>2019-11-29T10:18:29.000Z</time>
      </trkpt>
      <trkpt lat="43.30326" lon="5.68181">
        <ele>738</ele>
        <time>2019-11-29T10:18:30.000Z</time>
      </trkpt>
      <trkpt lat="43.30326" lon="5.68181">
        <ele>738</ele>
        <time>2019-11-29T10:18:31.000Z</time>
      </trkpt>
      <trkpt lat="43.30326" lon="5.68181">
        <ele>738</ele>
        <time>2019-11-29T10:18:32.000Z</time>
      </trkpt>
      <trkpt lat="43.30326" lon="5.68181">
        <ele>738</ele>
        <time>2019-11-29T10:18:33.000Z</time>
      </trkpt>
      <trkpt lat="43.30327" lon="5.68181">
        <ele>738</ele>
        <time>2019-11-29T10:18:34.000Z</time>
      </trkpt>
      <trkpt lat="43.30328" lon="5.68181">
        <ele>738</ele>
        <time>2019-11-29T10:18:35.000Z</time>
      </trkpt>
      <trkpt lat="43.30328" lon="5.68181">
        <ele>738</ele>
        <time>2019-11-29T10:18:36.000Z</time>
      </trkpt>
      <trkpt lat="43.30329" lon="5.68181">
        <ele>738</ele>
        <time>2019-11-29T10:18:37.000Z</time>
      </trkpt>
      <trkpt lat="43.3033" lon="5.6818">
        <ele>738</ele>
        <time>2019-11-29T10:18:38.000Z</time>
      </trkpt>
      <trkpt lat="43.30331" lon="5.6818">
        <ele>738</ele>
        <time>2019-11-29T10:18:39.000Z</time>
      </trkpt>
      <trkpt lat="43.30332" lon="5.68179">
        <ele>738</ele>
        <time>2019-11-29T10:18:40.000Z</time>
      </trkpt>
      <trkpt lat="43.30333" lon="5.68179">
        <ele>738</ele>
        <time>2019-11-29T10:18:41.000Z</time>
      </trkpt>
      <trkpt lat="43.30334" lon="5.68179">
        <ele>738</ele>
        <time>2019-11-29T10:18:42.000Z</time>
      </trkpt>
      <trkpt lat="43.30334" lon="5.68179">
        <ele>738</ele>
        <time>2019-11-29T10:18:43.000Z</time>
      </trkpt>
      <trkpt lat="43.30334" lon="5.68179">
        <ele>738</ele>
        <time>2019-11-29T10:18:44.000Z</time>
      </trkpt>
      <trkpt lat="43.30334" lon="5.68179">
        <ele>738</ele>
        <time>2019-11-29T10:18:45.000Z</time>
      </trkpt>
      <trkpt lat="43.30335" lon="5.68179">
        <ele>738</ele>
        <time>2019-11-29T10:18:46.000Z</time>
      </trkpt>
      <trkpt lat="43.30335" lon="5.68179">
        <ele>738</ele>
        <time>2019-11-29T10:18:47.000Z</time>
      </trkpt>
      <trkpt lat="43.30335" lon="5.68179">
        <ele>738</ele>
        <time>2019-11-29T10:18:48.000Z</time>
      </trkpt>
      <trkpt lat="43.30334" lon="5.6818">
        <ele>738</ele>
        <time>2019-11-29T10:18:49.000Z</time>
      </trkpt>
      <trkpt lat="43.30334" lon="5.6818">
        <ele>738</ele>
        <time>2019-11-29T10:18:50.000Z</time>
      </trkpt>
      <trkpt lat="43.30335" lon="5.6818">
        <ele>738</ele>
        <time>2019-11-29T10:18:51.000Z</time>
      </trkpt>
      <trkpt lat="43.30335" lon="5.6818">
        <ele>738</ele>
        <time>2019-11-29T10:18:52.000Z</time>
      </trkpt>
      <trkpt lat="43.30334" lon="5.6818">
        <ele>738</ele>
        <time>2019-11-29T10:18:53.000Z</time>
      </trkpt>
      <trkpt lat="43.30334" lon="5.68181">
        <ele>738</ele>
        <time>2019-11-29T10:18:54.000Z</time>
      </trkpt>
      <trkpt lat="43.30334" lon="5.68183">
        <ele>738</ele>
        <time>2019-11-29T10:18:55.000Z</time>
      </trkpt>
      <trkpt lat="43.30333" lon="5.68184">
        <ele>738</ele>
        <time>2019-11-29T10:18:56.000Z</time>
      </trkpt>
      <trkpt lat="43.30333" lon="5.68184">
        <ele>738</ele>
        <time>2019-11-29T10:18:57.000Z</time>
      </trkpt>
      <trkpt lat="43.30332" lon="5.68185">
        <ele>738</ele>
        <time>2019-11-29T10:18:58.000Z</time>
      </trkpt>
      <trkpt lat="43.30331" lon="5.68185">
        <ele>738</ele>
        <time>2019-11-29T10:18:59.000Z</time>
      </trkpt>
      <trkpt lat="43.3033" lon="5.68185">
        <ele>737</ele>
        <time>2019-11-29T10:19:00.000Z</time>
      </trkpt>
      <trkpt lat="43.30329" lon="5.68185">
        <ele>737</ele>
        <time>2019-11-29T10:19:01.000Z</time>
      </trkpt>
      <trkpt lat="43.30328" lon="5.68185">
        <ele>737</ele>
        <time>2019-11-29T10:19:02.000Z</time>
      </trkpt>
      <trkpt lat="43.30328" lon="5.68185">
        <ele>737</ele>
        <time>2019-11-29T10:19:03.000Z</time>
      </trkpt>
      <trkpt lat="43.30327" lon="5.68185">
        <ele>737</ele>
        <time>2019-11-29T10:19:04.000Z</time>
      </trkpt>
      <trkpt lat="43.30327" lon="5.68187">
        <ele>737</ele>
        <time>2019-11-29T10:19:05.000Z</time>
      </trkpt>
      <trkpt lat="43.30326" lon="5.68188">
        <ele>737</ele>
        <time>2019-11-29T10:19:06.000Z</time>
      </trkpt>
      <trkpt lat="43.30326" lon="5.68189">
        <ele>737</ele>
        <time>2019-11-29T10:19:07.000Z</time>
      </trkpt>
      <trkpt lat="43.30325" lon="5.68189">
        <ele>737</ele>
        <time>2019-11-29T10:19:08.000Z</time>
      </trkpt>
      <trkpt lat="43.30325" lon="5.6819">
        <ele>737</ele>
        <time>2019-11-29T10:19:09.000Z</time>
      </trkpt>
      <trkpt lat="43.30325" lon="5.68191">
        <ele>738</ele>
        <time>2019-11-29T10:19:10.000Z</time>
      </trkpt>
      <trkpt lat="43.30324" lon="5.68192">
        <ele>738</ele>
        <time>2019-11-29T10:19:11.000Z</time>
      </trkpt>
      <trkpt lat="43.30324" lon="5.68192">
        <ele>738</ele>
        <time>2019-11-29T10:19:12.000Z</time>
      </trkpt>
      <trkpt lat="43.30323" lon="5.68193">
        <ele>738</ele>
        <time>2019-11-29T10:19:13.000Z</time>
      </trkpt>
      <trkpt lat="43.30323" lon="5.68194">
        <ele>738</ele>
        <time>2019-11-29T10:19:14.000Z</time>
      </trkpt>
      <trkpt lat="43.30322" lon="5.68194">
        <ele>738</ele>
        <time>2019-11-29T10:19:15.000Z</time>
      </trkpt>
      <trkpt lat="43.30322" lon="5.68194">
        <ele>738</ele>
        <time>2019-11-29T10:19:16.000Z</time>
      </trkpt>
      <trkpt lat="43.30322" lon="5.68195">
        <ele>739</ele>
        <time>2019-11-29T10:19:17.000Z</time>
      </trkpt>
      <trkpt lat="43.30322" lon="5.68195">
        <ele>739</ele>
        <time>2019-11-29T10:19:18.000Z</time>
      </trkpt>
      <trkpt lat="43.30322" lon="5.68196">
        <ele>739</ele>
        <time>2019-11-29T10:19:19.000Z</time>
      </trkpt>
      <trkpt lat="43.30322" lon="5.68197">
        <ele>739</ele>
        <time>2019-11-29T10:19:20.000Z</time>
      </trkpt>
      <trkpt lat="43.30322" lon="5.68198">
        <ele>739</ele>
        <time>2019-11-29T10:19:21.000Z</time>
      </trkpt>
      <trkpt lat="43.30322" lon="5.68198">
        <ele>739</ele>
        <time>2019-11-29T10:19:22.000Z</time>
      </trkpt>
      <trkpt lat="43.30322" lon="5.68199">
        <ele>739</ele>
        <time>2019-11-29T10:19:23.000Z</time>
      </trkpt>
      <trkpt lat="43.30321" lon="5.682">
        <ele>739</ele>
        <time>2019-11-29T10:19:24.000Z</time>
      </trkpt>
      <trkpt lat="43.30321" lon="5.68201">
        <ele>739</ele>
        <time>2019-11-29T10:19:25.000Z</time>
      </trkpt>
      <trkpt lat="43.30321" lon="5.68202">
        <ele>739</ele>
        <time>2019-11-29T10:19:26.000Z</time>
      </trkpt>
      <trkpt lat="43.3032" lon="5.68202">
        <ele>739</ele>
        <time>2019-11-29T10:19:27.000Z</time>
      </trkpt>
      <trkpt lat="43.3032" lon="5.68202">
        <ele>739</ele>
        <time>2019-11-29T10:19:28.000Z</time>
      </trkpt>
      <trkpt lat="43.3032" lon="5.68203">
        <ele>739</ele>
        <time>2019-11-29T10:19:29.000Z</time>
      </trkpt>
      <trkpt lat="43.3032" lon="5.68203">
        <ele>740</ele>
        <time>2019-11-29T10:19:30.000Z</time>
      </trkpt>
      <trkpt lat="43.30319" lon="5.68204">
        <ele>740</ele>
        <time>2019-11-29T10:19:31.000Z</time>
      </trkpt>
      <trkpt lat="43.30319" lon="5.68204">
        <ele>740</ele>
        <time>2019-11-29T10:19:32.000Z</time>
      </trkpt>
      <trkpt lat="43.30319" lon="5.68204">
        <ele>740</ele>
        <time>2019-11-29T10:19:33.000Z</time>
      </trkpt>
      <trkpt lat="43.30319" lon="5.68205">
        <ele>740</ele>
        <time>2019-11-29T10:19:34.000Z</time>
      </trkpt>
      <trkpt lat="43.30318" lon="5.68205">
        <ele>740</ele>
        <time>2019-11-29T10:19:35.000Z</time>
      </trkpt>
      <trkpt lat="43.30318" lon="5.68205">
        <ele>740</ele>
        <time>2019-11-29T10:19:36.000Z</time>
      </trkpt>
      <trkpt lat="43.30318" lon="5.68205">
        <ele>740</ele>
        <time>2019-11-29T10:19:37.000Z</time>
      </trkpt>
      <trkpt lat="43.30317" lon="5.68205">
        <ele>740</ele>
        <time>2019-11-29T10:19:38.000Z</time>
      </trkpt>
      <trkpt lat="43.30317" lon="5.68205">
        <ele>740</ele>
        <time>2019-11-29T10:19:39.000Z</time>
      </trkpt>
      <trkpt lat="43.30316" lon="5.68206">
        <ele>740</ele>
        <time>2019-11-29T10:19:40.000Z</time>
      </trkpt>
      <trkpt lat="43.30316" lon="5.68206">
        <ele>740</ele>
        <time>2019-11-29T10:19:41.000Z</time>
      </trkpt>
      <trkpt lat="43.30316" lon="5.68207">
        <ele>741</ele>
        <time>2019-11-29T10:19:42.000Z</time>
      </trkpt>
      <trkpt lat="43.30316" lon="5.68207">
        <ele>741</ele>
        <time>2019-11-29T10:19:43.000Z</time>
      </trkpt>
      <trkpt lat="43.30315" lon="5.68209">
        <ele>741</ele>
        <time>2019-11-29T10:19:44.000Z</time>
      </trkpt>
      <trkpt lat="43.30315" lon="5.6821">
        <ele>741</ele>
        <time>2019-11-29T10:19:45.000Z</time>
      </trkpt>
      <trkpt lat="43.30315" lon="5.68211">
        <ele>741</ele>
        <time>2019-11-29T10:19:46.000Z</time>
      </trkpt>
      <trkpt lat="43.30314" lon="5.68212">
        <ele>742</ele>
        <time>2019-11-29T10:19:47.000Z</time>
      </trkpt>
      <trkpt lat="43.30314" lon="5.68213">
        <ele>742</ele>
        <time>2019-11-29T10:19:48.000Z</time>
      </trkpt>
      <trkpt lat="43.30314" lon="5.68214">
        <ele>742</ele>
        <time>2019-11-29T10:19:49.000Z</time>
      </trkpt>
      <trkpt lat="43.30314" lon="5.68216">
        <ele>742</ele>
        <time>2019-11-29T10:19:50.000Z</time>
      </trkpt>
      <trkpt lat="43.30314" lon="5.68217">
        <ele>742</ele>
        <time>2019-11-29T10:19:51.000Z</time>
      </trkpt>
      <trkpt lat="43.30313" lon="5.68217">
        <ele>743</ele>
        <time>2019-11-29T10:19:52.000Z</time>
      </trkpt>
      <trkpt lat="43.30313" lon="5.68219">
        <ele>743</ele>
        <time>2019-11-29T10:19:53.000Z</time>
      </trkpt>
      <trkpt lat="43.30313" lon="5.6822">
        <ele>743</ele>
        <time>2019-11-29T10:19:54.000Z</time>
      </trkpt>
      <trkpt lat="43.30312" lon="5.68221">
        <ele>743</ele>
        <time>2019-11-29T10:19:55.000Z</time>
      </trkpt>
      <trkpt lat="43.30312" lon="5.68222">
        <ele>743</ele>
        <time>2019-11-29T10:19:56.000Z</time>
      </trkpt>
      <trkpt lat="43.30311" lon="5.68223">
        <ele>743</ele>
        <time>2019-11-29T10:19:57.000Z</time>
      </trkpt>
      <trkpt lat="43.30311" lon="5.68224">
        <ele>743</ele>
        <time>2019-11-29T10:19:58.000Z</time>
      </trkpt>
      <trkpt lat="43.3031" lon="5.68224">
        <ele>743</ele>
        <time>2019-11-29T10:19:59.000Z</time>
      </trkpt>
      <trkpt lat="43.3031" lon="5.68225">
        <ele>743</ele>
        <time>2019-11-29T10:20:00.000Z</time>
      </trkpt>
      <trkpt lat="43.3031" lon="5.68226">
        <ele>743</ele>
        <time>2019-11-29T10:20:01.000Z</time>
      </trkpt>
      <trkpt lat="43.30309" lon="5.68227">
        <ele>743</ele>
        <time>2019-11-29T10:20:02.000Z</time>
      </trkpt>
      <trkpt lat="43.30309" lon="5.68228">
        <ele>744</ele>
        <time>2019-11-29T10:20:03.000Z</time>
      </trkpt>
      <trkpt lat="43.30308" lon="5.68228">
        <ele>744</ele>
        <time>2019-11-29T10:20:04.000Z</time>
      </trkpt>
      <trkpt lat="43.30307" lon="5.68229">
        <ele>744</ele>
        <time>2019-11-29T10:20:05.000Z</time>
      </trkpt>
      <trkpt lat="43.30307" lon="5.6823">
        <ele>744</ele>
        <time>2019-11-29T10:20:06.000Z</time>
      </trkpt>
      <trkpt lat="43.30307" lon="5.6823">
        <ele>744</ele>
        <time>2019-11-29T10:20:07.000Z</time>
      </trkpt>
      <trkpt lat="43.30307" lon="5.68231">
        <ele>744</ele>
        <time>2019-11-29T10:20:08.000Z</time>
      </trkpt>
      <trkpt lat="43.30307" lon="5.68232">
        <ele>744</ele>
        <time>2019-11-29T10:20:09.000Z</time>
      </trkpt>
      <trkpt lat="43.30307" lon="5.68232">
        <ele>744</ele>
        <time>2019-11-29T10:20:10.000Z</time>
      </trkpt>
      <trkpt lat="43.30307" lon="5.68232">
        <ele>745</ele>
        <time>2019-11-29T10:20:11.000Z</time>
      </trkpt>
      <trkpt lat="43.30307" lon="5.68232">
        <ele>745</ele>
        <time>2019-11-29T10:20:12.000Z</time>
      </trkpt>
      <trkpt lat="43.30307" lon="5.68232">
        <ele>745</ele>
        <time>2019-11-29T10:20:13.000Z</time>
      </trkpt>
      <trkpt lat="43.30307" lon="5.68232">
        <ele>745</ele>
        <time>2019-11-29T10:20:14.000Z</time>
      </trkpt>
      <trkpt lat="43.30307" lon="5.68232">
        <ele>745</ele>
        <time>2019-11-29T10:20:15.000Z</time>
      </trkpt>
      <trkpt lat="43.30307" lon="5.68232">
        <ele>745</ele>
        <time>2019-11-29T10:20:16.000Z</time>
      </trkpt>
      <trkpt lat="43.30306" lon="5.68233">
        <ele>745</ele>
        <time>2019-11-29T10:20:17.000Z</time>
      </trkpt>
      <trkpt lat="43.30306" lon="5.68234">
        <ele>745</ele>
        <time>2019-11-29T10:20:18.000Z</time>
      </trkpt>
      <trkpt lat="43.30305" lon="5.68234">
        <ele>745</ele>
        <time>2019-11-29T10:20:19.000Z</time>
      </trkpt>
      <trkpt lat="43.30305" lon="5.68235">
        <ele>745</ele>
        <time>2019-11-29T10:20:20.000Z</time>
      </trkpt>
      <trkpt lat="43.30305" lon="5.68236">
        <ele>745</ele>
        <time>2019-11-29T10:20:21.000Z</time>
      </trkpt>
      <trkpt lat="43.30305" lon="5.68237">
        <ele>745</ele>
        <time>2019-11-29T10:20:22.000Z</time>
      </trkpt>
      <trkpt lat="43.30305" lon="5.68238">
        <ele>745</ele>
        <time>2019-11-29T10:20:23.000Z</time>
      </trkpt>
      <trkpt lat="43.30305" lon="5.68238">
        <ele>745</ele>
        <time>2019-11-29T10:20:24.000Z</time>
      </trkpt>
      <trkpt lat="43.30305" lon="5.68239">
        <ele>746</ele>
        <time>2019-11-29T10:20:25.000Z</time>
      </trkpt>
      <trkpt lat="43.30305" lon="5.6824">
        <ele>746</ele>
        <time>2019-11-29T10:20:26.000Z</time>
      </trkpt>
      <trkpt lat="43.30305" lon="5.68241">
        <ele>746</ele>
        <time>2019-11-29T10:20:27.000Z</time>
      </trkpt>
      <trkpt lat="43.30304" lon="5.68242">
        <ele>746</ele>
        <time>2019-11-29T10:20:28.000Z</time>
      </trkpt>
      <trkpt lat="43.30304" lon="5.68243">
        <ele>746</ele>
        <time>2019-11-29T10:20:29.000Z</time>
      </trkpt>
      <trkpt lat="43.30304" lon="5.68243">
        <ele>746</ele>
        <time>2019-11-29T10:20:30.000Z</time>
      </trkpt>
      <trkpt lat="43.30304" lon="5.68243">
        <ele>746</ele>
        <time>2019-11-29T10:20:31.000Z</time>
      </trkpt>
      <trkpt lat="43.30304" lon="5.68243">
        <ele>746</ele>
        <time>2019-11-29T10:20:32.000Z</time>
      </trkpt>
      <trkpt lat="43.30304" lon="5.68244">
        <ele>746</ele>
        <time>2019-11-29T10:20:33.000Z</time>
      </trkpt>
      <trkpt lat="43.30304" lon="5.68244">
        <ele>747</ele>
        <time>2019-11-29T10:20:34.000Z</time>
      </trkpt>
      <trkpt lat="43.30304" lon="5.68243">
        <ele>747</ele>
        <time>2019-11-29T10:20:35.000Z</time>
      </trkpt>
      <trkpt lat="43.30303" lon="5.68244">
        <ele>747</ele>
        <time>2019-11-29T10:20:36.000Z</time>
      </trkpt>
      <trkpt lat="43.30303" lon="5.68245">
        <ele>747</ele>
        <time>2019-11-29T10:20:37.000Z</time>
      </trkpt>
      <trkpt lat="43.30303" lon="5.68246">
        <ele>747</ele>
        <time>2019-11-29T10:20:38.000Z</time>
      </trkpt>
      <trkpt lat="43.30303" lon="5.68247">
        <ele>747</ele>
        <time>2019-11-29T10:20:39.000Z</time>
      </trkpt>
      <trkpt lat="43.30303" lon="5.68248">
        <ele>747</ele>
        <time>2019-11-29T10:20:40.000Z</time>
      </trkpt>
      <trkpt lat="43.30303" lon="5.68249">
        <ele>747</ele>
        <time>2019-11-29T10:20:41.000Z</time>
      </trkpt>
      <trkpt lat="43.30303" lon="5.68249">
        <ele>747</ele>
        <time>2019-11-29T10:20:42.000Z</time>
      </trkpt>
      <trkpt lat="43.30303" lon="5.6825">
        <ele>747</ele>
        <time>2019-11-29T10:20:43.000Z</time>
      </trkpt>
      <trkpt lat="43.30303" lon="5.68251">
        <ele>748</ele>
        <time>2019-11-29T10:20:44.000Z</time>
      </trkpt>
      <trkpt lat="43.30303" lon="5.68252">
        <ele>748</ele>
        <time>2019-11-29T10:20:45.000Z</time>
      </trkpt>
      <trkpt lat="43.30302" lon="5.68253">
        <ele>748</ele>
        <time>2019-11-29T10:20:46.000Z</time>
      </trkpt>
      <trkpt lat="43.30302" lon="5.68254">
        <ele>748</ele>
        <time>2019-11-29T10:20:47.000Z</time>
      </trkpt>
      <trkpt lat="43.30302" lon="5.68254">
        <ele>748</ele>
        <time>2019-11-29T10:20:48.000Z</time>
      </trkpt>
      <trkpt lat="43.30302" lon="5.68254">
        <ele>748</ele>
        <time>2019-11-29T10:20:49.000Z</time>
      </trkpt>
      <trkpt lat="43.30302" lon="5.68255">
        <ele>748</ele>
        <time>2019-11-29T10:20:50.000Z</time>
      </trkpt>
      <trkpt lat="43.30302" lon="5.68255">
        <ele>748</ele>
        <time>2019-11-29T10:20:51.000Z</time>
      </trkpt>
      <trkpt lat="43.30302" lon="5.68255">
        <ele>748</ele>
        <time>2019-11-29T10:20:52.000Z</time>
      </trkpt>
      <trkpt lat="43.30302" lon="5.68255">
        <ele>748</ele>
        <time>2019-11-29T10:20:53.000Z</time>
      </trkpt>
      <trkpt lat="43.30302" lon="5.68255">
        <ele>748</ele>
        <time>2019-11-29T10:20:54.000Z</time>
      </trkpt>
      <trkpt lat="43.30302" lon="5.68255">
        <ele>748</ele>
        <time>2019-11-29T10:20:55.000Z</time>
      </trkpt>
      <trkpt lat="43.30302" lon="5.68255">
        <ele>748</ele>
        <time>2019-11-29T10:20:56.000Z</time>
      </trkpt>
      <trkpt lat="43.30302" lon="5.68254">
        <ele>748</ele>
        <time>2019-11-29T10:20:57.000Z</time>
      </trkpt>
      <trkpt lat="43.30302" lon="5.68254">
        <ele>748</ele>
        <time>2019-11-29T10:20:58.000Z</time>
      </trkpt>
      <trkpt lat="43.30302" lon="5.68254">
        <ele>748</ele>
        <time>2019-11-29T10:20:59.000Z</time>
      </trkpt>
      <trkpt lat="43.30302" lon="5.68255">
        <ele>748</ele>
        <time>2019-11-29T10:21:00.000Z</time>
      </trkpt>
      <trkpt lat="43.30302" lon="5.68256">
        <ele>748</ele>
        <time>2019-11-29T10:21:01.000Z</time>
      </trkpt>
      <trkpt lat="43.30302" lon="5.68256">
        <ele>748</ele>
        <time>2019-11-29T10:21:02.000Z</time>
      </trkpt>
      <trkpt lat="43.30302" lon="5.68257">
        <ele>749</ele>
        <time>2019-11-29T10:21:03.000Z</time>
      </trkpt>
      <trkpt lat="43.30301" lon="5.68258">
        <ele>749</ele>
        <time>2019-11-29T10:21:04.000Z</time>
      </trkpt>
      <trkpt lat="43.30301" lon="5.68259">
        <ele>749</ele>
        <time>2019-11-29T10:21:05.000Z</time>
      </trkpt>
      <trkpt lat="43.30301" lon="5.6826">
        <ele>749</ele>
        <time>2019-11-29T10:21:06.000Z</time>
      </trkpt>
      <trkpt lat="43.30301" lon="5.6826">
        <ele>749</ele>
        <time>2019-11-29T10:21:07.000Z</time>
      </trkpt>
      <trkpt lat="43.30301" lon="5.6826">
        <ele>749</ele>
        <time>2019-11-29T10:21:08.000Z</time>
      </trkpt>
      <trkpt lat="43.30301" lon="5.68261">
        <ele>749</ele>
        <time>2019-11-29T10:21:09.000Z</time>
      </trkpt>
      <trkpt lat="43.30301" lon="5.68261">
        <ele>749</ele>
        <time>2019-11-29T10:21:10.000Z</time>
      </trkpt>
      <trkpt lat="43.30301" lon="5.68261">
        <ele>749</ele>
        <time>2019-11-29T10:21:11.000Z</time>
      </trkpt>
      <trkpt lat="43.30301" lon="5.68261">
        <ele>749</ele>
        <time>2019-11-29T10:21:12.000Z</time>
      </trkpt>
      <trkpt lat="43.30301" lon="5.68261">
        <ele>749</ele>
        <time>2019-11-29T10:21:13.000Z</time>
      </trkpt>
      <trkpt lat="43.30301" lon="5.68261">
        <ele>749</ele>
        <time>2019-11-29T10:21:14.000Z</time>
      </trkpt>
      <trkpt lat="43.30301" lon="5.6826">
        <ele>749</ele>
        <time>2019-11-29T10:21:15.000Z</time>
      </trkpt>
      <trkpt lat="43.30301" lon="5.68261">
        <ele>749</ele>
        <time>2019-11-29T10:21:16.000Z</time>
      </trkpt>
      <trkpt lat="43.30301" lon="5.68261">
        <ele>749</ele>
        <time>2019-11-29T10:21:17.000Z</time>
      </trkpt>
      <trkpt lat="43.30301" lon="5.68261">
        <ele>749</ele>
        <time>2019-11-29T10:21:18.000Z</time>
      </trkpt>
      <trkpt lat="43.30301" lon="5.68261">
        <ele>749</ele>
        <time>2019-11-29T10:21:19.000Z</time>
      </trkpt>
      <trkpt lat="43.30301" lon="5.68261">
        <ele>749</ele>
        <time>2019-11-29T10:21:20.000Z</time>
      </trkpt>
      <trkpt lat="43.30301" lon="5.68261">
        <ele>749</ele>
        <time>2019-11-29T10:21:21.000Z</time>
      </trkpt>
      <trkpt lat="43.30301" lon="5.68261">
        <ele>750</ele>
        <time>2019-11-29T10:21:22.000Z</time>
      </trkpt>
      <trkpt lat="43.30301" lon="5.68261">
        <ele>750</ele>
        <time>2019-11-29T10:21:23.000Z</time>
      </trkpt>
      <trkpt lat="43.30301" lon="5.68261">
        <ele>750</ele>
        <time>2019-11-29T10:21:24.000Z</time>
      </trkpt>
      <trkpt lat="43.30301" lon="5.68261">
        <ele>750</ele>
        <time>2019-11-29T10:21:25.000Z</time>
      </trkpt>
      <trkpt lat="43.30301" lon="5.68261">
        <ele>750</ele>
        <time>2019-11-29T10:21:26.000Z</time>
      </trkpt>
      <trkpt lat="43.30301" lon="5.68261">
        <ele>750</ele>
        <time>2019-11-29T10:21:27.000Z</time>
      </trkpt>
      <trkpt lat="43.30301" lon="5.68261">
        <ele>750</ele>
        <time>2019-11-29T10:21:28.000Z</time>
      </trkpt>
      <trkpt lat="43.30301" lon="5.68261">
        <ele>750</ele>
        <time>2019-11-29T10:21:29.000Z</time>
      </trkpt>
      <trkpt lat="43.30301" lon="5.68261">
        <ele>750</ele>
        <time>2019-11-29T10:21:30.000Z</time>
      </trkpt>
      <trkpt lat="43.30301" lon="5.68261">
        <ele>750</ele>
        <time>2019-11-29T10:21:31.000Z</time>
      </trkpt>
      <trkpt lat="43.30301" lon="5.68261">
        <ele>750</ele>
        <time>2019-11-29T10:21:32.000Z</time>
      </trkpt>
      <trkpt lat="43.30301" lon="5.68261">
        <ele>750</ele>
        <time>2019-11-29T10:21:33.000Z</time>
      </trkpt>
      <trkpt lat="43.30301" lon="5.68261">
        <ele>750</ele>
        <time>2019-11-29T10:21:34.000Z</time>
      </trkpt>
      <trkpt lat="43.30301" lon="5.68261">
        <ele>750</ele>
        <time>2019-11-29T10:21:35.000Z</time>
      </trkpt>
      <trkpt lat="43.30301" lon="5.68261">
        <ele>750</ele>
        <time>2019-11-29T10:21:36.000Z</time>
      </trkpt>
      <trkpt lat="43.30301" lon="5.68261">
        <ele>750</ele>
        <time>2019-11-29T10:21:37.000Z</time>
      </trkpt>
      <trkpt lat="43.30301" lon="5.68261">
        <ele>750</ele>
        <time>2019-11-29T10:21:38.000Z</time>
      </trkpt>
      <trkpt lat="43.30301" lon="5.68261">
        <ele>750</ele>
        <time>2019-11-29T10:21:39.000Z</time>
      </trkpt>
      <trkpt lat="43.30301" lon="5.68261">
        <ele>750</ele>
        <time>2019-11-29T10:21:40.000Z</time>
      </trkpt>
      <trkpt lat="43.30301" lon="5.68261">
        <ele>750</ele>
        <time>2019-11-29T10:21:41.000Z</time>
      </trkpt>
      <trkpt lat="43.30301" lon="5.68261">
        <ele>750</ele>
        <time>2019-11-29T10:21:42.000Z</time>
      </trkpt>
      <trkpt lat="43.30301" lon="5.68261">
        <ele>750</ele>
        <time>2019-11-29T10:21:43.000Z</time>
      </trkpt>
      <trkpt lat="43.30301" lon="5.68261">
        <ele>750</ele>
        <time>2019-11-29T10:21:44.000Z</time>
      </trkpt>
      <trkpt lat="43.30301" lon="5.68261">
        <ele>750</ele>
        <time>2019-11-29T10:21:45.000Z</time>
      </trkpt>
      <trkpt lat="43.30301" lon="5.68261">
        <ele>750</ele>
        <time>2019-11-29T10:21:46.000Z</time>
      </trkpt>
      <trkpt lat="43.30301" lon="5.68261">
        <ele>750</ele>
        <time>2019-11-29T10:21:47.000Z</time>
      </trkpt>
      <trkpt lat="43.30301" lon="5.68261">
        <ele>750</ele>
        <time>2019-11-29T10:21:48.000Z</time>
      </trkpt>
      <trkpt lat="43.30301" lon="5.68261">
        <ele>750</ele>
        <time>2019-11-29T10:21:49.000Z</time>
      </trkpt>
      <trkpt lat="43.303" lon="5.68261">
        <ele>750</ele>
        <time>2019-11-29T10:21:50.000Z</time>
      </trkpt>
      <trkpt lat="43.303" lon="5.6826">
        <ele>750</ele>
        <time>2019-11-29T10:21:51.000Z</time>
      </trkpt>
      <trkpt lat="43.303" lon="5.68261">
        <ele>750</ele>
        <time>2019-11-29T10:21:52.000Z</time>
      </trkpt>
      <trkpt lat="43.303" lon="5.68261">
        <ele>750</ele>
        <time>2019-11-29T10:21:53.000Z</time>
      </trkpt>
      <trkpt lat="43.303" lon="5.68261">
        <ele>750</ele>
        <time>2019-11-29T10:21:54.000Z</time>
      </trkpt>
      <trkpt lat="43.303" lon="5.68261">
        <ele>750</ele>
        <time>2019-11-29T10:21:55.000Z</time>
      </trkpt>
      <trkpt lat="43.303" lon="5.68261">
        <ele>750</ele>
        <time>2019-11-29T10:21:56.000Z</time>
      </trkpt>
      <trkpt lat="43.303" lon="5.68261">
        <ele>750</ele>
        <time>2019-11-29T10:21:57.000Z</time>
      </trkpt>
      <trkpt lat="43.303" lon="5.6826">
        <ele>750</ele>
        <time>2019-11-29T10:21:58.000Z</time>
      </trkpt>
      <trkpt lat="43.303" lon="5.6826">
        <ele>750</ele>
        <time>2019-11-29T10:21:59.000Z</time>
      </trkpt>
      <trkpt lat="43.303" lon="5.6826">
        <ele>750</ele>
        <time>2019-11-29T10:22:00.000Z</time>
      </trkpt>
      <trkpt lat="43.303" lon="5.6826">
        <ele>750</ele>
        <time>2019-11-29T10:22:01.000Z</time>
      </trkpt>
      <trkpt lat="43.303" lon="5.6826">
        <ele>750</ele>
        <time>2019-11-29T10:22:02.000Z</time>
      </trkpt>
      <trkpt lat="43.303" lon="5.6826">
        <ele>750</ele>
        <time>2019-11-29T10:22:03.000Z</time>
      </trkpt>
      <trkpt lat="43.303" lon="5.6826">
        <ele>750</ele>
        <time>2019-11-29T10:22:04.000Z</time>
      </trkpt>
      <trkpt lat="43.303" lon="5.6826">
        <ele>750</ele>
        <time>2019-11-29T10:22:05.000Z</time>
      </trkpt>
      <trkpt lat="43.303" lon="5.6826">
        <ele>750</ele>
        <time>2019-11-29T10:22:06.000Z</time>
      </trkpt>
      <trkpt lat="43.303" lon="5.6826">
        <ele>750</ele>
        <time>2019-11-29T10:22:07.000Z</time>
      </trkpt>
      <trkpt lat="43.30301" lon="5.6826">
        <ele>750</ele>
        <time>2019-11-29T10:22:08.000Z</time>
      </trkpt>
      <trkpt lat="43.30301" lon="5.6826">
        <ele>750</ele>
        <time>2019-11-29T10:22:09.000Z</time>
      </trkpt>
      <trkpt lat="43.30301" lon="5.6826">
        <ele>750</ele>
        <time>2019-11-29T10:22:10.000Z</time>
      </trkpt>
      <trkpt lat="43.30301" lon="5.6826">
        <ele>750</ele>
        <time>2019-11-29T10:22:11.000Z</time>
      </trkpt>
      <trkpt lat="43.30301" lon="5.68261">
        <ele>750</ele>
        <time>2019-11-29T10:22:12.000Z</time>
      </trkpt>
      <trkpt lat="43.30301" lon="5.68261">
        <ele>750</ele>
        <time>2019-11-29T10:22:13.000Z</time>
      </trkpt>
      <trkpt lat="43.30301" lon="5.6826">
        <ele>750</ele>
        <time>2019-11-29T10:22:14.000Z</time>
      </trkpt>
      <trkpt lat="43.30301" lon="5.6826">
        <ele>750</ele>
        <time>2019-11-29T10:22:15.000Z</time>
      </trkpt>
      <trkpt lat="43.30301" lon="5.6826">
        <ele>750</ele>
        <time>2019-11-29T10:22:16.000Z</time>
      </trkpt>
      <trkpt lat="43.30301" lon="5.6826">
        <ele>750</ele>
        <time>2019-11-29T10:22:17.000Z</time>
      </trkpt>
      <trkpt lat="43.30301" lon="5.6826">
        <ele>750</ele>
        <time>2019-11-29T10:22:18.000Z</time>
      </trkpt>
      <trkpt lat="43.30301" lon="5.6826">
        <ele>750</ele>
        <time>2019-11-29T10:22:19.000Z</time>
      </trkpt>
      <trkpt lat="43.30301" lon="5.6826">
        <ele>750</ele>
        <time>2019-11-29T10:22:20.000Z</time>
      </trkpt>
      <trkpt lat="43.30301" lon="5.6826">
        <ele>750</ele>
        <time>2019-11-29T10:22:21.000Z</time>
      </trkpt>
      <trkpt lat="43.30301" lon="5.6826">
        <ele>750</ele>
        <time>2019-11-29T10:22:22.000Z</time>
      </trkpt>
      <trkpt lat="43.30301" lon="5.6826">
        <ele>750</ele>
        <time>2019-11-29T10:22:23.000Z</time>
      </trkpt>
      <trkpt lat="43.30301" lon="5.6826">
        <ele>750</ele>
        <time>2019-11-29T10:22:24.000Z</time>
      </trkpt>
      <trkpt lat="43.30301" lon="5.6826">
        <ele>750</ele>
        <time>2019-11-29T10:22:25.000Z</time>
      </trkpt>
      <trkpt lat="43.30301" lon="5.6826">
        <ele>750</ele>
        <time>2019-11-29T10:22:26.000Z</time>
      </trkpt>
      <trkpt lat="43.30301" lon="5.6826">
        <ele>750</ele>
        <time>2019-11-29T10:22:27.000Z</time>
      </trkpt>
      <trkpt lat="43.30301" lon="5.6826">
        <ele>750</ele>
        <time>2019-11-29T10:22:28.000Z</time>
      </trkpt>
      <trkpt lat="43.30301" lon="5.6826">
        <ele>750</ele>
        <time>2019-11-29T10:22:29.000Z</time>
      </trkpt>
      <trkpt lat="43.30301" lon="5.6826">
        <ele>750</ele>
        <time>2019-11-29T10:22:30.000Z</time>
      </trkpt>
      <trkpt lat="43.30301" lon="5.6826">
        <ele>750</ele>
        <time>2019-11-29T10:22:31.000Z</time>
      </trkpt>
      <trkpt lat="43.30301" lon="5.6826">
        <ele>750</ele>
        <time>2019-11-29T10:22:32.000Z</time>
      </trkpt>
      <trkpt lat="43.30301" lon="5.6826">
        <ele>750</ele>
        <time>2019-11-29T10:22:33.000Z</time>
      </trkpt>
      <trkpt lat="43.30301" lon="5.6826">
        <ele>750</ele>
        <time>2019-11-29T10:22:34.000Z</time>
      </trkpt>
      <trkpt lat="43.30301" lon="5.6826">
        <ele>750</ele>
        <time>2019-11-29T10:22:35.000Z</time>
      </trkpt>
      <trkpt lat="43.30301" lon="5.6826">
        <ele>750</ele>
        <time>2019-11-29T10:22:36.000Z</time>
      </trkpt>
      <trkpt lat="43.30301" lon="5.6826">
        <ele>750</ele>
        <time>2019-11-29T10:22:37.000Z</time>
      </trkpt>
      <trkpt lat="43.30301" lon="5.68261">
        <ele>750</ele>
        <time>2019-11-29T10:22:38.000Z</time>
      </trkpt>
      <trkpt lat="43.30301" lon="5.68261">
        <ele>750</ele>
        <time>2019-11-29T10:22:39.000Z</time>
      </trkpt>
      <trkpt lat="43.30301" lon="5.68261">
        <ele>750</ele>
        <time>2019-11-29T10:22:40.000Z</time>
      </trkpt>
      <trkpt lat="43.30301" lon="5.68261">
        <ele>750</ele>
        <time>2019-11-29T10:22:41.000Z</time>
      </trkpt>
      <trkpt lat="43.30301" lon="5.68261">
        <ele>750</ele>
        <time>2019-11-29T10:22:42.000Z</time>
      </trkpt>
      <trkpt lat="43.30301" lon="5.68261">
        <ele>750</ele>
        <time>2019-11-29T10:22:43.000Z</time>
      </trkpt>
      <trkpt lat="43.30301" lon="5.68261">
        <ele>750</ele>
        <time>2019-11-29T10:22:44.000Z</time>
      </trkpt>
      <trkpt lat="43.30301" lon="5.68261">
        <ele>750</ele>
        <time>2019-11-29T10:22:45.000Z</time>
      </trkpt>
      <trkpt lat="43.30301" lon="5.68261">
        <ele>750</ele>
        <time>2019-11-29T10:22:46.000Z</time>
      </trkpt>
      <trkpt lat="43.30301" lon="5.68261">
        <ele>750</ele>
        <time>2019-11-29T10:22:47.000Z</time>
      </trkpt>
      <trkpt lat="43.30301" lon="5.68261">
        <ele>750</ele>
        <time>2019-11-29T10:22:48.000Z</time>
      </trkpt>
      <trkpt lat="43.30301" lon="5.68261">
        <ele>750</ele>
        <time>2019-11-29T10:22:49.000Z</time>
      </trkpt>
      <trkpt lat="43.30301" lon="5.68261">
        <ele>750</ele>
        <time>2019-11-29T10:22:50.000Z</time>
      </trkpt>
      <trkpt lat="43.30301" lon="5.68261">
        <ele>750</ele>
        <time>2019-11-29T10:22:51.000Z</time>
      </trkpt>
      <trkpt lat="43.30301" lon="5.68261">
        <ele>750</ele>
        <time>2019-11-29T10:22:52.000Z</time>
      </trkpt>
      <trkpt lat="43.30301" lon="5.68261">
        <ele>750</ele>
        <time>2019-11-29T10:22:53.000Z</time>
      </trkpt>
      <trkpt lat="43.30301" lon="5.68261">
        <ele>750</ele>
        <time>2019-11-29T10:22:54.000Z</time>
      </trkpt>
      <trkpt lat="43.30301" lon="5.68261">
        <ele>750</ele>
        <time>2019-11-29T10:22:55.000Z</time>
      </trkpt>
      <trkpt lat="43.30301" lon="5.68261">
        <ele>750</ele>
        <time>2019-11-29T10:22:56.000Z</time>
      </trkpt>
      <trkpt lat="43.30301" lon="5.68261">
        <ele>750</ele>
        <time>2019-11-29T10:22:57.000Z</time>
      </trkpt>
      <trkpt lat="43.30301" lon="5.68261">
        <ele>750</ele>
        <time>2019-11-29T10:22:58.000Z</time>
      </trkpt>
      <trkpt lat="43.30301" lon="5.68261">
        <ele>750</ele>
        <time>2019-11-29T10:22:59.000Z</time>
      </trkpt>
      <trkpt lat="43.30301" lon="5.68261">
        <ele>750</ele>
        <time>2019-11-29T10:23:00.000Z</time>
      </trkpt>
      <trkpt lat="43.30301" lon="5.68261">
        <ele>750</ele>
        <time>2019-11-29T10:23:01.000Z</time>
      </trkpt>
      <trkpt lat="43.30301" lon="5.68261">
        <ele>750</ele>
        <time>2019-11-29T10:23:02.000Z</time>
      </trkpt>
      <trkpt lat="43.30301" lon="5.68261">
        <ele>750</ele>
        <time>2019-11-29T10:23:03.000Z</time>
      </trkpt>
      <trkpt lat="43.30301" lon="5.68261">
        <ele>750</ele>
        <time>2019-11-29T10:23:04.000Z</time>
      </trkpt>
      <trkpt lat="43.30301" lon="5.68261">
        <ele>750</ele>
        <time>2019-11-29T10:23:05.000Z</time>
      </trkpt>
      <trkpt lat="43.30301" lon="5.68261">
        <ele>750</ele>
        <time>2019-11-29T10:23:06.000Z</time>
      </trkpt>
      <trkpt lat="43.30301" lon="5.68261">
        <ele>750</ele>
        <time>2019-11-29T10:23:07.000Z</time>
      </trkpt>
      <trkpt lat="43.30301" lon="5.68261">
        <ele>750</ele>
        <time>2019-11-29T10:23:08.000Z</time>
      </trkpt>
      <trkpt lat="43.30301" lon="5.68261">
        <ele>751</ele>
        <time>2019-11-29T10:23:09.000Z</time>
      </trkpt>
      <trkpt lat="43.30301" lon="5.68261">
        <ele>751</ele>
        <time>2019-11-29T10:23:10.000Z</time>
      </trkpt>
      <trkpt lat="43.30301" lon="5.68261">
        <ele>751</ele>
        <time>2019-11-29T10:23:11.000Z</time>
      </trkpt>
      <trkpt lat="43.30301" lon="5.68261">
        <ele>751</ele>
        <time>2019-11-29T10:23:12.000Z</time>
      </trkpt>
      <trkpt lat="43.30301" lon="5.68261">
        <ele>751</ele>
        <time>2019-11-29T10:23:13.000Z</time>
      </trkpt>
      <trkpt lat="43.30301" lon="5.68261">
        <ele>751</ele>
        <time>2019-11-29T10:23:14.000Z</time>
      </trkpt>
      <trkpt lat="43.30301" lon="5.68261">
        <ele>751</ele>
        <time>2019-11-29T10:23:15.000Z</time>
      </trkpt>
      <trkpt lat="43.30301" lon="5.68261">
        <ele>751</ele>
        <time>2019-11-29T10:23:16.000Z</time>
      </trkpt>
      <trkpt lat="43.30301" lon="5.68261">
        <ele>751</ele>
        <time>2019-11-29T10:23:17.000Z</time>
      </trkpt>
      <trkpt lat="43.30301" lon="5.68261">
        <ele>751</ele>
        <time>2019-11-29T10:23:18.000Z</time>
      </trkpt>
      <trkpt lat="43.30301" lon="5.68261">
        <ele>751</ele>
        <time>2019-11-29T10:23:19.000Z</time>
      </trkpt>
      <trkpt lat="43.30301" lon="5.68261">
        <ele>751</ele>
        <time>2019-11-29T10:23:20.000Z</time>
      </trkpt>
      <trkpt lat="43.30301" lon="5.68261">
        <ele>751</ele>
        <time>2019-11-29T10:23:21.000Z</time>
      </trkpt>
      <trkpt lat="43.30301" lon="5.68261">
        <ele>751</ele>
        <time>2019-11-29T10:23:22.000Z</time>
      </trkpt>
      <trkpt lat="43.30301" lon="5.68261">
        <ele>751</ele>
        <time>2019-11-29T10:23:23.000Z</time>
      </trkpt>
      <trkpt lat="43.30301" lon="5.68261">
        <ele>751</ele>
        <time>2019-11-29T10:23:24.000Z</time>
      </trkpt>
      <trkpt lat="43.30301" lon="5.68261">
        <ele>751</ele>
        <time>2019-11-29T10:23:25.000Z</time>
      </trkpt>
      <trkpt lat="43.30301" lon="5.68261">
        <ele>751</ele>
        <time>2019-11-29T10:23:26.000Z</time>
      </trkpt>
      <trkpt lat="43.30301" lon="5.68261">
        <ele>751</ele>
        <time>2019-11-29T10:23:27.000Z</time>
      </trkpt>
      <trkpt lat="43.30301" lon="5.68261">
        <ele>751</ele>
        <time>2019-11-29T10:23:28.000Z</time>
      </trkpt>
      <trkpt lat="43.30301" lon="5.68261">
        <ele>751</ele>
        <time>2019-11-29T10:23:29.000Z</time>
      </trkpt>
      <trkpt lat="43.30301" lon="5.68261">
        <ele>751</ele>
        <time>2019-11-29T10:23:30.000Z</time>
      </trkpt>
      <trkpt lat="43.30301" lon="5.68261">
        <ele>751</ele>
        <time>2019-11-29T10:23:31.000Z</time>
      </trkpt>
      <trkpt lat="43.30301" lon="5.68261">
        <ele>751</ele>
        <time>2019-11-29T10:23:32.000Z</time>
      </trkpt>
      <trkpt lat="43.30301" lon="5.68261">
        <ele>751</ele>
        <time>2019-11-29T10:23:33.000Z</time>
      </trkpt>
      <trkpt lat="43.30301" lon="5.68261">
        <ele>751</ele>
        <time>2019-11-29T10:23:34.000Z</time>
      </trkpt>
      <trkpt lat="43.30301" lon="5.68261">
        <ele>751</ele>
        <time>2019-11-29T10:23:35.000Z</time>
      </trkpt>
      <trkpt lat="43.30301" lon="5.68261">
        <ele>751</ele>
        <time>2019-11-29T10:23:36.000Z</time>
      </trkpt>
      <trkpt lat="43.30301" lon="5.68261">
        <ele>751</ele>
        <time>2019-11-29T10:23:37.000Z</time>
      </trkpt>
      <trkpt lat="43.30301" lon="5.68261">
        <ele>751</ele>
        <time>2019-11-29T10:23:38.000Z</time>
      </trkpt>
      <trkpt lat="43.30301" lon="5.68261">
        <ele>751</ele>
        <time>2019-11-29T10:23:39.000Z</time>
      </trkpt>
      <trkpt lat="43.30301" lon="5.68261">
        <ele>751</ele>
        <time>2019-11-29T10:23:40.000Z</time>
      </trkpt>
      <trkpt lat="43.30301" lon="5.68261">
        <ele>751</ele>
        <time>2019-11-29T10:23:41.000Z</time>
      </trkpt>
      <trkpt lat="43.30301" lon="5.68261">
        <ele>751</ele>
        <time>2019-11-29T10:23:42.000Z</time>
      </trkpt>
      <trkpt lat="43.30301" lon="5.68261">
        <ele>751</ele>
        <time>2019-11-29T10:23:43.000Z</time>
      </trkpt>
      <trkpt lat="43.30301" lon="5.68261">
        <ele>751</ele>
        <time>2019-11-29T10:23:44.000Z</time>
      </trkpt>
      <trkpt lat="43.30301" lon="5.68261">
        <ele>751</ele>
        <time>2019-11-29T10:23:45.000Z</time>
      </trkpt>
      <trkpt lat="43.30301" lon="5.68261">
        <ele>751</ele>
        <time>2019-11-29T10:23:46.000Z</time>
      </trkpt>
      <trkpt lat="43.30301" lon="5.6826">
        <ele>751</ele>
        <time>2019-11-29T10:23:47.000Z</time>
      </trkpt>
      <trkpt lat="43.303" lon="5.6826">
        <ele>751</ele>
        <time>2019-11-29T10:23:48.000Z</time>
      </trkpt>
      <trkpt lat="43.303" lon="5.6826">
        <ele>751</ele>
        <time>2019-11-29T10:23:49.000Z</time>
      </trkpt>
      <trkpt lat="43.303" lon="5.6826">
        <ele>751</ele>
        <time>2019-11-29T10:23:50.000Z</time>
      </trkpt>
      <trkpt lat="43.30301" lon="5.68261">
        <ele>751</ele>
        <time>2019-11-29T10:23:51.000Z</time>
      </trkpt>
      <trkpt lat="43.30301" lon="5.68261">
        <ele>751</ele>
        <time>2019-11-29T10:23:52.000Z</time>
      </trkpt>
      <trkpt lat="43.30301" lon="5.68261">
        <ele>751</ele>
        <time>2019-11-29T10:23:53.000Z</time>
      </trkpt>
      <trkpt lat="43.30301" lon="5.68261">
        <ele>751</ele>
        <time>2019-11-29T10:23:54.000Z</time>
      </trkpt>
      <trkpt lat="43.303" lon="5.68261">
        <ele>751</ele>
        <time>2019-11-29T10:23:55.000Z</time>
      </trkpt>
      <trkpt lat="43.30301" lon="5.68261">
        <ele>751</ele>
        <time>2019-11-29T10:23:56.000Z</time>
      </trkpt>
      <trkpt lat="43.30301" lon="5.6826">
        <ele>751</ele>
        <time>2019-11-29T10:23:57.000Z</time>
      </trkpt>
      <trkpt lat="43.30301" lon="5.6826">
        <ele>751</ele>
        <time>2019-11-29T10:23:58.000Z</time>
      </trkpt>
      <trkpt lat="43.30301" lon="5.6826">
        <ele>751</ele>
        <time>2019-11-29T10:23:59.000Z</time>
      </trkpt>
      <trkpt lat="43.30301" lon="5.68261">
        <ele>751</ele>
        <time>2019-11-29T10:24:00.000Z</time>
      </trkpt>
      <trkpt lat="43.30301" lon="5.68261">
        <ele>751</ele>
        <time>2019-11-29T10:24:01.000Z</time>
      </trkpt>
      <trkpt lat="43.30301" lon="5.6826">
        <ele>751</ele>
        <time>2019-11-29T10:24:02.000Z</time>
      </trkpt>
      <trkpt lat="43.30301" lon="5.6826">
        <ele>751</ele>
        <time>2019-11-29T10:24:03.000Z</time>
      </trkpt>
      <trkpt lat="43.30301" lon="5.6826">
        <ele>751</ele>
        <time>2019-11-29T10:24:04.000Z</time>
      </trkpt>
      <trkpt lat="43.30301" lon="5.6826">
        <ele>751</ele>
        <time>2019-11-29T10:24:05.000Z</time>
      </trkpt>
      <trkpt lat="43.30301" lon="5.6826">
        <ele>751</ele>
        <time>2019-11-29T10:24:06.000Z</time>
      </trkpt>
      <trkpt lat="43.30301" lon="5.6826">
        <ele>751</ele>
        <time>2019-11-29T10:24:07.000Z</time>
      </trkpt>
      <trkpt lat="43.30301" lon="5.6826">
        <ele>751</ele>
        <time>2019-11-29T10:24:08.000Z</time>
      </trkpt>
      <trkpt lat="43.30301" lon="5.6826">
        <ele>751</ele>
        <time>2019-11-29T10:24:09.000Z</time>
      </trkpt>
      <trkpt lat="43.30301" lon="5.6826">
        <ele>751</ele>
        <time>2019-11-29T10:24:10.000Z</time>
      </trkpt>
      <trkpt lat="43.30301" lon="5.6826">
        <ele>751</ele>
        <time>2019-11-29T10:24:11.000Z</time>
      </trkpt>
      <trkpt lat="43.30301" lon="5.6826">
        <ele>751</ele>
        <time>2019-11-29T10:24:12.000Z</time>
      </trkpt>
      <trkpt lat="43.30301" lon="5.6826">
        <ele>751</ele>
        <time>2019-11-29T10:24:13.000Z</time>
      </trkpt>
      <trkpt lat="43.30301" lon="5.6826">
        <ele>751</ele>
        <time>2019-11-29T10:24:14.000Z</time>
      </trkpt>
      <trkpt lat="43.30301" lon="5.6826">
        <ele>751</ele>
        <time>2019-11-29T10:24:15.000Z</time>
      </trkpt>
      <trkpt lat="43.30301" lon="5.6826">
        <ele>751</ele>
        <time>2019-11-29T10:24:16.000Z</time>
      </trkpt>
      <trkpt lat="43.30301" lon="5.6826">
        <ele>751</ele>
        <time>2019-11-29T10:24:17.000Z</time>
      </trkpt>
      <trkpt lat="43.30301" lon="5.6826">
        <ele>751</ele>
        <time>2019-11-29T10:24:18.000Z</time>
      </trkpt>
      <trkpt lat="43.30301" lon="5.6826">
        <ele>751</ele>
        <time>2019-11-29T10:24:19.000Z</time>
      </trkpt>
      <trkpt lat="43.30301" lon="5.6826">
        <ele>751</ele>
        <time>2019-11-29T10:24:20.000Z</time>
      </trkpt>
      <trkpt lat="43.30301" lon="5.6826">
        <ele>751</ele>
        <time>2019-11-29T10:24:21.000Z</time>
      </trkpt>
      <trkpt lat="43.30301" lon="5.6826">
        <ele>751</ele>
        <time>2019-11-29T10:24:22.000Z</time>
      </trkpt>
      <trkpt lat="43.30301" lon="5.6826">
        <ele>751</ele>
        <time>2019-11-29T10:24:23.000Z</time>
      </trkpt>
      <trkpt lat="43.30301" lon="5.6826">
        <ele>751</ele>
        <time>2019-11-29T10:24:24.000Z</time>
      </trkpt>
      <trkpt lat="43.30301" lon="5.6826">
        <ele>751</ele>
        <time>2019-11-29T10:24:25.000Z</time>
      </trkpt>
      <trkpt lat="43.30301" lon="5.6826">
        <ele>751</ele>
        <time>2019-11-29T10:24:26.000Z</time>
      </trkpt>
      <trkpt lat="43.30301" lon="5.6826">
        <ele>751</ele>
        <time>2019-11-29T10:24:27.000Z</time>
      </trkpt>
      <trkpt lat="43.30301" lon="5.6826">
        <ele>751</ele>
        <time>2019-11-29T10:24:28.000Z</time>
      </trkpt>
      <trkpt lat="43.30301" lon="5.6826">
        <ele>751</ele>
        <time>2019-11-29T10:24:29.000Z</time>
      </trkpt>
      <trkpt lat="43.30301" lon="5.6826">
        <ele>751</ele>
        <time>2019-11-29T10:24:30.000Z</time>
      </trkpt>
      <trkpt lat="43.30301" lon="5.6826">
        <ele>751</ele>
        <time>2019-11-29T10:24:31.000Z</time>
      </trkpt>
      <trkpt lat="43.30301" lon="5.6826">
        <ele>751</ele>
        <time>2019-11-29T10:24:32.000Z</time>
      </trkpt>
      <trkpt lat="43.30301" lon="5.6826">
        <ele>751</ele>
        <time>2019-11-29T10:24:33.000Z</time>
      </trkpt>
      <trkpt lat="43.30301" lon="5.6826">
        <ele>751</ele>
        <time>2019-11-29T10:24:34.000Z</time>
      </trkpt>
      <trkpt lat="43.30301" lon="5.6826">
        <ele>751</ele>
        <time>2019-11-29T10:24:35.000Z</time>
      </trkpt>
      <trkpt lat="43.30301" lon="5.6826">
        <ele>751</ele>
        <time>2019-11-29T10:24:36.000Z</time>
      </trkpt>
      <trkpt lat="43.30301" lon="5.6826">
        <ele>751</ele>
        <time>2019-11-29T10:24:37.000Z</time>
      </trkpt>
      <trkpt lat="43.30301" lon="5.6826">
        <ele>751</ele>
        <time>2019-11-29T10:24:38.000Z</time>
      </trkpt>
      <trkpt lat="43.30301" lon="5.6826">
        <ele>751</ele>
        <time>2019-11-29T10:24:39.000Z</time>
      </trkpt>
      <trkpt lat="43.30301" lon="5.6826">
        <ele>751</ele>
        <time>2019-11-29T10:24:40.000Z</time>
      </trkpt>
      <trkpt lat="43.30301" lon="5.6826">
        <ele>751</ele>
        <time>2019-11-29T10:24:41.000Z</time>
      </trkpt>
      <trkpt lat="43.30301" lon="5.6826">
        <ele>751</ele>
        <time>2019-11-29T10:24:42.000Z</time>
      </trkpt>
      <trkpt lat="43.30301" lon="5.6826">
        <ele>751</ele>
        <time>2019-11-29T10:24:43.000Z</time>
      </trkpt>
      <trkpt lat="43.30301" lon="5.6826">
        <ele>751</ele>
        <time>2019-11-29T10:24:44.000Z</time>
      </trkpt>
      <trkpt lat="43.30301" lon="5.6826">
        <ele>751</ele>
        <time>2019-11-29T10:24:45.000Z</time>
      </trkpt>
      <trkpt lat="43.30301" lon="5.6826">
        <ele>751</ele>
        <time>2019-11-29T10:24:46.000Z</time>
      </trkpt>
      <trkpt lat="43.30301" lon="5.6826">
        <ele>751</ele>
        <time>2019-11-29T10:24:47.000Z</time>
      </trkpt>
      <trkpt lat="43.30301" lon="5.6826">
        <ele>751</ele>
        <time>2019-11-29T10:24:48.000Z</time>
      </trkpt>
      <trkpt lat="43.30301" lon="5.6826">
        <ele>751</ele>
        <time>2019-11-29T10:24:49.000Z</time>
      </trkpt>
      <trkpt lat="43.30301" lon="5.6826">
        <ele>751</ele>
        <time>2019-11-29T10:24:50.000Z</time>
      </trkpt>
      <trkpt lat="43.30301" lon="5.6826">
        <ele>751</ele>
        <time>2019-11-29T10:24:51.000Z</time>
      </trkpt>
      <trkpt lat="43.30301" lon="5.6826">
        <ele>751</ele>
        <time>2019-11-29T10:24:52.000Z</time>
      </trkpt>
      <trkpt lat="43.30301" lon="5.6826">
        <ele>751</ele>
        <time>2019-11-29T10:24:53.000Z</time>
      </trkpt>
      <trkpt lat="43.30301" lon="5.6826">
        <ele>751</ele>
        <time>2019-11-29T10:24:54.000Z</time>
      </trkpt>
      <trkpt lat="43.30301" lon="5.6826">
        <ele>751</ele>
        <time>2019-11-29T10:24:55.000Z</time>
      </trkpt>
      <trkpt lat="43.30301" lon="5.6826">
        <ele>751</ele>
        <time>2019-11-29T10:24:56.000Z</time>
      </trkpt>
      <trkpt lat="43.30301" lon="5.6826">
        <ele>751</ele>
        <time>2019-11-29T10:24:57.000Z</time>
      </trkpt>
      <trkpt lat="43.30301" lon="5.6826">
        <ele>751</ele>
        <time>2019-11-29T10:24:58.000Z</time>
      </trkpt>
      <trkpt lat="43.30301" lon="5.6826">
        <ele>751</ele>
        <time>2019-11-29T10:24:59.000Z</time>
      </trkpt>
      <trkpt lat="43.30301" lon="5.6826">
        <ele>751</ele>
        <time>2019-11-29T10:25:00.000Z</time>
      </trkpt>
      <trkpt lat="43.30301" lon="5.6826">
        <ele>751</ele>
        <time>2019-11-29T10:25:01.000Z</time>
      </trkpt>
      <trkpt lat="43.30301" lon="5.6826">
        <ele>751</ele>
        <time>2019-11-29T10:25:02.000Z</time>
      </trkpt>
      <trkpt lat="43.30301" lon="5.6826">
        <ele>751</ele>
        <time>2019-11-29T10:25:03.000Z</time>
      </trkpt>
      <trkpt lat="43.30301" lon="5.6826">
        <ele>751</ele>
        <time>2019-11-29T10:25:04.000Z</time>
      </trkpt>
      <trkpt lat="43.30301" lon="5.6826">
        <ele>751</ele>
        <time>2019-11-29T10:25:05.000Z</time>
      </trkpt>
      <trkpt lat="43.30301" lon="5.6826">
        <ele>751</ele>
        <time>2019-11-29T10:25:06.000Z</time>
      </trkpt>
      <trkpt lat="43.30301" lon="5.6826">
        <ele>751</ele>
        <time>2019-11-29T10:25:07.000Z</time>
      </trkpt>
      <trkpt lat="43.30301" lon="5.6826">
        <ele>751</ele>
        <time>2019-11-29T10:25:08.000Z</time>
      </trkpt>
      <trkpt lat="43.30301" lon="5.6826">
        <ele>751</ele>
        <time>2019-11-29T10:25:09.000Z</time>
      </trkpt>
      <trkpt lat="43.30301" lon="5.6826">
        <ele>751</ele>
        <time>2019-11-29T10:25:10.000Z</time>
      </trkpt>
      <trkpt lat="43.30301" lon="5.6826">
        <ele>751</ele>
        <time>2019-11-29T10:25:11.000Z</time>
      </trkpt>
      <trkpt lat="43.30301" lon="5.6826">
        <ele>751</ele>
        <time>2019-11-29T10:25:12.000Z</time>
      </trkpt>
      <trkpt lat="43.30301" lon="5.6826">
        <ele>751</ele>
        <time>2019-11-29T10:25:13.000Z</time>
      </trkpt>
      <trkpt lat="43.30301" lon="5.6826">
        <ele>751</ele>
        <time>2019-11-29T10:25:14.000Z</time>
      </trkpt>
      <trkpt lat="43.30301" lon="5.6826">
        <ele>751</ele>
        <time>2019-11-29T10:25:15.000Z</time>
      </trkpt>
      <trkpt lat="43.30301" lon="5.6826">
        <ele>751</ele>
        <time>2019-11-29T10:25:16.000Z</time>
      </trkpt>
      <trkpt lat="43.30301" lon="5.6826">
        <ele>751</ele>
        <time>2019-11-29T10:25:17.000Z</time>
      </trkpt>
      <trkpt lat="43.30301" lon="5.6826">
        <ele>751</ele>
        <time>2019-11-29T10:25:18.000Z</time>
      </trkpt>
      <trkpt lat="43.30301" lon="5.6826">
        <ele>751</ele>
        <time>2019-11-29T10:25:19.000Z</time>
      </trkpt>
      <trkpt lat="43.30301" lon="5.6826">
        <ele>751</ele>
        <time>2019-11-29T10:25:20.000Z</time>
      </trkpt>
      <trkpt lat="43.30301" lon="5.6826">
        <ele>751</ele>
        <time>2019-11-29T10:25:21.000Z</time>
      </trkpt>
      <trkpt lat="43.30301" lon="5.6826">
        <ele>751</ele>
        <time>2019-11-29T10:25:22.000Z</time>
      </trkpt>
      <trkpt lat="43.30301" lon="5.6826">
        <ele>751</ele>
        <time>2019-11-29T10:25:23.000Z</time>
      </trkpt>
      <trkpt lat="43.30301" lon="5.6826">
        <ele>751</ele>
        <time>2019-11-29T10:25:24.000Z</time>
      </trkpt>
      <trkpt lat="43.30301" lon="5.6826">
        <ele>751</ele>
        <time>2019-11-29T10:25:25.000Z</time>
      </trkpt>
      <trkpt lat="43.30302" lon="5.6826">
        <ele>751</ele>
        <time>2019-11-29T10:25:26.000Z</time>
      </trkpt>
      <trkpt lat="43.30302" lon="5.6826">
        <ele>751</ele>
        <time>2019-11-29T10:25:27.000Z</time>
      </trkpt>
      <trkpt lat="43.30302" lon="5.6826">
        <ele>751</ele>
        <time>2019-11-29T10:25:28.000Z</time>
      </trkpt>
      <trkpt lat="43.30302" lon="5.6826">
        <ele>751</ele>
        <time>2019-11-29T10:25:29.000Z</time>
      </trkpt>
      <trkpt lat="43.30302" lon="5.6826">
        <ele>751</ele>
        <time>2019-11-29T10:25:30.000Z</time>
      </trkpt>
      <trkpt lat="43.30302" lon="5.6826">
        <ele>751</ele>
        <time>2019-11-29T10:25:31.000Z</time>
      </trkpt>
      <trkpt lat="43.30301" lon="5.6826">
        <ele>751</ele>
        <time>2019-11-29T10:25:32.000Z</time>
      </trkpt>
      <trkpt lat="43.30301" lon="5.6826">
        <ele>751</ele>
        <time>2019-11-29T10:25:33.000Z</time>
      </trkpt>
      <trkpt lat="43.30301" lon="5.6826">
        <ele>751</ele>
        <time>2019-11-29T10:25:34.000Z</time>
      </trkpt>
      <trkpt lat="43.30301" lon="5.6826">
        <ele>751</ele>
        <time>2019-11-29T10:25:35.000Z</time>
      </trkpt>
      <trkpt lat="43.30301" lon="5.6826">
        <ele>751</ele>
        <time>2019-11-29T10:25:36.000Z</time>
      </trkpt>
      <trkpt lat="43.30302" lon="5.6826">
        <ele>751</ele>
        <time>2019-11-29T10:25:37.000Z</time>
      </trkpt>
      <trkpt lat="43.30302" lon="5.6826">
        <ele>751</ele>
        <time>2019-11-29T10:25:38.000Z</time>
      </trkpt>
      <trkpt lat="43.30302" lon="5.6826">
        <ele>751</ele>
        <time>2019-11-29T10:25:39.000Z</time>
      </trkpt>
      <trkpt lat="43.30302" lon="5.6826">
        <ele>751</ele>
        <time>2019-11-29T10:25:40.000Z</time>
      </trkpt>
      <trkpt lat="43.30302" lon="5.6826">
        <ele>751</ele>
        <time>2019-11-29T10:25:41.000Z</time>
      </trkpt>
      <trkpt lat="43.30302" lon="5.6826">
        <ele>751</ele>
        <time>2019-11-29T10:25:42.000Z</time>
      </trkpt>
      <trkpt lat="43.30302" lon="5.6826">
        <ele>751</ele>
        <time>2019-11-29T10:25:43.000Z</time>
      </trkpt>
      <trkpt lat="43.30302" lon="5.6826">
        <ele>751</ele>
        <time>2019-11-29T10:25:44.000Z</time>
      </trkpt>
      <trkpt lat="43.30302" lon="5.6826">
        <ele>751</ele>
        <time>2019-11-29T10:25:45.000Z</time>
      </trkpt>
      <trkpt lat="43.30302" lon="5.6826">
        <ele>751</ele>
        <time>2019-11-29T10:25:46.000Z</time>
      </trkpt>
      <trkpt lat="43.30302" lon="5.6826">
        <ele>751</ele>
        <time>2019-11-29T10:25:47.000Z</time>
      </trkpt>
      <trkpt lat="43.30302" lon="5.6826">
        <ele>751</ele>
        <time>2019-11-29T10:25:48.000Z</time>
      </trkpt>
      <trkpt lat="43.30302" lon="5.6826">
        <ele>751</ele>
        <time>2019-11-29T10:25:49.000Z</time>
      </trkpt>
      <trkpt lat="43.30302" lon="5.6826">
        <ele>751</ele>
        <time>2019-11-29T10:25:50.000Z</time>
      </trkpt>
      <trkpt lat="43.30302" lon="5.6826">
        <ele>751</ele>
        <time>2019-11-29T10:25:51.000Z</time>
      </trkpt>
      <trkpt lat="43.30302" lon="5.6826">
        <ele>751</ele>
        <time>2019-11-29T10:25:52.000Z</time>
      </trkpt>
      <trkpt lat="43.30302" lon="5.6826">
        <ele>751</ele>
        <time>2019-11-29T10:25:53.000Z</time>
      </trkpt>
      <trkpt lat="43.30302" lon="5.6826">
        <ele>751</ele>
        <time>2019-11-29T10:25:54.000Z</time>
      </trkpt>
      <trkpt lat="43.30302" lon="5.6826">
        <ele>751</ele>
        <time>2019-11-29T10:25:55.000Z</time>
      </trkpt>
      <trkpt lat="43.30302" lon="5.6826">
        <ele>751</ele>
        <time>2019-11-29T10:25:56.000Z</time>
      </trkpt>
      <trkpt lat="43.30302" lon="5.6826">
        <ele>751</ele>
        <time>2019-11-29T10:25:57.000Z</time>
      </trkpt>
      <trkpt lat="43.30302" lon="5.6826">
        <ele>751</ele>
        <time>2019-11-29T10:25:58.000Z</time>
      </trkpt>
      <trkpt lat="43.30302" lon="5.6826">
        <ele>751</ele>
        <time>2019-11-29T10:25:59.000Z</time>
      </trkpt>
      <trkpt lat="43.30302" lon="5.6826">
        <ele>751</ele>
        <time>2019-11-29T10:26:00.000Z</time>
      </trkpt>
      <trkpt lat="43.30302" lon="5.6826">
        <ele>751</ele>
        <time>2019-11-29T10:26:01.000Z</time>
      </trkpt>
      <trkpt lat="43.30302" lon="5.6826">
        <ele>751</ele>
        <time>2019-11-29T10:26:02.000Z</time>
      </trkpt>
      <trkpt lat="43.30302" lon="5.6826">
        <ele>751</ele>
        <time>2019-11-29T10:26:03.000Z</time>
      </trkpt>
      <trkpt lat="43.30302" lon="5.6826">
        <ele>751</ele>
        <time>2019-11-29T10:26:04.000Z</time>
      </trkpt>
      <trkpt lat="43.30302" lon="5.6826">
        <ele>751</ele>
        <time>2019-11-29T10:26:05.000Z</time>
      </trkpt>
      <trkpt lat="43.30302" lon="5.6826">
        <ele>751</ele>
        <time>2019-11-29T10:26:06.000Z</time>
      </trkpt>
      <trkpt lat="43.30302" lon="5.6826">
        <ele>751</ele>
        <time>2019-11-29T10:26:07.000Z</time>
      </trkpt>
      <trkpt lat="43.30302" lon="5.6826">
        <ele>751</ele>
        <time>2019-11-29T10:26:08.000Z</time>
      </trkpt>
      <trkpt lat="43.30302" lon="5.6826">
        <ele>751</ele>
        <time>2019-11-29T10:26:09.000Z</time>
      </trkpt>
      <trkpt lat="43.30302" lon="5.6826">
        <ele>751</ele>
        <time>2019-11-29T10:26:10.000Z</time>
      </trkpt>
      <trkpt lat="43.30302" lon="5.6826">
        <ele>751</ele>
        <time>2019-11-29T10:26:11.000Z</time>
      </trkpt>
      <trkpt lat="43.30302" lon="5.6826">
        <ele>751</ele>
        <time>2019-11-29T10:26:12.000Z</time>
      </trkpt>
      <trkpt lat="43.30302" lon="5.6826">
        <ele>751</ele>
        <time>2019-11-29T10:26:13.000Z</time>
      </trkpt>
      <trkpt lat="43.30302" lon="5.6826">
        <ele>751</ele>
        <time>2019-11-29T10:26:14.000Z</time>
      </trkpt>
      <trkpt lat="43.30302" lon="5.6826">
        <ele>751</ele>
        <time>2019-11-29T10:26:15.000Z</time>
      </trkpt>
      <trkpt lat="43.30302" lon="5.6826">
        <ele>751</ele>
        <time>2019-11-29T10:26:16.000Z</time>
      </trkpt>
      <trkpt lat="43.30302" lon="5.6826">
        <ele>751</ele>
        <time>2019-11-29T10:26:17.000Z</time>
      </trkpt>
      <trkpt lat="43.30302" lon="5.6826">
        <ele>751</ele>
        <time>2019-11-29T10:26:18.000Z</time>
      </trkpt>
      <trkpt lat="43.30302" lon="5.6826">
        <ele>751</ele>
        <time>2019-11-29T10:26:19.000Z</time>
      </trkpt>
      <trkpt lat="43.30302" lon="5.6826">
        <ele>751</ele>
        <time>2019-11-29T10:26:20.000Z</time>
      </trkpt>
      <trkpt lat="43.30302" lon="5.6826">
        <ele>751</ele>
        <time>2019-11-29T10:26:21.000Z</time>
      </trkpt>
      <trkpt lat="43.30302" lon="5.6826">
        <ele>751</ele>
        <time>2019-11-29T10:26:22.000Z</time>
      </trkpt>
      <trkpt lat="43.30302" lon="5.6826">
        <ele>751</ele>
        <time>2019-11-29T10:26:23.000Z</time>
      </trkpt>
      <trkpt lat="43.30302" lon="5.6826">
        <ele>751</ele>
        <time>2019-11-29T10:26:24.000Z</time>
      </trkpt>
      <trkpt lat="43.30302" lon="5.6826">
        <ele>751</ele>
        <time>2019-11-29T10:26:25.000Z</time>
      </trkpt>
      <trkpt lat="43.30302" lon="5.6826">
        <ele>751</ele>
        <time>2019-11-29T10:26:26.000Z</time>
      </trkpt>
      <trkpt lat="43.30302" lon="5.6826">
        <ele>751</ele>
        <time>2019-11-29T10:26:27.000Z</time>
      </trkpt>
      <trkpt lat="43.30302" lon="5.6826">
        <ele>751</ele>
        <time>2019-11-29T10:26:28.000Z</time>
      </trkpt>
      <trkpt lat="43.30302" lon="5.6826">
        <ele>751</ele>
        <time>2019-11-29T10:26:29.000Z</time>
      </trkpt>
      <trkpt lat="43.30302" lon="5.6826">
        <ele>751</ele>
        <time>2019-11-29T10:26:30.000Z</time>
      </trkpt>
      <trkpt lat="43.30302" lon="5.6826">
        <ele>751</ele>
        <time>2019-11-29T10:26:31.000Z</time>
      </trkpt>
      <trkpt lat="43.30302" lon="5.6826">
        <ele>751</ele>
        <time>2019-11-29T10:26:32.000Z</time>
      </trkpt>
      <trkpt lat="43.30302" lon="5.6826">
        <ele>751</ele>
        <time>2019-11-29T10:26:33.000Z</time>
      </trkpt>
      <trkpt lat="43.30302" lon="5.6826">
        <ele>751</ele>
        <time>2019-11-29T10:26:34.000Z</time>
      </trkpt>
      <trkpt lat="43.30302" lon="5.6826">
        <ele>751</ele>
        <time>2019-11-29T10:26:35.000Z</time>
      </trkpt>
      <trkpt lat="43.30302" lon="5.6826">
        <ele>751</ele>
        <time>2019-11-29T10:26:36.000Z</time>
      </trkpt>
      <trkpt lat="43.30302" lon="5.6826">
        <ele>751</ele>
        <time>2019-11-29T10:26:37.000Z</time>
      </trkpt>
      <trkpt lat="43.30302" lon="5.6826">
        <ele>751</ele>
        <time>2019-11-29T10:26:38.000Z</time>
      </trkpt>
      <trkpt lat="43.30302" lon="5.6826">
        <ele>751</ele>
        <time>2019-11-29T10:26:39.000Z</time>
      </trkpt>
      <trkpt lat="43.30302" lon="5.6826">
        <ele>751</ele>
        <time>2019-11-29T10:26:40.000Z</time>
      </trkpt>
      <trkpt lat="43.30302" lon="5.6826">
        <ele>751</ele>
        <time>2019-11-29T10:26:41.000Z</time>
      </trkpt>
      <trkpt lat="43.30302" lon="5.6826">
        <ele>751</ele>
        <time>2019-11-29T10:26:42.000Z</time>
      </trkpt>
      <trkpt lat="43.30302" lon="5.6826">
        <ele>751</ele>
        <time>2019-11-29T10:26:43.000Z</time>
      </trkpt>
      <trkpt lat="43.30301" lon="5.6826">
        <ele>751</ele>
        <time>2019-11-29T10:26:44.000Z</time>
      </trkpt>
      <trkpt lat="43.30301" lon="5.6826">
        <ele>751</ele>
        <time>2019-11-29T10:26:45.000Z</time>
      </trkpt>
      <trkpt lat="43.30301" lon="5.6826">
        <ele>751</ele>
        <time>2019-11-29T10:26:46.000Z</time>
      </trkpt>
      <trkpt lat="43.30301" lon="5.6826">
        <ele>751</ele>
        <time>2019-11-29T10:26:47.000Z</time>
      </trkpt>
      <trkpt lat="43.30301" lon="5.6826">
        <ele>751</ele>
        <time>2019-11-29T10:26:48.000Z</time>
      </trkpt>
      <trkpt lat="43.30301" lon="5.6826">
        <ele>751</ele>
        <time>2019-11-29T10:26:49.000Z</time>
      </trkpt>
      <trkpt lat="43.30301" lon="5.6826">
        <ele>751</ele>
        <time>2019-11-29T10:26:50.000Z</time>
      </trkpt>
      <trkpt lat="43.30301" lon="5.6826">
        <ele>751</ele>
        <time>2019-11-29T10:26:51.000Z</time>
      </trkpt>
      <trkpt lat="43.30301" lon="5.6826">
        <ele>751</ele>
        <time>2019-11-29T10:26:52.000Z</time>
      </trkpt>
      <trkpt lat="43.30301" lon="5.6826">
        <ele>751</ele>
        <time>2019-11-29T10:26:53.000Z</time>
      </trkpt>
      <trkpt lat="43.30301" lon="5.6826">
        <ele>751</ele>
        <time>2019-11-29T10:26:54.000Z</time>
      </trkpt>
      <trkpt lat="43.30301" lon="5.6826">
        <ele>751</ele>
        <time>2019-11-29T10:26:55.000Z</time>
      </trkpt>
      <trkpt lat="43.30301" lon="5.6826">
        <ele>751</ele>
        <time>2019-11-29T10:26:56.000Z</time>
      </trkpt>
      <trkpt lat="43.30301" lon="5.6826">
        <ele>751</ele>
        <time>2019-11-29T10:26:57.000Z</time>
      </trkpt>
      <trkpt lat="43.30301" lon="5.6826">
        <ele>751</ele>
        <time>2019-11-29T10:26:58.000Z</time>
      </trkpt>
      <trkpt lat="43.30301" lon="5.6826">
        <ele>751</ele>
        <time>2019-11-29T10:26:59.000Z</time>
      </trkpt>
      <trkpt lat="43.30301" lon="5.6826">
        <ele>751</ele>
        <time>2019-11-29T10:27:00.000Z</time>
      </trkpt>
      <trkpt lat="43.30301" lon="5.6826">
        <ele>751</ele>
        <time>2019-11-29T10:27:01.000Z</time>
      </trkpt>
      <trkpt lat="43.30301" lon="5.6826">
        <ele>751</ele>
        <time>2019-11-29T10:27:02.000Z</time>
      </trkpt>
      <trkpt lat="43.30301" lon="5.6826">
        <ele>751</ele>
        <time>2019-11-29T10:27:03.000Z</time>
      </trkpt>
      <trkpt lat="43.30301" lon="5.6826">
        <ele>751</ele>
        <time>2019-11-29T10:27:04.000Z</time>
      </trkpt>
      <trkpt lat="43.30301" lon="5.6826">
        <ele>751</ele>
        <time>2019-11-29T10:27:05.000Z</time>
      </trkpt>
      <trkpt lat="43.30301" lon="5.6826">
        <ele>751</ele>
        <time>2019-11-29T10:27:06.000Z</time>
      </trkpt>
      <trkpt lat="43.30301" lon="5.68261">
        <ele>751</ele>
        <time>2019-11-29T10:27:07.000Z</time>
      </trkpt>
      <trkpt lat="43.303" lon="5.68262">
        <ele>751</ele>
        <time>2019-11-29T10:27:08.000Z</time>
      </trkpt>
      <trkpt lat="43.303" lon="5.68262">
        <ele>751</ele>
        <time>2019-11-29T10:27:09.000Z</time>
      </trkpt>
      <trkpt lat="43.30299" lon="5.68263">
        <ele>751</ele>
        <time>2019-11-29T10:27:10.000Z</time>
      </trkpt>
      <trkpt lat="43.30298" lon="5.68264">
        <ele>751</ele>
        <time>2019-11-29T10:27:11.000Z</time>
      </trkpt>
      <trkpt lat="43.30297" lon="5.68264">
        <ele>751</ele>
        <time>2019-11-29T10:27:12.000Z</time>
      </trkpt>
      <trkpt lat="43.30297" lon="5.68265">
        <ele>751</ele>
        <time>2019-11-29T10:27:13.000Z</time>
      </trkpt>
      <trkpt lat="43.30296" lon="5.68266">
        <ele>751</ele>
        <time>2019-11-29T10:27:14.000Z</time>
      </trkpt>
      <trkpt lat="43.30296" lon="5.68267">
        <ele>751</ele>
        <time>2019-11-29T10:27:15.000Z</time>
      </trkpt>
      <trkpt lat="43.30296" lon="5.68268">
        <ele>751</ele>
        <time>2019-11-29T10:27:16.000Z</time>
      </trkpt>
      <trkpt lat="43.30296" lon="5.68269">
        <ele>751</ele>
        <time>2019-11-29T10:27:17.000Z</time>
      </trkpt>
      <trkpt lat="43.30296" lon="5.6827">
        <ele>751</ele>
        <time>2019-11-29T10:27:18.000Z</time>
      </trkpt>
      <trkpt lat="43.30297" lon="5.68271">
        <ele>752</ele>
        <time>2019-11-29T10:27:19.000Z</time>
      </trkpt>
      <trkpt lat="43.30296" lon="5.68272">
        <ele>752</ele>
        <time>2019-11-29T10:27:20.000Z</time>
      </trkpt>
      <trkpt lat="43.30296" lon="5.68274">
        <ele>752</ele>
        <time>2019-11-29T10:27:21.000Z</time>
      </trkpt>
      <trkpt lat="43.30296" lon="5.68275">
        <ele>752</ele>
        <time>2019-11-29T10:27:22.000Z</time>
      </trkpt>
      <trkpt lat="43.30296" lon="5.68275">
        <ele>752</ele>
        <time>2019-11-29T10:27:23.000Z</time>
      </trkpt>
      <trkpt lat="43.30297" lon="5.68276">
        <ele>752</ele>
        <time>2019-11-29T10:27:24.000Z</time>
      </trkpt>
      <trkpt lat="43.30297" lon="5.68277">
        <ele>752</ele>
        <time>2019-11-29T10:27:25.000Z</time>
      </trkpt>
      <trkpt lat="43.30297" lon="5.68278">
        <ele>753</ele>
        <time>2019-11-29T10:27:26.000Z</time>
      </trkpt>
      <trkpt lat="43.30297" lon="5.68279">
        <ele>753</ele>
        <time>2019-11-29T10:27:27.000Z</time>
      </trkpt>
      <trkpt lat="43.30298" lon="5.6828">
        <ele>753</ele>
        <time>2019-11-29T10:27:28.000Z</time>
      </trkpt>
      <trkpt lat="43.30298" lon="5.68281">
        <ele>753</ele>
        <time>2019-11-29T10:27:29.000Z</time>
      </trkpt>
      <trkpt lat="43.30298" lon="5.68282">
        <ele>753</ele>
        <time>2019-11-29T10:27:30.000Z</time>
      </trkpt>
      <trkpt lat="43.30299" lon="5.68283">
        <ele>753</ele>
        <time>2019-11-29T10:27:31.000Z</time>
      </trkpt>
      <trkpt lat="43.30299" lon="5.68283">
        <ele>754</ele>
        <time>2019-11-29T10:27:32.000Z</time>
      </trkpt>
      <trkpt lat="43.303" lon="5.68284">
        <ele>754</ele>
        <time>2019-11-29T10:27:33.000Z</time>
      </trkpt>
      <trkpt lat="43.30301" lon="5.68284">
        <ele>754</ele>
        <time>2019-11-29T10:27:34.000Z</time>
      </trkpt>
      <trkpt lat="43.30301" lon="5.68285">
        <ele>754</ele>
        <time>2019-11-29T10:27:35.000Z</time>
      </trkpt>
      <trkpt lat="43.30302" lon="5.68286">
        <ele>754</ele>
        <time>2019-11-29T10:27:36.000Z</time>
      </trkpt>
      <trkpt lat="43.30302" lon="5.68287">
        <ele>754</ele>
        <time>2019-11-29T10:27:37.000Z</time>
      </trkpt>
      <trkpt lat="43.30303" lon="5.68287">
        <ele>755</ele>
        <time>2019-11-29T10:27:38.000Z</time>
      </trkpt>
      <trkpt lat="43.30303" lon="5.68287">
        <ele>755</ele>
        <time>2019-11-29T10:27:39.000Z</time>
      </trkpt>
      <trkpt lat="43.30304" lon="5.68288">
        <ele>755</ele>
        <time>2019-11-29T10:27:40.000Z</time>
      </trkpt>
      <trkpt lat="43.30305" lon="5.68288">
        <ele>755</ele>
        <time>2019-11-29T10:27:41.000Z</time>
      </trkpt>
      <trkpt lat="43.30305" lon="5.68289">
        <ele>755</ele>
        <time>2019-11-29T10:27:42.000Z</time>
      </trkpt>
      <trkpt lat="43.30306" lon="5.6829">
        <ele>756</ele>
        <time>2019-11-29T10:27:43.000Z</time>
      </trkpt>
      <trkpt lat="43.30307" lon="5.6829">
        <ele>756</ele>
        <time>2019-11-29T10:27:44.000Z</time>
      </trkpt>
      <trkpt lat="43.30307" lon="5.68291">
        <ele>756</ele>
        <time>2019-11-29T10:27:45.000Z</time>
      </trkpt>
      <trkpt lat="43.30308" lon="5.68292">
        <ele>756</ele>
        <time>2019-11-29T10:27:46.000Z</time>
      </trkpt>
      <trkpt lat="43.30308" lon="5.68292">
        <ele>756</ele>
        <time>2019-11-29T10:27:47.000Z</time>
      </trkpt>
      <trkpt lat="43.30309" lon="5.68293">
        <ele>756</ele>
        <time>2019-11-29T10:27:48.000Z</time>
      </trkpt>
      <trkpt lat="43.30309" lon="5.68294">
        <ele>757</ele>
        <time>2019-11-29T10:27:49.000Z</time>
      </trkpt>
      <trkpt lat="43.3031" lon="5.68294">
        <ele>757</ele>
        <time>2019-11-29T10:27:50.000Z</time>
      </trkpt>
      <trkpt lat="43.3031" lon="5.68295">
        <ele>757</ele>
        <time>2019-11-29T10:27:51.000Z</time>
      </trkpt>
      <trkpt lat="43.30311" lon="5.68296">
        <ele>757</ele>
        <time>2019-11-29T10:27:52.000Z</time>
      </trkpt>
      <trkpt lat="43.30311" lon="5.68296">
        <ele>757</ele>
        <time>2019-11-29T10:27:53.000Z</time>
      </trkpt>
      <trkpt lat="43.30312" lon="5.68297">
        <ele>757</ele>
        <time>2019-11-29T10:27:54.000Z</time>
      </trkpt>
      <trkpt lat="43.30312" lon="5.68298">
        <ele>757</ele>
        <time>2019-11-29T10:27:55.000Z</time>
      </trkpt>
      <trkpt lat="43.30312" lon="5.68299">
        <ele>757</ele>
        <time>2019-11-29T10:27:56.000Z</time>
      </trkpt>
      <trkpt lat="43.30312" lon="5.683">
        <ele>757</ele>
        <time>2019-11-29T10:27:57.000Z</time>
      </trkpt>
      <trkpt lat="43.30313" lon="5.683">
        <ele>758</ele>
        <time>2019-11-29T10:27:58.000Z</time>
      </trkpt>
      <trkpt lat="43.30313" lon="5.68301">
        <ele>758</ele>
        <time>2019-11-29T10:27:59.000Z</time>
      </trkpt>
      <trkpt lat="43.30313" lon="5.68302">
        <ele>758</ele>
        <time>2019-11-29T10:28:00.000Z</time>
      </trkpt>
      <trkpt lat="43.30314" lon="5.68303">
        <ele>758</ele>
        <time>2019-11-29T10:28:01.000Z</time>
      </trkpt>
      <trkpt lat="43.30314" lon="5.68303">
        <ele>758</ele>
        <time>2019-11-29T10:28:02.000Z</time>
      </trkpt>
      <trkpt lat="43.30315" lon="5.68304">
        <ele>758</ele>
        <time>2019-11-29T10:28:03.000Z</time>
      </trkpt>
      <trkpt lat="43.30315" lon="5.68305">
        <ele>758</ele>
        <time>2019-11-29T10:28:04.000Z</time>
      </trkpt>
      <trkpt lat="43.30316" lon="5.68305">
        <ele>759</ele>
        <time>2019-11-29T10:28:05.000Z</time>
      </trkpt>
      <trkpt lat="43.30316" lon="5.68306">
        <ele>759</ele>
        <time>2019-11-29T10:28:06.000Z</time>
      </trkpt>
      <trkpt lat="43.30317" lon="5.68306">
        <ele>759</ele>
        <time>2019-11-29T10:28:07.000Z</time>
      </trkpt>
      <trkpt lat="43.30317" lon="5.68306">
        <ele>759</ele>
        <time>2019-11-29T10:28:08.000Z</time>
      </trkpt>
      <trkpt lat="43.30318" lon="5.68307">
        <ele>759</ele>
        <time>2019-11-29T10:28:09.000Z</time>
      </trkpt>
      <trkpt lat="43.30318" lon="5.68307">
        <ele>759</ele>
        <time>2019-11-29T10:28:10.000Z</time>
      </trkpt>
      <trkpt lat="43.30319" lon="5.68307">
        <ele>759</ele>
        <time>2019-11-29T10:28:11.000Z</time>
      </trkpt>
      <trkpt lat="43.30319" lon="5.68308">
        <ele>759</ele>
        <time>2019-11-29T10:28:12.000Z</time>
      </trkpt>
      <trkpt lat="43.3032" lon="5.68308">
        <ele>759</ele>
        <time>2019-11-29T10:28:13.000Z</time>
      </trkpt>
      <trkpt lat="43.30321" lon="5.68309">
        <ele>759</ele>
        <time>2019-11-29T10:28:14.000Z</time>
      </trkpt>
      <trkpt lat="43.30321" lon="5.68309">
        <ele>759</ele>
        <time>2019-11-29T10:28:15.000Z</time>
      </trkpt>
      <trkpt lat="43.30321" lon="5.6831">
        <ele>759</ele>
        <time>2019-11-29T10:28:16.000Z</time>
      </trkpt>
      <trkpt lat="43.30322" lon="5.6831">
        <ele>759</ele>
        <time>2019-11-29T10:28:17.000Z</time>
      </trkpt>
      <trkpt lat="43.30322" lon="5.68311">
        <ele>759</ele>
        <time>2019-11-29T10:28:18.000Z</time>
      </trkpt>
      <trkpt lat="43.30322" lon="5.68312">
        <ele>760</ele>
        <time>2019-11-29T10:28:19.000Z</time>
      </trkpt>
      <trkpt lat="43.30323" lon="5.68312">
        <ele>760</ele>
        <time>2019-11-29T10:28:20.000Z</time>
      </trkpt>
      <trkpt lat="43.30323" lon="5.68313">
        <ele>760</ele>
        <time>2019-11-29T10:28:21.000Z</time>
      </trkpt>
      <trkpt lat="43.30323" lon="5.68314">
        <ele>760</ele>
        <time>2019-11-29T10:28:22.000Z</time>
      </trkpt>
      <trkpt lat="43.30323" lon="5.68314">
        <ele>760</ele>
        <time>2019-11-29T10:28:23.000Z</time>
      </trkpt>
      <trkpt lat="43.30324" lon="5.68315">
        <ele>760</ele>
        <time>2019-11-29T10:28:24.000Z</time>
      </trkpt>
      <trkpt lat="43.30324" lon="5.68316">
        <ele>760</ele>
        <time>2019-11-29T10:28:25.000Z</time>
      </trkpt>
      <trkpt lat="43.30324" lon="5.68317">
        <ele>760</ele>
        <time>2019-11-29T10:28:26.000Z</time>
      </trkpt>
      <trkpt lat="43.30324" lon="5.68317">
        <ele>760</ele>
        <time>2019-11-29T10:28:27.000Z</time>
      </trkpt>
      <trkpt lat="43.30325" lon="5.68318">
        <ele>760</ele>
        <time>2019-11-29T10:28:28.000Z</time>
      </trkpt>
      <trkpt lat="43.30325" lon="5.68319">
        <ele>760</ele>
        <time>2019-11-29T10:28:29.000Z</time>
      </trkpt>
      <trkpt lat="43.30325" lon="5.6832">
        <ele>760</ele>
        <time>2019-11-29T10:28:30.000Z</time>
      </trkpt>
      <trkpt lat="43.30326" lon="5.68321">
        <ele>761</ele>
        <time>2019-11-29T10:28:31.000Z</time>
      </trkpt>
      <trkpt lat="43.30326" lon="5.68322">
        <ele>761</ele>
        <time>2019-11-29T10:28:32.000Z</time>
      </trkpt>
      <trkpt lat="43.30327" lon="5.68322">
        <ele>761</ele>
        <time>2019-11-29T10:28:33.000Z</time>
      </trkpt>
      <trkpt lat="43.30327" lon="5.68322">
        <ele>761</ele>
        <time>2019-11-29T10:28:34.000Z</time>
      </trkpt>
      <trkpt lat="43.30327" lon="5.68323">
        <ele>761</ele>
        <time>2019-11-29T10:28:35.000Z</time>
      </trkpt>
      <trkpt lat="43.30328" lon="5.68324">
        <ele>761</ele>
        <time>2019-11-29T10:28:36.000Z</time>
      </trkpt>
      <trkpt lat="43.30328" lon="5.68324">
        <ele>761</ele>
        <time>2019-11-29T10:28:37.000Z</time>
      </trkpt>
      <trkpt lat="43.30329" lon="5.68325">
        <ele>761</ele>
        <time>2019-11-29T10:28:38.000Z</time>
      </trkpt>
      <trkpt lat="43.30329" lon="5.68326">
        <ele>761</ele>
        <time>2019-11-29T10:28:39.000Z</time>
      </trkpt>
      <trkpt lat="43.3033" lon="5.68326">
        <ele>761</ele>
        <time>2019-11-29T10:28:40.000Z</time>
      </trkpt>
      <trkpt lat="43.30331" lon="5.68327">
        <ele>761</ele>
        <time>2019-11-29T10:28:41.000Z</time>
      </trkpt>
      <trkpt lat="43.30331" lon="5.68328">
        <ele>761</ele>
        <time>2019-11-29T10:28:42.000Z</time>
      </trkpt>
      <trkpt lat="43.30332" lon="5.68329">
        <ele>762</ele>
        <time>2019-11-29T10:28:43.000Z</time>
      </trkpt>
      <trkpt lat="43.30332" lon="5.6833">
        <ele>762</ele>
        <time>2019-11-29T10:28:44.000Z</time>
      </trkpt>
      <trkpt lat="43.30333" lon="5.68331">
        <ele>762</ele>
        <time>2019-11-29T10:28:45.000Z</time>
      </trkpt>
      <trkpt lat="43.30333" lon="5.68332">
        <ele>762</ele>
        <time>2019-11-29T10:28:46.000Z</time>
      </trkpt>
      <trkpt lat="43.30334" lon="5.68333">
        <ele>762</ele>
        <time>2019-11-29T10:28:47.000Z</time>
      </trkpt>
      <trkpt lat="43.30334" lon="5.68334">
        <ele>762</ele>
        <time>2019-11-29T10:28:48.000Z</time>
      </trkpt>
      <trkpt lat="43.30334" lon="5.68335">
        <ele>762</ele>
        <time>2019-11-29T10:28:49.000Z</time>
      </trkpt>
      <trkpt lat="43.30335" lon="5.68336">
        <ele>762</ele>
        <time>2019-11-29T10:28:50.000Z</time>
      </trkpt>
      <trkpt lat="43.30335" lon="5.68337">
        <ele>762</ele>
        <time>2019-11-29T10:28:51.000Z</time>
      </trkpt>
      <trkpt lat="43.30336" lon="5.68338">
        <ele>762</ele>
        <time>2019-11-29T10:28:52.000Z</time>
      </trkpt>
      <trkpt lat="43.30336" lon="5.68339">
        <ele>762</ele>
        <time>2019-11-29T10:28:53.000Z</time>
      </trkpt>
      <trkpt lat="43.30336" lon="5.6834">
        <ele>762</ele>
        <time>2019-11-29T10:28:54.000Z</time>
      </trkpt>
      <trkpt lat="43.30336" lon="5.68341">
        <ele>762</ele>
        <time>2019-11-29T10:28:55.000Z</time>
      </trkpt>
      <trkpt lat="43.30336" lon="5.68341">
        <ele>762</ele>
        <time>2019-11-29T10:28:56.000Z</time>
      </trkpt>
      <trkpt lat="43.30337" lon="5.68342">
        <ele>762</ele>
        <time>2019-11-29T10:28:57.000Z</time>
      </trkpt>
      <trkpt lat="43.30337" lon="5.68343">
        <ele>762</ele>
        <time>2019-11-29T10:28:58.000Z</time>
      </trkpt>
      <trkpt lat="43.30337" lon="5.68344">
        <ele>762</ele>
        <time>2019-11-29T10:28:59.000Z</time>
      </trkpt>
      <trkpt lat="43.30338" lon="5.68345">
        <ele>763</ele>
        <time>2019-11-29T10:29:00.000Z</time>
      </trkpt>
      <trkpt lat="43.30338" lon="5.68346">
        <ele>763</ele>
        <time>2019-11-29T10:29:01.000Z</time>
      </trkpt>
      <trkpt lat="43.30339" lon="5.68347">
        <ele>763</ele>
        <time>2019-11-29T10:29:02.000Z</time>
      </trkpt>
      <trkpt lat="43.30339" lon="5.68348">
        <ele>763</ele>
        <time>2019-11-29T10:29:03.000Z</time>
      </trkpt>
      <trkpt lat="43.3034" lon="5.68349">
        <ele>763</ele>
        <time>2019-11-29T10:29:04.000Z</time>
      </trkpt>
      <trkpt lat="43.3034" lon="5.6835">
        <ele>762</ele>
        <time>2019-11-29T10:29:05.000Z</time>
      </trkpt>
      <trkpt lat="43.30341" lon="5.6835">
        <ele>763</ele>
        <time>2019-11-29T10:29:06.000Z</time>
      </trkpt>
      <trkpt lat="43.30341" lon="5.68351">
        <ele>763</ele>
        <time>2019-11-29T10:29:07.000Z</time>
      </trkpt>
      <trkpt lat="43.30341" lon="5.68352">
        <ele>763</ele>
        <time>2019-11-29T10:29:08.000Z</time>
      </trkpt>
      <trkpt lat="43.30342" lon="5.68353">
        <ele>763</ele>
        <time>2019-11-29T10:29:09.000Z</time>
      </trkpt>
      <trkpt lat="43.30342" lon="5.68353">
        <ele>763</ele>
        <time>2019-11-29T10:29:10.000Z</time>
      </trkpt>
      <trkpt lat="43.30343" lon="5.68354">
        <ele>763</ele>
        <time>2019-11-29T10:29:11.000Z</time>
      </trkpt>
      <trkpt lat="43.30343" lon="5.68354">
        <ele>763</ele>
        <time>2019-11-29T10:29:12.000Z</time>
      </trkpt>
      <trkpt lat="43.30343" lon="5.68355">
        <ele>763</ele>
        <time>2019-11-29T10:29:13.000Z</time>
      </trkpt>
      <trkpt lat="43.30344" lon="5.68356">
        <ele>763</ele>
        <time>2019-11-29T10:29:14.000Z</time>
      </trkpt>
      <trkpt lat="43.30345" lon="5.68356">
        <ele>763</ele>
        <time>2019-11-29T10:29:15.000Z</time>
      </trkpt>
      <trkpt lat="43.30345" lon="5.68358">
        <ele>763</ele>
        <time>2019-11-29T10:29:16.000Z</time>
      </trkpt>
      <trkpt lat="43.30346" lon="5.68359">
        <ele>763</ele>
        <time>2019-11-29T10:29:17.000Z</time>
      </trkpt>
      <trkpt lat="43.30347" lon="5.6836">
        <ele>763</ele>
        <time>2019-11-29T10:29:18.000Z</time>
      </trkpt>
      <trkpt lat="43.30347" lon="5.6836">
        <ele>764</ele>
        <time>2019-11-29T10:29:19.000Z</time>
      </trkpt>
      <trkpt lat="43.30348" lon="5.68361">
        <ele>764</ele>
        <time>2019-11-29T10:29:20.000Z</time>
      </trkpt>
      <trkpt lat="43.30348" lon="5.68362">
        <ele>764</ele>
        <time>2019-11-29T10:29:21.000Z</time>
      </trkpt>
      <trkpt lat="43.30349" lon="5.68363">
        <ele>764</ele>
        <time>2019-11-29T10:29:22.000Z</time>
      </trkpt>
      <trkpt lat="43.30349" lon="5.68365">
        <ele>764</ele>
        <time>2019-11-29T10:29:23.000Z</time>
      </trkpt>
      <trkpt lat="43.3035" lon="5.68366">
        <ele>764</ele>
        <time>2019-11-29T10:29:24.000Z</time>
      </trkpt>
      <trkpt lat="43.3035" lon="5.68367">
        <ele>764</ele>
        <time>2019-11-29T10:29:25.000Z</time>
      </trkpt>
      <trkpt lat="43.30351" lon="5.68368">
        <ele>764</ele>
        <time>2019-11-29T10:29:26.000Z</time>
      </trkpt>
      <trkpt lat="43.30351" lon="5.6837">
        <ele>764</ele>
        <time>2019-11-29T10:29:27.000Z</time>
      </trkpt>
      <trkpt lat="43.30351" lon="5.68371">
        <ele>764</ele>
        <time>2019-11-29T10:29:28.000Z</time>
      </trkpt>
      <trkpt lat="43.30352" lon="5.68372">
        <ele>764</ele>
        <time>2019-11-29T10:29:29.000Z</time>
      </trkpt>
      <trkpt lat="43.30352" lon="5.68373">
        <ele>764</ele>
        <time>2019-11-29T10:29:30.000Z</time>
      </trkpt>
      <trkpt lat="43.30352" lon="5.68375">
        <ele>764</ele>
        <time>2019-11-29T10:29:31.000Z</time>
      </trkpt>
      <trkpt lat="43.30353" lon="5.68376">
        <ele>764</ele>
        <time>2019-11-29T10:29:32.000Z</time>
      </trkpt>
      <trkpt lat="43.30353" lon="5.68377">
        <ele>764</ele>
        <time>2019-11-29T10:29:33.000Z</time>
      </trkpt>
      <trkpt lat="43.30353" lon="5.68378">
        <ele>764</ele>
        <time>2019-11-29T10:29:34.000Z</time>
      </trkpt>
      <trkpt lat="43.30354" lon="5.68379">
        <ele>764</ele>
        <time>2019-11-29T10:29:35.000Z</time>
      </trkpt>
      <trkpt lat="43.30354" lon="5.6838">
        <ele>764</ele>
        <time>2019-11-29T10:29:36.000Z</time>
      </trkpt>
      <trkpt lat="43.30355" lon="5.68382">
        <ele>765</ele>
        <time>2019-11-29T10:29:37.000Z</time>
      </trkpt>
      <trkpt lat="43.30355" lon="5.68383">
        <ele>765</ele>
        <time>2019-11-29T10:29:38.000Z</time>
      </trkpt>
      <trkpt lat="43.30355" lon="5.68385">
        <ele>765</ele>
        <time>2019-11-29T10:29:39.000Z</time>
      </trkpt>
      <trkpt lat="43.30355" lon="5.68386">
        <ele>765</ele>
        <time>2019-11-29T10:29:40.000Z</time>
      </trkpt>
      <trkpt lat="43.30355" lon="5.68387">
        <ele>765</ele>
        <time>2019-11-29T10:29:41.000Z</time>
      </trkpt>
      <trkpt lat="43.30355" lon="5.68389">
        <ele>765</ele>
        <time>2019-11-29T10:29:42.000Z</time>
      </trkpt>
      <trkpt lat="43.30355" lon="5.6839">
        <ele>765</ele>
        <time>2019-11-29T10:29:43.000Z</time>
      </trkpt>
      <trkpt lat="43.30356" lon="5.68391">
        <ele>765</ele>
        <time>2019-11-29T10:29:44.000Z</time>
      </trkpt>
      <trkpt lat="43.30356" lon="5.68393">
        <ele>765</ele>
        <time>2019-11-29T10:29:45.000Z</time>
      </trkpt>
      <trkpt lat="43.30356" lon="5.68394">
        <ele>765</ele>
        <time>2019-11-29T10:29:46.000Z</time>
      </trkpt>
      <trkpt lat="43.30356" lon="5.68395">
        <ele>765</ele>
        <time>2019-11-29T10:29:47.000Z</time>
      </trkpt>
      <trkpt lat="43.30357" lon="5.68397">
        <ele>765</ele>
        <time>2019-11-29T10:29:48.000Z</time>
      </trkpt>
      <trkpt lat="43.30357" lon="5.68398">
        <ele>765</ele>
        <time>2019-11-29T10:29:49.000Z</time>
      </trkpt>
      <trkpt lat="43.30357" lon="5.68399">
        <ele>765</ele>
        <time>2019-11-29T10:29:50.000Z</time>
      </trkpt>
      <trkpt lat="43.30357" lon="5.68401">
        <ele>765</ele>
        <time>2019-11-29T10:29:51.000Z</time>
      </trkpt>
      <trkpt lat="43.30358" lon="5.68402">
        <ele>766</ele>
        <time>2019-11-29T10:29:52.000Z</time>
      </trkpt>
      <trkpt lat="43.30358" lon="5.68403">
        <ele>766</ele>
        <time>2019-11-29T10:29:53.000Z</time>
      </trkpt>
      <trkpt lat="43.30358" lon="5.68404">
        <ele>766</ele>
        <time>2019-11-29T10:29:54.000Z</time>
      </trkpt>
      <trkpt lat="43.30358" lon="5.68405">
        <ele>766</ele>
        <time>2019-11-29T10:29:55.000Z</time>
      </trkpt>
      <trkpt lat="43.30359" lon="5.68406">
        <ele>766</ele>
        <time>2019-11-29T10:29:56.000Z</time>
      </trkpt>
      <trkpt lat="43.30359" lon="5.68407">
        <ele>766</ele>
        <time>2019-11-29T10:29:57.000Z</time>
      </trkpt>
      <trkpt lat="43.30359" lon="5.68407">
        <ele>766</ele>
        <time>2019-11-29T10:29:58.000Z</time>
      </trkpt>
      <trkpt lat="43.30359" lon="5.68408">
        <ele>766</ele>
        <time>2019-11-29T10:29:59.000Z</time>
      </trkpt>
      <trkpt lat="43.3036" lon="5.6841">
        <ele>766</ele>
        <time>2019-11-29T10:30:00.000Z</time>
      </trkpt>
      <trkpt lat="43.3036" lon="5.68411">
        <ele>766</ele>
        <time>2019-11-29T10:30:01.000Z</time>
      </trkpt>
      <trkpt lat="43.3036" lon="5.68412">
        <ele>766</ele>
        <time>2019-11-29T10:30:02.000Z</time>
      </trkpt>
      <trkpt lat="43.3036" lon="5.68413">
        <ele>766</ele>
        <time>2019-11-29T10:30:03.000Z</time>
      </trkpt>
      <trkpt lat="43.30361" lon="5.68415">
        <ele>766</ele>
        <time>2019-11-29T10:30:04.000Z</time>
      </trkpt>
      <trkpt lat="43.30361" lon="5.68416">
        <ele>766</ele>
        <time>2019-11-29T10:30:05.000Z</time>
      </trkpt>
      <trkpt lat="43.30361" lon="5.68417">
        <ele>766</ele>
        <time>2019-11-29T10:30:06.000Z</time>
      </trkpt>
      <trkpt lat="43.30361" lon="5.68417">
        <ele>766</ele>
        <time>2019-11-29T10:30:07.000Z</time>
      </trkpt>
      <trkpt lat="43.30361" lon="5.68417">
        <ele>766</ele>
        <time>2019-11-29T10:30:08.000Z</time>
      </trkpt>
      <trkpt lat="43.30361" lon="5.68417">
        <ele>766</ele>
        <time>2019-11-29T10:30:09.000Z</time>
      </trkpt>
      <trkpt lat="43.30361" lon="5.68417">
        <ele>766</ele>
        <time>2019-11-29T10:30:10.000Z</time>
      </trkpt>
      <trkpt lat="43.30361" lon="5.68417">
        <ele>766</ele>
        <time>2019-11-29T10:30:11.000Z</time>
      </trkpt>
      <trkpt lat="43.30361" lon="5.68417">
        <ele>766</ele>
        <time>2019-11-29T10:30:12.000Z</time>
      </trkpt>
      <trkpt lat="43.30361" lon="5.68417">
        <ele>766</ele>
        <time>2019-11-29T10:30:13.000Z</time>
      </trkpt>
      <trkpt lat="43.30361" lon="5.68417">
        <ele>766</ele>
        <time>2019-11-29T10:30:14.000Z</time>
      </trkpt>
      <trkpt lat="43.30361" lon="5.68417">
        <ele>766</ele>
        <time>2019-11-29T10:30:15.000Z</time>
      </trkpt>
      <trkpt lat="43.30362" lon="5.68418">
        <ele>766</ele>
        <time>2019-11-29T10:30:16.000Z</time>
      </trkpt>
      <trkpt lat="43.30362" lon="5.68419">
        <ele>766</ele>
        <time>2019-11-29T10:30:17.000Z</time>
      </trkpt>
      <trkpt lat="43.30362" lon="5.6842">
        <ele>766</ele>
        <time>2019-11-29T10:30:18.000Z</time>
      </trkpt>
      <trkpt lat="43.30362" lon="5.68421">
        <ele>766</ele>
        <time>2019-11-29T10:30:19.000Z</time>
      </trkpt>
      <trkpt lat="43.30362" lon="5.68423">
        <ele>766</ele>
        <time>2019-11-29T10:30:20.000Z</time>
      </trkpt>
      <trkpt lat="43.30362" lon="5.68424">
        <ele>766</ele>
        <time>2019-11-29T10:30:21.000Z</time>
      </trkpt>
      <trkpt lat="43.30362" lon="5.68425">
        <ele>766</ele>
        <time>2019-11-29T10:30:22.000Z</time>
      </trkpt>
      <trkpt lat="43.30362" lon="5.68426">
        <ele>766</ele>
        <time>2019-11-29T10:30:23.000Z</time>
      </trkpt>
      <trkpt lat="43.30362" lon="5.68427">
        <ele>766</ele>
        <time>2019-11-29T10:30:24.000Z</time>
      </trkpt>
      <trkpt lat="43.30362" lon="5.68428">
        <ele>766</ele>
        <time>2019-11-29T10:30:25.000Z</time>
      </trkpt>
      <trkpt lat="43.30363" lon="5.68429">
        <ele>766</ele>
        <time>2019-11-29T10:30:26.000Z</time>
      </trkpt>
      <trkpt lat="43.30363" lon="5.68431">
        <ele>766</ele>
        <time>2019-11-29T10:30:27.000Z</time>
      </trkpt>
      <trkpt lat="43.30364" lon="5.68432">
        <ele>766</ele>
        <time>2019-11-29T10:30:28.000Z</time>
      </trkpt>
      <trkpt lat="43.30364" lon="5.68433">
        <ele>767</ele>
        <time>2019-11-29T10:30:29.000Z</time>
      </trkpt>
      <trkpt lat="43.30364" lon="5.68435">
        <ele>767</ele>
        <time>2019-11-29T10:30:30.000Z</time>
      </trkpt>
      <trkpt lat="43.30365" lon="5.68436">
        <ele>767</ele>
        <time>2019-11-29T10:30:31.000Z</time>
      </trkpt>
      <trkpt lat="43.30365" lon="5.68438">
        <ele>767</ele>
        <time>2019-11-29T10:30:32.000Z</time>
      </trkpt>
      <trkpt lat="43.30366" lon="5.68439">
        <ele>767</ele>
        <time>2019-11-29T10:30:33.000Z</time>
      </trkpt>
      <trkpt lat="43.30366" lon="5.6844">
        <ele>767</ele>
        <time>2019-11-29T10:30:34.000Z</time>
      </trkpt>
      <trkpt lat="43.30366" lon="5.68442">
        <ele>767</ele>
        <time>2019-11-29T10:30:35.000Z</time>
      </trkpt>
      <trkpt lat="43.30367" lon="5.68444">
        <ele>767</ele>
        <time>2019-11-29T10:30:36.000Z</time>
      </trkpt>
      <trkpt lat="43.30367" lon="5.68445">
        <ele>767</ele>
        <time>2019-11-29T10:30:37.000Z</time>
      </trkpt>
      <trkpt lat="43.30367" lon="5.68446">
        <ele>767</ele>
        <time>2019-11-29T10:30:38.000Z</time>
      </trkpt>
      <trkpt lat="43.30367" lon="5.68448">
        <ele>767</ele>
        <time>2019-11-29T10:30:39.000Z</time>
      </trkpt>
      <trkpt lat="43.30368" lon="5.68449">
        <ele>767</ele>
        <time>2019-11-29T10:30:40.000Z</time>
      </trkpt>
      <trkpt lat="43.30368" lon="5.68451">
        <ele>767</ele>
        <time>2019-11-29T10:30:41.000Z</time>
      </trkpt>
      <trkpt lat="43.30368" lon="5.68452">
        <ele>767</ele>
        <time>2019-11-29T10:30:42.000Z</time>
      </trkpt>
      <trkpt lat="43.30368" lon="5.68454">
        <ele>767</ele>
        <time>2019-11-29T10:30:43.000Z</time>
      </trkpt>
      <trkpt lat="43.30368" lon="5.68455">
        <ele>767</ele>
        <time>2019-11-29T10:30:44.000Z</time>
      </trkpt>
      <trkpt lat="43.30368" lon="5.68457">
        <ele>767</ele>
        <time>2019-11-29T10:30:45.000Z</time>
      </trkpt>
      <trkpt lat="43.30368" lon="5.68458">
        <ele>767</ele>
        <time>2019-11-29T10:30:46.000Z</time>
      </trkpt>
      <trkpt lat="43.30368" lon="5.6846">
        <ele>767</ele>
        <time>2019-11-29T10:30:47.000Z</time>
      </trkpt>
      <trkpt lat="43.30368" lon="5.68461">
        <ele>768</ele>
        <time>2019-11-29T10:30:48.000Z</time>
      </trkpt>
      <trkpt lat="43.30369" lon="5.68462">
        <ele>768</ele>
        <time>2019-11-29T10:30:49.000Z</time>
      </trkpt>
      <trkpt lat="43.30369" lon="5.68463">
        <ele>768</ele>
        <time>2019-11-29T10:30:50.000Z</time>
      </trkpt>
      <trkpt lat="43.3037" lon="5.68465">
        <ele>768</ele>
        <time>2019-11-29T10:30:51.000Z</time>
      </trkpt>
      <trkpt lat="43.3037" lon="5.68466">
        <ele>768</ele>
        <time>2019-11-29T10:30:52.000Z</time>
      </trkpt>
      <trkpt lat="43.3037" lon="5.68467">
        <ele>768</ele>
        <time>2019-11-29T10:30:53.000Z</time>
      </trkpt>
      <trkpt lat="43.30371" lon="5.68468">
        <ele>768</ele>
        <time>2019-11-29T10:30:54.000Z</time>
      </trkpt>
      <trkpt lat="43.30371" lon="5.6847">
        <ele>768</ele>
        <time>2019-11-29T10:30:55.000Z</time>
      </trkpt>
      <trkpt lat="43.30372" lon="5.68471">
        <ele>768</ele>
        <time>2019-11-29T10:30:56.000Z</time>
      </trkpt>
      <trkpt lat="43.30372" lon="5.68472">
        <ele>768</ele>
        <time>2019-11-29T10:30:57.000Z</time>
      </trkpt>
      <trkpt lat="43.30372" lon="5.68474">
        <ele>768</ele>
        <time>2019-11-29T10:30:58.000Z</time>
      </trkpt>
      <trkpt lat="43.30373" lon="5.68475">
        <ele>768</ele>
        <time>2019-11-29T10:30:59.000Z</time>
      </trkpt>
      <trkpt lat="43.30373" lon="5.68476">
        <ele>768</ele>
        <time>2019-11-29T10:31:00.000Z</time>
      </trkpt>
      <trkpt lat="43.30374" lon="5.68477">
        <ele>768</ele>
        <time>2019-11-29T10:31:01.000Z</time>
      </trkpt>
      <trkpt lat="43.30374" lon="5.68478">
        <ele>768</ele>
        <time>2019-11-29T10:31:02.000Z</time>
      </trkpt>
      <trkpt lat="43.30375" lon="5.68479">
        <ele>769</ele>
        <time>2019-11-29T10:31:03.000Z</time>
      </trkpt>
      <trkpt lat="43.30376" lon="5.6848">
        <ele>769</ele>
        <time>2019-11-29T10:31:04.000Z</time>
      </trkpt>
      <trkpt lat="43.30377" lon="5.6848">
        <ele>769</ele>
        <time>2019-11-29T10:31:05.000Z</time>
      </trkpt>
      <trkpt lat="43.30377" lon="5.68481">
        <ele>769</ele>
        <time>2019-11-29T10:31:06.000Z</time>
      </trkpt>
      <trkpt lat="43.30378" lon="5.68482">
        <ele>769</ele>
        <time>2019-11-29T10:31:07.000Z</time>
      </trkpt>
      <trkpt lat="43.30379" lon="5.68483">
        <ele>769</ele>
        <time>2019-11-29T10:31:08.000Z</time>
      </trkpt>
      <trkpt lat="43.3038" lon="5.68485">
        <ele>769</ele>
        <time>2019-11-29T10:31:09.000Z</time>
      </trkpt>
      <trkpt lat="43.3038" lon="5.68486">
        <ele>769</ele>
        <time>2019-11-29T10:31:10.000Z</time>
      </trkpt>
      <trkpt lat="43.30381" lon="5.68487">
        <ele>770</ele>
        <time>2019-11-29T10:31:11.000Z</time>
      </trkpt>
      <trkpt lat="43.30381" lon="5.68488">
        <ele>770</ele>
        <time>2019-11-29T10:31:12.000Z</time>
      </trkpt>
      <trkpt lat="43.30382" lon="5.68489">
        <ele>770</ele>
        <time>2019-11-29T10:31:13.000Z</time>
      </trkpt>
      <trkpt lat="43.30383" lon="5.6849">
        <ele>770</ele>
        <time>2019-11-29T10:31:14.000Z</time>
      </trkpt>
      <trkpt lat="43.30383" lon="5.68491">
        <ele>770</ele>
        <time>2019-11-29T10:31:15.000Z</time>
      </trkpt>
      <trkpt lat="43.30384" lon="5.68493">
        <ele>770</ele>
        <time>2019-11-29T10:31:16.000Z</time>
      </trkpt>
      <trkpt lat="43.30384" lon="5.68494">
        <ele>770</ele>
        <time>2019-11-29T10:31:17.000Z</time>
      </trkpt>
      <trkpt lat="43.30385" lon="5.68495">
        <ele>770</ele>
        <time>2019-11-29T10:31:18.000Z</time>
      </trkpt>
      <trkpt lat="43.30386" lon="5.68497">
        <ele>770</ele>
        <time>2019-11-29T10:31:19.000Z</time>
      </trkpt>
      <trkpt lat="43.30386" lon="5.68497">
        <ele>770</ele>
        <time>2019-11-29T10:31:20.000Z</time>
      </trkpt>
      <trkpt lat="43.30387" lon="5.68498">
        <ele>770</ele>
        <time>2019-11-29T10:31:21.000Z</time>
      </trkpt>
      <trkpt lat="43.30388" lon="5.68499">
        <ele>770</ele>
        <time>2019-11-29T10:31:22.000Z</time>
      </trkpt>
      <trkpt lat="43.30388" lon="5.685">
        <ele>770</ele>
        <time>2019-11-29T10:31:23.000Z</time>
      </trkpt>
      <trkpt lat="43.30389" lon="5.68501">
        <ele>770</ele>
        <time>2019-11-29T10:31:24.000Z</time>
      </trkpt>
      <trkpt lat="43.30389" lon="5.68502">
        <ele>770</ele>
        <time>2019-11-29T10:31:25.000Z</time>
      </trkpt>
      <trkpt lat="43.30389" lon="5.68503">
        <ele>770</ele>
        <time>2019-11-29T10:31:26.000Z</time>
      </trkpt>
      <trkpt lat="43.3039" lon="5.68504">
        <ele>770</ele>
        <time>2019-11-29T10:31:27.000Z</time>
      </trkpt>
      <trkpt lat="43.3039" lon="5.68505">
        <ele>770</ele>
        <time>2019-11-29T10:31:28.000Z</time>
      </trkpt>
      <trkpt lat="43.30391" lon="5.68506">
        <ele>770</ele>
        <time>2019-11-29T10:31:29.000Z</time>
      </trkpt>
      <trkpt lat="43.30392" lon="5.68506">
        <ele>770</ele>
        <time>2019-11-29T10:31:30.000Z</time>
      </trkpt>
      <trkpt lat="43.30392" lon="5.68507">
        <ele>770</ele>
        <time>2019-11-29T10:31:31.000Z</time>
      </trkpt>
      <trkpt lat="43.30393" lon="5.68507">
        <ele>770</ele>
        <time>2019-11-29T10:31:32.000Z</time>
      </trkpt>
      <trkpt lat="43.30394" lon="5.68508">
        <ele>770</ele>
        <time>2019-11-29T10:31:33.000Z</time>
      </trkpt>
      <trkpt lat="43.30394" lon="5.68509">
        <ele>770</ele>
        <time>2019-11-29T10:31:34.000Z</time>
      </trkpt>
      <trkpt lat="43.30395" lon="5.6851">
        <ele>770</ele>
        <time>2019-11-29T10:31:35.000Z</time>
      </trkpt>
      <trkpt lat="43.30395" lon="5.6851">
        <ele>770</ele>
        <time>2019-11-29T10:31:36.000Z</time>
      </trkpt>
      <trkpt lat="43.30396" lon="5.68511">
        <ele>770</ele>
        <time>2019-11-29T10:31:37.000Z</time>
      </trkpt>
      <trkpt lat="43.30397" lon="5.68511">
        <ele>770</ele>
        <time>2019-11-29T10:31:38.000Z</time>
      </trkpt>
      <trkpt lat="43.30397" lon="5.68512">
        <ele>770</ele>
        <time>2019-11-29T10:31:39.000Z</time>
      </trkpt>
      <trkpt lat="43.30398" lon="5.68513">
        <ele>770</ele>
        <time>2019-11-29T10:31:40.000Z</time>
      </trkpt>
      <trkpt lat="43.30398" lon="5.68514">
        <ele>770</ele>
        <time>2019-11-29T10:31:41.000Z</time>
      </trkpt>
      <trkpt lat="43.30398" lon="5.68515">
        <ele>770</ele>
        <time>2019-11-29T10:31:42.000Z</time>
      </trkpt>
      <trkpt lat="43.30399" lon="5.68517">
        <ele>770</ele>
        <time>2019-11-29T10:31:43.000Z</time>
      </trkpt>
      <trkpt lat="43.30399" lon="5.68517">
        <ele>770</ele>
        <time>2019-11-29T10:31:44.000Z</time>
      </trkpt>
      <trkpt lat="43.304" lon="5.68518">
        <ele>770</ele>
        <time>2019-11-29T10:31:45.000Z</time>
      </trkpt>
      <trkpt lat="43.304" lon="5.68518">
        <ele>770</ele>
        <time>2019-11-29T10:31:46.000Z</time>
      </trkpt>
      <trkpt lat="43.304" lon="5.68519">
        <ele>770</ele>
        <time>2019-11-29T10:31:47.000Z</time>
      </trkpt>
      <trkpt lat="43.304" lon="5.6852">
        <ele>770</ele>
        <time>2019-11-29T10:31:48.000Z</time>
      </trkpt>
      <trkpt lat="43.304" lon="5.68521">
        <ele>770</ele>
        <time>2019-11-29T10:31:49.000Z</time>
      </trkpt>
      <trkpt lat="43.304" lon="5.68521">
        <ele>770</ele>
        <time>2019-11-29T10:31:50.000Z</time>
      </trkpt>
      <trkpt lat="43.30401" lon="5.68522">
        <ele>770</ele>
        <time>2019-11-29T10:31:51.000Z</time>
      </trkpt>
      <trkpt lat="43.30401" lon="5.68524">
        <ele>770</ele>
        <time>2019-11-29T10:31:52.000Z</time>
      </trkpt>
      <trkpt lat="43.30401" lon="5.68525">
        <ele>770</ele>
        <time>2019-11-29T10:31:53.000Z</time>
      </trkpt>
      <trkpt lat="43.30401" lon="5.68526">
        <ele>770</ele>
        <time>2019-11-29T10:31:54.000Z</time>
      </trkpt>
      <trkpt lat="43.30401" lon="5.68527">
        <ele>770</ele>
        <time>2019-11-29T10:31:55.000Z</time>
      </trkpt>
      <trkpt lat="43.30401" lon="5.68528">
        <ele>769</ele>
        <time>2019-11-29T10:31:56.000Z</time>
      </trkpt>
      <trkpt lat="43.30401" lon="5.6853">
        <ele>769</ele>
        <time>2019-11-29T10:31:57.000Z</time>
      </trkpt>
      <trkpt lat="43.30401" lon="5.68531">
        <ele>769</ele>
        <time>2019-11-29T10:31:58.000Z</time>
      </trkpt>
      <trkpt lat="43.30401" lon="5.68532">
        <ele>769</ele>
        <time>2019-11-29T10:31:59.000Z</time>
      </trkpt>
      <trkpt lat="43.30401" lon="5.68533">
        <ele>769</ele>
        <time>2019-11-29T10:32:00.000Z</time>
      </trkpt>
      <trkpt lat="43.30401" lon="5.68533">
        <ele>769</ele>
        <time>2019-11-29T10:32:01.000Z</time>
      </trkpt>
      <trkpt lat="43.30401" lon="5.68534">
        <ele>768</ele>
        <time>2019-11-29T10:32:02.000Z</time>
      </trkpt>
      <trkpt lat="43.304" lon="5.68535">
        <ele>768</ele>
        <time>2019-11-29T10:32:03.000Z</time>
      </trkpt>
      <trkpt lat="43.304" lon="5.68537">
        <ele>768</ele>
        <time>2019-11-29T10:32:04.000Z</time>
      </trkpt>
      <trkpt lat="43.304" lon="5.68538">
        <ele>768</ele>
        <time>2019-11-29T10:32:05.000Z</time>
      </trkpt>
      <trkpt lat="43.304" lon="5.68539">
        <ele>768</ele>
        <time>2019-11-29T10:32:06.000Z</time>
      </trkpt>
      <trkpt lat="43.304" lon="5.68541">
        <ele>768</ele>
        <time>2019-11-29T10:32:07.000Z</time>
      </trkpt>
      <trkpt lat="43.304" lon="5.68542">
        <ele>767</ele>
        <time>2019-11-29T10:32:08.000Z</time>
      </trkpt>
      <trkpt lat="43.304" lon="5.68543">
        <ele>767</ele>
        <time>2019-11-29T10:32:09.000Z</time>
      </trkpt>
      <trkpt lat="43.304" lon="5.68544">
        <ele>767</ele>
        <time>2019-11-29T10:32:10.000Z</time>
      </trkpt>
      <trkpt lat="43.304" lon="5.68546">
        <ele>767</ele>
        <time>2019-11-29T10:32:11.000Z</time>
      </trkpt>
      <trkpt lat="43.304" lon="5.68547">
        <ele>767</ele>
        <time>2019-11-29T10:32:12.000Z</time>
      </trkpt>
      <trkpt lat="43.30399" lon="5.68548">
        <ele>767</ele>
        <time>2019-11-29T10:32:13.000Z</time>
      </trkpt>
      <trkpt lat="43.30399" lon="5.68549">
        <ele>766</ele>
        <time>2019-11-29T10:32:14.000Z</time>
      </trkpt>
      <trkpt lat="43.30398" lon="5.6855">
        <ele>766</ele>
        <time>2019-11-29T10:32:15.000Z</time>
      </trkpt>
      <trkpt lat="43.30398" lon="5.68551">
        <ele>766</ele>
        <time>2019-11-29T10:32:16.000Z</time>
      </trkpt>
      <trkpt lat="43.30398" lon="5.68552">
        <ele>766</ele>
        <time>2019-11-29T10:32:17.000Z</time>
      </trkpt>
      <trkpt lat="43.30397" lon="5.68554">
        <ele>766</ele>
        <time>2019-11-29T10:32:18.000Z</time>
      </trkpt>
      <trkpt lat="43.30397" lon="5.68555">
        <ele>766</ele>
        <time>2019-11-29T10:32:19.000Z</time>
      </trkpt>
      <trkpt lat="43.30396" lon="5.68555">
        <ele>766</ele>
        <time>2019-11-29T10:32:20.000Z</time>
      </trkpt>
      <trkpt lat="43.30396" lon="5.68556">
        <ele>766</ele>
        <time>2019-11-29T10:32:21.000Z</time>
      </trkpt>
      <trkpt lat="43.30395" lon="5.68557">
        <ele>766</ele>
        <time>2019-11-29T10:32:22.000Z</time>
      </trkpt>
      <trkpt lat="43.30395" lon="5.68558">
        <ele>766</ele>
        <time>2019-11-29T10:32:23.000Z</time>
      </trkpt>
      <trkpt lat="43.30394" lon="5.68559">
        <ele>765</ele>
        <time>2019-11-29T10:32:24.000Z</time>
      </trkpt>
      <trkpt lat="43.30394" lon="5.6856">
        <ele>765</ele>
        <time>2019-11-29T10:32:25.000Z</time>
      </trkpt>
      <trkpt lat="43.30394" lon="5.68561">
        <ele>765</ele>
        <time>2019-11-29T10:32:26.000Z</time>
      </trkpt>
      <trkpt lat="43.30394" lon="5.68562">
        <ele>765</ele>
        <time>2019-11-29T10:32:27.000Z</time>
      </trkpt>
      <trkpt lat="43.30394" lon="5.68563">
        <ele>765</ele>
        <time>2019-11-29T10:32:28.000Z</time>
      </trkpt>
      <trkpt lat="43.30393" lon="5.68565">
        <ele>765</ele>
        <time>2019-11-29T10:32:29.000Z</time>
      </trkpt>
      <trkpt lat="43.30393" lon="5.68566">
        <ele>765</ele>
        <time>2019-11-29T10:32:30.000Z</time>
      </trkpt>
      <trkpt lat="43.30393" lon="5.68567">
        <ele>764</ele>
        <time>2019-11-29T10:32:31.000Z</time>
      </trkpt>
      <trkpt lat="43.30393" lon="5.68568">
        <ele>764</ele>
        <time>2019-11-29T10:32:32.000Z</time>
      </trkpt>
      <trkpt lat="43.30392" lon="5.68569">
        <ele>764</ele>
        <time>2019-11-29T10:32:33.000Z</time>
      </trkpt>
      <trkpt lat="43.30392" lon="5.6857">
        <ele>764</ele>
        <time>2019-11-29T10:32:34.000Z</time>
      </trkpt>
      <trkpt lat="43.30391" lon="5.68571">
        <ele>764</ele>
        <time>2019-11-29T10:32:35.000Z</time>
      </trkpt>
      <trkpt lat="43.30391" lon="5.68572">
        <ele>764</ele>
        <time>2019-11-29T10:32:36.000Z</time>
      </trkpt>
      <trkpt lat="43.3039" lon="5.68573">
        <ele>764</ele>
        <time>2019-11-29T10:32:37.000Z</time>
      </trkpt>
      <trkpt lat="43.3039" lon="5.68574">
        <ele>764</ele>
        <time>2019-11-29T10:32:38.000Z</time>
      </trkpt>
      <trkpt lat="43.3039" lon="5.68575">
        <ele>764</ele>
        <time>2019-11-29T10:32:39.000Z</time>
      </trkpt>
      <trkpt lat="43.3039" lon="5.68576">
        <ele>764</ele>
        <time>2019-11-29T10:32:40.000Z</time>
      </trkpt>
      <trkpt lat="43.3039" lon="5.68577">
        <ele>764</ele>
        <time>2019-11-29T10:32:41.000Z</time>
      </trkpt>
      <trkpt lat="43.30389" lon="5.68578">
        <ele>763</ele>
        <time>2019-11-29T10:32:42.000Z</time>
      </trkpt>
      <trkpt lat="43.30389" lon="5.68579">
        <ele>763</ele>
        <time>2019-11-29T10:32:43.000Z</time>
      </trkpt>
      <trkpt lat="43.30389" lon="5.6858">
        <ele>763</ele>
        <time>2019-11-29T10:32:44.000Z</time>
      </trkpt>
      <trkpt lat="43.30389" lon="5.68581">
        <ele>763</ele>
        <time>2019-11-29T10:32:45.000Z</time>
      </trkpt>
      <trkpt lat="43.30389" lon="5.68582">
        <ele>763</ele>
        <time>2019-11-29T10:32:46.000Z</time>
      </trkpt>
      <trkpt lat="43.30389" lon="5.68583">
        <ele>763</ele>
        <time>2019-11-29T10:32:47.000Z</time>
      </trkpt>
      <trkpt lat="43.30389" lon="5.68584">
        <ele>763</ele>
        <time>2019-11-29T10:32:48.000Z</time>
      </trkpt>
      <trkpt lat="43.3039" lon="5.68585">
        <ele>763</ele>
        <time>2019-11-29T10:32:49.000Z</time>
      </trkpt>
      <trkpt lat="43.3039" lon="5.68586">
        <ele>762</ele>
        <time>2019-11-29T10:32:50.000Z</time>
      </trkpt>
      <trkpt lat="43.3039" lon="5.68587">
        <ele>762</ele>
        <time>2019-11-29T10:32:51.000Z</time>
      </trkpt>
      <trkpt lat="43.3039" lon="5.68589">
        <ele>762</ele>
        <time>2019-11-29T10:32:52.000Z</time>
      </trkpt>
      <trkpt lat="43.30389" lon="5.6859">
        <ele>762</ele>
        <time>2019-11-29T10:32:53.000Z</time>
      </trkpt>
      <trkpt lat="43.30389" lon="5.68591">
        <ele>762</ele>
        <time>2019-11-29T10:32:54.000Z</time>
      </trkpt>
      <trkpt lat="43.30389" lon="5.68593">
        <ele>762</ele>
        <time>2019-11-29T10:32:55.000Z</time>
      </trkpt>
      <trkpt lat="43.30389" lon="5.68594">
        <ele>762</ele>
        <time>2019-11-29T10:32:56.000Z</time>
      </trkpt>
      <trkpt lat="43.30389" lon="5.68596">
        <ele>762</ele>
        <time>2019-11-29T10:32:57.000Z</time>
      </trkpt>
      <trkpt lat="43.30389" lon="5.68598">
        <ele>762</ele>
        <time>2019-11-29T10:32:58.000Z</time>
      </trkpt>
      <trkpt lat="43.30389" lon="5.68599">
        <ele>762</ele>
        <time>2019-11-29T10:32:59.000Z</time>
      </trkpt>
      <trkpt lat="43.30389" lon="5.68601">
        <ele>762</ele>
        <time>2019-11-29T10:33:00.000Z</time>
      </trkpt>
      <trkpt lat="43.30389" lon="5.68602">
        <ele>762</ele>
        <time>2019-11-29T10:33:01.000Z</time>
      </trkpt>
      <trkpt lat="43.30389" lon="5.68603">
        <ele>762</ele>
        <time>2019-11-29T10:33:02.000Z</time>
      </trkpt>
      <trkpt lat="43.30389" lon="5.68604">
        <ele>762</ele>
        <time>2019-11-29T10:33:03.000Z</time>
      </trkpt>
      <trkpt lat="43.30389" lon="5.68605">
        <ele>761</ele>
        <time>2019-11-29T10:33:04.000Z</time>
      </trkpt>
      <trkpt lat="43.30389" lon="5.68606">
        <ele>761</ele>
        <time>2019-11-29T10:33:05.000Z</time>
      </trkpt>
      <trkpt lat="43.30388" lon="5.68607">
        <ele>761</ele>
        <time>2019-11-29T10:33:06.000Z</time>
      </trkpt>
      <trkpt lat="43.30388" lon="5.68609">
        <ele>761</ele>
        <time>2019-11-29T10:33:07.000Z</time>
      </trkpt>
      <trkpt lat="43.30388" lon="5.6861">
        <ele>761</ele>
        <time>2019-11-29T10:33:08.000Z</time>
      </trkpt>
      <trkpt lat="43.30387" lon="5.68611">
        <ele>761</ele>
        <time>2019-11-29T10:33:09.000Z</time>
      </trkpt>
      <trkpt lat="43.30387" lon="5.68612">
        <ele>761</ele>
        <time>2019-11-29T10:33:10.000Z</time>
      </trkpt>
      <trkpt lat="43.30386" lon="5.68613">
        <ele>760</ele>
        <time>2019-11-29T10:33:11.000Z</time>
      </trkpt>
      <trkpt lat="43.30386" lon="5.68615">
        <ele>760</ele>
        <time>2019-11-29T10:33:12.000Z</time>
      </trkpt>
      <trkpt lat="43.30385" lon="5.68616">
        <ele>760</ele>
        <time>2019-11-29T10:33:13.000Z</time>
      </trkpt>
      <trkpt lat="43.30384" lon="5.68618">
        <ele>760</ele>
        <time>2019-11-29T10:33:14.000Z</time>
      </trkpt>
      <trkpt lat="43.30384" lon="5.68618">
        <ele>760</ele>
        <time>2019-11-29T10:33:15.000Z</time>
      </trkpt>
      <trkpt lat="43.30383" lon="5.68619">
        <ele>760</ele>
        <time>2019-11-29T10:33:16.000Z</time>
      </trkpt>
      <trkpt lat="43.30383" lon="5.6862">
        <ele>760</ele>
        <time>2019-11-29T10:33:17.000Z</time>
      </trkpt>
      <trkpt lat="43.30382" lon="5.68621">
        <ele>760</ele>
        <time>2019-11-29T10:33:18.000Z</time>
      </trkpt>
      <trkpt lat="43.30382" lon="5.68621">
        <ele>759</ele>
        <time>2019-11-29T10:33:19.000Z</time>
      </trkpt>
      <trkpt lat="43.30382" lon="5.68622">
        <ele>759</ele>
        <time>2019-11-29T10:33:20.000Z</time>
      </trkpt>
      <trkpt lat="43.30381" lon="5.68622">
        <ele>759</ele>
        <time>2019-11-29T10:33:21.000Z</time>
      </trkpt>
      <trkpt lat="43.30381" lon="5.68623">
        <ele>759</ele>
        <time>2019-11-29T10:33:22.000Z</time>
      </trkpt>
      <trkpt lat="43.30381" lon="5.68623">
        <ele>759</ele>
        <time>2019-11-29T10:33:23.000Z</time>
      </trkpt>
      <trkpt lat="43.30381" lon="5.68624">
        <ele>759</ele>
        <time>2019-11-29T10:33:24.000Z</time>
      </trkpt>
      <trkpt lat="43.30381" lon="5.68624">
        <ele>759</ele>
        <time>2019-11-29T10:33:25.000Z</time>
      </trkpt>
      <trkpt lat="43.30381" lon="5.68625">
        <ele>759</ele>
        <time>2019-11-29T10:33:26.000Z</time>
      </trkpt>
      <trkpt lat="43.3038" lon="5.68626">
        <ele>759</ele>
        <time>2019-11-29T10:33:27.000Z</time>
      </trkpt>
      <trkpt lat="43.3038" lon="5.68628">
        <ele>759</ele>
        <time>2019-11-29T10:33:28.000Z</time>
      </trkpt>
      <trkpt lat="43.3038" lon="5.68629">
        <ele>759</ele>
        <time>2019-11-29T10:33:29.000Z</time>
      </trkpt>
      <trkpt lat="43.30379" lon="5.6863">
        <ele>758</ele>
        <time>2019-11-29T10:33:30.000Z</time>
      </trkpt>
      <trkpt lat="43.30379" lon="5.68631">
        <ele>758</ele>
        <time>2019-11-29T10:33:31.000Z</time>
      </trkpt>
      <trkpt lat="43.30379" lon="5.68631">
        <ele>758</ele>
        <time>2019-11-29T10:33:32.000Z</time>
      </trkpt>
      <trkpt lat="43.30379" lon="5.68632">
        <ele>758</ele>
        <time>2019-11-29T10:33:33.000Z</time>
      </trkpt>
      <trkpt lat="43.30379" lon="5.68632">
        <ele>758</ele>
        <time>2019-11-29T10:33:34.000Z</time>
      </trkpt>
      <trkpt lat="43.30379" lon="5.68633">
        <ele>758</ele>
        <time>2019-11-29T10:33:35.000Z</time>
      </trkpt>
      <trkpt lat="43.3038" lon="5.68634">
        <ele>758</ele>
        <time>2019-11-29T10:33:36.000Z</time>
      </trkpt>
      <trkpt lat="43.3038" lon="5.68635">
        <ele>758</ele>
        <time>2019-11-29T10:33:37.000Z</time>
      </trkpt>
      <trkpt lat="43.30381" lon="5.68635">
        <ele>758</ele>
        <time>2019-11-29T10:33:38.000Z</time>
      </trkpt>
      <trkpt lat="43.30381" lon="5.68636">
        <ele>758</ele>
        <time>2019-11-29T10:33:39.000Z</time>
      </trkpt>
      <trkpt lat="43.30381" lon="5.68637">
        <ele>758</ele>
        <time>2019-11-29T10:33:40.000Z</time>
      </trkpt>
      <trkpt lat="43.30381" lon="5.68638">
        <ele>758</ele>
        <time>2019-11-29T10:33:41.000Z</time>
      </trkpt>
      <trkpt lat="43.30382" lon="5.68638">
        <ele>758</ele>
        <time>2019-11-29T10:33:42.000Z</time>
      </trkpt>
      <trkpt lat="43.30382" lon="5.68639">
        <ele>758</ele>
        <time>2019-11-29T10:33:43.000Z</time>
      </trkpt>
      <trkpt lat="43.30383" lon="5.6864">
        <ele>758</ele>
        <time>2019-11-29T10:33:44.000Z</time>
      </trkpt>
      <trkpt lat="43.30383" lon="5.6864">
        <ele>758</ele>
        <time>2019-11-29T10:33:45.000Z</time>
      </trkpt>
      <trkpt lat="43.30383" lon="5.68641">
        <ele>758</ele>
        <time>2019-11-29T10:33:46.000Z</time>
      </trkpt>
      <trkpt lat="43.30384" lon="5.68641">
        <ele>758</ele>
        <time>2019-11-29T10:33:47.000Z</time>
      </trkpt>
      <trkpt lat="43.30384" lon="5.68642">
        <ele>759</ele>
        <time>2019-11-29T10:33:48.000Z</time>
      </trkpt>
      <trkpt lat="43.30385" lon="5.68642">
        <ele>759</ele>
        <time>2019-11-29T10:33:49.000Z</time>
      </trkpt>
      <trkpt lat="43.30385" lon="5.68642">
        <ele>759</ele>
        <time>2019-11-29T10:33:50.000Z</time>
      </trkpt>
      <trkpt lat="43.30385" lon="5.68642">
        <ele>758</ele>
        <time>2019-11-29T10:33:51.000Z</time>
      </trkpt>
      <trkpt lat="43.30386" lon="5.68643">
        <ele>759</ele>
        <time>2019-11-29T10:33:52.000Z</time>
      </trkpt>
      <trkpt lat="43.30386" lon="5.68644">
        <ele>759</ele>
        <time>2019-11-29T10:33:53.000Z</time>
      </trkpt>
      <trkpt lat="43.30387" lon="5.68644">
        <ele>759</ele>
        <time>2019-11-29T10:33:54.000Z</time>
      </trkpt>
      <trkpt lat="43.30387" lon="5.68645">
        <ele>759</ele>
        <time>2019-11-29T10:33:55.000Z</time>
      </trkpt>
      <trkpt lat="43.30388" lon="5.68646">
        <ele>759</ele>
        <time>2019-11-29T10:33:56.000Z</time>
      </trkpt>
      <trkpt lat="43.30388" lon="5.68647">
        <ele>759</ele>
        <time>2019-11-29T10:33:57.000Z</time>
      </trkpt>
      <trkpt lat="43.30388" lon="5.68648">
        <ele>759</ele>
        <time>2019-11-29T10:33:58.000Z</time>
      </trkpt>
      <trkpt lat="43.30389" lon="5.68649">
        <ele>759</ele>
        <time>2019-11-29T10:33:59.000Z</time>
      </trkpt>
      <trkpt lat="43.30389" lon="5.6865">
        <ele>759</ele>
        <time>2019-11-29T10:34:00.000Z</time>
      </trkpt>
      <trkpt lat="43.30389" lon="5.68651">
        <ele>759</ele>
        <time>2019-11-29T10:34:01.000Z</time>
      </trkpt>
      <trkpt lat="43.30389" lon="5.68652">
        <ele>759</ele>
        <time>2019-11-29T10:34:02.000Z</time>
      </trkpt>
      <trkpt lat="43.3039" lon="5.68653">
        <ele>759</ele>
        <time>2019-11-29T10:34:03.000Z</time>
      </trkpt>
      <trkpt lat="43.3039" lon="5.68653">
        <ele>759</ele>
        <time>2019-11-29T10:34:04.000Z</time>
      </trkpt>
      <trkpt lat="43.3039" lon="5.68654">
        <ele>759</ele>
        <time>2019-11-29T10:34:05.000Z</time>
      </trkpt>
      <trkpt lat="43.3039" lon="5.68656">
        <ele>759</ele>
        <time>2019-11-29T10:34:06.000Z</time>
      </trkpt>
      <trkpt lat="43.3039" lon="5.68657">
        <ele>760</ele>
        <time>2019-11-29T10:34:07.000Z</time>
      </trkpt>
      <trkpt lat="43.3039" lon="5.68658">
        <ele>760</ele>
        <time>2019-11-29T10:34:08.000Z</time>
      </trkpt>
      <trkpt lat="43.3039" lon="5.68659">
        <ele>760</ele>
        <time>2019-11-29T10:34:09.000Z</time>
      </trkpt>
      <trkpt lat="43.3039" lon="5.6866">
        <ele>760</ele>
        <time>2019-11-29T10:34:10.000Z</time>
      </trkpt>
      <trkpt lat="43.30389" lon="5.68661">
        <ele>760</ele>
        <time>2019-11-29T10:34:11.000Z</time>
      </trkpt>
      <trkpt lat="43.30389" lon="5.68661">
        <ele>760</ele>
        <time>2019-11-29T10:34:12.000Z</time>
      </trkpt>
      <trkpt lat="43.30388" lon="5.68662">
        <ele>760</ele>
        <time>2019-11-29T10:34:13.000Z</time>
      </trkpt>
      <trkpt lat="43.30387" lon="5.68663">
        <ele>761</ele>
        <time>2019-11-29T10:34:14.000Z</time>
      </trkpt>
      <trkpt lat="43.30386" lon="5.68663">
        <ele>761</ele>
        <time>2019-11-29T10:34:15.000Z</time>
      </trkpt>
      <trkpt lat="43.30386" lon="5.68664">
        <ele>761</ele>
        <time>2019-11-29T10:34:16.000Z</time>
      </trkpt>
      <trkpt lat="43.30385" lon="5.68665">
        <ele>761</ele>
        <time>2019-11-29T10:34:17.000Z</time>
      </trkpt>
      <trkpt lat="43.30383" lon="5.68666">
        <ele>761</ele>
        <time>2019-11-29T10:34:18.000Z</time>
      </trkpt>
      <trkpt lat="43.30383" lon="5.68667">
        <ele>761</ele>
        <time>2019-11-29T10:34:19.000Z</time>
      </trkpt>
      <trkpt lat="43.30382" lon="5.68667">
        <ele>761</ele>
        <time>2019-11-29T10:34:20.000Z</time>
      </trkpt>
      <trkpt lat="43.30382" lon="5.68668">
        <ele>761</ele>
        <time>2019-11-29T10:34:21.000Z</time>
      </trkpt>
      <trkpt lat="43.30381" lon="5.68669">
        <ele>761</ele>
        <time>2019-11-29T10:34:22.000Z</time>
      </trkpt>
      <trkpt lat="43.3038" lon="5.6867">
        <ele>761</ele>
        <time>2019-11-29T10:34:23.000Z</time>
      </trkpt>
      <trkpt lat="43.3038" lon="5.6867">
        <ele>761</ele>
        <time>2019-11-29T10:34:24.000Z</time>
      </trkpt>
      <trkpt lat="43.3038" lon="5.68672">
        <ele>761</ele>
        <time>2019-11-29T10:34:25.000Z</time>
      </trkpt>
      <trkpt lat="43.30379" lon="5.68673">
        <ele>761</ele>
        <time>2019-11-29T10:34:26.000Z</time>
      </trkpt>
      <trkpt lat="43.30379" lon="5.68673">
        <ele>761</ele>
        <time>2019-11-29T10:34:27.000Z</time>
      </trkpt>
      <trkpt lat="43.30379" lon="5.68675">
        <ele>761</ele>
        <time>2019-11-29T10:34:28.000Z</time>
      </trkpt>
      <trkpt lat="43.30379" lon="5.68676">
        <ele>761</ele>
        <time>2019-11-29T10:34:29.000Z</time>
      </trkpt>
      <trkpt lat="43.30378" lon="5.68677">
        <ele>761</ele>
        <time>2019-11-29T10:34:30.000Z</time>
      </trkpt>
      <trkpt lat="43.30378" lon="5.68678">
        <ele>761</ele>
        <time>2019-11-29T10:34:31.000Z</time>
      </trkpt>
      <trkpt lat="43.30378" lon="5.68678">
        <ele>761</ele>
        <time>2019-11-29T10:34:32.000Z</time>
      </trkpt>
      <trkpt lat="43.30378" lon="5.68679">
        <ele>761</ele>
        <time>2019-11-29T10:34:33.000Z</time>
      </trkpt>
      <trkpt lat="43.30378" lon="5.6868">
        <ele>761</ele>
        <time>2019-11-29T10:34:34.000Z</time>
      </trkpt>
      <trkpt lat="43.30378" lon="5.68681">
        <ele>761</ele>
        <time>2019-11-29T10:34:35.000Z</time>
      </trkpt>
      <trkpt lat="43.30378" lon="5.68682">
        <ele>762</ele>
        <time>2019-11-29T10:34:36.000Z</time>
      </trkpt>
      <trkpt lat="43.30378" lon="5.68683">
        <ele>762</ele>
        <time>2019-11-29T10:34:37.000Z</time>
      </trkpt>
      <trkpt lat="43.30378" lon="5.68683">
        <ele>762</ele>
        <time>2019-11-29T10:34:38.000Z</time>
      </trkpt>
      <trkpt lat="43.30378" lon="5.68684">
        <ele>762</ele>
        <time>2019-11-29T10:34:39.000Z</time>
      </trkpt>
      <trkpt lat="43.30378" lon="5.68685">
        <ele>762</ele>
        <time>2019-11-29T10:34:40.000Z</time>
      </trkpt>
      <trkpt lat="43.30378" lon="5.68686">
        <ele>763</ele>
        <time>2019-11-29T10:34:41.000Z</time>
      </trkpt>
      <trkpt lat="43.30379" lon="5.68687">
        <ele>763</ele>
        <time>2019-11-29T10:34:42.000Z</time>
      </trkpt>
      <trkpt lat="43.30379" lon="5.68687">
        <ele>763</ele>
        <time>2019-11-29T10:34:43.000Z</time>
      </trkpt>
      <trkpt lat="43.30379" lon="5.68688">
        <ele>763</ele>
        <time>2019-11-29T10:34:44.000Z</time>
      </trkpt>
      <trkpt lat="43.3038" lon="5.68688">
        <ele>763</ele>
        <time>2019-11-29T10:34:45.000Z</time>
      </trkpt>
      <trkpt lat="43.3038" lon="5.68688">
        <ele>764</ele>
        <time>2019-11-29T10:34:46.000Z</time>
      </trkpt>
      <trkpt lat="43.30381" lon="5.68688">
        <ele>764</ele>
        <time>2019-11-29T10:34:47.000Z</time>
      </trkpt>
      <trkpt lat="43.30382" lon="5.68689">
        <ele>764</ele>
        <time>2019-11-29T10:34:48.000Z</time>
      </trkpt>
      <trkpt lat="43.30382" lon="5.68689">
        <ele>764</ele>
        <time>2019-11-29T10:34:49.000Z</time>
      </trkpt>
      <trkpt lat="43.30383" lon="5.68689">
        <ele>764</ele>
        <time>2019-11-29T10:34:50.000Z</time>
      </trkpt>
      <trkpt lat="43.30383" lon="5.68689">
        <ele>764</ele>
        <time>2019-11-29T10:34:51.000Z</time>
      </trkpt>
      <trkpt lat="43.30384" lon="5.68689">
        <ele>765</ele>
        <time>2019-11-29T10:34:52.000Z</time>
      </trkpt>
      <trkpt lat="43.30385" lon="5.68689">
        <ele>765</ele>
        <time>2019-11-29T10:34:53.000Z</time>
      </trkpt>
      <trkpt lat="43.30386" lon="5.68689">
        <ele>765</ele>
        <time>2019-11-29T10:34:54.000Z</time>
      </trkpt>
      <trkpt lat="43.30387" lon="5.68689">
        <ele>765</ele>
        <time>2019-11-29T10:34:55.000Z</time>
      </trkpt>
      <trkpt lat="43.30388" lon="5.68689">
        <ele>765</ele>
        <time>2019-11-29T10:34:56.000Z</time>
      </trkpt>
      <trkpt lat="43.30389" lon="5.68689">
        <ele>765</ele>
        <time>2019-11-29T10:34:57.000Z</time>
      </trkpt>
      <trkpt lat="43.30389" lon="5.68689">
        <ele>765</ele>
        <time>2019-11-29T10:34:58.000Z</time>
      </trkpt>
      <trkpt lat="43.3039" lon="5.68689">
        <ele>766</ele>
        <time>2019-11-29T10:34:59.000Z</time>
      </trkpt>
      <trkpt lat="43.30391" lon="5.6869">
        <ele>766</ele>
        <time>2019-11-29T10:35:00.000Z</time>
      </trkpt>
      <trkpt lat="43.30392" lon="5.6869">
        <ele>766</ele>
        <time>2019-11-29T10:35:01.000Z</time>
      </trkpt>
      <trkpt lat="43.30392" lon="5.68691">
        <ele>766</ele>
        <time>2019-11-29T10:35:02.000Z</time>
      </trkpt>
      <trkpt lat="43.30393" lon="5.68691">
        <ele>766</ele>
        <time>2019-11-29T10:35:03.000Z</time>
      </trkpt>
      <trkpt lat="43.30394" lon="5.68692">
        <ele>767</ele>
        <time>2019-11-29T10:35:04.000Z</time>
      </trkpt>
      <trkpt lat="43.30394" lon="5.68692">
        <ele>767</ele>
        <time>2019-11-29T10:35:05.000Z</time>
      </trkpt>
      <trkpt lat="43.30394" lon="5.68693">
        <ele>767</ele>
        <time>2019-11-29T10:35:06.000Z</time>
      </trkpt>
      <trkpt lat="43.30395" lon="5.68694">
        <ele>767</ele>
        <time>2019-11-29T10:35:07.000Z</time>
      </trkpt>
      <trkpt lat="43.30395" lon="5.68694">
        <ele>767</ele>
        <time>2019-11-29T10:35:08.000Z</time>
      </trkpt>
      <trkpt lat="43.30395" lon="5.68695">
        <ele>767</ele>
        <time>2019-11-29T10:35:09.000Z</time>
      </trkpt>
      <trkpt lat="43.30396" lon="5.68696">
        <ele>768</ele>
        <time>2019-11-29T10:35:10.000Z</time>
      </trkpt>
      <trkpt lat="43.30396" lon="5.68696">
        <ele>768</ele>
        <time>2019-11-29T10:35:11.000Z</time>
      </trkpt>
      <trkpt lat="43.30396" lon="5.68697">
        <ele>768</ele>
        <time>2019-11-29T10:35:12.000Z</time>
      </trkpt>
      <trkpt lat="43.30396" lon="5.68698">
        <ele>768</ele>
        <time>2019-11-29T10:35:13.000Z</time>
      </trkpt>
      <trkpt lat="43.30397" lon="5.68698">
        <ele>768</ele>
        <time>2019-11-29T10:35:14.000Z</time>
      </trkpt>
      <trkpt lat="43.30397" lon="5.68699">
        <ele>768</ele>
        <time>2019-11-29T10:35:15.000Z</time>
      </trkpt>
      <trkpt lat="43.30397" lon="5.68699">
        <ele>768</ele>
        <time>2019-11-29T10:35:16.000Z</time>
      </trkpt>
      <trkpt lat="43.30398" lon="5.687">
        <ele>768</ele>
        <time>2019-11-29T10:35:17.000Z</time>
      </trkpt>
      <trkpt lat="43.30398" lon="5.687">
        <ele>769</ele>
        <time>2019-11-29T10:35:18.000Z</time>
      </trkpt>
      <trkpt lat="43.30398" lon="5.68701">
        <ele>769</ele>
        <time>2019-11-29T10:35:19.000Z</time>
      </trkpt>
      <trkpt lat="43.30398" lon="5.68701">
        <ele>769</ele>
        <time>2019-11-29T10:35:20.000Z</time>
      </trkpt>
      <trkpt lat="43.30399" lon="5.68702">
        <ele>769</ele>
        <time>2019-11-29T10:35:21.000Z</time>
      </trkpt>
      <trkpt lat="43.30399" lon="5.68702">
        <ele>769</ele>
        <time>2019-11-29T10:35:22.000Z</time>
      </trkpt>
      <trkpt lat="43.30399" lon="5.68703">
        <ele>769</ele>
        <time>2019-11-29T10:35:23.000Z</time>
      </trkpt>
      <trkpt lat="43.304" lon="5.68703">
        <ele>770</ele>
        <time>2019-11-29T10:35:24.000Z</time>
      </trkpt>
      <trkpt lat="43.304" lon="5.68703">
        <ele>770</ele>
        <time>2019-11-29T10:35:25.000Z</time>
      </trkpt>
      <trkpt lat="43.304" lon="5.68704">
        <ele>770</ele>
        <time>2019-11-29T10:35:26.000Z</time>
      </trkpt>
      <trkpt lat="43.30401" lon="5.68704">
        <ele>770</ele>
        <time>2019-11-29T10:35:27.000Z</time>
      </trkpt>
      <trkpt lat="43.30401" lon="5.68705">
        <ele>770</ele>
        <time>2019-11-29T10:35:28.000Z</time>
      </trkpt>
      <trkpt lat="43.30401" lon="5.68705">
        <ele>770</ele>
        <time>2019-11-29T10:35:29.000Z</time>
      </trkpt>
      <trkpt lat="43.30401" lon="5.68706">
        <ele>770</ele>
        <time>2019-11-29T10:35:30.000Z</time>
      </trkpt>
      <trkpt lat="43.30401" lon="5.68706">
        <ele>770</ele>
        <time>2019-11-29T10:35:31.000Z</time>
      </trkpt>
      <trkpt lat="43.30402" lon="5.68706">
        <ele>770</ele>
        <time>2019-11-29T10:35:32.000Z</time>
      </trkpt>
      <trkpt lat="43.30402" lon="5.68707">
        <ele>770</ele>
        <time>2019-11-29T10:35:33.000Z</time>
      </trkpt>
      <trkpt lat="43.30403" lon="5.68707">
        <ele>771</ele>
        <time>2019-11-29T10:35:34.000Z</time>
      </trkpt>
      <trkpt lat="43.30403" lon="5.68708">
        <ele>771</ele>
        <time>2019-11-29T10:35:35.000Z</time>
      </trkpt>
      <trkpt lat="43.30403" lon="5.68708">
        <ele>771</ele>
        <time>2019-11-29T10:35:36.000Z</time>
      </trkpt>
      <trkpt lat="43.30403" lon="5.68709">
        <ele>771</ele>
        <time>2019-11-29T10:35:37.000Z</time>
      </trkpt>
      <trkpt lat="43.30404" lon="5.68709">
        <ele>771</ele>
        <time>2019-11-29T10:35:38.000Z</time>
      </trkpt>
      <trkpt lat="43.30404" lon="5.6871">
        <ele>771</ele>
        <time>2019-11-29T10:35:39.000Z</time>
      </trkpt>
      <trkpt lat="43.30404" lon="5.68711">
        <ele>771</ele>
        <time>2019-11-29T10:35:40.000Z</time>
      </trkpt>
      <trkpt lat="43.30404" lon="5.68711">
        <ele>771</ele>
        <time>2019-11-29T10:35:41.000Z</time>
      </trkpt>
      <trkpt lat="43.30404" lon="5.68712">
        <ele>771</ele>
        <time>2019-11-29T10:35:42.000Z</time>
      </trkpt>
      <trkpt lat="43.30404" lon="5.68712">
        <ele>772</ele>
        <time>2019-11-29T10:35:43.000Z</time>
      </trkpt>
      <trkpt lat="43.30405" lon="5.68713">
        <ele>772</ele>
        <time>2019-11-29T10:35:44.000Z</time>
      </trkpt>
      <trkpt lat="43.30405" lon="5.68713">
        <ele>772</ele>
        <time>2019-11-29T10:35:45.000Z</time>
      </trkpt>
      <trkpt lat="43.30405" lon="5.68714">
        <ele>772</ele>
        <time>2019-11-29T10:35:46.000Z</time>
      </trkpt>
      <trkpt lat="43.30405" lon="5.68714">
        <ele>772</ele>
        <time>2019-11-29T10:35:47.000Z</time>
      </trkpt>
      <trkpt lat="43.30405" lon="5.68715">
        <ele>772</ele>
        <time>2019-11-29T10:35:48.000Z</time>
      </trkpt>
      <trkpt lat="43.30405" lon="5.68716">
        <ele>772</ele>
        <time>2019-11-29T10:35:49.000Z</time>
      </trkpt>
      <trkpt lat="43.30405" lon="5.68716">
        <ele>772</ele>
        <time>2019-11-29T10:35:50.000Z</time>
      </trkpt>
      <trkpt lat="43.30405" lon="5.68717">
        <ele>773</ele>
        <time>2019-11-29T10:35:51.000Z</time>
      </trkpt>
      <trkpt lat="43.30405" lon="5.68717">
        <ele>773</ele>
        <time>2019-11-29T10:35:52.000Z</time>
      </trkpt>
      <trkpt lat="43.30405" lon="5.68718">
        <ele>773</ele>
        <time>2019-11-29T10:35:53.000Z</time>
      </trkpt>
      <trkpt lat="43.30405" lon="5.68719">
        <ele>773</ele>
        <time>2019-11-29T10:35:54.000Z</time>
      </trkpt>
      <trkpt lat="43.30405" lon="5.68719">
        <ele>773</ele>
        <time>2019-11-29T10:35:55.000Z</time>
      </trkpt>
      <trkpt lat="43.30405" lon="5.6872">
        <ele>773</ele>
        <time>2019-11-29T10:35:56.000Z</time>
      </trkpt>
      <trkpt lat="43.30405" lon="5.6872">
        <ele>774</ele>
        <time>2019-11-29T10:35:57.000Z</time>
      </trkpt>
      <trkpt lat="43.30405" lon="5.68721">
        <ele>774</ele>
        <time>2019-11-29T10:35:58.000Z</time>
      </trkpt>
      <trkpt lat="43.30406" lon="5.68722">
        <ele>774</ele>
        <time>2019-11-29T10:35:59.000Z</time>
      </trkpt>
      <trkpt lat="43.30406" lon="5.68722">
        <ele>774</ele>
        <time>2019-11-29T10:36:00.000Z</time>
      </trkpt>
      <trkpt lat="43.30406" lon="5.68723">
        <ele>774</ele>
        <time>2019-11-29T10:36:01.000Z</time>
      </trkpt>
      <trkpt lat="43.30405" lon="5.68724">
        <ele>774</ele>
        <time>2019-11-29T10:36:02.000Z</time>
      </trkpt>
      <trkpt lat="43.30406" lon="5.68724">
        <ele>775</ele>
        <time>2019-11-29T10:36:03.000Z</time>
      </trkpt>
      <trkpt lat="43.30406" lon="5.68724">
        <ele>775</ele>
        <time>2019-11-29T10:36:04.000Z</time>
      </trkpt>
      <trkpt lat="43.30406" lon="5.68725">
        <ele>775</ele>
        <time>2019-11-29T10:36:05.000Z</time>
      </trkpt>
      <trkpt lat="43.30406" lon="5.68725">
        <ele>775</ele>
        <time>2019-11-29T10:36:06.000Z</time>
      </trkpt>
      <trkpt lat="43.30407" lon="5.68725">
        <ele>775</ele>
        <time>2019-11-29T10:36:07.000Z</time>
      </trkpt>
      <trkpt lat="43.30407" lon="5.68726">
        <ele>775</ele>
        <time>2019-11-29T10:36:08.000Z</time>
      </trkpt>
      <trkpt lat="43.30407" lon="5.68727">
        <ele>775</ele>
        <time>2019-11-29T10:36:09.000Z</time>
      </trkpt>
      <trkpt lat="43.30407" lon="5.68727">
        <ele>776</ele>
        <time>2019-11-29T10:36:10.000Z</time>
      </trkpt>
      <trkpt lat="43.30407" lon="5.68728">
        <ele>776</ele>
        <time>2019-11-29T10:36:11.000Z</time>
      </trkpt>
      <trkpt lat="43.30407" lon="5.68728">
        <ele>776</ele>
        <time>2019-11-29T10:36:12.000Z</time>
      </trkpt>
      <trkpt lat="43.30407" lon="5.68729">
        <ele>776</ele>
        <time>2019-11-29T10:36:13.000Z</time>
      </trkpt>
      <trkpt lat="43.30407" lon="5.68729">
        <ele>776</ele>
        <time>2019-11-29T10:36:14.000Z</time>
      </trkpt>
      <trkpt lat="43.30407" lon="5.6873">
        <ele>776</ele>
        <time>2019-11-29T10:36:15.000Z</time>
      </trkpt>
      <trkpt lat="43.30407" lon="5.6873">
        <ele>776</ele>
        <time>2019-11-29T10:36:16.000Z</time>
      </trkpt>
      <trkpt lat="43.30407" lon="5.68731">
        <ele>777</ele>
        <time>2019-11-29T10:36:17.000Z</time>
      </trkpt>
      <trkpt lat="43.30407" lon="5.68731">
        <ele>777</ele>
        <time>2019-11-29T10:36:18.000Z</time>
      </trkpt>
      <trkpt lat="43.30408" lon="5.68731">
        <ele>777</ele>
        <time>2019-11-29T10:36:19.000Z</time>
      </trkpt>
      <trkpt lat="43.30408" lon="5.68732">
        <ele>777</ele>
        <time>2019-11-29T10:36:20.000Z</time>
      </trkpt>
      <trkpt lat="43.30408" lon="5.68732">
        <ele>777</ele>
        <time>2019-11-29T10:36:21.000Z</time>
      </trkpt>
      <trkpt lat="43.30408" lon="5.68733">
        <ele>777</ele>
        <time>2019-11-29T10:36:22.000Z</time>
      </trkpt>
      <trkpt lat="43.30408" lon="5.68733">
        <ele>777</ele>
        <time>2019-11-29T10:36:23.000Z</time>
      </trkpt>
      <trkpt lat="43.30408" lon="5.68733">
        <ele>778</ele>
        <time>2019-11-29T10:36:24.000Z</time>
      </trkpt>
      <trkpt lat="43.30409" lon="5.68734">
        <ele>778</ele>
        <time>2019-11-29T10:36:25.000Z</time>
      </trkpt>
      <trkpt lat="43.30409" lon="5.68734">
        <ele>778</ele>
        <time>2019-11-29T10:36:26.000Z</time>
      </trkpt>
      <trkpt lat="43.30409" lon="5.68735">
        <ele>778</ele>
        <time>2019-11-29T10:36:27.000Z</time>
      </trkpt>
      <trkpt lat="43.30409" lon="5.68735">
        <ele>778</ele>
        <time>2019-11-29T10:36:28.000Z</time>
      </trkpt>
      <trkpt lat="43.30409" lon="5.68736">
        <ele>778</ele>
        <time>2019-11-29T10:36:29.000Z</time>
      </trkpt>
      <trkpt lat="43.30409" lon="5.68736">
        <ele>778</ele>
        <time>2019-11-29T10:36:30.000Z</time>
      </trkpt>
      <trkpt lat="43.30409" lon="5.68737">
        <ele>778</ele>
        <time>2019-11-29T10:36:31.000Z</time>
      </trkpt>
      <trkpt lat="43.30409" lon="5.68737">
        <ele>779</ele>
        <time>2019-11-29T10:36:32.000Z</time>
      </trkpt>
      <trkpt lat="43.30409" lon="5.68738">
        <ele>779</ele>
        <time>2019-11-29T10:36:33.000Z</time>
      </trkpt>
      <trkpt lat="43.3041" lon="5.68738">
        <ele>779</ele>
        <time>2019-11-29T10:36:34.000Z</time>
      </trkpt>
      <trkpt lat="43.3041" lon="5.68739">
        <ele>779</ele>
        <time>2019-11-29T10:36:35.000Z</time>
      </trkpt>
      <trkpt lat="43.3041" lon="5.68739">
        <ele>779</ele>
        <time>2019-11-29T10:36:36.000Z</time>
      </trkpt>
      <trkpt lat="43.3041" lon="5.6874">
        <ele>779</ele>
        <time>2019-11-29T10:36:37.000Z</time>
      </trkpt>
      <trkpt lat="43.3041" lon="5.6874">
        <ele>779</ele>
        <time>2019-11-29T10:36:38.000Z</time>
      </trkpt>
      <trkpt lat="43.3041" lon="5.68741">
        <ele>780</ele>
        <time>2019-11-29T10:36:39.000Z</time>
      </trkpt>
      <trkpt lat="43.3041" lon="5.68741">
        <ele>780</ele>
        <time>2019-11-29T10:36:40.000Z</time>
      </trkpt>
      <trkpt lat="43.3041" lon="5.68742">
        <ele>780</ele>
        <time>2019-11-29T10:36:41.000Z</time>
      </trkpt>
      <trkpt lat="43.3041" lon="5.68742">
        <ele>780</ele>
        <time>2019-11-29T10:36:42.000Z</time>
      </trkpt>
      <trkpt lat="43.3041" lon="5.68743">
        <ele>780</ele>
        <time>2019-11-29T10:36:43.000Z</time>
      </trkpt>
      <trkpt lat="43.30411" lon="5.68744">
        <ele>780</ele>
        <time>2019-11-29T10:36:44.000Z</time>
      </trkpt>
      <trkpt lat="43.30411" lon="5.68744">
        <ele>780</ele>
        <time>2019-11-29T10:36:45.000Z</time>
      </trkpt>
      <trkpt lat="43.30411" lon="5.68745">
        <ele>780</ele>
        <time>2019-11-29T10:36:46.000Z</time>
      </trkpt>
      <trkpt lat="43.30411" lon="5.68745">
        <ele>780</ele>
        <time>2019-11-29T10:36:47.000Z</time>
      </trkpt>
      <trkpt lat="43.30411" lon="5.68746">
        <ele>781</ele>
        <time>2019-11-29T10:36:48.000Z</time>
      </trkpt>
      <trkpt lat="43.3041" lon="5.68746">
        <ele>781</ele>
        <time>2019-11-29T10:36:49.000Z</time>
      </trkpt>
      <trkpt lat="43.3041" lon="5.68746">
        <ele>781</ele>
        <time>2019-11-29T10:36:50.000Z</time>
      </trkpt>
      <trkpt lat="43.3041" lon="5.68746">
        <ele>781</ele>
        <time>2019-11-29T10:36:51.000Z</time>
      </trkpt>
      <trkpt lat="43.3041" lon="5.68746">
        <ele>781</ele>
        <time>2019-11-29T10:36:52.000Z</time>
      </trkpt>
      <trkpt lat="43.3041" lon="5.68746">
        <ele>781</ele>
        <time>2019-11-29T10:36:53.000Z</time>
      </trkpt>
      <trkpt lat="43.3041" lon="5.68746">
        <ele>781</ele>
        <time>2019-11-29T10:36:54.000Z</time>
      </trkpt>
      <trkpt lat="43.30411" lon="5.68746">
        <ele>781</ele>
        <time>2019-11-29T10:36:55.000Z</time>
      </trkpt>
      <trkpt lat="43.30411" lon="5.68746">
        <ele>781</ele>
        <time>2019-11-29T10:36:56.000Z</time>
      </trkpt>
      <trkpt lat="43.30411" lon="5.68746">
        <ele>781</ele>
        <time>2019-11-29T10:36:57.000Z</time>
      </trkpt>
      <trkpt lat="43.30411" lon="5.68746">
        <ele>781</ele>
        <time>2019-11-29T10:36:58.000Z</time>
      </trkpt>
      <trkpt lat="43.30411" lon="5.68746">
        <ele>781</ele>
        <time>2019-11-29T10:36:59.000Z</time>
      </trkpt>
      <trkpt lat="43.30411" lon="5.68746">
        <ele>781</ele>
        <time>2019-11-29T10:37:00.000Z</time>
      </trkpt>
      <trkpt lat="43.30411" lon="5.68746">
        <ele>781</ele>
        <time>2019-11-29T10:37:01.000Z</time>
      </trkpt>
      <trkpt lat="43.30411" lon="5.68746">
        <ele>781</ele>
        <time>2019-11-29T10:37:02.000Z</time>
      </trkpt>
      <trkpt lat="43.30411" lon="5.68746">
        <ele>781</ele>
        <time>2019-11-29T10:37:03.000Z</time>
      </trkpt>
      <trkpt lat="43.30411" lon="5.68746">
        <ele>781</ele>
        <time>2019-11-29T10:37:04.000Z</time>
      </trkpt>
      <trkpt lat="43.30411" lon="5.68746">
        <ele>781</ele>
        <time>2019-11-29T10:37:05.000Z</time>
      </trkpt>
      <trkpt lat="43.30411" lon="5.68746">
        <ele>781</ele>
        <time>2019-11-29T10:37:06.000Z</time>
      </trkpt>
      <trkpt lat="43.30411" lon="5.68747">
        <ele>781</ele>
        <time>2019-11-29T10:37:07.000Z</time>
      </trkpt>
      <trkpt lat="43.30411" lon="5.68748">
        <ele>781</ele>
        <time>2019-11-29T10:37:08.000Z</time>
      </trkpt>
      <trkpt lat="43.30411" lon="5.68748">
        <ele>782</ele>
        <time>2019-11-29T10:37:09.000Z</time>
      </trkpt>
      <trkpt lat="43.30411" lon="5.68749">
        <ele>782</ele>
        <time>2019-11-29T10:37:10.000Z</time>
      </trkpt>
      <trkpt lat="43.30411" lon="5.6875">
        <ele>782</ele>
        <time>2019-11-29T10:37:11.000Z</time>
      </trkpt>
      <trkpt lat="43.30411" lon="5.6875">
        <ele>782</ele>
        <time>2019-11-29T10:37:12.000Z</time>
      </trkpt>
      <trkpt lat="43.30412" lon="5.68751">
        <ele>782</ele>
        <time>2019-11-29T10:37:13.000Z</time>
      </trkpt>
      <trkpt lat="43.30412" lon="5.68752">
        <ele>782</ele>
        <time>2019-11-29T10:37:14.000Z</time>
      </trkpt>
      <trkpt lat="43.30412" lon="5.68752">
        <ele>783</ele>
        <time>2019-11-29T10:37:15.000Z</time>
      </trkpt>
      <trkpt lat="43.30412" lon="5.68752">
        <ele>783</ele>
        <time>2019-11-29T10:37:16.000Z</time>
      </trkpt>
      <trkpt lat="43.30413" lon="5.68752">
        <ele>783</ele>
        <time>2019-11-29T10:37:17.000Z</time>
      </trkpt>
      <trkpt lat="43.30413" lon="5.68752">
        <ele>783</ele>
        <time>2019-11-29T10:37:18.000Z</time>
      </trkpt>
      <trkpt lat="43.30414" lon="5.68752">
        <ele>783</ele>
        <time>2019-11-29T10:37:19.000Z</time>
      </trkpt>
      <trkpt lat="43.30414" lon="5.68752">
        <ele>783</ele>
        <time>2019-11-29T10:37:20.000Z</time>
      </trkpt>
      <trkpt lat="43.30415" lon="5.68753">
        <ele>783</ele>
        <time>2019-11-29T10:37:21.000Z</time>
      </trkpt>
      <trkpt lat="43.30416" lon="5.68753">
        <ele>783</ele>
        <time>2019-11-29T10:37:22.000Z</time>
      </trkpt>
      <trkpt lat="43.30417" lon="5.68753">
        <ele>783</ele>
        <time>2019-11-29T10:37:23.000Z</time>
      </trkpt>
      <trkpt lat="43.30417" lon="5.68753">
        <ele>784</ele>
        <time>2019-11-29T10:37:24.000Z</time>
      </trkpt>
      <trkpt lat="43.30418" lon="5.68753">
        <ele>784</ele>
        <time>2019-11-29T10:37:25.000Z</time>
      </trkpt>
      <trkpt lat="43.30419" lon="5.68753">
        <ele>784</ele>
        <time>2019-11-29T10:37:26.000Z</time>
      </trkpt>
      <trkpt lat="43.30419" lon="5.68753">
        <ele>784</ele>
        <time>2019-11-29T10:37:27.000Z</time>
      </trkpt>
      <trkpt lat="43.3042" lon="5.68753">
        <ele>784</ele>
        <time>2019-11-29T10:37:28.000Z</time>
      </trkpt>
      <trkpt lat="43.3042" lon="5.68753">
        <ele>784</ele>
        <time>2019-11-29T10:37:29.000Z</time>
      </trkpt>
      <trkpt lat="43.30421" lon="5.68753">
        <ele>784</ele>
        <time>2019-11-29T10:37:30.000Z</time>
      </trkpt>
      <trkpt lat="43.30422" lon="5.68753">
        <ele>785</ele>
        <time>2019-11-29T10:37:31.000Z</time>
      </trkpt>
      <trkpt lat="43.30422" lon="5.68753">
        <ele>785</ele>
        <time>2019-11-29T10:37:32.000Z</time>
      </trkpt>
      <trkpt lat="43.30422" lon="5.68752">
        <ele>785</ele>
        <time>2019-11-29T10:37:33.000Z</time>
      </trkpt>
      <trkpt lat="43.30423" lon="5.68752">
        <ele>785</ele>
        <time>2019-11-29T10:37:34.000Z</time>
      </trkpt>
      <trkpt lat="43.30423" lon="5.68752">
        <ele>785</ele>
        <time>2019-11-29T10:37:35.000Z</time>
      </trkpt>
      <trkpt lat="43.30424" lon="5.68752">
        <ele>785</ele>
        <time>2019-11-29T10:37:36.000Z</time>
      </trkpt>
      <trkpt lat="43.30424" lon="5.68752">
        <ele>786</ele>
        <time>2019-11-29T10:37:37.000Z</time>
      </trkpt>
      <trkpt lat="43.30425" lon="5.68752">
        <ele>786</ele>
        <time>2019-11-29T10:37:38.000Z</time>
      </trkpt>
      <trkpt lat="43.30425" lon="5.68752">
        <ele>786</ele>
        <time>2019-11-29T10:37:39.000Z</time>
      </trkpt>
      <trkpt lat="43.30426" lon="5.68752">
        <ele>786</ele>
        <time>2019-11-29T10:37:40.000Z</time>
      </trkpt>
      <trkpt lat="43.30426" lon="5.68753">
        <ele>786</ele>
        <time>2019-11-29T10:37:41.000Z</time>
      </trkpt>
      <trkpt lat="43.30426" lon="5.68753">
        <ele>786</ele>
        <time>2019-11-29T10:37:42.000Z</time>
      </trkpt>
      <trkpt lat="43.30427" lon="5.68753">
        <ele>786</ele>
        <time>2019-11-29T10:37:43.000Z</time>
      </trkpt>
      <trkpt lat="43.30427" lon="5.68753">
        <ele>786</ele>
        <time>2019-11-29T10:37:44.000Z</time>
      </trkpt>
      <trkpt lat="43.30428" lon="5.68753">
        <ele>787</ele>
        <time>2019-11-29T10:37:45.000Z</time>
      </trkpt>
      <trkpt lat="43.30428" lon="5.68754">
        <ele>787</ele>
        <time>2019-11-29T10:37:46.000Z</time>
      </trkpt>
      <trkpt lat="43.30428" lon="5.68754">
        <ele>787</ele>
        <time>2019-11-29T10:37:47.000Z</time>
      </trkpt>
      <trkpt lat="43.30429" lon="5.68754">
        <ele>787</ele>
        <time>2019-11-29T10:37:48.000Z</time>
      </trkpt>
      <trkpt lat="43.30429" lon="5.68755">
        <ele>787</ele>
        <time>2019-11-29T10:37:49.000Z</time>
      </trkpt>
      <trkpt lat="43.30429" lon="5.68755">
        <ele>788</ele>
        <time>2019-11-29T10:37:50.000Z</time>
      </trkpt>
      <trkpt lat="43.3043" lon="5.68755">
        <ele>788</ele>
        <time>2019-11-29T10:37:51.000Z</time>
      </trkpt>
      <trkpt lat="43.3043" lon="5.68756">
        <ele>788</ele>
        <time>2019-11-29T10:37:52.000Z</time>
      </trkpt>
      <trkpt lat="43.3043" lon="5.68756">
        <ele>788</ele>
        <time>2019-11-29T10:37:53.000Z</time>
      </trkpt>
      <trkpt lat="43.30431" lon="5.68756">
        <ele>788</ele>
        <time>2019-11-29T10:37:54.000Z</time>
      </trkpt>
      <trkpt lat="43.30431" lon="5.68756">
        <ele>788</ele>
        <time>2019-11-29T10:37:55.000Z</time>
      </trkpt>
      <trkpt lat="43.30431" lon="5.68756">
        <ele>789</ele>
        <time>2019-11-29T10:37:56.000Z</time>
      </trkpt>
      <trkpt lat="43.30432" lon="5.68756">
        <ele>789</ele>
        <time>2019-11-29T10:37:57.000Z</time>
      </trkpt>
      <trkpt lat="43.30432" lon="5.68756">
        <ele>789</ele>
        <time>2019-11-29T10:37:58.000Z</time>
      </trkpt>
      <trkpt lat="43.30433" lon="5.68756">
        <ele>789</ele>
        <time>2019-11-29T10:37:59.000Z</time>
      </trkpt>
      <trkpt lat="43.30433" lon="5.68757">
        <ele>789</ele>
        <time>2019-11-29T10:38:00.000Z</time>
      </trkpt>
      <trkpt lat="43.30433" lon="5.68757">
        <ele>790</ele>
        <time>2019-11-29T10:38:01.000Z</time>
      </trkpt>
      <trkpt lat="43.30434" lon="5.68757">
        <ele>790</ele>
        <time>2019-11-29T10:38:02.000Z</time>
      </trkpt>
      <trkpt lat="43.30434" lon="5.68757">
        <ele>790</ele>
        <time>2019-11-29T10:38:03.000Z</time>
      </trkpt>
      <trkpt lat="43.30434" lon="5.68758">
        <ele>790</ele>
        <time>2019-11-29T10:38:04.000Z</time>
      </trkpt>
      <trkpt lat="43.30434" lon="5.68758">
        <ele>790</ele>
        <time>2019-11-29T10:38:05.000Z</time>
      </trkpt>
      <trkpt lat="43.30435" lon="5.68759">
        <ele>790</ele>
        <time>2019-11-29T10:38:06.000Z</time>
      </trkpt>
      <trkpt lat="43.30435" lon="5.68759">
        <ele>791</ele>
        <time>2019-11-29T10:38:07.000Z</time>
      </trkpt>
      <trkpt lat="43.30435" lon="5.68759">
        <ele>791</ele>
        <time>2019-11-29T10:38:08.000Z</time>
      </trkpt>
      <trkpt lat="43.30435" lon="5.68759">
        <ele>791</ele>
        <time>2019-11-29T10:38:09.000Z</time>
      </trkpt>
      <trkpt lat="43.30436" lon="5.6876">
        <ele>791</ele>
        <time>2019-11-29T10:38:10.000Z</time>
      </trkpt>
      <trkpt lat="43.30436" lon="5.6876">
        <ele>791</ele>
        <time>2019-11-29T10:38:11.000Z</time>
      </trkpt>
      <trkpt lat="43.30436" lon="5.6876">
        <ele>791</ele>
        <time>2019-11-29T10:38:12.000Z</time>
      </trkpt>
      <trkpt lat="43.30436" lon="5.6876">
        <ele>791</ele>
        <time>2019-11-29T10:38:13.000Z</time>
      </trkpt>
      <trkpt lat="43.30436" lon="5.68761">
        <ele>791</ele>
        <time>2019-11-29T10:38:14.000Z</time>
      </trkpt>
      <trkpt lat="43.30437" lon="5.68761">
        <ele>791</ele>
        <time>2019-11-29T10:38:15.000Z</time>
      </trkpt>
      <trkpt lat="43.30437" lon="5.68761">
        <ele>791</ele>
        <time>2019-11-29T10:38:16.000Z</time>
      </trkpt>
      <trkpt lat="43.30437" lon="5.68761">
        <ele>792</ele>
        <time>2019-11-29T10:38:17.000Z</time>
      </trkpt>
      <trkpt lat="43.30438" lon="5.68762">
        <ele>792</ele>
        <time>2019-11-29T10:38:18.000Z</time>
      </trkpt>
      <trkpt lat="43.30438" lon="5.68762">
        <ele>792</ele>
        <time>2019-11-29T10:38:19.000Z</time>
      </trkpt>
      <trkpt lat="43.30438" lon="5.68763">
        <ele>792</ele>
        <time>2019-11-29T10:38:20.000Z</time>
      </trkpt>
      <trkpt lat="43.30438" lon="5.68763">
        <ele>792</ele>
        <time>2019-11-29T10:38:21.000Z</time>
      </trkpt>
      <trkpt lat="43.30438" lon="5.68764">
        <ele>792</ele>
        <time>2019-11-29T10:38:22.000Z</time>
      </trkpt>
      <trkpt lat="43.30439" lon="5.68764">
        <ele>792</ele>
        <time>2019-11-29T10:38:23.000Z</time>
      </trkpt>
      <trkpt lat="43.30439" lon="5.68764">
        <ele>792</ele>
        <time>2019-11-29T10:38:24.000Z</time>
      </trkpt>
      <trkpt lat="43.30439" lon="5.68765">
        <ele>792</ele>
        <time>2019-11-29T10:38:25.000Z</time>
      </trkpt>
      <trkpt lat="43.30439" lon="5.68766">
        <ele>792</ele>
        <time>2019-11-29T10:38:26.000Z</time>
      </trkpt>
      <trkpt lat="43.30439" lon="5.68766">
        <ele>792</ele>
        <time>2019-11-29T10:38:27.000Z</time>
      </trkpt>
      <trkpt lat="43.30439" lon="5.68767">
        <ele>793</ele>
        <time>2019-11-29T10:38:28.000Z</time>
      </trkpt>
      <trkpt lat="43.30439" lon="5.68767">
        <ele>793</ele>
        <time>2019-11-29T10:38:29.000Z</time>
      </trkpt>
      <trkpt lat="43.30439" lon="5.68768">
        <ele>793</ele>
        <time>2019-11-29T10:38:30.000Z</time>
      </trkpt>
      <trkpt lat="43.3044" lon="5.68768">
        <ele>793</ele>
        <time>2019-11-29T10:38:31.000Z</time>
      </trkpt>
      <trkpt lat="43.3044" lon="5.68769">
        <ele>793</ele>
        <time>2019-11-29T10:38:32.000Z</time>
      </trkpt>
      <trkpt lat="43.3044" lon="5.6877">
        <ele>793</ele>
        <time>2019-11-29T10:38:33.000Z</time>
      </trkpt>
      <trkpt lat="43.3044" lon="5.6877">
        <ele>793</ele>
        <time>2019-11-29T10:38:34.000Z</time>
      </trkpt>
      <trkpt lat="43.3044" lon="5.68771">
        <ele>793</ele>
        <time>2019-11-29T10:38:35.000Z</time>
      </trkpt>
      <trkpt lat="43.3044" lon="5.68771">
        <ele>793</ele>
        <time>2019-11-29T10:38:36.000Z</time>
      </trkpt>
      <trkpt lat="43.3044" lon="5.68772">
        <ele>794</ele>
        <time>2019-11-29T10:38:37.000Z</time>
      </trkpt>
      <trkpt lat="43.3044" lon="5.68772">
        <ele>794</ele>
        <time>2019-11-29T10:38:38.000Z</time>
      </trkpt>
      <trkpt lat="43.3044" lon="5.68773">
        <ele>794</ele>
        <time>2019-11-29T10:38:39.000Z</time>
      </trkpt>
      <trkpt lat="43.3044" lon="5.68774">
        <ele>794</ele>
        <time>2019-11-29T10:38:40.000Z</time>
      </trkpt>
      <trkpt lat="43.3044" lon="5.68774">
        <ele>794</ele>
        <time>2019-11-29T10:38:41.000Z</time>
      </trkpt>
      <trkpt lat="43.30441" lon="5.68774">
        <ele>794</ele>
        <time>2019-11-29T10:38:42.000Z</time>
      </trkpt>
      <trkpt lat="43.30441" lon="5.68775">
        <ele>794</ele>
        <time>2019-11-29T10:38:43.000Z</time>
      </trkpt>
      <trkpt lat="43.30441" lon="5.68775">
        <ele>794</ele>
        <time>2019-11-29T10:38:44.000Z</time>
      </trkpt>
      <trkpt lat="43.30442" lon="5.68776">
        <ele>795</ele>
        <time>2019-11-29T10:38:45.000Z</time>
      </trkpt>
      <trkpt lat="43.30442" lon="5.68776">
        <ele>795</ele>
        <time>2019-11-29T10:38:46.000Z</time>
      </trkpt>
      <trkpt lat="43.30442" lon="5.68776">
        <ele>795</ele>
        <time>2019-11-29T10:38:47.000Z</time>
      </trkpt>
      <trkpt lat="43.30443" lon="5.68776">
        <ele>795</ele>
        <time>2019-11-29T10:38:48.000Z</time>
      </trkpt>
      <trkpt lat="43.30443" lon="5.68776">
        <ele>795</ele>
        <time>2019-11-29T10:38:49.000Z</time>
      </trkpt>
      <trkpt lat="43.30444" lon="5.68777">
        <ele>795</ele>
        <time>2019-11-29T10:38:50.000Z</time>
      </trkpt>
      <trkpt lat="43.30444" lon="5.68777">
        <ele>796</ele>
        <time>2019-11-29T10:38:51.000Z</time>
      </trkpt>
      <trkpt lat="43.30444" lon="5.68777">
        <ele>796</ele>
        <time>2019-11-29T10:38:52.000Z</time>
      </trkpt>
      <trkpt lat="43.30444" lon="5.68777">
        <ele>796</ele>
        <time>2019-11-29T10:38:53.000Z</time>
      </trkpt>
      <trkpt lat="43.30445" lon="5.68778">
        <ele>796</ele>
        <time>2019-11-29T10:38:54.000Z</time>
      </trkpt>
      <trkpt lat="43.30445" lon="5.68778">
        <ele>796</ele>
        <time>2019-11-29T10:38:55.000Z</time>
      </trkpt>
      <trkpt lat="43.30446" lon="5.68778">
        <ele>796</ele>
        <time>2019-11-29T10:38:56.000Z</time>
      </trkpt>
      <trkpt lat="43.30446" lon="5.68779">
        <ele>796</ele>
        <time>2019-11-29T10:38:57.000Z</time>
      </trkpt>
      <trkpt lat="43.30446" lon="5.68779">
        <ele>797</ele>
        <time>2019-11-29T10:38:58.000Z</time>
      </trkpt>
      <trkpt lat="43.30447" lon="5.6878">
        <ele>797</ele>
        <time>2019-11-29T10:38:59.000Z</time>
      </trkpt>
      <trkpt lat="43.30447" lon="5.6878">
        <ele>797</ele>
        <time>2019-11-29T10:39:00.000Z</time>
      </trkpt>
      <trkpt lat="43.30447" lon="5.6878">
        <ele>797</ele>
        <time>2019-11-29T10:39:01.000Z</time>
      </trkpt>
      <trkpt lat="43.30448" lon="5.68781">
        <ele>797</ele>
        <time>2019-11-29T10:39:02.000Z</time>
      </trkpt>
      <trkpt lat="43.30448" lon="5.68781">
        <ele>797</ele>
        <time>2019-11-29T10:39:03.000Z</time>
      </trkpt>
      <trkpt lat="43.30448" lon="5.68781">
        <ele>797</ele>
        <time>2019-11-29T10:39:04.000Z</time>
      </trkpt>
      <trkpt lat="43.30448" lon="5.68782">
        <ele>798</ele>
        <time>2019-11-29T10:39:05.000Z</time>
      </trkpt>
      <trkpt lat="43.30449" lon="5.68782">
        <ele>798</ele>
        <time>2019-11-29T10:39:06.000Z</time>
      </trkpt>
      <trkpt lat="43.30449" lon="5.68782">
        <ele>798</ele>
        <time>2019-11-29T10:39:07.000Z</time>
      </trkpt>
      <trkpt lat="43.3045" lon="5.68783">
        <ele>798</ele>
        <time>2019-11-29T10:39:08.000Z</time>
      </trkpt>
      <trkpt lat="43.3045" lon="5.68783">
        <ele>798</ele>
        <time>2019-11-29T10:39:09.000Z</time>
      </trkpt>
      <trkpt lat="43.3045" lon="5.68783">
        <ele>798</ele>
        <time>2019-11-29T10:39:10.000Z</time>
      </trkpt>
      <trkpt lat="43.30451" lon="5.68784">
        <ele>798</ele>
        <time>2019-11-29T10:39:11.000Z</time>
      </trkpt>
      <trkpt lat="43.30451" lon="5.68784">
        <ele>799</ele>
        <time>2019-11-29T10:39:12.000Z</time>
      </trkpt>
      <trkpt lat="43.30451" lon="5.68785">
        <ele>799</ele>
        <time>2019-11-29T10:39:13.000Z</time>
      </trkpt>
      <trkpt lat="43.30452" lon="5.68786">
        <ele>799</ele>
        <time>2019-11-29T10:39:14.000Z</time>
      </trkpt>
      <trkpt lat="43.30452" lon="5.68786">
        <ele>799</ele>
        <time>2019-11-29T10:39:15.000Z</time>
      </trkpt>
      <trkpt lat="43.30452" lon="5.68787">
        <ele>799</ele>
        <time>2019-11-29T10:39:16.000Z</time>
      </trkpt>
      <trkpt lat="43.30452" lon="5.68788">
        <ele>799</ele>
        <time>2019-11-29T10:39:17.000Z</time>
      </trkpt>
      <trkpt lat="43.30452" lon="5.68788">
        <ele>799</ele>
        <time>2019-11-29T10:39:18.000Z</time>
      </trkpt>
      <trkpt lat="43.30452" lon="5.68788">
        <ele>800</ele>
        <time>2019-11-29T10:39:19.000Z</time>
      </trkpt>
      <trkpt lat="43.30452" lon="5.68788">
        <ele>800</ele>
        <time>2019-11-29T10:39:20.000Z</time>
      </trkpt>
      <trkpt lat="43.30452" lon="5.68788">
        <ele>800</ele>
        <time>2019-11-29T10:39:21.000Z</time>
      </trkpt>
      <trkpt lat="43.30452" lon="5.68789">
        <ele>800</ele>
        <time>2019-11-29T10:39:22.000Z</time>
      </trkpt>
      <trkpt lat="43.30452" lon="5.68788">
        <ele>800</ele>
        <time>2019-11-29T10:39:23.000Z</time>
      </trkpt>
      <trkpt lat="43.30452" lon="5.68788">
        <ele>800</ele>
        <time>2019-11-29T10:39:24.000Z</time>
      </trkpt>
      <trkpt lat="43.30451" lon="5.68789">
        <ele>800</ele>
        <time>2019-11-29T10:39:25.000Z</time>
      </trkpt>
      <trkpt lat="43.30451" lon="5.68789">
        <ele>800</ele>
        <time>2019-11-29T10:39:26.000Z</time>
      </trkpt>
      <trkpt lat="43.30451" lon="5.68789">
        <ele>800</ele>
        <time>2019-11-29T10:39:27.000Z</time>
      </trkpt>
      <trkpt lat="43.30451" lon="5.68789">
        <ele>800</ele>
        <time>2019-11-29T10:39:28.000Z</time>
      </trkpt>
      <trkpt lat="43.30451" lon="5.68789">
        <ele>800</ele>
        <time>2019-11-29T10:39:29.000Z</time>
      </trkpt>
      <trkpt lat="43.30452" lon="5.68789">
        <ele>800</ele>
        <time>2019-11-29T10:39:30.000Z</time>
      </trkpt>
      <trkpt lat="43.30452" lon="5.68789">
        <ele>800</ele>
        <time>2019-11-29T10:39:31.000Z</time>
      </trkpt>
      <trkpt lat="43.30452" lon="5.68789">
        <ele>800</ele>
        <time>2019-11-29T10:39:32.000Z</time>
      </trkpt>
      <trkpt lat="43.30452" lon="5.68789">
        <ele>800</ele>
        <time>2019-11-29T10:39:33.000Z</time>
      </trkpt>
      <trkpt lat="43.30452" lon="5.68789">
        <ele>800</ele>
        <time>2019-11-29T10:39:34.000Z</time>
      </trkpt>
      <trkpt lat="43.30452" lon="5.68789">
        <ele>800</ele>
        <time>2019-11-29T10:39:35.000Z</time>
      </trkpt>
      <trkpt lat="43.30452" lon="5.68789">
        <ele>800</ele>
        <time>2019-11-29T10:39:36.000Z</time>
      </trkpt>
      <trkpt lat="43.30452" lon="5.68789">
        <ele>800</ele>
        <time>2019-11-29T10:39:37.000Z</time>
      </trkpt>
      <trkpt lat="43.30452" lon="5.68789">
        <ele>800</ele>
        <time>2019-11-29T10:39:38.000Z</time>
      </trkpt>
      <trkpt lat="43.30452" lon="5.68789">
        <ele>800</ele>
        <time>2019-11-29T10:39:39.000Z</time>
      </trkpt>
      <trkpt lat="43.30452" lon="5.6879">
        <ele>800</ele>
        <time>2019-11-29T10:39:40.000Z</time>
      </trkpt>
      <trkpt lat="43.30452" lon="5.6879">
        <ele>800</ele>
        <time>2019-11-29T10:39:41.000Z</time>
      </trkpt>
      <trkpt lat="43.30452" lon="5.68791">
        <ele>800</ele>
        <time>2019-11-29T10:39:42.000Z</time>
      </trkpt>
      <trkpt lat="43.30452" lon="5.68791">
        <ele>800</ele>
        <time>2019-11-29T10:39:43.000Z</time>
      </trkpt>
      <trkpt lat="43.30452" lon="5.68792">
        <ele>800</ele>
        <time>2019-11-29T10:39:44.000Z</time>
      </trkpt>
      <trkpt lat="43.30452" lon="5.68793">
        <ele>800</ele>
        <time>2019-11-29T10:39:45.000Z</time>
      </trkpt>
      <trkpt lat="43.30453" lon="5.68793">
        <ele>800</ele>
        <time>2019-11-29T10:39:46.000Z</time>
      </trkpt>
      <trkpt lat="43.30453" lon="5.68793">
        <ele>800</ele>
        <time>2019-11-29T10:39:47.000Z</time>
      </trkpt>
      <trkpt lat="43.30453" lon="5.68793">
        <ele>800</ele>
        <time>2019-11-29T10:39:48.000Z</time>
      </trkpt>
      <trkpt lat="43.30454" lon="5.68794">
        <ele>801</ele>
        <time>2019-11-29T10:39:49.000Z</time>
      </trkpt>
      <trkpt lat="43.30454" lon="5.68794">
        <ele>801</ele>
        <time>2019-11-29T10:39:50.000Z</time>
      </trkpt>
      <trkpt lat="43.30454" lon="5.68794">
        <ele>801</ele>
        <time>2019-11-29T10:39:51.000Z</time>
      </trkpt>
      <trkpt lat="43.30455" lon="5.68794">
        <ele>801</ele>
        <time>2019-11-29T10:39:52.000Z</time>
      </trkpt>
      <trkpt lat="43.30455" lon="5.68795">
        <ele>801</ele>
        <time>2019-11-29T10:39:53.000Z</time>
      </trkpt>
      <trkpt lat="43.30456" lon="5.68795">
        <ele>801</ele>
        <time>2019-11-29T10:39:54.000Z</time>
      </trkpt>
      <trkpt lat="43.30456" lon="5.68795">
        <ele>801</ele>
        <time>2019-11-29T10:39:55.000Z</time>
      </trkpt>
      <trkpt lat="43.30457" lon="5.68796">
        <ele>801</ele>
        <time>2019-11-29T10:39:56.000Z</time>
      </trkpt>
      <trkpt lat="43.30457" lon="5.68796">
        <ele>802</ele>
        <time>2019-11-29T10:39:57.000Z</time>
      </trkpt>
      <trkpt lat="43.30458" lon="5.68796">
        <ele>802</ele>
        <time>2019-11-29T10:39:58.000Z</time>
      </trkpt>
      <trkpt lat="43.30458" lon="5.68796">
        <ele>802</ele>
        <time>2019-11-29T10:39:59.000Z</time>
      </trkpt>
      <trkpt lat="43.30459" lon="5.68796">
        <ele>802</ele>
        <time>2019-11-29T10:40:00.000Z</time>
      </trkpt>
      <trkpt lat="43.30459" lon="5.68797">
        <ele>802</ele>
        <time>2019-11-29T10:40:01.000Z</time>
      </trkpt>
      <trkpt lat="43.3046" lon="5.68797">
        <ele>802</ele>
        <time>2019-11-29T10:40:02.000Z</time>
      </trkpt>
      <trkpt lat="43.3046" lon="5.68797">
        <ele>802</ele>
        <time>2019-11-29T10:40:03.000Z</time>
      </trkpt>
      <trkpt lat="43.3046" lon="5.68797">
        <ele>802</ele>
        <time>2019-11-29T10:40:04.000Z</time>
      </trkpt>
      <trkpt lat="43.30461" lon="5.68797">
        <ele>803</ele>
        <time>2019-11-29T10:40:05.000Z</time>
      </trkpt>
      <trkpt lat="43.30461" lon="5.68797">
        <ele>803</ele>
        <time>2019-11-29T10:40:06.000Z</time>
      </trkpt>
      <trkpt lat="43.30462" lon="5.68797">
        <ele>803</ele>
        <time>2019-11-29T10:40:07.000Z</time>
      </trkpt>
      <trkpt lat="43.30462" lon="5.68798">
        <ele>803</ele>
        <time>2019-11-29T10:40:08.000Z</time>
      </trkpt>
      <trkpt lat="43.30463" lon="5.68798">
        <ele>803</ele>
        <time>2019-11-29T10:40:09.000Z</time>
      </trkpt>
      <trkpt lat="43.30463" lon="5.68798">
        <ele>803</ele>
        <time>2019-11-29T10:40:10.000Z</time>
      </trkpt>
      <trkpt lat="43.30464" lon="5.68798">
        <ele>803</ele>
        <time>2019-11-29T10:40:11.000Z</time>
      </trkpt>
      <trkpt lat="43.30464" lon="5.68798">
        <ele>803</ele>
        <time>2019-11-29T10:40:12.000Z</time>
      </trkpt>
      <trkpt lat="43.30465" lon="5.68798">
        <ele>804</ele>
        <time>2019-11-29T10:40:13.000Z</time>
      </trkpt>
      <trkpt lat="43.30465" lon="5.68799">
        <ele>804</ele>
        <time>2019-11-29T10:40:14.000Z</time>
      </trkpt>
      <trkpt lat="43.30466" lon="5.68799">
        <ele>804</ele>
        <time>2019-11-29T10:40:15.000Z</time>
      </trkpt>
      <trkpt lat="43.30466" lon="5.68799">
        <ele>804</ele>
        <time>2019-11-29T10:40:16.000Z</time>
      </trkpt>
      <trkpt lat="43.30467" lon="5.68799">
        <ele>804</ele>
        <time>2019-11-29T10:40:17.000Z</time>
      </trkpt>
      <trkpt lat="43.30467" lon="5.688">
        <ele>805</ele>
        <time>2019-11-29T10:40:18.000Z</time>
      </trkpt>
      <trkpt lat="43.30468" lon="5.688">
        <ele>805</ele>
        <time>2019-11-29T10:40:19.000Z</time>
      </trkpt>
      <trkpt lat="43.30468" lon="5.68801">
        <ele>805</ele>
        <time>2019-11-29T10:40:20.000Z</time>
      </trkpt>
      <trkpt lat="43.30468" lon="5.68801">
        <ele>805</ele>
        <time>2019-11-29T10:40:21.000Z</time>
      </trkpt>
      <trkpt lat="43.30469" lon="5.68802">
        <ele>805</ele>
        <time>2019-11-29T10:40:22.000Z</time>
      </trkpt>
      <trkpt lat="43.30469" lon="5.68802">
        <ele>805</ele>
        <time>2019-11-29T10:40:23.000Z</time>
      </trkpt>
      <trkpt lat="43.3047" lon="5.68802">
        <ele>806</ele>
        <time>2019-11-29T10:40:24.000Z</time>
      </trkpt>
      <trkpt lat="43.3047" lon="5.68803">
        <ele>806</ele>
        <time>2019-11-29T10:40:25.000Z</time>
      </trkpt>
      <trkpt lat="43.3047" lon="5.68803">
        <ele>806</ele>
        <time>2019-11-29T10:40:26.000Z</time>
      </trkpt>
      <trkpt lat="43.30471" lon="5.68804">
        <ele>806</ele>
        <time>2019-11-29T10:40:27.000Z</time>
      </trkpt>
      <trkpt lat="43.30471" lon="5.68805">
        <ele>806</ele>
        <time>2019-11-29T10:40:28.000Z</time>
      </trkpt>
      <trkpt lat="43.30471" lon="5.68805">
        <ele>806</ele>
        <time>2019-11-29T10:40:29.000Z</time>
      </trkpt>
      <trkpt lat="43.30472" lon="5.68806">
        <ele>806</ele>
        <time>2019-11-29T10:40:30.000Z</time>
      </trkpt>
      <trkpt lat="43.30472" lon="5.68806">
        <ele>807</ele>
        <time>2019-11-29T10:40:31.000Z</time>
      </trkpt>
      <trkpt lat="43.30473" lon="5.68807">
        <ele>807</ele>
        <time>2019-11-29T10:40:32.000Z</time>
      </trkpt>
      <trkpt lat="43.30473" lon="5.68807">
        <ele>807</ele>
        <time>2019-11-29T10:40:33.000Z</time>
      </trkpt>
      <trkpt lat="43.30474" lon="5.68808">
        <ele>807</ele>
        <time>2019-11-29T10:40:34.000Z</time>
      </trkpt>
      <trkpt lat="43.30474" lon="5.68808">
        <ele>807</ele>
        <time>2019-11-29T10:40:35.000Z</time>
      </trkpt>
      <trkpt lat="43.30475" lon="5.68809">
        <ele>808</ele>
        <time>2019-11-29T10:40:36.000Z</time>
      </trkpt>
      <trkpt lat="43.30475" lon="5.68809">
        <ele>808</ele>
        <time>2019-11-29T10:40:37.000Z</time>
      </trkpt>
      <trkpt lat="43.30476" lon="5.6881">
        <ele>808</ele>
        <time>2019-11-29T10:40:38.000Z</time>
      </trkpt>
      <trkpt lat="43.30476" lon="5.6881">
        <ele>808</ele>
        <time>2019-11-29T10:40:39.000Z</time>
      </trkpt>
      <trkpt lat="43.30477" lon="5.68811">
        <ele>808</ele>
        <time>2019-11-29T10:40:40.000Z</time>
      </trkpt>
      <trkpt lat="43.30477" lon="5.68811">
        <ele>808</ele>
        <time>2019-11-29T10:40:41.000Z</time>
      </trkpt>
      <trkpt lat="43.30478" lon="5.68812">
        <ele>808</ele>
        <time>2019-11-29T10:40:42.000Z</time>
      </trkpt>
      <trkpt lat="43.30478" lon="5.68813">
        <ele>809</ele>
        <time>2019-11-29T10:40:43.000Z</time>
      </trkpt>
      <trkpt lat="43.30479" lon="5.68814">
        <ele>809</ele>
        <time>2019-11-29T10:40:44.000Z</time>
      </trkpt>
      <trkpt lat="43.30479" lon="5.68814">
        <ele>809</ele>
        <time>2019-11-29T10:40:45.000Z</time>
      </trkpt>
      <trkpt lat="43.30479" lon="5.68815">
        <ele>809</ele>
        <time>2019-11-29T10:40:46.000Z</time>
      </trkpt>
      <trkpt lat="43.3048" lon="5.68816">
        <ele>809</ele>
        <time>2019-11-29T10:40:47.000Z</time>
      </trkpt>
      <trkpt lat="43.3048" lon="5.68816">
        <ele>809</ele>
        <time>2019-11-29T10:40:48.000Z</time>
      </trkpt>
      <trkpt lat="43.3048" lon="5.68817">
        <ele>809</ele>
        <time>2019-11-29T10:40:49.000Z</time>
      </trkpt>
      <trkpt lat="43.30481" lon="5.68818">
        <ele>809</ele>
        <time>2019-11-29T10:40:50.000Z</time>
      </trkpt>
      <trkpt lat="43.30481" lon="5.68819">
        <ele>809</ele>
        <time>2019-11-29T10:40:51.000Z</time>
      </trkpt>
      <trkpt lat="43.30481" lon="5.68819">
        <ele>810</ele>
        <time>2019-11-29T10:40:52.000Z</time>
      </trkpt>
      <trkpt lat="43.30481" lon="5.6882">
        <ele>810</ele>
        <time>2019-11-29T10:40:53.000Z</time>
      </trkpt>
      <trkpt lat="43.30481" lon="5.68821">
        <ele>810</ele>
        <time>2019-11-29T10:40:54.000Z</time>
      </trkpt>
      <trkpt lat="43.30482" lon="5.68821">
        <ele>810</ele>
        <time>2019-11-29T10:40:55.000Z</time>
      </trkpt>
      <trkpt lat="43.30482" lon="5.68822">
        <ele>810</ele>
        <time>2019-11-29T10:40:56.000Z</time>
      </trkpt>
      <trkpt lat="43.30482" lon="5.68823">
        <ele>810</ele>
        <time>2019-11-29T10:40:57.000Z</time>
      </trkpt>
      <trkpt lat="43.30483" lon="5.68823">
        <ele>810</ele>
        <time>2019-11-29T10:40:58.000Z</time>
      </trkpt>
      <trkpt lat="43.30484" lon="5.68824">
        <ele>810</ele>
        <time>2019-11-29T10:40:59.000Z</time>
      </trkpt>
      <trkpt lat="43.30484" lon="5.68825">
        <ele>810</ele>
        <time>2019-11-29T10:41:00.000Z</time>
      </trkpt>
      <trkpt lat="43.30484" lon="5.68825">
        <ele>811</ele>
        <time>2019-11-29T10:41:01.000Z</time>
      </trkpt>
      <trkpt lat="43.30485" lon="5.68826">
        <ele>811</ele>
        <time>2019-11-29T10:41:02.000Z</time>
      </trkpt>
      <trkpt lat="43.30485" lon="5.68827">
        <ele>811</ele>
        <time>2019-11-29T10:41:03.000Z</time>
      </trkpt>
      <trkpt lat="43.30486" lon="5.68827">
        <ele>811</ele>
        <time>2019-11-29T10:41:04.000Z</time>
      </trkpt>
      <trkpt lat="43.30486" lon="5.68828">
        <ele>811</ele>
        <time>2019-11-29T10:41:05.000Z</time>
      </trkpt>
      <trkpt lat="43.30487" lon="5.68829">
        <ele>811</ele>
        <time>2019-11-29T10:41:06.000Z</time>
      </trkpt>
      <trkpt lat="43.30487" lon="5.68829">
        <ele>811</ele>
        <time>2019-11-29T10:41:07.000Z</time>
      </trkpt>
      <trkpt lat="43.30487" lon="5.6883">
        <ele>812</ele>
        <time>2019-11-29T10:41:08.000Z</time>
      </trkpt>
      <trkpt lat="43.30488" lon="5.6883">
        <ele>812</ele>
        <time>2019-11-29T10:41:09.000Z</time>
      </trkpt>
      <trkpt lat="43.30488" lon="5.6883">
        <ele>812</ele>
        <time>2019-11-29T10:41:10.000Z</time>
      </trkpt>
      <trkpt lat="43.30488" lon="5.6883">
        <ele>812</ele>
        <time>2019-11-29T10:41:11.000Z</time>
      </trkpt>
      <trkpt lat="43.30488" lon="5.6883">
        <ele>812</ele>
        <time>2019-11-29T10:41:12.000Z</time>
      </trkpt>
      <trkpt lat="43.30488" lon="5.6883">
        <ele>812</ele>
        <time>2019-11-29T10:41:13.000Z</time>
      </trkpt>
      <trkpt lat="43.30488" lon="5.6883">
        <ele>812</ele>
        <time>2019-11-29T10:41:14.000Z</time>
      </trkpt>
      <trkpt lat="43.30489" lon="5.6883">
        <ele>812</ele>
        <time>2019-11-29T10:41:15.000Z</time>
      </trkpt>
      <trkpt lat="43.30489" lon="5.6883">
        <ele>812</ele>
        <time>2019-11-29T10:41:16.000Z</time>
      </trkpt>
      <trkpt lat="43.30489" lon="5.6883">
        <ele>812</ele>
        <time>2019-11-29T10:41:17.000Z</time>
      </trkpt>
      <trkpt lat="43.30489" lon="5.6883">
        <ele>812</ele>
        <time>2019-11-29T10:41:18.000Z</time>
      </trkpt>
      <trkpt lat="43.30489" lon="5.6883">
        <ele>812</ele>
        <time>2019-11-29T10:41:19.000Z</time>
      </trkpt>
      <trkpt lat="43.30489" lon="5.6883">
        <ele>812</ele>
        <time>2019-11-29T10:41:20.000Z</time>
      </trkpt>
      <trkpt lat="43.30489" lon="5.6883">
        <ele>812</ele>
        <time>2019-11-29T10:41:21.000Z</time>
      </trkpt>
      <trkpt lat="43.30489" lon="5.6883">
        <ele>812</ele>
        <time>2019-11-29T10:41:22.000Z</time>
      </trkpt>
      <trkpt lat="43.30489" lon="5.6883">
        <ele>812</ele>
        <time>2019-11-29T10:41:23.000Z</time>
      </trkpt>
      <trkpt lat="43.30489" lon="5.6883">
        <ele>812</ele>
        <time>2019-11-29T10:41:24.000Z</time>
      </trkpt>
      <trkpt lat="43.30489" lon="5.6883">
        <ele>812</ele>
        <time>2019-11-29T10:41:25.000Z</time>
      </trkpt>
      <trkpt lat="43.30489" lon="5.6883">
        <ele>812</ele>
        <time>2019-11-29T10:41:26.000Z</time>
      </trkpt>
      <trkpt lat="43.30489" lon="5.6883">
        <ele>812</ele>
        <time>2019-11-29T10:41:27.000Z</time>
      </trkpt>
      <trkpt lat="43.30489" lon="5.6883">
        <ele>812</ele>
        <time>2019-11-29T10:41:28.000Z</time>
      </trkpt>
      <trkpt lat="43.30489" lon="5.6883">
        <ele>812</ele>
        <time>2019-11-29T10:41:29.000Z</time>
      </trkpt>
      <trkpt lat="43.30489" lon="5.6883">
        <ele>812</ele>
        <time>2019-11-29T10:41:30.000Z</time>
      </trkpt>
      <trkpt lat="43.30489" lon="5.6883">
        <ele>812</ele>
        <time>2019-11-29T10:41:31.000Z</time>
      </trkpt>
      <trkpt lat="43.30489" lon="5.6883">
        <ele>812</ele>
        <time>2019-11-29T10:41:32.000Z</time>
      </trkpt>
      <trkpt lat="43.30489" lon="5.6883">
        <ele>812</ele>
        <time>2019-11-29T10:41:33.000Z</time>
      </trkpt>
      <trkpt lat="43.30489" lon="5.6883">
        <ele>812</ele>
        <time>2019-11-29T10:41:34.000Z</time>
      </trkpt>
      <trkpt lat="43.30489" lon="5.6883">
        <ele>812</ele>
        <time>2019-11-29T10:41:35.000Z</time>
      </trkpt>
      <trkpt lat="43.30489" lon="5.68831">
        <ele>812</ele>
        <time>2019-11-29T10:41:36.000Z</time>
      </trkpt>
      <trkpt lat="43.30489" lon="5.68831">
        <ele>812</ele>
        <time>2019-11-29T10:41:37.000Z</time>
      </trkpt>
      <trkpt lat="43.30489" lon="5.68831">
        <ele>812</ele>
        <time>2019-11-29T10:41:38.000Z</time>
      </trkpt>
      <trkpt lat="43.3049" lon="5.68832">
        <ele>812</ele>
        <time>2019-11-29T10:41:39.000Z</time>
      </trkpt>
      <trkpt lat="43.3049" lon="5.68832">
        <ele>812</ele>
        <time>2019-11-29T10:41:40.000Z</time>
      </trkpt>
      <trkpt lat="43.3049" lon="5.68832">
        <ele>812</ele>
        <time>2019-11-29T10:41:41.000Z</time>
      </trkpt>
      <trkpt lat="43.3049" lon="5.68832">
        <ele>812</ele>
        <time>2019-11-29T10:41:42.000Z</time>
      </trkpt>
      <trkpt lat="43.3049" lon="5.68832">
        <ele>812</ele>
        <time>2019-11-29T10:41:43.000Z</time>
      </trkpt>
      <trkpt lat="43.3049" lon="5.68832">
        <ele>812</ele>
        <time>2019-11-29T10:41:44.000Z</time>
      </trkpt>
      <trkpt lat="43.3049" lon="5.68832">
        <ele>812</ele>
        <time>2019-11-29T10:41:45.000Z</time>
      </trkpt>
      <trkpt lat="43.3049" lon="5.68832">
        <ele>812</ele>
        <time>2019-11-29T10:41:46.000Z</time>
      </trkpt>
      <trkpt lat="43.3049" lon="5.68832">
        <ele>812</ele>
        <time>2019-11-29T10:41:47.000Z</time>
      </trkpt>
      <trkpt lat="43.3049" lon="5.68832">
        <ele>812</ele>
        <time>2019-11-29T10:41:48.000Z</time>
      </trkpt>
      <trkpt lat="43.3049" lon="5.68832">
        <ele>812</ele>
        <time>2019-11-29T10:41:49.000Z</time>
      </trkpt>
      <trkpt lat="43.3049" lon="5.68832">
        <ele>812</ele>
        <time>2019-11-29T10:41:50.000Z</time>
      </trkpt>
      <trkpt lat="43.3049" lon="5.68832">
        <ele>812</ele>
        <time>2019-11-29T10:41:51.000Z</time>
      </trkpt>
      <trkpt lat="43.3049" lon="5.68833">
        <ele>812</ele>
        <time>2019-11-29T10:41:52.000Z</time>
      </trkpt>
      <trkpt lat="43.3049" lon="5.68834">
        <ele>812</ele>
        <time>2019-11-29T10:41:53.000Z</time>
      </trkpt>
      <trkpt lat="43.3049" lon="5.68834">
        <ele>812</ele>
        <time>2019-11-29T10:41:54.000Z</time>
      </trkpt>
      <trkpt lat="43.3049" lon="5.68834">
        <ele>812</ele>
        <time>2019-11-29T10:41:55.000Z</time>
      </trkpt>
      <trkpt lat="43.3049" lon="5.68834">
        <ele>812</ele>
        <time>2019-11-29T10:41:56.000Z</time>
      </trkpt>
      <trkpt lat="43.3049" lon="5.68835">
        <ele>812</ele>
        <time>2019-11-29T10:41:57.000Z</time>
      </trkpt>
      <trkpt lat="43.3049" lon="5.68834">
        <ele>812</ele>
        <time>2019-11-29T10:41:58.000Z</time>
      </trkpt>
      <trkpt lat="43.3049" lon="5.68834">
        <ele>812</ele>
        <time>2019-11-29T10:41:59.000Z</time>
      </trkpt>
      <trkpt lat="43.3049" lon="5.68834">
        <ele>812</ele>
        <time>2019-11-29T10:42:00.000Z</time>
      </trkpt>
      <trkpt lat="43.3049" lon="5.68834">
        <ele>812</ele>
        <time>2019-11-29T10:42:01.000Z</time>
      </trkpt>
      <trkpt lat="43.3049" lon="5.68834">
        <ele>812</ele>
        <time>2019-11-29T10:42:02.000Z</time>
      </trkpt>
      <trkpt lat="43.3049" lon="5.68834">
        <ele>812</ele>
        <time>2019-11-29T10:42:03.000Z</time>
      </trkpt>
      <trkpt lat="43.3049" lon="5.68834">
        <ele>812</ele>
        <time>2019-11-29T10:42:04.000Z</time>
      </trkpt>
      <trkpt lat="43.3049" lon="5.68834">
        <ele>812</ele>
        <time>2019-11-29T10:42:05.000Z</time>
      </trkpt>
      <trkpt lat="43.3049" lon="5.68834">
        <ele>812</ele>
        <time>2019-11-29T10:42:06.000Z</time>
      </trkpt>
      <trkpt lat="43.3049" lon="5.68834">
        <ele>812</ele>
        <time>2019-11-29T10:42:07.000Z</time>
      </trkpt>
      <trkpt lat="43.3049" lon="5.68834">
        <ele>812</ele>
        <time>2019-11-29T10:42:08.000Z</time>
      </trkpt>
      <trkpt lat="43.3049" lon="5.68834">
        <ele>812</ele>
        <time>2019-11-29T10:42:09.000Z</time>
      </trkpt>
      <trkpt lat="43.3049" lon="5.68834">
        <ele>812</ele>
        <time>2019-11-29T10:42:10.000Z</time>
      </trkpt>
      <trkpt lat="43.3049" lon="5.68834">
        <ele>812</ele>
        <time>2019-11-29T10:42:11.000Z</time>
      </trkpt>
      <trkpt lat="43.3049" lon="5.68834">
        <ele>813</ele>
        <time>2019-11-29T10:42:12.000Z</time>
      </trkpt>
      <trkpt lat="43.3049" lon="5.68834">
        <ele>813</ele>
        <time>2019-11-29T10:42:13.000Z</time>
      </trkpt>
      <trkpt lat="43.3049" lon="5.68834">
        <ele>813</ele>
        <time>2019-11-29T10:42:14.000Z</time>
      </trkpt>
      <trkpt lat="43.3049" lon="5.68834">
        <ele>813</ele>
        <time>2019-11-29T10:42:15.000Z</time>
      </trkpt>
      <trkpt lat="43.3049" lon="5.68834">
        <ele>813</ele>
        <time>2019-11-29T10:42:16.000Z</time>
      </trkpt>
      <trkpt lat="43.3049" lon="5.68834">
        <ele>813</ele>
        <time>2019-11-29T10:42:17.000Z</time>
      </trkpt>
      <trkpt lat="43.3049" lon="5.68834">
        <ele>813</ele>
        <time>2019-11-29T10:42:18.000Z</time>
      </trkpt>
      <trkpt lat="43.3049" lon="5.68834">
        <ele>813</ele>
        <time>2019-11-29T10:42:19.000Z</time>
      </trkpt>
      <trkpt lat="43.3049" lon="5.68834">
        <ele>813</ele>
        <time>2019-11-29T10:42:20.000Z</time>
      </trkpt>
      <trkpt lat="43.3049" lon="5.68835">
        <ele>813</ele>
        <time>2019-11-29T10:42:21.000Z</time>
      </trkpt>
      <trkpt lat="43.3049" lon="5.68835">
        <ele>813</ele>
        <time>2019-11-29T10:42:22.000Z</time>
      </trkpt>
      <trkpt lat="43.3049" lon="5.68835">
        <ele>813</ele>
        <time>2019-11-29T10:42:23.000Z</time>
      </trkpt>
      <trkpt lat="43.30491" lon="5.68835">
        <ele>813</ele>
        <time>2019-11-29T10:42:24.000Z</time>
      </trkpt>
      <trkpt lat="43.30491" lon="5.68835">
        <ele>813</ele>
        <time>2019-11-29T10:42:25.000Z</time>
      </trkpt>
      <trkpt lat="43.30491" lon="5.68835">
        <ele>813</ele>
        <time>2019-11-29T10:42:26.000Z</time>
      </trkpt>
      <trkpt lat="43.30491" lon="5.68835">
        <ele>813</ele>
        <time>2019-11-29T10:42:27.000Z</time>
      </trkpt>
      <trkpt lat="43.30491" lon="5.68835">
        <ele>813</ele>
        <time>2019-11-29T10:42:28.000Z</time>
      </trkpt>
      <trkpt lat="43.30491" lon="5.68835">
        <ele>813</ele>
        <time>2019-11-29T10:42:29.000Z</time>
      </trkpt>
      <trkpt lat="43.30491" lon="5.68835">
        <ele>813</ele>
        <time>2019-11-29T10:42:30.000Z</time>
      </trkpt>
      <trkpt lat="43.30491" lon="5.68835">
        <ele>813</ele>
        <time>2019-11-29T10:42:31.000Z</time>
      </trkpt>
      <trkpt lat="43.30491" lon="5.68835">
        <ele>813</ele>
        <time>2019-11-29T10:42:32.000Z</time>
      </trkpt>
      <trkpt lat="43.30491" lon="5.68835">
        <ele>813</ele>
        <time>2019-11-29T10:42:33.000Z</time>
      </trkpt>
      <trkpt lat="43.30491" lon="5.68835">
        <ele>813</ele>
        <time>2019-11-29T10:42:34.000Z</time>
      </trkpt>
      <trkpt lat="43.30491" lon="5.68835">
        <ele>813</ele>
        <time>2019-11-29T10:42:35.000Z</time>
      </trkpt>
      <trkpt lat="43.30491" lon="5.68835">
        <ele>813</ele>
        <time>2019-11-29T10:42:36.000Z</time>
      </trkpt>
      <trkpt lat="43.30491" lon="5.68835">
        <ele>813</ele>
        <time>2019-11-29T10:42:37.000Z</time>
      </trkpt>
      <trkpt lat="43.30491" lon="5.68835">
        <ele>813</ele>
        <time>2019-11-29T10:42:38.000Z</time>
      </trkpt>
      <trkpt lat="43.30491" lon="5.68835">
        <ele>813</ele>
        <time>2019-11-29T10:42:39.000Z</time>
      </trkpt>
      <trkpt lat="43.30491" lon="5.68835">
        <ele>813</ele>
        <time>2019-11-29T10:42:40.000Z</time>
      </trkpt>
      <trkpt lat="43.30491" lon="5.68835">
        <ele>813</ele>
        <time>2019-11-29T10:42:41.000Z</time>
      </trkpt>
      <trkpt lat="43.30491" lon="5.68835">
        <ele>813</ele>
        <time>2019-11-29T10:42:42.000Z</time>
      </trkpt>
      <trkpt lat="43.30491" lon="5.68835">
        <ele>813</ele>
        <time>2019-11-29T10:42:43.000Z</time>
      </trkpt>
      <trkpt lat="43.30491" lon="5.68835">
        <ele>813</ele>
        <time>2019-11-29T10:42:44.000Z</time>
      </trkpt>
      <trkpt lat="43.30491" lon="5.68835">
        <ele>813</ele>
        <time>2019-11-29T10:42:45.000Z</time>
      </trkpt>
      <trkpt lat="43.30491" lon="5.68835">
        <ele>813</ele>
        <time>2019-11-29T10:42:46.000Z</time>
      </trkpt>
      <trkpt lat="43.30491" lon="5.68835">
        <ele>813</ele>
        <time>2019-11-29T10:42:47.000Z</time>
      </trkpt>
      <trkpt lat="43.30491" lon="5.68835">
        <ele>813</ele>
        <time>2019-11-29T10:42:48.000Z</time>
      </trkpt>
      <trkpt lat="43.3049" lon="5.68835">
        <ele>813</ele>
        <time>2019-11-29T10:42:49.000Z</time>
      </trkpt>
      <trkpt lat="43.3049" lon="5.68835">
        <ele>813</ele>
        <time>2019-11-29T10:42:50.000Z</time>
      </trkpt>
      <trkpt lat="43.3049" lon="5.68835">
        <ele>813</ele>
        <time>2019-11-29T10:42:51.000Z</time>
      </trkpt>
      <trkpt lat="43.3049" lon="5.68835">
        <ele>813</ele>
        <time>2019-11-29T10:42:52.000Z</time>
      </trkpt>
      <trkpt lat="43.30491" lon="5.68835">
        <ele>813</ele>
        <time>2019-11-29T10:42:53.000Z</time>
      </trkpt>
      <trkpt lat="43.30491" lon="5.68835">
        <ele>813</ele>
        <time>2019-11-29T10:42:54.000Z</time>
      </trkpt>
      <trkpt lat="43.30491" lon="5.68836">
        <ele>813</ele>
        <time>2019-11-29T10:42:55.000Z</time>
      </trkpt>
      <trkpt lat="43.30491" lon="5.68837">
        <ele>813</ele>
        <time>2019-11-29T10:42:56.000Z</time>
      </trkpt>
      <trkpt lat="43.30491" lon="5.68837">
        <ele>813</ele>
        <time>2019-11-29T10:42:57.000Z</time>
      </trkpt>
      <trkpt lat="43.30491" lon="5.68837">
        <ele>813</ele>
        <time>2019-11-29T10:42:58.000Z</time>
      </trkpt>
      <trkpt lat="43.30491" lon="5.68837">
        <ele>813</ele>
        <time>2019-11-29T10:42:59.000Z</time>
      </trkpt>
      <trkpt lat="43.30491" lon="5.68837">
        <ele>813</ele>
        <time>2019-11-29T10:43:00.000Z</time>
      </trkpt>
      <trkpt lat="43.30491" lon="5.68838">
        <ele>813</ele>
        <time>2019-11-29T10:43:01.000Z</time>
      </trkpt>
      <trkpt lat="43.30491" lon="5.68838">
        <ele>813</ele>
        <time>2019-11-29T10:43:02.000Z</time>
      </trkpt>
      <trkpt lat="43.30491" lon="5.68838">
        <ele>813</ele>
        <time>2019-11-29T10:43:03.000Z</time>
      </trkpt>
      <trkpt lat="43.30491" lon="5.68838">
        <ele>813</ele>
        <time>2019-11-29T10:43:04.000Z</time>
      </trkpt>
      <trkpt lat="43.30491" lon="5.68838">
        <ele>813</ele>
        <time>2019-11-29T10:43:05.000Z</time>
      </trkpt>
      <trkpt lat="43.30491" lon="5.68838">
        <ele>813</ele>
        <time>2019-11-29T10:43:06.000Z</time>
      </trkpt>
      <trkpt lat="43.30491" lon="5.68838">
        <ele>813</ele>
        <time>2019-11-29T10:43:07.000Z</time>
      </trkpt>
      <trkpt lat="43.30491" lon="5.68838">
        <ele>813</ele>
        <time>2019-11-29T10:43:08.000Z</time>
      </trkpt>
      <trkpt lat="43.30491" lon="5.68838">
        <ele>813</ele>
        <time>2019-11-29T10:43:09.000Z</time>
      </trkpt>
      <trkpt lat="43.30491" lon="5.68838">
        <ele>813</ele>
        <time>2019-11-29T10:43:10.000Z</time>
      </trkpt>
      <trkpt lat="43.30491" lon="5.68838">
        <ele>813</ele>
        <time>2019-11-29T10:43:11.000Z</time>
      </trkpt>
      <trkpt lat="43.30491" lon="5.68838">
        <ele>812</ele>
        <time>2019-11-29T10:43:12.000Z</time>
      </trkpt>
      <trkpt lat="43.30491" lon="5.68839">
        <ele>812</ele>
        <time>2019-11-29T10:43:13.000Z</time>
      </trkpt>
      <trkpt lat="43.30491" lon="5.68839">
        <ele>812</ele>
        <time>2019-11-29T10:43:14.000Z</time>
      </trkpt>
      <trkpt lat="43.30491" lon="5.68839">
        <ele>812</ele>
        <time>2019-11-29T10:43:15.000Z</time>
      </trkpt>
      <trkpt lat="43.30491" lon="5.68839">
        <ele>812</ele>
        <time>2019-11-29T10:43:16.000Z</time>
      </trkpt>
      <trkpt lat="43.30491" lon="5.68839">
        <ele>812</ele>
        <time>2019-11-29T10:43:17.000Z</time>
      </trkpt>
      <trkpt lat="43.30491" lon="5.68839">
        <ele>812</ele>
        <time>2019-11-29T10:43:18.000Z</time>
      </trkpt>
      <trkpt lat="43.30491" lon="5.68839">
        <ele>812</ele>
        <time>2019-11-29T10:43:19.000Z</time>
      </trkpt>
      <trkpt lat="43.30491" lon="5.68839">
        <ele>812</ele>
        <time>2019-11-29T10:43:20.000Z</time>
      </trkpt>
      <trkpt lat="43.30491" lon="5.68839">
        <ele>812</ele>
        <time>2019-11-29T10:43:21.000Z</time>
      </trkpt>
      <trkpt lat="43.30491" lon="5.68839">
        <ele>812</ele>
        <time>2019-11-29T10:43:22.000Z</time>
      </trkpt>
      <trkpt lat="43.30491" lon="5.68839">
        <ele>812</ele>
        <time>2019-11-29T10:43:23.000Z</time>
      </trkpt>
      <trkpt lat="43.30491" lon="5.68839">
        <ele>812</ele>
        <time>2019-11-29T10:43:24.000Z</time>
      </trkpt>
      <trkpt lat="43.30491" lon="5.68839">
        <ele>812</ele>
        <time>2019-11-29T10:43:25.000Z</time>
      </trkpt>
      <trkpt lat="43.30491" lon="5.68839">
        <ele>812</ele>
        <time>2019-11-29T10:43:26.000Z</time>
      </trkpt>
      <trkpt lat="43.30491" lon="5.68839">
        <ele>812</ele>
        <time>2019-11-29T10:43:27.000Z</time>
      </trkpt>
      <trkpt lat="43.30491" lon="5.68839">
        <ele>812</ele>
        <time>2019-11-29T10:43:28.000Z</time>
      </trkpt>
      <trkpt lat="43.30491" lon="5.68839">
        <ele>812</ele>
        <time>2019-11-29T10:43:29.000Z</time>
      </trkpt>
      <trkpt lat="43.30491" lon="5.68839">
        <ele>812</ele>
        <time>2019-11-29T10:43:30.000Z</time>
      </trkpt>
      <trkpt lat="43.30491" lon="5.68839">
        <ele>812</ele>
        <time>2019-11-29T10:43:31.000Z</time>
      </trkpt>
      <trkpt lat="43.30491" lon="5.68839">
        <ele>812</ele>
        <time>2019-11-29T10:43:32.000Z</time>
      </trkpt>
      <trkpt lat="43.30491" lon="5.68839">
        <ele>812</ele>
        <time>2019-11-29T10:43:33.000Z</time>
      </trkpt>
      <trkpt lat="43.30491" lon="5.68839">
        <ele>812</ele>
        <time>2019-11-29T10:43:34.000Z</time>
      </trkpt>
      <trkpt lat="43.30491" lon="5.68839">
        <ele>812</ele>
        <time>2019-11-29T10:43:35.000Z</time>
      </trkpt>
      <trkpt lat="43.30491" lon="5.68839">
        <ele>812</ele>
        <time>2019-11-29T10:43:36.000Z</time>
      </trkpt>
      <trkpt lat="43.30491" lon="5.68839">
        <ele>812</ele>
        <time>2019-11-29T10:43:37.000Z</time>
      </trkpt>
      <trkpt lat="43.30491" lon="5.68839">
        <ele>812</ele>
        <time>2019-11-29T10:43:38.000Z</time>
      </trkpt>
      <trkpt lat="43.30491" lon="5.68839">
        <ele>812</ele>
        <time>2019-11-29T10:43:39.000Z</time>
      </trkpt>
      <trkpt lat="43.30491" lon="5.68839">
        <ele>812</ele>
        <time>2019-11-29T10:43:40.000Z</time>
      </trkpt>
      <trkpt lat="43.30491" lon="5.68839">
        <ele>812</ele>
        <time>2019-11-29T10:43:41.000Z</time>
      </trkpt>
      <trkpt lat="43.30491" lon="5.68839">
        <ele>812</ele>
        <time>2019-11-29T10:43:42.000Z</time>
      </trkpt>
      <trkpt lat="43.30491" lon="5.68839">
        <ele>812</ele>
        <time>2019-11-29T10:43:43.000Z</time>
      </trkpt>
      <trkpt lat="43.30491" lon="5.68839">
        <ele>812</ele>
        <time>2019-11-29T10:43:44.000Z</time>
      </trkpt>
      <trkpt lat="43.30491" lon="5.68839">
        <ele>812</ele>
        <time>2019-11-29T10:43:45.000Z</time>
      </trkpt>
      <trkpt lat="43.30491" lon="5.68839">
        <ele>812</ele>
        <time>2019-11-29T10:43:46.000Z</time>
      </trkpt>
      <trkpt lat="43.30491" lon="5.68839">
        <ele>812</ele>
        <time>2019-11-29T10:43:47.000Z</time>
      </trkpt>
      <trkpt lat="43.30491" lon="5.68838">
        <ele>812</ele>
        <time>2019-11-29T10:43:48.000Z</time>
      </trkpt>
      <trkpt lat="43.30491" lon="5.68838">
        <ele>812</ele>
        <time>2019-11-29T10:43:49.000Z</time>
      </trkpt>
      <trkpt lat="43.30491" lon="5.68838">
        <ele>812</ele>
        <time>2019-11-29T10:43:50.000Z</time>
      </trkpt>
      <trkpt lat="43.30491" lon="5.68838">
        <ele>812</ele>
        <time>2019-11-29T10:43:51.000Z</time>
      </trkpt>
      <trkpt lat="43.30491" lon="5.68838">
        <ele>812</ele>
        <time>2019-11-29T10:43:52.000Z</time>
      </trkpt>
      <trkpt lat="43.30491" lon="5.68838">
        <ele>812</ele>
        <time>2019-11-29T10:43:53.000Z</time>
      </trkpt>
      <trkpt lat="43.30491" lon="5.68838">
        <ele>812</ele>
        <time>2019-11-29T10:43:54.000Z</time>
      </trkpt>
      <trkpt lat="43.30491" lon="5.68838">
        <ele>812</ele>
        <time>2019-11-29T10:43:55.000Z</time>
      </trkpt>
      <trkpt lat="43.30491" lon="5.68839">
        <ele>812</ele>
        <time>2019-11-29T10:43:56.000Z</time>
      </trkpt>
      <trkpt lat="43.30491" lon="5.68839">
        <ele>812</ele>
        <time>2019-11-29T10:43:57.000Z</time>
      </trkpt>
      <trkpt lat="43.30492" lon="5.6884">
        <ele>812</ele>
        <time>2019-11-29T10:43:58.000Z</time>
      </trkpt>
      <trkpt lat="43.30492" lon="5.68841">
        <ele>812</ele>
        <time>2019-11-29T10:43:59.000Z</time>
      </trkpt>
      <trkpt lat="43.30493" lon="5.68843">
        <ele>812</ele>
        <time>2019-11-29T10:44:00.000Z</time>
      </trkpt>
      <trkpt lat="43.30493" lon="5.68844">
        <ele>812</ele>
        <time>2019-11-29T10:44:01.000Z</time>
      </trkpt>
      <trkpt lat="43.30493" lon="5.68844">
        <ele>812</ele>
        <time>2019-11-29T10:44:02.000Z</time>
      </trkpt>
      <trkpt lat="43.30494" lon="5.68845">
        <ele>812</ele>
        <time>2019-11-29T10:44:03.000Z</time>
      </trkpt>
      <trkpt lat="43.30494" lon="5.68845">
        <ele>812</ele>
        <time>2019-11-29T10:44:04.000Z</time>
      </trkpt>
      <trkpt lat="43.30494" lon="5.68846">
        <ele>812</ele>
        <time>2019-11-29T10:44:05.000Z</time>
      </trkpt>
      <trkpt lat="43.30494" lon="5.68847">
        <ele>812</ele>
        <time>2019-11-29T10:44:06.000Z</time>
      </trkpt>
      <trkpt lat="43.30494" lon="5.68848">
        <ele>812</ele>
        <time>2019-11-29T10:44:07.000Z</time>
      </trkpt>
      <trkpt lat="43.30494" lon="5.68849">
        <ele>812</ele>
        <time>2019-11-29T10:44:08.000Z</time>
      </trkpt>
      <trkpt lat="43.30495" lon="5.6885">
        <ele>812</ele>
        <time>2019-11-29T10:44:09.000Z</time>
      </trkpt>
      <trkpt lat="43.30495" lon="5.68851">
        <ele>812</ele>
        <time>2019-11-29T10:44:10.000Z</time>
      </trkpt>
      <trkpt lat="43.30495" lon="5.68852">
        <ele>812</ele>
        <time>2019-11-29T10:44:11.000Z</time>
      </trkpt>
      <trkpt lat="43.30495" lon="5.68853">
        <ele>812</ele>
        <time>2019-11-29T10:44:12.000Z</time>
      </trkpt>
      <trkpt lat="43.30496" lon="5.68854">
        <ele>812</ele>
        <time>2019-11-29T10:44:13.000Z</time>
      </trkpt>
      <trkpt lat="43.30496" lon="5.68855">
        <ele>812</ele>
        <time>2019-11-29T10:44:14.000Z</time>
      </trkpt>
      <trkpt lat="43.30496" lon="5.68856">
        <ele>811</ele>
        <time>2019-11-29T10:44:15.000Z</time>
      </trkpt>
      <trkpt lat="43.30495" lon="5.68858">
        <ele>811</ele>
        <time>2019-11-29T10:44:16.000Z</time>
      </trkpt>
      <trkpt lat="43.30495" lon="5.68859">
        <ele>811</ele>
        <time>2019-11-29T10:44:17.000Z</time>
      </trkpt>
      <trkpt lat="43.30495" lon="5.6886">
        <ele>811</ele>
        <time>2019-11-29T10:44:18.000Z</time>
      </trkpt>
      <trkpt lat="43.30495" lon="5.68861">
        <ele>811</ele>
        <time>2019-11-29T10:44:19.000Z</time>
      </trkpt>
      <trkpt lat="43.30494" lon="5.68862">
        <ele>811</ele>
        <time>2019-11-29T10:44:20.000Z</time>
      </trkpt>
      <trkpt lat="43.30494" lon="5.68863">
        <ele>811</ele>
        <time>2019-11-29T10:44:21.000Z</time>
      </trkpt>
      <trkpt lat="43.30493" lon="5.68864">
        <ele>811</ele>
        <time>2019-11-29T10:44:22.000Z</time>
      </trkpt>
      <trkpt lat="43.30493" lon="5.68865">
        <ele>810</ele>
        <time>2019-11-29T10:44:23.000Z</time>
      </trkpt>
      <trkpt lat="43.30492" lon="5.68866">
        <ele>810</ele>
        <time>2019-11-29T10:44:24.000Z</time>
      </trkpt>
      <trkpt lat="43.30492" lon="5.68867">
        <ele>810</ele>
        <time>2019-11-29T10:44:25.000Z</time>
      </trkpt>
      <trkpt lat="43.30491" lon="5.68867">
        <ele>810</ele>
        <time>2019-11-29T10:44:26.000Z</time>
      </trkpt>
      <trkpt lat="43.30491" lon="5.68868">
        <ele>810</ele>
        <time>2019-11-29T10:44:27.000Z</time>
      </trkpt>
      <trkpt lat="43.3049" lon="5.68869">
        <ele>810</ele>
        <time>2019-11-29T10:44:28.000Z</time>
      </trkpt>
      <trkpt lat="43.3049" lon="5.6887">
        <ele>809</ele>
        <time>2019-11-29T10:44:29.000Z</time>
      </trkpt>
      <trkpt lat="43.3049" lon="5.68871">
        <ele>809</ele>
        <time>2019-11-29T10:44:30.000Z</time>
      </trkpt>
      <trkpt lat="43.3049" lon="5.68872">
        <ele>809</ele>
        <time>2019-11-29T10:44:31.000Z</time>
      </trkpt>
      <trkpt lat="43.30491" lon="5.68874">
        <ele>809</ele>
        <time>2019-11-29T10:44:32.000Z</time>
      </trkpt>
      <trkpt lat="43.30491" lon="5.68875">
        <ele>809</ele>
        <time>2019-11-29T10:44:33.000Z</time>
      </trkpt>
      <trkpt lat="43.30491" lon="5.68876">
        <ele>809</ele>
        <time>2019-11-29T10:44:34.000Z</time>
      </trkpt>
      <trkpt lat="43.30491" lon="5.68877">
        <ele>809</ele>
        <time>2019-11-29T10:44:35.000Z</time>
      </trkpt>
      <trkpt lat="43.30491" lon="5.68878">
        <ele>809</ele>
        <time>2019-11-29T10:44:36.000Z</time>
      </trkpt>
      <trkpt lat="43.30492" lon="5.68879">
        <ele>808</ele>
        <time>2019-11-29T10:44:37.000Z</time>
      </trkpt>
      <trkpt lat="43.30492" lon="5.68879">
        <ele>808</ele>
        <time>2019-11-29T10:44:38.000Z</time>
      </trkpt>
      <trkpt lat="43.30493" lon="5.6888">
        <ele>808</ele>
        <time>2019-11-29T10:44:39.000Z</time>
      </trkpt>
      <trkpt lat="43.30494" lon="5.68881">
        <ele>808</ele>
        <time>2019-11-29T10:44:40.000Z</time>
      </trkpt>
      <trkpt lat="43.30494" lon="5.68882">
        <ele>808</ele>
        <time>2019-11-29T10:44:41.000Z</time>
      </trkpt>
      <trkpt lat="43.30495" lon="5.68883">
        <ele>808</ele>
        <time>2019-11-29T10:44:42.000Z</time>
      </trkpt>
      <trkpt lat="43.30495" lon="5.68884">
        <ele>808</ele>
        <time>2019-11-29T10:44:43.000Z</time>
      </trkpt>
      <trkpt lat="43.30495" lon="5.68885">
        <ele>808</ele>
        <time>2019-11-29T10:44:44.000Z</time>
      </trkpt>
      <trkpt lat="43.30495" lon="5.68886">
        <ele>808</ele>
        <time>2019-11-29T10:44:45.000Z</time>
      </trkpt>
      <trkpt lat="43.30496" lon="5.68887">
        <ele>808</ele>
        <time>2019-11-29T10:44:46.000Z</time>
      </trkpt>
      <trkpt lat="43.30495" lon="5.68888">
        <ele>808</ele>
        <time>2019-11-29T10:44:47.000Z</time>
      </trkpt>
      <trkpt lat="43.30496" lon="5.68888">
        <ele>808</ele>
        <time>2019-11-29T10:44:48.000Z</time>
      </trkpt>
      <trkpt lat="43.30496" lon="5.6889">
        <ele>808</ele>
        <time>2019-11-29T10:44:49.000Z</time>
      </trkpt>
      <trkpt lat="43.30496" lon="5.68891">
        <ele>808</ele>
        <time>2019-11-29T10:44:50.000Z</time>
      </trkpt>
      <trkpt lat="43.30496" lon="5.68892">
        <ele>808</ele>
        <time>2019-11-29T10:44:51.000Z</time>
      </trkpt>
      <trkpt lat="43.30497" lon="5.68893">
        <ele>807</ele>
        <time>2019-11-29T10:44:52.000Z</time>
      </trkpt>
      <trkpt lat="43.30497" lon="5.68894">
        <ele>807</ele>
        <time>2019-11-29T10:44:53.000Z</time>
      </trkpt>
      <trkpt lat="43.30497" lon="5.68895">
        <ele>807</ele>
        <time>2019-11-29T10:44:54.000Z</time>
      </trkpt>
      <trkpt lat="43.30498" lon="5.68896">
        <ele>807</ele>
        <time>2019-11-29T10:44:55.000Z</time>
      </trkpt>
      <trkpt lat="43.30498" lon="5.68897">
        <ele>807</ele>
        <time>2019-11-29T10:44:56.000Z</time>
      </trkpt>
      <trkpt lat="43.30499" lon="5.68897">
        <ele>807</ele>
        <time>2019-11-29T10:44:57.000Z</time>
      </trkpt>
      <trkpt lat="43.305" lon="5.68899">
        <ele>807</ele>
        <time>2019-11-29T10:44:58.000Z</time>
      </trkpt>
      <trkpt lat="43.305" lon="5.689">
        <ele>807</ele>
        <time>2019-11-29T10:44:59.000Z</time>
      </trkpt>
      <trkpt lat="43.30501" lon="5.68901">
        <ele>807</ele>
        <time>2019-11-29T10:45:00.000Z</time>
      </trkpt>
      <trkpt lat="43.30501" lon="5.68902">
        <ele>807</ele>
        <time>2019-11-29T10:45:01.000Z</time>
      </trkpt>
      <trkpt lat="43.30502" lon="5.68903">
        <ele>807</ele>
        <time>2019-11-29T10:45:02.000Z</time>
      </trkpt>
      <trkpt lat="43.30502" lon="5.68904">
        <ele>807</ele>
        <time>2019-11-29T10:45:03.000Z</time>
      </trkpt>
      <trkpt lat="43.30503" lon="5.68905">
        <ele>807</ele>
        <time>2019-11-29T10:45:04.000Z</time>
      </trkpt>
      <trkpt lat="43.30503" lon="5.68906">
        <ele>807</ele>
        <time>2019-11-29T10:45:05.000Z</time>
      </trkpt>
      <trkpt lat="43.30504" lon="5.68907">
        <ele>807</ele>
        <time>2019-11-29T10:45:06.000Z</time>
      </trkpt>
      <trkpt lat="43.30504" lon="5.68907">
        <ele>807</ele>
        <time>2019-11-29T10:45:07.000Z</time>
      </trkpt>
      <trkpt lat="43.30504" lon="5.68909">
        <ele>807</ele>
        <time>2019-11-29T10:45:08.000Z</time>
      </trkpt>
      <trkpt lat="43.30505" lon="5.6891">
        <ele>807</ele>
        <time>2019-11-29T10:45:09.000Z</time>
      </trkpt>
      <trkpt lat="43.30505" lon="5.68911">
        <ele>807</ele>
        <time>2019-11-29T10:45:10.000Z</time>
      </trkpt>
      <trkpt lat="43.30505" lon="5.68912">
        <ele>807</ele>
        <time>2019-11-29T10:45:11.000Z</time>
      </trkpt>
      <trkpt lat="43.30505" lon="5.68913">
        <ele>806</ele>
        <time>2019-11-29T10:45:12.000Z</time>
      </trkpt>
      <trkpt lat="43.30505" lon="5.68914">
        <ele>806</ele>
        <time>2019-11-29T10:45:13.000Z</time>
      </trkpt>
      <trkpt lat="43.30505" lon="5.68915">
        <ele>806</ele>
        <time>2019-11-29T10:45:14.000Z</time>
      </trkpt>
      <trkpt lat="43.30505" lon="5.68916">
        <ele>806</ele>
        <time>2019-11-29T10:45:15.000Z</time>
      </trkpt>
      <trkpt lat="43.30505" lon="5.68917">
        <ele>806</ele>
        <time>2019-11-29T10:45:16.000Z</time>
      </trkpt>
      <trkpt lat="43.30504" lon="5.68918">
        <ele>805</ele>
        <time>2019-11-29T10:45:17.000Z</time>
      </trkpt>
      <trkpt lat="43.30504" lon="5.68919">
        <ele>805</ele>
        <time>2019-11-29T10:45:18.000Z</time>
      </trkpt>
      <trkpt lat="43.30504" lon="5.6892">
        <ele>805</ele>
        <time>2019-11-29T10:45:19.000Z</time>
      </trkpt>
      <trkpt lat="43.30504" lon="5.68921">
        <ele>805</ele>
        <time>2019-11-29T10:45:20.000Z</time>
      </trkpt>
      <trkpt lat="43.30504" lon="5.68922">
        <ele>805</ele>
        <time>2019-11-29T10:45:21.000Z</time>
      </trkpt>
      <trkpt lat="43.30504" lon="5.68923">
        <ele>805</ele>
        <time>2019-11-29T10:45:22.000Z</time>
      </trkpt>
      <trkpt lat="43.30504" lon="5.68924">
        <ele>805</ele>
        <time>2019-11-29T10:45:23.000Z</time>
      </trkpt>
      <trkpt lat="43.30504" lon="5.68925">
        <ele>805</ele>
        <time>2019-11-29T10:45:24.000Z</time>
      </trkpt>
      <trkpt lat="43.30504" lon="5.68926">
        <ele>805</ele>
        <time>2019-11-29T10:45:25.000Z</time>
      </trkpt>
      <trkpt lat="43.30505" lon="5.68926">
        <ele>804</ele>
        <time>2019-11-29T10:45:26.000Z</time>
      </trkpt>
      <trkpt lat="43.30505" lon="5.68927">
        <ele>804</ele>
        <time>2019-11-29T10:45:27.000Z</time>
      </trkpt>
      <trkpt lat="43.30505" lon="5.68929">
        <ele>804</ele>
        <time>2019-11-29T10:45:28.000Z</time>
      </trkpt>
      <trkpt lat="43.30505" lon="5.6893">
        <ele>804</ele>
        <time>2019-11-29T10:45:29.000Z</time>
      </trkpt>
      <trkpt lat="43.30505" lon="5.68931">
        <ele>804</ele>
        <time>2019-11-29T10:45:30.000Z</time>
      </trkpt>
      <trkpt lat="43.30506" lon="5.68932">
        <ele>804</ele>
        <time>2019-11-29T10:45:31.000Z</time>
      </trkpt>
      <trkpt lat="43.30506" lon="5.68933">
        <ele>803</ele>
        <time>2019-11-29T10:45:32.000Z</time>
      </trkpt>
      <trkpt lat="43.30506" lon="5.68934">
        <ele>803</ele>
        <time>2019-11-29T10:45:33.000Z</time>
      </trkpt>
      <trkpt lat="43.30506" lon="5.68935">
        <ele>803</ele>
        <time>2019-11-29T10:45:34.000Z</time>
      </trkpt>
      <trkpt lat="43.30507" lon="5.68936">
        <ele>803</ele>
        <time>2019-11-29T10:45:35.000Z</time>
      </trkpt>
      <trkpt lat="43.30507" lon="5.68937">
        <ele>802</ele>
        <time>2019-11-29T10:45:36.000Z</time>
      </trkpt>
      <trkpt lat="43.30507" lon="5.68938">
        <ele>802</ele>
        <time>2019-11-29T10:45:37.000Z</time>
      </trkpt>
      <trkpt lat="43.30507" lon="5.68939">
        <ele>802</ele>
        <time>2019-11-29T10:45:38.000Z</time>
      </trkpt>
      <trkpt lat="43.30508" lon="5.6894">
        <ele>802</ele>
        <time>2019-11-29T10:45:39.000Z</time>
      </trkpt>
      <trkpt lat="43.30508" lon="5.68941">
        <ele>802</ele>
        <time>2019-11-29T10:45:40.000Z</time>
      </trkpt>
      <trkpt lat="43.30508" lon="5.68942">
        <ele>802</ele>
        <time>2019-11-29T10:45:41.000Z</time>
      </trkpt>
      <trkpt lat="43.30509" lon="5.68943">
        <ele>801</ele>
        <time>2019-11-29T10:45:42.000Z</time>
      </trkpt>
      <trkpt lat="43.30509" lon="5.68943">
        <ele>801</ele>
        <time>2019-11-29T10:45:43.000Z</time>
      </trkpt>
      <trkpt lat="43.30509" lon="5.68944">
        <ele>801</ele>
        <time>2019-11-29T10:45:44.000Z</time>
      </trkpt>
      <trkpt lat="43.30509" lon="5.68945">
        <ele>801</ele>
        <time>2019-11-29T10:45:45.000Z</time>
      </trkpt>
      <trkpt lat="43.3051" lon="5.68946">
        <ele>801</ele>
        <time>2019-11-29T10:45:46.000Z</time>
      </trkpt>
      <trkpt lat="43.3051" lon="5.68947">
        <ele>801</ele>
        <time>2019-11-29T10:45:47.000Z</time>
      </trkpt>
      <trkpt lat="43.30511" lon="5.68947">
        <ele>800</ele>
        <time>2019-11-29T10:45:48.000Z</time>
      </trkpt>
      <trkpt lat="43.30511" lon="5.68948">
        <ele>800</ele>
        <time>2019-11-29T10:45:49.000Z</time>
      </trkpt>
      <trkpt lat="43.30511" lon="5.68949">
        <ele>800</ele>
        <time>2019-11-29T10:45:50.000Z</time>
      </trkpt>
      <trkpt lat="43.30512" lon="5.6895">
        <ele>800</ele>
        <time>2019-11-29T10:45:51.000Z</time>
      </trkpt>
      <trkpt lat="43.30512" lon="5.68951">
        <ele>800</ele>
        <time>2019-11-29T10:45:52.000Z</time>
      </trkpt>
      <trkpt lat="43.30513" lon="5.68951">
        <ele>800</ele>
        <time>2019-11-29T10:45:53.000Z</time>
      </trkpt>
      <trkpt lat="43.30513" lon="5.68952">
        <ele>800</ele>
        <time>2019-11-29T10:45:54.000Z</time>
      </trkpt>
      <trkpt lat="43.30513" lon="5.68953">
        <ele>799</ele>
        <time>2019-11-29T10:45:55.000Z</time>
      </trkpt>
      <trkpt lat="43.30514" lon="5.68954">
        <ele>799</ele>
        <time>2019-11-29T10:45:56.000Z</time>
      </trkpt>
      <trkpt lat="43.30514" lon="5.68955">
        <ele>799</ele>
        <time>2019-11-29T10:45:57.000Z</time>
      </trkpt>
      <trkpt lat="43.30515" lon="5.68956">
        <ele>799</ele>
        <time>2019-11-29T10:45:58.000Z</time>
      </trkpt>
      <trkpt lat="43.30515" lon="5.68956">
        <ele>799</ele>
        <time>2019-11-29T10:45:59.000Z</time>
      </trkpt>
      <trkpt lat="43.30516" lon="5.68957">
        <ele>799</ele>
        <time>2019-11-29T10:46:00.000Z</time>
      </trkpt>
      <trkpt lat="43.30517" lon="5.68957">
        <ele>798</ele>
        <time>2019-11-29T10:46:01.000Z</time>
      </trkpt>
      <trkpt lat="43.30518" lon="5.68958">
        <ele>798</ele>
        <time>2019-11-29T10:46:02.000Z</time>
      </trkpt>
      <trkpt lat="43.30518" lon="5.68958">
        <ele>798</ele>
        <time>2019-11-29T10:46:03.000Z</time>
      </trkpt>
      <trkpt lat="43.30519" lon="5.68959">
        <ele>798</ele>
        <time>2019-11-29T10:46:04.000Z</time>
      </trkpt>
      <trkpt lat="43.3052" lon="5.68959">
        <ele>798</ele>
        <time>2019-11-29T10:46:05.000Z</time>
      </trkpt>
      <trkpt lat="43.30521" lon="5.6896">
        <ele>798</ele>
        <time>2019-11-29T10:46:06.000Z</time>
      </trkpt>
      <trkpt lat="43.30522" lon="5.6896">
        <ele>798</ele>
        <time>2019-11-29T10:46:07.000Z</time>
      </trkpt>
      <trkpt lat="43.30523" lon="5.68961">
        <ele>798</ele>
        <time>2019-11-29T10:46:08.000Z</time>
      </trkpt>
      <trkpt lat="43.30524" lon="5.68961">
        <ele>798</ele>
        <time>2019-11-29T10:46:09.000Z</time>
      </trkpt>
      <trkpt lat="43.30525" lon="5.68962">
        <ele>798</ele>
        <time>2019-11-29T10:46:10.000Z</time>
      </trkpt>
      <trkpt lat="43.30526" lon="5.68963">
        <ele>798</ele>
        <time>2019-11-29T10:46:11.000Z</time>
      </trkpt>
      <trkpt lat="43.30527" lon="5.68963">
        <ele>798</ele>
        <time>2019-11-29T10:46:12.000Z</time>
      </trkpt>
      <trkpt lat="43.30527" lon="5.68964">
        <ele>798</ele>
        <time>2019-11-29T10:46:13.000Z</time>
      </trkpt>
      <trkpt lat="43.30528" lon="5.68965">
        <ele>798</ele>
        <time>2019-11-29T10:46:14.000Z</time>
      </trkpt>
      <trkpt lat="43.30528" lon="5.68966">
        <ele>798</ele>
        <time>2019-11-29T10:46:15.000Z</time>
      </trkpt>
      <trkpt lat="43.30528" lon="5.68966">
        <ele>798</ele>
        <time>2019-11-29T10:46:16.000Z</time>
      </trkpt>
      <trkpt lat="43.30529" lon="5.68966">
        <ele>798</ele>
        <time>2019-11-29T10:46:17.000Z</time>
      </trkpt>
      <trkpt lat="43.30529" lon="5.68966">
        <ele>798</ele>
        <time>2019-11-29T10:46:18.000Z</time>
      </trkpt>
      <trkpt lat="43.30529" lon="5.68966">
        <ele>798</ele>
        <time>2019-11-29T10:46:19.000Z</time>
      </trkpt>
      <trkpt lat="43.30529" lon="5.68966">
        <ele>798</ele>
        <time>2019-11-29T10:46:20.000Z</time>
      </trkpt>
      <trkpt lat="43.30529" lon="5.68966">
        <ele>798</ele>
        <time>2019-11-29T10:46:21.000Z</time>
      </trkpt>
      <trkpt lat="43.30529" lon="5.68966">
        <ele>798</ele>
        <time>2019-11-29T10:46:22.000Z</time>
      </trkpt>
      <trkpt lat="43.30529" lon="5.68967">
        <ele>798</ele>
        <time>2019-11-29T10:46:23.000Z</time>
      </trkpt>
      <trkpt lat="43.30529" lon="5.68967">
        <ele>798</ele>
        <time>2019-11-29T10:46:24.000Z</time>
      </trkpt>
      <trkpt lat="43.30529" lon="5.68968">
        <ele>798</ele>
        <time>2019-11-29T10:46:25.000Z</time>
      </trkpt>
      <trkpt lat="43.30529" lon="5.68968">
        <ele>798</ele>
        <time>2019-11-29T10:46:26.000Z</time>
      </trkpt>
      <trkpt lat="43.30529" lon="5.68969">
        <ele>798</ele>
        <time>2019-11-29T10:46:27.000Z</time>
      </trkpt>
      <trkpt lat="43.30529" lon="5.6897">
        <ele>798</ele>
        <time>2019-11-29T10:46:28.000Z</time>
      </trkpt>
      <trkpt lat="43.3053" lon="5.68971">
        <ele>797</ele>
        <time>2019-11-29T10:46:29.000Z</time>
      </trkpt>
      <trkpt lat="43.3053" lon="5.68973">
        <ele>797</ele>
        <time>2019-11-29T10:46:30.000Z</time>
      </trkpt>
      <trkpt lat="43.3053" lon="5.68974">
        <ele>797</ele>
        <time>2019-11-29T10:46:31.000Z</time>
      </trkpt>
      <trkpt lat="43.30529" lon="5.68975">
        <ele>797</ele>
        <time>2019-11-29T10:46:32.000Z</time>
      </trkpt>
      <trkpt lat="43.30529" lon="5.68976">
        <ele>797</ele>
        <time>2019-11-29T10:46:33.000Z</time>
      </trkpt>
      <trkpt lat="43.30529" lon="5.68977">
        <ele>797</ele>
        <time>2019-11-29T10:46:34.000Z</time>
      </trkpt>
      <trkpt lat="43.30529" lon="5.68978">
        <ele>796</ele>
        <time>2019-11-29T10:46:35.000Z</time>
      </trkpt>
      <trkpt lat="43.30529" lon="5.68978">
        <ele>796</ele>
        <time>2019-11-29T10:46:36.000Z</time>
      </trkpt>
      <trkpt lat="43.30529" lon="5.68979">
        <ele>796</ele>
        <time>2019-11-29T10:46:37.000Z</time>
      </trkpt>
      <trkpt lat="43.30529" lon="5.6898">
        <ele>796</ele>
        <time>2019-11-29T10:46:38.000Z</time>
      </trkpt>
      <trkpt lat="43.3053" lon="5.68982">
        <ele>796</ele>
        <time>2019-11-29T10:46:39.000Z</time>
      </trkpt>
      <trkpt lat="43.3053" lon="5.68983">
        <ele>796</ele>
        <time>2019-11-29T10:46:40.000Z</time>
      </trkpt>
      <trkpt lat="43.3053" lon="5.68985">
        <ele>796</ele>
        <time>2019-11-29T10:46:41.000Z</time>
      </trkpt>
      <trkpt lat="43.30531" lon="5.68987">
        <ele>795</ele>
        <time>2019-11-29T10:46:42.000Z</time>
      </trkpt>
      <trkpt lat="43.30532" lon="5.68988">
        <ele>795</ele>
        <time>2019-11-29T10:46:43.000Z</time>
      </trkpt>
      <trkpt lat="43.30532" lon="5.68989">
        <ele>795</ele>
        <time>2019-11-29T10:46:44.000Z</time>
      </trkpt>
      <trkpt lat="43.30533" lon="5.6899">
        <ele>795</ele>
        <time>2019-11-29T10:46:45.000Z</time>
      </trkpt>
      <trkpt lat="43.30534" lon="5.68991">
        <ele>795</ele>
        <time>2019-11-29T10:46:46.000Z</time>
      </trkpt>
      <trkpt lat="43.30535" lon="5.68992">
        <ele>795</ele>
        <time>2019-11-29T10:46:47.000Z</time>
      </trkpt>
      <trkpt lat="43.30536" lon="5.68993">
        <ele>795</ele>
        <time>2019-11-29T10:46:48.000Z</time>
      </trkpt>
      <trkpt lat="43.30536" lon="5.68994">
        <ele>795</ele>
        <time>2019-11-29T10:46:49.000Z</time>
      </trkpt>
      <trkpt lat="43.30537" lon="5.68994">
        <ele>795</ele>
        <time>2019-11-29T10:46:50.000Z</time>
      </trkpt>
      <trkpt lat="43.30537" lon="5.68995">
        <ele>794</ele>
        <time>2019-11-29T10:46:51.000Z</time>
      </trkpt>
      <trkpt lat="43.30537" lon="5.68996">
        <ele>794</ele>
        <time>2019-11-29T10:46:52.000Z</time>
      </trkpt>
      <trkpt lat="43.30537" lon="5.68997">
        <ele>794</ele>
        <time>2019-11-29T10:46:53.000Z</time>
      </trkpt>
      <trkpt lat="43.30538" lon="5.68998">
        <ele>794</ele>
        <time>2019-11-29T10:46:54.000Z</time>
      </trkpt>
      <trkpt lat="43.30538" lon="5.68999">
        <ele>794</ele>
        <time>2019-11-29T10:46:55.000Z</time>
      </trkpt>
      <trkpt lat="43.30538" lon="5.69">
        <ele>794</ele>
        <time>2019-11-29T10:46:56.000Z</time>
      </trkpt>
      <trkpt lat="43.30538" lon="5.69001">
        <ele>793</ele>
        <time>2019-11-29T10:46:57.000Z</time>
      </trkpt>
      <trkpt lat="43.30539" lon="5.69002">
        <ele>793</ele>
        <time>2019-11-29T10:46:58.000Z</time>
      </trkpt>
      <trkpt lat="43.30539" lon="5.69003">
        <ele>793</ele>
        <time>2019-11-29T10:46:59.000Z</time>
      </trkpt>
      <trkpt lat="43.30539" lon="5.69005">
        <ele>793</ele>
        <time>2019-11-29T10:47:00.000Z</time>
      </trkpt>
      <trkpt lat="43.3054" lon="5.69006">
        <ele>792</ele>
        <time>2019-11-29T10:47:01.000Z</time>
      </trkpt>
      <trkpt lat="43.3054" lon="5.69007">
        <ele>792</ele>
        <time>2019-11-29T10:47:02.000Z</time>
      </trkpt>
      <trkpt lat="43.3054" lon="5.69008">
        <ele>792</ele>
        <time>2019-11-29T10:47:03.000Z</time>
      </trkpt>
      <trkpt lat="43.30541" lon="5.6901">
        <ele>792</ele>
        <time>2019-11-29T10:47:04.000Z</time>
      </trkpt>
      <trkpt lat="43.30541" lon="5.69011">
        <ele>792</ele>
        <time>2019-11-29T10:47:05.000Z</time>
      </trkpt>
      <trkpt lat="43.30541" lon="5.69012">
        <ele>792</ele>
        <time>2019-11-29T10:47:06.000Z</time>
      </trkpt>
      <trkpt lat="43.30541" lon="5.69013">
        <ele>791</ele>
        <time>2019-11-29T10:47:07.000Z</time>
      </trkpt>
      <trkpt lat="43.30542" lon="5.69014">
        <ele>791</ele>
        <time>2019-11-29T10:47:08.000Z</time>
      </trkpt>
      <trkpt lat="43.30542" lon="5.69015">
        <ele>791</ele>
        <time>2019-11-29T10:47:09.000Z</time>
      </trkpt>
      <trkpt lat="43.30542" lon="5.69016">
        <ele>791</ele>
        <time>2019-11-29T10:47:10.000Z</time>
      </trkpt>
      <trkpt lat="43.30543" lon="5.69017">
        <ele>791</ele>
        <time>2019-11-29T10:47:11.000Z</time>
      </trkpt>
      <trkpt lat="43.30544" lon="5.69018">
        <ele>791</ele>
        <time>2019-11-29T10:47:12.000Z</time>
      </trkpt>
      <trkpt lat="43.30545" lon="5.69019">
        <ele>790</ele>
        <time>2019-11-29T10:47:13.000Z</time>
      </trkpt>
      <trkpt lat="43.30546" lon="5.6902">
        <ele>790</ele>
        <time>2019-11-29T10:47:14.000Z</time>
      </trkpt>
      <trkpt lat="43.30548" lon="5.69021">
        <ele>790</ele>
        <time>2019-11-29T10:47:15.000Z</time>
      </trkpt>
      <trkpt lat="43.30549" lon="5.69022">
        <ele>790</ele>
        <time>2019-11-29T10:47:16.000Z</time>
      </trkpt>
      <trkpt lat="43.3055" lon="5.69022">
        <ele>790</ele>
        <time>2019-11-29T10:47:17.000Z</time>
      </trkpt>
      <trkpt lat="43.30551" lon="5.69023">
        <ele>790</ele>
        <time>2019-11-29T10:47:18.000Z</time>
      </trkpt>
      <trkpt lat="43.30552" lon="5.69023">
        <ele>790</ele>
        <time>2019-11-29T10:47:19.000Z</time>
      </trkpt>
      <trkpt lat="43.30553" lon="5.69024">
        <ele>790</ele>
        <time>2019-11-29T10:47:20.000Z</time>
      </trkpt>
      <trkpt lat="43.30554" lon="5.69024">
        <ele>790</ele>
        <time>2019-11-29T10:47:21.000Z</time>
      </trkpt>
      <trkpt lat="43.30555" lon="5.69024">
        <ele>789</ele>
        <time>2019-11-29T10:47:22.000Z</time>
      </trkpt>
      <trkpt lat="43.30556" lon="5.69025">
        <ele>789</ele>
        <time>2019-11-29T10:47:23.000Z</time>
      </trkpt>
      <trkpt lat="43.30558" lon="5.69024">
        <ele>789</ele>
        <time>2019-11-29T10:47:24.000Z</time>
      </trkpt>
      <trkpt lat="43.30559" lon="5.69024">
        <ele>789</ele>
        <time>2019-11-29T10:47:25.000Z</time>
      </trkpt>
      <trkpt lat="43.3056" lon="5.69025">
        <ele>789</ele>
        <time>2019-11-29T10:47:26.000Z</time>
      </trkpt>
      <trkpt lat="43.30561" lon="5.69025">
        <ele>789</ele>
        <time>2019-11-29T10:47:27.000Z</time>
      </trkpt>
      <trkpt lat="43.30562" lon="5.69025">
        <ele>788</ele>
        <time>2019-11-29T10:47:28.000Z</time>
      </trkpt>
      <trkpt lat="43.30563" lon="5.69026">
        <ele>788</ele>
        <time>2019-11-29T10:47:29.000Z</time>
      </trkpt>
      <trkpt lat="43.30564" lon="5.69026">
        <ele>788</ele>
        <time>2019-11-29T10:47:30.000Z</time>
      </trkpt>
      <trkpt lat="43.30565" lon="5.69025">
        <ele>788</ele>
        <time>2019-11-29T10:47:31.000Z</time>
      </trkpt>
      <trkpt lat="43.30566" lon="5.69025">
        <ele>788</ele>
        <time>2019-11-29T10:47:32.000Z</time>
      </trkpt>
      <trkpt lat="43.30567" lon="5.69025">
        <ele>788</ele>
        <time>2019-11-29T10:47:33.000Z</time>
      </trkpt>
      <trkpt lat="43.30567" lon="5.69025">
        <ele>788</ele>
        <time>2019-11-29T10:47:34.000Z</time>
      </trkpt>
      <trkpt lat="43.30568" lon="5.69024">
        <ele>788</ele>
        <time>2019-11-29T10:47:35.000Z</time>
      </trkpt>
      <trkpt lat="43.30569" lon="5.69024">
        <ele>788</ele>
        <time>2019-11-29T10:47:36.000Z</time>
      </trkpt>
      <trkpt lat="43.3057" lon="5.69023">
        <ele>788</ele>
        <time>2019-11-29T10:47:37.000Z</time>
      </trkpt>
      <trkpt lat="43.30571" lon="5.69023">
        <ele>788</ele>
        <time>2019-11-29T10:47:38.000Z</time>
      </trkpt>
      <trkpt lat="43.30571" lon="5.69023">
        <ele>788</ele>
        <time>2019-11-29T10:47:39.000Z</time>
      </trkpt>
      <trkpt lat="43.30572" lon="5.69022">
        <ele>788</ele>
        <time>2019-11-29T10:47:40.000Z</time>
      </trkpt>
      <trkpt lat="43.30573" lon="5.69022">
        <ele>789</ele>
        <time>2019-11-29T10:47:41.000Z</time>
      </trkpt>
      <trkpt lat="43.30573" lon="5.69022">
        <ele>789</ele>
        <time>2019-11-29T10:47:42.000Z</time>
      </trkpt>
      <trkpt lat="43.30574" lon="5.69021">
        <ele>789</ele>
        <time>2019-11-29T10:47:43.000Z</time>
      </trkpt>
      <trkpt lat="43.30575" lon="5.69021">
        <ele>789</ele>
        <time>2019-11-29T10:47:44.000Z</time>
      </trkpt>
      <trkpt lat="43.30575" lon="5.6902">
        <ele>789</ele>
        <time>2019-11-29T10:47:45.000Z</time>
      </trkpt>
      <trkpt lat="43.30576" lon="5.6902">
        <ele>789</ele>
        <time>2019-11-29T10:47:46.000Z</time>
      </trkpt>
      <trkpt lat="43.30577" lon="5.6902">
        <ele>789</ele>
        <time>2019-11-29T10:47:47.000Z</time>
      </trkpt>
      <trkpt lat="43.30578" lon="5.6902">
        <ele>789</ele>
        <time>2019-11-29T10:47:48.000Z</time>
      </trkpt>
      <trkpt lat="43.30578" lon="5.6902">
        <ele>789</ele>
        <time>2019-11-29T10:47:49.000Z</time>
      </trkpt>
      <trkpt lat="43.30579" lon="5.6902">
        <ele>789</ele>
        <time>2019-11-29T10:47:50.000Z</time>
      </trkpt>
      <trkpt lat="43.3058" lon="5.69019">
        <ele>789</ele>
        <time>2019-11-29T10:47:51.000Z</time>
      </trkpt>
      <trkpt lat="43.30581" lon="5.69019">
        <ele>789</ele>
        <time>2019-11-29T10:47:52.000Z</time>
      </trkpt>
      <trkpt lat="43.30581" lon="5.69019">
        <ele>789</ele>
        <time>2019-11-29T10:47:53.000Z</time>
      </trkpt>
      <trkpt lat="43.30582" lon="5.69019">
        <ele>789</ele>
        <time>2019-11-29T10:47:54.000Z</time>
      </trkpt>
      <trkpt lat="43.30582" lon="5.69019">
        <ele>789</ele>
        <time>2019-11-29T10:47:55.000Z</time>
      </trkpt>
      <trkpt lat="43.30583" lon="5.69019">
        <ele>790</ele>
        <time>2019-11-29T10:47:56.000Z</time>
      </trkpt>
      <trkpt lat="43.30583" lon="5.69019">
        <ele>790</ele>
        <time>2019-11-29T10:47:57.000Z</time>
      </trkpt>
      <trkpt lat="43.30584" lon="5.69019">
        <ele>790</ele>
        <time>2019-11-29T10:47:58.000Z</time>
      </trkpt>
      <trkpt lat="43.30584" lon="5.69018">
        <ele>790</ele>
        <time>2019-11-29T10:47:59.000Z</time>
      </trkpt>
      <trkpt lat="43.30585" lon="5.69019">
        <ele>790</ele>
        <time>2019-11-29T10:48:00.000Z</time>
      </trkpt>
      <trkpt lat="43.30585" lon="5.69019">
        <ele>790</ele>
        <time>2019-11-29T10:48:01.000Z</time>
      </trkpt>
      <trkpt lat="43.30585" lon="5.69018">
        <ele>790</ele>
        <time>2019-11-29T10:48:02.000Z</time>
      </trkpt>
      <trkpt lat="43.30586" lon="5.69018">
        <ele>790</ele>
        <time>2019-11-29T10:48:03.000Z</time>
      </trkpt>
      <trkpt lat="43.30587" lon="5.69018">
        <ele>790</ele>
        <time>2019-11-29T10:48:04.000Z</time>
      </trkpt>
      <trkpt lat="43.30587" lon="5.69017">
        <ele>790</ele>
        <time>2019-11-29T10:48:05.000Z</time>
      </trkpt>
      <trkpt lat="43.30588" lon="5.69017">
        <ele>791</ele>
        <time>2019-11-29T10:48:06.000Z</time>
      </trkpt>
      <trkpt lat="43.30589" lon="5.69017">
        <ele>791</ele>
        <time>2019-11-29T10:48:07.000Z</time>
      </trkpt>
      <trkpt lat="43.30589" lon="5.69017">
        <ele>791</ele>
        <time>2019-11-29T10:48:08.000Z</time>
      </trkpt>
      <trkpt lat="43.3059" lon="5.69017">
        <ele>791</ele>
        <time>2019-11-29T10:48:09.000Z</time>
      </trkpt>
      <trkpt lat="43.3059" lon="5.69017">
        <ele>791</ele>
        <time>2019-11-29T10:48:10.000Z</time>
      </trkpt>
      <trkpt lat="43.3059" lon="5.69017">
        <ele>791</ele>
        <time>2019-11-29T10:48:11.000Z</time>
      </trkpt>
      <trkpt lat="43.30591" lon="5.69017">
        <ele>791</ele>
        <time>2019-11-29T10:48:12.000Z</time>
      </trkpt>
      <trkpt lat="43.30591" lon="5.69017">
        <ele>792</ele>
        <time>2019-11-29T10:48:13.000Z</time>
      </trkpt>
      <trkpt lat="43.30592" lon="5.69017">
        <ele>792</ele>
        <time>2019-11-29T10:48:14.000Z</time>
      </trkpt>
      <trkpt lat="43.30592" lon="5.69017">
        <ele>792</ele>
        <time>2019-11-29T10:48:15.000Z</time>
      </trkpt>
      <trkpt lat="43.30593" lon="5.69017">
        <ele>792</ele>
        <time>2019-11-29T10:48:16.000Z</time>
      </trkpt>
      <trkpt lat="43.30594" lon="5.69017">
        <ele>792</ele>
        <time>2019-11-29T10:48:17.000Z</time>
      </trkpt>
      <trkpt lat="43.30594" lon="5.69017">
        <ele>792</ele>
        <time>2019-11-29T10:48:18.000Z</time>
      </trkpt>
      <trkpt lat="43.30594" lon="5.69017">
        <ele>793</ele>
        <time>2019-11-29T10:48:19.000Z</time>
      </trkpt>
      <trkpt lat="43.30595" lon="5.69017">
        <ele>793</ele>
        <time>2019-11-29T10:48:20.000Z</time>
      </trkpt>
      <trkpt lat="43.30596" lon="5.69018">
        <ele>793</ele>
        <time>2019-11-29T10:48:21.000Z</time>
      </trkpt>
      <trkpt lat="43.30596" lon="5.69018">
        <ele>793</ele>
        <time>2019-11-29T10:48:22.000Z</time>
      </trkpt>
      <trkpt lat="43.30596" lon="5.69018">
        <ele>793</ele>
        <time>2019-11-29T10:48:23.000Z</time>
      </trkpt>
      <trkpt lat="43.30597" lon="5.69018">
        <ele>794</ele>
        <time>2019-11-29T10:48:24.000Z</time>
      </trkpt>
      <trkpt lat="43.30597" lon="5.69018">
        <ele>794</ele>
        <time>2019-11-29T10:48:25.000Z</time>
      </trkpt>
      <trkpt lat="43.30597" lon="5.69018">
        <ele>794</ele>
        <time>2019-11-29T10:48:26.000Z</time>
      </trkpt>
      <trkpt lat="43.30598" lon="5.69019">
        <ele>794</ele>
        <time>2019-11-29T10:48:27.000Z</time>
      </trkpt>
      <trkpt lat="43.30598" lon="5.69019">
        <ele>794</ele>
        <time>2019-11-29T10:48:28.000Z</time>
      </trkpt>
      <trkpt lat="43.30598" lon="5.69019">
        <ele>794</ele>
        <time>2019-11-29T10:48:29.000Z</time>
      </trkpt>
      <trkpt lat="43.30599" lon="5.69019">
        <ele>795</ele>
        <time>2019-11-29T10:48:30.000Z</time>
      </trkpt>
      <trkpt lat="43.30599" lon="5.69019">
        <ele>795</ele>
        <time>2019-11-29T10:48:31.000Z</time>
      </trkpt>
      <trkpt lat="43.306" lon="5.69019">
        <ele>795</ele>
        <time>2019-11-29T10:48:32.000Z</time>
      </trkpt>
      <trkpt lat="43.306" lon="5.69019">
        <ele>795</ele>
        <time>2019-11-29T10:48:33.000Z</time>
      </trkpt>
      <trkpt lat="43.306" lon="5.69018">
        <ele>795</ele>
        <time>2019-11-29T10:48:34.000Z</time>
      </trkpt>
      <trkpt lat="43.30601" lon="5.69018">
        <ele>795</ele>
        <time>2019-11-29T10:48:35.000Z</time>
      </trkpt>
      <trkpt lat="43.30601" lon="5.69017">
        <ele>795</ele>
        <time>2019-11-29T10:48:36.000Z</time>
      </trkpt>
      <trkpt lat="43.30602" lon="5.69017">
        <ele>796</ele>
        <time>2019-11-29T10:48:37.000Z</time>
      </trkpt>
      <trkpt lat="43.30603" lon="5.69017">
        <ele>796</ele>
        <time>2019-11-29T10:48:38.000Z</time>
      </trkpt>
      <trkpt lat="43.30603" lon="5.69017">
        <ele>796</ele>
        <time>2019-11-29T10:48:39.000Z</time>
      </trkpt>
      <trkpt lat="43.30603" lon="5.69017">
        <ele>796</ele>
        <time>2019-11-29T10:48:40.000Z</time>
      </trkpt>
      <trkpt lat="43.30604" lon="5.69017">
        <ele>796</ele>
        <time>2019-11-29T10:48:41.000Z</time>
      </trkpt>
      <trkpt lat="43.30604" lon="5.69017">
        <ele>796</ele>
        <time>2019-11-29T10:48:42.000Z</time>
      </trkpt>
      <trkpt lat="43.30605" lon="5.69018">
        <ele>796</ele>
        <time>2019-11-29T10:48:43.000Z</time>
      </trkpt>
      <trkpt lat="43.30605" lon="5.69018">
        <ele>797</ele>
        <time>2019-11-29T10:48:44.000Z</time>
      </trkpt>
      <trkpt lat="43.30606" lon="5.69018">
        <ele>797</ele>
        <time>2019-11-29T10:48:45.000Z</time>
      </trkpt>
      <trkpt lat="43.30606" lon="5.69019">
        <ele>797</ele>
        <time>2019-11-29T10:48:46.000Z</time>
      </trkpt>
      <trkpt lat="43.30606" lon="5.69019">
        <ele>797</ele>
        <time>2019-11-29T10:48:47.000Z</time>
      </trkpt>
      <trkpt lat="43.30607" lon="5.6902">
        <ele>797</ele>
        <time>2019-11-29T10:48:48.000Z</time>
      </trkpt>
      <trkpt lat="43.30607" lon="5.6902">
        <ele>797</ele>
        <time>2019-11-29T10:48:49.000Z</time>
      </trkpt>
      <trkpt lat="43.30607" lon="5.69021">
        <ele>797</ele>
        <time>2019-11-29T10:48:50.000Z</time>
      </trkpt>
      <trkpt lat="43.30608" lon="5.69021">
        <ele>798</ele>
        <time>2019-11-29T10:48:51.000Z</time>
      </trkpt>
      <trkpt lat="43.30608" lon="5.69022">
        <ele>798</ele>
        <time>2019-11-29T10:48:52.000Z</time>
      </trkpt>
      <trkpt lat="43.30608" lon="5.69022">
        <ele>798</ele>
        <time>2019-11-29T10:48:53.000Z</time>
      </trkpt>
      <trkpt lat="43.30609" lon="5.69022">
        <ele>798</ele>
        <time>2019-11-29T10:48:54.000Z</time>
      </trkpt>
      <trkpt lat="43.30609" lon="5.69023">
        <ele>798</ele>
        <time>2019-11-29T10:48:55.000Z</time>
      </trkpt>
      <trkpt lat="43.30609" lon="5.69023">
        <ele>799</ele>
        <time>2019-11-29T10:48:56.000Z</time>
      </trkpt>
      <trkpt lat="43.30609" lon="5.69024">
        <ele>799</ele>
        <time>2019-11-29T10:48:57.000Z</time>
      </trkpt>
      <trkpt lat="43.3061" lon="5.69024">
        <ele>799</ele>
        <time>2019-11-29T10:48:58.000Z</time>
      </trkpt>
      <trkpt lat="43.3061" lon="5.69024">
        <ele>799</ele>
        <time>2019-11-29T10:48:59.000Z</time>
      </trkpt>
      <trkpt lat="43.3061" lon="5.69024">
        <ele>799</ele>
        <time>2019-11-29T10:49:00.000Z</time>
      </trkpt>
      <trkpt lat="43.30611" lon="5.69024">
        <ele>799</ele>
        <time>2019-11-29T10:49:01.000Z</time>
      </trkpt>
      <trkpt lat="43.30611" lon="5.69024">
        <ele>800</ele>
        <time>2019-11-29T10:49:02.000Z</time>
      </trkpt>
      <trkpt lat="43.30611" lon="5.69024">
        <ele>800</ele>
        <time>2019-11-29T10:49:03.000Z</time>
      </trkpt>
      <trkpt lat="43.30612" lon="5.69025">
        <ele>800</ele>
        <time>2019-11-29T10:49:04.000Z</time>
      </trkpt>
      <trkpt lat="43.30612" lon="5.69025">
        <ele>800</ele>
        <time>2019-11-29T10:49:05.000Z</time>
      </trkpt>
      <trkpt lat="43.30613" lon="5.69025">
        <ele>800</ele>
        <time>2019-11-29T10:49:06.000Z</time>
      </trkpt>
      <trkpt lat="43.30613" lon="5.69025">
        <ele>800</ele>
        <time>2019-11-29T10:49:07.000Z</time>
      </trkpt>
      <trkpt lat="43.30614" lon="5.69025">
        <ele>801</ele>
        <time>2019-11-29T10:49:08.000Z</time>
      </trkpt>
      <trkpt lat="43.30614" lon="5.69025">
        <ele>801</ele>
        <time>2019-11-29T10:49:09.000Z</time>
      </trkpt>
      <trkpt lat="43.30614" lon="5.69026">
        <ele>801</ele>
        <time>2019-11-29T10:49:10.000Z</time>
      </trkpt>
      <trkpt lat="43.30615" lon="5.69026">
        <ele>801</ele>
        <time>2019-11-29T10:49:11.000Z</time>
      </trkpt>
      <trkpt lat="43.30615" lon="5.69026">
        <ele>801</ele>
        <time>2019-11-29T10:49:12.000Z</time>
      </trkpt>
      <trkpt lat="43.30615" lon="5.69026">
        <ele>801</ele>
        <time>2019-11-29T10:49:13.000Z</time>
      </trkpt>
      <trkpt lat="43.30616" lon="5.69026">
        <ele>801</ele>
        <time>2019-11-29T10:49:14.000Z</time>
      </trkpt>
      <trkpt lat="43.30616" lon="5.69026">
        <ele>802</ele>
        <time>2019-11-29T10:49:15.000Z</time>
      </trkpt>
      <trkpt lat="43.30616" lon="5.69026">
        <ele>802</ele>
        <time>2019-11-29T10:49:16.000Z</time>
      </trkpt>
      <trkpt lat="43.30617" lon="5.69026">
        <ele>802</ele>
        <time>2019-11-29T10:49:17.000Z</time>
      </trkpt>
      <trkpt lat="43.30617" lon="5.69026">
        <ele>802</ele>
        <time>2019-11-29T10:49:18.000Z</time>
      </trkpt>
      <trkpt lat="43.30618" lon="5.69027">
        <ele>802</ele>
        <time>2019-11-29T10:49:19.000Z</time>
      </trkpt>
      <trkpt lat="43.30618" lon="5.69027">
        <ele>802</ele>
        <time>2019-11-29T10:49:20.000Z</time>
      </trkpt>
      <trkpt lat="43.30618" lon="5.69027">
        <ele>802</ele>
        <time>2019-11-29T10:49:21.000Z</time>
      </trkpt>
      <trkpt lat="43.30619" lon="5.69028">
        <ele>802</ele>
        <time>2019-11-29T10:49:22.000Z</time>
      </trkpt>
      <trkpt lat="43.30619" lon="5.69028">
        <ele>803</ele>
        <time>2019-11-29T10:49:23.000Z</time>
      </trkpt>
      <trkpt lat="43.30619" lon="5.69029">
        <ele>803</ele>
        <time>2019-11-29T10:49:24.000Z</time>
      </trkpt>
      <trkpt lat="43.3062" lon="5.69029">
        <ele>803</ele>
        <time>2019-11-29T10:49:25.000Z</time>
      </trkpt>
      <trkpt lat="43.3062" lon="5.69029">
        <ele>803</ele>
        <time>2019-11-29T10:49:26.000Z</time>
      </trkpt>
      <trkpt lat="43.3062" lon="5.69029">
        <ele>803</ele>
        <time>2019-11-29T10:49:27.000Z</time>
      </trkpt>
      <trkpt lat="43.3062" lon="5.6903">
        <ele>803</ele>
        <time>2019-11-29T10:49:28.000Z</time>
      </trkpt>
      <trkpt lat="43.30621" lon="5.69031">
        <ele>803</ele>
        <time>2019-11-29T10:49:29.000Z</time>
      </trkpt>
      <trkpt lat="43.30621" lon="5.69031">
        <ele>803</ele>
        <time>2019-11-29T10:49:30.000Z</time>
      </trkpt>
      <trkpt lat="43.30621" lon="5.69032">
        <ele>804</ele>
        <time>2019-11-29T10:49:31.000Z</time>
      </trkpt>
      <trkpt lat="43.30622" lon="5.69032">
        <ele>804</ele>
        <time>2019-11-29T10:49:32.000Z</time>
      </trkpt>
      <trkpt lat="43.30622" lon="5.69032">
        <ele>804</ele>
        <time>2019-11-29T10:49:33.000Z</time>
      </trkpt>
      <trkpt lat="43.30622" lon="5.69033">
        <ele>804</ele>
        <time>2019-11-29T10:49:34.000Z</time>
      </trkpt>
      <trkpt lat="43.30623" lon="5.69033">
        <ele>804</ele>
        <time>2019-11-29T10:49:35.000Z</time>
      </trkpt>
      <trkpt lat="43.30623" lon="5.69034">
        <ele>804</ele>
        <time>2019-11-29T10:49:36.000Z</time>
      </trkpt>
      <trkpt lat="43.30623" lon="5.69034">
        <ele>804</ele>
        <time>2019-11-29T10:49:37.000Z</time>
      </trkpt>
      <trkpt lat="43.30624" lon="5.69034">
        <ele>805</ele>
        <time>2019-11-29T10:49:38.000Z</time>
      </trkpt>
      <trkpt lat="43.30624" lon="5.69034">
        <ele>805</ele>
        <time>2019-11-29T10:49:39.000Z</time>
      </trkpt>
      <trkpt lat="43.30625" lon="5.69034">
        <ele>805</ele>
        <time>2019-11-29T10:49:40.000Z</time>
      </trkpt>
      <trkpt lat="43.30625" lon="5.69034">
        <ele>805</ele>
        <time>2019-11-29T10:49:41.000Z</time>
      </trkpt>
      <trkpt lat="43.30626" lon="5.69034">
        <ele>805</ele>
        <time>2019-11-29T10:49:42.000Z</time>
      </trkpt>
      <trkpt lat="43.30627" lon="5.69035">
        <ele>805</ele>
        <time>2019-11-29T10:49:43.000Z</time>
      </trkpt>
      <trkpt lat="43.30627" lon="5.69035">
        <ele>805</ele>
        <time>2019-11-29T10:49:44.000Z</time>
      </trkpt>
      <trkpt lat="43.30627" lon="5.69035">
        <ele>805</ele>
        <time>2019-11-29T10:49:45.000Z</time>
      </trkpt>
      <trkpt lat="43.30628" lon="5.69035">
        <ele>805</ele>
        <time>2019-11-29T10:49:46.000Z</time>
      </trkpt>
      <trkpt lat="43.30628" lon="5.69035">
        <ele>805</ele>
        <time>2019-11-29T10:49:47.000Z</time>
      </trkpt>
      <trkpt lat="43.30629" lon="5.69035">
        <ele>805</ele>
        <time>2019-11-29T10:49:48.000Z</time>
      </trkpt>
      <trkpt lat="43.30629" lon="5.69035">
        <ele>805</ele>
        <time>2019-11-29T10:49:49.000Z</time>
      </trkpt>
      <trkpt lat="43.3063" lon="5.69035">
        <ele>805</ele>
        <time>2019-11-29T10:49:50.000Z</time>
      </trkpt>
      <trkpt lat="43.3063" lon="5.69035">
        <ele>806</ele>
        <time>2019-11-29T10:49:51.000Z</time>
      </trkpt>
      <trkpt lat="43.30631" lon="5.69036">
        <ele>806</ele>
        <time>2019-11-29T10:49:52.000Z</time>
      </trkpt>
      <trkpt lat="43.30631" lon="5.69036">
        <ele>806</ele>
        <time>2019-11-29T10:49:53.000Z</time>
      </trkpt>
      <trkpt lat="43.30631" lon="5.69035">
        <ele>806</ele>
        <time>2019-11-29T10:49:54.000Z</time>
      </trkpt>
      <trkpt lat="43.30632" lon="5.69035">
        <ele>806</ele>
        <time>2019-11-29T10:49:55.000Z</time>
      </trkpt>
      <trkpt lat="43.30632" lon="5.69035">
        <ele>806</ele>
        <time>2019-11-29T10:49:56.000Z</time>
      </trkpt>
      <trkpt lat="43.30633" lon="5.69035">
        <ele>807</ele>
        <time>2019-11-29T10:49:57.000Z</time>
      </trkpt>
      <trkpt lat="43.30633" lon="5.69035">
        <ele>807</ele>
        <time>2019-11-29T10:49:58.000Z</time>
      </trkpt>
      <trkpt lat="43.30633" lon="5.69036">
        <ele>807</ele>
        <time>2019-11-29T10:49:59.000Z</time>
      </trkpt>
      <trkpt lat="43.30634" lon="5.69036">
        <ele>807</ele>
        <time>2019-11-29T10:50:00.000Z</time>
      </trkpt>
      <trkpt lat="43.30634" lon="5.69037">
        <ele>807</ele>
        <time>2019-11-29T10:50:01.000Z</time>
      </trkpt>
      <trkpt lat="43.30634" lon="5.69037">
        <ele>808</ele>
        <time>2019-11-29T10:50:02.000Z</time>
      </trkpt>
      <trkpt lat="43.30634" lon="5.69038">
        <ele>808</ele>
        <time>2019-11-29T10:50:03.000Z</time>
      </trkpt>
      <trkpt lat="43.30634" lon="5.69038">
        <ele>808</ele>
        <time>2019-11-29T10:50:04.000Z</time>
      </trkpt>
      <trkpt lat="43.30635" lon="5.69038">
        <ele>808</ele>
        <time>2019-11-29T10:50:05.000Z</time>
      </trkpt>
      <trkpt lat="43.30635" lon="5.69038">
        <ele>808</ele>
        <time>2019-11-29T10:50:06.000Z</time>
      </trkpt>
      <trkpt lat="43.30635" lon="5.69039">
        <ele>809</ele>
        <time>2019-11-29T10:50:07.000Z</time>
      </trkpt>
      <trkpt lat="43.30635" lon="5.6904">
        <ele>809</ele>
        <time>2019-11-29T10:50:08.000Z</time>
      </trkpt>
      <trkpt lat="43.30636" lon="5.6904">
        <ele>809</ele>
        <time>2019-11-29T10:50:09.000Z</time>
      </trkpt>
      <trkpt lat="43.30636" lon="5.6904">
        <ele>809</ele>
        <time>2019-11-29T10:50:10.000Z</time>
      </trkpt>
      <trkpt lat="43.30636" lon="5.69041">
        <ele>809</ele>
        <time>2019-11-29T10:50:11.000Z</time>
      </trkpt>
      <trkpt lat="43.30636" lon="5.69041">
        <ele>809</ele>
        <time>2019-11-29T10:50:12.000Z</time>
      </trkpt>
      <trkpt lat="43.30636" lon="5.69041">
        <ele>809</ele>
        <time>2019-11-29T10:50:13.000Z</time>
      </trkpt>
      <trkpt lat="43.30636" lon="5.69042">
        <ele>809</ele>
        <time>2019-11-29T10:50:14.000Z</time>
      </trkpt>
      <trkpt lat="43.30637" lon="5.69042">
        <ele>809</ele>
        <time>2019-11-29T10:50:15.000Z</time>
      </trkpt>
      <trkpt lat="43.30637" lon="5.69042">
        <ele>809</ele>
        <time>2019-11-29T10:50:16.000Z</time>
      </trkpt>
      <trkpt lat="43.30637" lon="5.69043">
        <ele>810</ele>
        <time>2019-11-29T10:50:17.000Z</time>
      </trkpt>
      <trkpt lat="43.30637" lon="5.69043">
        <ele>810</ele>
        <time>2019-11-29T10:50:18.000Z</time>
      </trkpt>
      <trkpt lat="43.30637" lon="5.69044">
        <ele>810</ele>
        <time>2019-11-29T10:50:19.000Z</time>
      </trkpt>
      <trkpt lat="43.30638" lon="5.69044">
        <ele>810</ele>
        <time>2019-11-29T10:50:20.000Z</time>
      </trkpt>
      <trkpt lat="43.30638" lon="5.69045">
        <ele>810</ele>
        <time>2019-11-29T10:50:21.000Z</time>
      </trkpt>
      <trkpt lat="43.30638" lon="5.69045">
        <ele>811</ele>
        <time>2019-11-29T10:50:22.000Z</time>
      </trkpt>
      <trkpt lat="43.30639" lon="5.69045">
        <ele>811</ele>
        <time>2019-11-29T10:50:23.000Z</time>
      </trkpt>
      <trkpt lat="43.30639" lon="5.69046">
        <ele>811</ele>
        <time>2019-11-29T10:50:24.000Z</time>
      </trkpt>
      <trkpt lat="43.30639" lon="5.69046">
        <ele>811</ele>
        <time>2019-11-29T10:50:25.000Z</time>
      </trkpt>
      <trkpt lat="43.30639" lon="5.69047">
        <ele>811</ele>
        <time>2019-11-29T10:50:26.000Z</time>
      </trkpt>
      <trkpt lat="43.3064" lon="5.69048">
        <ele>811</ele>
        <time>2019-11-29T10:50:27.000Z</time>
      </trkpt>
      <trkpt lat="43.3064" lon="5.69048">
        <ele>811</ele>
        <time>2019-11-29T10:50:28.000Z</time>
      </trkpt>
      <trkpt lat="43.3064" lon="5.69048">
        <ele>811</ele>
        <time>2019-11-29T10:50:29.000Z</time>
      </trkpt>
      <trkpt lat="43.3064" lon="5.69049">
        <ele>812</ele>
        <time>2019-11-29T10:50:30.000Z</time>
      </trkpt>
      <trkpt lat="43.30641" lon="5.69049">
        <ele>812</ele>
        <time>2019-11-29T10:50:31.000Z</time>
      </trkpt>
      <trkpt lat="43.30641" lon="5.6905">
        <ele>812</ele>
        <time>2019-11-29T10:50:32.000Z</time>
      </trkpt>
      <trkpt lat="43.30642" lon="5.6905">
        <ele>812</ele>
        <time>2019-11-29T10:50:33.000Z</time>
      </trkpt>
      <trkpt lat="43.30642" lon="5.69051">
        <ele>812</ele>
        <time>2019-11-29T10:50:34.000Z</time>
      </trkpt>
      <trkpt lat="43.30642" lon="5.69051">
        <ele>812</ele>
        <time>2019-11-29T10:50:35.000Z</time>
      </trkpt>
      <trkpt lat="43.30643" lon="5.69052">
        <ele>812</ele>
        <time>2019-11-29T10:50:36.000Z</time>
      </trkpt>
      <trkpt lat="43.30643" lon="5.69053">
        <ele>812</ele>
        <time>2019-11-29T10:50:37.000Z</time>
      </trkpt>
      <trkpt lat="43.30643" lon="5.69053">
        <ele>813</ele>
        <time>2019-11-29T10:50:38.000Z</time>
      </trkpt>
      <trkpt lat="43.30644" lon="5.69053">
        <ele>813</ele>
        <time>2019-11-29T10:50:39.000Z</time>
      </trkpt>
      <trkpt lat="43.30644" lon="5.69054">
        <ele>813</ele>
        <time>2019-11-29T10:50:40.000Z</time>
      </trkpt>
      <trkpt lat="43.30644" lon="5.69053">
        <ele>813</ele>
        <time>2019-11-29T10:50:41.000Z</time>
      </trkpt>
      <trkpt lat="43.30645" lon="5.69053">
        <ele>813</ele>
        <time>2019-11-29T10:50:42.000Z</time>
      </trkpt>
      <trkpt lat="43.30646" lon="5.69054">
        <ele>813</ele>
        <time>2019-11-29T10:50:43.000Z</time>
      </trkpt>
      <trkpt lat="43.30646" lon="5.69054">
        <ele>813</ele>
        <time>2019-11-29T10:50:44.000Z</time>
      </trkpt>
      <trkpt lat="43.30647" lon="5.69054">
        <ele>814</ele>
        <time>2019-11-29T10:50:45.000Z</time>
      </trkpt>
      <trkpt lat="43.30647" lon="5.69054">
        <ele>814</ele>
        <time>2019-11-29T10:50:46.000Z</time>
      </trkpt>
      <trkpt lat="43.30648" lon="5.69054">
        <ele>814</ele>
        <time>2019-11-29T10:50:47.000Z</time>
      </trkpt>
      <trkpt lat="43.30648" lon="5.69054">
        <ele>814</ele>
        <time>2019-11-29T10:50:48.000Z</time>
      </trkpt>
      <trkpt lat="43.30649" lon="5.69054">
        <ele>814</ele>
        <time>2019-11-29T10:50:49.000Z</time>
      </trkpt>
      <trkpt lat="43.30649" lon="5.69054">
        <ele>814</ele>
        <time>2019-11-29T10:50:50.000Z</time>
      </trkpt>
      <trkpt lat="43.3065" lon="5.69055">
        <ele>814</ele>
        <time>2019-11-29T10:50:51.000Z</time>
      </trkpt>
      <trkpt lat="43.3065" lon="5.69055">
        <ele>814</ele>
        <time>2019-11-29T10:50:52.000Z</time>
      </trkpt>
      <trkpt lat="43.30651" lon="5.69056">
        <ele>815</ele>
        <time>2019-11-29T10:50:53.000Z</time>
      </trkpt>
      <trkpt lat="43.30651" lon="5.69056">
        <ele>815</ele>
        <time>2019-11-29T10:50:54.000Z</time>
      </trkpt>
      <trkpt lat="43.30652" lon="5.69056">
        <ele>815</ele>
        <time>2019-11-29T10:50:55.000Z</time>
      </trkpt>
      <trkpt lat="43.30652" lon="5.69056">
        <ele>815</ele>
        <time>2019-11-29T10:50:56.000Z</time>
      </trkpt>
      <trkpt lat="43.30653" lon="5.69056">
        <ele>815</ele>
        <time>2019-11-29T10:50:57.000Z</time>
      </trkpt>
      <trkpt lat="43.30653" lon="5.69056">
        <ele>815</ele>
        <time>2019-11-29T10:50:58.000Z</time>
      </trkpt>
      <trkpt lat="43.30654" lon="5.69056">
        <ele>815</ele>
        <time>2019-11-29T10:50:59.000Z</time>
      </trkpt>
      <trkpt lat="43.30655" lon="5.69056">
        <ele>815</ele>
        <time>2019-11-29T10:51:00.000Z</time>
      </trkpt>
      <trkpt lat="43.30655" lon="5.69056">
        <ele>815</ele>
        <time>2019-11-29T10:51:01.000Z</time>
      </trkpt>
      <trkpt lat="43.30656" lon="5.69056">
        <ele>815</ele>
        <time>2019-11-29T10:51:02.000Z</time>
      </trkpt>
      <trkpt lat="43.30656" lon="5.69056">
        <ele>815</ele>
        <time>2019-11-29T10:51:03.000Z</time>
      </trkpt>
      <trkpt lat="43.30656" lon="5.69056">
        <ele>815</ele>
        <time>2019-11-29T10:51:04.000Z</time>
      </trkpt>
      <trkpt lat="43.30656" lon="5.69056">
        <ele>815</ele>
        <time>2019-11-29T10:51:05.000Z</time>
      </trkpt>
      <trkpt lat="43.30656" lon="5.69056">
        <ele>815</ele>
        <time>2019-11-29T10:51:06.000Z</time>
      </trkpt>
      <trkpt lat="43.30656" lon="5.69056">
        <ele>815</ele>
        <time>2019-11-29T10:51:07.000Z</time>
      </trkpt>
      <trkpt lat="43.30656" lon="5.69056">
        <ele>815</ele>
        <time>2019-11-29T10:51:08.000Z</time>
      </trkpt>
      <trkpt lat="43.30657" lon="5.69056">
        <ele>815</ele>
        <time>2019-11-29T10:51:09.000Z</time>
      </trkpt>
      <trkpt lat="43.30657" lon="5.69056">
        <ele>815</ele>
        <time>2019-11-29T10:51:10.000Z</time>
      </trkpt>
      <trkpt lat="43.30657" lon="5.69055">
        <ele>815</ele>
        <time>2019-11-29T10:51:11.000Z</time>
      </trkpt>
      <trkpt lat="43.30657" lon="5.69055">
        <ele>815</ele>
        <time>2019-11-29T10:51:12.000Z</time>
      </trkpt>
      <trkpt lat="43.30657" lon="5.69055">
        <ele>815</ele>
        <time>2019-11-29T10:51:13.000Z</time>
      </trkpt>
      <trkpt lat="43.30657" lon="5.69055">
        <ele>815</ele>
        <time>2019-11-29T10:51:14.000Z</time>
      </trkpt>
      <trkpt lat="43.30657" lon="5.69055">
        <ele>815</ele>
        <time>2019-11-29T10:51:15.000Z</time>
      </trkpt>
      <trkpt lat="43.30657" lon="5.69055">
        <ele>815</ele>
        <time>2019-11-29T10:51:16.000Z</time>
      </trkpt>
      <trkpt lat="43.30657" lon="5.69055">
        <ele>815</ele>
        <time>2019-11-29T10:51:17.000Z</time>
      </trkpt>
      <trkpt lat="43.30657" lon="5.69056">
        <ele>815</ele>
        <time>2019-11-29T10:51:18.000Z</time>
      </trkpt>
      <trkpt lat="43.30657" lon="5.69055">
        <ele>816</ele>
        <time>2019-11-29T10:51:19.000Z</time>
      </trkpt>
      <trkpt lat="43.30657" lon="5.69055">
        <ele>816</ele>
        <time>2019-11-29T10:51:20.000Z</time>
      </trkpt>
      <trkpt lat="43.30657" lon="5.69055">
        <ele>816</ele>
        <time>2019-11-29T10:51:21.000Z</time>
      </trkpt>
      <trkpt lat="43.30657" lon="5.69055">
        <ele>816</ele>
        <time>2019-11-29T10:51:22.000Z</time>
      </trkpt>
      <trkpt lat="43.30657" lon="5.69055">
        <ele>816</ele>
        <time>2019-11-29T10:51:23.000Z</time>
      </trkpt>
      <trkpt lat="43.30657" lon="5.69055">
        <ele>816</ele>
        <time>2019-11-29T10:51:24.000Z</time>
      </trkpt>
      <trkpt lat="43.30657" lon="5.69055">
        <ele>816</ele>
        <time>2019-11-29T10:51:25.000Z</time>
      </trkpt>
      <trkpt lat="43.30657" lon="5.69055">
        <ele>816</ele>
        <time>2019-11-29T10:51:26.000Z</time>
      </trkpt>
      <trkpt lat="43.30657" lon="5.69055">
        <ele>816</ele>
        <time>2019-11-29T10:51:27.000Z</time>
      </trkpt>
      <trkpt lat="43.30657" lon="5.69055">
        <ele>816</ele>
        <time>2019-11-29T10:51:28.000Z</time>
      </trkpt>
      <trkpt lat="43.30657" lon="5.69055">
        <ele>816</ele>
        <time>2019-11-29T10:51:29.000Z</time>
      </trkpt>
      <trkpt lat="43.30657" lon="5.69055">
        <ele>816</ele>
        <time>2019-11-29T10:51:30.000Z</time>
      </trkpt>
      <trkpt lat="43.30657" lon="5.69055">
        <ele>816</ele>
        <time>2019-11-29T10:51:31.000Z</time>
      </trkpt>
      <trkpt lat="43.30657" lon="5.69055">
        <ele>816</ele>
        <time>2019-11-29T10:51:32.000Z</time>
      </trkpt>
      <trkpt lat="43.30657" lon="5.69056">
        <ele>816</ele>
        <time>2019-11-29T10:51:33.000Z</time>
      </trkpt>
      <trkpt lat="43.30657" lon="5.69056">
        <ele>816</ele>
        <time>2019-11-29T10:51:34.000Z</time>
      </trkpt>
      <trkpt lat="43.30657" lon="5.69056">
        <ele>816</ele>
        <time>2019-11-29T10:51:35.000Z</time>
      </trkpt>
      <trkpt lat="43.30657" lon="5.69056">
        <ele>816</ele>
        <time>2019-11-29T10:51:36.000Z</time>
      </trkpt>
      <trkpt lat="43.30657" lon="5.69056">
        <ele>816</ele>
        <time>2019-11-29T10:51:37.000Z</time>
      </trkpt>
      <trkpt lat="43.30657" lon="5.69056">
        <ele>816</ele>
        <time>2019-11-29T10:51:38.000Z</time>
      </trkpt>
      <trkpt lat="43.30657" lon="5.69056">
        <ele>816</ele>
        <time>2019-11-29T10:51:39.000Z</time>
      </trkpt>
      <trkpt lat="43.30657" lon="5.69056">
        <ele>816</ele>
        <time>2019-11-29T10:51:40.000Z</time>
      </trkpt>
      <trkpt lat="43.30657" lon="5.69055">
        <ele>816</ele>
        <time>2019-11-29T10:51:41.000Z</time>
      </trkpt>
      <trkpt lat="43.30657" lon="5.69055">
        <ele>816</ele>
        <time>2019-11-29T10:51:42.000Z</time>
      </trkpt>
      <trkpt lat="43.30657" lon="5.69055">
        <ele>816</ele>
        <time>2019-11-29T10:51:43.000Z</time>
      </trkpt>
      <trkpt lat="43.30657" lon="5.69056">
        <ele>816</ele>
        <time>2019-11-29T10:51:44.000Z</time>
      </trkpt>
      <trkpt lat="43.30657" lon="5.69056">
        <ele>816</ele>
        <time>2019-11-29T10:51:45.000Z</time>
      </trkpt>
      <trkpt lat="43.30657" lon="5.69056">
        <ele>816</ele>
        <time>2019-11-29T10:51:46.000Z</time>
      </trkpt>
      <trkpt lat="43.30657" lon="5.69056">
        <ele>816</ele>
        <time>2019-11-29T10:51:47.000Z</time>
      </trkpt>
      <trkpt lat="43.30657" lon="5.69056">
        <ele>816</ele>
        <time>2019-11-29T10:51:48.000Z</time>
      </trkpt>
      <trkpt lat="43.30657" lon="5.69056">
        <ele>816</ele>
        <time>2019-11-29T10:51:49.000Z</time>
      </trkpt>
      <trkpt lat="43.30657" lon="5.69056">
        <ele>816</ele>
        <time>2019-11-29T10:51:50.000Z</time>
      </trkpt>
      <trkpt lat="43.30657" lon="5.69055">
        <ele>816</ele>
        <time>2019-11-29T10:51:51.000Z</time>
      </trkpt>
      <trkpt lat="43.30657" lon="5.69055">
        <ele>816</ele>
        <time>2019-11-29T10:51:52.000Z</time>
      </trkpt>
      <trkpt lat="43.30658" lon="5.69056">
        <ele>816</ele>
        <time>2019-11-29T10:51:53.000Z</time>
      </trkpt>
      <trkpt lat="43.30659" lon="5.69056">
        <ele>816</ele>
        <time>2019-11-29T10:51:54.000Z</time>
      </trkpt>
      <trkpt lat="43.30659" lon="5.69057">
        <ele>816</ele>
        <time>2019-11-29T10:51:55.000Z</time>
      </trkpt>
      <trkpt lat="43.30659" lon="5.69058">
        <ele>816</ele>
        <time>2019-11-29T10:51:56.000Z</time>
      </trkpt>
      <trkpt lat="43.3066" lon="5.69058">
        <ele>816</ele>
        <time>2019-11-29T10:51:57.000Z</time>
      </trkpt>
      <trkpt lat="43.3066" lon="5.69059">
        <ele>816</ele>
        <time>2019-11-29T10:51:58.000Z</time>
      </trkpt>
      <trkpt lat="43.30661" lon="5.69059">
        <ele>816</ele>
        <time>2019-11-29T10:51:59.000Z</time>
      </trkpt>
      <trkpt lat="43.30661" lon="5.6906">
        <ele>816</ele>
        <time>2019-11-29T10:52:00.000Z</time>
      </trkpt>
      <trkpt lat="43.30662" lon="5.6906">
        <ele>817</ele>
        <time>2019-11-29T10:52:01.000Z</time>
      </trkpt>
      <trkpt lat="43.30662" lon="5.69061">
        <ele>817</ele>
        <time>2019-11-29T10:52:02.000Z</time>
      </trkpt>
      <trkpt lat="43.30662" lon="5.69062">
        <ele>817</ele>
        <time>2019-11-29T10:52:03.000Z</time>
      </trkpt>
      <trkpt lat="43.30663" lon="5.69062">
        <ele>817</ele>
        <time>2019-11-29T10:52:04.000Z</time>
      </trkpt>
      <trkpt lat="43.30663" lon="5.69063">
        <ele>817</ele>
        <time>2019-11-29T10:52:05.000Z</time>
      </trkpt>
      <trkpt lat="43.30664" lon="5.69063">
        <ele>817</ele>
        <time>2019-11-29T10:52:06.000Z</time>
      </trkpt>
      <trkpt lat="43.30664" lon="5.69064">
        <ele>818</ele>
        <time>2019-11-29T10:52:07.000Z</time>
      </trkpt>
      <trkpt lat="43.30664" lon="5.69065">
        <ele>818</ele>
        <time>2019-11-29T10:52:08.000Z</time>
      </trkpt>
      <trkpt lat="43.30664" lon="5.69065">
        <ele>818</ele>
        <time>2019-11-29T10:52:09.000Z</time>
      </trkpt>
      <trkpt lat="43.30664" lon="5.69066">
        <ele>818</ele>
        <time>2019-11-29T10:52:10.000Z</time>
      </trkpt>
      <trkpt lat="43.30665" lon="5.69066">
        <ele>818</ele>
        <time>2019-11-29T10:52:11.000Z</time>
      </trkpt>
      <trkpt lat="43.30665" lon="5.69067">
        <ele>819</ele>
        <time>2019-11-29T10:52:12.000Z</time>
      </trkpt>
      <trkpt lat="43.30666" lon="5.69067">
        <ele>819</ele>
        <time>2019-11-29T10:52:13.000Z</time>
      </trkpt>
      <trkpt lat="43.30666" lon="5.69068">
        <ele>819</ele>
        <time>2019-11-29T10:52:14.000Z</time>
      </trkpt>
      <trkpt lat="43.30667" lon="5.69068">
        <ele>819</ele>
        <time>2019-11-29T10:52:15.000Z</time>
      </trkpt>
      <trkpt lat="43.30667" lon="5.69069">
        <ele>819</ele>
        <time>2019-11-29T10:52:16.000Z</time>
      </trkpt>
      <trkpt lat="43.30668" lon="5.69069">
        <ele>819</ele>
        <time>2019-11-29T10:52:17.000Z</time>
      </trkpt>
      <trkpt lat="43.30668" lon="5.6907">
        <ele>820</ele>
        <time>2019-11-29T10:52:18.000Z</time>
      </trkpt>
      <trkpt lat="43.30668" lon="5.69071">
        <ele>820</ele>
        <time>2019-11-29T10:52:19.000Z</time>
      </trkpt>
      <trkpt lat="43.30668" lon="5.69071">
        <ele>820</ele>
        <time>2019-11-29T10:52:20.000Z</time>
      </trkpt>
      <trkpt lat="43.30669" lon="5.69072">
        <ele>820</ele>
        <time>2019-11-29T10:52:21.000Z</time>
      </trkpt>
      <trkpt lat="43.30669" lon="5.69072">
        <ele>820</ele>
        <time>2019-11-29T10:52:22.000Z</time>
      </trkpt>
      <trkpt lat="43.3067" lon="5.69073">
        <ele>820</ele>
        <time>2019-11-29T10:52:23.000Z</time>
      </trkpt>
      <trkpt lat="43.3067" lon="5.69074">
        <ele>820</ele>
        <time>2019-11-29T10:52:24.000Z</time>
      </trkpt>
      <trkpt lat="43.3067" lon="5.69074">
        <ele>821</ele>
        <time>2019-11-29T10:52:25.000Z</time>
      </trkpt>
      <trkpt lat="43.30671" lon="5.69075">
        <ele>821</ele>
        <time>2019-11-29T10:52:26.000Z</time>
      </trkpt>
      <trkpt lat="43.30671" lon="5.69075">
        <ele>821</ele>
        <time>2019-11-29T10:52:27.000Z</time>
      </trkpt>
      <trkpt lat="43.30672" lon="5.69076">
        <ele>821</ele>
        <time>2019-11-29T10:52:28.000Z</time>
      </trkpt>
      <trkpt lat="43.30672" lon="5.69076">
        <ele>821</ele>
        <time>2019-11-29T10:52:29.000Z</time>
      </trkpt>
      <trkpt lat="43.30672" lon="5.69077">
        <ele>821</ele>
        <time>2019-11-29T10:52:30.000Z</time>
      </trkpt>
      <trkpt lat="43.30673" lon="5.69077">
        <ele>821</ele>
        <time>2019-11-29T10:52:31.000Z</time>
      </trkpt>
      <trkpt lat="43.30673" lon="5.69077">
        <ele>821</ele>
        <time>2019-11-29T10:52:32.000Z</time>
      </trkpt>
      <trkpt lat="43.30674" lon="5.69078">
        <ele>822</ele>
        <time>2019-11-29T10:52:33.000Z</time>
      </trkpt>
      <trkpt lat="43.30674" lon="5.69078">
        <ele>822</ele>
        <time>2019-11-29T10:52:34.000Z</time>
      </trkpt>
      <trkpt lat="43.30675" lon="5.69079">
        <ele>822</ele>
        <time>2019-11-29T10:52:35.000Z</time>
      </trkpt>
      <trkpt lat="43.30676" lon="5.69079">
        <ele>822</ele>
        <time>2019-11-29T10:52:36.000Z</time>
      </trkpt>
      <trkpt lat="43.30676" lon="5.69079">
        <ele>822</ele>
        <time>2019-11-29T10:52:37.000Z</time>
      </trkpt>
      <trkpt lat="43.30677" lon="5.6908">
        <ele>822</ele>
        <time>2019-11-29T10:52:38.000Z</time>
      </trkpt>
      <trkpt lat="43.30677" lon="5.6908">
        <ele>822</ele>
        <time>2019-11-29T10:52:39.000Z</time>
      </trkpt>
      <trkpt lat="43.30678" lon="5.6908">
        <ele>822</ele>
        <time>2019-11-29T10:52:40.000Z</time>
      </trkpt>
      <trkpt lat="43.30678" lon="5.69081">
        <ele>823</ele>
        <time>2019-11-29T10:52:41.000Z</time>
      </trkpt>
      <trkpt lat="43.30679" lon="5.69081">
        <ele>823</ele>
        <time>2019-11-29T10:52:42.000Z</time>
      </trkpt>
      <trkpt lat="43.30679" lon="5.69081">
        <ele>823</ele>
        <time>2019-11-29T10:52:43.000Z</time>
      </trkpt>
      <trkpt lat="43.3068" lon="5.69082">
        <ele>823</ele>
        <time>2019-11-29T10:52:44.000Z</time>
      </trkpt>
      <trkpt lat="43.30681" lon="5.69082">
        <ele>823</ele>
        <time>2019-11-29T10:52:45.000Z</time>
      </trkpt>
      <trkpt lat="43.30681" lon="5.69083">
        <ele>823</ele>
        <time>2019-11-29T10:52:46.000Z</time>
      </trkpt>
      <trkpt lat="43.30682" lon="5.69083">
        <ele>823</ele>
        <time>2019-11-29T10:52:47.000Z</time>
      </trkpt>
      <trkpt lat="43.30682" lon="5.69084">
        <ele>824</ele>
        <time>2019-11-29T10:52:48.000Z</time>
      </trkpt>
      <trkpt lat="43.30682" lon="5.69085">
        <ele>824</ele>
        <time>2019-11-29T10:52:49.000Z</time>
      </trkpt>
      <trkpt lat="43.30683" lon="5.69086">
        <ele>824</ele>
        <time>2019-11-29T10:52:50.000Z</time>
      </trkpt>
      <trkpt lat="43.30683" lon="5.69086">
        <ele>824</ele>
        <time>2019-11-29T10:52:51.000Z</time>
      </trkpt>
      <trkpt lat="43.30683" lon="5.69087">
        <ele>824</ele>
        <time>2019-11-29T10:52:52.000Z</time>
      </trkpt>
      <trkpt lat="43.30684" lon="5.69088">
        <ele>824</ele>
        <time>2019-11-29T10:52:53.000Z</time>
      </trkpt>
      <trkpt lat="43.30684" lon="5.69089">
        <ele>825</ele>
        <time>2019-11-29T10:52:54.000Z</time>
      </trkpt>
      <trkpt lat="43.30684" lon="5.6909">
        <ele>825</ele>
        <time>2019-11-29T10:52:55.000Z</time>
      </trkpt>
      <trkpt lat="43.30684" lon="5.6909">
        <ele>825</ele>
        <time>2019-11-29T10:52:56.000Z</time>
      </trkpt>
      <trkpt lat="43.30684" lon="5.69091">
        <ele>825</ele>
        <time>2019-11-29T10:52:57.000Z</time>
      </trkpt>
      <trkpt lat="43.30685" lon="5.69092">
        <ele>825</ele>
        <time>2019-11-29T10:52:58.000Z</time>
      </trkpt>
      <trkpt lat="43.30685" lon="5.69092">
        <ele>825</ele>
        <time>2019-11-29T10:52:59.000Z</time>
      </trkpt>
      <trkpt lat="43.30685" lon="5.69093">
        <ele>825</ele>
        <time>2019-11-29T10:53:00.000Z</time>
      </trkpt>
      <trkpt lat="43.30685" lon="5.69093">
        <ele>826</ele>
        <time>2019-11-29T10:53:01.000Z</time>
      </trkpt>
      <trkpt lat="43.30685" lon="5.69094">
        <ele>826</ele>
        <time>2019-11-29T10:53:02.000Z</time>
      </trkpt>
      <trkpt lat="43.30685" lon="5.69095">
        <ele>826</ele>
        <time>2019-11-29T10:53:03.000Z</time>
      </trkpt>
      <trkpt lat="43.30685" lon="5.69095">
        <ele>826</ele>
        <time>2019-11-29T10:53:04.000Z</time>
      </trkpt>
      <trkpt lat="43.30686" lon="5.69096">
        <ele>826</ele>
        <time>2019-11-29T10:53:05.000Z</time>
      </trkpt>
      <trkpt lat="43.30686" lon="5.69096">
        <ele>826</ele>
        <time>2019-11-29T10:53:06.000Z</time>
      </trkpt>
      <trkpt lat="43.30686" lon="5.69097">
        <ele>827</ele>
        <time>2019-11-29T10:53:07.000Z</time>
      </trkpt>
      <trkpt lat="43.30686" lon="5.69098">
        <ele>827</ele>
        <time>2019-11-29T10:53:08.000Z</time>
      </trkpt>
      <trkpt lat="43.30686" lon="5.69098">
        <ele>827</ele>
        <time>2019-11-29T10:53:09.000Z</time>
      </trkpt>
      <trkpt lat="43.30686" lon="5.69099">
        <ele>827</ele>
        <time>2019-11-29T10:53:10.000Z</time>
      </trkpt>
      <trkpt lat="43.30687" lon="5.69099">
        <ele>827</ele>
        <time>2019-11-29T10:53:11.000Z</time>
      </trkpt>
      <trkpt lat="43.30687" lon="5.691">
        <ele>828</ele>
        <time>2019-11-29T10:53:12.000Z</time>
      </trkpt>
      <trkpt lat="43.30687" lon="5.691">
        <ele>828</ele>
        <time>2019-11-29T10:53:13.000Z</time>
      </trkpt>
      <trkpt lat="43.30687" lon="5.69101">
        <ele>828</ele>
        <time>2019-11-29T10:53:14.000Z</time>
      </trkpt>
      <trkpt lat="43.30688" lon="5.69102">
        <ele>828</ele>
        <time>2019-11-29T10:53:15.000Z</time>
      </trkpt>
      <trkpt lat="43.30688" lon="5.69102">
        <ele>828</ele>
        <time>2019-11-29T10:53:16.000Z</time>
      </trkpt>
      <trkpt lat="43.30688" lon="5.69103">
        <ele>828</ele>
        <time>2019-11-29T10:53:17.000Z</time>
      </trkpt>
      <trkpt lat="43.30688" lon="5.69103">
        <ele>828</ele>
        <time>2019-11-29T10:53:18.000Z</time>
      </trkpt>
      <trkpt lat="43.30688" lon="5.69104">
        <ele>828</ele>
        <time>2019-11-29T10:53:19.000Z</time>
      </trkpt>
      <trkpt lat="43.30688" lon="5.69105">
        <ele>828</ele>
        <time>2019-11-29T10:53:20.000Z</time>
      </trkpt>
      <trkpt lat="43.30689" lon="5.69105">
        <ele>829</ele>
        <time>2019-11-29T10:53:21.000Z</time>
      </trkpt>
      <trkpt lat="43.30689" lon="5.69106">
        <ele>829</ele>
        <time>2019-11-29T10:53:22.000Z</time>
      </trkpt>
      <trkpt lat="43.30689" lon="5.69107">
        <ele>829</ele>
        <time>2019-11-29T10:53:23.000Z</time>
      </trkpt>
      <trkpt lat="43.30689" lon="5.69107">
        <ele>829</ele>
        <time>2019-11-29T10:53:24.000Z</time>
      </trkpt>
      <trkpt lat="43.30689" lon="5.69108">
        <ele>829</ele>
        <time>2019-11-29T10:53:25.000Z</time>
      </trkpt>
      <trkpt lat="43.30689" lon="5.69108">
        <ele>829</ele>
        <time>2019-11-29T10:53:26.000Z</time>
      </trkpt>
      <trkpt lat="43.3069" lon="5.69109">
        <ele>830</ele>
        <time>2019-11-29T10:53:27.000Z</time>
      </trkpt>
      <trkpt lat="43.3069" lon="5.6911">
        <ele>830</ele>
        <time>2019-11-29T10:53:28.000Z</time>
      </trkpt>
      <trkpt lat="43.3069" lon="5.6911">
        <ele>830</ele>
        <time>2019-11-29T10:53:29.000Z</time>
      </trkpt>
      <trkpt lat="43.3069" lon="5.69111">
        <ele>830</ele>
        <time>2019-11-29T10:53:30.000Z</time>
      </trkpt>
      <trkpt lat="43.3069" lon="5.69111">
        <ele>830</ele>
        <time>2019-11-29T10:53:31.000Z</time>
      </trkpt>
      <trkpt lat="43.3069" lon="5.69112">
        <ele>830</ele>
        <time>2019-11-29T10:53:32.000Z</time>
      </trkpt>
      <trkpt lat="43.3069" lon="5.69113">
        <ele>830</ele>
        <time>2019-11-29T10:53:33.000Z</time>
      </trkpt>
      <trkpt lat="43.30691" lon="5.69113">
        <ele>830</ele>
        <time>2019-11-29T10:53:34.000Z</time>
      </trkpt>
      <trkpt lat="43.30691" lon="5.69114">
        <ele>831</ele>
        <time>2019-11-29T10:53:35.000Z</time>
      </trkpt>
      <trkpt lat="43.30691" lon="5.69115">
        <ele>831</ele>
        <time>2019-11-29T10:53:36.000Z</time>
      </trkpt>
      <trkpt lat="43.30691" lon="5.69115">
        <ele>831</ele>
        <time>2019-11-29T10:53:37.000Z</time>
      </trkpt>
      <trkpt lat="43.30691" lon="5.69116">
        <ele>831</ele>
        <time>2019-11-29T10:53:38.000Z</time>
      </trkpt>
      <trkpt lat="43.30691" lon="5.69117">
        <ele>831</ele>
        <time>2019-11-29T10:53:39.000Z</time>
      </trkpt>
      <trkpt lat="43.30691" lon="5.69117">
        <ele>831</ele>
        <time>2019-11-29T10:53:40.000Z</time>
      </trkpt>
      <trkpt lat="43.30691" lon="5.69118">
        <ele>831</ele>
        <time>2019-11-29T10:53:41.000Z</time>
      </trkpt>
      <trkpt lat="43.30691" lon="5.69119">
        <ele>832</ele>
        <time>2019-11-29T10:53:42.000Z</time>
      </trkpt>
      <trkpt lat="43.30691" lon="5.69119">
        <ele>832</ele>
        <time>2019-11-29T10:53:43.000Z</time>
      </trkpt>
      <trkpt lat="43.30691" lon="5.6912">
        <ele>832</ele>
        <time>2019-11-29T10:53:44.000Z</time>
      </trkpt>
      <trkpt lat="43.30691" lon="5.6912">
        <ele>832</ele>
        <time>2019-11-29T10:53:45.000Z</time>
      </trkpt>
      <trkpt lat="43.30692" lon="5.69121">
        <ele>832</ele>
        <time>2019-11-29T10:53:46.000Z</time>
      </trkpt>
      <trkpt lat="43.30692" lon="5.69121">
        <ele>832</ele>
        <time>2019-11-29T10:53:47.000Z</time>
      </trkpt>
      <trkpt lat="43.30692" lon="5.69122">
        <ele>832</ele>
        <time>2019-11-29T10:53:48.000Z</time>
      </trkpt>
      <trkpt lat="43.30692" lon="5.69123">
        <ele>833</ele>
        <time>2019-11-29T10:53:49.000Z</time>
      </trkpt>
      <trkpt lat="43.30692" lon="5.69123">
        <ele>833</ele>
        <time>2019-11-29T10:53:50.000Z</time>
      </trkpt>
      <trkpt lat="43.30692" lon="5.69124">
        <ele>833</ele>
        <time>2019-11-29T10:53:51.000Z</time>
      </trkpt>
      <trkpt lat="43.30692" lon="5.69124">
        <ele>833</ele>
        <time>2019-11-29T10:53:52.000Z</time>
      </trkpt>
      <trkpt lat="43.30692" lon="5.69125">
        <ele>833</ele>
        <time>2019-11-29T10:53:53.000Z</time>
      </trkpt>
      <trkpt lat="43.30692" lon="5.69125">
        <ele>833</ele>
        <time>2019-11-29T10:53:54.000Z</time>
      </trkpt>
      <trkpt lat="43.30692" lon="5.69126">
        <ele>833</ele>
        <time>2019-11-29T10:53:55.000Z</time>
      </trkpt>
      <trkpt lat="43.30692" lon="5.69126">
        <ele>833</ele>
        <time>2019-11-29T10:53:56.000Z</time>
      </trkpt>
      <trkpt lat="43.30692" lon="5.69126">
        <ele>833</ele>
        <time>2019-11-29T10:53:57.000Z</time>
      </trkpt>
      <trkpt lat="43.30692" lon="5.69126">
        <ele>833</ele>
        <time>2019-11-29T10:53:58.000Z</time>
      </trkpt>
      <trkpt lat="43.30692" lon="5.69126">
        <ele>833</ele>
        <time>2019-11-29T10:53:59.000Z</time>
      </trkpt>
      <trkpt lat="43.30692" lon="5.69126">
        <ele>833</ele>
        <time>2019-11-29T10:54:00.000Z</time>
      </trkpt>
      <trkpt lat="43.30692" lon="5.69126">
        <ele>833</ele>
        <time>2019-11-29T10:54:01.000Z</time>
      </trkpt>
      <trkpt lat="43.30692" lon="5.69127">
        <ele>833</ele>
        <time>2019-11-29T10:54:02.000Z</time>
      </trkpt>
      <trkpt lat="43.30692" lon="5.69127">
        <ele>834</ele>
        <time>2019-11-29T10:54:03.000Z</time>
      </trkpt>
      <trkpt lat="43.30692" lon="5.69127">
        <ele>834</ele>
        <time>2019-11-29T10:54:04.000Z</time>
      </trkpt>
      <trkpt lat="43.30692" lon="5.69127">
        <ele>834</ele>
        <time>2019-11-29T10:54:05.000Z</time>
      </trkpt>
      <trkpt lat="43.30692" lon="5.69127">
        <ele>834</ele>
        <time>2019-11-29T10:54:06.000Z</time>
      </trkpt>
      <trkpt lat="43.30692" lon="5.69127">
        <ele>834</ele>
        <time>2019-11-29T10:54:07.000Z</time>
      </trkpt>
      <trkpt lat="43.30692" lon="5.69127">
        <ele>834</ele>
        <time>2019-11-29T10:54:08.000Z</time>
      </trkpt>
      <trkpt lat="43.30692" lon="5.69126">
        <ele>834</ele>
        <time>2019-11-29T10:54:09.000Z</time>
      </trkpt>
      <trkpt lat="43.30692" lon="5.69126">
        <ele>834</ele>
        <time>2019-11-29T10:54:10.000Z</time>
      </trkpt>
      <trkpt lat="43.30692" lon="5.69126">
        <ele>834</ele>
        <time>2019-11-29T10:54:11.000Z</time>
      </trkpt>
      <trkpt lat="43.30692" lon="5.69126">
        <ele>834</ele>
        <time>2019-11-29T10:54:12.000Z</time>
      </trkpt>
      <trkpt lat="43.30692" lon="5.69127">
        <ele>834</ele>
        <time>2019-11-29T10:54:13.000Z</time>
      </trkpt>
      <trkpt lat="43.30692" lon="5.69127">
        <ele>834</ele>
        <time>2019-11-29T10:54:14.000Z</time>
      </trkpt>
      <trkpt lat="43.30692" lon="5.69127">
        <ele>834</ele>
        <time>2019-11-29T10:54:15.000Z</time>
      </trkpt>
      <trkpt lat="43.30692" lon="5.69127">
        <ele>834</ele>
        <time>2019-11-29T10:54:16.000Z</time>
      </trkpt>
      <trkpt lat="43.30692" lon="5.69127">
        <ele>834</ele>
        <time>2019-11-29T10:54:17.000Z</time>
      </trkpt>
      <trkpt lat="43.30692" lon="5.69127">
        <ele>834</ele>
        <time>2019-11-29T10:54:18.000Z</time>
      </trkpt>
      <trkpt lat="43.30692" lon="5.69127">
        <ele>834</ele>
        <time>2019-11-29T10:54:19.000Z</time>
      </trkpt>
      <trkpt lat="43.30692" lon="5.69126">
        <ele>834</ele>
        <time>2019-11-29T10:54:20.000Z</time>
      </trkpt>
      <trkpt lat="43.30692" lon="5.69126">
        <ele>834</ele>
        <time>2019-11-29T10:54:21.000Z</time>
      </trkpt>
      <trkpt lat="43.30692" lon="5.69126">
        <ele>834</ele>
        <time>2019-11-29T10:54:22.000Z</time>
      </trkpt>
      <trkpt lat="43.30692" lon="5.69126">
        <ele>834</ele>
        <time>2019-11-29T10:54:23.000Z</time>
      </trkpt>
      <trkpt lat="43.30692" lon="5.69126">
        <ele>834</ele>
        <time>2019-11-29T10:54:24.000Z</time>
      </trkpt>
      <trkpt lat="43.30692" lon="5.69126">
        <ele>834</ele>
        <time>2019-11-29T10:54:25.000Z</time>
      </trkpt>
      <trkpt lat="43.30692" lon="5.69126">
        <ele>834</ele>
        <time>2019-11-29T10:54:26.000Z</time>
      </trkpt>
      <trkpt lat="43.30692" lon="5.69126">
        <ele>834</ele>
        <time>2019-11-29T10:54:27.000Z</time>
      </trkpt>
      <trkpt lat="43.30692" lon="5.69126">
        <ele>834</ele>
        <time>2019-11-29T10:54:28.000Z</time>
      </trkpt>
      <trkpt lat="43.30692" lon="5.69126">
        <ele>834</ele>
        <time>2019-11-29T10:54:29.000Z</time>
      </trkpt>
      <trkpt lat="43.30692" lon="5.69126">
        <ele>834</ele>
        <time>2019-11-29T10:54:30.000Z</time>
      </trkpt>
      <trkpt lat="43.30692" lon="5.69126">
        <ele>834</ele>
        <time>2019-11-29T10:54:31.000Z</time>
      </trkpt>
      <trkpt lat="43.30692" lon="5.69126">
        <ele>834</ele>
        <time>2019-11-29T10:54:32.000Z</time>
      </trkpt>
      <trkpt lat="43.30692" lon="5.69126">
        <ele>834</ele>
        <time>2019-11-29T10:54:33.000Z</time>
      </trkpt>
      <trkpt lat="43.30692" lon="5.69126">
        <ele>834</ele>
        <time>2019-11-29T10:54:34.000Z</time>
      </trkpt>
      <trkpt lat="43.30692" lon="5.69126">
        <ele>834</ele>
        <time>2019-11-29T10:54:35.000Z</time>
      </trkpt>
      <trkpt lat="43.30692" lon="5.69126">
        <ele>834</ele>
        <time>2019-11-29T10:54:36.000Z</time>
      </trkpt>
      <trkpt lat="43.30692" lon="5.69126">
        <ele>834</ele>
        <time>2019-11-29T10:54:37.000Z</time>
      </trkpt>
      <trkpt lat="43.30692" lon="5.69126">
        <ele>834</ele>
        <time>2019-11-29T10:54:38.000Z</time>
      </trkpt>
      <trkpt lat="43.30692" lon="5.69126">
        <ele>834</ele>
        <time>2019-11-29T10:54:39.000Z</time>
      </trkpt>
      <trkpt lat="43.30692" lon="5.69126">
        <ele>834</ele>
        <time>2019-11-29T10:54:40.000Z</time>
      </trkpt>
      <trkpt lat="43.30692" lon="5.69126">
        <ele>834</ele>
        <time>2019-11-29T10:54:41.000Z</time>
      </trkpt>
      <trkpt lat="43.30692" lon="5.69126">
        <ele>834</ele>
        <time>2019-11-29T10:54:42.000Z</time>
      </trkpt>
      <trkpt lat="43.30692" lon="5.69126">
        <ele>834</ele>
        <time>2019-11-29T10:54:43.000Z</time>
      </trkpt>
      <trkpt lat="43.30692" lon="5.69126">
        <ele>834</ele>
        <time>2019-11-29T10:54:44.000Z</time>
      </trkpt>
      <trkpt lat="43.30692" lon="5.69126">
        <ele>834</ele>
        <time>2019-11-29T10:54:45.000Z</time>
      </trkpt>
      <trkpt lat="43.30692" lon="5.69126">
        <ele>834</ele>
        <time>2019-11-29T10:54:46.000Z</time>
      </trkpt>
      <trkpt lat="43.30692" lon="5.69126">
        <ele>834</ele>
        <time>2019-11-29T10:54:47.000Z</time>
      </trkpt>
      <trkpt lat="43.30692" lon="5.69126">
        <ele>834</ele>
        <time>2019-11-29T10:54:48.000Z</time>
      </trkpt>
      <trkpt lat="43.30692" lon="5.69126">
        <ele>834</ele>
        <time>2019-11-29T10:54:49.000Z</time>
      </trkpt>
      <trkpt lat="43.30692" lon="5.69126">
        <ele>834</ele>
        <time>2019-11-29T10:54:50.000Z</time>
      </trkpt>
      <trkpt lat="43.30692" lon="5.69126">
        <ele>834</ele>
        <time>2019-11-29T10:54:51.000Z</time>
      </trkpt>
      <trkpt lat="43.30692" lon="5.69126">
        <ele>834</ele>
        <time>2019-11-29T10:54:52.000Z</time>
      </trkpt>
      <trkpt lat="43.30692" lon="5.69126">
        <ele>834</ele>
        <time>2019-11-29T10:54:53.000Z</time>
      </trkpt>
      <trkpt lat="43.30692" lon="5.69126">
        <ele>834</ele>
        <time>2019-11-29T10:54:54.000Z</time>
      </trkpt>
      <trkpt lat="43.30692" lon="5.69127">
        <ele>834</ele>
        <time>2019-11-29T10:54:55.000Z</time>
      </trkpt>
      <trkpt lat="43.30692" lon="5.69128">
        <ele>834</ele>
        <time>2019-11-29T10:54:56.000Z</time>
      </trkpt>
      <trkpt lat="43.30692" lon="5.69128">
        <ele>834</ele>
        <time>2019-11-29T10:54:57.000Z</time>
      </trkpt>
      <trkpt lat="43.30692" lon="5.69129">
        <ele>835</ele>
        <time>2019-11-29T10:54:58.000Z</time>
      </trkpt>
      <trkpt lat="43.30692" lon="5.6913">
        <ele>835</ele>
        <time>2019-11-29T10:54:59.000Z</time>
      </trkpt>
      <trkpt lat="43.30692" lon="5.6913">
        <ele>835</ele>
        <time>2019-11-29T10:55:00.000Z</time>
      </trkpt>
      <trkpt lat="43.30692" lon="5.69131">
        <ele>835</ele>
        <time>2019-11-29T10:55:01.000Z</time>
      </trkpt>
      <trkpt lat="43.30692" lon="5.69131">
        <ele>835</ele>
        <time>2019-11-29T10:55:02.000Z</time>
      </trkpt>
      <trkpt lat="43.30692" lon="5.69132">
        <ele>835</ele>
        <time>2019-11-29T10:55:03.000Z</time>
      </trkpt>
      <trkpt lat="43.30692" lon="5.69133">
        <ele>835</ele>
        <time>2019-11-29T10:55:04.000Z</time>
      </trkpt>
      <trkpt lat="43.30692" lon="5.69133">
        <ele>835</ele>
        <time>2019-11-29T10:55:05.000Z</time>
      </trkpt>
      <trkpt lat="43.30692" lon="5.69134">
        <ele>835</ele>
        <time>2019-11-29T10:55:06.000Z</time>
      </trkpt>
      <trkpt lat="43.30692" lon="5.69134">
        <ele>835</ele>
        <time>2019-11-29T10:55:07.000Z</time>
      </trkpt>
      <trkpt lat="43.30692" lon="5.69135">
        <ele>836</ele>
        <time>2019-11-29T10:55:08.000Z</time>
      </trkpt>
      <trkpt lat="43.30693" lon="5.69135">
        <ele>836</ele>
        <time>2019-11-29T10:55:09.000Z</time>
      </trkpt>
      <trkpt lat="43.30693" lon="5.69136">
        <ele>836</ele>
        <time>2019-11-29T10:55:10.000Z</time>
      </trkpt>
      <trkpt lat="43.30693" lon="5.69137">
        <ele>836</ele>
        <time>2019-11-29T10:55:11.000Z</time>
      </trkpt>
      <trkpt lat="43.30693" lon="5.69137">
        <ele>836</ele>
        <time>2019-11-29T10:55:12.000Z</time>
      </trkpt>
      <trkpt lat="43.30693" lon="5.69138">
        <ele>837</ele>
        <time>2019-11-29T10:55:13.000Z</time>
      </trkpt>
      <trkpt lat="43.30693" lon="5.69139">
        <ele>837</ele>
        <time>2019-11-29T10:55:14.000Z</time>
      </trkpt>
      <trkpt lat="43.30693" lon="5.69139">
        <ele>837</ele>
        <time>2019-11-29T10:55:15.000Z</time>
      </trkpt>
      <trkpt lat="43.30693" lon="5.6914">
        <ele>837</ele>
        <time>2019-11-29T10:55:16.000Z</time>
      </trkpt>
      <trkpt lat="43.30693" lon="5.6914">
        <ele>837</ele>
        <time>2019-11-29T10:55:17.000Z</time>
      </trkpt>
      <trkpt lat="43.30693" lon="5.69141">
        <ele>837</ele>
        <time>2019-11-29T10:55:18.000Z</time>
      </trkpt>
      <trkpt lat="43.30693" lon="5.69142">
        <ele>837</ele>
        <time>2019-11-29T10:55:19.000Z</time>
      </trkpt>
      <trkpt lat="43.30693" lon="5.69142">
        <ele>837</ele>
        <time>2019-11-29T10:55:20.000Z</time>
      </trkpt>
      <trkpt lat="43.30694" lon="5.69143">
        <ele>838</ele>
        <time>2019-11-29T10:55:21.000Z</time>
      </trkpt>
      <trkpt lat="43.30694" lon="5.69144">
        <ele>838</ele>
        <time>2019-11-29T10:55:22.000Z</time>
      </trkpt>
      <trkpt lat="43.30694" lon="5.69144">
        <ele>838</ele>
        <time>2019-11-29T10:55:23.000Z</time>
      </trkpt>
      <trkpt lat="43.30694" lon="5.69145">
        <ele>838</ele>
        <time>2019-11-29T10:55:24.000Z</time>
      </trkpt>
      <trkpt lat="43.30694" lon="5.69146">
        <ele>838</ele>
        <time>2019-11-29T10:55:25.000Z</time>
      </trkpt>
      <trkpt lat="43.30693" lon="5.69146">
        <ele>839</ele>
        <time>2019-11-29T10:55:26.000Z</time>
      </trkpt>
      <trkpt lat="43.30693" lon="5.69147">
        <ele>839</ele>
        <time>2019-11-29T10:55:27.000Z</time>
      </trkpt>
      <trkpt lat="43.30693" lon="5.69147">
        <ele>839</ele>
        <time>2019-11-29T10:55:28.000Z</time>
      </trkpt>
      <trkpt lat="43.30693" lon="5.69148">
        <ele>839</ele>
        <time>2019-11-29T10:55:29.000Z</time>
      </trkpt>
      <trkpt lat="43.30693" lon="5.69148">
        <ele>839</ele>
        <time>2019-11-29T10:55:30.000Z</time>
      </trkpt>
      <trkpt lat="43.30694" lon="5.69149">
        <ele>839</ele>
        <time>2019-11-29T10:55:31.000Z</time>
      </trkpt>
      <trkpt lat="43.30694" lon="5.6915">
        <ele>840</ele>
        <time>2019-11-29T10:55:32.000Z</time>
      </trkpt>
      <trkpt lat="43.30694" lon="5.6915">
        <ele>840</ele>
        <time>2019-11-29T10:55:33.000Z</time>
      </trkpt>
      <trkpt lat="43.30694" lon="5.69151">
        <ele>840</ele>
        <time>2019-11-29T10:55:34.000Z</time>
      </trkpt>
      <trkpt lat="43.30694" lon="5.69151">
        <ele>840</ele>
        <time>2019-11-29T10:55:35.000Z</time>
      </trkpt>
      <trkpt lat="43.30694" lon="5.69152">
        <ele>840</ele>
        <time>2019-11-29T10:55:36.000Z</time>
      </trkpt>
      <trkpt lat="43.30694" lon="5.69153">
        <ele>840</ele>
        <time>2019-11-29T10:55:37.000Z</time>
      </trkpt>
      <trkpt lat="43.30694" lon="5.69153">
        <ele>840</ele>
        <time>2019-11-29T10:55:38.000Z</time>
      </trkpt>
      <trkpt lat="43.30694" lon="5.69154">
        <ele>840</ele>
        <time>2019-11-29T10:55:39.000Z</time>
      </trkpt>
      <trkpt lat="43.30694" lon="5.69154">
        <ele>840</ele>
        <time>2019-11-29T10:55:40.000Z</time>
      </trkpt>
      <trkpt lat="43.30694" lon="5.69155">
        <ele>841</ele>
        <time>2019-11-29T10:55:41.000Z</time>
      </trkpt>
      <trkpt lat="43.30694" lon="5.69155">
        <ele>841</ele>
        <time>2019-11-29T10:55:42.000Z</time>
      </trkpt>
      <trkpt lat="43.30694" lon="5.69156">
        <ele>841</ele>
        <time>2019-11-29T10:55:43.000Z</time>
      </trkpt>
      <trkpt lat="43.30695" lon="5.69157">
        <ele>841</ele>
        <time>2019-11-29T10:55:44.000Z</time>
      </trkpt>
      <trkpt lat="43.30695" lon="5.69157">
        <ele>841</ele>
        <time>2019-11-29T10:55:45.000Z</time>
      </trkpt>
      <trkpt lat="43.30695" lon="5.69158">
        <ele>841</ele>
        <time>2019-11-29T10:55:46.000Z</time>
      </trkpt>
      <trkpt lat="43.30695" lon="5.69159">
        <ele>841</ele>
        <time>2019-11-29T10:55:47.000Z</time>
      </trkpt>
      <trkpt lat="43.30695" lon="5.69159">
        <ele>841</ele>
        <time>2019-11-29T10:55:48.000Z</time>
      </trkpt>
      <trkpt lat="43.30696" lon="5.6916">
        <ele>841</ele>
        <time>2019-11-29T10:55:49.000Z</time>
      </trkpt>
      <trkpt lat="43.30696" lon="5.6916">
        <ele>842</ele>
        <time>2019-11-29T10:55:50.000Z</time>
      </trkpt>
      <trkpt lat="43.30696" lon="5.69161">
        <ele>842</ele>
        <time>2019-11-29T10:55:51.000Z</time>
      </trkpt>
      <trkpt lat="43.30696" lon="5.69161">
        <ele>842</ele>
        <time>2019-11-29T10:55:52.000Z</time>
      </trkpt>
      <trkpt lat="43.30696" lon="5.69162">
        <ele>842</ele>
        <time>2019-11-29T10:55:53.000Z</time>
      </trkpt>
      <trkpt lat="43.30696" lon="5.69162">
        <ele>842</ele>
        <time>2019-11-29T10:55:54.000Z</time>
      </trkpt>
      <trkpt lat="43.30696" lon="5.69163">
        <ele>842</ele>
        <time>2019-11-29T10:55:55.000Z</time>
      </trkpt>
      <trkpt lat="43.30696" lon="5.69164">
        <ele>842</ele>
        <time>2019-11-29T10:55:56.000Z</time>
      </trkpt>
      <trkpt lat="43.30696" lon="5.69164">
        <ele>843</ele>
        <time>2019-11-29T10:55:57.000Z</time>
      </trkpt>
      <trkpt lat="43.30696" lon="5.69165">
        <ele>843</ele>
        <time>2019-11-29T10:55:58.000Z</time>
      </trkpt>
      <trkpt lat="43.30696" lon="5.69165">
        <ele>843</ele>
        <time>2019-11-29T10:55:59.000Z</time>
      </trkpt>
      <trkpt lat="43.30696" lon="5.69166">
        <ele>843</ele>
        <time>2019-11-29T10:56:00.000Z</time>
      </trkpt>
      <trkpt lat="43.30696" lon="5.69166">
        <ele>843</ele>
        <time>2019-11-29T10:56:01.000Z</time>
      </trkpt>
      <trkpt lat="43.30696" lon="5.69167">
        <ele>844</ele>
        <time>2019-11-29T10:56:02.000Z</time>
      </trkpt>
      <trkpt lat="43.30696" lon="5.69168">
        <ele>844</ele>
        <time>2019-11-29T10:56:03.000Z</time>
      </trkpt>
      <trkpt lat="43.30696" lon="5.69168">
        <ele>844</ele>
        <time>2019-11-29T10:56:04.000Z</time>
      </trkpt>
      <trkpt lat="43.30696" lon="5.69169">
        <ele>844</ele>
        <time>2019-11-29T10:56:05.000Z</time>
      </trkpt>
      <trkpt lat="43.30696" lon="5.69169">
        <ele>844</ele>
        <time>2019-11-29T10:56:06.000Z</time>
      </trkpt>
      <trkpt lat="43.30696" lon="5.69169">
        <ele>845</ele>
        <time>2019-11-29T10:56:07.000Z</time>
      </trkpt>
      <trkpt lat="43.30696" lon="5.6917">
        <ele>845</ele>
        <time>2019-11-29T10:56:08.000Z</time>
      </trkpt>
      <trkpt lat="43.30696" lon="5.6917">
        <ele>845</ele>
        <time>2019-11-29T10:56:09.000Z</time>
      </trkpt>
      <trkpt lat="43.30696" lon="5.69171">
        <ele>845</ele>
        <time>2019-11-29T10:56:10.000Z</time>
      </trkpt>
      <trkpt lat="43.30696" lon="5.69171">
        <ele>845</ele>
        <time>2019-11-29T10:56:11.000Z</time>
      </trkpt>
      <trkpt lat="43.30696" lon="5.69171">
        <ele>845</ele>
        <time>2019-11-29T10:56:12.000Z</time>
      </trkpt>
      <trkpt lat="43.30696" lon="5.69171">
        <ele>845</ele>
        <time>2019-11-29T10:56:13.000Z</time>
      </trkpt>
      <trkpt lat="43.30696" lon="5.69171">
        <ele>845</ele>
        <time>2019-11-29T10:56:14.000Z</time>
      </trkpt>
      <trkpt lat="43.30696" lon="5.69171">
        <ele>846</ele>
        <time>2019-11-29T10:56:15.000Z</time>
      </trkpt>
      <trkpt lat="43.30696" lon="5.69172">
        <ele>846</ele>
        <time>2019-11-29T10:56:16.000Z</time>
      </trkpt>
      <trkpt lat="43.30696" lon="5.69172">
        <ele>846</ele>
        <time>2019-11-29T10:56:17.000Z</time>
      </trkpt>
      <trkpt lat="43.30696" lon="5.69172">
        <ele>846</ele>
        <time>2019-11-29T10:56:18.000Z</time>
      </trkpt>
      <trkpt lat="43.30696" lon="5.69172">
        <ele>846</ele>
        <time>2019-11-29T10:56:19.000Z</time>
      </trkpt>
      <trkpt lat="43.30696" lon="5.69172">
        <ele>846</ele>
        <time>2019-11-29T10:56:20.000Z</time>
      </trkpt>
      <trkpt lat="43.30696" lon="5.69171">
        <ele>846</ele>
        <time>2019-11-29T10:56:21.000Z</time>
      </trkpt>
      <trkpt lat="43.30696" lon="5.69172">
        <ele>846</ele>
        <time>2019-11-29T10:56:22.000Z</time>
      </trkpt>
      <trkpt lat="43.30697" lon="5.69173">
        <ele>846</ele>
        <time>2019-11-29T10:56:23.000Z</time>
      </trkpt>
      <trkpt lat="43.30697" lon="5.69173">
        <ele>847</ele>
        <time>2019-11-29T10:56:24.000Z</time>
      </trkpt>
      <trkpt lat="43.30697" lon="5.69174">
        <ele>847</ele>
        <time>2019-11-29T10:56:25.000Z</time>
      </trkpt>
      <trkpt lat="43.30697" lon="5.69174">
        <ele>847</ele>
        <time>2019-11-29T10:56:26.000Z</time>
      </trkpt>
      <trkpt lat="43.30697" lon="5.69175">
        <ele>847</ele>
        <time>2019-11-29T10:56:27.000Z</time>
      </trkpt>
      <trkpt lat="43.30697" lon="5.69175">
        <ele>847</ele>
        <time>2019-11-29T10:56:28.000Z</time>
      </trkpt>
      <trkpt lat="43.30697" lon="5.69176">
        <ele>847</ele>
        <time>2019-11-29T10:56:29.000Z</time>
      </trkpt>
      <trkpt lat="43.30697" lon="5.69176">
        <ele>847</ele>
        <time>2019-11-29T10:56:30.000Z</time>
      </trkpt>
      <trkpt lat="43.30698" lon="5.69177">
        <ele>848</ele>
        <time>2019-11-29T10:56:31.000Z</time>
      </trkpt>
      <trkpt lat="43.30698" lon="5.69177">
        <ele>848</ele>
        <time>2019-11-29T10:56:32.000Z</time>
      </trkpt>
      <trkpt lat="43.30698" lon="5.69177">
        <ele>848</ele>
        <time>2019-11-29T10:56:33.000Z</time>
      </trkpt>
      <trkpt lat="43.30698" lon="5.69178">
        <ele>848</ele>
        <time>2019-11-29T10:56:34.000Z</time>
      </trkpt>
      <trkpt lat="43.30698" lon="5.69178">
        <ele>848</ele>
        <time>2019-11-29T10:56:35.000Z</time>
      </trkpt>
      <trkpt lat="43.30699" lon="5.69179">
        <ele>848</ele>
        <time>2019-11-29T10:56:36.000Z</time>
      </trkpt>
      <trkpt lat="43.30699" lon="5.69179">
        <ele>848</ele>
        <time>2019-11-29T10:56:37.000Z</time>
      </trkpt>
      <trkpt lat="43.30699" lon="5.6918">
        <ele>848</ele>
        <time>2019-11-29T10:56:38.000Z</time>
      </trkpt>
      <trkpt lat="43.30699" lon="5.6918">
        <ele>849</ele>
        <time>2019-11-29T10:56:39.000Z</time>
      </trkpt>
      <trkpt lat="43.30699" lon="5.69181">
        <ele>849</ele>
        <time>2019-11-29T10:56:40.000Z</time>
      </trkpt>
      <trkpt lat="43.30699" lon="5.69181">
        <ele>849</ele>
        <time>2019-11-29T10:56:41.000Z</time>
      </trkpt>
      <trkpt lat="43.307" lon="5.69181">
        <ele>849</ele>
        <time>2019-11-29T10:56:42.000Z</time>
      </trkpt>
      <trkpt lat="43.307" lon="5.69182">
        <ele>849</ele>
        <time>2019-11-29T10:56:43.000Z</time>
      </trkpt>
      <trkpt lat="43.307" lon="5.69182">
        <ele>849</ele>
        <time>2019-11-29T10:56:44.000Z</time>
      </trkpt>
      <trkpt lat="43.307" lon="5.69183">
        <ele>849</ele>
        <time>2019-11-29T10:56:45.000Z</time>
      </trkpt>
      <trkpt lat="43.30701" lon="5.69184">
        <ele>849</ele>
        <time>2019-11-29T10:56:46.000Z</time>
      </trkpt>
      <trkpt lat="43.30701" lon="5.69184">
        <ele>849</ele>
        <time>2019-11-29T10:56:47.000Z</time>
      </trkpt>
      <trkpt lat="43.30701" lon="5.69185">
        <ele>849</ele>
        <time>2019-11-29T10:56:48.000Z</time>
      </trkpt>
      <trkpt lat="43.30701" lon="5.69185">
        <ele>849</ele>
        <time>2019-11-29T10:56:49.000Z</time>
      </trkpt>
      <trkpt lat="43.30702" lon="5.69185">
        <ele>849</ele>
        <time>2019-11-29T10:56:50.000Z</time>
      </trkpt>
      <trkpt lat="43.30702" lon="5.69185">
        <ele>850</ele>
        <time>2019-11-29T10:56:51.000Z</time>
      </trkpt>
      <trkpt lat="43.30702" lon="5.69185">
        <ele>850</ele>
        <time>2019-11-29T10:56:52.000Z</time>
      </trkpt>
      <trkpt lat="43.30702" lon="5.69186">
        <ele>850</ele>
        <time>2019-11-29T10:56:53.000Z</time>
      </trkpt>
      <trkpt lat="43.30703" lon="5.69186">
        <ele>850</ele>
        <time>2019-11-29T10:56:54.000Z</time>
      </trkpt>
      <trkpt lat="43.30703" lon="5.69186">
        <ele>850</ele>
        <time>2019-11-29T10:56:55.000Z</time>
      </trkpt>
      <trkpt lat="43.30703" lon="5.69187">
        <ele>850</ele>
        <time>2019-11-29T10:56:56.000Z</time>
      </trkpt>
      <trkpt lat="43.30703" lon="5.69187">
        <ele>851</ele>
        <time>2019-11-29T10:56:57.000Z</time>
      </trkpt>
      <trkpt lat="43.30704" lon="5.69187">
        <ele>851</ele>
        <time>2019-11-29T10:56:58.000Z</time>
      </trkpt>
      <trkpt lat="43.30704" lon="5.69188">
        <ele>851</ele>
        <time>2019-11-29T10:56:59.000Z</time>
      </trkpt>
      <trkpt lat="43.30705" lon="5.69188">
        <ele>851</ele>
        <time>2019-11-29T10:57:00.000Z</time>
      </trkpt>
      <trkpt lat="43.30705" lon="5.69189">
        <ele>851</ele>
        <time>2019-11-29T10:57:01.000Z</time>
      </trkpt>
      <trkpt lat="43.30705" lon="5.6919">
        <ele>851</ele>
        <time>2019-11-29T10:57:02.000Z</time>
      </trkpt>
      <trkpt lat="43.30705" lon="5.6919">
        <ele>852</ele>
        <time>2019-11-29T10:57:03.000Z</time>
      </trkpt>
      <trkpt lat="43.30705" lon="5.69191">
        <ele>852</ele>
        <time>2019-11-29T10:57:04.000Z</time>
      </trkpt>
      <trkpt lat="43.30705" lon="5.69192">
        <ele>852</ele>
        <time>2019-11-29T10:57:05.000Z</time>
      </trkpt>
      <trkpt lat="43.30705" lon="5.69192">
        <ele>852</ele>
        <time>2019-11-29T10:57:06.000Z</time>
      </trkpt>
      <trkpt lat="43.30705" lon="5.69192">
        <ele>852</ele>
        <time>2019-11-29T10:57:07.000Z</time>
      </trkpt>
      <trkpt lat="43.30705" lon="5.69192">
        <ele>852</ele>
        <time>2019-11-29T10:57:08.000Z</time>
      </trkpt>
      <trkpt lat="43.30705" lon="5.69193">
        <ele>852</ele>
        <time>2019-11-29T10:57:09.000Z</time>
      </trkpt>
      <trkpt lat="43.30705" lon="5.69193">
        <ele>852</ele>
        <time>2019-11-29T10:57:10.000Z</time>
      </trkpt>
      <trkpt lat="43.30705" lon="5.69193">
        <ele>852</ele>
        <time>2019-11-29T10:57:11.000Z</time>
      </trkpt>
      <trkpt lat="43.30705" lon="5.69193">
        <ele>852</ele>
        <time>2019-11-29T10:57:12.000Z</time>
      </trkpt>
      <trkpt lat="43.30705" lon="5.69193">
        <ele>852</ele>
        <time>2019-11-29T10:57:13.000Z</time>
      </trkpt>
      <trkpt lat="43.30705" lon="5.69193">
        <ele>852</ele>
        <time>2019-11-29T10:57:14.000Z</time>
      </trkpt>
      <trkpt lat="43.30705" lon="5.69193">
        <ele>852</ele>
        <time>2019-11-29T10:57:15.000Z</time>
      </trkpt>
      <trkpt lat="43.30705" lon="5.69193">
        <ele>852</ele>
        <time>2019-11-29T10:57:16.000Z</time>
      </trkpt>
      <trkpt lat="43.30705" lon="5.69193">
        <ele>852</ele>
        <time>2019-11-29T10:57:17.000Z</time>
      </trkpt>
      <trkpt lat="43.30705" lon="5.69193">
        <ele>852</ele>
        <time>2019-11-29T10:57:18.000Z</time>
      </trkpt>
      <trkpt lat="43.30705" lon="5.69193">
        <ele>852</ele>
        <time>2019-11-29T10:57:19.000Z</time>
      </trkpt>
      <trkpt lat="43.30705" lon="5.69193">
        <ele>852</ele>
        <time>2019-11-29T10:57:20.000Z</time>
      </trkpt>
      <trkpt lat="43.30705" lon="5.69193">
        <ele>852</ele>
        <time>2019-11-29T10:57:21.000Z</time>
      </trkpt>
      <trkpt lat="43.30705" lon="5.69193">
        <ele>852</ele>
        <time>2019-11-29T10:57:22.000Z</time>
      </trkpt>
      <trkpt lat="43.30705" lon="5.69193">
        <ele>852</ele>
        <time>2019-11-29T10:57:23.000Z</time>
      </trkpt>
      <trkpt lat="43.30705" lon="5.69193">
        <ele>852</ele>
        <time>2019-11-29T10:57:24.000Z</time>
      </trkpt>
      <trkpt lat="43.30705" lon="5.69193">
        <ele>852</ele>
        <time>2019-11-29T10:57:25.000Z</time>
      </trkpt>
      <trkpt lat="43.30705" lon="5.69193">
        <ele>852</ele>
        <time>2019-11-29T10:57:26.000Z</time>
      </trkpt>
      <trkpt lat="43.30705" lon="5.69193">
        <ele>852</ele>
        <time>2019-11-29T10:57:27.000Z</time>
      </trkpt>
      <trkpt lat="43.30705" lon="5.69193">
        <ele>852</ele>
        <time>2019-11-29T10:57:28.000Z</time>
      </trkpt>
      <trkpt lat="43.30705" lon="5.69193">
        <ele>852</ele>
        <time>2019-11-29T10:57:29.000Z</time>
      </trkpt>
      <trkpt lat="43.30705" lon="5.69193">
        <ele>852</ele>
        <time>2019-11-29T10:57:30.000Z</time>
      </trkpt>
      <trkpt lat="43.30705" lon="5.69193">
        <ele>852</ele>
        <time>2019-11-29T10:57:31.000Z</time>
      </trkpt>
      <trkpt lat="43.30705" lon="5.69193">
        <ele>852</ele>
        <time>2019-11-29T10:57:32.000Z</time>
      </trkpt>
      <trkpt lat="43.30705" lon="5.69193">
        <ele>853</ele>
        <time>2019-11-29T10:57:33.000Z</time>
      </trkpt>
      <trkpt lat="43.30705" lon="5.69193">
        <ele>853</ele>
        <time>2019-11-29T10:57:34.000Z</time>
      </trkpt>
      <trkpt lat="43.30705" lon="5.69193">
        <ele>853</ele>
        <time>2019-11-29T10:57:35.000Z</time>
      </trkpt>
      <trkpt lat="43.30705" lon="5.69193">
        <ele>853</ele>
        <time>2019-11-29T10:57:36.000Z</time>
      </trkpt>
      <trkpt lat="43.30705" lon="5.69194">
        <ele>853</ele>
        <time>2019-11-29T10:57:37.000Z</time>
      </trkpt>
      <trkpt lat="43.30705" lon="5.69194">
        <ele>853</ele>
        <time>2019-11-29T10:57:38.000Z</time>
      </trkpt>
      <trkpt lat="43.30705" lon="5.69194">
        <ele>853</ele>
        <time>2019-11-29T10:57:39.000Z</time>
      </trkpt>
      <trkpt lat="43.30704" lon="5.69194">
        <ele>853</ele>
        <time>2019-11-29T10:57:40.000Z</time>
      </trkpt>
      <trkpt lat="43.30704" lon="5.69195">
        <ele>853</ele>
        <time>2019-11-29T10:57:41.000Z</time>
      </trkpt>
      <trkpt lat="43.30704" lon="5.69195">
        <ele>853</ele>
        <time>2019-11-29T10:57:42.000Z</time>
      </trkpt>
      <trkpt lat="43.30704" lon="5.69196">
        <ele>853</ele>
        <time>2019-11-29T10:57:43.000Z</time>
      </trkpt>
      <trkpt lat="43.30704" lon="5.69196">
        <ele>853</ele>
        <time>2019-11-29T10:57:44.000Z</time>
      </trkpt>
      <trkpt lat="43.30704" lon="5.69197">
        <ele>853</ele>
        <time>2019-11-29T10:57:45.000Z</time>
      </trkpt>
      <trkpt lat="43.30704" lon="5.69198">
        <ele>853</ele>
        <time>2019-11-29T10:57:46.000Z</time>
      </trkpt>
      <trkpt lat="43.30704" lon="5.69198">
        <ele>854</ele>
        <time>2019-11-29T10:57:47.000Z</time>
      </trkpt>
      <trkpt lat="43.30703" lon="5.69199">
        <ele>854</ele>
        <time>2019-11-29T10:57:48.000Z</time>
      </trkpt>
      <trkpt lat="43.30703" lon="5.69199">
        <ele>854</ele>
        <time>2019-11-29T10:57:49.000Z</time>
      </trkpt>
      <trkpt lat="43.30703" lon="5.69199">
        <ele>854</ele>
        <time>2019-11-29T10:57:50.000Z</time>
      </trkpt>
      <trkpt lat="43.30703" lon="5.692">
        <ele>854</ele>
        <time>2019-11-29T10:57:51.000Z</time>
      </trkpt>
      <trkpt lat="43.30703" lon="5.69201">
        <ele>854</ele>
        <time>2019-11-29T10:57:52.000Z</time>
      </trkpt>
      <trkpt lat="43.30704" lon="5.69201">
        <ele>854</ele>
        <time>2019-11-29T10:57:53.000Z</time>
      </trkpt>
      <trkpt lat="43.30704" lon="5.69202">
        <ele>854</ele>
        <time>2019-11-29T10:57:54.000Z</time>
      </trkpt>
      <trkpt lat="43.30704" lon="5.69202">
        <ele>855</ele>
        <time>2019-11-29T10:57:55.000Z</time>
      </trkpt>
      <trkpt lat="43.30704" lon="5.69202">
        <ele>855</ele>
        <time>2019-11-29T10:57:56.000Z</time>
      </trkpt>
      <trkpt lat="43.30704" lon="5.69203">
        <ele>855</ele>
        <time>2019-11-29T10:57:57.000Z</time>
      </trkpt>
      <trkpt lat="43.30704" lon="5.69203">
        <ele>855</ele>
        <time>2019-11-29T10:57:58.000Z</time>
      </trkpt>
      <trkpt lat="43.30705" lon="5.69203">
        <ele>855</ele>
        <time>2019-11-29T10:57:59.000Z</time>
      </trkpt>
      <trkpt lat="43.30705" lon="5.69203">
        <ele>855</ele>
        <time>2019-11-29T10:58:00.000Z</time>
      </trkpt>
      <trkpt lat="43.30705" lon="5.69204">
        <ele>855</ele>
        <time>2019-11-29T10:58:01.000Z</time>
      </trkpt>
      <trkpt lat="43.30705" lon="5.69204">
        <ele>855</ele>
        <time>2019-11-29T10:58:02.000Z</time>
      </trkpt>
      <trkpt lat="43.30705" lon="5.69204">
        <ele>855</ele>
        <time>2019-11-29T10:58:03.000Z</time>
      </trkpt>
      <trkpt lat="43.30705" lon="5.69205">
        <ele>855</ele>
        <time>2019-11-29T10:58:04.000Z</time>
      </trkpt>
      <trkpt lat="43.30705" lon="5.69205">
        <ele>855</ele>
        <time>2019-11-29T10:58:05.000Z</time>
      </trkpt>
      <trkpt lat="43.30706" lon="5.69205">
        <ele>855</ele>
        <time>2019-11-29T10:58:06.000Z</time>
      </trkpt>
      <trkpt lat="43.30706" lon="5.69206">
        <ele>856</ele>
        <time>2019-11-29T10:58:07.000Z</time>
      </trkpt>
      <trkpt lat="43.30706" lon="5.69206">
        <ele>856</ele>
        <time>2019-11-29T10:58:08.000Z</time>
      </trkpt>
      <trkpt lat="43.30706" lon="5.69207">
        <ele>856</ele>
        <time>2019-11-29T10:58:09.000Z</time>
      </trkpt>
      <trkpt lat="43.30707" lon="5.69207">
        <ele>856</ele>
        <time>2019-11-29T10:58:10.000Z</time>
      </trkpt>
      <trkpt lat="43.30707" lon="5.69208">
        <ele>856</ele>
        <time>2019-11-29T10:58:11.000Z</time>
      </trkpt>
      <trkpt lat="43.30707" lon="5.69209">
        <ele>857</ele>
        <time>2019-11-29T10:58:12.000Z</time>
      </trkpt>
      <trkpt lat="43.30707" lon="5.69209">
        <ele>857</ele>
        <time>2019-11-29T10:58:13.000Z</time>
      </trkpt>
      <trkpt lat="43.30708" lon="5.6921">
        <ele>857</ele>
        <time>2019-11-29T10:58:14.000Z</time>
      </trkpt>
      <trkpt lat="43.30708" lon="5.69211">
        <ele>857</ele>
        <time>2019-11-29T10:58:15.000Z</time>
      </trkpt>
      <trkpt lat="43.30708" lon="5.69212">
        <ele>858</ele>
        <time>2019-11-29T10:58:16.000Z</time>
      </trkpt>
      <trkpt lat="43.30709" lon="5.69212">
        <ele>858</ele>
        <time>2019-11-29T10:58:17.000Z</time>
      </trkpt>
      <trkpt lat="43.30709" lon="5.69212">
        <ele>858</ele>
        <time>2019-11-29T10:58:18.000Z</time>
      </trkpt>
      <trkpt lat="43.30709" lon="5.69213">
        <ele>858</ele>
        <time>2019-11-29T10:58:19.000Z</time>
      </trkpt>
      <trkpt lat="43.30709" lon="5.69213">
        <ele>858</ele>
        <time>2019-11-29T10:58:20.000Z</time>
      </trkpt>
      <trkpt lat="43.30709" lon="5.69214">
        <ele>859</ele>
        <time>2019-11-29T10:58:21.000Z</time>
      </trkpt>
      <trkpt lat="43.3071" lon="5.69215">
        <ele>859</ele>
        <time>2019-11-29T10:58:22.000Z</time>
      </trkpt>
      <trkpt lat="43.3071" lon="5.69215">
        <ele>859</ele>
        <time>2019-11-29T10:58:23.000Z</time>
      </trkpt>
      <trkpt lat="43.3071" lon="5.69215">
        <ele>859</ele>
        <time>2019-11-29T10:58:24.000Z</time>
      </trkpt>
      <trkpt lat="43.3071" lon="5.69216">
        <ele>859</ele>
        <time>2019-11-29T10:58:25.000Z</time>
      </trkpt>
      <trkpt lat="43.3071" lon="5.69217">
        <ele>860</ele>
        <time>2019-11-29T10:58:26.000Z</time>
      </trkpt>
      <trkpt lat="43.3071" lon="5.69217">
        <ele>860</ele>
        <time>2019-11-29T10:58:27.000Z</time>
      </trkpt>
      <trkpt lat="43.3071" lon="5.69218">
        <ele>860</ele>
        <time>2019-11-29T10:58:28.000Z</time>
      </trkpt>
      <trkpt lat="43.3071" lon="5.69219">
        <ele>860</ele>
        <time>2019-11-29T10:58:29.000Z</time>
      </trkpt>
      <trkpt lat="43.30711" lon="5.69219">
        <ele>860</ele>
        <time>2019-11-29T10:58:30.000Z</time>
      </trkpt>
      <trkpt lat="43.30711" lon="5.69219">
        <ele>860</ele>
        <time>2019-11-29T10:58:31.000Z</time>
      </trkpt>
      <trkpt lat="43.30711" lon="5.6922">
        <ele>861</ele>
        <time>2019-11-29T10:58:32.000Z</time>
      </trkpt>
      <trkpt lat="43.30711" lon="5.6922">
        <ele>861</ele>
        <time>2019-11-29T10:58:33.000Z</time>
      </trkpt>
      <trkpt lat="43.30711" lon="5.69221">
        <ele>861</ele>
        <time>2019-11-29T10:58:34.000Z</time>
      </trkpt>
      <trkpt lat="43.30711" lon="5.69222">
        <ele>861</ele>
        <time>2019-11-29T10:58:35.000Z</time>
      </trkpt>
      <trkpt lat="43.30711" lon="5.69222">
        <ele>861</ele>
        <time>2019-11-29T10:58:36.000Z</time>
      </trkpt>
      <trkpt lat="43.30711" lon="5.69223">
        <ele>862</ele>
        <time>2019-11-29T10:58:37.000Z</time>
      </trkpt>
      <trkpt lat="43.30711" lon="5.69224">
        <ele>862</ele>
        <time>2019-11-29T10:58:38.000Z</time>
      </trkpt>
      <trkpt lat="43.30712" lon="5.69224">
        <ele>862</ele>
        <time>2019-11-29T10:58:39.000Z</time>
      </trkpt>
      <trkpt lat="43.30712" lon="5.69225">
        <ele>862</ele>
        <time>2019-11-29T10:58:40.000Z</time>
      </trkpt>
      <trkpt lat="43.30712" lon="5.69225">
        <ele>862</ele>
        <time>2019-11-29T10:58:41.000Z</time>
      </trkpt>
      <trkpt lat="43.30712" lon="5.69226">
        <ele>862</ele>
        <time>2019-11-29T10:58:42.000Z</time>
      </trkpt>
      <trkpt lat="43.30712" lon="5.69226">
        <ele>863</ele>
        <time>2019-11-29T10:58:43.000Z</time>
      </trkpt>
      <trkpt lat="43.30713" lon="5.69227">
        <ele>863</ele>
        <time>2019-11-29T10:58:44.000Z</time>
      </trkpt>
      <trkpt lat="43.30713" lon="5.69227">
        <ele>863</ele>
        <time>2019-11-29T10:58:45.000Z</time>
      </trkpt>
      <trkpt lat="43.30713" lon="5.69228">
        <ele>863</ele>
        <time>2019-11-29T10:58:46.000Z</time>
      </trkpt>
      <trkpt lat="43.30713" lon="5.69228">
        <ele>863</ele>
        <time>2019-11-29T10:58:47.000Z</time>
      </trkpt>
      <trkpt lat="43.30713" lon="5.69229">
        <ele>863</ele>
        <time>2019-11-29T10:58:48.000Z</time>
      </trkpt>
      <trkpt lat="43.30713" lon="5.69229">
        <ele>863</ele>
        <time>2019-11-29T10:58:49.000Z</time>
      </trkpt>
      <trkpt lat="43.30713" lon="5.6923">
        <ele>863</ele>
        <time>2019-11-29T10:58:50.000Z</time>
      </trkpt>
      <trkpt lat="43.30713" lon="5.69231">
        <ele>864</ele>
        <time>2019-11-29T10:58:51.000Z</time>
      </trkpt>
      <trkpt lat="43.30714" lon="5.69231">
        <ele>864</ele>
        <time>2019-11-29T10:58:52.000Z</time>
      </trkpt>
      <trkpt lat="43.30714" lon="5.69232">
        <ele>864</ele>
        <time>2019-11-29T10:58:53.000Z</time>
      </trkpt>
      <trkpt lat="43.30714" lon="5.69232">
        <ele>864</ele>
        <time>2019-11-29T10:58:54.000Z</time>
      </trkpt>
      <trkpt lat="43.30714" lon="5.69233">
        <ele>864</ele>
        <time>2019-11-29T10:58:55.000Z</time>
      </trkpt>
      <trkpt lat="43.30714" lon="5.69234">
        <ele>864</ele>
        <time>2019-11-29T10:58:56.000Z</time>
      </trkpt>
      <trkpt lat="43.30714" lon="5.69234">
        <ele>865</ele>
        <time>2019-11-29T10:58:57.000Z</time>
      </trkpt>
      <trkpt lat="43.30715" lon="5.69235">
        <ele>865</ele>
        <time>2019-11-29T10:58:58.000Z</time>
      </trkpt>
      <trkpt lat="43.30715" lon="5.69235">
        <ele>865</ele>
        <time>2019-11-29T10:58:59.000Z</time>
      </trkpt>
      <trkpt lat="43.30715" lon="5.69236">
        <ele>865</ele>
        <time>2019-11-29T10:59:00.000Z</time>
      </trkpt>
      <trkpt lat="43.30716" lon="5.69236">
        <ele>865</ele>
        <time>2019-11-29T10:59:01.000Z</time>
      </trkpt>
      <trkpt lat="43.30716" lon="5.69237">
        <ele>865</ele>
        <time>2019-11-29T10:59:02.000Z</time>
      </trkpt>
      <trkpt lat="43.30716" lon="5.69237">
        <ele>866</ele>
        <time>2019-11-29T10:59:03.000Z</time>
      </trkpt>
      <trkpt lat="43.30716" lon="5.69237">
        <ele>866</ele>
        <time>2019-11-29T10:59:04.000Z</time>
      </trkpt>
      <trkpt lat="43.30716" lon="5.69237">
        <ele>866</ele>
        <time>2019-11-29T10:59:05.000Z</time>
      </trkpt>
      <trkpt lat="43.30716" lon="5.69237">
        <ele>866</ele>
        <time>2019-11-29T10:59:06.000Z</time>
      </trkpt>
      <trkpt lat="43.30716" lon="5.69237">
        <ele>866</ele>
        <time>2019-11-29T10:59:07.000Z</time>
      </trkpt>
      <trkpt lat="43.30716" lon="5.69238">
        <ele>866</ele>
        <time>2019-11-29T10:59:08.000Z</time>
      </trkpt>
      <trkpt lat="43.30716" lon="5.69238">
        <ele>866</ele>
        <time>2019-11-29T10:59:09.000Z</time>
      </trkpt>
      <trkpt lat="43.30716" lon="5.69238">
        <ele>866</ele>
        <time>2019-11-29T10:59:10.000Z</time>
      </trkpt>
      <trkpt lat="43.30717" lon="5.69238">
        <ele>866</ele>
        <time>2019-11-29T10:59:11.000Z</time>
      </trkpt>
      <trkpt lat="43.30717" lon="5.69238">
        <ele>866</ele>
        <time>2019-11-29T10:59:12.000Z</time>
      </trkpt>
      <trkpt lat="43.30717" lon="5.69238">
        <ele>866</ele>
        <time>2019-11-29T10:59:13.000Z</time>
      </trkpt>
      <trkpt lat="43.30717" lon="5.69238">
        <ele>866</ele>
        <time>2019-11-29T10:59:14.000Z</time>
      </trkpt>
      <trkpt lat="43.30717" lon="5.69238">
        <ele>866</ele>
        <time>2019-11-29T10:59:15.000Z</time>
      </trkpt>
      <trkpt lat="43.30717" lon="5.69238">
        <ele>866</ele>
        <time>2019-11-29T10:59:16.000Z</time>
      </trkpt>
      <trkpt lat="43.30717" lon="5.69238">
        <ele>866</ele>
        <time>2019-11-29T10:59:17.000Z</time>
      </trkpt>
      <trkpt lat="43.30717" lon="5.69238">
        <ele>866</ele>
        <time>2019-11-29T10:59:18.000Z</time>
      </trkpt>
      <trkpt lat="43.30717" lon="5.69238">
        <ele>866</ele>
        <time>2019-11-29T10:59:19.000Z</time>
      </trkpt>
      <trkpt lat="43.30717" lon="5.69238">
        <ele>866</ele>
        <time>2019-11-29T10:59:20.000Z</time>
      </trkpt>
      <trkpt lat="43.30717" lon="5.69238">
        <ele>866</ele>
        <time>2019-11-29T10:59:21.000Z</time>
      </trkpt>
      <trkpt lat="43.30717" lon="5.69238">
        <ele>866</ele>
        <time>2019-11-29T10:59:22.000Z</time>
      </trkpt>
      <trkpt lat="43.30717" lon="5.69238">
        <ele>866</ele>
        <time>2019-11-29T10:59:23.000Z</time>
      </trkpt>
      <trkpt lat="43.30717" lon="5.69238">
        <ele>866</ele>
        <time>2019-11-29T10:59:24.000Z</time>
      </trkpt>
      <trkpt lat="43.30717" lon="5.69238">
        <ele>866</ele>
        <time>2019-11-29T10:59:25.000Z</time>
      </trkpt>
      <trkpt lat="43.30717" lon="5.69238">
        <ele>866</ele>
        <time>2019-11-29T10:59:26.000Z</time>
      </trkpt>
      <trkpt lat="43.30717" lon="5.69238">
        <ele>866</ele>
        <time>2019-11-29T10:59:27.000Z</time>
      </trkpt>
      <trkpt lat="43.30717" lon="5.69238">
        <ele>866</ele>
        <time>2019-11-29T10:59:28.000Z</time>
      </trkpt>
      <trkpt lat="43.30717" lon="5.69238">
        <ele>866</ele>
        <time>2019-11-29T10:59:29.000Z</time>
      </trkpt>
      <trkpt lat="43.30717" lon="5.69238">
        <ele>866</ele>
        <time>2019-11-29T10:59:30.000Z</time>
      </trkpt>
      <trkpt lat="43.30717" lon="5.69238">
        <ele>866</ele>
        <time>2019-11-29T10:59:31.000Z</time>
      </trkpt>
      <trkpt lat="43.30717" lon="5.69238">
        <ele>866</ele>
        <time>2019-11-29T10:59:32.000Z</time>
      </trkpt>
      <trkpt lat="43.30717" lon="5.69238">
        <ele>866</ele>
        <time>2019-11-29T10:59:33.000Z</time>
      </trkpt>
      <trkpt lat="43.30717" lon="5.69238">
        <ele>866</ele>
        <time>2019-11-29T10:59:34.000Z</time>
      </trkpt>
      <trkpt lat="43.30717" lon="5.69238">
        <ele>866</ele>
        <time>2019-11-29T10:59:35.000Z</time>
      </trkpt>
      <trkpt lat="43.30717" lon="5.69238">
        <ele>866</ele>
        <time>2019-11-29T10:59:36.000Z</time>
      </trkpt>
      <trkpt lat="43.30717" lon="5.69238">
        <ele>866</ele>
        <time>2019-11-29T10:59:37.000Z</time>
      </trkpt>
      <trkpt lat="43.30717" lon="5.69238">
        <ele>866</ele>
        <time>2019-11-29T10:59:38.000Z</time>
      </trkpt>
      <trkpt lat="43.30718" lon="5.69239">
        <ele>866</ele>
        <time>2019-11-29T10:59:39.000Z</time>
      </trkpt>
      <trkpt lat="43.30718" lon="5.6924">
        <ele>866</ele>
        <time>2019-11-29T10:59:40.000Z</time>
      </trkpt>
      <trkpt lat="43.30718" lon="5.6924">
        <ele>866</ele>
        <time>2019-11-29T10:59:41.000Z</time>
      </trkpt>
      <trkpt lat="43.30718" lon="5.69241">
        <ele>866</ele>
        <time>2019-11-29T10:59:42.000Z</time>
      </trkpt>
      <trkpt lat="43.30718" lon="5.69241">
        <ele>866</ele>
        <time>2019-11-29T10:59:43.000Z</time>
      </trkpt>
      <trkpt lat="43.30718" lon="5.69242">
        <ele>866</ele>
        <time>2019-11-29T10:59:44.000Z</time>
      </trkpt>
      <trkpt lat="43.30718" lon="5.69243">
        <ele>867</ele>
        <time>2019-11-29T10:59:45.000Z</time>
      </trkpt>
      <trkpt lat="43.30718" lon="5.69243">
        <ele>867</ele>
        <time>2019-11-29T10:59:46.000Z</time>
      </trkpt>
      <trkpt lat="43.30718" lon="5.69244">
        <ele>867</ele>
        <time>2019-11-29T10:59:47.000Z</time>
      </trkpt>
      <trkpt lat="43.30718" lon="5.69245">
        <ele>867</ele>
        <time>2019-11-29T10:59:48.000Z</time>
      </trkpt>
      <trkpt lat="43.30718" lon="5.69245">
        <ele>867</ele>
        <time>2019-11-29T10:59:49.000Z</time>
      </trkpt>
      <trkpt lat="43.30718" lon="5.69246">
        <ele>867</ele>
        <time>2019-11-29T10:59:50.000Z</time>
      </trkpt>
      <trkpt lat="43.30718" lon="5.69247">
        <ele>868</ele>
        <time>2019-11-29T10:59:51.000Z</time>
      </trkpt>
      <trkpt lat="43.30718" lon="5.69248">
        <ele>868</ele>
        <time>2019-11-29T10:59:52.000Z</time>
      </trkpt>
      <trkpt lat="43.30718" lon="5.69248">
        <ele>868</ele>
        <time>2019-11-29T10:59:53.000Z</time>
      </trkpt>
      <trkpt lat="43.30719" lon="5.69249">
        <ele>868</ele>
        <time>2019-11-29T10:59:54.000Z</time>
      </trkpt>
      <trkpt lat="43.30719" lon="5.69249">
        <ele>868</ele>
        <time>2019-11-29T10:59:55.000Z</time>
      </trkpt>
      <trkpt lat="43.30719" lon="5.6925">
        <ele>868</ele>
        <time>2019-11-29T10:59:56.000Z</time>
      </trkpt>
      <trkpt lat="43.30719" lon="5.6925">
        <ele>868</ele>
        <time>2019-11-29T10:59:57.000Z</time>
      </trkpt>
      <trkpt lat="43.3072" lon="5.69251">
        <ele>868</ele>
        <time>2019-11-29T10:59:58.000Z</time>
      </trkpt>
      <trkpt lat="43.3072" lon="5.69251">
        <ele>869</ele>
        <time>2019-11-29T10:59:59.000Z</time>
      </trkpt>
      <trkpt lat="43.3072" lon="5.69252">
        <ele>869</ele>
        <time>2019-11-29T11:00:00.000Z</time>
      </trkpt>
      <trkpt lat="43.30721" lon="5.69253">
        <ele>869</ele>
        <time>2019-11-29T11:00:01.000Z</time>
      </trkpt>
      <trkpt lat="43.30721" lon="5.69254">
        <ele>869</ele>
        <time>2019-11-29T11:00:02.000Z</time>
      </trkpt>
      <trkpt lat="43.30721" lon="5.69254">
        <ele>869</ele>
        <time>2019-11-29T11:00:03.000Z</time>
      </trkpt>
      <trkpt lat="43.30722" lon="5.69255">
        <ele>870</ele>
        <time>2019-11-29T11:00:04.000Z</time>
      </trkpt>
      <trkpt lat="43.30722" lon="5.69255">
        <ele>870</ele>
        <time>2019-11-29T11:00:05.000Z</time>
      </trkpt>
      <trkpt lat="43.30722" lon="5.69256">
        <ele>870</ele>
        <time>2019-11-29T11:00:06.000Z</time>
      </trkpt>
      <trkpt lat="43.30722" lon="5.69257">
        <ele>870</ele>
        <time>2019-11-29T11:00:07.000Z</time>
      </trkpt>
      <trkpt lat="43.30722" lon="5.69257">
        <ele>870</ele>
        <time>2019-11-29T11:00:08.000Z</time>
      </trkpt>
      <trkpt lat="43.30723" lon="5.69258">
        <ele>871</ele>
        <time>2019-11-29T11:00:09.000Z</time>
      </trkpt>
      <trkpt lat="43.30723" lon="5.69258">
        <ele>871</ele>
        <time>2019-11-29T11:00:10.000Z</time>
      </trkpt>
      <trkpt lat="43.30723" lon="5.69259">
        <ele>871</ele>
        <time>2019-11-29T11:00:11.000Z</time>
      </trkpt>
      <trkpt lat="43.30723" lon="5.6926">
        <ele>871</ele>
        <time>2019-11-29T11:00:12.000Z</time>
      </trkpt>
      <trkpt lat="43.30724" lon="5.6926">
        <ele>871</ele>
        <time>2019-11-29T11:00:13.000Z</time>
      </trkpt>
      <trkpt lat="43.30724" lon="5.69261">
        <ele>871</ele>
        <time>2019-11-29T11:00:14.000Z</time>
      </trkpt>
      <trkpt lat="43.30724" lon="5.69261">
        <ele>872</ele>
        <time>2019-11-29T11:00:15.000Z</time>
      </trkpt>
      <trkpt lat="43.30725" lon="5.69262">
        <ele>872</ele>
        <time>2019-11-29T11:00:16.000Z</time>
      </trkpt>
      <trkpt lat="43.30725" lon="5.69263">
        <ele>872</ele>
        <time>2019-11-29T11:00:17.000Z</time>
      </trkpt>
      <trkpt lat="43.30725" lon="5.69264">
        <ele>872</ele>
        <time>2019-11-29T11:00:18.000Z</time>
      </trkpt>
      <trkpt lat="43.30725" lon="5.69264">
        <ele>872</ele>
        <time>2019-11-29T11:00:19.000Z</time>
      </trkpt>
      <trkpt lat="43.30725" lon="5.69265">
        <ele>872</ele>
        <time>2019-11-29T11:00:20.000Z</time>
      </trkpt>
      <trkpt lat="43.30726" lon="5.69266">
        <ele>873</ele>
        <time>2019-11-29T11:00:21.000Z</time>
      </trkpt>
      <trkpt lat="43.30726" lon="5.69266">
        <ele>873</ele>
        <time>2019-11-29T11:00:22.000Z</time>
      </trkpt>
      <trkpt lat="43.30726" lon="5.69267">
        <ele>873</ele>
        <time>2019-11-29T11:00:23.000Z</time>
      </trkpt>
      <trkpt lat="43.30726" lon="5.69268">
        <ele>873</ele>
        <time>2019-11-29T11:00:24.000Z</time>
      </trkpt>
      <trkpt lat="43.30727" lon="5.69268">
        <ele>873</ele>
        <time>2019-11-29T11:00:25.000Z</time>
      </trkpt>
      <trkpt lat="43.30727" lon="5.69269">
        <ele>873</ele>
        <time>2019-11-29T11:00:26.000Z</time>
      </trkpt>
      <trkpt lat="43.30728" lon="5.6927">
        <ele>873</ele>
        <time>2019-11-29T11:00:27.000Z</time>
      </trkpt>
      <trkpt lat="43.30728" lon="5.6927">
        <ele>874</ele>
        <time>2019-11-29T11:00:28.000Z</time>
      </trkpt>
      <trkpt lat="43.30728" lon="5.69271">
        <ele>874</ele>
        <time>2019-11-29T11:00:29.000Z</time>
      </trkpt>
      <trkpt lat="43.30729" lon="5.69272">
        <ele>874</ele>
        <time>2019-11-29T11:00:30.000Z</time>
      </trkpt>
      <trkpt lat="43.30729" lon="5.69272">
        <ele>874</ele>
        <time>2019-11-29T11:00:31.000Z</time>
      </trkpt>
      <trkpt lat="43.3073" lon="5.69273">
        <ele>874</ele>
        <time>2019-11-29T11:00:32.000Z</time>
      </trkpt>
      <trkpt lat="43.3073" lon="5.69273">
        <ele>874</ele>
        <time>2019-11-29T11:00:33.000Z</time>
      </trkpt>
      <trkpt lat="43.3073" lon="5.69274">
        <ele>875</ele>
        <time>2019-11-29T11:00:34.000Z</time>
      </trkpt>
      <trkpt lat="43.30731" lon="5.69275">
        <ele>875</ele>
        <time>2019-11-29T11:00:35.000Z</time>
      </trkpt>
      <trkpt lat="43.30731" lon="5.69276">
        <ele>875</ele>
        <time>2019-11-29T11:00:36.000Z</time>
      </trkpt>
      <trkpt lat="43.30731" lon="5.69277">
        <ele>875</ele>
        <time>2019-11-29T11:00:37.000Z</time>
      </trkpt>
      <trkpt lat="43.30732" lon="5.69277">
        <ele>875</ele>
        <time>2019-11-29T11:00:38.000Z</time>
      </trkpt>
      <trkpt lat="43.30732" lon="5.69278">
        <ele>876</ele>
        <time>2019-11-29T11:00:39.000Z</time>
      </trkpt>
      <trkpt lat="43.30733" lon="5.69278">
        <ele>876</ele>
        <time>2019-11-29T11:00:40.000Z</time>
      </trkpt>
      <trkpt lat="43.30733" lon="5.69279">
        <ele>876</ele>
        <time>2019-11-29T11:00:41.000Z</time>
      </trkpt>
      <trkpt lat="43.30734" lon="5.6928">
        <ele>876</ele>
        <time>2019-11-29T11:00:42.000Z</time>
      </trkpt>
      <trkpt lat="43.30734" lon="5.69281">
        <ele>876</ele>
        <time>2019-11-29T11:00:43.000Z</time>
      </trkpt>
      <trkpt lat="43.30735" lon="5.69282">
        <ele>876</ele>
        <time>2019-11-29T11:00:44.000Z</time>
      </trkpt>
      <trkpt lat="43.30735" lon="5.69282">
        <ele>877</ele>
        <time>2019-11-29T11:00:45.000Z</time>
      </trkpt>
      <trkpt lat="43.30735" lon="5.69283">
        <ele>877</ele>
        <time>2019-11-29T11:00:46.000Z</time>
      </trkpt>
      <trkpt lat="43.30736" lon="5.69283">
        <ele>877</ele>
        <time>2019-11-29T11:00:47.000Z</time>
      </trkpt>
      <trkpt lat="43.30736" lon="5.69284">
        <ele>877</ele>
        <time>2019-11-29T11:00:48.000Z</time>
      </trkpt>
      <trkpt lat="43.30737" lon="5.69285">
        <ele>877</ele>
        <time>2019-11-29T11:00:49.000Z</time>
      </trkpt>
      <trkpt lat="43.30737" lon="5.69286">
        <ele>877</ele>
        <time>2019-11-29T11:00:50.000Z</time>
      </trkpt>
      <trkpt lat="43.30738" lon="5.69287">
        <ele>878</ele>
        <time>2019-11-29T11:00:51.000Z</time>
      </trkpt>
      <trkpt lat="43.30738" lon="5.69288">
        <ele>878</ele>
        <time>2019-11-29T11:00:52.000Z</time>
      </trkpt>
      <trkpt lat="43.30738" lon="5.69288">
        <ele>878</ele>
        <time>2019-11-29T11:00:53.000Z</time>
      </trkpt>
      <trkpt lat="43.30738" lon="5.69289">
        <ele>878</ele>
        <time>2019-11-29T11:00:54.000Z</time>
      </trkpt>
      <trkpt lat="43.30738" lon="5.69289">
        <ele>878</ele>
        <time>2019-11-29T11:00:55.000Z</time>
      </trkpt>
      <trkpt lat="43.30738" lon="5.69289">
        <ele>878</ele>
        <time>2019-11-29T11:00:56.000Z</time>
      </trkpt>
      <trkpt lat="43.30738" lon="5.69289">
        <ele>878</ele>
        <time>2019-11-29T11:00:57.000Z</time>
      </trkpt>
      <trkpt lat="43.30738" lon="5.69289">
        <ele>878</ele>
        <time>2019-11-29T11:00:58.000Z</time>
      </trkpt>
      <trkpt lat="43.30738" lon="5.69289">
        <ele>878</ele>
        <time>2019-11-29T11:00:59.000Z</time>
      </trkpt>
      <trkpt lat="43.30738" lon="5.69289">
        <ele>878</ele>
        <time>2019-11-29T11:01:00.000Z</time>
      </trkpt>
      <trkpt lat="43.30738" lon="5.69289">
        <ele>878</ele>
        <time>2019-11-29T11:01:01.000Z</time>
      </trkpt>
      <trkpt lat="43.30738" lon="5.69289">
        <ele>878</ele>
        <time>2019-11-29T11:01:02.000Z</time>
      </trkpt>
      <trkpt lat="43.30738" lon="5.69289">
        <ele>878</ele>
        <time>2019-11-29T11:01:03.000Z</time>
      </trkpt>
      <trkpt lat="43.30738" lon="5.69289">
        <ele>878</ele>
        <time>2019-11-29T11:01:04.000Z</time>
      </trkpt>
      <trkpt lat="43.30738" lon="5.69289">
        <ele>878</ele>
        <time>2019-11-29T11:01:05.000Z</time>
      </trkpt>
      <trkpt lat="43.30738" lon="5.69289">
        <ele>878</ele>
        <time>2019-11-29T11:01:06.000Z</time>
      </trkpt>
      <trkpt lat="43.30738" lon="5.69288">
        <ele>878</ele>
        <time>2019-11-29T11:01:07.000Z</time>
      </trkpt>
      <trkpt lat="43.30738" lon="5.69288">
        <ele>878</ele>
        <time>2019-11-29T11:01:08.000Z</time>
      </trkpt>
      <trkpt lat="43.30738" lon="5.69288">
        <ele>878</ele>
        <time>2019-11-29T11:01:09.000Z</time>
      </trkpt>
      <trkpt lat="43.30738" lon="5.69288">
        <ele>878</ele>
        <time>2019-11-29T11:01:10.000Z</time>
      </trkpt>
      <trkpt lat="43.30738" lon="5.69288">
        <ele>878</ele>
        <time>2019-11-29T11:01:11.000Z</time>
      </trkpt>
      <trkpt lat="43.30738" lon="5.69288">
        <ele>878</ele>
        <time>2019-11-29T11:01:12.000Z</time>
      </trkpt>
      <trkpt lat="43.30738" lon="5.69288">
        <ele>878</ele>
        <time>2019-11-29T11:01:13.000Z</time>
      </trkpt>
      <trkpt lat="43.30738" lon="5.69288">
        <ele>878</ele>
        <time>2019-11-29T11:01:14.000Z</time>
      </trkpt>
      <trkpt lat="43.30738" lon="5.69288">
        <ele>878</ele>
        <time>2019-11-29T11:01:15.000Z</time>
      </trkpt>
      <trkpt lat="43.30738" lon="5.69288">
        <ele>878</ele>
        <time>2019-11-29T11:01:16.000Z</time>
      </trkpt>
      <trkpt lat="43.30738" lon="5.69288">
        <ele>878</ele>
        <time>2019-11-29T11:01:17.000Z</time>
      </trkpt>
      <trkpt lat="43.30738" lon="5.69288">
        <ele>878</ele>
        <time>2019-11-29T11:01:18.000Z</time>
      </trkpt>
      <trkpt lat="43.30738" lon="5.69288">
        <ele>878</ele>
        <time>2019-11-29T11:01:19.000Z</time>
      </trkpt>
      <trkpt lat="43.30738" lon="5.69288">
        <ele>878</ele>
        <time>2019-11-29T11:01:20.000Z</time>
      </trkpt>
      <trkpt lat="43.30738" lon="5.69288">
        <ele>878</ele>
        <time>2019-11-29T11:01:21.000Z</time>
      </trkpt>
      <trkpt lat="43.30738" lon="5.69288">
        <ele>878</ele>
        <time>2019-11-29T11:01:22.000Z</time>
      </trkpt>
      <trkpt lat="43.30738" lon="5.69288">
        <ele>878</ele>
        <time>2019-11-29T11:01:23.000Z</time>
      </trkpt>
      <trkpt lat="43.30738" lon="5.69288">
        <ele>878</ele>
        <time>2019-11-29T11:01:24.000Z</time>
      </trkpt>
      <trkpt lat="43.30738" lon="5.69288">
        <ele>878</ele>
        <time>2019-11-29T11:01:25.000Z</time>
      </trkpt>
      <trkpt lat="43.30738" lon="5.69288">
        <ele>878</ele>
        <time>2019-11-29T11:01:26.000Z</time>
      </trkpt>
      <trkpt lat="43.30738" lon="5.69288">
        <ele>878</ele>
        <time>2019-11-29T11:01:27.000Z</time>
      </trkpt>
      <trkpt lat="43.30738" lon="5.69288">
        <ele>878</ele>
        <time>2019-11-29T11:01:28.000Z</time>
      </trkpt>
      <trkpt lat="43.30738" lon="5.69288">
        <ele>878</ele>
        <time>2019-11-29T11:01:29.000Z</time>
      </trkpt>
      <trkpt lat="43.30738" lon="5.69288">
        <ele>878</ele>
        <time>2019-11-29T11:01:30.000Z</time>
      </trkpt>
      <trkpt lat="43.30738" lon="5.69288">
        <ele>878</ele>
        <time>2019-11-29T11:01:31.000Z</time>
      </trkpt>
      <trkpt lat="43.30738" lon="5.69288">
        <ele>878</ele>
        <time>2019-11-29T11:01:32.000Z</time>
      </trkpt>
      <trkpt lat="43.30738" lon="5.69288">
        <ele>878</ele>
        <time>2019-11-29T11:01:33.000Z</time>
      </trkpt>
      <trkpt lat="43.30738" lon="5.69288">
        <ele>878</ele>
        <time>2019-11-29T11:01:34.000Z</time>
      </trkpt>
      <trkpt lat="43.30738" lon="5.69288">
        <ele>878</ele>
        <time>2019-11-29T11:01:35.000Z</time>
      </trkpt>
      <trkpt lat="43.30738" lon="5.69288">
        <ele>878</ele>
        <time>2019-11-29T11:01:36.000Z</time>
      </trkpt>
      <trkpt lat="43.30738" lon="5.69288">
        <ele>878</ele>
        <time>2019-11-29T11:01:37.000Z</time>
      </trkpt>
      <trkpt lat="43.30738" lon="5.69288">
        <ele>878</ele>
        <time>2019-11-29T11:01:38.000Z</time>
      </trkpt>
      <trkpt lat="43.30738" lon="5.69288">
        <ele>878</ele>
        <time>2019-11-29T11:01:39.000Z</time>
      </trkpt>
      <trkpt lat="43.30738" lon="5.69288">
        <ele>878</ele>
        <time>2019-11-29T11:01:40.000Z</time>
      </trkpt>
      <trkpt lat="43.30738" lon="5.69288">
        <ele>878</ele>
        <time>2019-11-29T11:01:41.000Z</time>
      </trkpt>
      <trkpt lat="43.30738" lon="5.69288">
        <ele>878</ele>
        <time>2019-11-29T11:01:42.000Z</time>
      </trkpt>
      <trkpt lat="43.30738" lon="5.69288">
        <ele>878</ele>
        <time>2019-11-29T11:01:43.000Z</time>
      </trkpt>
      <trkpt lat="43.30738" lon="5.69288">
        <ele>878</ele>
        <time>2019-11-29T11:01:44.000Z</time>
      </trkpt>
      <trkpt lat="43.30738" lon="5.69288">
        <ele>878</ele>
        <time>2019-11-29T11:01:45.000Z</time>
      </trkpt>
      <trkpt lat="43.30738" lon="5.69288">
        <ele>878</ele>
        <time>2019-11-29T11:01:46.000Z</time>
      </trkpt>
      <trkpt lat="43.30738" lon="5.69287">
        <ele>878</ele>
        <time>2019-11-29T11:01:47.000Z</time>
      </trkpt>
      <trkpt lat="43.30738" lon="5.69287">
        <ele>878</ele>
        <time>2019-11-29T11:01:48.000Z</time>
      </trkpt>
      <trkpt lat="43.30738" lon="5.69287">
        <ele>878</ele>
        <time>2019-11-29T11:01:49.000Z</time>
      </trkpt>
      <trkpt lat="43.30738" lon="5.69287">
        <ele>878</ele>
        <time>2019-11-29T11:01:50.000Z</time>
      </trkpt>
      <trkpt lat="43.30738" lon="5.69287">
        <ele>878</ele>
        <time>2019-11-29T11:01:51.000Z</time>
      </trkpt>
      <trkpt lat="43.30738" lon="5.69287">
        <ele>878</ele>
        <time>2019-11-29T11:01:52.000Z</time>
      </trkpt>
      <trkpt lat="43.30738" lon="5.69288">
        <ele>878</ele>
        <time>2019-11-29T11:01:53.000Z</time>
      </trkpt>
      <trkpt lat="43.30738" lon="5.69288">
        <ele>878</ele>
        <time>2019-11-29T11:01:54.000Z</time>
      </trkpt>
      <trkpt lat="43.30738" lon="5.69288">
        <ele>878</ele>
        <time>2019-11-29T11:01:55.000Z</time>
      </trkpt>
      <trkpt lat="43.30738" lon="5.69288">
        <ele>878</ele>
        <time>2019-11-29T11:01:56.000Z</time>
      </trkpt>
      <trkpt lat="43.30738" lon="5.69288">
        <ele>878</ele>
        <time>2019-11-29T11:01:57.000Z</time>
      </trkpt>
      <trkpt lat="43.30738" lon="5.69288">
        <ele>878</ele>
        <time>2019-11-29T11:01:58.000Z</time>
      </trkpt>
      <trkpt lat="43.30738" lon="5.69288">
        <ele>878</ele>
        <time>2019-11-29T11:01:59.000Z</time>
      </trkpt>
      <trkpt lat="43.30738" lon="5.69288">
        <ele>878</ele>
        <time>2019-11-29T11:02:00.000Z</time>
      </trkpt>
      <trkpt lat="43.30738" lon="5.69288">
        <ele>878</ele>
        <time>2019-11-29T11:02:01.000Z</time>
      </trkpt>
      <trkpt lat="43.30738" lon="5.69288">
        <ele>878</ele>
        <time>2019-11-29T11:02:02.000Z</time>
      </trkpt>
      <trkpt lat="43.30738" lon="5.69288">
        <ele>878</ele>
        <time>2019-11-29T11:02:03.000Z</time>
      </trkpt>
      <trkpt lat="43.30738" lon="5.69288">
        <ele>878</ele>
        <time>2019-11-29T11:02:04.000Z</time>
      </trkpt>
      <trkpt lat="43.30738" lon="5.69288">
        <ele>878</ele>
        <time>2019-11-29T11:02:05.000Z</time>
      </trkpt>
      <trkpt lat="43.30738" lon="5.69288">
        <ele>878</ele>
        <time>2019-11-29T11:02:06.000Z</time>
      </trkpt>
      <trkpt lat="43.30738" lon="5.69287">
        <ele>878</ele>
        <time>2019-11-29T11:02:07.000Z</time>
      </trkpt>
      <trkpt lat="43.30738" lon="5.69287">
        <ele>878</ele>
        <time>2019-11-29T11:02:08.000Z</time>
      </trkpt>
      <trkpt lat="43.30738" lon="5.69287">
        <ele>878</ele>
        <time>2019-11-29T11:02:09.000Z</time>
      </trkpt>
      <trkpt lat="43.30738" lon="5.69287">
        <ele>878</ele>
        <time>2019-11-29T11:02:10.000Z</time>
      </trkpt>
      <trkpt lat="43.30738" lon="5.69287">
        <ele>878</ele>
        <time>2019-11-29T11:02:11.000Z</time>
      </trkpt>
      <trkpt lat="43.30738" lon="5.69287">
        <ele>878</ele>
        <time>2019-11-29T11:02:12.000Z</time>
      </trkpt>
      <trkpt lat="43.30738" lon="5.69287">
        <ele>878</ele>
        <time>2019-11-29T11:02:13.000Z</time>
      </trkpt>
      <trkpt lat="43.30738" lon="5.69287">
        <ele>878</ele>
        <time>2019-11-29T11:02:14.000Z</time>
      </trkpt>
      <trkpt lat="43.30738" lon="5.69287">
        <ele>878</ele>
        <time>2019-11-29T11:02:15.000Z</time>
      </trkpt>
      <trkpt lat="43.30738" lon="5.69287">
        <ele>878</ele>
        <time>2019-11-29T11:02:16.000Z</time>
      </trkpt>
      <trkpt lat="43.30738" lon="5.69287">
        <ele>878</ele>
        <time>2019-11-29T11:02:17.000Z</time>
      </trkpt>
      <trkpt lat="43.30737" lon="5.69287">
        <ele>878</ele>
        <time>2019-11-29T11:02:18.000Z</time>
      </trkpt>
      <trkpt lat="43.30737" lon="5.69287">
        <ele>878</ele>
        <time>2019-11-29T11:02:19.000Z</time>
      </trkpt>
      <trkpt lat="43.30737" lon="5.69287">
        <ele>878</ele>
        <time>2019-11-29T11:02:20.000Z</time>
      </trkpt>
      <trkpt lat="43.30738" lon="5.69287">
        <ele>878</ele>
        <time>2019-11-29T11:02:21.000Z</time>
      </trkpt>
      <trkpt lat="43.30738" lon="5.69287">
        <ele>878</ele>
        <time>2019-11-29T11:02:22.000Z</time>
      </trkpt>
      <trkpt lat="43.30738" lon="5.69287">
        <ele>878</ele>
        <time>2019-11-29T11:02:23.000Z</time>
      </trkpt>
      <trkpt lat="43.30738" lon="5.69287">
        <ele>878</ele>
        <time>2019-11-29T11:02:24.000Z</time>
      </trkpt>
      <trkpt lat="43.30738" lon="5.69287">
        <ele>878</ele>
        <time>2019-11-29T11:02:25.000Z</time>
      </trkpt>
      <trkpt lat="43.30738" lon="5.69287">
        <ele>878</ele>
        <time>2019-11-29T11:02:26.000Z</time>
      </trkpt>
      <trkpt lat="43.30738" lon="5.69287">
        <ele>878</ele>
        <time>2019-11-29T11:02:27.000Z</time>
      </trkpt>
      <trkpt lat="43.30738" lon="5.69287">
        <ele>878</ele>
        <time>2019-11-29T11:02:28.000Z</time>
      </trkpt>
      <trkpt lat="43.30737" lon="5.69287">
        <ele>879</ele>
        <time>2019-11-29T11:02:29.000Z</time>
      </trkpt>
      <trkpt lat="43.30737" lon="5.69287">
        <ele>879</ele>
        <time>2019-11-29T11:02:30.000Z</time>
      </trkpt>
      <trkpt lat="43.30737" lon="5.69287">
        <ele>879</ele>
        <time>2019-11-29T11:02:31.000Z</time>
      </trkpt>
      <trkpt lat="43.30737" lon="5.69287">
        <ele>879</ele>
        <time>2019-11-29T11:02:32.000Z</time>
      </trkpt>
      <trkpt lat="43.30737" lon="5.69287">
        <ele>879</ele>
        <time>2019-11-29T11:02:33.000Z</time>
      </trkpt>
      <trkpt lat="43.30738" lon="5.69287">
        <ele>879</ele>
        <time>2019-11-29T11:02:34.000Z</time>
      </trkpt>
      <trkpt lat="43.30738" lon="5.69287">
        <ele>879</ele>
        <time>2019-11-29T11:02:35.000Z</time>
      </trkpt>
      <trkpt lat="43.30738" lon="5.69287">
        <ele>879</ele>
        <time>2019-11-29T11:02:36.000Z</time>
      </trkpt>
      <trkpt lat="43.30739" lon="5.69286">
        <ele>879</ele>
        <time>2019-11-29T11:02:37.000Z</time>
      </trkpt>
      <trkpt lat="43.30739" lon="5.69286">
        <ele>879</ele>
        <time>2019-11-29T11:02:38.000Z</time>
      </trkpt>
      <trkpt lat="43.3074" lon="5.69285">
        <ele>879</ele>
        <time>2019-11-29T11:02:39.000Z</time>
      </trkpt>
      <trkpt lat="43.3074" lon="5.69284">
        <ele>879</ele>
        <time>2019-11-29T11:02:40.000Z</time>
      </trkpt>
      <trkpt lat="43.3074" lon="5.69284">
        <ele>879</ele>
        <time>2019-11-29T11:02:41.000Z</time>
      </trkpt>
      <trkpt lat="43.30741" lon="5.69283">
        <ele>879</ele>
        <time>2019-11-29T11:02:42.000Z</time>
      </trkpt>
      <trkpt lat="43.30741" lon="5.69283">
        <ele>879</ele>
        <time>2019-11-29T11:02:43.000Z</time>
      </trkpt>
      <trkpt lat="43.30741" lon="5.69283">
        <ele>879</ele>
        <time>2019-11-29T11:02:44.000Z</time>
      </trkpt>
      <trkpt lat="43.30741" lon="5.69283">
        <ele>879</ele>
        <time>2019-11-29T11:02:45.000Z</time>
      </trkpt>
      <trkpt lat="43.30741" lon="5.69283">
        <ele>879</ele>
        <time>2019-11-29T11:02:46.000Z</time>
      </trkpt>
      <trkpt lat="43.30741" lon="5.69283">
        <ele>879</ele>
        <time>2019-11-29T11:02:47.000Z</time>
      </trkpt>
      <trkpt lat="43.30741" lon="5.69283">
        <ele>879</ele>
        <time>2019-11-29T11:02:48.000Z</time>
      </trkpt>
      <trkpt lat="43.30741" lon="5.69283">
        <ele>879</ele>
        <time>2019-11-29T11:02:49.000Z</time>
      </trkpt>
      <trkpt lat="43.30741" lon="5.69283">
        <ele>879</ele>
        <time>2019-11-29T11:02:50.000Z</time>
      </trkpt>
      <trkpt lat="43.30741" lon="5.69283">
        <ele>879</ele>
        <time>2019-11-29T11:02:51.000Z</time>
      </trkpt>
      <trkpt lat="43.30741" lon="5.69283">
        <ele>879</ele>
        <time>2019-11-29T11:02:52.000Z</time>
      </trkpt>
      <trkpt lat="43.30741" lon="5.69283">
        <ele>879</ele>
        <time>2019-11-29T11:02:53.000Z</time>
      </trkpt>
      <trkpt lat="43.30741" lon="5.69283">
        <ele>878</ele>
        <time>2019-11-29T11:02:54.000Z</time>
      </trkpt>
      <trkpt lat="43.30741" lon="5.69283">
        <ele>879</ele>
        <time>2019-11-29T11:02:55.000Z</time>
      </trkpt>
      <trkpt lat="43.30741" lon="5.69283">
        <ele>879</ele>
        <time>2019-11-29T11:02:56.000Z</time>
      </trkpt>
      <trkpt lat="43.30741" lon="5.69283">
        <ele>879</ele>
        <time>2019-11-29T11:02:57.000Z</time>
      </trkpt>
      <trkpt lat="43.30741" lon="5.69283">
        <ele>879</ele>
        <time>2019-11-29T11:02:58.000Z</time>
      </trkpt>
      <trkpt lat="43.30741" lon="5.69283">
        <ele>879</ele>
        <time>2019-11-29T11:02:59.000Z</time>
      </trkpt>
      <trkpt lat="43.30741" lon="5.69283">
        <ele>879</ele>
        <time>2019-11-29T11:03:00.000Z</time>
      </trkpt>
      <trkpt lat="43.30741" lon="5.69283">
        <ele>879</ele>
        <time>2019-11-29T11:03:01.000Z</time>
      </trkpt>
      <trkpt lat="43.30741" lon="5.69283">
        <ele>879</ele>
        <time>2019-11-29T11:03:02.000Z</time>
      </trkpt>
      <trkpt lat="43.30741" lon="5.69283">
        <ele>879</ele>
        <time>2019-11-29T11:03:03.000Z</time>
      </trkpt>
      <trkpt lat="43.30741" lon="5.69283">
        <ele>879</ele>
        <time>2019-11-29T11:03:04.000Z</time>
      </trkpt>
      <trkpt lat="43.30741" lon="5.69283">
        <ele>878</ele>
        <time>2019-11-29T11:03:05.000Z</time>
      </trkpt>
      <trkpt lat="43.30741" lon="5.69283">
        <ele>878</ele>
        <time>2019-11-29T11:03:06.000Z</time>
      </trkpt>
      <trkpt lat="43.30741" lon="5.69283">
        <ele>878</ele>
        <time>2019-11-29T11:03:07.000Z</time>
      </trkpt>
      <trkpt lat="43.30741" lon="5.69283">
        <ele>879</ele>
        <time>2019-11-29T11:03:08.000Z</time>
      </trkpt>
      <trkpt lat="43.30741" lon="5.69282">
        <ele>879</ele>
        <time>2019-11-29T11:03:09.000Z</time>
      </trkpt>
      <trkpt lat="43.30741" lon="5.69281">
        <ele>879</ele>
        <time>2019-11-29T11:03:10.000Z</time>
      </trkpt>
      <trkpt lat="43.30741" lon="5.69281">
        <ele>879</ele>
        <time>2019-11-29T11:03:11.000Z</time>
      </trkpt>
      <trkpt lat="43.30742" lon="5.6928">
        <ele>879</ele>
        <time>2019-11-29T11:03:12.000Z</time>
      </trkpt>
      <trkpt lat="43.30742" lon="5.6928">
        <ele>879</ele>
        <time>2019-11-29T11:03:13.000Z</time>
      </trkpt>
      <trkpt lat="43.30742" lon="5.6928">
        <ele>879</ele>
        <time>2019-11-29T11:03:14.000Z</time>
      </trkpt>
      <trkpt lat="43.30742" lon="5.6928">
        <ele>879</ele>
        <time>2019-11-29T11:03:15.000Z</time>
      </trkpt>
      <trkpt lat="43.30742" lon="5.6928">
        <ele>879</ele>
        <time>2019-11-29T11:03:16.000Z</time>
      </trkpt>
      <trkpt lat="43.30742" lon="5.6928">
        <ele>879</ele>
        <time>2019-11-29T11:03:17.000Z</time>
      </trkpt>
      <trkpt lat="43.30742" lon="5.6928">
        <ele>879</ele>
        <time>2019-11-29T11:03:18.000Z</time>
      </trkpt>
      <trkpt lat="43.30742" lon="5.6928">
        <ele>879</ele>
        <time>2019-11-29T11:03:19.000Z</time>
      </trkpt>
      <trkpt lat="43.30742" lon="5.6928">
        <ele>879</ele>
        <time>2019-11-29T11:03:20.000Z</time>
      </trkpt>
      <trkpt lat="43.30742" lon="5.6928">
        <ele>879</ele>
        <time>2019-11-29T11:03:21.000Z</time>
      </trkpt>
      <trkpt lat="43.30742" lon="5.6928">
        <ele>879</ele>
        <time>2019-11-29T11:03:22.000Z</time>
      </trkpt>
      <trkpt lat="43.30742" lon="5.6928">
        <ele>879</ele>
        <time>2019-11-29T11:03:23.000Z</time>
      </trkpt>
      <trkpt lat="43.30743" lon="5.6928">
        <ele>879</ele>
        <time>2019-11-29T11:03:24.000Z</time>
      </trkpt>
      <trkpt lat="43.30744" lon="5.6928">
        <ele>879</ele>
        <time>2019-11-29T11:03:25.000Z</time>
      </trkpt>
      <trkpt lat="43.30744" lon="5.69281">
        <ele>879</ele>
        <time>2019-11-29T11:03:26.000Z</time>
      </trkpt>
      <trkpt lat="43.30745" lon="5.69281">
        <ele>879</ele>
        <time>2019-11-29T11:03:27.000Z</time>
      </trkpt>
      <trkpt lat="43.30745" lon="5.69281">
        <ele>879</ele>
        <time>2019-11-29T11:03:28.000Z</time>
      </trkpt>
      <trkpt lat="43.30745" lon="5.69281">
        <ele>879</ele>
        <time>2019-11-29T11:03:29.000Z</time>
      </trkpt>
      <trkpt lat="43.30746" lon="5.6928">
        <ele>879</ele>
        <time>2019-11-29T11:03:30.000Z</time>
      </trkpt>
      <trkpt lat="43.30747" lon="5.69281">
        <ele>879</ele>
        <time>2019-11-29T11:03:31.000Z</time>
      </trkpt>
      <trkpt lat="43.30747" lon="5.69281">
        <ele>879</ele>
        <time>2019-11-29T11:03:32.000Z</time>
      </trkpt>
      <trkpt lat="43.30748" lon="5.69282">
        <ele>879</ele>
        <time>2019-11-29T11:03:33.000Z</time>
      </trkpt>
      <trkpt lat="43.30748" lon="5.69282">
        <ele>879</ele>
        <time>2019-11-29T11:03:34.000Z</time>
      </trkpt>
      <trkpt lat="43.30748" lon="5.69282">
        <ele>879</ele>
        <time>2019-11-29T11:03:35.000Z</time>
      </trkpt>
      <trkpt lat="43.30748" lon="5.69283">
        <ele>879</ele>
        <time>2019-11-29T11:03:36.000Z</time>
      </trkpt>
      <trkpt lat="43.30748" lon="5.69283">
        <ele>880</ele>
        <time>2019-11-29T11:03:37.000Z</time>
      </trkpt>
      <trkpt lat="43.30748" lon="5.69283">
        <ele>880</ele>
        <time>2019-11-29T11:03:38.000Z</time>
      </trkpt>
      <trkpt lat="43.30748" lon="5.69283">
        <ele>880</ele>
        <time>2019-11-29T11:03:39.000Z</time>
      </trkpt>
      <trkpt lat="43.30749" lon="5.69282">
        <ele>880</ele>
        <time>2019-11-29T11:03:40.000Z</time>
      </trkpt>
      <trkpt lat="43.30749" lon="5.69282">
        <ele>880</ele>
        <time>2019-11-29T11:03:41.000Z</time>
      </trkpt>
      <trkpt lat="43.30749" lon="5.69281">
        <ele>880</ele>
        <time>2019-11-29T11:03:42.000Z</time>
      </trkpt>
      <trkpt lat="43.3075" lon="5.69281">
        <ele>880</ele>
        <time>2019-11-29T11:03:43.000Z</time>
      </trkpt>
      <trkpt lat="43.3075" lon="5.6928">
        <ele>880</ele>
        <time>2019-11-29T11:03:44.000Z</time>
      </trkpt>
      <trkpt lat="43.30751" lon="5.6928">
        <ele>880</ele>
        <time>2019-11-29T11:03:45.000Z</time>
      </trkpt>
      <trkpt lat="43.30752" lon="5.69279">
        <ele>880</ele>
        <time>2019-11-29T11:03:46.000Z</time>
      </trkpt>
      <trkpt lat="43.30753" lon="5.69278">
        <ele>880</ele>
        <time>2019-11-29T11:03:47.000Z</time>
      </trkpt>
      <trkpt lat="43.30753" lon="5.69278">
        <ele>880</ele>
        <time>2019-11-29T11:03:48.000Z</time>
      </trkpt>
      <trkpt lat="43.30754" lon="5.69278">
        <ele>880</ele>
        <time>2019-11-29T11:03:49.000Z</time>
      </trkpt>
      <trkpt lat="43.30755" lon="5.69277">
        <ele>880</ele>
        <time>2019-11-29T11:03:50.000Z</time>
      </trkpt>
      <trkpt lat="43.30755" lon="5.69277">
        <ele>880</ele>
        <time>2019-11-29T11:03:51.000Z</time>
      </trkpt>
      <trkpt lat="43.30756" lon="5.69277">
        <ele>880</ele>
        <time>2019-11-29T11:03:52.000Z</time>
      </trkpt>
      <trkpt lat="43.30757" lon="5.69277">
        <ele>880</ele>
        <time>2019-11-29T11:03:53.000Z</time>
      </trkpt>
      <trkpt lat="43.30758" lon="5.69277">
        <ele>880</ele>
        <time>2019-11-29T11:03:54.000Z</time>
      </trkpt>
      <trkpt lat="43.30758" lon="5.69277">
        <ele>880</ele>
        <time>2019-11-29T11:03:55.000Z</time>
      </trkpt>
      <trkpt lat="43.30759" lon="5.69277">
        <ele>881</ele>
        <time>2019-11-29T11:03:56.000Z</time>
      </trkpt>
      <trkpt lat="43.3076" lon="5.69277">
        <ele>881</ele>
        <time>2019-11-29T11:03:57.000Z</time>
      </trkpt>
      <trkpt lat="43.30761" lon="5.69277">
        <ele>881</ele>
        <time>2019-11-29T11:03:58.000Z</time>
      </trkpt>
      <trkpt lat="43.30761" lon="5.69278">
        <ele>881</ele>
        <time>2019-11-29T11:03:59.000Z</time>
      </trkpt>
      <trkpt lat="43.30762" lon="5.69278">
        <ele>881</ele>
        <time>2019-11-29T11:04:00.000Z</time>
      </trkpt>
      <trkpt lat="43.30762" lon="5.69279">
        <ele>881</ele>
        <time>2019-11-29T11:04:01.000Z</time>
      </trkpt>
      <trkpt lat="43.30763" lon="5.6928">
        <ele>881</ele>
        <time>2019-11-29T11:04:02.000Z</time>
      </trkpt>
      <trkpt lat="43.30763" lon="5.69279">
        <ele>881</ele>
        <time>2019-11-29T11:04:03.000Z</time>
      </trkpt>
      <trkpt lat="43.30764" lon="5.6928">
        <ele>881</ele>
        <time>2019-11-29T11:04:04.000Z</time>
      </trkpt>
      <trkpt lat="43.30765" lon="5.6928">
        <ele>881</ele>
        <time>2019-11-29T11:04:05.000Z</time>
      </trkpt>
      <trkpt lat="43.30765" lon="5.6928">
        <ele>881</ele>
        <time>2019-11-29T11:04:06.000Z</time>
      </trkpt>
      <trkpt lat="43.30766" lon="5.69279">
        <ele>882</ele>
        <time>2019-11-29T11:04:07.000Z</time>
      </trkpt>
      <trkpt lat="43.30767" lon="5.69279">
        <ele>882</ele>
        <time>2019-11-29T11:04:08.000Z</time>
      </trkpt>
      <trkpt lat="43.30767" lon="5.69278">
        <ele>882</ele>
        <time>2019-11-29T11:04:09.000Z</time>
      </trkpt>
      <trkpt lat="43.30768" lon="5.69278">
        <ele>882</ele>
        <time>2019-11-29T11:04:10.000Z</time>
      </trkpt>
      <trkpt lat="43.30769" lon="5.69278">
        <ele>882</ele>
        <time>2019-11-29T11:04:11.000Z</time>
      </trkpt>
      <trkpt lat="43.3077" lon="5.69278">
        <ele>882</ele>
        <time>2019-11-29T11:04:12.000Z</time>
      </trkpt>
      <trkpt lat="43.30771" lon="5.69278">
        <ele>882</ele>
        <time>2019-11-29T11:04:13.000Z</time>
      </trkpt>
      <trkpt lat="43.30771" lon="5.69277">
        <ele>882</ele>
        <time>2019-11-29T11:04:14.000Z</time>
      </trkpt>
      <trkpt lat="43.30772" lon="5.69277">
        <ele>882</ele>
        <time>2019-11-29T11:04:15.000Z</time>
      </trkpt>
      <trkpt lat="43.30773" lon="5.69277">
        <ele>882</ele>
        <time>2019-11-29T11:04:16.000Z</time>
      </trkpt>
      <trkpt lat="43.30774" lon="5.69277">
        <ele>882</ele>
        <time>2019-11-29T11:04:17.000Z</time>
      </trkpt>
      <trkpt lat="43.30775" lon="5.69276">
        <ele>882</ele>
        <time>2019-11-29T11:04:18.000Z</time>
      </trkpt>
      <trkpt lat="43.30775" lon="5.69276">
        <ele>882</ele>
        <time>2019-11-29T11:04:19.000Z</time>
      </trkpt>
      <trkpt lat="43.30776" lon="5.69276">
        <ele>882</ele>
        <time>2019-11-29T11:04:20.000Z</time>
      </trkpt>
      <trkpt lat="43.30777" lon="5.69276">
        <ele>882</ele>
        <time>2019-11-29T11:04:21.000Z</time>
      </trkpt>
      <trkpt lat="43.30778" lon="5.69275">
        <ele>882</ele>
        <time>2019-11-29T11:04:22.000Z</time>
      </trkpt>
      <trkpt lat="43.30779" lon="5.69275">
        <ele>882</ele>
        <time>2019-11-29T11:04:23.000Z</time>
      </trkpt>
      <trkpt lat="43.3078" lon="5.69274">
        <ele>882</ele>
        <time>2019-11-29T11:04:24.000Z</time>
      </trkpt>
      <trkpt lat="43.3078" lon="5.69273">
        <ele>882</ele>
        <time>2019-11-29T11:04:25.000Z</time>
      </trkpt>
      <trkpt lat="43.30781" lon="5.69272">
        <ele>882</ele>
        <time>2019-11-29T11:04:26.000Z</time>
      </trkpt>
      <trkpt lat="43.30782" lon="5.69272">
        <ele>882</ele>
        <time>2019-11-29T11:04:27.000Z</time>
      </trkpt>
      <trkpt lat="43.30783" lon="5.69272">
        <ele>882</ele>
        <time>2019-11-29T11:04:28.000Z</time>
      </trkpt>
      <trkpt lat="43.30784" lon="5.69272">
        <ele>882</ele>
        <time>2019-11-29T11:04:29.000Z</time>
      </trkpt>
      <trkpt lat="43.30784" lon="5.69272">
        <ele>882</ele>
        <time>2019-11-29T11:04:30.000Z</time>
      </trkpt>
      <trkpt lat="43.30785" lon="5.69271">
        <ele>882</ele>
        <time>2019-11-29T11:04:31.000Z</time>
      </trkpt>
      <trkpt lat="43.30786" lon="5.69271">
        <ele>882</ele>
        <time>2019-11-29T11:04:32.000Z</time>
      </trkpt>
      <trkpt lat="43.30787" lon="5.69271">
        <ele>883</ele>
        <time>2019-11-29T11:04:33.000Z</time>
      </trkpt>
      <trkpt lat="43.30788" lon="5.69271">
        <ele>883</ele>
        <time>2019-11-29T11:04:34.000Z</time>
      </trkpt>
      <trkpt lat="43.30788" lon="5.69271">
        <ele>883</ele>
        <time>2019-11-29T11:04:35.000Z</time>
      </trkpt>
      <trkpt lat="43.30789" lon="5.69272">
        <ele>883</ele>
        <time>2019-11-29T11:04:36.000Z</time>
      </trkpt>
      <trkpt lat="43.3079" lon="5.69272">
        <ele>883</ele>
        <time>2019-11-29T11:04:37.000Z</time>
      </trkpt>
      <trkpt lat="43.3079" lon="5.69273">
        <ele>883</ele>
        <time>2019-11-29T11:04:38.000Z</time>
      </trkpt>
      <trkpt lat="43.30791" lon="5.69273">
        <ele>883</ele>
        <time>2019-11-29T11:04:39.000Z</time>
      </trkpt>
      <trkpt lat="43.30791" lon="5.69273">
        <ele>884</ele>
        <time>2019-11-29T11:04:40.000Z</time>
      </trkpt>
      <trkpt lat="43.30792" lon="5.69274">
        <ele>884</ele>
        <time>2019-11-29T11:04:41.000Z</time>
      </trkpt>
      <trkpt lat="43.30792" lon="5.69274">
        <ele>884</ele>
        <time>2019-11-29T11:04:42.000Z</time>
      </trkpt>
      <trkpt lat="43.30793" lon="5.69275">
        <ele>884</ele>
        <time>2019-11-29T11:04:43.000Z</time>
      </trkpt>
      <trkpt lat="43.30794" lon="5.69275">
        <ele>884</ele>
        <time>2019-11-29T11:04:44.000Z</time>
      </trkpt>
      <trkpt lat="43.30794" lon="5.69276">
        <ele>885</ele>
        <time>2019-11-29T11:04:45.000Z</time>
      </trkpt>
      <trkpt lat="43.30795" lon="5.69276">
        <ele>885</ele>
        <time>2019-11-29T11:04:46.000Z</time>
      </trkpt>
      <trkpt lat="43.30795" lon="5.69276">
        <ele>885</ele>
        <time>2019-11-29T11:04:47.000Z</time>
      </trkpt>
      <trkpt lat="43.30796" lon="5.69276">
        <ele>885</ele>
        <time>2019-11-29T11:04:48.000Z</time>
      </trkpt>
      <trkpt lat="43.30797" lon="5.69277">
        <ele>885</ele>
        <time>2019-11-29T11:04:49.000Z</time>
      </trkpt>
      <trkpt lat="43.30797" lon="5.69277">
        <ele>885</ele>
        <time>2019-11-29T11:04:50.000Z</time>
      </trkpt>
      <trkpt lat="43.30798" lon="5.69277">
        <ele>886</ele>
        <time>2019-11-29T11:04:51.000Z</time>
      </trkpt>
      <trkpt lat="43.30798" lon="5.69277">
        <ele>886</ele>
        <time>2019-11-29T11:04:52.000Z</time>
      </trkpt>
      <trkpt lat="43.30799" lon="5.69277">
        <ele>886</ele>
        <time>2019-11-29T11:04:53.000Z</time>
      </trkpt>
      <trkpt lat="43.308" lon="5.69277">
        <ele>886</ele>
        <time>2019-11-29T11:04:54.000Z</time>
      </trkpt>
      <trkpt lat="43.308" lon="5.69277">
        <ele>886</ele>
        <time>2019-11-29T11:04:55.000Z</time>
      </trkpt>
      <trkpt lat="43.30801" lon="5.69277">
        <ele>886</ele>
        <time>2019-11-29T11:04:56.000Z</time>
      </trkpt>
      <trkpt lat="43.30801" lon="5.69277">
        <ele>886</ele>
        <time>2019-11-29T11:04:57.000Z</time>
      </trkpt>
      <trkpt lat="43.30802" lon="5.69277">
        <ele>886</ele>
        <time>2019-11-29T11:04:58.000Z</time>
      </trkpt>
      <trkpt lat="43.30802" lon="5.69277">
        <ele>887</ele>
        <time>2019-11-29T11:04:59.000Z</time>
      </trkpt>
      <trkpt lat="43.30803" lon="5.69277">
        <ele>887</ele>
        <time>2019-11-29T11:05:00.000Z</time>
      </trkpt>
      <trkpt lat="43.30803" lon="5.69277">
        <ele>887</ele>
        <time>2019-11-29T11:05:01.000Z</time>
      </trkpt>
      <trkpt lat="43.30804" lon="5.69277">
        <ele>887</ele>
        <time>2019-11-29T11:05:02.000Z</time>
      </trkpt>
      <trkpt lat="43.30805" lon="5.69277">
        <ele>887</ele>
        <time>2019-11-29T11:05:03.000Z</time>
      </trkpt>
      <trkpt lat="43.30805" lon="5.69277">
        <ele>887</ele>
        <time>2019-11-29T11:05:04.000Z</time>
      </trkpt>
      <trkpt lat="43.30806" lon="5.69277">
        <ele>887</ele>
        <time>2019-11-29T11:05:05.000Z</time>
      </trkpt>
      <trkpt lat="43.30806" lon="5.69277">
        <ele>887</ele>
        <time>2019-11-29T11:05:06.000Z</time>
      </trkpt>
      <trkpt lat="43.30807" lon="5.69277">
        <ele>887</ele>
        <time>2019-11-29T11:05:07.000Z</time>
      </trkpt>
      <trkpt lat="43.30808" lon="5.69278">
        <ele>888</ele>
        <time>2019-11-29T11:05:08.000Z</time>
      </trkpt>
      <trkpt lat="43.30808" lon="5.69278">
        <ele>888</ele>
        <time>2019-11-29T11:05:09.000Z</time>
      </trkpt>
      <trkpt lat="43.30808" lon="5.69278">
        <ele>888</ele>
        <time>2019-11-29T11:05:10.000Z</time>
      </trkpt>
      <trkpt lat="43.30809" lon="5.69279">
        <ele>888</ele>
        <time>2019-11-29T11:05:11.000Z</time>
      </trkpt>
      <trkpt lat="43.30809" lon="5.69279">
        <ele>888</ele>
        <time>2019-11-29T11:05:12.000Z</time>
      </trkpt>
      <trkpt lat="43.3081" lon="5.6928">
        <ele>888</ele>
        <time>2019-11-29T11:05:13.000Z</time>
      </trkpt>
      <trkpt lat="43.3081" lon="5.69281">
        <ele>888</ele>
        <time>2019-11-29T11:05:14.000Z</time>
      </trkpt>
      <trkpt lat="43.3081" lon="5.69282">
        <ele>889</ele>
        <time>2019-11-29T11:05:15.000Z</time>
      </trkpt>
      <trkpt lat="43.3081" lon="5.69283">
        <ele>889</ele>
        <time>2019-11-29T11:05:16.000Z</time>
      </trkpt>
      <trkpt lat="43.30811" lon="5.69284">
        <ele>889</ele>
        <time>2019-11-29T11:05:17.000Z</time>
      </trkpt>
      <trkpt lat="43.30811" lon="5.69284">
        <ele>889</ele>
        <time>2019-11-29T11:05:18.000Z</time>
      </trkpt>
      <trkpt lat="43.30811" lon="5.69285">
        <ele>889</ele>
        <time>2019-11-29T11:05:19.000Z</time>
      </trkpt>
      <trkpt lat="43.30811" lon="5.69286">
        <ele>889</ele>
        <time>2019-11-29T11:05:20.000Z</time>
      </trkpt>
      <trkpt lat="43.30811" lon="5.69287">
        <ele>889</ele>
        <time>2019-11-29T11:05:21.000Z</time>
      </trkpt>
      <trkpt lat="43.30812" lon="5.69288">
        <ele>889</ele>
        <time>2019-11-29T11:05:22.000Z</time>
      </trkpt>
      <trkpt lat="43.30812" lon="5.69288">
        <ele>890</ele>
        <time>2019-11-29T11:05:23.000Z</time>
      </trkpt>
      <trkpt lat="43.30812" lon="5.69289">
        <ele>890</ele>
        <time>2019-11-29T11:05:24.000Z</time>
      </trkpt>
      <trkpt lat="43.30813" lon="5.6929">
        <ele>890</ele>
        <time>2019-11-29T11:05:25.000Z</time>
      </trkpt>
      <trkpt lat="43.30813" lon="5.6929">
        <ele>890</ele>
        <time>2019-11-29T11:05:26.000Z</time>
      </trkpt>
      <trkpt lat="43.30814" lon="5.6929">
        <ele>890</ele>
        <time>2019-11-29T11:05:27.000Z</time>
      </trkpt>
      <trkpt lat="43.30814" lon="5.69291">
        <ele>890</ele>
        <time>2019-11-29T11:05:28.000Z</time>
      </trkpt>
      <trkpt lat="43.30814" lon="5.69291">
        <ele>890</ele>
        <time>2019-11-29T11:05:29.000Z</time>
      </trkpt>
      <trkpt lat="43.30815" lon="5.69291">
        <ele>891</ele>
        <time>2019-11-29T11:05:30.000Z</time>
      </trkpt>
      <trkpt lat="43.30815" lon="5.69292">
        <ele>891</ele>
        <time>2019-11-29T11:05:31.000Z</time>
      </trkpt>
      <trkpt lat="43.30816" lon="5.69292">
        <ele>891</ele>
        <time>2019-11-29T11:05:32.000Z</time>
      </trkpt>
      <trkpt lat="43.30816" lon="5.69292">
        <ele>891</ele>
        <time>2019-11-29T11:05:33.000Z</time>
      </trkpt>
      <trkpt lat="43.30817" lon="5.69293">
        <ele>891</ele>
        <time>2019-11-29T11:05:34.000Z</time>
      </trkpt>
      <trkpt lat="43.30817" lon="5.69293">
        <ele>891</ele>
        <time>2019-11-29T11:05:35.000Z</time>
      </trkpt>
      <trkpt lat="43.30818" lon="5.69293">
        <ele>892</ele>
        <time>2019-11-29T11:05:36.000Z</time>
      </trkpt>
      <trkpt lat="43.30819" lon="5.69293">
        <ele>892</ele>
        <time>2019-11-29T11:05:37.000Z</time>
      </trkpt>
      <trkpt lat="43.30819" lon="5.69293">
        <ele>892</ele>
        <time>2019-11-29T11:05:38.000Z</time>
      </trkpt>
      <trkpt lat="43.3082" lon="5.69293">
        <ele>892</ele>
        <time>2019-11-29T11:05:39.000Z</time>
      </trkpt>
      <trkpt lat="43.3082" lon="5.69293">
        <ele>892</ele>
        <time>2019-11-29T11:05:40.000Z</time>
      </trkpt>
      <trkpt lat="43.30821" lon="5.69292">
        <ele>893</ele>
        <time>2019-11-29T11:05:41.000Z</time>
      </trkpt>
      <trkpt lat="43.30821" lon="5.69292">
        <ele>893</ele>
        <time>2019-11-29T11:05:42.000Z</time>
      </trkpt>
      <trkpt lat="43.30822" lon="5.69292">
        <ele>893</ele>
        <time>2019-11-29T11:05:43.000Z</time>
      </trkpt>
      <trkpt lat="43.30822" lon="5.69292">
        <ele>893</ele>
        <time>2019-11-29T11:05:44.000Z</time>
      </trkpt>
      <trkpt lat="43.30823" lon="5.69292">
        <ele>893</ele>
        <time>2019-11-29T11:05:45.000Z</time>
      </trkpt>
      <trkpt lat="43.30823" lon="5.69293">
        <ele>893</ele>
        <time>2019-11-29T11:05:46.000Z</time>
      </trkpt>
      <trkpt lat="43.30824" lon="5.69293">
        <ele>893</ele>
        <time>2019-11-29T11:05:47.000Z</time>
      </trkpt>
      <trkpt lat="43.30824" lon="5.69293">
        <ele>894</ele>
        <time>2019-11-29T11:05:48.000Z</time>
      </trkpt>
      <trkpt lat="43.30825" lon="5.69292">
        <ele>894</ele>
        <time>2019-11-29T11:05:49.000Z</time>
      </trkpt>
      <trkpt lat="43.30825" lon="5.69292">
        <ele>894</ele>
        <time>2019-11-29T11:05:50.000Z</time>
      </trkpt>
      <trkpt lat="43.30826" lon="5.69293">
        <ele>894</ele>
        <time>2019-11-29T11:05:51.000Z</time>
      </trkpt>
      <trkpt lat="43.30826" lon="5.69292">
        <ele>894</ele>
        <time>2019-11-29T11:05:52.000Z</time>
      </trkpt>
      <trkpt lat="43.30827" lon="5.69292">
        <ele>894</ele>
        <time>2019-11-29T11:05:53.000Z</time>
      </trkpt>
      <trkpt lat="43.30827" lon="5.69292">
        <ele>894</ele>
        <time>2019-11-29T11:05:54.000Z</time>
      </trkpt>
      <trkpt lat="43.30828" lon="5.69292">
        <ele>894</ele>
        <time>2019-11-29T11:05:55.000Z</time>
      </trkpt>
      <trkpt lat="43.30828" lon="5.69292">
        <ele>895</ele>
        <time>2019-11-29T11:05:56.000Z</time>
      </trkpt>
      <trkpt lat="43.30829" lon="5.69292">
        <ele>895</ele>
        <time>2019-11-29T11:05:57.000Z</time>
      </trkpt>
      <trkpt lat="43.30829" lon="5.69292">
        <ele>895</ele>
        <time>2019-11-29T11:05:58.000Z</time>
      </trkpt>
      <trkpt lat="43.30829" lon="5.69291">
        <ele>895</ele>
        <time>2019-11-29T11:05:59.000Z</time>
      </trkpt>
      <trkpt lat="43.3083" lon="5.69291">
        <ele>895</ele>
        <time>2019-11-29T11:06:00.000Z</time>
      </trkpt>
      <trkpt lat="43.3083" lon="5.69291">
        <ele>895</ele>
        <time>2019-11-29T11:06:01.000Z</time>
      </trkpt>
      <trkpt lat="43.30831" lon="5.69291">
        <ele>896</ele>
        <time>2019-11-29T11:06:02.000Z</time>
      </trkpt>
      <trkpt lat="43.30831" lon="5.69291">
        <ele>896</ele>
        <time>2019-11-29T11:06:03.000Z</time>
      </trkpt>
      <trkpt lat="43.30831" lon="5.69291">
        <ele>896</ele>
        <time>2019-11-29T11:06:04.000Z</time>
      </trkpt>
      <trkpt lat="43.30832" lon="5.69291">
        <ele>896</ele>
        <time>2019-11-29T11:06:05.000Z</time>
      </trkpt>
      <trkpt lat="43.30832" lon="5.69291">
        <ele>896</ele>
        <time>2019-11-29T11:06:06.000Z</time>
      </trkpt>
      <trkpt lat="43.30832" lon="5.69291">
        <ele>896</ele>
        <time>2019-11-29T11:06:07.000Z</time>
      </trkpt>
      <trkpt lat="43.30833" lon="5.69291">
        <ele>896</ele>
        <time>2019-11-29T11:06:08.000Z</time>
      </trkpt>
      <trkpt lat="43.30833" lon="5.6929">
        <ele>896</ele>
        <time>2019-11-29T11:06:09.000Z</time>
      </trkpt>
      <trkpt lat="43.30834" lon="5.6929">
        <ele>897</ele>
        <time>2019-11-29T11:06:10.000Z</time>
      </trkpt>
      <trkpt lat="43.30834" lon="5.6929">
        <ele>897</ele>
        <time>2019-11-29T11:06:11.000Z</time>
      </trkpt>
      <trkpt lat="43.30835" lon="5.6929">
        <ele>897</ele>
        <time>2019-11-29T11:06:12.000Z</time>
      </trkpt>
      <trkpt lat="43.30835" lon="5.6929">
        <ele>897</ele>
        <time>2019-11-29T11:06:13.000Z</time>
      </trkpt>
      <trkpt lat="43.30835" lon="5.6929">
        <ele>897</ele>
        <time>2019-11-29T11:06:14.000Z</time>
      </trkpt>
      <trkpt lat="43.30836" lon="5.6929">
        <ele>897</ele>
        <time>2019-11-29T11:06:15.000Z</time>
      </trkpt>
      <trkpt lat="43.30836" lon="5.6929">
        <ele>898</ele>
        <time>2019-11-29T11:06:16.000Z</time>
      </trkpt>
      <trkpt lat="43.30837" lon="5.6929">
        <ele>898</ele>
        <time>2019-11-29T11:06:17.000Z</time>
      </trkpt>
      <trkpt lat="43.30837" lon="5.6929">
        <ele>898</ele>
        <time>2019-11-29T11:06:18.000Z</time>
      </trkpt>
      <trkpt lat="43.30838" lon="5.6929">
        <ele>898</ele>
        <time>2019-11-29T11:06:19.000Z</time>
      </trkpt>
      <trkpt lat="43.30838" lon="5.6929">
        <ele>898</ele>
        <time>2019-11-29T11:06:20.000Z</time>
      </trkpt>
      <trkpt lat="43.30839" lon="5.6929">
        <ele>898</ele>
        <time>2019-11-29T11:06:21.000Z</time>
      </trkpt>
      <trkpt lat="43.3084" lon="5.6929">
        <ele>899</ele>
        <time>2019-11-29T11:06:22.000Z</time>
      </trkpt>
      <trkpt lat="43.3084" lon="5.6929">
        <ele>899</ele>
        <time>2019-11-29T11:06:23.000Z</time>
      </trkpt>
      <trkpt lat="43.3084" lon="5.69291">
        <ele>899</ele>
        <time>2019-11-29T11:06:24.000Z</time>
      </trkpt>
      <trkpt lat="43.30841" lon="5.69291">
        <ele>899</ele>
        <time>2019-11-29T11:06:25.000Z</time>
      </trkpt>
      <trkpt lat="43.30841" lon="5.69292">
        <ele>899</ele>
        <time>2019-11-29T11:06:26.000Z</time>
      </trkpt>
      <trkpt lat="43.30842" lon="5.69292">
        <ele>899</ele>
        <time>2019-11-29T11:06:27.000Z</time>
      </trkpt>
      <trkpt lat="43.30842" lon="5.69293">
        <ele>900</ele>
        <time>2019-11-29T11:06:28.000Z</time>
      </trkpt>
      <trkpt lat="43.30843" lon="5.69294">
        <ele>900</ele>
        <time>2019-11-29T11:06:29.000Z</time>
      </trkpt>
      <trkpt lat="43.30843" lon="5.69294">
        <ele>900</ele>
        <time>2019-11-29T11:06:30.000Z</time>
      </trkpt>
      <trkpt lat="43.30843" lon="5.69295">
        <ele>900</ele>
        <time>2019-11-29T11:06:31.000Z</time>
      </trkpt>
      <trkpt lat="43.30844" lon="5.69295">
        <ele>900</ele>
        <time>2019-11-29T11:06:32.000Z</time>
      </trkpt>
      <trkpt lat="43.30844" lon="5.69296">
        <ele>900</ele>
        <time>2019-11-29T11:06:33.000Z</time>
      </trkpt>
      <trkpt lat="43.30844" lon="5.69296">
        <ele>901</ele>
        <time>2019-11-29T11:06:34.000Z</time>
      </trkpt>
      <trkpt lat="43.30845" lon="5.69297">
        <ele>901</ele>
        <time>2019-11-29T11:06:35.000Z</time>
      </trkpt>
      <trkpt lat="43.30845" lon="5.69298">
        <ele>901</ele>
        <time>2019-11-29T11:06:36.000Z</time>
      </trkpt>
      <trkpt lat="43.30845" lon="5.69298">
        <ele>901</ele>
        <time>2019-11-29T11:06:37.000Z</time>
      </trkpt>
      <trkpt lat="43.30846" lon="5.69299">
        <ele>901</ele>
        <time>2019-11-29T11:06:38.000Z</time>
      </trkpt>
      <trkpt lat="43.30846" lon="5.693">
        <ele>901</ele>
        <time>2019-11-29T11:06:39.000Z</time>
      </trkpt>
      <trkpt lat="43.30846" lon="5.693">
        <ele>901</ele>
        <time>2019-11-29T11:06:40.000Z</time>
      </trkpt>
      <trkpt lat="43.30847" lon="5.69301">
        <ele>901</ele>
        <time>2019-11-29T11:06:41.000Z</time>
      </trkpt>
      <trkpt lat="43.30847" lon="5.69302">
        <ele>901</ele>
        <time>2019-11-29T11:06:42.000Z</time>
      </trkpt>
      <trkpt lat="43.30847" lon="5.69302">
        <ele>901</ele>
        <time>2019-11-29T11:06:43.000Z</time>
      </trkpt>
      <trkpt lat="43.30847" lon="5.69303">
        <ele>901</ele>
        <time>2019-11-29T11:06:44.000Z</time>
      </trkpt>
      <trkpt lat="43.30847" lon="5.69303">
        <ele>901</ele>
        <time>2019-11-29T11:06:45.000Z</time>
      </trkpt>
      <trkpt lat="43.30847" lon="5.69303">
        <ele>901</ele>
        <time>2019-11-29T11:06:46.000Z</time>
      </trkpt>
      <trkpt lat="43.30847" lon="5.69303">
        <ele>901</ele>
        <time>2019-11-29T11:06:47.000Z</time>
      </trkpt>
      <trkpt lat="43.30847" lon="5.69303">
        <ele>901</ele>
        <time>2019-11-29T11:06:48.000Z</time>
      </trkpt>
      <trkpt lat="43.30847" lon="5.69303">
        <ele>901</ele>
        <time>2019-11-29T11:06:49.000Z</time>
      </trkpt>
      <trkpt lat="43.30847" lon="5.69303">
        <ele>901</ele>
        <time>2019-11-29T11:06:50.000Z</time>
      </trkpt>
      <trkpt lat="43.30847" lon="5.69303">
        <ele>901</ele>
        <time>2019-11-29T11:06:51.000Z</time>
      </trkpt>
      <trkpt lat="43.30847" lon="5.69303">
        <ele>901</ele>
        <time>2019-11-29T11:06:52.000Z</time>
      </trkpt>
      <trkpt lat="43.30847" lon="5.69304">
        <ele>901</ele>
        <time>2019-11-29T11:06:53.000Z</time>
      </trkpt>
      <trkpt lat="43.30847" lon="5.69304">
        <ele>901</ele>
        <time>2019-11-29T11:06:54.000Z</time>
      </trkpt>
      <trkpt lat="43.30847" lon="5.69304">
        <ele>901</ele>
        <time>2019-11-29T11:06:55.000Z</time>
      </trkpt>
      <trkpt lat="43.30847" lon="5.69304">
        <ele>901</ele>
        <time>2019-11-29T11:06:56.000Z</time>
      </trkpt>
      <trkpt lat="43.30847" lon="5.69304">
        <ele>901</ele>
        <time>2019-11-29T11:06:57.000Z</time>
      </trkpt>
      <trkpt lat="43.30847" lon="5.69304">
        <ele>901</ele>
        <time>2019-11-29T11:06:58.000Z</time>
      </trkpt>
      <trkpt lat="43.30847" lon="5.69303">
        <ele>901</ele>
        <time>2019-11-29T11:06:59.000Z</time>
      </trkpt>
      <trkpt lat="43.30847" lon="5.69304">
        <ele>901</ele>
        <time>2019-11-29T11:07:00.000Z</time>
      </trkpt>
      <trkpt lat="43.30847" lon="5.69304">
        <ele>901</ele>
        <time>2019-11-29T11:07:01.000Z</time>
      </trkpt>
      <trkpt lat="43.30847" lon="5.69304">
        <ele>901</ele>
        <time>2019-11-29T11:07:02.000Z</time>
      </trkpt>
      <trkpt lat="43.30848" lon="5.69304">
        <ele>901</ele>
        <time>2019-11-29T11:07:03.000Z</time>
      </trkpt>
      <trkpt lat="43.30848" lon="5.69304">
        <ele>901</ele>
        <time>2019-11-29T11:07:04.000Z</time>
      </trkpt>
      <trkpt lat="43.30847" lon="5.69304">
        <ele>901</ele>
        <time>2019-11-29T11:07:05.000Z</time>
      </trkpt>
      <trkpt lat="43.30847" lon="5.69304">
        <ele>901</ele>
        <time>2019-11-29T11:07:06.000Z</time>
      </trkpt>
      <trkpt lat="43.30847" lon="5.69304">
        <ele>901</ele>
        <time>2019-11-29T11:07:07.000Z</time>
      </trkpt>
      <trkpt lat="43.30847" lon="5.69304">
        <ele>901</ele>
        <time>2019-11-29T11:07:08.000Z</time>
      </trkpt>
      <trkpt lat="43.30847" lon="5.69304">
        <ele>901</ele>
        <time>2019-11-29T11:07:09.000Z</time>
      </trkpt>
      <trkpt lat="43.30847" lon="5.69304">
        <ele>901</ele>
        <time>2019-11-29T11:07:10.000Z</time>
      </trkpt>
      <trkpt lat="43.30847" lon="5.69304">
        <ele>901</ele>
        <time>2019-11-29T11:07:11.000Z</time>
      </trkpt>
      <trkpt lat="43.30847" lon="5.69304">
        <ele>901</ele>
        <time>2019-11-29T11:07:12.000Z</time>
      </trkpt>
      <trkpt lat="43.30847" lon="5.69304">
        <ele>901</ele>
        <time>2019-11-29T11:07:13.000Z</time>
      </trkpt>
      <trkpt lat="43.30847" lon="5.69304">
        <ele>901</ele>
        <time>2019-11-29T11:07:14.000Z</time>
      </trkpt>
      <trkpt lat="43.30847" lon="5.69304">
        <ele>901</ele>
        <time>2019-11-29T11:07:15.000Z</time>
      </trkpt>
      <trkpt lat="43.30847" lon="5.69304">
        <ele>901</ele>
        <time>2019-11-29T11:07:16.000Z</time>
      </trkpt>
      <trkpt lat="43.30847" lon="5.69304">
        <ele>901</ele>
        <time>2019-11-29T11:07:17.000Z</time>
      </trkpt>
      <trkpt lat="43.30847" lon="5.69304">
        <ele>901</ele>
        <time>2019-11-29T11:07:18.000Z</time>
      </trkpt>
      <trkpt lat="43.30847" lon="5.69304">
        <ele>901</ele>
        <time>2019-11-29T11:07:19.000Z</time>
      </trkpt>
      <trkpt lat="43.30847" lon="5.69304">
        <ele>901</ele>
        <time>2019-11-29T11:07:20.000Z</time>
      </trkpt>
      <trkpt lat="43.30848" lon="5.69304">
        <ele>901</ele>
        <time>2019-11-29T11:07:21.000Z</time>
      </trkpt>
      <trkpt lat="43.30848" lon="5.69304">
        <ele>901</ele>
        <time>2019-11-29T11:07:22.000Z</time>
      </trkpt>
      <trkpt lat="43.30848" lon="5.69304">
        <ele>901</ele>
        <time>2019-11-29T11:07:23.000Z</time>
      </trkpt>
      <trkpt lat="43.30848" lon="5.69305">
        <ele>901</ele>
        <time>2019-11-29T11:07:24.000Z</time>
      </trkpt>
      <trkpt lat="43.30848" lon="5.69305">
        <ele>901</ele>
        <time>2019-11-29T11:07:25.000Z</time>
      </trkpt>
      <trkpt lat="43.30848" lon="5.69305">
        <ele>901</ele>
        <time>2019-11-29T11:07:26.000Z</time>
      </trkpt>
      <trkpt lat="43.30848" lon="5.69305">
        <ele>901</ele>
        <time>2019-11-29T11:07:27.000Z</time>
      </trkpt>
      <trkpt lat="43.30848" lon="5.69305">
        <ele>901</ele>
        <time>2019-11-29T11:07:28.000Z</time>
      </trkpt>
      <trkpt lat="43.30848" lon="5.69305">
        <ele>901</ele>
        <time>2019-11-29T11:07:29.000Z</time>
      </trkpt>
      <trkpt lat="43.30848" lon="5.69305">
        <ele>901</ele>
        <time>2019-11-29T11:07:30.000Z</time>
      </trkpt>
      <trkpt lat="43.30848" lon="5.69305">
        <ele>901</ele>
        <time>2019-11-29T11:07:31.000Z</time>
      </trkpt>
      <trkpt lat="43.30848" lon="5.69305">
        <ele>901</ele>
        <time>2019-11-29T11:07:32.000Z</time>
      </trkpt>
      <trkpt lat="43.30848" lon="5.69305">
        <ele>901</ele>
        <time>2019-11-29T11:07:33.000Z</time>
      </trkpt>
      <trkpt lat="43.30848" lon="5.69305">
        <ele>901</ele>
        <time>2019-11-29T11:07:34.000Z</time>
      </trkpt>
      <trkpt lat="43.30848" lon="5.69305">
        <ele>901</ele>
        <time>2019-11-29T11:07:35.000Z</time>
      </trkpt>
      <trkpt lat="43.30848" lon="5.69305">
        <ele>901</ele>
        <time>2019-11-29T11:07:36.000Z</time>
      </trkpt>
      <trkpt lat="43.30848" lon="5.69305">
        <ele>901</ele>
        <time>2019-11-29T11:07:37.000Z</time>
      </trkpt>
      <trkpt lat="43.30848" lon="5.69305">
        <ele>901</ele>
        <time>2019-11-29T11:07:38.000Z</time>
      </trkpt>
      <trkpt lat="43.30848" lon="5.69305">
        <ele>901</ele>
        <time>2019-11-29T11:07:39.000Z</time>
      </trkpt>
      <trkpt lat="43.30847" lon="5.69305">
        <ele>901</ele>
        <time>2019-11-29T11:07:40.000Z</time>
      </trkpt>
      <trkpt lat="43.30847" lon="5.69305">
        <ele>901</ele>
        <time>2019-11-29T11:07:41.000Z</time>
      </trkpt>
      <trkpt lat="43.30847" lon="5.69305">
        <ele>901</ele>
        <time>2019-11-29T11:07:42.000Z</time>
      </trkpt>
      <trkpt lat="43.30847" lon="5.69305">
        <ele>901</ele>
        <time>2019-11-29T11:07:43.000Z</time>
      </trkpt>
      <trkpt lat="43.30847" lon="5.69305">
        <ele>901</ele>
        <time>2019-11-29T11:07:44.000Z</time>
      </trkpt>
      <trkpt lat="43.30847" lon="5.69305">
        <ele>901</ele>
        <time>2019-11-29T11:07:45.000Z</time>
      </trkpt>
      <trkpt lat="43.30847" lon="5.69305">
        <ele>901</ele>
        <time>2019-11-29T11:07:46.000Z</time>
      </trkpt>
      <trkpt lat="43.30847" lon="5.69305">
        <ele>901</ele>
        <time>2019-11-29T11:07:47.000Z</time>
      </trkpt>
      <trkpt lat="43.30847" lon="5.69305">
        <ele>901</ele>
        <time>2019-11-29T11:07:48.000Z</time>
      </trkpt>
      <trkpt lat="43.30848" lon="5.69305">
        <ele>901</ele>
        <time>2019-11-29T11:07:49.000Z</time>
      </trkpt>
      <trkpt lat="43.30848" lon="5.69305">
        <ele>901</ele>
        <time>2019-11-29T11:07:50.000Z</time>
      </trkpt>
      <trkpt lat="43.30848" lon="5.69306">
        <ele>901</ele>
        <time>2019-11-29T11:07:51.000Z</time>
      </trkpt>
      <trkpt lat="43.30848" lon="5.69307">
        <ele>901</ele>
        <time>2019-11-29T11:07:52.000Z</time>
      </trkpt>
      <trkpt lat="43.30848" lon="5.69307">
        <ele>901</ele>
        <time>2019-11-29T11:07:53.000Z</time>
      </trkpt>
      <trkpt lat="43.30848" lon="5.69307">
        <ele>901</ele>
        <time>2019-11-29T11:07:54.000Z</time>
      </trkpt>
      <trkpt lat="43.30848" lon="5.69307">
        <ele>901</ele>
        <time>2019-11-29T11:07:55.000Z</time>
      </trkpt>
      <trkpt lat="43.30848" lon="5.69307">
        <ele>901</ele>
        <time>2019-11-29T11:07:56.000Z</time>
      </trkpt>
      <trkpt lat="43.30848" lon="5.69307">
        <ele>901</ele>
        <time>2019-11-29T11:07:57.000Z</time>
      </trkpt>
      <trkpt lat="43.30848" lon="5.69307">
        <ele>901</ele>
        <time>2019-11-29T11:07:58.000Z</time>
      </trkpt>
      <trkpt lat="43.30848" lon="5.69308">
        <ele>901</ele>
        <time>2019-11-29T11:07:59.000Z</time>
      </trkpt>
      <trkpt lat="43.30848" lon="5.69308">
        <ele>901</ele>
        <time>2019-11-29T11:08:00.000Z</time>
      </trkpt>
      <trkpt lat="43.30848" lon="5.69308">
        <ele>901</ele>
        <time>2019-11-29T11:08:01.000Z</time>
      </trkpt>
      <trkpt lat="43.30848" lon="5.69308">
        <ele>901</ele>
        <time>2019-11-29T11:08:02.000Z</time>
      </trkpt>
      <trkpt lat="43.30848" lon="5.69308">
        <ele>901</ele>
        <time>2019-11-29T11:08:03.000Z</time>
      </trkpt>
      <trkpt lat="43.30848" lon="5.69308">
        <ele>901</ele>
        <time>2019-11-29T11:08:04.000Z</time>
      </trkpt>
      <trkpt lat="43.30848" lon="5.69308">
        <ele>901</ele>
        <time>2019-11-29T11:08:05.000Z</time>
      </trkpt>
      <trkpt lat="43.30848" lon="5.69308">
        <ele>901</ele>
        <time>2019-11-29T11:08:06.000Z</time>
      </trkpt>
      <trkpt lat="43.30848" lon="5.69308">
        <ele>901</ele>
        <time>2019-11-29T11:08:07.000Z</time>
      </trkpt>
      <trkpt lat="43.30848" lon="5.69308">
        <ele>901</ele>
        <time>2019-11-29T11:08:08.000Z</time>
      </trkpt>
      <trkpt lat="43.30848" lon="5.69308">
        <ele>901</ele>
        <time>2019-11-29T11:08:09.000Z</time>
      </trkpt>
      <trkpt lat="43.30848" lon="5.69308">
        <ele>901</ele>
        <time>2019-11-29T11:08:10.000Z</time>
      </trkpt>
      <trkpt lat="43.30848" lon="5.69308">
        <ele>901</ele>
        <time>2019-11-29T11:08:11.000Z</time>
      </trkpt>
      <trkpt lat="43.30848" lon="5.69308">
        <ele>901</ele>
        <time>2019-11-29T11:08:12.000Z</time>
      </trkpt>
      <trkpt lat="43.30848" lon="5.69308">
        <ele>901</ele>
        <time>2019-11-29T11:08:13.000Z</time>
      </trkpt>
      <trkpt lat="43.30848" lon="5.69308">
        <ele>901</ele>
        <time>2019-11-29T11:08:14.000Z</time>
      </trkpt>
      <trkpt lat="43.30848" lon="5.69308">
        <ele>901</ele>
        <time>2019-11-29T11:08:15.000Z</time>
      </trkpt>
      <trkpt lat="43.30848" lon="5.69308">
        <ele>901</ele>
        <time>2019-11-29T11:08:16.000Z</time>
      </trkpt>
      <trkpt lat="43.30848" lon="5.69308">
        <ele>901</ele>
        <time>2019-11-29T11:08:17.000Z</time>
      </trkpt>
      <trkpt lat="43.30848" lon="5.69308">
        <ele>901</ele>
        <time>2019-11-29T11:08:18.000Z</time>
      </trkpt>
      <trkpt lat="43.30848" lon="5.69308">
        <ele>901</ele>
        <time>2019-11-29T11:08:19.000Z</time>
      </trkpt>
      <trkpt lat="43.30848" lon="5.69308">
        <ele>901</ele>
        <time>2019-11-29T11:08:20.000Z</time>
      </trkpt>
      <trkpt lat="43.30848" lon="5.69308">
        <ele>901</ele>
        <time>2019-11-29T11:08:21.000Z</time>
      </trkpt>
      <trkpt lat="43.30848" lon="5.69308">
        <ele>901</ele>
        <time>2019-11-29T11:08:22.000Z</time>
      </trkpt>
      <trkpt lat="43.30848" lon="5.69308">
        <ele>901</ele>
        <time>2019-11-29T11:08:23.000Z</time>
      </trkpt>
      <trkpt lat="43.30848" lon="5.69308">
        <ele>901</ele>
        <time>2019-11-29T11:08:24.000Z</time>
      </trkpt>
      <trkpt lat="43.30848" lon="5.69308">
        <ele>901</ele>
        <time>2019-11-29T11:08:25.000Z</time>
      </trkpt>
      <trkpt lat="43.30848" lon="5.69308">
        <ele>901</ele>
        <time>2019-11-29T11:08:26.000Z</time>
      </trkpt>
      <trkpt lat="43.30848" lon="5.69308">
        <ele>901</ele>
        <time>2019-11-29T11:08:27.000Z</time>
      </trkpt>
      <trkpt lat="43.30848" lon="5.69308">
        <ele>901</ele>
        <time>2019-11-29T11:08:28.000Z</time>
      </trkpt>
      <trkpt lat="43.30848" lon="5.69308">
        <ele>901</ele>
        <time>2019-11-29T11:08:29.000Z</time>
      </trkpt>
      <trkpt lat="43.30848" lon="5.69308">
        <ele>901</ele>
        <time>2019-11-29T11:08:30.000Z</time>
      </trkpt>
      <trkpt lat="43.30848" lon="5.69308">
        <ele>901</ele>
        <time>2019-11-29T11:08:31.000Z</time>
      </trkpt>
      <trkpt lat="43.30848" lon="5.69308">
        <ele>901</ele>
        <time>2019-11-29T11:08:32.000Z</time>
      </trkpt>
      <trkpt lat="43.30848" lon="5.69308">
        <ele>901</ele>
        <time>2019-11-29T11:08:33.000Z</time>
      </trkpt>
      <trkpt lat="43.30848" lon="5.69308">
        <ele>901</ele>
        <time>2019-11-29T11:08:34.000Z</time>
      </trkpt>
      <trkpt lat="43.30848" lon="5.69308">
        <ele>901</ele>
        <time>2019-11-29T11:08:35.000Z</time>
      </trkpt>
      <trkpt lat="43.30848" lon="5.69308">
        <ele>901</ele>
        <time>2019-11-29T11:08:36.000Z</time>
      </trkpt>
      <trkpt lat="43.30848" lon="5.69308">
        <ele>901</ele>
        <time>2019-11-29T11:08:37.000Z</time>
      </trkpt>
      <trkpt lat="43.30848" lon="5.69308">
        <ele>901</ele>
        <time>2019-11-29T11:08:38.000Z</time>
      </trkpt>
      <trkpt lat="43.30848" lon="5.69308">
        <ele>901</ele>
        <time>2019-11-29T11:08:39.000Z</time>
      </trkpt>
      <trkpt lat="43.30848" lon="5.69308">
        <ele>901</ele>
        <time>2019-11-29T11:08:40.000Z</time>
      </trkpt>
      <trkpt lat="43.30848" lon="5.69308">
        <ele>901</ele>
        <time>2019-11-29T11:08:41.000Z</time>
      </trkpt>
      <trkpt lat="43.30848" lon="5.69308">
        <ele>901</ele>
        <time>2019-11-29T11:08:42.000Z</time>
      </trkpt>
      <trkpt lat="43.30848" lon="5.69308">
        <ele>901</ele>
        <time>2019-11-29T11:08:43.000Z</time>
      </trkpt>
      <trkpt lat="43.30848" lon="5.69308">
        <ele>901</ele>
        <time>2019-11-29T11:08:44.000Z</time>
      </trkpt>
      <trkpt lat="43.30848" lon="5.69308">
        <ele>901</ele>
        <time>2019-11-29T11:08:45.000Z</time>
      </trkpt>
      <trkpt lat="43.30848" lon="5.69308">
        <ele>901</ele>
        <time>2019-11-29T11:08:46.000Z</time>
      </trkpt>
      <trkpt lat="43.30848" lon="5.69308">
        <ele>901</ele>
        <time>2019-11-29T11:08:47.000Z</time>
      </trkpt>
      <trkpt lat="43.30848" lon="5.69308">
        <ele>901</ele>
        <time>2019-11-29T11:08:48.000Z</time>
      </trkpt>
      <trkpt lat="43.30848" lon="5.69308">
        <ele>901</ele>
        <time>2019-11-29T11:08:49.000Z</time>
      </trkpt>
      <trkpt lat="43.30848" lon="5.69308">
        <ele>901</ele>
        <time>2019-11-29T11:08:50.000Z</time>
      </trkpt>
      <trkpt lat="43.30848" lon="5.69308">
        <ele>901</ele>
        <time>2019-11-29T11:08:51.000Z</time>
      </trkpt>
      <trkpt lat="43.30848" lon="5.69308">
        <ele>901</ele>
        <time>2019-11-29T11:08:52.000Z</time>
      </trkpt>
      <trkpt lat="43.30848" lon="5.69308">
        <ele>901</ele>
        <time>2019-11-29T11:08:53.000Z</time>
      </trkpt>
      <trkpt lat="43.30848" lon="5.69308">
        <ele>901</ele>
        <time>2019-11-29T11:08:54.000Z</time>
      </trkpt>
      <trkpt lat="43.30848" lon="5.69308">
        <ele>901</ele>
        <time>2019-11-29T11:08:55.000Z</time>
      </trkpt>
      <trkpt lat="43.30848" lon="5.69308">
        <ele>901</ele>
        <time>2019-11-29T11:08:56.000Z</time>
      </trkpt>
      <trkpt lat="43.30848" lon="5.69308">
        <ele>901</ele>
        <time>2019-11-29T11:08:57.000Z</time>
      </trkpt>
      <trkpt lat="43.30848" lon="5.69308">
        <ele>901</ele>
        <time>2019-11-29T11:08:58.000Z</time>
      </trkpt>
      <trkpt lat="43.30848" lon="5.69308">
        <ele>901</ele>
        <time>2019-11-29T11:08:59.000Z</time>
      </trkpt>
      <trkpt lat="43.30848" lon="5.69308">
        <ele>901</ele>
        <time>2019-11-29T11:09:00.000Z</time>
      </trkpt>
      <trkpt lat="43.30848" lon="5.69308">
        <ele>901</ele>
        <time>2019-11-29T11:09:01.000Z</time>
      </trkpt>
      <trkpt lat="43.30848" lon="5.69308">
        <ele>901</ele>
        <time>2019-11-29T11:09:02.000Z</time>
      </trkpt>
      <trkpt lat="43.30848" lon="5.69308">
        <ele>901</ele>
        <time>2019-11-29T11:09:03.000Z</time>
      </trkpt>
      <trkpt lat="43.30848" lon="5.69308">
        <ele>901</ele>
        <time>2019-11-29T11:09:04.000Z</time>
      </trkpt>
      <trkpt lat="43.30848" lon="5.69308">
        <ele>901</ele>
        <time>2019-11-29T11:09:05.000Z</time>
      </trkpt>
      <trkpt lat="43.30848" lon="5.69308">
        <ele>901</ele>
        <time>2019-11-29T11:09:06.000Z</time>
      </trkpt>
      <trkpt lat="43.30848" lon="5.69308">
        <ele>901</ele>
        <time>2019-11-29T11:09:07.000Z</time>
      </trkpt>
      <trkpt lat="43.30848" lon="5.69308">
        <ele>901</ele>
        <time>2019-11-29T11:09:08.000Z</time>
      </trkpt>
      <trkpt lat="43.30848" lon="5.69308">
        <ele>901</ele>
        <time>2019-11-29T11:09:09.000Z</time>
      </trkpt>
      <trkpt lat="43.30848" lon="5.69308">
        <ele>901</ele>
        <time>2019-11-29T11:09:10.000Z</time>
      </trkpt>
      <trkpt lat="43.30848" lon="5.69308">
        <ele>901</ele>
        <time>2019-11-29T11:09:11.000Z</time>
      </trkpt>
      <trkpt lat="43.30848" lon="5.69308">
        <ele>901</ele>
        <time>2019-11-29T11:09:12.000Z</time>
      </trkpt>
      <trkpt lat="43.30848" lon="5.69308">
        <ele>901</ele>
        <time>2019-11-29T11:09:13.000Z</time>
      </trkpt>
      <trkpt lat="43.30848" lon="5.69308">
        <ele>901</ele>
        <time>2019-11-29T11:09:14.000Z</time>
      </trkpt>
      <trkpt lat="43.30848" lon="5.69308">
        <ele>901</ele>
        <time>2019-11-29T11:09:15.000Z</time>
      </trkpt>
      <trkpt lat="43.30848" lon="5.69308">
        <ele>901</ele>
        <time>2019-11-29T11:09:16.000Z</time>
      </trkpt>
      <trkpt lat="43.30848" lon="5.69308">
        <ele>901</ele>
        <time>2019-11-29T11:09:17.000Z</time>
      </trkpt>
      <trkpt lat="43.30848" lon="5.69308">
        <ele>901</ele>
        <time>2019-11-29T11:09:18.000Z</time>
      </trkpt>
      <trkpt lat="43.30848" lon="5.69308">
        <ele>901</ele>
        <time>2019-11-29T11:09:19.000Z</time>
      </trkpt>
      <trkpt lat="43.30848" lon="5.69308">
        <ele>901</ele>
        <time>2019-11-29T11:09:20.000Z</time>
      </trkpt>
      <trkpt lat="43.30848" lon="5.69308">
        <ele>901</ele>
        <time>2019-11-29T11:09:21.000Z</time>
      </trkpt>
      <trkpt lat="43.30848" lon="5.69308">
        <ele>901</ele>
        <time>2019-11-29T11:09:22.000Z</time>
      </trkpt>
      <trkpt lat="43.30848" lon="5.69308">
        <ele>901</ele>
        <time>2019-11-29T11:09:23.000Z</time>
      </trkpt>
      <trkpt lat="43.30848" lon="5.69308">
        <ele>901</ele>
        <time>2019-11-29T11:09:24.000Z</time>
      </trkpt>
      <trkpt lat="43.30848" lon="5.69308">
        <ele>901</ele>
        <time>2019-11-29T11:09:25.000Z</time>
      </trkpt>
      <trkpt lat="43.30848" lon="5.69308">
        <ele>901</ele>
        <time>2019-11-29T11:09:26.000Z</time>
      </trkpt>
      <trkpt lat="43.30848" lon="5.69308">
        <ele>901</ele>
        <time>2019-11-29T11:09:27.000Z</time>
      </trkpt>
      <trkpt lat="43.30848" lon="5.69308">
        <ele>901</ele>
        <time>2019-11-29T11:09:28.000Z</time>
      </trkpt>
      <trkpt lat="43.30848" lon="5.69308">
        <ele>901</ele>
        <time>2019-11-29T11:09:29.000Z</time>
      </trkpt>
      <trkpt lat="43.30848" lon="5.69308">
        <ele>901</ele>
        <time>2019-11-29T11:09:30.000Z</time>
      </trkpt>
      <trkpt lat="43.30848" lon="5.69308">
        <ele>901</ele>
        <time>2019-11-29T11:09:31.000Z</time>
      </trkpt>
      <trkpt lat="43.30848" lon="5.69308">
        <ele>901</ele>
        <time>2019-11-29T11:09:32.000Z</time>
      </trkpt>
      <trkpt lat="43.30848" lon="5.69308">
        <ele>901</ele>
        <time>2019-11-29T11:09:33.000Z</time>
      </trkpt>
      <trkpt lat="43.30848" lon="5.69308">
        <ele>901</ele>
        <time>2019-11-29T11:09:34.000Z</time>
      </trkpt>
      <trkpt lat="43.30848" lon="5.69308">
        <ele>901</ele>
        <time>2019-11-29T11:09:35.000Z</time>
      </trkpt>
      <trkpt lat="43.30848" lon="5.69308">
        <ele>901</ele>
        <time>2019-11-29T11:09:36.000Z</time>
      </trkpt>
      <trkpt lat="43.30848" lon="5.69308">
        <ele>901</ele>
        <time>2019-11-29T11:09:37.000Z</time>
      </trkpt>
      <trkpt lat="43.30848" lon="5.69308">
        <ele>901</ele>
        <time>2019-11-29T11:09:38.000Z</time>
      </trkpt>
      <trkpt lat="43.30848" lon="5.69308">
        <ele>901</ele>
        <time>2019-11-29T11:09:39.000Z</time>
      </trkpt>
      <trkpt lat="43.30848" lon="5.69308">
        <ele>901</ele>
        <time>2019-11-29T11:09:40.000Z</time>
      </trkpt>
      <trkpt lat="43.30848" lon="5.69308">
        <ele>901</ele>
        <time>2019-11-29T11:09:41.000Z</time>
      </trkpt>
      <trkpt lat="43.30848" lon="5.69308">
        <ele>901</ele>
        <time>2019-11-29T11:09:42.000Z</time>
      </trkpt>
      <trkpt lat="43.30848" lon="5.69308">
        <ele>901</ele>
        <time>2019-11-29T11:09:43.000Z</time>
      </trkpt>
      <trkpt lat="43.30848" lon="5.69308">
        <ele>901</ele>
        <time>2019-11-29T11:09:44.000Z</time>
      </trkpt>
      <trkpt lat="43.30848" lon="5.69308">
        <ele>901</ele>
        <time>2019-11-29T11:09:45.000Z</time>
      </trkpt>
      <trkpt lat="43.30848" lon="5.69308">
        <ele>901</ele>
        <time>2019-11-29T11:09:46.000Z</time>
      </trkpt>
      <trkpt lat="43.30848" lon="5.69308">
        <ele>901</ele>
        <time>2019-11-29T11:09:47.000Z</time>
      </trkpt>
      <trkpt lat="43.30848" lon="5.69308">
        <ele>901</ele>
        <time>2019-11-29T11:09:48.000Z</time>
      </trkpt>
      <trkpt lat="43.30848" lon="5.69307">
        <ele>901</ele>
        <time>2019-11-29T11:09:49.000Z</time>
      </trkpt>
      <trkpt lat="43.30848" lon="5.69307">
        <ele>901</ele>
        <time>2019-11-29T11:09:50.000Z</time>
      </trkpt>
      <trkpt lat="43.30848" lon="5.69308">
        <ele>901</ele>
        <time>2019-11-29T11:09:51.000Z</time>
      </trkpt>
      <trkpt lat="43.30849" lon="5.69309">
        <ele>901</ele>
        <time>2019-11-29T11:09:52.000Z</time>
      </trkpt>
      <trkpt lat="43.30849" lon="5.6931">
        <ele>901</ele>
        <time>2019-11-29T11:09:53.000Z</time>
      </trkpt>
      <trkpt lat="43.3085" lon="5.69311">
        <ele>901</ele>
        <time>2019-11-29T11:09:54.000Z</time>
      </trkpt>
      <trkpt lat="43.30851" lon="5.69312">
        <ele>901</ele>
        <time>2019-11-29T11:09:55.000Z</time>
      </trkpt>
      <trkpt lat="43.30851" lon="5.69313">
        <ele>901</ele>
        <time>2019-11-29T11:09:56.000Z</time>
      </trkpt>
      <trkpt lat="43.30852" lon="5.69314">
        <ele>901</ele>
        <time>2019-11-29T11:09:57.000Z</time>
      </trkpt>
      <trkpt lat="43.30853" lon="5.69315">
        <ele>902</ele>
        <time>2019-11-29T11:09:58.000Z</time>
      </trkpt>
      <trkpt lat="43.30853" lon="5.69315">
        <ele>902</ele>
        <time>2019-11-29T11:09:59.000Z</time>
      </trkpt>
      <trkpt lat="43.30854" lon="5.69316">
        <ele>902</ele>
        <time>2019-11-29T11:10:00.000Z</time>
      </trkpt>
      <trkpt lat="43.30855" lon="5.69317">
        <ele>902</ele>
        <time>2019-11-29T11:10:01.000Z</time>
      </trkpt>
      <trkpt lat="43.30855" lon="5.69318">
        <ele>902</ele>
        <time>2019-11-29T11:10:02.000Z</time>
      </trkpt>
      <trkpt lat="43.30856" lon="5.69319">
        <ele>902</ele>
        <time>2019-11-29T11:10:03.000Z</time>
      </trkpt>
      <trkpt lat="43.30857" lon="5.69319">
        <ele>902</ele>
        <time>2019-11-29T11:10:04.000Z</time>
      </trkpt>
      <trkpt lat="43.30858" lon="5.6932">
        <ele>902</ele>
        <time>2019-11-29T11:10:05.000Z</time>
      </trkpt>
      <trkpt lat="43.30859" lon="5.69321">
        <ele>902</ele>
        <time>2019-11-29T11:10:06.000Z</time>
      </trkpt>
      <trkpt lat="43.30859" lon="5.69321">
        <ele>903</ele>
        <time>2019-11-29T11:10:07.000Z</time>
      </trkpt>
      <trkpt lat="43.3086" lon="5.69322">
        <ele>903</ele>
        <time>2019-11-29T11:10:08.000Z</time>
      </trkpt>
      <trkpt lat="43.30861" lon="5.69322">
        <ele>903</ele>
        <time>2019-11-29T11:10:09.000Z</time>
      </trkpt>
      <trkpt lat="43.30861" lon="5.69323">
        <ele>903</ele>
        <time>2019-11-29T11:10:10.000Z</time>
      </trkpt>
      <trkpt lat="43.30862" lon="5.69323">
        <ele>903</ele>
        <time>2019-11-29T11:10:11.000Z</time>
      </trkpt>
      <trkpt lat="43.30863" lon="5.69324">
        <ele>904</ele>
        <time>2019-11-29T11:10:12.000Z</time>
      </trkpt>
      <trkpt lat="43.30863" lon="5.69325">
        <ele>904</ele>
        <time>2019-11-29T11:10:13.000Z</time>
      </trkpt>
      <trkpt lat="43.30864" lon="5.69326">
        <ele>904</ele>
        <time>2019-11-29T11:10:14.000Z</time>
      </trkpt>
      <trkpt lat="43.30865" lon="5.69327">
        <ele>904</ele>
        <time>2019-11-29T11:10:15.000Z</time>
      </trkpt>
      <trkpt lat="43.30866" lon="5.69327">
        <ele>904</ele>
        <time>2019-11-29T11:10:16.000Z</time>
      </trkpt>
      <trkpt lat="43.30867" lon="5.69328">
        <ele>904</ele>
        <time>2019-11-29T11:10:17.000Z</time>
      </trkpt>
      <trkpt lat="43.30868" lon="5.6933">
        <ele>904</ele>
        <time>2019-11-29T11:10:18.000Z</time>
      </trkpt>
      <trkpt lat="43.30868" lon="5.69331">
        <ele>904</ele>
        <time>2019-11-29T11:10:19.000Z</time>
      </trkpt>
      <trkpt lat="43.30869" lon="5.69332">
        <ele>904</ele>
        <time>2019-11-29T11:10:20.000Z</time>
      </trkpt>
      <trkpt lat="43.30869" lon="5.69333">
        <ele>904</ele>
        <time>2019-11-29T11:10:21.000Z</time>
      </trkpt>
      <trkpt lat="43.3087" lon="5.69334">
        <ele>904</ele>
        <time>2019-11-29T11:10:22.000Z</time>
      </trkpt>
      <trkpt lat="43.3087" lon="5.69336">
        <ele>905</ele>
        <time>2019-11-29T11:10:23.000Z</time>
      </trkpt>
      <trkpt lat="43.30871" lon="5.69337">
        <ele>905</ele>
        <time>2019-11-29T11:10:24.000Z</time>
      </trkpt>
      <trkpt lat="43.30872" lon="5.69338">
        <ele>905</ele>
        <time>2019-11-29T11:10:25.000Z</time>
      </trkpt>
      <trkpt lat="43.30872" lon="5.69339">
        <ele>905</ele>
        <time>2019-11-29T11:10:26.000Z</time>
      </trkpt>
      <trkpt lat="43.30873" lon="5.6934">
        <ele>905</ele>
        <time>2019-11-29T11:10:27.000Z</time>
      </trkpt>
      <trkpt lat="43.30874" lon="5.69341">
        <ele>905</ele>
        <time>2019-11-29T11:10:28.000Z</time>
      </trkpt>
      <trkpt lat="43.30875" lon="5.69341">
        <ele>905</ele>
        <time>2019-11-29T11:10:29.000Z</time>
      </trkpt>
      <trkpt lat="43.30875" lon="5.69341">
        <ele>905</ele>
        <time>2019-11-29T11:10:30.000Z</time>
      </trkpt>
      <trkpt lat="43.30876" lon="5.69342">
        <ele>905</ele>
        <time>2019-11-29T11:10:31.000Z</time>
      </trkpt>
      <trkpt lat="43.30877" lon="5.69342">
        <ele>905</ele>
        <time>2019-11-29T11:10:32.000Z</time>
      </trkpt>
      <trkpt lat="43.30878" lon="5.69343">
        <ele>905</ele>
        <time>2019-11-29T11:10:33.000Z</time>
      </trkpt>
      <trkpt lat="43.30879" lon="5.69343">
        <ele>905</ele>
        <time>2019-11-29T11:10:34.000Z</time>
      </trkpt>
      <trkpt lat="43.3088" lon="5.69344">
        <ele>905</ele>
        <time>2019-11-29T11:10:35.000Z</time>
      </trkpt>
      <trkpt lat="43.3088" lon="5.69344">
        <ele>906</ele>
        <time>2019-11-29T11:10:36.000Z</time>
      </trkpt>
      <trkpt lat="43.30881" lon="5.69344">
        <ele>906</ele>
        <time>2019-11-29T11:10:37.000Z</time>
      </trkpt>
      <trkpt lat="43.30882" lon="5.69344">
        <ele>906</ele>
        <time>2019-11-29T11:10:38.000Z</time>
      </trkpt>
      <trkpt lat="43.30882" lon="5.69344">
        <ele>906</ele>
        <time>2019-11-29T11:10:39.000Z</time>
      </trkpt>
      <trkpt lat="43.30883" lon="5.69344">
        <ele>906</ele>
        <time>2019-11-29T11:10:40.000Z</time>
      </trkpt>
      <trkpt lat="43.30883" lon="5.69344">
        <ele>906</ele>
        <time>2019-11-29T11:10:41.000Z</time>
      </trkpt>
      <trkpt lat="43.30884" lon="5.69344">
        <ele>907</ele>
        <time>2019-11-29T11:10:42.000Z</time>
      </trkpt>
      <trkpt lat="43.30884" lon="5.69344">
        <ele>907</ele>
        <time>2019-11-29T11:10:43.000Z</time>
      </trkpt>
      <trkpt lat="43.30885" lon="5.69344">
        <ele>907</ele>
        <time>2019-11-29T11:10:44.000Z</time>
      </trkpt>
      <trkpt lat="43.30886" lon="5.69344">
        <ele>907</ele>
        <time>2019-11-29T11:10:45.000Z</time>
      </trkpt>
      <trkpt lat="43.30887" lon="5.69345">
        <ele>907</ele>
        <time>2019-11-29T11:10:46.000Z</time>
      </trkpt>
      <trkpt lat="43.30887" lon="5.69346">
        <ele>907</ele>
        <time>2019-11-29T11:10:47.000Z</time>
      </trkpt>
      <trkpt lat="43.30888" lon="5.69346">
        <ele>907</ele>
        <time>2019-11-29T11:10:48.000Z</time>
      </trkpt>
      <trkpt lat="43.30889" lon="5.69346">
        <ele>907</ele>
        <time>2019-11-29T11:10:49.000Z</time>
      </trkpt>
      <trkpt lat="43.3089" lon="5.69346">
        <ele>907</ele>
        <time>2019-11-29T11:10:50.000Z</time>
      </trkpt>
      <trkpt lat="43.3089" lon="5.69346">
        <ele>908</ele>
        <time>2019-11-29T11:10:51.000Z</time>
      </trkpt>
      <trkpt lat="43.30891" lon="5.69346">
        <ele>908</ele>
        <time>2019-11-29T11:10:52.000Z</time>
      </trkpt>
      <trkpt lat="43.30892" lon="5.69346">
        <ele>908</ele>
        <time>2019-11-29T11:10:53.000Z</time>
      </trkpt>
      <trkpt lat="43.30893" lon="5.69346">
        <ele>908</ele>
        <time>2019-11-29T11:10:54.000Z</time>
      </trkpt>
      <trkpt lat="43.30893" lon="5.69346">
        <ele>908</ele>
        <time>2019-11-29T11:10:55.000Z</time>
      </trkpt>
      <trkpt lat="43.30894" lon="5.69346">
        <ele>908</ele>
        <time>2019-11-29T11:10:56.000Z</time>
      </trkpt>
      <trkpt lat="43.30895" lon="5.69345">
        <ele>909</ele>
        <time>2019-11-29T11:10:57.000Z</time>
      </trkpt>
      <trkpt lat="43.30895" lon="5.69345">
        <ele>909</ele>
        <time>2019-11-29T11:10:58.000Z</time>
      </trkpt>
      <trkpt lat="43.30896" lon="5.69345">
        <ele>909</ele>
        <time>2019-11-29T11:10:59.000Z</time>
      </trkpt>
      <trkpt lat="43.30896" lon="5.69345">
        <ele>909</ele>
        <time>2019-11-29T11:11:00.000Z</time>
      </trkpt>
      <trkpt lat="43.30897" lon="5.69345">
        <ele>909</ele>
        <time>2019-11-29T11:11:01.000Z</time>
      </trkpt>
      <trkpt lat="43.30898" lon="5.69344">
        <ele>909</ele>
        <time>2019-11-29T11:11:02.000Z</time>
      </trkpt>
      <trkpt lat="43.30898" lon="5.69344">
        <ele>909</ele>
        <time>2019-11-29T11:11:03.000Z</time>
      </trkpt>
      <trkpt lat="43.30899" lon="5.69344">
        <ele>910</ele>
        <time>2019-11-29T11:11:04.000Z</time>
      </trkpt>
      <trkpt lat="43.30899" lon="5.69343">
        <ele>910</ele>
        <time>2019-11-29T11:11:05.000Z</time>
      </trkpt>
      <trkpt lat="43.309" lon="5.69343">
        <ele>910</ele>
        <time>2019-11-29T11:11:06.000Z</time>
      </trkpt>
      <trkpt lat="43.30901" lon="5.69343">
        <ele>910</ele>
        <time>2019-11-29T11:11:07.000Z</time>
      </trkpt>
      <trkpt lat="43.30901" lon="5.69342">
        <ele>910</ele>
        <time>2019-11-29T11:11:08.000Z</time>
      </trkpt>
      <trkpt lat="43.30902" lon="5.69342">
        <ele>910</ele>
        <time>2019-11-29T11:11:09.000Z</time>
      </trkpt>
      <trkpt lat="43.30902" lon="5.69342">
        <ele>911</ele>
        <time>2019-11-29T11:11:10.000Z</time>
      </trkpt>
      <trkpt lat="43.30903" lon="5.69342">
        <ele>911</ele>
        <time>2019-11-29T11:11:11.000Z</time>
      </trkpt>
      <trkpt lat="43.30903" lon="5.69341">
        <ele>911</ele>
        <time>2019-11-29T11:11:12.000Z</time>
      </trkpt>
      <trkpt lat="43.30904" lon="5.69341">
        <ele>911</ele>
        <time>2019-11-29T11:11:13.000Z</time>
      </trkpt>
      <trkpt lat="43.30904" lon="5.6934">
        <ele>911</ele>
        <time>2019-11-29T11:11:14.000Z</time>
      </trkpt>
      <trkpt lat="43.30905" lon="5.6934">
        <ele>911</ele>
        <time>2019-11-29T11:11:15.000Z</time>
      </trkpt>
      <trkpt lat="43.30905" lon="5.6934">
        <ele>911</ele>
        <time>2019-11-29T11:11:16.000Z</time>
      </trkpt>
      <trkpt lat="43.30906" lon="5.69339">
        <ele>912</ele>
        <time>2019-11-29T11:11:17.000Z</time>
      </trkpt>
      <trkpt lat="43.30906" lon="5.69339">
        <ele>912</ele>
        <time>2019-11-29T11:11:18.000Z</time>
      </trkpt>
      <trkpt lat="43.30907" lon="5.69339">
        <ele>912</ele>
        <time>2019-11-29T11:11:19.000Z</time>
      </trkpt>
      <trkpt lat="43.30907" lon="5.69339">
        <ele>912</ele>
        <time>2019-11-29T11:11:20.000Z</time>
      </trkpt>
      <trkpt lat="43.30908" lon="5.69338">
        <ele>912</ele>
        <time>2019-11-29T11:11:21.000Z</time>
      </trkpt>
      <trkpt lat="43.30908" lon="5.69338">
        <ele>912</ele>
        <time>2019-11-29T11:11:22.000Z</time>
      </trkpt>
      <trkpt lat="43.30909" lon="5.69338">
        <ele>913</ele>
        <time>2019-11-29T11:11:23.000Z</time>
      </trkpt>
      <trkpt lat="43.30909" lon="5.69337">
        <ele>913</ele>
        <time>2019-11-29T11:11:24.000Z</time>
      </trkpt>
      <trkpt lat="43.30909" lon="5.69337">
        <ele>913</ele>
        <time>2019-11-29T11:11:25.000Z</time>
      </trkpt>
      <trkpt lat="43.3091" lon="5.69337">
        <ele>913</ele>
        <time>2019-11-29T11:11:26.000Z</time>
      </trkpt>
      <trkpt lat="43.3091" lon="5.69337">
        <ele>913</ele>
        <time>2019-11-29T11:11:27.000Z</time>
      </trkpt>
      <trkpt lat="43.30911" lon="5.69336">
        <ele>913</ele>
        <time>2019-11-29T11:11:28.000Z</time>
      </trkpt>
      <trkpt lat="43.30911" lon="5.69336">
        <ele>913</ele>
        <time>2019-11-29T11:11:29.000Z</time>
      </trkpt>
      <trkpt lat="43.30911" lon="5.69336">
        <ele>914</ele>
        <time>2019-11-29T11:11:30.000Z</time>
      </trkpt>
      <trkpt lat="43.30911" lon="5.69336">
        <ele>914</ele>
        <time>2019-11-29T11:11:31.000Z</time>
      </trkpt>
      <trkpt lat="43.30912" lon="5.69336">
        <ele>914</ele>
        <time>2019-11-29T11:11:32.000Z</time>
      </trkpt>
      <trkpt lat="43.30912" lon="5.69336">
        <ele>914</ele>
        <time>2019-11-29T11:11:33.000Z</time>
      </trkpt>
      <trkpt lat="43.30913" lon="5.69336">
        <ele>914</ele>
        <time>2019-11-29T11:11:34.000Z</time>
      </trkpt>
      <trkpt lat="43.30913" lon="5.69335">
        <ele>914</ele>
        <time>2019-11-29T11:11:35.000Z</time>
      </trkpt>
      <trkpt lat="43.30914" lon="5.69335">
        <ele>914</ele>
        <time>2019-11-29T11:11:36.000Z</time>
      </trkpt>
      <trkpt lat="43.30914" lon="5.69335">
        <ele>914</ele>
        <time>2019-11-29T11:11:37.000Z</time>
      </trkpt>
      <trkpt lat="43.30915" lon="5.69334">
        <ele>915</ele>
        <time>2019-11-29T11:11:38.000Z</time>
      </trkpt>
      <trkpt lat="43.30915" lon="5.69334">
        <ele>915</ele>
        <time>2019-11-29T11:11:39.000Z</time>
      </trkpt>
      <trkpt lat="43.30916" lon="5.69334">
        <ele>915</ele>
        <time>2019-11-29T11:11:40.000Z</time>
      </trkpt>
      <trkpt lat="43.30917" lon="5.69333">
        <ele>915</ele>
        <time>2019-11-29T11:11:41.000Z</time>
      </trkpt>
      <trkpt lat="43.30917" lon="5.69333">
        <ele>915</ele>
        <time>2019-11-29T11:11:42.000Z</time>
      </trkpt>
      <trkpt lat="43.30918" lon="5.69333">
        <ele>915</ele>
        <time>2019-11-29T11:11:43.000Z</time>
      </trkpt>
      <trkpt lat="43.30918" lon="5.69333">
        <ele>915</ele>
        <time>2019-11-29T11:11:44.000Z</time>
      </trkpt>
      <trkpt lat="43.30919" lon="5.69333">
        <ele>916</ele>
        <time>2019-11-29T11:11:45.000Z</time>
      </trkpt>
      <trkpt lat="43.30919" lon="5.69332">
        <ele>916</ele>
        <time>2019-11-29T11:11:46.000Z</time>
      </trkpt>
      <trkpt lat="43.3092" lon="5.69332">
        <ele>916</ele>
        <time>2019-11-29T11:11:47.000Z</time>
      </trkpt>
      <trkpt lat="43.3092" lon="5.69331">
        <ele>916</ele>
        <time>2019-11-29T11:11:48.000Z</time>
      </trkpt>
      <trkpt lat="43.30921" lon="5.69331">
        <ele>916</ele>
        <time>2019-11-29T11:11:49.000Z</time>
      </trkpt>
      <trkpt lat="43.30921" lon="5.69331">
        <ele>916</ele>
        <time>2019-11-29T11:11:50.000Z</time>
      </trkpt>
      <trkpt lat="43.30922" lon="5.69331">
        <ele>916</ele>
        <time>2019-11-29T11:11:51.000Z</time>
      </trkpt>
      <trkpt lat="43.30922" lon="5.69331">
        <ele>917</ele>
        <time>2019-11-29T11:11:52.000Z</time>
      </trkpt>
      <trkpt lat="43.30923" lon="5.69331">
        <ele>917</ele>
        <time>2019-11-29T11:11:53.000Z</time>
      </trkpt>
      <trkpt lat="43.30923" lon="5.69331">
        <ele>917</ele>
        <time>2019-11-29T11:11:54.000Z</time>
      </trkpt>
      <trkpt lat="43.30923" lon="5.69331">
        <ele>917</ele>
        <time>2019-11-29T11:11:55.000Z</time>
      </trkpt>
      <trkpt lat="43.30924" lon="5.69331">
        <ele>917</ele>
        <time>2019-11-29T11:11:56.000Z</time>
      </trkpt>
      <trkpt lat="43.30924" lon="5.69332">
        <ele>917</ele>
        <time>2019-11-29T11:11:57.000Z</time>
      </trkpt>
      <trkpt lat="43.30925" lon="5.69332">
        <ele>918</ele>
        <time>2019-11-29T11:11:58.000Z</time>
      </trkpt>
      <trkpt lat="43.30925" lon="5.69332">
        <ele>918</ele>
        <time>2019-11-29T11:11:59.000Z</time>
      </trkpt>
      <trkpt lat="43.30925" lon="5.69333">
        <ele>918</ele>
        <time>2019-11-29T11:12:00.000Z</time>
      </trkpt>
      <trkpt lat="43.30925" lon="5.69333">
        <ele>918</ele>
        <time>2019-11-29T11:12:01.000Z</time>
      </trkpt>
      <trkpt lat="43.30926" lon="5.69332">
        <ele>918</ele>
        <time>2019-11-29T11:12:02.000Z</time>
      </trkpt>
      <trkpt lat="43.30926" lon="5.69332">
        <ele>918</ele>
        <time>2019-11-29T11:12:03.000Z</time>
      </trkpt>
      <trkpt lat="43.30927" lon="5.69332">
        <ele>918</ele>
        <time>2019-11-29T11:12:04.000Z</time>
      </trkpt>
      <trkpt lat="43.30928" lon="5.69332">
        <ele>919</ele>
        <time>2019-11-29T11:12:05.000Z</time>
      </trkpt>
      <trkpt lat="43.30928" lon="5.69333">
        <ele>919</ele>
        <time>2019-11-29T11:12:06.000Z</time>
      </trkpt>
      <trkpt lat="43.30928" lon="5.69333">
        <ele>919</ele>
        <time>2019-11-29T11:12:07.000Z</time>
      </trkpt>
      <trkpt lat="43.30929" lon="5.69333">
        <ele>919</ele>
        <time>2019-11-29T11:12:08.000Z</time>
      </trkpt>
      <trkpt lat="43.30929" lon="5.69334">
        <ele>919</ele>
        <time>2019-11-29T11:12:09.000Z</time>
      </trkpt>
      <trkpt lat="43.30929" lon="5.69334">
        <ele>919</ele>
        <time>2019-11-29T11:12:10.000Z</time>
      </trkpt>
      <trkpt lat="43.30929" lon="5.69334">
        <ele>920</ele>
        <time>2019-11-29T11:12:11.000Z</time>
      </trkpt>
      <trkpt lat="43.3093" lon="5.69334">
        <ele>920</ele>
        <time>2019-11-29T11:12:12.000Z</time>
      </trkpt>
      <trkpt lat="43.3093" lon="5.69334">
        <ele>920</ele>
        <time>2019-11-29T11:12:13.000Z</time>
      </trkpt>
      <trkpt lat="43.30931" lon="5.69334">
        <ele>920</ele>
        <time>2019-11-29T11:12:14.000Z</time>
      </trkpt>
      <trkpt lat="43.30931" lon="5.69335">
        <ele>920</ele>
        <time>2019-11-29T11:12:15.000Z</time>
      </trkpt>
      <trkpt lat="43.30932" lon="5.69334">
        <ele>920</ele>
        <time>2019-11-29T11:12:16.000Z</time>
      </trkpt>
      <trkpt lat="43.30933" lon="5.69334">
        <ele>920</ele>
        <time>2019-11-29T11:12:17.000Z</time>
      </trkpt>
      <trkpt lat="43.30933" lon="5.69335">
        <ele>921</ele>
        <time>2019-11-29T11:12:18.000Z</time>
      </trkpt>
      <trkpt lat="43.30934" lon="5.69335">
        <ele>921</ele>
        <time>2019-11-29T11:12:19.000Z</time>
      </trkpt>
      <trkpt lat="43.30934" lon="5.69335">
        <ele>921</ele>
        <time>2019-11-29T11:12:20.000Z</time>
      </trkpt>
      <trkpt lat="43.30934" lon="5.69335">
        <ele>921</ele>
        <time>2019-11-29T11:12:21.000Z</time>
      </trkpt>
      <trkpt lat="43.30934" lon="5.69336">
        <ele>921</ele>
        <time>2019-11-29T11:12:22.000Z</time>
      </trkpt>
      <trkpt lat="43.30934" lon="5.69336">
        <ele>921</ele>
        <time>2019-11-29T11:12:23.000Z</time>
      </trkpt>
      <trkpt lat="43.30934" lon="5.69336">
        <ele>921</ele>
        <time>2019-11-29T11:12:24.000Z</time>
      </trkpt>
      <trkpt lat="43.30934" lon="5.69336">
        <ele>921</ele>
        <time>2019-11-29T11:12:25.000Z</time>
      </trkpt>
      <trkpt lat="43.30934" lon="5.69336">
        <ele>921</ele>
        <time>2019-11-29T11:12:26.000Z</time>
      </trkpt>
      <trkpt lat="43.30934" lon="5.69336">
        <ele>921</ele>
        <time>2019-11-29T11:12:27.000Z</time>
      </trkpt>
      <trkpt lat="43.30935" lon="5.69336">
        <ele>921</ele>
        <time>2019-11-29T11:12:28.000Z</time>
      </trkpt>
      <trkpt lat="43.30935" lon="5.69337">
        <ele>921</ele>
        <time>2019-11-29T11:12:29.000Z</time>
      </trkpt>
      <trkpt lat="43.30935" lon="5.69337">
        <ele>921</ele>
        <time>2019-11-29T11:12:30.000Z</time>
      </trkpt>
      <trkpt lat="43.30936" lon="5.69337">
        <ele>921</ele>
        <time>2019-11-29T11:12:31.000Z</time>
      </trkpt>
      <trkpt lat="43.30936" lon="5.69336">
        <ele>921</ele>
        <time>2019-11-29T11:12:32.000Z</time>
      </trkpt>
      <trkpt lat="43.30937" lon="5.69336">
        <ele>921</ele>
        <time>2019-11-29T11:12:33.000Z</time>
      </trkpt>
      <trkpt lat="43.30937" lon="5.69336">
        <ele>922</ele>
        <time>2019-11-29T11:12:34.000Z</time>
      </trkpt>
      <trkpt lat="43.30938" lon="5.69336">
        <ele>922</ele>
        <time>2019-11-29T11:12:35.000Z</time>
      </trkpt>
      <trkpt lat="43.30939" lon="5.69336">
        <ele>922</ele>
        <time>2019-11-29T11:12:36.000Z</time>
      </trkpt>
      <trkpt lat="43.30939" lon="5.69336">
        <ele>922</ele>
        <time>2019-11-29T11:12:37.000Z</time>
      </trkpt>
      <trkpt lat="43.3094" lon="5.69336">
        <ele>922</ele>
        <time>2019-11-29T11:12:38.000Z</time>
      </trkpt>
      <trkpt lat="43.3094" lon="5.69336">
        <ele>922</ele>
        <time>2019-11-29T11:12:39.000Z</time>
      </trkpt>
      <trkpt lat="43.30941" lon="5.69335">
        <ele>922</ele>
        <time>2019-11-29T11:12:40.000Z</time>
      </trkpt>
      <trkpt lat="43.30941" lon="5.69335">
        <ele>923</ele>
        <time>2019-11-29T11:12:41.000Z</time>
      </trkpt>
      <trkpt lat="43.30942" lon="5.69335">
        <ele>923</ele>
        <time>2019-11-29T11:12:42.000Z</time>
      </trkpt>
      <trkpt lat="43.30942" lon="5.69335">
        <ele>923</ele>
        <time>2019-11-29T11:12:43.000Z</time>
      </trkpt>
      <trkpt lat="43.30943" lon="5.69335">
        <ele>923</ele>
        <time>2019-11-29T11:12:44.000Z</time>
      </trkpt>
      <trkpt lat="43.30943" lon="5.69335">
        <ele>923</ele>
        <time>2019-11-29T11:12:45.000Z</time>
      </trkpt>
      <trkpt lat="43.30944" lon="5.69335">
        <ele>923</ele>
        <time>2019-11-29T11:12:46.000Z</time>
      </trkpt>
      <trkpt lat="43.30944" lon="5.69335">
        <ele>924</ele>
        <time>2019-11-29T11:12:47.000Z</time>
      </trkpt>
      <trkpt lat="43.30945" lon="5.69335">
        <ele>924</ele>
        <time>2019-11-29T11:12:48.000Z</time>
      </trkpt>
      <trkpt lat="43.30945" lon="5.69335">
        <ele>924</ele>
        <time>2019-11-29T11:12:49.000Z</time>
      </trkpt>
      <trkpt lat="43.30946" lon="5.69336">
        <ele>924</ele>
        <time>2019-11-29T11:12:50.000Z</time>
      </trkpt>
      <trkpt lat="43.30946" lon="5.69336">
        <ele>924</ele>
        <time>2019-11-29T11:12:51.000Z</time>
      </trkpt>
      <trkpt lat="43.30947" lon="5.69337">
        <ele>924</ele>
        <time>2019-11-29T11:12:52.000Z</time>
      </trkpt>
      <trkpt lat="43.30947" lon="5.69337">
        <ele>924</ele>
        <time>2019-11-29T11:12:53.000Z</time>
      </trkpt>
      <trkpt lat="43.30947" lon="5.69337">
        <ele>924</ele>
        <time>2019-11-29T11:12:54.000Z</time>
      </trkpt>
      <trkpt lat="43.30948" lon="5.69337">
        <ele>924</ele>
        <time>2019-11-29T11:12:55.000Z</time>
      </trkpt>
      <trkpt lat="43.30948" lon="5.69337">
        <ele>924</ele>
        <time>2019-11-29T11:12:56.000Z</time>
      </trkpt>
      <trkpt lat="43.30949" lon="5.69337">
        <ele>924</ele>
        <time>2019-11-29T11:12:57.000Z</time>
      </trkpt>
      <trkpt lat="43.3095" lon="5.69338">
        <ele>924</ele>
        <time>2019-11-29T11:12:58.000Z</time>
      </trkpt>
      <trkpt lat="43.3095" lon="5.69338">
        <ele>924</ele>
        <time>2019-11-29T11:12:59.000Z</time>
      </trkpt>
      <trkpt lat="43.3095" lon="5.69339">
        <ele>924</ele>
        <time>2019-11-29T11:13:00.000Z</time>
      </trkpt>
      <trkpt lat="43.3095" lon="5.69339">
        <ele>924</ele>
        <time>2019-11-29T11:13:01.000Z</time>
      </trkpt>
      <trkpt lat="43.30951" lon="5.6934">
        <ele>924</ele>
        <time>2019-11-29T11:13:02.000Z</time>
      </trkpt>
      <trkpt lat="43.30951" lon="5.6934">
        <ele>925</ele>
        <time>2019-11-29T11:13:03.000Z</time>
      </trkpt>
      <trkpt lat="43.30952" lon="5.6934">
        <ele>925</ele>
        <time>2019-11-29T11:13:04.000Z</time>
      </trkpt>
      <trkpt lat="43.30952" lon="5.69341">
        <ele>925</ele>
        <time>2019-11-29T11:13:05.000Z</time>
      </trkpt>
      <trkpt lat="43.30953" lon="5.69341">
        <ele>925</ele>
        <time>2019-11-29T11:13:06.000Z</time>
      </trkpt>
      <trkpt lat="43.30953" lon="5.69342">
        <ele>925</ele>
        <time>2019-11-29T11:13:07.000Z</time>
      </trkpt>
      <trkpt lat="43.30953" lon="5.69342">
        <ele>925</ele>
        <time>2019-11-29T11:13:08.000Z</time>
      </trkpt>
      <trkpt lat="43.30953" lon="5.69342">
        <ele>925</ele>
        <time>2019-11-29T11:13:09.000Z</time>
      </trkpt>
      <trkpt lat="43.30953" lon="5.69342">
        <ele>925</ele>
        <time>2019-11-29T11:13:10.000Z</time>
      </trkpt>
      <trkpt lat="43.30953" lon="5.69342">
        <ele>925</ele>
        <time>2019-11-29T11:13:11.000Z</time>
      </trkpt>
      <trkpt lat="43.30953" lon="5.69342">
        <ele>925</ele>
        <time>2019-11-29T11:13:12.000Z</time>
      </trkpt>
      <trkpt lat="43.30953" lon="5.69342">
        <ele>925</ele>
        <time>2019-11-29T11:13:13.000Z</time>
      </trkpt>
      <trkpt lat="43.30953" lon="5.69342">
        <ele>925</ele>
        <time>2019-11-29T11:13:14.000Z</time>
      </trkpt>
      <trkpt lat="43.30953" lon="5.69342">
        <ele>925</ele>
        <time>2019-11-29T11:13:15.000Z</time>
      </trkpt>
      <trkpt lat="43.30953" lon="5.69342">
        <ele>925</ele>
        <time>2019-11-29T11:13:16.000Z</time>
      </trkpt>
      <trkpt lat="43.30953" lon="5.69342">
        <ele>925</ele>
        <time>2019-11-29T11:13:17.000Z</time>
      </trkpt>
      <trkpt lat="43.30953" lon="5.69342">
        <ele>925</ele>
        <time>2019-11-29T11:13:18.000Z</time>
      </trkpt>
      <trkpt lat="43.30953" lon="5.69342">
        <ele>925</ele>
        <time>2019-11-29T11:13:19.000Z</time>
      </trkpt>
      <trkpt lat="43.30953" lon="5.69342">
        <ele>925</ele>
        <time>2019-11-29T11:13:20.000Z</time>
      </trkpt>
      <trkpt lat="43.30953" lon="5.69342">
        <ele>925</ele>
        <time>2019-11-29T11:13:21.000Z</time>
      </trkpt>
      <trkpt lat="43.30953" lon="5.69342">
        <ele>925</ele>
        <time>2019-11-29T11:13:22.000Z</time>
      </trkpt>
      <trkpt lat="43.30953" lon="5.69342">
        <ele>925</ele>
        <time>2019-11-29T11:13:23.000Z</time>
      </trkpt>
      <trkpt lat="43.30953" lon="5.69342">
        <ele>925</ele>
        <time>2019-11-29T11:13:24.000Z</time>
      </trkpt>
      <trkpt lat="43.30953" lon="5.69342">
        <ele>925</ele>
        <time>2019-11-29T11:13:25.000Z</time>
      </trkpt>
      <trkpt lat="43.30953" lon="5.69342">
        <ele>925</ele>
        <time>2019-11-29T11:13:26.000Z</time>
      </trkpt>
      <trkpt lat="43.30953" lon="5.69342">
        <ele>925</ele>
        <time>2019-11-29T11:13:27.000Z</time>
      </trkpt>
      <trkpt lat="43.30953" lon="5.69342">
        <ele>925</ele>
        <time>2019-11-29T11:13:28.000Z</time>
      </trkpt>
      <trkpt lat="43.30953" lon="5.69342">
        <ele>925</ele>
        <time>2019-11-29T11:13:29.000Z</time>
      </trkpt>
      <trkpt lat="43.30953" lon="5.69342">
        <ele>925</ele>
        <time>2019-11-29T11:13:30.000Z</time>
      </trkpt>
      <trkpt lat="43.30953" lon="5.69342">
        <ele>925</ele>
        <time>2019-11-29T11:13:31.000Z</time>
      </trkpt>
      <trkpt lat="43.30953" lon="5.69342">
        <ele>925</ele>
        <time>2019-11-29T11:13:32.000Z</time>
      </trkpt>
      <trkpt lat="43.30953" lon="5.69342">
        <ele>925</ele>
        <time>2019-11-29T11:13:33.000Z</time>
      </trkpt>
      <trkpt lat="43.30953" lon="5.69342">
        <ele>925</ele>
        <time>2019-11-29T11:13:34.000Z</time>
      </trkpt>
      <trkpt lat="43.30953" lon="5.69342">
        <ele>925</ele>
        <time>2019-11-29T11:13:35.000Z</time>
      </trkpt>
      <trkpt lat="43.30953" lon="5.69342">
        <ele>925</ele>
        <time>2019-11-29T11:13:36.000Z</time>
      </trkpt>
      <trkpt lat="43.30953" lon="5.69342">
        <ele>925</ele>
        <time>2019-11-29T11:13:37.000Z</time>
      </trkpt>
      <trkpt lat="43.30954" lon="5.69342">
        <ele>925</ele>
        <time>2019-11-29T11:13:38.000Z</time>
      </trkpt>
      <trkpt lat="43.30954" lon="5.69343">
        <ele>925</ele>
        <time>2019-11-29T11:13:39.000Z</time>
      </trkpt>
      <trkpt lat="43.30954" lon="5.69343">
        <ele>925</ele>
        <time>2019-11-29T11:13:40.000Z</time>
      </trkpt>
      <trkpt lat="43.30954" lon="5.69344">
        <ele>925</ele>
        <time>2019-11-29T11:13:41.000Z</time>
      </trkpt>
      <trkpt lat="43.30955" lon="5.69344">
        <ele>925</ele>
        <time>2019-11-29T11:13:42.000Z</time>
      </trkpt>
      <trkpt lat="43.30955" lon="5.69345">
        <ele>925</ele>
        <time>2019-11-29T11:13:43.000Z</time>
      </trkpt>
      <trkpt lat="43.30955" lon="5.69345">
        <ele>925</ele>
        <time>2019-11-29T11:13:44.000Z</time>
      </trkpt>
      <trkpt lat="43.30956" lon="5.69346">
        <ele>925</ele>
        <time>2019-11-29T11:13:45.000Z</time>
      </trkpt>
      <trkpt lat="43.30956" lon="5.69346">
        <ele>926</ele>
        <time>2019-11-29T11:13:46.000Z</time>
      </trkpt>
      <trkpt lat="43.30956" lon="5.69347">
        <ele>926</ele>
        <time>2019-11-29T11:13:47.000Z</time>
      </trkpt>
      <trkpt lat="43.30957" lon="5.69347">
        <ele>926</ele>
        <time>2019-11-29T11:13:48.000Z</time>
      </trkpt>
      <trkpt lat="43.30957" lon="5.69348">
        <ele>926</ele>
        <time>2019-11-29T11:13:49.000Z</time>
      </trkpt>
      <trkpt lat="43.30957" lon="5.69348">
        <ele>926</ele>
        <time>2019-11-29T11:13:50.000Z</time>
      </trkpt>
      <trkpt lat="43.30958" lon="5.69349">
        <ele>926</ele>
        <time>2019-11-29T11:13:51.000Z</time>
      </trkpt>
      <trkpt lat="43.30958" lon="5.69349">
        <ele>927</ele>
        <time>2019-11-29T11:13:52.000Z</time>
      </trkpt>
      <trkpt lat="43.30958" lon="5.69349">
        <ele>927</ele>
        <time>2019-11-29T11:13:53.000Z</time>
      </trkpt>
      <trkpt lat="43.30959" lon="5.6935">
        <ele>927</ele>
        <time>2019-11-29T11:13:54.000Z</time>
      </trkpt>
      <trkpt lat="43.30959" lon="5.69351">
        <ele>927</ele>
        <time>2019-11-29T11:13:55.000Z</time>
      </trkpt>
      <trkpt lat="43.30959" lon="5.69351">
        <ele>928</ele>
        <time>2019-11-29T11:13:56.000Z</time>
      </trkpt>
      <trkpt lat="43.3096" lon="5.69352">
        <ele>928</ele>
        <time>2019-11-29T11:13:57.000Z</time>
      </trkpt>
      <trkpt lat="43.3096" lon="5.69352">
        <ele>928</ele>
        <time>2019-11-29T11:13:58.000Z</time>
      </trkpt>
      <trkpt lat="43.30961" lon="5.69353">
        <ele>928</ele>
        <time>2019-11-29T11:13:59.000Z</time>
      </trkpt>
      <trkpt lat="43.30961" lon="5.69353">
        <ele>929</ele>
        <time>2019-11-29T11:14:00.000Z</time>
      </trkpt>
      <trkpt lat="43.30962" lon="5.69354">
        <ele>929</ele>
        <time>2019-11-29T11:14:01.000Z</time>
      </trkpt>
      <trkpt lat="43.30962" lon="5.69354">
        <ele>929</ele>
        <time>2019-11-29T11:14:02.000Z</time>
      </trkpt>
      <trkpt lat="43.30963" lon="5.69354">
        <ele>929</ele>
        <time>2019-11-29T11:14:03.000Z</time>
      </trkpt>
      <trkpt lat="43.30963" lon="5.69355">
        <ele>929</ele>
        <time>2019-11-29T11:14:04.000Z</time>
      </trkpt>
      <trkpt lat="43.30964" lon="5.69356">
        <ele>930</ele>
        <time>2019-11-29T11:14:05.000Z</time>
      </trkpt>
      <trkpt lat="43.30964" lon="5.69357">
        <ele>930</ele>
        <time>2019-11-29T11:14:06.000Z</time>
      </trkpt>
      <trkpt lat="43.30964" lon="5.69357">
        <ele>930</ele>
        <time>2019-11-29T11:14:07.000Z</time>
      </trkpt>
      <trkpt lat="43.30964" lon="5.69358">
        <ele>930</ele>
        <time>2019-11-29T11:14:08.000Z</time>
      </trkpt>
      <trkpt lat="43.30965" lon="5.69358">
        <ele>931</ele>
        <time>2019-11-29T11:14:09.000Z</time>
      </trkpt>
      <trkpt lat="43.30965" lon="5.69359">
        <ele>931</ele>
        <time>2019-11-29T11:14:10.000Z</time>
      </trkpt>
      <trkpt lat="43.30965" lon="5.69359">
        <ele>931</ele>
        <time>2019-11-29T11:14:11.000Z</time>
      </trkpt>
      <trkpt lat="43.30966" lon="5.6936">
        <ele>931</ele>
        <time>2019-11-29T11:14:12.000Z</time>
      </trkpt>
      <trkpt lat="43.30966" lon="5.69361">
        <ele>931</ele>
        <time>2019-11-29T11:14:13.000Z</time>
      </trkpt>
      <trkpt lat="43.30967" lon="5.69361">
        <ele>931</ele>
        <time>2019-11-29T11:14:14.000Z</time>
      </trkpt>
      <trkpt lat="43.30967" lon="5.69362">
        <ele>932</ele>
        <time>2019-11-29T11:14:15.000Z</time>
      </trkpt>
      <trkpt lat="43.30967" lon="5.69363">
        <ele>932</ele>
        <time>2019-11-29T11:14:16.000Z</time>
      </trkpt>
      <trkpt lat="43.30967" lon="5.69364">
        <ele>932</ele>
        <time>2019-11-29T11:14:17.000Z</time>
      </trkpt>
      <trkpt lat="43.30968" lon="5.69364">
        <ele>932</ele>
        <time>2019-11-29T11:14:18.000Z</time>
      </trkpt>
      <trkpt lat="43.30968" lon="5.69365">
        <ele>932</ele>
        <time>2019-11-29T11:14:19.000Z</time>
      </trkpt>
      <trkpt lat="43.30968" lon="5.69365">
        <ele>933</ele>
        <time>2019-11-29T11:14:20.000Z</time>
      </trkpt>
      <trkpt lat="43.30969" lon="5.69366">
        <ele>933</ele>
        <time>2019-11-29T11:14:21.000Z</time>
      </trkpt>
      <trkpt lat="43.30969" lon="5.69366">
        <ele>933</ele>
        <time>2019-11-29T11:14:22.000Z</time>
      </trkpt>
      <trkpt lat="43.30969" lon="5.69367">
        <ele>933</ele>
        <time>2019-11-29T11:14:23.000Z</time>
      </trkpt>
      <trkpt lat="43.3097" lon="5.69367">
        <ele>934</ele>
        <time>2019-11-29T11:14:24.000Z</time>
      </trkpt>
      <trkpt lat="43.3097" lon="5.69368">
        <ele>934</ele>
        <time>2019-11-29T11:14:25.000Z</time>
      </trkpt>
      <trkpt lat="43.30971" lon="5.69368">
        <ele>934</ele>
        <time>2019-11-29T11:14:26.000Z</time>
      </trkpt>
      <trkpt lat="43.30971" lon="5.69368">
        <ele>934</ele>
        <time>2019-11-29T11:14:27.000Z</time>
      </trkpt>
      <trkpt lat="43.30972" lon="5.69369">
        <ele>934</ele>
        <time>2019-11-29T11:14:28.000Z</time>
      </trkpt>
      <trkpt lat="43.30972" lon="5.69369">
        <ele>935</ele>
        <time>2019-11-29T11:14:29.000Z</time>
      </trkpt>
      <trkpt lat="43.30973" lon="5.69369">
        <ele>935</ele>
        <time>2019-11-29T11:14:30.000Z</time>
      </trkpt>
      <trkpt lat="43.30973" lon="5.69369">
        <ele>935</ele>
        <time>2019-11-29T11:14:31.000Z</time>
      </trkpt>
      <trkpt lat="43.30974" lon="5.69369">
        <ele>935</ele>
        <time>2019-11-29T11:14:32.000Z</time>
      </trkpt>
      <trkpt lat="43.30975" lon="5.69369">
        <ele>935</ele>
        <time>2019-11-29T11:14:33.000Z</time>
      </trkpt>
      <trkpt lat="43.30975" lon="5.69369">
        <ele>935</ele>
        <time>2019-11-29T11:14:34.000Z</time>
      </trkpt>
      <trkpt lat="43.30976" lon="5.69369">
        <ele>935</ele>
        <time>2019-11-29T11:14:35.000Z</time>
      </trkpt>
      <trkpt lat="43.30976" lon="5.69368">
        <ele>936</ele>
        <time>2019-11-29T11:14:36.000Z</time>
      </trkpt>
      <trkpt lat="43.30977" lon="5.69369">
        <ele>936</ele>
        <time>2019-11-29T11:14:37.000Z</time>
      </trkpt>
      <trkpt lat="43.30977" lon="5.69369">
        <ele>936</ele>
        <time>2019-11-29T11:14:38.000Z</time>
      </trkpt>
      <trkpt lat="43.30978" lon="5.69369">
        <ele>936</ele>
        <time>2019-11-29T11:14:39.000Z</time>
      </trkpt>
      <trkpt lat="43.30978" lon="5.69369">
        <ele>936</ele>
        <time>2019-11-29T11:14:40.000Z</time>
      </trkpt>
      <trkpt lat="43.30979" lon="5.69369">
        <ele>936</ele>
        <time>2019-11-29T11:14:41.000Z</time>
      </trkpt>
      <trkpt lat="43.3098" lon="5.69369">
        <ele>936</ele>
        <time>2019-11-29T11:14:42.000Z</time>
      </trkpt>
      <trkpt lat="43.30981" lon="5.6937">
        <ele>937</ele>
        <time>2019-11-29T11:14:43.000Z</time>
      </trkpt>
      <trkpt lat="43.30981" lon="5.6937">
        <ele>937</ele>
        <time>2019-11-29T11:14:44.000Z</time>
      </trkpt>
      <trkpt lat="43.30981" lon="5.6937">
        <ele>937</ele>
        <time>2019-11-29T11:14:45.000Z</time>
      </trkpt>
      <trkpt lat="43.30982" lon="5.6937">
        <ele>937</ele>
        <time>2019-11-29T11:14:46.000Z</time>
      </trkpt>
      <trkpt lat="43.30983" lon="5.6937">
        <ele>937</ele>
        <time>2019-11-29T11:14:47.000Z</time>
      </trkpt>
      <trkpt lat="43.30983" lon="5.69371">
        <ele>937</ele>
        <time>2019-11-29T11:14:48.000Z</time>
      </trkpt>
      <trkpt lat="43.30983" lon="5.69371">
        <ele>938</ele>
        <time>2019-11-29T11:14:49.000Z</time>
      </trkpt>
      <trkpt lat="43.30984" lon="5.69371">
        <ele>938</ele>
        <time>2019-11-29T11:14:50.000Z</time>
      </trkpt>
      <trkpt lat="43.30984" lon="5.69371">
        <ele>938</ele>
        <time>2019-11-29T11:14:51.000Z</time>
      </trkpt>
      <trkpt lat="43.30985" lon="5.69372">
        <ele>938</ele>
        <time>2019-11-29T11:14:52.000Z</time>
      </trkpt>
      <trkpt lat="43.30985" lon="5.69372">
        <ele>938</ele>
        <time>2019-11-29T11:14:53.000Z</time>
      </trkpt>
      <trkpt lat="43.30986" lon="5.69373">
        <ele>939</ele>
        <time>2019-11-29T11:14:54.000Z</time>
      </trkpt>
      <trkpt lat="43.30986" lon="5.69374">
        <ele>939</ele>
        <time>2019-11-29T11:14:55.000Z</time>
      </trkpt>
      <trkpt lat="43.30986" lon="5.69374">
        <ele>939</ele>
        <time>2019-11-29T11:14:56.000Z</time>
      </trkpt>
      <trkpt lat="43.30986" lon="5.69375">
        <ele>939</ele>
        <time>2019-11-29T11:14:57.000Z</time>
      </trkpt>
      <trkpt lat="43.30986" lon="5.69375">
        <ele>939</ele>
        <time>2019-11-29T11:14:58.000Z</time>
      </trkpt>
      <trkpt lat="43.30987" lon="5.69376">
        <ele>939</ele>
        <time>2019-11-29T11:14:59.000Z</time>
      </trkpt>
      <trkpt lat="43.30987" lon="5.69376">
        <ele>939</ele>
        <time>2019-11-29T11:15:00.000Z</time>
      </trkpt>
      <trkpt lat="43.30988" lon="5.69377">
        <ele>939</ele>
        <time>2019-11-29T11:15:01.000Z</time>
      </trkpt>
      <trkpt lat="43.30988" lon="5.69377">
        <ele>940</ele>
        <time>2019-11-29T11:15:02.000Z</time>
      </trkpt>
      <trkpt lat="43.30988" lon="5.69378">
        <ele>940</ele>
        <time>2019-11-29T11:15:03.000Z</time>
      </trkpt>
      <trkpt lat="43.30988" lon="5.69378">
        <ele>940</ele>
        <time>2019-11-29T11:15:04.000Z</time>
      </trkpt>
      <trkpt lat="43.30988" lon="5.69379">
        <ele>940</ele>
        <time>2019-11-29T11:15:05.000Z</time>
      </trkpt>
      <trkpt lat="43.30989" lon="5.69379">
        <ele>940</ele>
        <time>2019-11-29T11:15:06.000Z</time>
      </trkpt>
      <trkpt lat="43.30989" lon="5.6938">
        <ele>940</ele>
        <time>2019-11-29T11:15:07.000Z</time>
      </trkpt>
      <trkpt lat="43.30989" lon="5.69381">
        <ele>941</ele>
        <time>2019-11-29T11:15:08.000Z</time>
      </trkpt>
      <trkpt lat="43.30989" lon="5.69382">
        <ele>941</ele>
        <time>2019-11-29T11:15:09.000Z</time>
      </trkpt>
      <trkpt lat="43.30989" lon="5.69382">
        <ele>941</ele>
        <time>2019-11-29T11:15:10.000Z</time>
      </trkpt>
      <trkpt lat="43.3099" lon="5.69382">
        <ele>941</ele>
        <time>2019-11-29T11:15:11.000Z</time>
      </trkpt>
      <trkpt lat="43.3099" lon="5.69383">
        <ele>941</ele>
        <time>2019-11-29T11:15:12.000Z</time>
      </trkpt>
      <trkpt lat="43.3099" lon="5.69383">
        <ele>941</ele>
        <time>2019-11-29T11:15:13.000Z</time>
      </trkpt>
      <trkpt lat="43.30991" lon="5.69384">
        <ele>941</ele>
        <time>2019-11-29T11:15:14.000Z</time>
      </trkpt>
      <trkpt lat="43.30991" lon="5.69384">
        <ele>941</ele>
        <time>2019-11-29T11:15:15.000Z</time>
      </trkpt>
      <trkpt lat="43.30991" lon="5.69385">
        <ele>941</ele>
        <time>2019-11-29T11:15:16.000Z</time>
      </trkpt>
      <trkpt lat="43.30991" lon="5.69385">
        <ele>942</ele>
        <time>2019-11-29T11:15:17.000Z</time>
      </trkpt>
      <trkpt lat="43.30991" lon="5.69386">
        <ele>942</ele>
        <time>2019-11-29T11:15:18.000Z</time>
      </trkpt>
      <trkpt lat="43.30991" lon="5.69387">
        <ele>942</ele>
        <time>2019-11-29T11:15:19.000Z</time>
      </trkpt>
      <trkpt lat="43.30992" lon="5.69387">
        <ele>942</ele>
        <time>2019-11-29T11:15:20.000Z</time>
      </trkpt>
      <trkpt lat="43.30992" lon="5.69388">
        <ele>942</ele>
        <time>2019-11-29T11:15:21.000Z</time>
      </trkpt>
      <trkpt lat="43.30992" lon="5.69389">
        <ele>942</ele>
        <time>2019-11-29T11:15:22.000Z</time>
      </trkpt>
      <trkpt lat="43.30992" lon="5.69389">
        <ele>943</ele>
        <time>2019-11-29T11:15:23.000Z</time>
      </trkpt>
      <trkpt lat="43.30992" lon="5.69389">
        <ele>943</ele>
        <time>2019-11-29T11:15:24.000Z</time>
      </trkpt>
      <trkpt lat="43.30992" lon="5.6939">
        <ele>943</ele>
        <time>2019-11-29T11:15:25.000Z</time>
      </trkpt>
      <trkpt lat="43.30992" lon="5.6939">
        <ele>943</ele>
        <time>2019-11-29T11:15:26.000Z</time>
      </trkpt>
      <trkpt lat="43.30992" lon="5.6939">
        <ele>943</ele>
        <time>2019-11-29T11:15:27.000Z</time>
      </trkpt>
      <trkpt lat="43.30992" lon="5.6939">
        <ele>943</ele>
        <time>2019-11-29T11:15:28.000Z</time>
      </trkpt>
      <trkpt lat="43.30992" lon="5.6939">
        <ele>943</ele>
        <time>2019-11-29T11:15:29.000Z</time>
      </trkpt>
      <trkpt lat="43.30992" lon="5.6939">
        <ele>943</ele>
        <time>2019-11-29T11:15:30.000Z</time>
      </trkpt>
      <trkpt lat="43.30992" lon="5.6939">
        <ele>943</ele>
        <time>2019-11-29T11:15:31.000Z</time>
      </trkpt>
      <trkpt lat="43.30992" lon="5.6939">
        <ele>943</ele>
        <time>2019-11-29T11:15:32.000Z</time>
      </trkpt>
      <trkpt lat="43.30992" lon="5.6939">
        <ele>943</ele>
        <time>2019-11-29T11:15:33.000Z</time>
      </trkpt>
      <trkpt lat="43.30992" lon="5.6939">
        <ele>943</ele>
        <time>2019-11-29T11:15:34.000Z</time>
      </trkpt>
      <trkpt lat="43.30992" lon="5.6939">
        <ele>943</ele>
        <time>2019-11-29T11:15:35.000Z</time>
      </trkpt>
      <trkpt lat="43.30992" lon="5.6939">
        <ele>943</ele>
        <time>2019-11-29T11:15:36.000Z</time>
      </trkpt>
      <trkpt lat="43.30992" lon="5.6939">
        <ele>943</ele>
        <time>2019-11-29T11:15:37.000Z</time>
      </trkpt>
      <trkpt lat="43.30992" lon="5.6939">
        <ele>943</ele>
        <time>2019-11-29T11:15:38.000Z</time>
      </trkpt>
      <trkpt lat="43.30992" lon="5.6939">
        <ele>943</ele>
        <time>2019-11-29T11:15:39.000Z</time>
      </trkpt>
      <trkpt lat="43.30992" lon="5.6939">
        <ele>943</ele>
        <time>2019-11-29T11:15:40.000Z</time>
      </trkpt>
      <trkpt lat="43.30992" lon="5.6939">
        <ele>943</ele>
        <time>2019-11-29T11:15:41.000Z</time>
      </trkpt>
      <trkpt lat="43.30992" lon="5.6939">
        <ele>943</ele>
        <time>2019-11-29T11:15:42.000Z</time>
      </trkpt>
      <trkpt lat="43.30992" lon="5.6939">
        <ele>943</ele>
        <time>2019-11-29T11:15:43.000Z</time>
      </trkpt>
      <trkpt lat="43.30992" lon="5.6939">
        <ele>943</ele>
        <time>2019-11-29T11:15:44.000Z</time>
      </trkpt>
      <trkpt lat="43.30992" lon="5.6939">
        <ele>943</ele>
        <time>2019-11-29T11:15:45.000Z</time>
      </trkpt>
      <trkpt lat="43.30992" lon="5.6939">
        <ele>943</ele>
        <time>2019-11-29T11:15:46.000Z</time>
      </trkpt>
      <trkpt lat="43.30992" lon="5.6939">
        <ele>943</ele>
        <time>2019-11-29T11:15:47.000Z</time>
      </trkpt>
      <trkpt lat="43.30992" lon="5.6939">
        <ele>943</ele>
        <time>2019-11-29T11:15:48.000Z</time>
      </trkpt>
      <trkpt lat="43.30992" lon="5.6939">
        <ele>943</ele>
        <time>2019-11-29T11:15:49.000Z</time>
      </trkpt>
      <trkpt lat="43.30992" lon="5.6939">
        <ele>943</ele>
        <time>2019-11-29T11:15:50.000Z</time>
      </trkpt>
      <trkpt lat="43.30992" lon="5.6939">
        <ele>943</ele>
        <time>2019-11-29T11:15:51.000Z</time>
      </trkpt>
      <trkpt lat="43.30992" lon="5.6939">
        <ele>943</ele>
        <time>2019-11-29T11:15:52.000Z</time>
      </trkpt>
      <trkpt lat="43.30992" lon="5.6939">
        <ele>943</ele>
        <time>2019-11-29T11:15:53.000Z</time>
      </trkpt>
      <trkpt lat="43.30992" lon="5.6939">
        <ele>943</ele>
        <time>2019-11-29T11:15:54.000Z</time>
      </trkpt>
      <trkpt lat="43.30992" lon="5.6939">
        <ele>943</ele>
        <time>2019-11-29T11:15:55.000Z</time>
      </trkpt>
      <trkpt lat="43.30992" lon="5.6939">
        <ele>943</ele>
        <time>2019-11-29T11:15:56.000Z</time>
      </trkpt>
      <trkpt lat="43.30993" lon="5.69389">
        <ele>943</ele>
        <time>2019-11-29T11:15:57.000Z</time>
      </trkpt>
      <trkpt lat="43.30993" lon="5.69389">
        <ele>943</ele>
        <time>2019-11-29T11:15:58.000Z</time>
      </trkpt>
      <trkpt lat="43.30993" lon="5.6939">
        <ele>944</ele>
        <time>2019-11-29T11:15:59.000Z</time>
      </trkpt>
      <trkpt lat="43.30993" lon="5.69391">
        <ele>944</ele>
        <time>2019-11-29T11:16:00.000Z</time>
      </trkpt>
      <trkpt lat="43.30994" lon="5.69391">
        <ele>944</ele>
        <time>2019-11-29T11:16:01.000Z</time>
      </trkpt>
      <trkpt lat="43.30994" lon="5.69391">
        <ele>944</ele>
        <time>2019-11-29T11:16:02.000Z</time>
      </trkpt>
      <trkpt lat="43.30994" lon="5.69392">
        <ele>944</ele>
        <time>2019-11-29T11:16:03.000Z</time>
      </trkpt>
      <trkpt lat="43.30995" lon="5.69393">
        <ele>944</ele>
        <time>2019-11-29T11:16:04.000Z</time>
      </trkpt>
      <trkpt lat="43.30995" lon="5.69393">
        <ele>945</ele>
        <time>2019-11-29T11:16:05.000Z</time>
      </trkpt>
      <trkpt lat="43.30995" lon="5.69394">
        <ele>945</ele>
        <time>2019-11-29T11:16:06.000Z</time>
      </trkpt>
      <trkpt lat="43.30996" lon="5.69394">
        <ele>945</ele>
        <time>2019-11-29T11:16:07.000Z</time>
      </trkpt>
      <trkpt lat="43.30996" lon="5.69395">
        <ele>945</ele>
        <time>2019-11-29T11:16:08.000Z</time>
      </trkpt>
      <trkpt lat="43.30996" lon="5.69396">
        <ele>945</ele>
        <time>2019-11-29T11:16:09.000Z</time>
      </trkpt>
      <trkpt lat="43.30996" lon="5.69396">
        <ele>946</ele>
        <time>2019-11-29T11:16:10.000Z</time>
      </trkpt>
      <trkpt lat="43.30997" lon="5.69397">
        <ele>946</ele>
        <time>2019-11-29T11:16:11.000Z</time>
      </trkpt>
      <trkpt lat="43.30997" lon="5.69398">
        <ele>946</ele>
        <time>2019-11-29T11:16:12.000Z</time>
      </trkpt>
      <trkpt lat="43.30997" lon="5.69398">
        <ele>946</ele>
        <time>2019-11-29T11:16:13.000Z</time>
      </trkpt>
      <trkpt lat="43.30998" lon="5.69399">
        <ele>946</ele>
        <time>2019-11-29T11:16:14.000Z</time>
      </trkpt>
      <trkpt lat="43.30998" lon="5.694">
        <ele>947</ele>
        <time>2019-11-29T11:16:15.000Z</time>
      </trkpt>
      <trkpt lat="43.30998" lon="5.694">
        <ele>947</ele>
        <time>2019-11-29T11:16:16.000Z</time>
      </trkpt>
      <trkpt lat="43.30998" lon="5.69401">
        <ele>947</ele>
        <time>2019-11-29T11:16:17.000Z</time>
      </trkpt>
      <trkpt lat="43.30999" lon="5.69401">
        <ele>947</ele>
        <time>2019-11-29T11:16:18.000Z</time>
      </trkpt>
      <trkpt lat="43.30999" lon="5.69402">
        <ele>947</ele>
        <time>2019-11-29T11:16:19.000Z</time>
      </trkpt>
      <trkpt lat="43.30999" lon="5.69403">
        <ele>947</ele>
        <time>2019-11-29T11:16:20.000Z</time>
      </trkpt>
      <trkpt lat="43.31" lon="5.69404">
        <ele>947</ele>
        <time>2019-11-29T11:16:21.000Z</time>
      </trkpt>
      <trkpt lat="43.31" lon="5.69404">
        <ele>948</ele>
        <time>2019-11-29T11:16:22.000Z</time>
      </trkpt>
      <trkpt lat="43.31" lon="5.69405">
        <ele>948</ele>
        <time>2019-11-29T11:16:23.000Z</time>
      </trkpt>
      <trkpt lat="43.31001" lon="5.69405">
        <ele>948</ele>
        <time>2019-11-29T11:16:24.000Z</time>
      </trkpt>
      <trkpt lat="43.31001" lon="5.69406">
        <ele>948</ele>
        <time>2019-11-29T11:16:25.000Z</time>
      </trkpt>
      <trkpt lat="43.31001" lon="5.69407">
        <ele>948</ele>
        <time>2019-11-29T11:16:26.000Z</time>
      </trkpt>
      <trkpt lat="43.31001" lon="5.69408">
        <ele>948</ele>
        <time>2019-11-29T11:16:27.000Z</time>
      </trkpt>
      <trkpt lat="43.31001" lon="5.69408">
        <ele>949</ele>
        <time>2019-11-29T11:16:28.000Z</time>
      </trkpt>
      <trkpt lat="43.31002" lon="5.69409">
        <ele>949</ele>
        <time>2019-11-29T11:16:29.000Z</time>
      </trkpt>
      <trkpt lat="43.31002" lon="5.6941">
        <ele>949</ele>
        <time>2019-11-29T11:16:30.000Z</time>
      </trkpt>
      <trkpt lat="43.31002" lon="5.6941">
        <ele>949</ele>
        <time>2019-11-29T11:16:31.000Z</time>
      </trkpt>
      <trkpt lat="43.31002" lon="5.69411">
        <ele>949</ele>
        <time>2019-11-29T11:16:32.000Z</time>
      </trkpt>
      <trkpt lat="43.31003" lon="5.69412">
        <ele>949</ele>
        <time>2019-11-29T11:16:33.000Z</time>
      </trkpt>
      <trkpt lat="43.31003" lon="5.69412">
        <ele>950</ele>
        <time>2019-11-29T11:16:34.000Z</time>
      </trkpt>
      <trkpt lat="43.31003" lon="5.69413">
        <ele>950</ele>
        <time>2019-11-29T11:16:35.000Z</time>
      </trkpt>
      <trkpt lat="43.31003" lon="5.69414">
        <ele>950</ele>
        <time>2019-11-29T11:16:36.000Z</time>
      </trkpt>
      <trkpt lat="43.31004" lon="5.69415">
        <ele>950</ele>
        <time>2019-11-29T11:16:37.000Z</time>
      </trkpt>
      <trkpt lat="43.31004" lon="5.69415">
        <ele>950</ele>
        <time>2019-11-29T11:16:38.000Z</time>
      </trkpt>
      <trkpt lat="43.31004" lon="5.69416">
        <ele>950</ele>
        <time>2019-11-29T11:16:39.000Z</time>
      </trkpt>
      <trkpt lat="43.31004" lon="5.69417">
        <ele>950</ele>
        <time>2019-11-29T11:16:40.000Z</time>
      </trkpt>
      <trkpt lat="43.31004" lon="5.69418">
        <ele>950</ele>
        <time>2019-11-29T11:16:41.000Z</time>
      </trkpt>
      <trkpt lat="43.31004" lon="5.69418">
        <ele>950</ele>
        <time>2019-11-29T11:16:42.000Z</time>
      </trkpt>
      <trkpt lat="43.31004" lon="5.69419">
        <ele>950</ele>
        <time>2019-11-29T11:16:43.000Z</time>
      </trkpt>
      <trkpt lat="43.31004" lon="5.6942">
        <ele>950</ele>
        <time>2019-11-29T11:16:44.000Z</time>
      </trkpt>
      <trkpt lat="43.31004" lon="5.69421">
        <ele>951</ele>
        <time>2019-11-29T11:16:45.000Z</time>
      </trkpt>
      <trkpt lat="43.31005" lon="5.69421">
        <ele>951</ele>
        <time>2019-11-29T11:16:46.000Z</time>
      </trkpt>
      <trkpt lat="43.31005" lon="5.69422">
        <ele>951</ele>
        <time>2019-11-29T11:16:47.000Z</time>
      </trkpt>
      <trkpt lat="43.31005" lon="5.69423">
        <ele>951</ele>
        <time>2019-11-29T11:16:48.000Z</time>
      </trkpt>
      <trkpt lat="43.31005" lon="5.69424">
        <ele>951</ele>
        <time>2019-11-29T11:16:49.000Z</time>
      </trkpt>
      <trkpt lat="43.31005" lon="5.69425">
        <ele>951</ele>
        <time>2019-11-29T11:16:50.000Z</time>
      </trkpt>
      <trkpt lat="43.31006" lon="5.69425">
        <ele>951</ele>
        <time>2019-11-29T11:16:51.000Z</time>
      </trkpt>
      <trkpt lat="43.31006" lon="5.69426">
        <ele>951</ele>
        <time>2019-11-29T11:16:52.000Z</time>
      </trkpt>
      <trkpt lat="43.31006" lon="5.69427">
        <ele>952</ele>
        <time>2019-11-29T11:16:53.000Z</time>
      </trkpt>
      <trkpt lat="43.31006" lon="5.69427">
        <ele>952</ele>
        <time>2019-11-29T11:16:54.000Z</time>
      </trkpt>
      <trkpt lat="43.31006" lon="5.69428">
        <ele>952</ele>
        <time>2019-11-29T11:16:55.000Z</time>
      </trkpt>
      <trkpt lat="43.31006" lon="5.69428">
        <ele>952</ele>
        <time>2019-11-29T11:16:56.000Z</time>
      </trkpt>
      <trkpt lat="43.31006" lon="5.69429">
        <ele>952</ele>
        <time>2019-11-29T11:16:57.000Z</time>
      </trkpt>
      <trkpt lat="43.31006" lon="5.6943">
        <ele>952</ele>
        <time>2019-11-29T11:16:58.000Z</time>
      </trkpt>
      <trkpt lat="43.31007" lon="5.69431">
        <ele>952</ele>
        <time>2019-11-29T11:16:59.000Z</time>
      </trkpt>
      <trkpt lat="43.31007" lon="5.69431">
        <ele>953</ele>
        <time>2019-11-29T11:17:00.000Z</time>
      </trkpt>
      <trkpt lat="43.31007" lon="5.69432">
        <ele>953</ele>
        <time>2019-11-29T11:17:01.000Z</time>
      </trkpt>
      <trkpt lat="43.31007" lon="5.69432">
        <ele>953</ele>
        <time>2019-11-29T11:17:02.000Z</time>
      </trkpt>
      <trkpt lat="43.31007" lon="5.69432">
        <ele>953</ele>
        <time>2019-11-29T11:17:03.000Z</time>
      </trkpt>
      <trkpt lat="43.31007" lon="5.69433">
        <ele>953</ele>
        <time>2019-11-29T11:17:04.000Z</time>
      </trkpt>
      <trkpt lat="43.31008" lon="5.69434">
        <ele>953</ele>
        <time>2019-11-29T11:17:05.000Z</time>
      </trkpt>
      <trkpt lat="43.31008" lon="5.69435">
        <ele>953</ele>
        <time>2019-11-29T11:17:06.000Z</time>
      </trkpt>
      <trkpt lat="43.31008" lon="5.69436">
        <ele>953</ele>
        <time>2019-11-29T11:17:07.000Z</time>
      </trkpt>
      <trkpt lat="43.31009" lon="5.69436">
        <ele>953</ele>
        <time>2019-11-29T11:17:08.000Z</time>
      </trkpt>
      <trkpt lat="43.31009" lon="5.69437">
        <ele>953</ele>
        <time>2019-11-29T11:17:09.000Z</time>
      </trkpt>
      <trkpt lat="43.31009" lon="5.69438">
        <ele>953</ele>
        <time>2019-11-29T11:17:10.000Z</time>
      </trkpt>
      <trkpt lat="43.3101" lon="5.69439">
        <ele>954</ele>
        <time>2019-11-29T11:17:11.000Z</time>
      </trkpt>
      <trkpt lat="43.3101" lon="5.6944">
        <ele>954</ele>
        <time>2019-11-29T11:17:12.000Z</time>
      </trkpt>
      <trkpt lat="43.3101" lon="5.69441">
        <ele>954</ele>
        <time>2019-11-29T11:17:13.000Z</time>
      </trkpt>
      <trkpt lat="43.31011" lon="5.69441">
        <ele>954</ele>
        <time>2019-11-29T11:17:14.000Z</time>
      </trkpt>
      <trkpt lat="43.31011" lon="5.69442">
        <ele>954</ele>
        <time>2019-11-29T11:17:15.000Z</time>
      </trkpt>
      <trkpt lat="43.31011" lon="5.69443">
        <ele>954</ele>
        <time>2019-11-29T11:17:16.000Z</time>
      </trkpt>
      <trkpt lat="43.31012" lon="5.69444">
        <ele>955</ele>
        <time>2019-11-29T11:17:17.000Z</time>
      </trkpt>
      <trkpt lat="43.31012" lon="5.69445">
        <ele>955</ele>
        <time>2019-11-29T11:17:18.000Z</time>
      </trkpt>
      <trkpt lat="43.31012" lon="5.69446">
        <ele>955</ele>
        <time>2019-11-29T11:17:19.000Z</time>
      </trkpt>
      <trkpt lat="43.31013" lon="5.69447">
        <ele>955</ele>
        <time>2019-11-29T11:17:20.000Z</time>
      </trkpt>
      <trkpt lat="43.31013" lon="5.69448">
        <ele>955</ele>
        <time>2019-11-29T11:17:21.000Z</time>
      </trkpt>
      <trkpt lat="43.31013" lon="5.69449">
        <ele>955</ele>
        <time>2019-11-29T11:17:22.000Z</time>
      </trkpt>
      <trkpt lat="43.31013" lon="5.6945">
        <ele>955</ele>
        <time>2019-11-29T11:17:23.000Z</time>
      </trkpt>
      <trkpt lat="43.31013" lon="5.6945">
        <ele>955</ele>
        <time>2019-11-29T11:17:24.000Z</time>
      </trkpt>
      <trkpt lat="43.31013" lon="5.6945">
        <ele>955</ele>
        <time>2019-11-29T11:17:25.000Z</time>
      </trkpt>
      <trkpt lat="43.31013" lon="5.69451">
        <ele>955</ele>
        <time>2019-11-29T11:17:26.000Z</time>
      </trkpt>
      <trkpt lat="43.31013" lon="5.69451">
        <ele>955</ele>
        <time>2019-11-29T11:17:27.000Z</time>
      </trkpt>
      <trkpt lat="43.31013" lon="5.69451">
        <ele>955</ele>
        <time>2019-11-29T11:17:28.000Z</time>
      </trkpt>
      <trkpt lat="43.31013" lon="5.69451">
        <ele>955</ele>
        <time>2019-11-29T11:17:29.000Z</time>
      </trkpt>
      <trkpt lat="43.31013" lon="5.69451">
        <ele>956</ele>
        <time>2019-11-29T11:17:30.000Z</time>
      </trkpt>
      <trkpt lat="43.31013" lon="5.69451">
        <ele>956</ele>
        <time>2019-11-29T11:17:31.000Z</time>
      </trkpt>
      <trkpt lat="43.31012" lon="5.69451">
        <ele>956</ele>
        <time>2019-11-29T11:17:32.000Z</time>
      </trkpt>
      <trkpt lat="43.31012" lon="5.69451">
        <ele>956</ele>
        <time>2019-11-29T11:17:33.000Z</time>
      </trkpt>
      <trkpt lat="43.31013" lon="5.69451">
        <ele>956</ele>
        <time>2019-11-29T11:17:34.000Z</time>
      </trkpt>
      <trkpt lat="43.31013" lon="5.69451">
        <ele>956</ele>
        <time>2019-11-29T11:17:35.000Z</time>
      </trkpt>
      <trkpt lat="43.31013" lon="5.69451">
        <ele>956</ele>
        <time>2019-11-29T11:17:36.000Z</time>
      </trkpt>
      <trkpt lat="43.31013" lon="5.69451">
        <ele>956</ele>
        <time>2019-11-29T11:17:37.000Z</time>
      </trkpt>
      <trkpt lat="43.31013" lon="5.69451">
        <ele>956</ele>
        <time>2019-11-29T11:17:38.000Z</time>
      </trkpt>
      <trkpt lat="43.31013" lon="5.69451">
        <ele>956</ele>
        <time>2019-11-29T11:17:39.000Z</time>
      </trkpt>
      <trkpt lat="43.31013" lon="5.69451">
        <ele>956</ele>
        <time>2019-11-29T11:17:40.000Z</time>
      </trkpt>
      <trkpt lat="43.31013" lon="5.69451">
        <ele>956</ele>
        <time>2019-11-29T11:17:41.000Z</time>
      </trkpt>
      <trkpt lat="43.31013" lon="5.69451">
        <ele>956</ele>
        <time>2019-11-29T11:17:42.000Z</time>
      </trkpt>
      <trkpt lat="43.31012" lon="5.69451">
        <ele>956</ele>
        <time>2019-11-29T11:17:43.000Z</time>
      </trkpt>
      <trkpt lat="43.31013" lon="5.69451">
        <ele>956</ele>
        <time>2019-11-29T11:17:44.000Z</time>
      </trkpt>
      <trkpt lat="43.31013" lon="5.69451">
        <ele>956</ele>
        <time>2019-11-29T11:17:45.000Z</time>
      </trkpt>
      <trkpt lat="43.31012" lon="5.69451">
        <ele>956</ele>
        <time>2019-11-29T11:17:46.000Z</time>
      </trkpt>
      <trkpt lat="43.31012" lon="5.69451">
        <ele>956</ele>
        <time>2019-11-29T11:17:47.000Z</time>
      </trkpt>
      <trkpt lat="43.31012" lon="5.69451">
        <ele>956</ele>
        <time>2019-11-29T11:17:48.000Z</time>
      </trkpt>
      <trkpt lat="43.31012" lon="5.6945">
        <ele>956</ele>
        <time>2019-11-29T11:17:49.000Z</time>
      </trkpt>
      <trkpt lat="43.31012" lon="5.6945">
        <ele>956</ele>
        <time>2019-11-29T11:17:50.000Z</time>
      </trkpt>
      <trkpt lat="43.31012" lon="5.6945">
        <ele>956</ele>
        <time>2019-11-29T11:17:51.000Z</time>
      </trkpt>
      <trkpt lat="43.31012" lon="5.6945">
        <ele>956</ele>
        <time>2019-11-29T11:17:52.000Z</time>
      </trkpt>
      <trkpt lat="43.31012" lon="5.6945">
        <ele>956</ele>
        <time>2019-11-29T11:17:53.000Z</time>
      </trkpt>
      <trkpt lat="43.31012" lon="5.6945">
        <ele>956</ele>
        <time>2019-11-29T11:17:54.000Z</time>
      </trkpt>
      <trkpt lat="43.31012" lon="5.6945">
        <ele>956</ele>
        <time>2019-11-29T11:17:55.000Z</time>
      </trkpt>
      <trkpt lat="43.31012" lon="5.6945">
        <ele>956</ele>
        <time>2019-11-29T11:17:56.000Z</time>
      </trkpt>
      <trkpt lat="43.31012" lon="5.6945">
        <ele>956</ele>
        <time>2019-11-29T11:17:57.000Z</time>
      </trkpt>
      <trkpt lat="43.31012" lon="5.6945">
        <ele>956</ele>
        <time>2019-11-29T11:17:58.000Z</time>
      </trkpt>
      <trkpt lat="43.31012" lon="5.6945">
        <ele>956</ele>
        <time>2019-11-29T11:17:59.000Z</time>
      </trkpt>
      <trkpt lat="43.31012" lon="5.6945">
        <ele>956</ele>
        <time>2019-11-29T11:18:00.000Z</time>
      </trkpt>
      <trkpt lat="43.31012" lon="5.6945">
        <ele>956</ele>
        <time>2019-11-29T11:18:01.000Z</time>
      </trkpt>
      <trkpt lat="43.31012" lon="5.6945">
        <ele>956</ele>
        <time>2019-11-29T11:18:02.000Z</time>
      </trkpt>
      <trkpt lat="43.31012" lon="5.6945">
        <ele>956</ele>
        <time>2019-11-29T11:18:03.000Z</time>
      </trkpt>
      <trkpt lat="43.31012" lon="5.6945">
        <ele>956</ele>
        <time>2019-11-29T11:18:04.000Z</time>
      </trkpt>
      <trkpt lat="43.31012" lon="5.6945">
        <ele>956</ele>
        <time>2019-11-29T11:18:05.000Z</time>
      </trkpt>
      <trkpt lat="43.31012" lon="5.6945">
        <ele>956</ele>
        <time>2019-11-29T11:18:06.000Z</time>
      </trkpt>
      <trkpt lat="43.31012" lon="5.6945">
        <ele>956</ele>
        <time>2019-11-29T11:18:07.000Z</time>
      </trkpt>
      <trkpt lat="43.31012" lon="5.69451">
        <ele>956</ele>
        <time>2019-11-29T11:18:08.000Z</time>
      </trkpt>
      <trkpt lat="43.31012" lon="5.69451">
        <ele>956</ele>
        <time>2019-11-29T11:18:09.000Z</time>
      </trkpt>
      <trkpt lat="43.31012" lon="5.69451">
        <ele>956</ele>
        <time>2019-11-29T11:18:10.000Z</time>
      </trkpt>
      <trkpt lat="43.31012" lon="5.69451">
        <ele>956</ele>
        <time>2019-11-29T11:18:11.000Z</time>
      </trkpt>
      <trkpt lat="43.31013" lon="5.69452">
        <ele>956</ele>
        <time>2019-11-29T11:18:12.000Z</time>
      </trkpt>
      <trkpt lat="43.31013" lon="5.69453">
        <ele>956</ele>
        <time>2019-11-29T11:18:13.000Z</time>
      </trkpt>
      <trkpt lat="43.31013" lon="5.69454">
        <ele>956</ele>
        <time>2019-11-29T11:18:14.000Z</time>
      </trkpt>
      <trkpt lat="43.31014" lon="5.69456">
        <ele>956</ele>
        <time>2019-11-29T11:18:15.000Z</time>
      </trkpt>
      <trkpt lat="43.31014" lon="5.69457">
        <ele>956</ele>
        <time>2019-11-29T11:18:16.000Z</time>
      </trkpt>
      <trkpt lat="43.31014" lon="5.69458">
        <ele>956</ele>
        <time>2019-11-29T11:18:17.000Z</time>
      </trkpt>
      <trkpt lat="43.31014" lon="5.69459">
        <ele>956</ele>
        <time>2019-11-29T11:18:18.000Z</time>
      </trkpt>
      <trkpt lat="43.31015" lon="5.6946">
        <ele>956</ele>
        <time>2019-11-29T11:18:19.000Z</time>
      </trkpt>
      <trkpt lat="43.31015" lon="5.69461">
        <ele>956</ele>
        <time>2019-11-29T11:18:20.000Z</time>
      </trkpt>
      <trkpt lat="43.31015" lon="5.69462">
        <ele>956</ele>
        <time>2019-11-29T11:18:21.000Z</time>
      </trkpt>
      <trkpt lat="43.31016" lon="5.69463">
        <ele>956</ele>
        <time>2019-11-29T11:18:22.000Z</time>
      </trkpt>
      <trkpt lat="43.31016" lon="5.69464">
        <ele>956</ele>
        <time>2019-11-29T11:18:23.000Z</time>
      </trkpt>
      <trkpt lat="43.31016" lon="5.69465">
        <ele>956</ele>
        <time>2019-11-29T11:18:24.000Z</time>
      </trkpt>
      <trkpt lat="43.31017" lon="5.69466">
        <ele>956</ele>
        <time>2019-11-29T11:18:25.000Z</time>
      </trkpt>
      <trkpt lat="43.31017" lon="5.69467">
        <ele>955</ele>
        <time>2019-11-29T11:18:26.000Z</time>
      </trkpt>
      <trkpt lat="43.31017" lon="5.69469">
        <ele>955</ele>
        <time>2019-11-29T11:18:27.000Z</time>
      </trkpt>
      <trkpt lat="43.31018" lon="5.6947">
        <ele>955</ele>
        <time>2019-11-29T11:18:28.000Z</time>
      </trkpt>
      <trkpt lat="43.31018" lon="5.6947">
        <ele>955</ele>
        <time>2019-11-29T11:18:29.000Z</time>
      </trkpt>
      <trkpt lat="43.31019" lon="5.69472">
        <ele>955</ele>
        <time>2019-11-29T11:18:30.000Z</time>
      </trkpt>
      <trkpt lat="43.31019" lon="5.69473">
        <ele>955</ele>
        <time>2019-11-29T11:18:31.000Z</time>
      </trkpt>
      <trkpt lat="43.31019" lon="5.69474">
        <ele>955</ele>
        <time>2019-11-29T11:18:32.000Z</time>
      </trkpt>
      <trkpt lat="43.31019" lon="5.69475">
        <ele>955</ele>
        <time>2019-11-29T11:18:33.000Z</time>
      </trkpt>
      <trkpt lat="43.3102" lon="5.69476">
        <ele>955</ele>
        <time>2019-11-29T11:18:34.000Z</time>
      </trkpt>
      <trkpt lat="43.3102" lon="5.69477">
        <ele>955</ele>
        <time>2019-11-29T11:18:35.000Z</time>
      </trkpt>
      <trkpt lat="43.3102" lon="5.69478">
        <ele>955</ele>
        <time>2019-11-29T11:18:36.000Z</time>
      </trkpt>
      <trkpt lat="43.31021" lon="5.69479">
        <ele>955</ele>
        <time>2019-11-29T11:18:37.000Z</time>
      </trkpt>
      <trkpt lat="43.31021" lon="5.6948">
        <ele>955</ele>
        <time>2019-11-29T11:18:38.000Z</time>
      </trkpt>
      <trkpt lat="43.31021" lon="5.69481">
        <ele>955</ele>
        <time>2019-11-29T11:18:39.000Z</time>
      </trkpt>
      <trkpt lat="43.31022" lon="5.69483">
        <ele>955</ele>
        <time>2019-11-29T11:18:40.000Z</time>
      </trkpt>
      <trkpt lat="43.31022" lon="5.69484">
        <ele>955</ele>
        <time>2019-11-29T11:18:41.000Z</time>
      </trkpt>
      <trkpt lat="43.31023" lon="5.69486">
        <ele>954</ele>
        <time>2019-11-29T11:18:42.000Z</time>
      </trkpt>
      <trkpt lat="43.31024" lon="5.69487">
        <ele>954</ele>
        <time>2019-11-29T11:18:43.000Z</time>
      </trkpt>
      <trkpt lat="43.31024" lon="5.69488">
        <ele>954</ele>
        <time>2019-11-29T11:18:44.000Z</time>
      </trkpt>
      <trkpt lat="43.31025" lon="5.69489">
        <ele>954</ele>
        <time>2019-11-29T11:18:45.000Z</time>
      </trkpt>
      <trkpt lat="43.31025" lon="5.6949">
        <ele>954</ele>
        <time>2019-11-29T11:18:46.000Z</time>
      </trkpt>
      <trkpt lat="43.31026" lon="5.69491">
        <ele>954</ele>
        <time>2019-11-29T11:18:47.000Z</time>
      </trkpt>
      <trkpt lat="43.31026" lon="5.69492">
        <ele>955</ele>
        <time>2019-11-29T11:18:48.000Z</time>
      </trkpt>
      <trkpt lat="43.31027" lon="5.69493">
        <ele>955</ele>
        <time>2019-11-29T11:18:49.000Z</time>
      </trkpt>
      <trkpt lat="43.31027" lon="5.69494">
        <ele>955</ele>
        <time>2019-11-29T11:18:50.000Z</time>
      </trkpt>
      <trkpt lat="43.31028" lon="5.69495">
        <ele>955</ele>
        <time>2019-11-29T11:18:51.000Z</time>
      </trkpt>
      <trkpt lat="43.31028" lon="5.69497">
        <ele>955</ele>
        <time>2019-11-29T11:18:52.000Z</time>
      </trkpt>
      <trkpt lat="43.31028" lon="5.69498">
        <ele>955</ele>
        <time>2019-11-29T11:18:53.000Z</time>
      </trkpt>
      <trkpt lat="43.31029" lon="5.69499">
        <ele>955</ele>
        <time>2019-11-29T11:18:54.000Z</time>
      </trkpt>
      <trkpt lat="43.31029" lon="5.695">
        <ele>955</ele>
        <time>2019-11-29T11:18:55.000Z</time>
      </trkpt>
      <trkpt lat="43.3103" lon="5.69501">
        <ele>955</ele>
        <time>2019-11-29T11:18:56.000Z</time>
      </trkpt>
      <trkpt lat="43.3103" lon="5.69502">
        <ele>955</ele>
        <time>2019-11-29T11:18:57.000Z</time>
      </trkpt>
      <trkpt lat="43.3103" lon="5.69503">
        <ele>955</ele>
        <time>2019-11-29T11:18:58.000Z</time>
      </trkpt>
      <trkpt lat="43.3103" lon="5.69504">
        <ele>955</ele>
        <time>2019-11-29T11:18:59.000Z</time>
      </trkpt>
      <trkpt lat="43.31031" lon="5.69505">
        <ele>956</ele>
        <time>2019-11-29T11:19:00.000Z</time>
      </trkpt>
      <trkpt lat="43.31031" lon="5.69507">
        <ele>956</ele>
        <time>2019-11-29T11:19:01.000Z</time>
      </trkpt>
      <trkpt lat="43.31032" lon="5.69508">
        <ele>956</ele>
        <time>2019-11-29T11:19:02.000Z</time>
      </trkpt>
      <trkpt lat="43.31032" lon="5.69509">
        <ele>956</ele>
        <time>2019-11-29T11:19:03.000Z</time>
      </trkpt>
      <trkpt lat="43.31033" lon="5.6951">
        <ele>956</ele>
        <time>2019-11-29T11:19:04.000Z</time>
      </trkpt>
      <trkpt lat="43.31033" lon="5.69512">
        <ele>956</ele>
        <time>2019-11-29T11:19:05.000Z</time>
      </trkpt>
      <trkpt lat="43.31034" lon="5.69513">
        <ele>956</ele>
        <time>2019-11-29T11:19:06.000Z</time>
      </trkpt>
      <trkpt lat="43.31034" lon="5.69514">
        <ele>956</ele>
        <time>2019-11-29T11:19:07.000Z</time>
      </trkpt>
      <trkpt lat="43.31035" lon="5.69515">
        <ele>956</ele>
        <time>2019-11-29T11:19:08.000Z</time>
      </trkpt>
      <trkpt lat="43.31035" lon="5.69516">
        <ele>956</ele>
        <time>2019-11-29T11:19:09.000Z</time>
      </trkpt>
      <trkpt lat="43.31036" lon="5.69518">
        <ele>956</ele>
        <time>2019-11-29T11:19:10.000Z</time>
      </trkpt>
      <trkpt lat="43.31036" lon="5.69519">
        <ele>957</ele>
        <time>2019-11-29T11:19:11.000Z</time>
      </trkpt>
      <trkpt lat="43.31036" lon="5.6952">
        <ele>957</ele>
        <time>2019-11-29T11:19:12.000Z</time>
      </trkpt>
      <trkpt lat="43.31036" lon="5.69521">
        <ele>957</ele>
        <time>2019-11-29T11:19:13.000Z</time>
      </trkpt>
      <trkpt lat="43.31037" lon="5.69522">
        <ele>957</ele>
        <time>2019-11-29T11:19:14.000Z</time>
      </trkpt>
      <trkpt lat="43.31037" lon="5.69524">
        <ele>957</ele>
        <time>2019-11-29T11:19:15.000Z</time>
      </trkpt>
      <trkpt lat="43.31037" lon="5.69525">
        <ele>957</ele>
        <time>2019-11-29T11:19:16.000Z</time>
      </trkpt>
      <trkpt lat="43.31038" lon="5.69526">
        <ele>957</ele>
        <time>2019-11-29T11:19:17.000Z</time>
      </trkpt>
      <trkpt lat="43.31038" lon="5.69527">
        <ele>957</ele>
        <time>2019-11-29T11:19:18.000Z</time>
      </trkpt>
      <trkpt lat="43.31038" lon="5.69528">
        <ele>957</ele>
        <time>2019-11-29T11:19:19.000Z</time>
      </trkpt>
      <trkpt lat="43.31038" lon="5.69529">
        <ele>957</ele>
        <time>2019-11-29T11:19:20.000Z</time>
      </trkpt>
      <trkpt lat="43.31039" lon="5.69531">
        <ele>958</ele>
        <time>2019-11-29T11:19:21.000Z</time>
      </trkpt>
      <trkpt lat="43.31039" lon="5.69532">
        <ele>958</ele>
        <time>2019-11-29T11:19:22.000Z</time>
      </trkpt>
      <trkpt lat="43.31039" lon="5.69533">
        <ele>958</ele>
        <time>2019-11-29T11:19:23.000Z</time>
      </trkpt>
      <trkpt lat="43.3104" lon="5.69534">
        <ele>958</ele>
        <time>2019-11-29T11:19:24.000Z</time>
      </trkpt>
      <trkpt lat="43.3104" lon="5.69535">
        <ele>958</ele>
        <time>2019-11-29T11:19:25.000Z</time>
      </trkpt>
      <trkpt lat="43.3104" lon="5.69536">
        <ele>958</ele>
        <time>2019-11-29T11:19:26.000Z</time>
      </trkpt>
      <trkpt lat="43.3104" lon="5.69537">
        <ele>959</ele>
        <time>2019-11-29T11:19:27.000Z</time>
      </trkpt>
      <trkpt lat="43.31041" lon="5.69538">
        <ele>959</ele>
        <time>2019-11-29T11:19:28.000Z</time>
      </trkpt>
      <trkpt lat="43.31041" lon="5.69539">
        <ele>959</ele>
        <time>2019-11-29T11:19:29.000Z</time>
      </trkpt>
      <trkpt lat="43.31041" lon="5.69539">
        <ele>959</ele>
        <time>2019-11-29T11:19:30.000Z</time>
      </trkpt>
      <trkpt lat="43.31041" lon="5.6954">
        <ele>959</ele>
        <time>2019-11-29T11:19:31.000Z</time>
      </trkpt>
      <trkpt lat="43.31041" lon="5.69541">
        <ele>960</ele>
        <time>2019-11-29T11:19:32.000Z</time>
      </trkpt>
      <trkpt lat="43.31041" lon="5.69541">
        <ele>960</ele>
        <time>2019-11-29T11:19:33.000Z</time>
      </trkpt>
      <trkpt lat="43.31041" lon="5.69542">
        <ele>960</ele>
        <time>2019-11-29T11:19:34.000Z</time>
      </trkpt>
      <trkpt lat="43.31042" lon="5.69543">
        <ele>960</ele>
        <time>2019-11-29T11:19:35.000Z</time>
      </trkpt>
      <trkpt lat="43.31042" lon="5.69543">
        <ele>960</ele>
        <time>2019-11-29T11:19:36.000Z</time>
      </trkpt>
      <trkpt lat="43.31042" lon="5.69544">
        <ele>960</ele>
        <time>2019-11-29T11:19:37.000Z</time>
      </trkpt>
      <trkpt lat="43.31042" lon="5.69545">
        <ele>960</ele>
        <time>2019-11-29T11:19:38.000Z</time>
      </trkpt>
      <trkpt lat="43.31042" lon="5.69546">
        <ele>960</ele>
        <time>2019-11-29T11:19:39.000Z</time>
      </trkpt>
      <trkpt lat="43.31042" lon="5.69547">
        <ele>961</ele>
        <time>2019-11-29T11:19:40.000Z</time>
      </trkpt>
      <trkpt lat="43.31042" lon="5.69548">
        <ele>961</ele>
        <time>2019-11-29T11:19:41.000Z</time>
      </trkpt>
      <trkpt lat="43.31042" lon="5.69549">
        <ele>961</ele>
        <time>2019-11-29T11:19:42.000Z</time>
      </trkpt>
      <trkpt lat="43.31042" lon="5.6955">
        <ele>961</ele>
        <time>2019-11-29T11:19:43.000Z</time>
      </trkpt>
      <trkpt lat="43.31042" lon="5.69551">
        <ele>961</ele>
        <time>2019-11-29T11:19:44.000Z</time>
      </trkpt>
      <trkpt lat="43.31042" lon="5.69552">
        <ele>961</ele>
        <time>2019-11-29T11:19:45.000Z</time>
      </trkpt>
      <trkpt lat="43.31043" lon="5.69553">
        <ele>961</ele>
        <time>2019-11-29T11:19:46.000Z</time>
      </trkpt>
      <trkpt lat="43.31043" lon="5.69555">
        <ele>962</ele>
        <time>2019-11-29T11:19:47.000Z</time>
      </trkpt>
      <trkpt lat="43.31043" lon="5.69556">
        <ele>962</ele>
        <time>2019-11-29T11:19:48.000Z</time>
      </trkpt>
      <trkpt lat="43.31044" lon="5.69557">
        <ele>962</ele>
        <time>2019-11-29T11:19:49.000Z</time>
      </trkpt>
      <trkpt lat="43.31044" lon="5.69558">
        <ele>962</ele>
        <time>2019-11-29T11:19:50.000Z</time>
      </trkpt>
      <trkpt lat="43.31044" lon="5.69559">
        <ele>962</ele>
        <time>2019-11-29T11:19:51.000Z</time>
      </trkpt>
      <trkpt lat="43.31045" lon="5.69561">
        <ele>962</ele>
        <time>2019-11-29T11:19:52.000Z</time>
      </trkpt>
      <trkpt lat="43.31045" lon="5.69562">
        <ele>962</ele>
        <time>2019-11-29T11:19:53.000Z</time>
      </trkpt>
      <trkpt lat="43.31046" lon="5.69563">
        <ele>962</ele>
        <time>2019-11-29T11:19:54.000Z</time>
      </trkpt>
      <trkpt lat="43.31046" lon="5.69564">
        <ele>962</ele>
        <time>2019-11-29T11:19:55.000Z</time>
      </trkpt>
      <trkpt lat="43.31046" lon="5.69565">
        <ele>962</ele>
        <time>2019-11-29T11:19:56.000Z</time>
      </trkpt>
      <trkpt lat="43.31047" lon="5.69566">
        <ele>962</ele>
        <time>2019-11-29T11:19:57.000Z</time>
      </trkpt>
      <trkpt lat="43.31047" lon="5.69567">
        <ele>963</ele>
        <time>2019-11-29T11:19:58.000Z</time>
      </trkpt>
      <trkpt lat="43.31047" lon="5.69568">
        <ele>963</ele>
        <time>2019-11-29T11:19:59.000Z</time>
      </trkpt>
      <trkpt lat="43.31048" lon="5.69569">
        <ele>963</ele>
        <time>2019-11-29T11:20:00.000Z</time>
      </trkpt>
      <trkpt lat="43.31048" lon="5.6957">
        <ele>963</ele>
        <time>2019-11-29T11:20:01.000Z</time>
      </trkpt>
      <trkpt lat="43.31048" lon="5.69571">
        <ele>963</ele>
        <time>2019-11-29T11:20:02.000Z</time>
      </trkpt>
      <trkpt lat="43.31049" lon="5.69572">
        <ele>964</ele>
        <time>2019-11-29T11:20:03.000Z</time>
      </trkpt>
      <trkpt lat="43.31049" lon="5.69573">
        <ele>964</ele>
        <time>2019-11-29T11:20:04.000Z</time>
      </trkpt>
      <trkpt lat="43.3105" lon="5.69575">
        <ele>964</ele>
        <time>2019-11-29T11:20:05.000Z</time>
      </trkpt>
      <trkpt lat="43.3105" lon="5.69576">
        <ele>964</ele>
        <time>2019-11-29T11:20:06.000Z</time>
      </trkpt>
      <trkpt lat="43.3105" lon="5.69577">
        <ele>964</ele>
        <time>2019-11-29T11:20:07.000Z</time>
      </trkpt>
      <trkpt lat="43.31051" lon="5.69578">
        <ele>964</ele>
        <time>2019-11-29T11:20:08.000Z</time>
      </trkpt>
      <trkpt lat="43.31051" lon="5.69579">
        <ele>964</ele>
        <time>2019-11-29T11:20:09.000Z</time>
      </trkpt>
      <trkpt lat="43.31052" lon="5.6958">
        <ele>964</ele>
        <time>2019-11-29T11:20:10.000Z</time>
      </trkpt>
      <trkpt lat="43.31052" lon="5.69582">
        <ele>964</ele>
        <time>2019-11-29T11:20:11.000Z</time>
      </trkpt>
      <trkpt lat="43.31052" lon="5.69583">
        <ele>964</ele>
        <time>2019-11-29T11:20:12.000Z</time>
      </trkpt>
      <trkpt lat="43.31053" lon="5.69584">
        <ele>964</ele>
        <time>2019-11-29T11:20:13.000Z</time>
      </trkpt>
      <trkpt lat="43.31053" lon="5.69585">
        <ele>964</ele>
        <time>2019-11-29T11:20:14.000Z</time>
      </trkpt>
      <trkpt lat="43.31053" lon="5.69587">
        <ele>964</ele>
        <time>2019-11-29T11:20:15.000Z</time>
      </trkpt>
      <trkpt lat="43.31054" lon="5.69588">
        <ele>964</ele>
        <time>2019-11-29T11:20:16.000Z</time>
      </trkpt>
      <trkpt lat="43.31054" lon="5.69589">
        <ele>965</ele>
        <time>2019-11-29T11:20:17.000Z</time>
      </trkpt>
      <trkpt lat="43.31055" lon="5.69591">
        <ele>965</ele>
        <time>2019-11-29T11:20:18.000Z</time>
      </trkpt>
      <trkpt lat="43.31055" lon="5.69592">
        <ele>965</ele>
        <time>2019-11-29T11:20:19.000Z</time>
      </trkpt>
      <trkpt lat="43.31055" lon="5.69593">
        <ele>965</ele>
        <time>2019-11-29T11:20:20.000Z</time>
      </trkpt>
      <trkpt lat="43.31056" lon="5.69594">
        <ele>965</ele>
        <time>2019-11-29T11:20:21.000Z</time>
      </trkpt>
      <trkpt lat="43.31056" lon="5.69596">
        <ele>965</ele>
        <time>2019-11-29T11:20:22.000Z</time>
      </trkpt>
      <trkpt lat="43.31056" lon="5.69597">
        <ele>965</ele>
        <time>2019-11-29T11:20:23.000Z</time>
      </trkpt>
      <trkpt lat="43.31057" lon="5.69598">
        <ele>965</ele>
        <time>2019-11-29T11:20:24.000Z</time>
      </trkpt>
      <trkpt lat="43.31057" lon="5.69599">
        <ele>965</ele>
        <time>2019-11-29T11:20:25.000Z</time>
      </trkpt>
      <trkpt lat="43.31057" lon="5.696">
        <ele>965</ele>
        <time>2019-11-29T11:20:26.000Z</time>
      </trkpt>
      <trkpt lat="43.31058" lon="5.69601">
        <ele>965</ele>
        <time>2019-11-29T11:20:27.000Z</time>
      </trkpt>
      <trkpt lat="43.31058" lon="5.69602">
        <ele>965</ele>
        <time>2019-11-29T11:20:28.000Z</time>
      </trkpt>
      <trkpt lat="43.31059" lon="5.69602">
        <ele>966</ele>
        <time>2019-11-29T11:20:29.000Z</time>
      </trkpt>
      <trkpt lat="43.31059" lon="5.69603">
        <ele>966</ele>
        <time>2019-11-29T11:20:30.000Z</time>
      </trkpt>
      <trkpt lat="43.3106" lon="5.69604">
        <ele>966</ele>
        <time>2019-11-29T11:20:31.000Z</time>
      </trkpt>
      <trkpt lat="43.3106" lon="5.69605">
        <ele>966</ele>
        <time>2019-11-29T11:20:32.000Z</time>
      </trkpt>
      <trkpt lat="43.3106" lon="5.69606">
        <ele>966</ele>
        <time>2019-11-29T11:20:33.000Z</time>
      </trkpt>
      <trkpt lat="43.3106" lon="5.69607">
        <ele>966</ele>
        <time>2019-11-29T11:20:34.000Z</time>
      </trkpt>
      <trkpt lat="43.3106" lon="5.69608">
        <ele>966</ele>
        <time>2019-11-29T11:20:35.000Z</time>
      </trkpt>
      <trkpt lat="43.31061" lon="5.69608">
        <ele>966</ele>
        <time>2019-11-29T11:20:36.000Z</time>
      </trkpt>
      <trkpt lat="43.31061" lon="5.6961">
        <ele>966</ele>
        <time>2019-11-29T11:20:37.000Z</time>
      </trkpt>
      <trkpt lat="43.31061" lon="5.69611">
        <ele>967</ele>
        <time>2019-11-29T11:20:38.000Z</time>
      </trkpt>
      <trkpt lat="43.31062" lon="5.69612">
        <ele>967</ele>
        <time>2019-11-29T11:20:39.000Z</time>
      </trkpt>
      <trkpt lat="43.31062" lon="5.69613">
        <ele>967</ele>
        <time>2019-11-29T11:20:40.000Z</time>
      </trkpt>
      <trkpt lat="43.31062" lon="5.69615">
        <ele>967</ele>
        <time>2019-11-29T11:20:41.000Z</time>
      </trkpt>
      <trkpt lat="43.31063" lon="5.69616">
        <ele>967</ele>
        <time>2019-11-29T11:20:42.000Z</time>
      </trkpt>
      <trkpt lat="43.31063" lon="5.69617">
        <ele>967</ele>
        <time>2019-11-29T11:20:43.000Z</time>
      </trkpt>
      <trkpt lat="43.31063" lon="5.69618">
        <ele>967</ele>
        <time>2019-11-29T11:20:44.000Z</time>
      </trkpt>
      <trkpt lat="43.31064" lon="5.6962">
        <ele>967</ele>
        <time>2019-11-29T11:20:45.000Z</time>
      </trkpt>
      <trkpt lat="43.31064" lon="5.69621">
        <ele>967</ele>
        <time>2019-11-29T11:20:46.000Z</time>
      </trkpt>
      <trkpt lat="43.31064" lon="5.69622">
        <ele>967</ele>
        <time>2019-11-29T11:20:47.000Z</time>
      </trkpt>
      <trkpt lat="43.31065" lon="5.69624">
        <ele>967</ele>
        <time>2019-11-29T11:20:48.000Z</time>
      </trkpt>
      <trkpt lat="43.31065" lon="5.69625">
        <ele>967</ele>
        <time>2019-11-29T11:20:49.000Z</time>
      </trkpt>
      <trkpt lat="43.31065" lon="5.69627">
        <ele>967</ele>
        <time>2019-11-29T11:20:50.000Z</time>
      </trkpt>
      <trkpt lat="43.31066" lon="5.69628">
        <ele>967</ele>
        <time>2019-11-29T11:20:51.000Z</time>
      </trkpt>
      <trkpt lat="43.31066" lon="5.69629">
        <ele>967</ele>
        <time>2019-11-29T11:20:52.000Z</time>
      </trkpt>
      <trkpt lat="43.31066" lon="5.69631">
        <ele>967</ele>
        <time>2019-11-29T11:20:53.000Z</time>
      </trkpt>
      <trkpt lat="43.31066" lon="5.69632">
        <ele>967</ele>
        <time>2019-11-29T11:20:54.000Z</time>
      </trkpt>
      <trkpt lat="43.31067" lon="5.69633">
        <ele>967</ele>
        <time>2019-11-29T11:20:55.000Z</time>
      </trkpt>
      <trkpt lat="43.31067" lon="5.69634">
        <ele>967</ele>
        <time>2019-11-29T11:20:56.000Z</time>
      </trkpt>
      <trkpt lat="43.31067" lon="5.69636">
        <ele>967</ele>
        <time>2019-11-29T11:20:57.000Z</time>
      </trkpt>
      <trkpt lat="43.31068" lon="5.69637">
        <ele>967</ele>
        <time>2019-11-29T11:20:58.000Z</time>
      </trkpt>
      <trkpt lat="43.31068" lon="5.69639">
        <ele>967</ele>
        <time>2019-11-29T11:20:59.000Z</time>
      </trkpt>
      <trkpt lat="43.31068" lon="5.6964">
        <ele>967</ele>
        <time>2019-11-29T11:21:00.000Z</time>
      </trkpt>
      <trkpt lat="43.31068" lon="5.69641">
        <ele>966</ele>
        <time>2019-11-29T11:21:01.000Z</time>
      </trkpt>
      <trkpt lat="43.31069" lon="5.69642">
        <ele>966</ele>
        <time>2019-11-29T11:21:02.000Z</time>
      </trkpt>
      <trkpt lat="43.31069" lon="5.69644">
        <ele>966</ele>
        <time>2019-11-29T11:21:03.000Z</time>
      </trkpt>
      <trkpt lat="43.31069" lon="5.69645">
        <ele>966</ele>
        <time>2019-11-29T11:21:04.000Z</time>
      </trkpt>
      <trkpt lat="43.3107" lon="5.69646">
        <ele>966</ele>
        <time>2019-11-29T11:21:05.000Z</time>
      </trkpt>
      <trkpt lat="43.3107" lon="5.69648">
        <ele>966</ele>
        <time>2019-11-29T11:21:06.000Z</time>
      </trkpt>
      <trkpt lat="43.3107" lon="5.69649">
        <ele>966</ele>
        <time>2019-11-29T11:21:07.000Z</time>
      </trkpt>
      <trkpt lat="43.3107" lon="5.69651">
        <ele>966</ele>
        <time>2019-11-29T11:21:08.000Z</time>
      </trkpt>
      <trkpt lat="43.31071" lon="5.69652">
        <ele>966</ele>
        <time>2019-11-29T11:21:09.000Z</time>
      </trkpt>
      <trkpt lat="43.31071" lon="5.69653">
        <ele>966</ele>
        <time>2019-11-29T11:21:10.000Z</time>
      </trkpt>
      <trkpt lat="43.31071" lon="5.69655">
        <ele>966</ele>
        <time>2019-11-29T11:21:11.000Z</time>
      </trkpt>
      <trkpt lat="43.31071" lon="5.69656">
        <ele>966</ele>
        <time>2019-11-29T11:21:12.000Z</time>
      </trkpt>
      <trkpt lat="43.31071" lon="5.69657">
        <ele>966</ele>
        <time>2019-11-29T11:21:13.000Z</time>
      </trkpt>
      <trkpt lat="43.31072" lon="5.69659">
        <ele>966</ele>
        <time>2019-11-29T11:21:14.000Z</time>
      </trkpt>
      <trkpt lat="43.31072" lon="5.6966">
        <ele>965</ele>
        <time>2019-11-29T11:21:15.000Z</time>
      </trkpt>
      <trkpt lat="43.31072" lon="5.69662">
        <ele>965</ele>
        <time>2019-11-29T11:21:16.000Z</time>
      </trkpt>
      <trkpt lat="43.31072" lon="5.69663">
        <ele>965</ele>
        <time>2019-11-29T11:21:17.000Z</time>
      </trkpt>
      <trkpt lat="43.31072" lon="5.69664">
        <ele>965</ele>
        <time>2019-11-29T11:21:18.000Z</time>
      </trkpt>
      <trkpt lat="43.31073" lon="5.69666">
        <ele>965</ele>
        <time>2019-11-29T11:21:19.000Z</time>
      </trkpt>
      <trkpt lat="43.31073" lon="5.69667">
        <ele>965</ele>
        <time>2019-11-29T11:21:20.000Z</time>
      </trkpt>
      <trkpt lat="43.31073" lon="5.69668">
        <ele>965</ele>
        <time>2019-11-29T11:21:21.000Z</time>
      </trkpt>
      <trkpt lat="43.31074" lon="5.6967">
        <ele>965</ele>
        <time>2019-11-29T11:21:22.000Z</time>
      </trkpt>
      <trkpt lat="43.31074" lon="5.69671">
        <ele>965</ele>
        <time>2019-11-29T11:21:23.000Z</time>
      </trkpt>
      <trkpt lat="43.31074" lon="5.69673">
        <ele>965</ele>
        <time>2019-11-29T11:21:24.000Z</time>
      </trkpt>
      <trkpt lat="43.31074" lon="5.69674">
        <ele>965</ele>
        <time>2019-11-29T11:21:25.000Z</time>
      </trkpt>
      <trkpt lat="43.31074" lon="5.69675">
        <ele>965</ele>
        <time>2019-11-29T11:21:26.000Z</time>
      </trkpt>
      <trkpt lat="43.31075" lon="5.69677">
        <ele>965</ele>
        <time>2019-11-29T11:21:27.000Z</time>
      </trkpt>
      <trkpt lat="43.31075" lon="5.69678">
        <ele>965</ele>
        <time>2019-11-29T11:21:28.000Z</time>
      </trkpt>
      <trkpt lat="43.31075" lon="5.6968">
        <ele>964</ele>
        <time>2019-11-29T11:21:29.000Z</time>
      </trkpt>
      <trkpt lat="43.31075" lon="5.69681">
        <ele>964</ele>
        <time>2019-11-29T11:21:30.000Z</time>
      </trkpt>
      <trkpt lat="43.31076" lon="5.69682">
        <ele>964</ele>
        <time>2019-11-29T11:21:31.000Z</time>
      </trkpt>
      <trkpt lat="43.31076" lon="5.69683">
        <ele>964</ele>
        <time>2019-11-29T11:21:32.000Z</time>
      </trkpt>
      <trkpt lat="43.31076" lon="5.69685">
        <ele>964</ele>
        <time>2019-11-29T11:21:33.000Z</time>
      </trkpt>
      <trkpt lat="43.31076" lon="5.69686">
        <ele>965</ele>
        <time>2019-11-29T11:21:34.000Z</time>
      </trkpt>
      <trkpt lat="43.31077" lon="5.69687">
        <ele>965</ele>
        <time>2019-11-29T11:21:35.000Z</time>
      </trkpt>
      <trkpt lat="43.31077" lon="5.69688">
        <ele>965</ele>
        <time>2019-11-29T11:21:36.000Z</time>
      </trkpt>
      <trkpt lat="43.31077" lon="5.69689">
        <ele>965</ele>
        <time>2019-11-29T11:21:37.000Z</time>
      </trkpt>
      <trkpt lat="43.31078" lon="5.69691">
        <ele>965</ele>
        <time>2019-11-29T11:21:38.000Z</time>
      </trkpt>
      <trkpt lat="43.31078" lon="5.69692">
        <ele>965</ele>
        <time>2019-11-29T11:21:39.000Z</time>
      </trkpt>
      <trkpt lat="43.31078" lon="5.69694">
        <ele>964</ele>
        <time>2019-11-29T11:21:40.000Z</time>
      </trkpt>
      <trkpt lat="43.31078" lon="5.69695">
        <ele>964</ele>
        <time>2019-11-29T11:21:41.000Z</time>
      </trkpt>
      <trkpt lat="43.31078" lon="5.69696">
        <ele>964</ele>
        <time>2019-11-29T11:21:42.000Z</time>
      </trkpt>
      <trkpt lat="43.31078" lon="5.69698">
        <ele>964</ele>
        <time>2019-11-29T11:21:43.000Z</time>
      </trkpt>
      <trkpt lat="43.31078" lon="5.69699">
        <ele>964</ele>
        <time>2019-11-29T11:21:44.000Z</time>
      </trkpt>
      <trkpt lat="43.31078" lon="5.69701">
        <ele>964</ele>
        <time>2019-11-29T11:21:45.000Z</time>
      </trkpt>
      <trkpt lat="43.31078" lon="5.69702">
        <ele>964</ele>
        <time>2019-11-29T11:21:46.000Z</time>
      </trkpt>
      <trkpt lat="43.31079" lon="5.69703">
        <ele>964</ele>
        <time>2019-11-29T11:21:47.000Z</time>
      </trkpt>
      <trkpt lat="43.31079" lon="5.69704">
        <ele>964</ele>
        <time>2019-11-29T11:21:48.000Z</time>
      </trkpt>
      <trkpt lat="43.31079" lon="5.69706">
        <ele>964</ele>
        <time>2019-11-29T11:21:49.000Z</time>
      </trkpt>
      <trkpt lat="43.31079" lon="5.69707">
        <ele>964</ele>
        <time>2019-11-29T11:21:50.000Z</time>
      </trkpt>
      <trkpt lat="43.31079" lon="5.69708">
        <ele>963</ele>
        <time>2019-11-29T11:21:51.000Z</time>
      </trkpt>
      <trkpt lat="43.31079" lon="5.69709">
        <ele>963</ele>
        <time>2019-11-29T11:21:52.000Z</time>
      </trkpt>
      <trkpt lat="43.31078" lon="5.6971">
        <ele>963</ele>
        <time>2019-11-29T11:21:53.000Z</time>
      </trkpt>
      <trkpt lat="43.31078" lon="5.69712">
        <ele>963</ele>
        <time>2019-11-29T11:21:54.000Z</time>
      </trkpt>
      <trkpt lat="43.31078" lon="5.69713">
        <ele>963</ele>
        <time>2019-11-29T11:21:55.000Z</time>
      </trkpt>
      <trkpt lat="43.31078" lon="5.69714">
        <ele>963</ele>
        <time>2019-11-29T11:21:56.000Z</time>
      </trkpt>
      <trkpt lat="43.31079" lon="5.69715">
        <ele>963</ele>
        <time>2019-11-29T11:21:57.000Z</time>
      </trkpt>
      <trkpt lat="43.31079" lon="5.69716">
        <ele>963</ele>
        <time>2019-11-29T11:21:58.000Z</time>
      </trkpt>
      <trkpt lat="43.31079" lon="5.69718">
        <ele>963</ele>
        <time>2019-11-29T11:21:59.000Z</time>
      </trkpt>
      <trkpt lat="43.31079" lon="5.69719">
        <ele>962</ele>
        <time>2019-11-29T11:22:00.000Z</time>
      </trkpt>
      <trkpt lat="43.31079" lon="5.6972">
        <ele>962</ele>
        <time>2019-11-29T11:22:01.000Z</time>
      </trkpt>
      <trkpt lat="43.31079" lon="5.69721">
        <ele>962</ele>
        <time>2019-11-29T11:22:02.000Z</time>
      </trkpt>
      <trkpt lat="43.3108" lon="5.69722">
        <ele>962</ele>
        <time>2019-11-29T11:22:03.000Z</time>
      </trkpt>
      <trkpt lat="43.3108" lon="5.69724">
        <ele>962</ele>
        <time>2019-11-29T11:22:04.000Z</time>
      </trkpt>
      <trkpt lat="43.3108" lon="5.69725">
        <ele>962</ele>
        <time>2019-11-29T11:22:05.000Z</time>
      </trkpt>
      <trkpt lat="43.3108" lon="5.69725">
        <ele>962</ele>
        <time>2019-11-29T11:22:06.000Z</time>
      </trkpt>
      <trkpt lat="43.3108" lon="5.69725">
        <ele>962</ele>
        <time>2019-11-29T11:22:07.000Z</time>
      </trkpt>
      <trkpt lat="43.3108" lon="5.69725">
        <ele>962</ele>
        <time>2019-11-29T11:22:08.000Z</time>
      </trkpt>
      <trkpt lat="43.3108" lon="5.69725">
        <ele>962</ele>
        <time>2019-11-29T11:22:09.000Z</time>
      </trkpt>
      <trkpt lat="43.3108" lon="5.69725">
        <ele>962</ele>
        <time>2019-11-29T11:22:10.000Z</time>
      </trkpt>
      <trkpt lat="43.3108" lon="5.69725">
        <ele>962</ele>
        <time>2019-11-29T11:22:11.000Z</time>
      </trkpt>
      <trkpt lat="43.3108" lon="5.69725">
        <ele>962</ele>
        <time>2019-11-29T11:22:12.000Z</time>
      </trkpt>
      <trkpt lat="43.3108" lon="5.69725">
        <ele>962</ele>
        <time>2019-11-29T11:22:13.000Z</time>
      </trkpt>
      <trkpt lat="43.3108" lon="5.69726">
        <ele>961</ele>
        <time>2019-11-29T11:22:14.000Z</time>
      </trkpt>
      <trkpt lat="43.31081" lon="5.69728">
        <ele>961</ele>
        <time>2019-11-29T11:22:15.000Z</time>
      </trkpt>
      <trkpt lat="43.31081" lon="5.69729">
        <ele>961</ele>
        <time>2019-11-29T11:22:16.000Z</time>
      </trkpt>
      <trkpt lat="43.31081" lon="5.6973">
        <ele>961</ele>
        <time>2019-11-29T11:22:17.000Z</time>
      </trkpt>
      <trkpt lat="43.31081" lon="5.69732">
        <ele>961</ele>
        <time>2019-11-29T11:22:18.000Z</time>
      </trkpt>
      <trkpt lat="43.31081" lon="5.69733">
        <ele>961</ele>
        <time>2019-11-29T11:22:19.000Z</time>
      </trkpt>
      <trkpt lat="43.31081" lon="5.69734">
        <ele>961</ele>
        <time>2019-11-29T11:22:20.000Z</time>
      </trkpt>
      <trkpt lat="43.31082" lon="5.69735">
        <ele>961</ele>
        <time>2019-11-29T11:22:21.000Z</time>
      </trkpt>
      <trkpt lat="43.31082" lon="5.69736">
        <ele>961</ele>
        <time>2019-11-29T11:22:22.000Z</time>
      </trkpt>
      <trkpt lat="43.31082" lon="5.69738">
        <ele>961</ele>
        <time>2019-11-29T11:22:23.000Z</time>
      </trkpt>
      <trkpt lat="43.31083" lon="5.69739">
        <ele>961</ele>
        <time>2019-11-29T11:22:24.000Z</time>
      </trkpt>
      <trkpt lat="43.31083" lon="5.6974">
        <ele>961</ele>
        <time>2019-11-29T11:22:25.000Z</time>
      </trkpt>
      <trkpt lat="43.31083" lon="5.69741">
        <ele>961</ele>
        <time>2019-11-29T11:22:26.000Z</time>
      </trkpt>
      <trkpt lat="43.31083" lon="5.69742">
        <ele>960</ele>
        <time>2019-11-29T11:22:27.000Z</time>
      </trkpt>
      <trkpt lat="43.31083" lon="5.69744">
        <ele>960</ele>
        <time>2019-11-29T11:22:28.000Z</time>
      </trkpt>
      <trkpt lat="43.31084" lon="5.69745">
        <ele>960</ele>
        <time>2019-11-29T11:22:29.000Z</time>
      </trkpt>
      <trkpt lat="43.31084" lon="5.69747">
        <ele>960</ele>
        <time>2019-11-29T11:22:30.000Z</time>
      </trkpt>
      <trkpt lat="43.31084" lon="5.69748">
        <ele>960</ele>
        <time>2019-11-29T11:22:31.000Z</time>
      </trkpt>
      <trkpt lat="43.31084" lon="5.69749">
        <ele>960</ele>
        <time>2019-11-29T11:22:32.000Z</time>
      </trkpt>
      <trkpt lat="43.31085" lon="5.69751">
        <ele>960</ele>
        <time>2019-11-29T11:22:33.000Z</time>
      </trkpt>
      <trkpt lat="43.31085" lon="5.69752">
        <ele>960</ele>
        <time>2019-11-29T11:22:34.000Z</time>
      </trkpt>
      <trkpt lat="43.31085" lon="5.69753">
        <ele>959</ele>
        <time>2019-11-29T11:22:35.000Z</time>
      </trkpt>
      <trkpt lat="43.31085" lon="5.69755">
        <ele>959</ele>
        <time>2019-11-29T11:22:36.000Z</time>
      </trkpt>
      <trkpt lat="43.31086" lon="5.69756">
        <ele>959</ele>
        <time>2019-11-29T11:22:37.000Z</time>
      </trkpt>
      <trkpt lat="43.31086" lon="5.69757">
        <ele>959</ele>
        <time>2019-11-29T11:22:38.000Z</time>
      </trkpt>
      <trkpt lat="43.31086" lon="5.69759">
        <ele>959</ele>
        <time>2019-11-29T11:22:39.000Z</time>
      </trkpt>
      <trkpt lat="43.31087" lon="5.6976">
        <ele>959</ele>
        <time>2019-11-29T11:22:40.000Z</time>
      </trkpt>
      <trkpt lat="43.31087" lon="5.69762">
        <ele>959</ele>
        <time>2019-11-29T11:22:41.000Z</time>
      </trkpt>
      <trkpt lat="43.31087" lon="5.69763">
        <ele>959</ele>
        <time>2019-11-29T11:22:42.000Z</time>
      </trkpt>
      <trkpt lat="43.31088" lon="5.69764">
        <ele>959</ele>
        <time>2019-11-29T11:22:43.000Z</time>
      </trkpt>
      <trkpt lat="43.31088" lon="5.69765">
        <ele>958</ele>
        <time>2019-11-29T11:22:44.000Z</time>
      </trkpt>
      <trkpt lat="43.31088" lon="5.69766">
        <ele>958</ele>
        <time>2019-11-29T11:22:45.000Z</time>
      </trkpt>
      <trkpt lat="43.31088" lon="5.69767">
        <ele>958</ele>
        <time>2019-11-29T11:22:46.000Z</time>
      </trkpt>
      <trkpt lat="43.31089" lon="5.69768">
        <ele>958</ele>
        <time>2019-11-29T11:22:47.000Z</time>
      </trkpt>
      <trkpt lat="43.31089" lon="5.69769">
        <ele>958</ele>
        <time>2019-11-29T11:22:48.000Z</time>
      </trkpt>
      <trkpt lat="43.31089" lon="5.69771">
        <ele>958</ele>
        <time>2019-11-29T11:22:49.000Z</time>
      </trkpt>
      <trkpt lat="43.31089" lon="5.69772">
        <ele>958</ele>
        <time>2019-11-29T11:22:50.000Z</time>
      </trkpt>
      <trkpt lat="43.3109" lon="5.69773">
        <ele>958</ele>
        <time>2019-11-29T11:22:51.000Z</time>
      </trkpt>
      <trkpt lat="43.3109" lon="5.69774">
        <ele>958</ele>
        <time>2019-11-29T11:22:52.000Z</time>
      </trkpt>
      <trkpt lat="43.3109" lon="5.69775">
        <ele>958</ele>
        <time>2019-11-29T11:22:53.000Z</time>
      </trkpt>
      <trkpt lat="43.3109" lon="5.69777">
        <ele>957</ele>
        <time>2019-11-29T11:22:54.000Z</time>
      </trkpt>
      <trkpt lat="43.31091" lon="5.69778">
        <ele>957</ele>
        <time>2019-11-29T11:22:55.000Z</time>
      </trkpt>
      <trkpt lat="43.31091" lon="5.6978">
        <ele>957</ele>
        <time>2019-11-29T11:22:56.000Z</time>
      </trkpt>
      <trkpt lat="43.31091" lon="5.69781">
        <ele>957</ele>
        <time>2019-11-29T11:22:57.000Z</time>
      </trkpt>
      <trkpt lat="43.31092" lon="5.69782">
        <ele>957</ele>
        <time>2019-11-29T11:22:58.000Z</time>
      </trkpt>
      <trkpt lat="43.31092" lon="5.69784">
        <ele>957</ele>
        <time>2019-11-29T11:22:59.000Z</time>
      </trkpt>
      <trkpt lat="43.31092" lon="5.69785">
        <ele>957</ele>
        <time>2019-11-29T11:23:00.000Z</time>
      </trkpt>
      <trkpt lat="43.31092" lon="5.69787">
        <ele>957</ele>
        <time>2019-11-29T11:23:01.000Z</time>
      </trkpt>
      <trkpt lat="43.31092" lon="5.69788">
        <ele>957</ele>
        <time>2019-11-29T11:23:02.000Z</time>
      </trkpt>
      <trkpt lat="43.31093" lon="5.6979">
        <ele>957</ele>
        <time>2019-11-29T11:23:03.000Z</time>
      </trkpt>
      <trkpt lat="43.31093" lon="5.69791">
        <ele>957</ele>
        <time>2019-11-29T11:23:04.000Z</time>
      </trkpt>
      <trkpt lat="43.31094" lon="5.69792">
        <ele>957</ele>
        <time>2019-11-29T11:23:05.000Z</time>
      </trkpt>
      <trkpt lat="43.31094" lon="5.69793">
        <ele>957</ele>
        <time>2019-11-29T11:23:06.000Z</time>
      </trkpt>
      <trkpt lat="43.31095" lon="5.69794">
        <ele>957</ele>
        <time>2019-11-29T11:23:07.000Z</time>
      </trkpt>
      <trkpt lat="43.31096" lon="5.69795">
        <ele>957</ele>
        <time>2019-11-29T11:23:08.000Z</time>
      </trkpt>
      <trkpt lat="43.31097" lon="5.69795">
        <ele>957</ele>
        <time>2019-11-29T11:23:09.000Z</time>
      </trkpt>
      <trkpt lat="43.31098" lon="5.69796">
        <ele>957</ele>
        <time>2019-11-29T11:23:10.000Z</time>
      </trkpt>
      <trkpt lat="43.31099" lon="5.69796">
        <ele>957</ele>
        <time>2019-11-29T11:23:11.000Z</time>
      </trkpt>
      <trkpt lat="43.311" lon="5.69796">
        <ele>957</ele>
        <time>2019-11-29T11:23:12.000Z</time>
      </trkpt>
      <trkpt lat="43.31101" lon="5.69796">
        <ele>957</ele>
        <time>2019-11-29T11:23:13.000Z</time>
      </trkpt>
      <trkpt lat="43.31102" lon="5.69796">
        <ele>957</ele>
        <time>2019-11-29T11:23:14.000Z</time>
      </trkpt>
      <trkpt lat="43.31103" lon="5.69796">
        <ele>957</ele>
        <time>2019-11-29T11:23:15.000Z</time>
      </trkpt>
      <trkpt lat="43.31103" lon="5.69795">
        <ele>957</ele>
        <time>2019-11-29T11:23:16.000Z</time>
      </trkpt>
      <trkpt lat="43.31104" lon="5.69794">
        <ele>957</ele>
        <time>2019-11-29T11:23:17.000Z</time>
      </trkpt>
      <trkpt lat="43.31104" lon="5.69794">
        <ele>957</ele>
        <time>2019-11-29T11:23:18.000Z</time>
      </trkpt>
      <trkpt lat="43.31105" lon="5.69792">
        <ele>957</ele>
        <time>2019-11-29T11:23:19.000Z</time>
      </trkpt>
      <trkpt lat="43.31105" lon="5.69791">
        <ele>957</ele>
        <time>2019-11-29T11:23:20.000Z</time>
      </trkpt>
      <trkpt lat="43.31106" lon="5.69789">
        <ele>957</ele>
        <time>2019-11-29T11:23:21.000Z</time>
      </trkpt>
      <trkpt lat="43.31106" lon="5.69788">
        <ele>957</ele>
        <time>2019-11-29T11:23:22.000Z</time>
      </trkpt>
      <trkpt lat="43.31107" lon="5.69787">
        <ele>957</ele>
        <time>2019-11-29T11:23:23.000Z</time>
      </trkpt>
      <trkpt lat="43.31108" lon="5.69786">
        <ele>957</ele>
        <time>2019-11-29T11:23:24.000Z</time>
      </trkpt>
      <trkpt lat="43.31108" lon="5.69784">
        <ele>957</ele>
        <time>2019-11-29T11:23:25.000Z</time>
      </trkpt>
      <trkpt lat="43.31109" lon="5.69783">
        <ele>957</ele>
        <time>2019-11-29T11:23:26.000Z</time>
      </trkpt>
      <trkpt lat="43.31109" lon="5.69782">
        <ele>957</ele>
        <time>2019-11-29T11:23:27.000Z</time>
      </trkpt>
      <trkpt lat="43.3111" lon="5.6978">
        <ele>957</ele>
        <time>2019-11-29T11:23:28.000Z</time>
      </trkpt>
      <trkpt lat="43.3111" lon="5.69778">
        <ele>957</ele>
        <time>2019-11-29T11:23:29.000Z</time>
      </trkpt>
      <trkpt lat="43.31111" lon="5.69777">
        <ele>957</ele>
        <time>2019-11-29T11:23:30.000Z</time>
      </trkpt>
      <trkpt lat="43.31111" lon="5.69776">
        <ele>957</ele>
        <time>2019-11-29T11:23:31.000Z</time>
      </trkpt>
      <trkpt lat="43.31111" lon="5.69774">
        <ele>957</ele>
        <time>2019-11-29T11:23:32.000Z</time>
      </trkpt>
      <trkpt lat="43.31111" lon="5.69773">
        <ele>957</ele>
        <time>2019-11-29T11:23:33.000Z</time>
      </trkpt>
      <trkpt lat="43.31111" lon="5.69771">
        <ele>957</ele>
        <time>2019-11-29T11:23:34.000Z</time>
      </trkpt>
      <trkpt lat="43.31111" lon="5.6977">
        <ele>957</ele>
        <time>2019-11-29T11:23:35.000Z</time>
      </trkpt>
      <trkpt lat="43.31112" lon="5.69768">
        <ele>957</ele>
        <time>2019-11-29T11:23:36.000Z</time>
      </trkpt>
      <trkpt lat="43.31112" lon="5.69766">
        <ele>957</ele>
        <time>2019-11-29T11:23:37.000Z</time>
      </trkpt>
      <trkpt lat="43.31112" lon="5.69765">
        <ele>957</ele>
        <time>2019-11-29T11:23:38.000Z</time>
      </trkpt>
      <trkpt lat="43.31112" lon="5.69763">
        <ele>957</ele>
        <time>2019-11-29T11:23:39.000Z</time>
      </trkpt>
      <trkpt lat="43.31113" lon="5.69762">
        <ele>957</ele>
        <time>2019-11-29T11:23:40.000Z</time>
      </trkpt>
      <trkpt lat="43.31113" lon="5.6976">
        <ele>957</ele>
        <time>2019-11-29T11:23:41.000Z</time>
      </trkpt>
      <trkpt lat="43.31113" lon="5.69758">
        <ele>957</ele>
        <time>2019-11-29T11:23:42.000Z</time>
      </trkpt>
      <trkpt lat="43.31114" lon="5.69757">
        <ele>956</ele>
        <time>2019-11-29T11:23:43.000Z</time>
      </trkpt>
      <trkpt lat="43.31114" lon="5.69756">
        <ele>956</ele>
        <time>2019-11-29T11:23:44.000Z</time>
      </trkpt>
      <trkpt lat="43.31114" lon="5.69754">
        <ele>956</ele>
        <time>2019-11-29T11:23:45.000Z</time>
      </trkpt>
      <trkpt lat="43.31114" lon="5.69753">
        <ele>956</ele>
        <time>2019-11-29T11:23:46.000Z</time>
      </trkpt>
      <trkpt lat="43.31115" lon="5.69751">
        <ele>956</ele>
        <time>2019-11-29T11:23:47.000Z</time>
      </trkpt>
      <trkpt lat="43.31115" lon="5.6975">
        <ele>956</ele>
        <time>2019-11-29T11:23:48.000Z</time>
      </trkpt>
      <trkpt lat="43.31116" lon="5.69749">
        <ele>957</ele>
        <time>2019-11-29T11:23:49.000Z</time>
      </trkpt>
      <trkpt lat="43.31116" lon="5.69748">
        <ele>957</ele>
        <time>2019-11-29T11:23:50.000Z</time>
      </trkpt>
      <trkpt lat="43.31117" lon="5.69747">
        <ele>957</ele>
        <time>2019-11-29T11:23:51.000Z</time>
      </trkpt>
      <trkpt lat="43.31117" lon="5.69745">
        <ele>956</ele>
        <time>2019-11-29T11:23:52.000Z</time>
      </trkpt>
      <trkpt lat="43.31117" lon="5.69744">
        <ele>956</ele>
        <time>2019-11-29T11:23:53.000Z</time>
      </trkpt>
      <trkpt lat="43.31117" lon="5.69742">
        <ele>956</ele>
        <time>2019-11-29T11:23:54.000Z</time>
      </trkpt>
      <trkpt lat="43.31117" lon="5.69741">
        <ele>956</ele>
        <time>2019-11-29T11:23:55.000Z</time>
      </trkpt>
      <trkpt lat="43.31117" lon="5.69739">
        <ele>956</ele>
        <time>2019-11-29T11:23:56.000Z</time>
      </trkpt>
      <trkpt lat="43.31118" lon="5.69738">
        <ele>956</ele>
        <time>2019-11-29T11:23:57.000Z</time>
      </trkpt>
      <trkpt lat="43.31118" lon="5.69737">
        <ele>956</ele>
        <time>2019-11-29T11:23:58.000Z</time>
      </trkpt>
      <trkpt lat="43.31118" lon="5.69735">
        <ele>956</ele>
        <time>2019-11-29T11:23:59.000Z</time>
      </trkpt>
      <trkpt lat="43.31118" lon="5.69734">
        <ele>956</ele>
        <time>2019-11-29T11:24:00.000Z</time>
      </trkpt>
      <trkpt lat="43.31119" lon="5.69733">
        <ele>956</ele>
        <time>2019-11-29T11:24:01.000Z</time>
      </trkpt>
      <trkpt lat="43.31119" lon="5.69732">
        <ele>956</ele>
        <time>2019-11-29T11:24:02.000Z</time>
      </trkpt>
      <trkpt lat="43.3112" lon="5.69731">
        <ele>956</ele>
        <time>2019-11-29T11:24:03.000Z</time>
      </trkpt>
      <trkpt lat="43.3112" lon="5.69729">
        <ele>956</ele>
        <time>2019-11-29T11:24:04.000Z</time>
      </trkpt>
      <trkpt lat="43.3112" lon="5.69728">
        <ele>957</ele>
        <time>2019-11-29T11:24:05.000Z</time>
      </trkpt>
      <trkpt lat="43.31121" lon="5.69727">
        <ele>957</ele>
        <time>2019-11-29T11:24:06.000Z</time>
      </trkpt>
      <trkpt lat="43.31121" lon="5.69725">
        <ele>957</ele>
        <time>2019-11-29T11:24:07.000Z</time>
      </trkpt>
      <trkpt lat="43.31122" lon="5.69724">
        <ele>957</ele>
        <time>2019-11-29T11:24:08.000Z</time>
      </trkpt>
      <trkpt lat="43.31123" lon="5.69723">
        <ele>957</ele>
        <time>2019-11-29T11:24:09.000Z</time>
      </trkpt>
      <trkpt lat="43.31123" lon="5.69722">
        <ele>957</ele>
        <time>2019-11-29T11:24:10.000Z</time>
      </trkpt>
      <trkpt lat="43.31124" lon="5.69721">
        <ele>957</ele>
        <time>2019-11-29T11:24:11.000Z</time>
      </trkpt>
      <trkpt lat="43.31124" lon="5.6972">
        <ele>957</ele>
        <time>2019-11-29T11:24:12.000Z</time>
      </trkpt>
      <trkpt lat="43.31124" lon="5.69718">
        <ele>957</ele>
        <time>2019-11-29T11:24:13.000Z</time>
      </trkpt>
      <trkpt lat="43.31124" lon="5.69717">
        <ele>957</ele>
        <time>2019-11-29T11:24:14.000Z</time>
      </trkpt>
      <trkpt lat="43.31125" lon="5.69716">
        <ele>957</ele>
        <time>2019-11-29T11:24:15.000Z</time>
      </trkpt>
      <trkpt lat="43.31125" lon="5.69715">
        <ele>957</ele>
        <time>2019-11-29T11:24:16.000Z</time>
      </trkpt>
      <trkpt lat="43.31125" lon="5.69713">
        <ele>958</ele>
        <time>2019-11-29T11:24:17.000Z</time>
      </trkpt>
      <trkpt lat="43.31126" lon="5.69712">
        <ele>958</ele>
        <time>2019-11-29T11:24:18.000Z</time>
      </trkpt>
      <trkpt lat="43.31127" lon="5.69711">
        <ele>958</ele>
        <time>2019-11-29T11:24:19.000Z</time>
      </trkpt>
      <trkpt lat="43.31127" lon="5.6971">
        <ele>958</ele>
        <time>2019-11-29T11:24:20.000Z</time>
      </trkpt>
      <trkpt lat="43.31128" lon="5.69709">
        <ele>958</ele>
        <time>2019-11-29T11:24:21.000Z</time>
      </trkpt>
      <trkpt lat="43.31128" lon="5.69708">
        <ele>958</ele>
        <time>2019-11-29T11:24:22.000Z</time>
      </trkpt>
      <trkpt lat="43.31129" lon="5.69707">
        <ele>958</ele>
        <time>2019-11-29T11:24:23.000Z</time>
      </trkpt>
      <trkpt lat="43.3113" lon="5.69706">
        <ele>958</ele>
        <time>2019-11-29T11:24:24.000Z</time>
      </trkpt>
      <trkpt lat="43.3113" lon="5.69705">
        <ele>958</ele>
        <time>2019-11-29T11:24:25.000Z</time>
      </trkpt>
      <trkpt lat="43.31131" lon="5.69704">
        <ele>959</ele>
        <time>2019-11-29T11:24:26.000Z</time>
      </trkpt>
      <trkpt lat="43.31131" lon="5.69703">
        <ele>959</ele>
        <time>2019-11-29T11:24:27.000Z</time>
      </trkpt>
      <trkpt lat="43.31132" lon="5.69703">
        <ele>959</ele>
        <time>2019-11-29T11:24:28.000Z</time>
      </trkpt>
      <trkpt lat="43.31132" lon="5.69702">
        <ele>959</ele>
        <time>2019-11-29T11:24:29.000Z</time>
      </trkpt>
      <trkpt lat="43.31132" lon="5.69701">
        <ele>959</ele>
        <time>2019-11-29T11:24:30.000Z</time>
      </trkpt>
      <trkpt lat="43.31133" lon="5.697">
        <ele>959</ele>
        <time>2019-11-29T11:24:31.000Z</time>
      </trkpt>
      <trkpt lat="43.31133" lon="5.69699">
        <ele>959</ele>
        <time>2019-11-29T11:24:32.000Z</time>
      </trkpt>
      <trkpt lat="43.31134" lon="5.69698">
        <ele>959</ele>
        <time>2019-11-29T11:24:33.000Z</time>
      </trkpt>
      <trkpt lat="43.31134" lon="5.69697">
        <ele>959</ele>
        <time>2019-11-29T11:24:34.000Z</time>
      </trkpt>
      <trkpt lat="43.31135" lon="5.69697">
        <ele>959</ele>
        <time>2019-11-29T11:24:35.000Z</time>
      </trkpt>
      <trkpt lat="43.31136" lon="5.69697">
        <ele>960</ele>
        <time>2019-11-29T11:24:36.000Z</time>
      </trkpt>
      <trkpt lat="43.31136" lon="5.69696">
        <ele>960</ele>
        <time>2019-11-29T11:24:37.000Z</time>
      </trkpt>
      <trkpt lat="43.31137" lon="5.69696">
        <ele>960</ele>
        <time>2019-11-29T11:24:38.000Z</time>
      </trkpt>
      <trkpt lat="43.31138" lon="5.69695">
        <ele>960</ele>
        <time>2019-11-29T11:24:39.000Z</time>
      </trkpt>
      <trkpt lat="43.31138" lon="5.69695">
        <ele>960</ele>
        <time>2019-11-29T11:24:40.000Z</time>
      </trkpt>
      <trkpt lat="43.31139" lon="5.69694">
        <ele>960</ele>
        <time>2019-11-29T11:24:41.000Z</time>
      </trkpt>
      <trkpt lat="43.3114" lon="5.69694">
        <ele>961</ele>
        <time>2019-11-29T11:24:42.000Z</time>
      </trkpt>
      <trkpt lat="43.3114" lon="5.69693">
        <ele>961</ele>
        <time>2019-11-29T11:24:43.000Z</time>
      </trkpt>
      <trkpt lat="43.31141" lon="5.69692">
        <ele>961</ele>
        <time>2019-11-29T11:24:44.000Z</time>
      </trkpt>
      <trkpt lat="43.31142" lon="5.69691">
        <ele>961</ele>
        <time>2019-11-29T11:24:45.000Z</time>
      </trkpt>
      <trkpt lat="43.31142" lon="5.69691">
        <ele>962</ele>
        <time>2019-11-29T11:24:46.000Z</time>
      </trkpt>
      <trkpt lat="43.31143" lon="5.6969">
        <ele>962</ele>
        <time>2019-11-29T11:24:47.000Z</time>
      </trkpt>
      <trkpt lat="43.31144" lon="5.6969">
        <ele>962</ele>
        <time>2019-11-29T11:24:48.000Z</time>
      </trkpt>
      <trkpt lat="43.31144" lon="5.6969">
        <ele>962</ele>
        <time>2019-11-29T11:24:49.000Z</time>
      </trkpt>
      <trkpt lat="43.31145" lon="5.69689">
        <ele>962</ele>
        <time>2019-11-29T11:24:50.000Z</time>
      </trkpt>
      <trkpt lat="43.31146" lon="5.69689">
        <ele>963</ele>
        <time>2019-11-29T11:24:51.000Z</time>
      </trkpt>
      <trkpt lat="43.31146" lon="5.69689">
        <ele>963</ele>
        <time>2019-11-29T11:24:52.000Z</time>
      </trkpt>
      <trkpt lat="43.31146" lon="5.69689">
        <ele>963</ele>
        <time>2019-11-29T11:24:53.000Z</time>
      </trkpt>
      <trkpt lat="43.31147" lon="5.69689">
        <ele>963</ele>
        <time>2019-11-29T11:24:54.000Z</time>
      </trkpt>
      <trkpt lat="43.31147" lon="5.69689">
        <ele>963</ele>
        <time>2019-11-29T11:24:55.000Z</time>
      </trkpt>
      <trkpt lat="43.31146" lon="5.69688">
        <ele>963</ele>
        <time>2019-11-29T11:24:56.000Z</time>
      </trkpt>
      <trkpt lat="43.31146" lon="5.69688">
        <ele>963</ele>
        <time>2019-11-29T11:24:57.000Z</time>
      </trkpt>
      <trkpt lat="43.31147" lon="5.69689">
        <ele>963</ele>
        <time>2019-11-29T11:24:58.000Z</time>
      </trkpt>
      <trkpt lat="43.31147" lon="5.69688">
        <ele>963</ele>
        <time>2019-11-29T11:24:59.000Z</time>
      </trkpt>
      <trkpt lat="43.31147" lon="5.69689">
        <ele>963</ele>
        <time>2019-11-29T11:25:00.000Z</time>
      </trkpt>
      <trkpt lat="43.31147" lon="5.69689">
        <ele>963</ele>
        <time>2019-11-29T11:25:01.000Z</time>
      </trkpt>
      <trkpt lat="43.31147" lon="5.69689">
        <ele>963</ele>
        <time>2019-11-29T11:25:02.000Z</time>
      </trkpt>
      <trkpt lat="43.31147" lon="5.69689">
        <ele>963</ele>
        <time>2019-11-29T11:25:03.000Z</time>
      </trkpt>
      <trkpt lat="43.31147" lon="5.69689">
        <ele>964</ele>
        <time>2019-11-29T11:25:04.000Z</time>
      </trkpt>
      <trkpt lat="43.31147" lon="5.69689">
        <ele>964</ele>
        <time>2019-11-29T11:25:05.000Z</time>
      </trkpt>
      <trkpt lat="43.31147" lon="5.69689">
        <ele>964</ele>
        <time>2019-11-29T11:25:06.000Z</time>
      </trkpt>
      <trkpt lat="43.31147" lon="5.69689">
        <ele>964</ele>
        <time>2019-11-29T11:25:07.000Z</time>
      </trkpt>
      <trkpt lat="43.31147" lon="5.69689">
        <ele>964</ele>
        <time>2019-11-29T11:25:08.000Z</time>
      </trkpt>
      <trkpt lat="43.31147" lon="5.69689">
        <ele>964</ele>
        <time>2019-11-29T11:25:09.000Z</time>
      </trkpt>
      <trkpt lat="43.31147" lon="5.69689">
        <ele>964</ele>
        <time>2019-11-29T11:25:10.000Z</time>
      </trkpt>
      <trkpt lat="43.31147" lon="5.69689">
        <ele>964</ele>
        <time>2019-11-29T11:25:11.000Z</time>
      </trkpt>
      <trkpt lat="43.31147" lon="5.69689">
        <ele>964</ele>
        <time>2019-11-29T11:25:12.000Z</time>
      </trkpt>
      <trkpt lat="43.31147" lon="5.69689">
        <ele>964</ele>
        <time>2019-11-29T11:25:13.000Z</time>
      </trkpt>
      <trkpt lat="43.31147" lon="5.69689">
        <ele>964</ele>
        <time>2019-11-29T11:25:14.000Z</time>
      </trkpt>
      <trkpt lat="43.31147" lon="5.69689">
        <ele>964</ele>
        <time>2019-11-29T11:25:15.000Z</time>
      </trkpt>
      <trkpt lat="43.31147" lon="5.69689">
        <ele>964</ele>
        <time>2019-11-29T11:25:16.000Z</time>
      </trkpt>
      <trkpt lat="43.31147" lon="5.69689">
        <ele>964</ele>
        <time>2019-11-29T11:25:17.000Z</time>
      </trkpt>
      <trkpt lat="43.31147" lon="5.69689">
        <ele>964</ele>
        <time>2019-11-29T11:25:18.000Z</time>
      </trkpt>
      <trkpt lat="43.31147" lon="5.69689">
        <ele>964</ele>
        <time>2019-11-29T11:25:19.000Z</time>
      </trkpt>
      <trkpt lat="43.31147" lon="5.69689">
        <ele>964</ele>
        <time>2019-11-29T11:25:20.000Z</time>
      </trkpt>
      <trkpt lat="43.31147" lon="5.69689">
        <ele>964</ele>
        <time>2019-11-29T11:25:21.000Z</time>
      </trkpt>
      <trkpt lat="43.31147" lon="5.69689">
        <ele>964</ele>
        <time>2019-11-29T11:25:22.000Z</time>
      </trkpt>
      <trkpt lat="43.31147" lon="5.69689">
        <ele>964</ele>
        <time>2019-11-29T11:25:23.000Z</time>
      </trkpt>
      <trkpt lat="43.31147" lon="5.69689">
        <ele>964</ele>
        <time>2019-11-29T11:25:24.000Z</time>
      </trkpt>
      <trkpt lat="43.31148" lon="5.69689">
        <ele>964</ele>
        <time>2019-11-29T11:25:25.000Z</time>
      </trkpt>
      <trkpt lat="43.31148" lon="5.69689">
        <ele>965</ele>
        <time>2019-11-29T11:25:26.000Z</time>
      </trkpt>
      <trkpt lat="43.31149" lon="5.69689">
        <ele>965</ele>
        <time>2019-11-29T11:25:27.000Z</time>
      </trkpt>
      <trkpt lat="43.3115" lon="5.69688">
        <ele>965</ele>
        <time>2019-11-29T11:25:28.000Z</time>
      </trkpt>
      <trkpt lat="43.31151" lon="5.69688">
        <ele>965</ele>
        <time>2019-11-29T11:25:29.000Z</time>
      </trkpt>
      <trkpt lat="43.31151" lon="5.69687">
        <ele>965</ele>
        <time>2019-11-29T11:25:30.000Z</time>
      </trkpt>
      <trkpt lat="43.31152" lon="5.69686">
        <ele>965</ele>
        <time>2019-11-29T11:25:31.000Z</time>
      </trkpt>
      <trkpt lat="43.31153" lon="5.69686">
        <ele>966</ele>
        <time>2019-11-29T11:25:32.000Z</time>
      </trkpt>
      <trkpt lat="43.31154" lon="5.69686">
        <ele>966</ele>
        <time>2019-11-29T11:25:33.000Z</time>
      </trkpt>
      <trkpt lat="43.31154" lon="5.69685">
        <ele>966</ele>
        <time>2019-11-29T11:25:34.000Z</time>
      </trkpt>
      <trkpt lat="43.31155" lon="5.69684">
        <ele>966</ele>
        <time>2019-11-29T11:25:35.000Z</time>
      </trkpt>
      <trkpt lat="43.31156" lon="5.69684">
        <ele>966</ele>
        <time>2019-11-29T11:25:36.000Z</time>
      </trkpt>
      <trkpt lat="43.31157" lon="5.69683">
        <ele>967</ele>
        <time>2019-11-29T11:25:37.000Z</time>
      </trkpt>
      <trkpt lat="43.31158" lon="5.69683">
        <ele>967</ele>
        <time>2019-11-29T11:25:38.000Z</time>
      </trkpt>
      <trkpt lat="43.31158" lon="5.69683">
        <ele>967</ele>
        <time>2019-11-29T11:25:39.000Z</time>
      </trkpt>
      <trkpt lat="43.31159" lon="5.69682">
        <ele>967</ele>
        <time>2019-11-29T11:25:40.000Z</time>
      </trkpt>
      <trkpt lat="43.31159" lon="5.69682">
        <ele>967</ele>
        <time>2019-11-29T11:25:41.000Z</time>
      </trkpt>
      <trkpt lat="43.31159" lon="5.69682">
        <ele>967</ele>
        <time>2019-11-29T11:25:42.000Z</time>
      </trkpt>
      <trkpt lat="43.31159" lon="5.69682">
        <ele>967</ele>
        <time>2019-11-29T11:25:43.000Z</time>
      </trkpt>
      <trkpt lat="43.31159" lon="5.69682">
        <ele>967</ele>
        <time>2019-11-29T11:25:44.000Z</time>
      </trkpt>
      <trkpt lat="43.3116" lon="5.69682">
        <ele>968</ele>
        <time>2019-11-29T11:25:45.000Z</time>
      </trkpt>
      <trkpt lat="43.3116" lon="5.69681">
        <ele>968</ele>
        <time>2019-11-29T11:25:46.000Z</time>
      </trkpt>
      <trkpt lat="43.31161" lon="5.69681">
        <ele>968</ele>
        <time>2019-11-29T11:25:47.000Z</time>
      </trkpt>
      <trkpt lat="43.31162" lon="5.6968">
        <ele>968</ele>
        <time>2019-11-29T11:25:48.000Z</time>
      </trkpt>
      <trkpt lat="43.31162" lon="5.6968">
        <ele>968</ele>
        <time>2019-11-29T11:25:49.000Z</time>
      </trkpt>
      <trkpt lat="43.31163" lon="5.6968">
        <ele>968</ele>
        <time>2019-11-29T11:25:50.000Z</time>
      </trkpt>
      <trkpt lat="43.31163" lon="5.69679">
        <ele>968</ele>
        <time>2019-11-29T11:25:51.000Z</time>
      </trkpt>
      <trkpt lat="43.31164" lon="5.69678">
        <ele>968</ele>
        <time>2019-11-29T11:25:52.000Z</time>
      </trkpt>
      <trkpt lat="43.31165" lon="5.69678">
        <ele>969</ele>
        <time>2019-11-29T11:25:53.000Z</time>
      </trkpt>
      <trkpt lat="43.31165" lon="5.69677">
        <ele>969</ele>
        <time>2019-11-29T11:25:54.000Z</time>
      </trkpt>
      <trkpt lat="43.31166" lon="5.69676">
        <ele>969</ele>
        <time>2019-11-29T11:25:55.000Z</time>
      </trkpt>
      <trkpt lat="43.31166" lon="5.69676">
        <ele>969</ele>
        <time>2019-11-29T11:25:56.000Z</time>
      </trkpt>
      <trkpt lat="43.31167" lon="5.69675">
        <ele>969</ele>
        <time>2019-11-29T11:25:57.000Z</time>
      </trkpt>
      <trkpt lat="43.31167" lon="5.69675">
        <ele>969</ele>
        <time>2019-11-29T11:25:58.000Z</time>
      </trkpt>
      <trkpt lat="43.31168" lon="5.69675">
        <ele>969</ele>
        <time>2019-11-29T11:25:59.000Z</time>
      </trkpt>
      <trkpt lat="43.31169" lon="5.69675">
        <ele>969</ele>
        <time>2019-11-29T11:26:00.000Z</time>
      </trkpt>
      <trkpt lat="43.31169" lon="5.69674">
        <ele>969</ele>
        <time>2019-11-29T11:26:01.000Z</time>
      </trkpt>
      <trkpt lat="43.3117" lon="5.69674">
        <ele>969</ele>
        <time>2019-11-29T11:26:02.000Z</time>
      </trkpt>
      <trkpt lat="43.31171" lon="5.69674">
        <ele>969</ele>
        <time>2019-11-29T11:26:03.000Z</time>
      </trkpt>
      <trkpt lat="43.31171" lon="5.69673">
        <ele>969</ele>
        <time>2019-11-29T11:26:04.000Z</time>
      </trkpt>
      <trkpt lat="43.31172" lon="5.69673">
        <ele>969</ele>
        <time>2019-11-29T11:26:05.000Z</time>
      </trkpt>
      <trkpt lat="43.31173" lon="5.69673">
        <ele>969</ele>
        <time>2019-11-29T11:26:06.000Z</time>
      </trkpt>
      <trkpt lat="43.31174" lon="5.69673">
        <ele>969</ele>
        <time>2019-11-29T11:26:07.000Z</time>
      </trkpt>
      <trkpt lat="43.31175" lon="5.69673">
        <ele>969</ele>
        <time>2019-11-29T11:26:08.000Z</time>
      </trkpt>
      <trkpt lat="43.31175" lon="5.69674">
        <ele>970</ele>
        <time>2019-11-29T11:26:09.000Z</time>
      </trkpt>
      <trkpt lat="43.31176" lon="5.69673">
        <ele>970</ele>
        <time>2019-11-29T11:26:10.000Z</time>
      </trkpt>
      <trkpt lat="43.31177" lon="5.69673">
        <ele>970</ele>
        <time>2019-11-29T11:26:11.000Z</time>
      </trkpt>
      <trkpt lat="43.31177" lon="5.69673">
        <ele>970</ele>
        <time>2019-11-29T11:26:12.000Z</time>
      </trkpt>
      <trkpt lat="43.31178" lon="5.69673">
        <ele>970</ele>
        <time>2019-11-29T11:26:13.000Z</time>
      </trkpt>
      <trkpt lat="43.31179" lon="5.69672">
        <ele>970</ele>
        <time>2019-11-29T11:26:14.000Z</time>
      </trkpt>
      <trkpt lat="43.31179" lon="5.69672">
        <ele>970</ele>
        <time>2019-11-29T11:26:15.000Z</time>
      </trkpt>
      <trkpt lat="43.3118" lon="5.69672">
        <ele>970</ele>
        <time>2019-11-29T11:26:16.000Z</time>
      </trkpt>
      <trkpt lat="43.31181" lon="5.69672">
        <ele>971</ele>
        <time>2019-11-29T11:26:17.000Z</time>
      </trkpt>
      <trkpt lat="43.31181" lon="5.69672">
        <ele>971</ele>
        <time>2019-11-29T11:26:18.000Z</time>
      </trkpt>
      <trkpt lat="43.31182" lon="5.69672">
        <ele>971</ele>
        <time>2019-11-29T11:26:19.000Z</time>
      </trkpt>
      <trkpt lat="43.31183" lon="5.69672">
        <ele>971</ele>
        <time>2019-11-29T11:26:20.000Z</time>
      </trkpt>
      <trkpt lat="43.31184" lon="5.69672">
        <ele>971</ele>
        <time>2019-11-29T11:26:21.000Z</time>
      </trkpt>
      <trkpt lat="43.31184" lon="5.69672">
        <ele>971</ele>
        <time>2019-11-29T11:26:22.000Z</time>
      </trkpt>
      <trkpt lat="43.31185" lon="5.69672">
        <ele>971</ele>
        <time>2019-11-29T11:26:23.000Z</time>
      </trkpt>
      <trkpt lat="43.31186" lon="5.69672">
        <ele>972</ele>
        <time>2019-11-29T11:26:24.000Z</time>
      </trkpt>
      <trkpt lat="43.31186" lon="5.69672">
        <ele>972</ele>
        <time>2019-11-29T11:26:25.000Z</time>
      </trkpt>
      <trkpt lat="43.31187" lon="5.69672">
        <ele>972</ele>
        <time>2019-11-29T11:26:26.000Z</time>
      </trkpt>
      <trkpt lat="43.31188" lon="5.69672">
        <ele>972</ele>
        <time>2019-11-29T11:26:27.000Z</time>
      </trkpt>
      <trkpt lat="43.31188" lon="5.69672">
        <ele>972</ele>
        <time>2019-11-29T11:26:28.000Z</time>
      </trkpt>
      <trkpt lat="43.31189" lon="5.69672">
        <ele>972</ele>
        <time>2019-11-29T11:26:29.000Z</time>
      </trkpt>
      <trkpt lat="43.3119" lon="5.69673">
        <ele>973</ele>
        <time>2019-11-29T11:26:30.000Z</time>
      </trkpt>
      <trkpt lat="43.3119" lon="5.69673">
        <ele>973</ele>
        <time>2019-11-29T11:26:31.000Z</time>
      </trkpt>
      <trkpt lat="43.31191" lon="5.69673">
        <ele>973</ele>
        <time>2019-11-29T11:26:32.000Z</time>
      </trkpt>
      <trkpt lat="43.31192" lon="5.69673">
        <ele>973</ele>
        <time>2019-11-29T11:26:33.000Z</time>
      </trkpt>
      <trkpt lat="43.31192" lon="5.69674">
        <ele>973</ele>
        <time>2019-11-29T11:26:34.000Z</time>
      </trkpt>
      <trkpt lat="43.31193" lon="5.69674">
        <ele>973</ele>
        <time>2019-11-29T11:26:35.000Z</time>
      </trkpt>
      <trkpt lat="43.31193" lon="5.69674">
        <ele>973</ele>
        <time>2019-11-29T11:26:36.000Z</time>
      </trkpt>
      <trkpt lat="43.31194" lon="5.69675">
        <ele>973</ele>
        <time>2019-11-29T11:26:37.000Z</time>
      </trkpt>
      <trkpt lat="43.31195" lon="5.69675">
        <ele>973</ele>
        <time>2019-11-29T11:26:38.000Z</time>
      </trkpt>
      <trkpt lat="43.31195" lon="5.69676">
        <ele>974</ele>
        <time>2019-11-29T11:26:39.000Z</time>
      </trkpt>
      <trkpt lat="43.31195" lon="5.69677">
        <ele>974</ele>
        <time>2019-11-29T11:26:40.000Z</time>
      </trkpt>
      <trkpt lat="43.31196" lon="5.69677">
        <ele>974</ele>
        <time>2019-11-29T11:26:41.000Z</time>
      </trkpt>
      <trkpt lat="43.31196" lon="5.69678">
        <ele>974</ele>
        <time>2019-11-29T11:26:42.000Z</time>
      </trkpt>
      <trkpt lat="43.31197" lon="5.69679">
        <ele>974</ele>
        <time>2019-11-29T11:26:43.000Z</time>
      </trkpt>
      <trkpt lat="43.31197" lon="5.69679">
        <ele>975</ele>
        <time>2019-11-29T11:26:44.000Z</time>
      </trkpt>
      <trkpt lat="43.31197" lon="5.6968">
        <ele>975</ele>
        <time>2019-11-29T11:26:45.000Z</time>
      </trkpt>
      <trkpt lat="43.31198" lon="5.6968">
        <ele>975</ele>
        <time>2019-11-29T11:26:46.000Z</time>
      </trkpt>
      <trkpt lat="43.31198" lon="5.69681">
        <ele>975</ele>
        <time>2019-11-29T11:26:47.000Z</time>
      </trkpt>
      <trkpt lat="43.31198" lon="5.69682">
        <ele>975</ele>
        <time>2019-11-29T11:26:48.000Z</time>
      </trkpt>
      <trkpt lat="43.31199" lon="5.69682">
        <ele>976</ele>
        <time>2019-11-29T11:26:49.000Z</time>
      </trkpt>
      <trkpt lat="43.31199" lon="5.69683">
        <ele>976</ele>
        <time>2019-11-29T11:26:50.000Z</time>
      </trkpt>
      <trkpt lat="43.31199" lon="5.69684">
        <ele>976</ele>
        <time>2019-11-29T11:26:51.000Z</time>
      </trkpt>
      <trkpt lat="43.312" lon="5.69685">
        <ele>976</ele>
        <time>2019-11-29T11:26:52.000Z</time>
      </trkpt>
      <trkpt lat="43.312" lon="5.69685">
        <ele>976</ele>
        <time>2019-11-29T11:26:53.000Z</time>
      </trkpt>
      <trkpt lat="43.31201" lon="5.69685">
        <ele>976</ele>
        <time>2019-11-29T11:26:54.000Z</time>
      </trkpt>
      <trkpt lat="43.31201" lon="5.69685">
        <ele>976</ele>
        <time>2019-11-29T11:26:55.000Z</time>
      </trkpt>
      <trkpt lat="43.31202" lon="5.69686">
        <ele>976</ele>
        <time>2019-11-29T11:26:56.000Z</time>
      </trkpt>
      <trkpt lat="43.31202" lon="5.69686">
        <ele>977</ele>
        <time>2019-11-29T11:26:57.000Z</time>
      </trkpt>
      <trkpt lat="43.31203" lon="5.69687">
        <ele>977</ele>
        <time>2019-11-29T11:26:58.000Z</time>
      </trkpt>
      <trkpt lat="43.31203" lon="5.69687">
        <ele>977</ele>
        <time>2019-11-29T11:26:59.000Z</time>
      </trkpt>
      <trkpt lat="43.31204" lon="5.69687">
        <ele>977</ele>
        <time>2019-11-29T11:27:00.000Z</time>
      </trkpt>
      <trkpt lat="43.31204" lon="5.69688">
        <ele>977</ele>
        <time>2019-11-29T11:27:01.000Z</time>
      </trkpt>
      <trkpt lat="43.31205" lon="5.69688">
        <ele>977</ele>
        <time>2019-11-29T11:27:02.000Z</time>
      </trkpt>
      <trkpt lat="43.31205" lon="5.69688">
        <ele>977</ele>
        <time>2019-11-29T11:27:03.000Z</time>
      </trkpt>
      <trkpt lat="43.31206" lon="5.69688">
        <ele>978</ele>
        <time>2019-11-29T11:27:04.000Z</time>
      </trkpt>
      <trkpt lat="43.31207" lon="5.69689">
        <ele>978</ele>
        <time>2019-11-29T11:27:05.000Z</time>
      </trkpt>
      <trkpt lat="43.31207" lon="5.69689">
        <ele>978</ele>
        <time>2019-11-29T11:27:06.000Z</time>
      </trkpt>
      <trkpt lat="43.31208" lon="5.69689">
        <ele>978</ele>
        <time>2019-11-29T11:27:07.000Z</time>
      </trkpt>
      <trkpt lat="43.31208" lon="5.69689">
        <ele>978</ele>
        <time>2019-11-29T11:27:08.000Z</time>
      </trkpt>
      <trkpt lat="43.31209" lon="5.69689">
        <ele>979</ele>
        <time>2019-11-29T11:27:09.000Z</time>
      </trkpt>
      <trkpt lat="43.31209" lon="5.69689">
        <ele>979</ele>
        <time>2019-11-29T11:27:10.000Z</time>
      </trkpt>
      <trkpt lat="43.3121" lon="5.69689">
        <ele>979</ele>
        <time>2019-11-29T11:27:11.000Z</time>
      </trkpt>
      <trkpt lat="43.3121" lon="5.6969">
        <ele>979</ele>
        <time>2019-11-29T11:27:12.000Z</time>
      </trkpt>
      <trkpt lat="43.31211" lon="5.6969">
        <ele>979</ele>
        <time>2019-11-29T11:27:13.000Z</time>
      </trkpt>
      <trkpt lat="43.31211" lon="5.6969">
        <ele>980</ele>
        <time>2019-11-29T11:27:14.000Z</time>
      </trkpt>
      <trkpt lat="43.31212" lon="5.6969">
        <ele>980</ele>
        <time>2019-11-29T11:27:15.000Z</time>
      </trkpt>
      <trkpt lat="43.31213" lon="5.6969">
        <ele>980</ele>
        <time>2019-11-29T11:27:16.000Z</time>
      </trkpt>
      <trkpt lat="43.31213" lon="5.6969">
        <ele>980</ele>
        <time>2019-11-29T11:27:17.000Z</time>
      </trkpt>
      <trkpt lat="43.31214" lon="5.6969">
        <ele>980</ele>
        <time>2019-11-29T11:27:18.000Z</time>
      </trkpt>
      <trkpt lat="43.31215" lon="5.69691">
        <ele>981</ele>
        <time>2019-11-29T11:27:19.000Z</time>
      </trkpt>
      <trkpt lat="43.31215" lon="5.69691">
        <ele>981</ele>
        <time>2019-11-29T11:27:20.000Z</time>
      </trkpt>
      <trkpt lat="43.31216" lon="5.69691">
        <ele>981</ele>
        <time>2019-11-29T11:27:21.000Z</time>
      </trkpt>
      <trkpt lat="43.31216" lon="5.69691">
        <ele>981</ele>
        <time>2019-11-29T11:27:22.000Z</time>
      </trkpt>
      <trkpt lat="43.31216" lon="5.69691">
        <ele>982</ele>
        <time>2019-11-29T11:27:23.000Z</time>
      </trkpt>
      <trkpt lat="43.31217" lon="5.6969">
        <ele>982</ele>
        <time>2019-11-29T11:27:24.000Z</time>
      </trkpt>
      <trkpt lat="43.31217" lon="5.6969">
        <ele>982</ele>
        <time>2019-11-29T11:27:25.000Z</time>
      </trkpt>
      <trkpt lat="43.31217" lon="5.6969">
        <ele>982</ele>
        <time>2019-11-29T11:27:26.000Z</time>
      </trkpt>
      <trkpt lat="43.31217" lon="5.69691">
        <ele>982</ele>
        <time>2019-11-29T11:27:27.000Z</time>
      </trkpt>
      <trkpt lat="43.31217" lon="5.69691">
        <ele>982</ele>
        <time>2019-11-29T11:27:28.000Z</time>
      </trkpt>
      <trkpt lat="43.31217" lon="5.6969">
        <ele>982</ele>
        <time>2019-11-29T11:27:29.000Z</time>
      </trkpt>
      <trkpt lat="43.31217" lon="5.6969">
        <ele>982</ele>
        <time>2019-11-29T11:27:30.000Z</time>
      </trkpt>
      <trkpt lat="43.31218" lon="5.6969">
        <ele>982</ele>
        <time>2019-11-29T11:27:31.000Z</time>
      </trkpt>
      <trkpt lat="43.31219" lon="5.6969">
        <ele>982</ele>
        <time>2019-11-29T11:27:32.000Z</time>
      </trkpt>
      <trkpt lat="43.3122" lon="5.6969">
        <ele>982</ele>
        <time>2019-11-29T11:27:33.000Z</time>
      </trkpt>
      <trkpt lat="43.3122" lon="5.6969">
        <ele>983</ele>
        <time>2019-11-29T11:27:34.000Z</time>
      </trkpt>
      <trkpt lat="43.31221" lon="5.6969">
        <ele>983</ele>
        <time>2019-11-29T11:27:35.000Z</time>
      </trkpt>
      <trkpt lat="43.31222" lon="5.69689">
        <ele>983</ele>
        <time>2019-11-29T11:27:36.000Z</time>
      </trkpt>
      <trkpt lat="43.31222" lon="5.69688">
        <ele>983</ele>
        <time>2019-11-29T11:27:37.000Z</time>
      </trkpt>
      <trkpt lat="43.31222" lon="5.69687">
        <ele>983</ele>
        <time>2019-11-29T11:27:38.000Z</time>
      </trkpt>
      <trkpt lat="43.31223" lon="5.69686">
        <ele>983</ele>
        <time>2019-11-29T11:27:39.000Z</time>
      </trkpt>
      <trkpt lat="43.31223" lon="5.69686">
        <ele>983</ele>
        <time>2019-11-29T11:27:40.000Z</time>
      </trkpt>
      <trkpt lat="43.31223" lon="5.69685">
        <ele>984</ele>
        <time>2019-11-29T11:27:41.000Z</time>
      </trkpt>
      <trkpt lat="43.31224" lon="5.69684">
        <ele>984</ele>
        <time>2019-11-29T11:27:42.000Z</time>
      </trkpt>
      <trkpt lat="43.31224" lon="5.69683">
        <ele>984</ele>
        <time>2019-11-29T11:27:43.000Z</time>
      </trkpt>
      <trkpt lat="43.31225" lon="5.69683">
        <ele>984</ele>
        <time>2019-11-29T11:27:44.000Z</time>
      </trkpt>
      <trkpt lat="43.31225" lon="5.69683">
        <ele>984</ele>
        <time>2019-11-29T11:27:45.000Z</time>
      </trkpt>
      <trkpt lat="43.31225" lon="5.69682">
        <ele>984</ele>
        <time>2019-11-29T11:27:46.000Z</time>
      </trkpt>
      <trkpt lat="43.31226" lon="5.69681">
        <ele>984</ele>
        <time>2019-11-29T11:27:47.000Z</time>
      </trkpt>
      <trkpt lat="43.31226" lon="5.69681">
        <ele>984</ele>
        <time>2019-11-29T11:27:48.000Z</time>
      </trkpt>
      <trkpt lat="43.31227" lon="5.6968">
        <ele>984</ele>
        <time>2019-11-29T11:27:49.000Z</time>
      </trkpt>
      <trkpt lat="43.31228" lon="5.6968">
        <ele>984</ele>
        <time>2019-11-29T11:27:50.000Z</time>
      </trkpt>
      <trkpt lat="43.31228" lon="5.69679">
        <ele>985</ele>
        <time>2019-11-29T11:27:51.000Z</time>
      </trkpt>
      <trkpt lat="43.31229" lon="5.69679">
        <ele>985</ele>
        <time>2019-11-29T11:27:52.000Z</time>
      </trkpt>
      <trkpt lat="43.31229" lon="5.69678">
        <ele>985</ele>
        <time>2019-11-29T11:27:53.000Z</time>
      </trkpt>
      <trkpt lat="43.31229" lon="5.69677">
        <ele>985</ele>
        <time>2019-11-29T11:27:54.000Z</time>
      </trkpt>
      <trkpt lat="43.31228" lon="5.69676">
        <ele>985</ele>
        <time>2019-11-29T11:27:55.000Z</time>
      </trkpt>
      <trkpt lat="43.31228" lon="5.69675">
        <ele>985</ele>
        <time>2019-11-29T11:27:56.000Z</time>
      </trkpt>
      <trkpt lat="43.31228" lon="5.69674">
        <ele>985</ele>
        <time>2019-11-29T11:27:57.000Z</time>
      </trkpt>
      <trkpt lat="43.31228" lon="5.69673">
        <ele>986</ele>
        <time>2019-11-29T11:27:58.000Z</time>
      </trkpt>
      <trkpt lat="43.31227" lon="5.69672">
        <ele>986</ele>
        <time>2019-11-29T11:27:59.000Z</time>
      </trkpt>
      <trkpt lat="43.31227" lon="5.69671">
        <ele>986</ele>
        <time>2019-11-29T11:28:00.000Z</time>
      </trkpt>
      <trkpt lat="43.31227" lon="5.6967">
        <ele>986</ele>
        <time>2019-11-29T11:28:01.000Z</time>
      </trkpt>
      <trkpt lat="43.31227" lon="5.69669">
        <ele>986</ele>
        <time>2019-11-29T11:28:02.000Z</time>
      </trkpt>
      <trkpt lat="43.31227" lon="5.69668">
        <ele>986</ele>
        <time>2019-11-29T11:28:03.000Z</time>
      </trkpt>
      <trkpt lat="43.31227" lon="5.69667">
        <ele>986</ele>
        <time>2019-11-29T11:28:04.000Z</time>
      </trkpt>
      <trkpt lat="43.31227" lon="5.69666">
        <ele>986</ele>
        <time>2019-11-29T11:28:05.000Z</time>
      </trkpt>
      <trkpt lat="43.31227" lon="5.69664">
        <ele>986</ele>
        <time>2019-11-29T11:28:06.000Z</time>
      </trkpt>
      <trkpt lat="43.31227" lon="5.69663">
        <ele>986</ele>
        <time>2019-11-29T11:28:07.000Z</time>
      </trkpt>
      <trkpt lat="43.31227" lon="5.69662">
        <ele>986</ele>
        <time>2019-11-29T11:28:08.000Z</time>
      </trkpt>
      <trkpt lat="43.31226" lon="5.69661">
        <ele>986</ele>
        <time>2019-11-29T11:28:09.000Z</time>
      </trkpt>
      <trkpt lat="43.31226" lon="5.6966">
        <ele>986</ele>
        <time>2019-11-29T11:28:10.000Z</time>
      </trkpt>
      <trkpt lat="43.31226" lon="5.69659">
        <ele>986</ele>
        <time>2019-11-29T11:28:11.000Z</time>
      </trkpt>
      <trkpt lat="43.31226" lon="5.69658">
        <ele>986</ele>
        <time>2019-11-29T11:28:12.000Z</time>
      </trkpt>
      <trkpt lat="43.31226" lon="5.69657">
        <ele>986</ele>
        <time>2019-11-29T11:28:13.000Z</time>
      </trkpt>
      <trkpt lat="43.31226" lon="5.69655">
        <ele>986</ele>
        <time>2019-11-29T11:28:14.000Z</time>
      </trkpt>
      <trkpt lat="43.31225" lon="5.69654">
        <ele>986</ele>
        <time>2019-11-29T11:28:15.000Z</time>
      </trkpt>
      <trkpt lat="43.31225" lon="5.69653">
        <ele>986</ele>
        <time>2019-11-29T11:28:16.000Z</time>
      </trkpt>
      <trkpt lat="43.31225" lon="5.69652">
        <ele>986</ele>
        <time>2019-11-29T11:28:17.000Z</time>
      </trkpt>
      <trkpt lat="43.31225" lon="5.69651">
        <ele>986</ele>
        <time>2019-11-29T11:28:18.000Z</time>
      </trkpt>
      <trkpt lat="43.31224" lon="5.6965">
        <ele>986</ele>
        <time>2019-11-29T11:28:19.000Z</time>
      </trkpt>
      <trkpt lat="43.31224" lon="5.69649">
        <ele>986</ele>
        <time>2019-11-29T11:28:20.000Z</time>
      </trkpt>
      <trkpt lat="43.31224" lon="5.69648">
        <ele>986</ele>
        <time>2019-11-29T11:28:21.000Z</time>
      </trkpt>
      <trkpt lat="43.31223" lon="5.69646">
        <ele>986</ele>
        <time>2019-11-29T11:28:22.000Z</time>
      </trkpt>
      <trkpt lat="43.31223" lon="5.69645">
        <ele>986</ele>
        <time>2019-11-29T11:28:23.000Z</time>
      </trkpt>
      <trkpt lat="43.31223" lon="5.69644">
        <ele>986</ele>
        <time>2019-11-29T11:28:24.000Z</time>
      </trkpt>
      <trkpt lat="43.31223" lon="5.69643">
        <ele>986</ele>
        <time>2019-11-29T11:28:25.000Z</time>
      </trkpt>
      <trkpt lat="43.31222" lon="5.69641">
        <ele>986</ele>
        <time>2019-11-29T11:28:26.000Z</time>
      </trkpt>
      <trkpt lat="43.31222" lon="5.6964">
        <ele>986</ele>
        <time>2019-11-29T11:28:27.000Z</time>
      </trkpt>
      <trkpt lat="43.31222" lon="5.69639">
        <ele>986</ele>
        <time>2019-11-29T11:28:28.000Z</time>
      </trkpt>
      <trkpt lat="43.31222" lon="5.69638">
        <ele>986</ele>
        <time>2019-11-29T11:28:29.000Z</time>
      </trkpt>
      <trkpt lat="43.31222" lon="5.69636">
        <ele>987</ele>
        <time>2019-11-29T11:28:30.000Z</time>
      </trkpt>
      <trkpt lat="43.31222" lon="5.69635">
        <ele>987</ele>
        <time>2019-11-29T11:28:31.000Z</time>
      </trkpt>
      <trkpt lat="43.31221" lon="5.69634">
        <ele>987</ele>
        <time>2019-11-29T11:28:32.000Z</time>
      </trkpt>
      <trkpt lat="43.31221" lon="5.69633">
        <ele>987</ele>
        <time>2019-11-29T11:28:33.000Z</time>
      </trkpt>
      <trkpt lat="43.31221" lon="5.69631">
        <ele>987</ele>
        <time>2019-11-29T11:28:34.000Z</time>
      </trkpt>
      <trkpt lat="43.31221" lon="5.6963">
        <ele>987</ele>
        <time>2019-11-29T11:28:35.000Z</time>
      </trkpt>
      <trkpt lat="43.31221" lon="5.69629">
        <ele>987</ele>
        <time>2019-11-29T11:28:36.000Z</time>
      </trkpt>
      <trkpt lat="43.3122" lon="5.69628">
        <ele>987</ele>
        <time>2019-11-29T11:28:37.000Z</time>
      </trkpt>
      <trkpt lat="43.3122" lon="5.69626">
        <ele>987</ele>
        <time>2019-11-29T11:28:38.000Z</time>
      </trkpt>
      <trkpt lat="43.3122" lon="5.69625">
        <ele>987</ele>
        <time>2019-11-29T11:28:39.000Z</time>
      </trkpt>
      <trkpt lat="43.3122" lon="5.69624">
        <ele>987</ele>
        <time>2019-11-29T11:28:40.000Z</time>
      </trkpt>
      <trkpt lat="43.31219" lon="5.69623">
        <ele>987</ele>
        <time>2019-11-29T11:28:41.000Z</time>
      </trkpt>
      <trkpt lat="43.31219" lon="5.69622">
        <ele>987</ele>
        <time>2019-11-29T11:28:42.000Z</time>
      </trkpt>
      <trkpt lat="43.31219" lon="5.69621">
        <ele>987</ele>
        <time>2019-11-29T11:28:43.000Z</time>
      </trkpt>
      <trkpt lat="43.3122" lon="5.6962">
        <ele>988</ele>
        <time>2019-11-29T11:28:44.000Z</time>
      </trkpt>
      <trkpt lat="43.3122" lon="5.69619">
        <ele>988</ele>
        <time>2019-11-29T11:28:45.000Z</time>
      </trkpt>
      <trkpt lat="43.31221" lon="5.69618">
        <ele>988</ele>
        <time>2019-11-29T11:28:46.000Z</time>
      </trkpt>
      <trkpt lat="43.31222" lon="5.69618">
        <ele>988</ele>
        <time>2019-11-29T11:28:47.000Z</time>
      </trkpt>
      <trkpt lat="43.31223" lon="5.69618">
        <ele>988</ele>
        <time>2019-11-29T11:28:48.000Z</time>
      </trkpt>
      <trkpt lat="43.31223" lon="5.69617">
        <ele>988</ele>
        <time>2019-11-29T11:28:49.000Z</time>
      </trkpt>
      <trkpt lat="43.31224" lon="5.69617">
        <ele>988</ele>
        <time>2019-11-29T11:28:50.000Z</time>
      </trkpt>
      <trkpt lat="43.31225" lon="5.69617">
        <ele>988</ele>
        <time>2019-11-29T11:28:51.000Z</time>
      </trkpt>
      <trkpt lat="43.31226" lon="5.69617">
        <ele>988</ele>
        <time>2019-11-29T11:28:52.000Z</time>
      </trkpt>
      <trkpt lat="43.31226" lon="5.69616">
        <ele>989</ele>
        <time>2019-11-29T11:28:53.000Z</time>
      </trkpt>
      <trkpt lat="43.31227" lon="5.69616">
        <ele>989</ele>
        <time>2019-11-29T11:28:54.000Z</time>
      </trkpt>
      <trkpt lat="43.31227" lon="5.69615">
        <ele>989</ele>
        <time>2019-11-29T11:28:55.000Z</time>
      </trkpt>
      <trkpt lat="43.31228" lon="5.69614">
        <ele>989</ele>
        <time>2019-11-29T11:28:56.000Z</time>
      </trkpt>
      <trkpt lat="43.31228" lon="5.69614">
        <ele>989</ele>
        <time>2019-11-29T11:28:57.000Z</time>
      </trkpt>
      <trkpt lat="43.31229" lon="5.69613">
        <ele>989</ele>
        <time>2019-11-29T11:28:58.000Z</time>
      </trkpt>
      <trkpt lat="43.31229" lon="5.69612">
        <ele>989</ele>
        <time>2019-11-29T11:28:59.000Z</time>
      </trkpt>
      <trkpt lat="43.31229" lon="5.69611">
        <ele>989</ele>
        <time>2019-11-29T11:29:00.000Z</time>
      </trkpt>
      <trkpt lat="43.3123" lon="5.6961">
        <ele>989</ele>
        <time>2019-11-29T11:29:01.000Z</time>
      </trkpt>
      <trkpt lat="43.3123" lon="5.69609">
        <ele>989</ele>
        <time>2019-11-29T11:29:02.000Z</time>
      </trkpt>
      <trkpt lat="43.3123" lon="5.69608">
        <ele>990</ele>
        <time>2019-11-29T11:29:03.000Z</time>
      </trkpt>
      <trkpt lat="43.3123" lon="5.69607">
        <ele>990</ele>
        <time>2019-11-29T11:29:04.000Z</time>
      </trkpt>
      <trkpt lat="43.3123" lon="5.69606">
        <ele>990</ele>
        <time>2019-11-29T11:29:05.000Z</time>
      </trkpt>
      <trkpt lat="43.3123" lon="5.69605">
        <ele>990</ele>
        <time>2019-11-29T11:29:06.000Z</time>
      </trkpt>
      <trkpt lat="43.3123" lon="5.69604">
        <ele>990</ele>
        <time>2019-11-29T11:29:07.000Z</time>
      </trkpt>
      <trkpt lat="43.3123" lon="5.69602">
        <ele>990</ele>
        <time>2019-11-29T11:29:08.000Z</time>
      </trkpt>
      <trkpt lat="43.31231" lon="5.69602">
        <ele>990</ele>
        <time>2019-11-29T11:29:09.000Z</time>
      </trkpt>
      <trkpt lat="43.31231" lon="5.69601">
        <ele>990</ele>
        <time>2019-11-29T11:29:10.000Z</time>
      </trkpt>
      <trkpt lat="43.31231" lon="5.696">
        <ele>990</ele>
        <time>2019-11-29T11:29:11.000Z</time>
      </trkpt>
      <trkpt lat="43.31231" lon="5.69599">
        <ele>990</ele>
        <time>2019-11-29T11:29:12.000Z</time>
      </trkpt>
      <trkpt lat="43.31232" lon="5.69598">
        <ele>990</ele>
        <time>2019-11-29T11:29:13.000Z</time>
      </trkpt>
      <trkpt lat="43.31232" lon="5.69597">
        <ele>990</ele>
        <time>2019-11-29T11:29:14.000Z</time>
      </trkpt>
      <trkpt lat="43.31232" lon="5.69596">
        <ele>990</ele>
        <time>2019-11-29T11:29:15.000Z</time>
      </trkpt>
      <trkpt lat="43.31232" lon="5.69595">
        <ele>990</ele>
        <time>2019-11-29T11:29:16.000Z</time>
      </trkpt>
      <trkpt lat="43.31232" lon="5.69593">
        <ele>990</ele>
        <time>2019-11-29T11:29:17.000Z</time>
      </trkpt>
      <trkpt lat="43.31232" lon="5.69592">
        <ele>990</ele>
        <time>2019-11-29T11:29:18.000Z</time>
      </trkpt>
      <trkpt lat="43.31233" lon="5.69592">
        <ele>991</ele>
        <time>2019-11-29T11:29:19.000Z</time>
      </trkpt>
      <trkpt lat="43.31233" lon="5.69591">
        <ele>991</ele>
        <time>2019-11-29T11:29:20.000Z</time>
      </trkpt>
      <trkpt lat="43.31234" lon="5.6959">
        <ele>991</ele>
        <time>2019-11-29T11:29:21.000Z</time>
      </trkpt>
      <trkpt lat="43.31234" lon="5.69589">
        <ele>991</ele>
        <time>2019-11-29T11:29:22.000Z</time>
      </trkpt>
      <trkpt lat="43.31235" lon="5.69589">
        <ele>991</ele>
        <time>2019-11-29T11:29:23.000Z</time>
      </trkpt>
      <trkpt lat="43.31235" lon="5.69588">
        <ele>991</ele>
        <time>2019-11-29T11:29:24.000Z</time>
      </trkpt>
      <trkpt lat="43.31236" lon="5.69587">
        <ele>991</ele>
        <time>2019-11-29T11:29:25.000Z</time>
      </trkpt>
      <trkpt lat="43.31236" lon="5.69586">
        <ele>991</ele>
        <time>2019-11-29T11:29:26.000Z</time>
      </trkpt>
      <trkpt lat="43.31236" lon="5.69585">
        <ele>992</ele>
        <time>2019-11-29T11:29:27.000Z</time>
      </trkpt>
      <trkpt lat="43.31237" lon="5.69584">
        <ele>992</ele>
        <time>2019-11-29T11:29:28.000Z</time>
      </trkpt>
      <trkpt lat="43.31237" lon="5.69583">
        <ele>992</ele>
        <time>2019-11-29T11:29:29.000Z</time>
      </trkpt>
      <trkpt lat="43.31237" lon="5.69582">
        <ele>992</ele>
        <time>2019-11-29T11:29:30.000Z</time>
      </trkpt>
      <trkpt lat="43.31237" lon="5.69581">
        <ele>992</ele>
        <time>2019-11-29T11:29:31.000Z</time>
      </trkpt>
      <trkpt lat="43.31237" lon="5.6958">
        <ele>992</ele>
        <time>2019-11-29T11:29:32.000Z</time>
      </trkpt>
      <trkpt lat="43.31237" lon="5.69579">
        <ele>992</ele>
        <time>2019-11-29T11:29:33.000Z</time>
      </trkpt>
      <trkpt lat="43.31237" lon="5.69578">
        <ele>992</ele>
        <time>2019-11-29T11:29:34.000Z</time>
      </trkpt>
      <trkpt lat="43.31238" lon="5.69576">
        <ele>992</ele>
        <time>2019-11-29T11:29:35.000Z</time>
      </trkpt>
      <trkpt lat="43.31238" lon="5.69575">
        <ele>993</ele>
        <time>2019-11-29T11:29:36.000Z</time>
      </trkpt>
      <trkpt lat="43.31238" lon="5.69575">
        <ele>993</ele>
        <time>2019-11-29T11:29:37.000Z</time>
      </trkpt>
      <trkpt lat="43.31238" lon="5.69574">
        <ele>993</ele>
        <time>2019-11-29T11:29:38.000Z</time>
      </trkpt>
      <trkpt lat="43.31237" lon="5.69573">
        <ele>993</ele>
        <time>2019-11-29T11:29:39.000Z</time>
      </trkpt>
      <trkpt lat="43.31237" lon="5.69572">
        <ele>993</ele>
        <time>2019-11-29T11:29:40.000Z</time>
      </trkpt>
      <trkpt lat="43.31237" lon="5.6957">
        <ele>993</ele>
        <time>2019-11-29T11:29:41.000Z</time>
      </trkpt>
      <trkpt lat="43.31237" lon="5.6957">
        <ele>993</ele>
        <time>2019-11-29T11:29:42.000Z</time>
      </trkpt>
      <trkpt lat="43.31237" lon="5.69568">
        <ele>993</ele>
        <time>2019-11-29T11:29:43.000Z</time>
      </trkpt>
      <trkpt lat="43.31237" lon="5.69567">
        <ele>993</ele>
        <time>2019-11-29T11:29:44.000Z</time>
      </trkpt>
      <trkpt lat="43.31237" lon="5.69567">
        <ele>994</ele>
        <time>2019-11-29T11:29:45.000Z</time>
      </trkpt>
      <trkpt lat="43.31237" lon="5.69566">
        <ele>994</ele>
        <time>2019-11-29T11:29:46.000Z</time>
      </trkpt>
      <trkpt lat="43.31237" lon="5.69564">
        <ele>994</ele>
        <time>2019-11-29T11:29:47.000Z</time>
      </trkpt>
      <trkpt lat="43.31237" lon="5.69563">
        <ele>994</ele>
        <time>2019-11-29T11:29:48.000Z</time>
      </trkpt>
      <trkpt lat="43.31237" lon="5.69563">
        <ele>994</ele>
        <time>2019-11-29T11:29:49.000Z</time>
      </trkpt>
      <trkpt lat="43.31237" lon="5.69562">
        <ele>994</ele>
        <time>2019-11-29T11:29:50.000Z</time>
      </trkpt>
      <trkpt lat="43.31237" lon="5.69561">
        <ele>994</ele>
        <time>2019-11-29T11:29:51.000Z</time>
      </trkpt>
      <trkpt lat="43.31237" lon="5.6956">
        <ele>995</ele>
        <time>2019-11-29T11:29:52.000Z</time>
      </trkpt>
      <trkpt lat="43.31237" lon="5.69559">
        <ele>995</ele>
        <time>2019-11-29T11:29:53.000Z</time>
      </trkpt>
      <trkpt lat="43.31237" lon="5.69558">
        <ele>995</ele>
        <time>2019-11-29T11:29:54.000Z</time>
      </trkpt>
      <trkpt lat="43.31237" lon="5.69557">
        <ele>995</ele>
        <time>2019-11-29T11:29:55.000Z</time>
      </trkpt>
      <trkpt lat="43.31237" lon="5.69556">
        <ele>995</ele>
        <time>2019-11-29T11:29:56.000Z</time>
      </trkpt>
      <trkpt lat="43.31236" lon="5.69556">
        <ele>995</ele>
        <time>2019-11-29T11:29:57.000Z</time>
      </trkpt>
      <trkpt lat="43.31236" lon="5.69555">
        <ele>996</ele>
        <time>2019-11-29T11:29:58.000Z</time>
      </trkpt>
      <trkpt lat="43.31236" lon="5.69554">
        <ele>996</ele>
        <time>2019-11-29T11:29:59.000Z</time>
      </trkpt>
      <trkpt lat="43.31236" lon="5.69554">
        <ele>996</ele>
        <time>2019-11-29T11:30:00.000Z</time>
      </trkpt>
      <trkpt lat="43.31236" lon="5.69554">
        <ele>996</ele>
        <time>2019-11-29T11:30:01.000Z</time>
      </trkpt>
      <trkpt lat="43.31236" lon="5.69554">
        <ele>996</ele>
        <time>2019-11-29T11:30:02.000Z</time>
      </trkpt>
      <trkpt lat="43.31236" lon="5.69554">
        <ele>996</ele>
        <time>2019-11-29T11:30:03.000Z</time>
      </trkpt>
      <trkpt lat="43.31236" lon="5.69554">
        <ele>996</ele>
        <time>2019-11-29T11:30:04.000Z</time>
      </trkpt>
      <trkpt lat="43.31236" lon="5.69554">
        <ele>996</ele>
        <time>2019-11-29T11:30:05.000Z</time>
      </trkpt>
      <trkpt lat="43.31236" lon="5.69554">
        <ele>996</ele>
        <time>2019-11-29T11:30:06.000Z</time>
      </trkpt>
      <trkpt lat="43.31236" lon="5.69554">
        <ele>996</ele>
        <time>2019-11-29T11:30:07.000Z</time>
      </trkpt>
      <trkpt lat="43.31236" lon="5.69554">
        <ele>996</ele>
        <time>2019-11-29T11:30:08.000Z</time>
      </trkpt>
      <trkpt lat="43.31236" lon="5.69554">
        <ele>996</ele>
        <time>2019-11-29T11:30:09.000Z</time>
      </trkpt>
      <trkpt lat="43.31236" lon="5.69554">
        <ele>996</ele>
        <time>2019-11-29T11:30:10.000Z</time>
      </trkpt>
      <trkpt lat="43.31236" lon="5.69554">
        <ele>996</ele>
        <time>2019-11-29T11:30:11.000Z</time>
      </trkpt>
      <trkpt lat="43.31236" lon="5.69554">
        <ele>996</ele>
        <time>2019-11-29T11:30:12.000Z</time>
      </trkpt>
      <trkpt lat="43.31236" lon="5.69554">
        <ele>996</ele>
        <time>2019-11-29T11:30:13.000Z</time>
      </trkpt>
      <trkpt lat="43.31236" lon="5.69554">
        <ele>996</ele>
        <time>2019-11-29T11:30:14.000Z</time>
      </trkpt>
      <trkpt lat="43.31236" lon="5.69554">
        <ele>996</ele>
        <time>2019-11-29T11:30:15.000Z</time>
      </trkpt>
      <trkpt lat="43.31236" lon="5.69554">
        <ele>996</ele>
        <time>2019-11-29T11:30:16.000Z</time>
      </trkpt>
      <trkpt lat="43.31236" lon="5.69554">
        <ele>996</ele>
        <time>2019-11-29T11:30:17.000Z</time>
      </trkpt>
      <trkpt lat="43.31236" lon="5.69554">
        <ele>996</ele>
        <time>2019-11-29T11:30:18.000Z</time>
      </trkpt>
      <trkpt lat="43.31236" lon="5.69554">
        <ele>996</ele>
        <time>2019-11-29T11:30:19.000Z</time>
      </trkpt>
      <trkpt lat="43.31236" lon="5.69554">
        <ele>996</ele>
        <time>2019-11-29T11:30:20.000Z</time>
      </trkpt>
      <trkpt lat="43.31236" lon="5.69554">
        <ele>996</ele>
        <time>2019-11-29T11:30:21.000Z</time>
      </trkpt>
      <trkpt lat="43.31236" lon="5.69554">
        <ele>996</ele>
        <time>2019-11-29T11:30:22.000Z</time>
      </trkpt>
      <trkpt lat="43.31236" lon="5.69554">
        <ele>996</ele>
        <time>2019-11-29T11:30:23.000Z</time>
      </trkpt>
      <trkpt lat="43.31236" lon="5.69554">
        <ele>996</ele>
        <time>2019-11-29T11:30:24.000Z</time>
      </trkpt>
      <trkpt lat="43.31236" lon="5.69554">
        <ele>996</ele>
        <time>2019-11-29T11:30:25.000Z</time>
      </trkpt>
      <trkpt lat="43.31236" lon="5.69554">
        <ele>996</ele>
        <time>2019-11-29T11:30:26.000Z</time>
      </trkpt>
      <trkpt lat="43.31236" lon="5.69554">
        <ele>996</ele>
        <time>2019-11-29T11:30:27.000Z</time>
      </trkpt>
      <trkpt lat="43.31236" lon="5.69554">
        <ele>996</ele>
        <time>2019-11-29T11:30:28.000Z</time>
      </trkpt>
      <trkpt lat="43.31236" lon="5.69554">
        <ele>996</ele>
        <time>2019-11-29T11:30:29.000Z</time>
      </trkpt>
      <trkpt lat="43.31236" lon="5.69554">
        <ele>996</ele>
        <time>2019-11-29T11:30:30.000Z</time>
      </trkpt>
      <trkpt lat="43.31236" lon="5.69554">
        <ele>996</ele>
        <time>2019-11-29T11:30:31.000Z</time>
      </trkpt>
      <trkpt lat="43.31236" lon="5.69555">
        <ele>996</ele>
        <time>2019-11-29T11:30:32.000Z</time>
      </trkpt>
      <trkpt lat="43.31236" lon="5.69555">
        <ele>996</ele>
        <time>2019-11-29T11:30:33.000Z</time>
      </trkpt>
      <trkpt lat="43.31236" lon="5.69555">
        <ele>996</ele>
        <time>2019-11-29T11:30:34.000Z</time>
      </trkpt>
      <trkpt lat="43.31236" lon="5.69555">
        <ele>996</ele>
        <time>2019-11-29T11:30:35.000Z</time>
      </trkpt>
      <trkpt lat="43.31236" lon="5.69555">
        <ele>996</ele>
        <time>2019-11-29T11:30:36.000Z</time>
      </trkpt>
      <trkpt lat="43.31236" lon="5.69555">
        <ele>996</ele>
        <time>2019-11-29T11:30:37.000Z</time>
      </trkpt>
      <trkpt lat="43.31236" lon="5.69555">
        <ele>996</ele>
        <time>2019-11-29T11:30:38.000Z</time>
      </trkpt>
      <trkpt lat="43.31236" lon="5.69555">
        <ele>996</ele>
        <time>2019-11-29T11:30:39.000Z</time>
      </trkpt>
      <trkpt lat="43.31236" lon="5.69555">
        <ele>996</ele>
        <time>2019-11-29T11:30:40.000Z</time>
      </trkpt>
      <trkpt lat="43.31236" lon="5.69555">
        <ele>996</ele>
        <time>2019-11-29T11:30:41.000Z</time>
      </trkpt>
      <trkpt lat="43.31236" lon="5.69555">
        <ele>996</ele>
        <time>2019-11-29T11:30:42.000Z</time>
      </trkpt>
      <trkpt lat="43.31236" lon="5.69555">
        <ele>996</ele>
        <time>2019-11-29T11:30:43.000Z</time>
      </trkpt>
      <trkpt lat="43.31236" lon="5.69555">
        <ele>996</ele>
        <time>2019-11-29T11:30:44.000Z</time>
      </trkpt>
      <trkpt lat="43.31236" lon="5.69555">
        <ele>996</ele>
        <time>2019-11-29T11:30:45.000Z</time>
      </trkpt>
      <trkpt lat="43.31236" lon="5.69554">
        <ele>996</ele>
        <time>2019-11-29T11:30:46.000Z</time>
      </trkpt>
      <trkpt lat="43.31236" lon="5.69554">
        <ele>996</ele>
        <time>2019-11-29T11:30:47.000Z</time>
      </trkpt>
      <trkpt lat="43.31236" lon="5.69555">
        <ele>996</ele>
        <time>2019-11-29T11:30:48.000Z</time>
      </trkpt>
      <trkpt lat="43.31236" lon="5.69555">
        <ele>996</ele>
        <time>2019-11-29T11:30:49.000Z</time>
      </trkpt>
      <trkpt lat="43.31236" lon="5.69555">
        <ele>996</ele>
        <time>2019-11-29T11:30:50.000Z</time>
      </trkpt>
      <trkpt lat="43.31236" lon="5.69555">
        <ele>996</ele>
        <time>2019-11-29T11:30:51.000Z</time>
      </trkpt>
      <trkpt lat="43.31236" lon="5.69555">
        <ele>996</ele>
        <time>2019-11-29T11:30:52.000Z</time>
      </trkpt>
      <trkpt lat="43.31236" lon="5.69555">
        <ele>996</ele>
        <time>2019-11-29T11:30:53.000Z</time>
      </trkpt>
      <trkpt lat="43.31236" lon="5.69555">
        <ele>996</ele>
        <time>2019-11-29T11:30:54.000Z</time>
      </trkpt>
      <trkpt lat="43.31236" lon="5.69555">
        <ele>997</ele>
        <time>2019-11-29T11:30:55.000Z</time>
      </trkpt>
      <trkpt lat="43.31236" lon="5.69555">
        <ele>997</ele>
        <time>2019-11-29T11:30:56.000Z</time>
      </trkpt>
      <trkpt lat="43.31236" lon="5.69555">
        <ele>997</ele>
        <time>2019-11-29T11:30:57.000Z</time>
      </trkpt>
      <trkpt lat="43.31236" lon="5.69555">
        <ele>997</ele>
        <time>2019-11-29T11:30:58.000Z</time>
      </trkpt>
      <trkpt lat="43.31236" lon="5.69554">
        <ele>996</ele>
        <time>2019-11-29T11:30:59.000Z</time>
      </trkpt>
      <trkpt lat="43.31236" lon="5.69553">
        <ele>996</ele>
        <time>2019-11-29T11:31:00.000Z</time>
      </trkpt>
      <trkpt lat="43.31235" lon="5.69552">
        <ele>996</ele>
        <time>2019-11-29T11:31:01.000Z</time>
      </trkpt>
      <trkpt lat="43.31235" lon="5.69551">
        <ele>997</ele>
        <time>2019-11-29T11:31:02.000Z</time>
      </trkpt>
      <trkpt lat="43.31236" lon="5.6955">
        <ele>997</ele>
        <time>2019-11-29T11:31:03.000Z</time>
      </trkpt>
      <trkpt lat="43.31235" lon="5.69549">
        <ele>997</ele>
        <time>2019-11-29T11:31:04.000Z</time>
      </trkpt>
      <trkpt lat="43.31235" lon="5.69548">
        <ele>997</ele>
        <time>2019-11-29T11:31:05.000Z</time>
      </trkpt>
      <trkpt lat="43.31235" lon="5.69547">
        <ele>997</ele>
        <time>2019-11-29T11:31:06.000Z</time>
      </trkpt>
      <trkpt lat="43.31235" lon="5.69546">
        <ele>997</ele>
        <time>2019-11-29T11:31:07.000Z</time>
      </trkpt>
      <trkpt lat="43.31235" lon="5.69545">
        <ele>997</ele>
        <time>2019-11-29T11:31:08.000Z</time>
      </trkpt>
      <trkpt lat="43.31234" lon="5.69544">
        <ele>997</ele>
        <time>2019-11-29T11:31:09.000Z</time>
      </trkpt>
      <trkpt lat="43.31234" lon="5.69543">
        <ele>997</ele>
        <time>2019-11-29T11:31:10.000Z</time>
      </trkpt>
      <trkpt lat="43.31234" lon="5.69542">
        <ele>997</ele>
        <time>2019-11-29T11:31:11.000Z</time>
      </trkpt>
      <trkpt lat="43.31234" lon="5.69541">
        <ele>997</ele>
        <time>2019-11-29T11:31:12.000Z</time>
      </trkpt>
      <trkpt lat="43.31234" lon="5.6954">
        <ele>997</ele>
        <time>2019-11-29T11:31:13.000Z</time>
      </trkpt>
      <trkpt lat="43.31234" lon="5.69538">
        <ele>998</ele>
        <time>2019-11-29T11:31:14.000Z</time>
      </trkpt>
      <trkpt lat="43.31234" lon="5.69537">
        <ele>998</ele>
        <time>2019-11-29T11:31:15.000Z</time>
      </trkpt>
      <trkpt lat="43.31234" lon="5.69536">
        <ele>998</ele>
        <time>2019-11-29T11:31:16.000Z</time>
      </trkpt>
      <trkpt lat="43.31234" lon="5.69534">
        <ele>998</ele>
        <time>2019-11-29T11:31:17.000Z</time>
      </trkpt>
      <trkpt lat="43.31234" lon="5.69533">
        <ele>998</ele>
        <time>2019-11-29T11:31:18.000Z</time>
      </trkpt>
      <trkpt lat="43.31235" lon="5.69532">
        <ele>998</ele>
        <time>2019-11-29T11:31:19.000Z</time>
      </trkpt>
      <trkpt lat="43.31235" lon="5.69531">
        <ele>998</ele>
        <time>2019-11-29T11:31:20.000Z</time>
      </trkpt>
      <trkpt lat="43.31235" lon="5.6953">
        <ele>998</ele>
        <time>2019-11-29T11:31:21.000Z</time>
      </trkpt>
      <trkpt lat="43.31235" lon="5.6953">
        <ele>998</ele>
        <time>2019-11-29T11:31:22.000Z</time>
      </trkpt>
      <trkpt lat="43.31234" lon="5.69528">
        <ele>998</ele>
        <time>2019-11-29T11:31:23.000Z</time>
      </trkpt>
      <trkpt lat="43.31234" lon="5.69527">
        <ele>998</ele>
        <time>2019-11-29T11:31:24.000Z</time>
      </trkpt>
      <trkpt lat="43.31234" lon="5.69526">
        <ele>999</ele>
        <time>2019-11-29T11:31:25.000Z</time>
      </trkpt>
      <trkpt lat="43.31234" lon="5.69525">
        <ele>999</ele>
        <time>2019-11-29T11:31:26.000Z</time>
      </trkpt>
      <trkpt lat="43.31234" lon="5.69524">
        <ele>999</ele>
        <time>2019-11-29T11:31:27.000Z</time>
      </trkpt>
      <trkpt lat="43.31234" lon="5.69523">
        <ele>999</ele>
        <time>2019-11-29T11:31:28.000Z</time>
      </trkpt>
      <trkpt lat="43.31234" lon="5.69523">
        <ele>999</ele>
        <time>2019-11-29T11:31:29.000Z</time>
      </trkpt>
      <trkpt lat="43.31234" lon="5.69521">
        <ele>999</ele>
        <time>2019-11-29T11:31:30.000Z</time>
      </trkpt>
      <trkpt lat="43.31234" lon="5.6952">
        <ele>999</ele>
        <time>2019-11-29T11:31:31.000Z</time>
      </trkpt>
      <trkpt lat="43.31234" lon="5.69519">
        <ele>999</ele>
        <time>2019-11-29T11:31:32.000Z</time>
      </trkpt>
      <trkpt lat="43.31233" lon="5.69518">
        <ele>1000</ele>
        <time>2019-11-29T11:31:33.000Z</time>
      </trkpt>
      <trkpt lat="43.31233" lon="5.69517">
        <ele>1000</ele>
        <time>2019-11-29T11:31:34.000Z</time>
      </trkpt>
      <trkpt lat="43.31233" lon="5.69516">
        <ele>1000</ele>
        <time>2019-11-29T11:31:35.000Z</time>
      </trkpt>
      <trkpt lat="43.31233" lon="5.69515">
        <ele>1000</ele>
        <time>2019-11-29T11:31:36.000Z</time>
      </trkpt>
      <trkpt lat="43.31233" lon="5.69515">
        <ele>1000</ele>
        <time>2019-11-29T11:31:37.000Z</time>
      </trkpt>
      <trkpt lat="43.31233" lon="5.69514">
        <ele>1000</ele>
        <time>2019-11-29T11:31:38.000Z</time>
      </trkpt>
      <trkpt lat="43.31233" lon="5.69513">
        <ele>1000</ele>
        <time>2019-11-29T11:31:39.000Z</time>
      </trkpt>
      <trkpt lat="43.31233" lon="5.69512">
        <ele>1000</ele>
        <time>2019-11-29T11:31:40.000Z</time>
      </trkpt>
      <trkpt lat="43.31233" lon="5.69511">
        <ele>1000</ele>
        <time>2019-11-29T11:31:41.000Z</time>
      </trkpt>
      <trkpt lat="43.31232" lon="5.6951">
        <ele>1001</ele>
        <time>2019-11-29T11:31:42.000Z</time>
      </trkpt>
      <trkpt lat="43.31232" lon="5.69509">
        <ele>1001</ele>
        <time>2019-11-29T11:31:43.000Z</time>
      </trkpt>
      <trkpt lat="43.31232" lon="5.69508">
        <ele>1001</ele>
        <time>2019-11-29T11:31:44.000Z</time>
      </trkpt>
      <trkpt lat="43.31232" lon="5.69507">
        <ele>1001</ele>
        <time>2019-11-29T11:31:45.000Z</time>
      </trkpt>
      <trkpt lat="43.31231" lon="5.69505">
        <ele>1001</ele>
        <time>2019-11-29T11:31:46.000Z</time>
      </trkpt>
      <trkpt lat="43.31231" lon="5.69504">
        <ele>1001</ele>
        <time>2019-11-29T11:31:47.000Z</time>
      </trkpt>
      <trkpt lat="43.31231" lon="5.69503">
        <ele>1001</ele>
        <time>2019-11-29T11:31:48.000Z</time>
      </trkpt>
      <trkpt lat="43.31231" lon="5.69502">
        <ele>1001</ele>
        <time>2019-11-29T11:31:49.000Z</time>
      </trkpt>
      <trkpt lat="43.31231" lon="5.69501">
        <ele>1001</ele>
        <time>2019-11-29T11:31:50.000Z</time>
      </trkpt>
      <trkpt lat="43.31231" lon="5.69499">
        <ele>1001</ele>
        <time>2019-11-29T11:31:51.000Z</time>
      </trkpt>
      <trkpt lat="43.3123" lon="5.69498">
        <ele>1001</ele>
        <time>2019-11-29T11:31:52.000Z</time>
      </trkpt>
      <trkpt lat="43.3123" lon="5.69497">
        <ele>1001</ele>
        <time>2019-11-29T11:31:53.000Z</time>
      </trkpt>
      <trkpt lat="43.3123" lon="5.69496">
        <ele>1002</ele>
        <time>2019-11-29T11:31:54.000Z</time>
      </trkpt>
      <trkpt lat="43.3123" lon="5.69495">
        <ele>1002</ele>
        <time>2019-11-29T11:31:55.000Z</time>
      </trkpt>
      <trkpt lat="43.3123" lon="5.69494">
        <ele>1002</ele>
        <time>2019-11-29T11:31:56.000Z</time>
      </trkpt>
      <trkpt lat="43.3123" lon="5.69493">
        <ele>1002</ele>
        <time>2019-11-29T11:31:57.000Z</time>
      </trkpt>
      <trkpt lat="43.3123" lon="5.69491">
        <ele>1002</ele>
        <time>2019-11-29T11:31:58.000Z</time>
      </trkpt>
      <trkpt lat="43.3123" lon="5.6949">
        <ele>1002</ele>
        <time>2019-11-29T11:31:59.000Z</time>
      </trkpt>
      <trkpt lat="43.3123" lon="5.69489">
        <ele>1002</ele>
        <time>2019-11-29T11:32:00.000Z</time>
      </trkpt>
      <trkpt lat="43.3123" lon="5.69488">
        <ele>1002</ele>
        <time>2019-11-29T11:32:01.000Z</time>
      </trkpt>
      <trkpt lat="43.3123" lon="5.69487">
        <ele>1002</ele>
        <time>2019-11-29T11:32:02.000Z</time>
      </trkpt>
      <trkpt lat="43.3123" lon="5.69486">
        <ele>1002</ele>
        <time>2019-11-29T11:32:03.000Z</time>
      </trkpt>
      <trkpt lat="43.31231" lon="5.69485">
        <ele>1002</ele>
        <time>2019-11-29T11:32:04.000Z</time>
      </trkpt>
      <trkpt lat="43.31231" lon="5.69484">
        <ele>1003</ele>
        <time>2019-11-29T11:32:05.000Z</time>
      </trkpt>
      <trkpt lat="43.31231" lon="5.69483">
        <ele>1003</ele>
        <time>2019-11-29T11:32:06.000Z</time>
      </trkpt>
      <trkpt lat="43.31231" lon="5.69481">
        <ele>1003</ele>
        <time>2019-11-29T11:32:07.000Z</time>
      </trkpt>
      <trkpt lat="43.31231" lon="5.6948">
        <ele>1003</ele>
        <time>2019-11-29T11:32:08.000Z</time>
      </trkpt>
      <trkpt lat="43.31232" lon="5.69479">
        <ele>1003</ele>
        <time>2019-11-29T11:32:09.000Z</time>
      </trkpt>
      <trkpt lat="43.31232" lon="5.69478">
        <ele>1003</ele>
        <time>2019-11-29T11:32:10.000Z</time>
      </trkpt>
      <trkpt lat="43.31232" lon="5.69477">
        <ele>1003</ele>
        <time>2019-11-29T11:32:11.000Z</time>
      </trkpt>
      <trkpt lat="43.31232" lon="5.69476">
        <ele>1004</ele>
        <time>2019-11-29T11:32:12.000Z</time>
      </trkpt>
      <trkpt lat="43.31232" lon="5.69475">
        <ele>1004</ele>
        <time>2019-11-29T11:32:13.000Z</time>
      </trkpt>
      <trkpt lat="43.31232" lon="5.69474">
        <ele>1004</ele>
        <time>2019-11-29T11:32:14.000Z</time>
      </trkpt>
      <trkpt lat="43.31232" lon="5.69473">
        <ele>1004</ele>
        <time>2019-11-29T11:32:15.000Z</time>
      </trkpt>
      <trkpt lat="43.31232" lon="5.69472">
        <ele>1004</ele>
        <time>2019-11-29T11:32:16.000Z</time>
      </trkpt>
      <trkpt lat="43.31231" lon="5.69471">
        <ele>1004</ele>
        <time>2019-11-29T11:32:17.000Z</time>
      </trkpt>
      <trkpt lat="43.31231" lon="5.6947">
        <ele>1004</ele>
        <time>2019-11-29T11:32:18.000Z</time>
      </trkpt>
      <trkpt lat="43.31231" lon="5.69468">
        <ele>1004</ele>
        <time>2019-11-29T11:32:19.000Z</time>
      </trkpt>
      <trkpt lat="43.31231" lon="5.69467">
        <ele>1004</ele>
        <time>2019-11-29T11:32:20.000Z</time>
      </trkpt>
      <trkpt lat="43.31231" lon="5.69466">
        <ele>1005</ele>
        <time>2019-11-29T11:32:21.000Z</time>
      </trkpt>
      <trkpt lat="43.31231" lon="5.69465">
        <ele>1005</ele>
        <time>2019-11-29T11:32:22.000Z</time>
      </trkpt>
      <trkpt lat="43.31231" lon="5.69464">
        <ele>1005</ele>
        <time>2019-11-29T11:32:23.000Z</time>
      </trkpt>
      <trkpt lat="43.31231" lon="5.69463">
        <ele>1004</ele>
        <time>2019-11-29T11:32:24.000Z</time>
      </trkpt>
      <trkpt lat="43.31231" lon="5.69462">
        <ele>1004</ele>
        <time>2019-11-29T11:32:25.000Z</time>
      </trkpt>
      <trkpt lat="43.31231" lon="5.69461">
        <ele>1004</ele>
        <time>2019-11-29T11:32:26.000Z</time>
      </trkpt>
      <trkpt lat="43.31231" lon="5.6946">
        <ele>1004</ele>
        <time>2019-11-29T11:32:27.000Z</time>
      </trkpt>
      <trkpt lat="43.31231" lon="5.69459">
        <ele>1004</ele>
        <time>2019-11-29T11:32:28.000Z</time>
      </trkpt>
      <trkpt lat="43.31231" lon="5.69458">
        <ele>1004</ele>
        <time>2019-11-29T11:32:29.000Z</time>
      </trkpt>
      <trkpt lat="43.31231" lon="5.69457">
        <ele>1005</ele>
        <time>2019-11-29T11:32:30.000Z</time>
      </trkpt>
      <trkpt lat="43.31231" lon="5.69456">
        <ele>1005</ele>
        <time>2019-11-29T11:32:31.000Z</time>
      </trkpt>
      <trkpt lat="43.31232" lon="5.69455">
        <ele>1005</ele>
        <time>2019-11-29T11:32:32.000Z</time>
      </trkpt>
      <trkpt lat="43.31232" lon="5.69455">
        <ele>1005</ele>
        <time>2019-11-29T11:32:33.000Z</time>
      </trkpt>
      <trkpt lat="43.31232" lon="5.69454">
        <ele>1005</ele>
        <time>2019-11-29T11:32:34.000Z</time>
      </trkpt>
      <trkpt lat="43.31232" lon="5.69454">
        <ele>1005</ele>
        <time>2019-11-29T11:32:35.000Z</time>
      </trkpt>
      <trkpt lat="43.31232" lon="5.69453">
        <ele>1005</ele>
        <time>2019-11-29T11:32:36.000Z</time>
      </trkpt>
      <trkpt lat="43.31232" lon="5.69452">
        <ele>1005</ele>
        <time>2019-11-29T11:32:37.000Z</time>
      </trkpt>
      <trkpt lat="43.31232" lon="5.6945">
        <ele>1005</ele>
        <time>2019-11-29T11:32:38.000Z</time>
      </trkpt>
      <trkpt lat="43.31232" lon="5.69449">
        <ele>1005</ele>
        <time>2019-11-29T11:32:39.000Z</time>
      </trkpt>
      <trkpt lat="43.31232" lon="5.69448">
        <ele>1005</ele>
        <time>2019-11-29T11:32:40.000Z</time>
      </trkpt>
      <trkpt lat="43.31232" lon="5.69448">
        <ele>1005</ele>
        <time>2019-11-29T11:32:41.000Z</time>
      </trkpt>
      <trkpt lat="43.31233" lon="5.69447">
        <ele>1005</ele>
        <time>2019-11-29T11:32:42.000Z</time>
      </trkpt>
      <trkpt lat="43.31233" lon="5.69446">
        <ele>1005</ele>
        <time>2019-11-29T11:32:43.000Z</time>
      </trkpt>
      <trkpt lat="43.31233" lon="5.69445">
        <ele>1005</ele>
        <time>2019-11-29T11:32:44.000Z</time>
      </trkpt>
      <trkpt lat="43.31233" lon="5.69444">
        <ele>1005</ele>
        <time>2019-11-29T11:32:45.000Z</time>
      </trkpt>
      <trkpt lat="43.31233" lon="5.69443">
        <ele>1005</ele>
        <time>2019-11-29T11:32:46.000Z</time>
      </trkpt>
      <trkpt lat="43.31233" lon="5.69442">
        <ele>1005</ele>
        <time>2019-11-29T11:32:47.000Z</time>
      </trkpt>
      <trkpt lat="43.31234" lon="5.69442">
        <ele>1005</ele>
        <time>2019-11-29T11:32:48.000Z</time>
      </trkpt>
      <trkpt lat="43.31234" lon="5.69441">
        <ele>1005</ele>
        <time>2019-11-29T11:32:49.000Z</time>
      </trkpt>
      <trkpt lat="43.31235" lon="5.6944">
        <ele>1005</ele>
        <time>2019-11-29T11:32:50.000Z</time>
      </trkpt>
      <trkpt lat="43.31235" lon="5.69439">
        <ele>1005</ele>
        <time>2019-11-29T11:32:51.000Z</time>
      </trkpt>
      <trkpt lat="43.31236" lon="5.69438">
        <ele>1005</ele>
        <time>2019-11-29T11:32:52.000Z</time>
      </trkpt>
      <trkpt lat="43.31236" lon="5.69437">
        <ele>1005</ele>
        <time>2019-11-29T11:32:53.000Z</time>
      </trkpt>
      <trkpt lat="43.31237" lon="5.69436">
        <ele>1005</ele>
        <time>2019-11-29T11:32:54.000Z</time>
      </trkpt>
      <trkpt lat="43.31238" lon="5.69435">
        <ele>1005</ele>
        <time>2019-11-29T11:32:55.000Z</time>
      </trkpt>
      <trkpt lat="43.31238" lon="5.69435">
        <ele>1005</ele>
        <time>2019-11-29T11:32:56.000Z</time>
      </trkpt>
      <trkpt lat="43.31238" lon="5.69433">
        <ele>1006</ele>
        <time>2019-11-29T11:32:57.000Z</time>
      </trkpt>
      <trkpt lat="43.31238" lon="5.69433">
        <ele>1006</ele>
        <time>2019-11-29T11:32:58.000Z</time>
      </trkpt>
      <trkpt lat="43.31238" lon="5.69432">
        <ele>1006</ele>
        <time>2019-11-29T11:32:59.000Z</time>
      </trkpt>
      <trkpt lat="43.31238" lon="5.69431">
        <ele>1006</ele>
        <time>2019-11-29T11:33:00.000Z</time>
      </trkpt>
      <trkpt lat="43.31239" lon="5.6943">
        <ele>1006</ele>
        <time>2019-11-29T11:33:01.000Z</time>
      </trkpt>
      <trkpt lat="43.31239" lon="5.69429">
        <ele>1006</ele>
        <time>2019-11-29T11:33:02.000Z</time>
      </trkpt>
      <trkpt lat="43.31239" lon="5.69428">
        <ele>1006</ele>
        <time>2019-11-29T11:33:03.000Z</time>
      </trkpt>
      <trkpt lat="43.31239" lon="5.69426">
        <ele>1006</ele>
        <time>2019-11-29T11:33:04.000Z</time>
      </trkpt>
      <trkpt lat="43.31239" lon="5.69424">
        <ele>1006</ele>
        <time>2019-11-29T11:33:05.000Z</time>
      </trkpt>
      <trkpt lat="43.31239" lon="5.69424">
        <ele>1006</ele>
        <time>2019-11-29T11:33:06.000Z</time>
      </trkpt>
      <trkpt lat="43.3124" lon="5.69422">
        <ele>1006</ele>
        <time>2019-11-29T11:33:07.000Z</time>
      </trkpt>
      <trkpt lat="43.3124" lon="5.69422">
        <ele>1006</ele>
        <time>2019-11-29T11:33:08.000Z</time>
      </trkpt>
      <trkpt lat="43.3124" lon="5.6942">
        <ele>1007</ele>
        <time>2019-11-29T11:33:09.000Z</time>
      </trkpt>
      <trkpt lat="43.3124" lon="5.69419">
        <ele>1007</ele>
        <time>2019-11-29T11:33:10.000Z</time>
      </trkpt>
      <trkpt lat="43.3124" lon="5.69418">
        <ele>1007</ele>
        <time>2019-11-29T11:33:11.000Z</time>
      </trkpt>
      <trkpt lat="43.3124" lon="5.69417">
        <ele>1007</ele>
        <time>2019-11-29T11:33:12.000Z</time>
      </trkpt>
      <trkpt lat="43.3124" lon="5.69416">
        <ele>1007</ele>
        <time>2019-11-29T11:33:13.000Z</time>
      </trkpt>
      <trkpt lat="43.31241" lon="5.69415">
        <ele>1006</ele>
        <time>2019-11-29T11:33:14.000Z</time>
      </trkpt>
      <trkpt lat="43.31241" lon="5.69414">
        <ele>1006</ele>
        <time>2019-11-29T11:33:15.000Z</time>
      </trkpt>
      <trkpt lat="43.31241" lon="5.69414">
        <ele>1006</ele>
        <time>2019-11-29T11:33:16.000Z</time>
      </trkpt>
      <trkpt lat="43.31241" lon="5.69413">
        <ele>1006</ele>
        <time>2019-11-29T11:33:17.000Z</time>
      </trkpt>
      <trkpt lat="43.31241" lon="5.69412">
        <ele>1007</ele>
        <time>2019-11-29T11:33:18.000Z</time>
      </trkpt>
      <trkpt lat="43.31241" lon="5.69412">
        <ele>1007</ele>
        <time>2019-11-29T11:33:19.000Z</time>
      </trkpt>
      <trkpt lat="43.31241" lon="5.69411">
        <ele>1007</ele>
        <time>2019-11-29T11:33:20.000Z</time>
      </trkpt>
      <trkpt lat="43.3124" lon="5.6941">
        <ele>1007</ele>
        <time>2019-11-29T11:33:21.000Z</time>
      </trkpt>
      <trkpt lat="43.31241" lon="5.69409">
        <ele>1007</ele>
        <time>2019-11-29T11:33:22.000Z</time>
      </trkpt>
      <trkpt lat="43.31241" lon="5.69408">
        <ele>1007</ele>
        <time>2019-11-29T11:33:23.000Z</time>
      </trkpt>
      <trkpt lat="43.31241" lon="5.69407">
        <ele>1007</ele>
        <time>2019-11-29T11:33:24.000Z</time>
      </trkpt>
      <trkpt lat="43.31241" lon="5.69406">
        <ele>1006</ele>
        <time>2019-11-29T11:33:25.000Z</time>
      </trkpt>
      <trkpt lat="43.31241" lon="5.69405">
        <ele>1006</ele>
        <time>2019-11-29T11:33:26.000Z</time>
      </trkpt>
      <trkpt lat="43.31241" lon="5.69404">
        <ele>1006</ele>
        <time>2019-11-29T11:33:27.000Z</time>
      </trkpt>
      <trkpt lat="43.31241" lon="5.69403">
        <ele>1006</ele>
        <time>2019-11-29T11:33:28.000Z</time>
      </trkpt>
      <trkpt lat="43.31242" lon="5.69403">
        <ele>1006</ele>
        <time>2019-11-29T11:33:29.000Z</time>
      </trkpt>
      <trkpt lat="43.31242" lon="5.69403">
        <ele>1007</ele>
        <time>2019-11-29T11:33:30.000Z</time>
      </trkpt>
      <trkpt lat="43.31243" lon="5.69403">
        <ele>1007</ele>
        <time>2019-11-29T11:33:31.000Z</time>
      </trkpt>
      <trkpt lat="43.31243" lon="5.69402">
        <ele>1007</ele>
        <time>2019-11-29T11:33:32.000Z</time>
      </trkpt>
      <trkpt lat="43.31244" lon="5.69402">
        <ele>1006</ele>
        <time>2019-11-29T11:33:33.000Z</time>
      </trkpt>
      <trkpt lat="43.31245" lon="5.69402">
        <ele>1007</ele>
        <time>2019-11-29T11:33:34.000Z</time>
      </trkpt>
      <trkpt lat="43.31245" lon="5.69402">
        <ele>1007</ele>
        <time>2019-11-29T11:33:35.000Z</time>
      </trkpt>
      <trkpt lat="43.31246" lon="5.69402">
        <ele>1007</ele>
        <time>2019-11-29T11:33:36.000Z</time>
      </trkpt>
      <trkpt lat="43.31247" lon="5.69401">
        <ele>1007</ele>
        <time>2019-11-29T11:33:37.000Z</time>
      </trkpt>
      <trkpt lat="43.31247" lon="5.694">
        <ele>1007</ele>
        <time>2019-11-29T11:33:38.000Z</time>
      </trkpt>
      <trkpt lat="43.31247" lon="5.694">
        <ele>1007</ele>
        <time>2019-11-29T11:33:39.000Z</time>
      </trkpt>
      <trkpt lat="43.31247" lon="5.694">
        <ele>1007</ele>
        <time>2019-11-29T11:33:40.000Z</time>
      </trkpt>
      <trkpt lat="43.31248" lon="5.69399">
        <ele>1007</ele>
        <time>2019-11-29T11:33:41.000Z</time>
      </trkpt>
      <trkpt lat="43.31248" lon="5.69398">
        <ele>1007</ele>
        <time>2019-11-29T11:33:42.000Z</time>
      </trkpt>
      <trkpt lat="43.31249" lon="5.69397">
        <ele>1007</ele>
        <time>2019-11-29T11:33:43.000Z</time>
      </trkpt>
      <trkpt lat="43.31249" lon="5.69396">
        <ele>1007</ele>
        <time>2019-11-29T11:33:44.000Z</time>
      </trkpt>
      <trkpt lat="43.3125" lon="5.69395">
        <ele>1007</ele>
        <time>2019-11-29T11:33:45.000Z</time>
      </trkpt>
      <trkpt lat="43.3125" lon="5.69394">
        <ele>1007</ele>
        <time>2019-11-29T11:33:46.000Z</time>
      </trkpt>
      <trkpt lat="43.31251" lon="5.69393">
        <ele>1007</ele>
        <time>2019-11-29T11:33:47.000Z</time>
      </trkpt>
      <trkpt lat="43.31251" lon="5.69392">
        <ele>1007</ele>
        <time>2019-11-29T11:33:48.000Z</time>
      </trkpt>
      <trkpt lat="43.31251" lon="5.69392">
        <ele>1007</ele>
        <time>2019-11-29T11:33:49.000Z</time>
      </trkpt>
      <trkpt lat="43.31252" lon="5.69391">
        <ele>1007</ele>
        <time>2019-11-29T11:33:50.000Z</time>
      </trkpt>
      <trkpt lat="43.31252" lon="5.6939">
        <ele>1007</ele>
        <time>2019-11-29T11:33:51.000Z</time>
      </trkpt>
      <trkpt lat="43.31252" lon="5.69389">
        <ele>1007</ele>
        <time>2019-11-29T11:33:52.000Z</time>
      </trkpt>
      <trkpt lat="43.31253" lon="5.69388">
        <ele>1007</ele>
        <time>2019-11-29T11:33:53.000Z</time>
      </trkpt>
      <trkpt lat="43.31253" lon="5.69387">
        <ele>1007</ele>
        <time>2019-11-29T11:33:54.000Z</time>
      </trkpt>
      <trkpt lat="43.31253" lon="5.69386">
        <ele>1007</ele>
        <time>2019-11-29T11:33:55.000Z</time>
      </trkpt>
      <trkpt lat="43.31253" lon="5.69385">
        <ele>1007</ele>
        <time>2019-11-29T11:33:56.000Z</time>
      </trkpt>
      <trkpt lat="43.31253" lon="5.69384">
        <ele>1007</ele>
        <time>2019-11-29T11:33:57.000Z</time>
      </trkpt>
      <trkpt lat="43.31252" lon="5.69383">
        <ele>1007</ele>
        <time>2019-11-29T11:33:58.000Z</time>
      </trkpt>
      <trkpt lat="43.31252" lon="5.69382">
        <ele>1007</ele>
        <time>2019-11-29T11:33:59.000Z</time>
      </trkpt>
      <trkpt lat="43.31253" lon="5.6938">
        <ele>1007</ele>
        <time>2019-11-29T11:34:00.000Z</time>
      </trkpt>
      <trkpt lat="43.31254" lon="5.69379">
        <ele>1007</ele>
        <time>2019-11-29T11:34:01.000Z</time>
      </trkpt>
      <trkpt lat="43.31254" lon="5.69379">
        <ele>1007</ele>
        <time>2019-11-29T11:34:02.000Z</time>
      </trkpt>
      <trkpt lat="43.31254" lon="5.69378">
        <ele>1007</ele>
        <time>2019-11-29T11:34:03.000Z</time>
      </trkpt>
      <trkpt lat="43.31255" lon="5.69378">
        <ele>1007</ele>
        <time>2019-11-29T11:34:04.000Z</time>
      </trkpt>
      <trkpt lat="43.31255" lon="5.69377">
        <ele>1007</ele>
        <time>2019-11-29T11:34:05.000Z</time>
      </trkpt>
      <trkpt lat="43.31256" lon="5.69376">
        <ele>1007</ele>
        <time>2019-11-29T11:34:06.000Z</time>
      </trkpt>
      <trkpt lat="43.31256" lon="5.69375">
        <ele>1007</ele>
        <time>2019-11-29T11:34:07.000Z</time>
      </trkpt>
      <trkpt lat="43.31257" lon="5.69375">
        <ele>1007</ele>
        <time>2019-11-29T11:34:08.000Z</time>
      </trkpt>
      <trkpt lat="43.31257" lon="5.69374">
        <ele>1007</ele>
        <time>2019-11-29T11:34:09.000Z</time>
      </trkpt>
      <trkpt lat="43.31258" lon="5.69373">
        <ele>1007</ele>
        <time>2019-11-29T11:34:10.000Z</time>
      </trkpt>
      <trkpt lat="43.31258" lon="5.69372">
        <ele>1007</ele>
        <time>2019-11-29T11:34:11.000Z</time>
      </trkpt>
      <trkpt lat="43.31259" lon="5.69371">
        <ele>1007</ele>
        <time>2019-11-29T11:34:12.000Z</time>
      </trkpt>
      <trkpt lat="43.3126" lon="5.6937">
        <ele>1007</ele>
        <time>2019-11-29T11:34:13.000Z</time>
      </trkpt>
      <trkpt lat="43.3126" lon="5.69369">
        <ele>1008</ele>
        <time>2019-11-29T11:34:14.000Z</time>
      </trkpt>
      <trkpt lat="43.31261" lon="5.69368">
        <ele>1008</ele>
        <time>2019-11-29T11:34:15.000Z</time>
      </trkpt>
      <trkpt lat="43.31261" lon="5.69367">
        <ele>1008</ele>
        <time>2019-11-29T11:34:16.000Z</time>
      </trkpt>
      <trkpt lat="43.31262" lon="5.69366">
        <ele>1008</ele>
        <time>2019-11-29T11:34:17.000Z</time>
      </trkpt>
      <trkpt lat="43.31262" lon="5.69365">
        <ele>1008</ele>
        <time>2019-11-29T11:34:18.000Z</time>
      </trkpt>
      <trkpt lat="43.31262" lon="5.69364">
        <ele>1008</ele>
        <time>2019-11-29T11:34:19.000Z</time>
      </trkpt>
      <trkpt lat="43.31262" lon="5.69362">
        <ele>1008</ele>
        <time>2019-11-29T11:34:20.000Z</time>
      </trkpt>
      <trkpt lat="43.31262" lon="5.69361">
        <ele>1008</ele>
        <time>2019-11-29T11:34:21.000Z</time>
      </trkpt>
      <trkpt lat="43.31262" lon="5.6936">
        <ele>1008</ele>
        <time>2019-11-29T11:34:22.000Z</time>
      </trkpt>
      <trkpt lat="43.31261" lon="5.69359">
        <ele>1008</ele>
        <time>2019-11-29T11:34:23.000Z</time>
      </trkpt>
      <trkpt lat="43.31261" lon="5.69357">
        <ele>1008</ele>
        <time>2019-11-29T11:34:24.000Z</time>
      </trkpt>
      <trkpt lat="43.31261" lon="5.69356">
        <ele>1008</ele>
        <time>2019-11-29T11:34:25.000Z</time>
      </trkpt>
      <trkpt lat="43.31261" lon="5.69355">
        <ele>1008</ele>
        <time>2019-11-29T11:34:26.000Z</time>
      </trkpt>
      <trkpt lat="43.31261" lon="5.69353">
        <ele>1008</ele>
        <time>2019-11-29T11:34:27.000Z</time>
      </trkpt>
      <trkpt lat="43.31261" lon="5.69352">
        <ele>1008</ele>
        <time>2019-11-29T11:34:28.000Z</time>
      </trkpt>
      <trkpt lat="43.31261" lon="5.6935">
        <ele>1008</ele>
        <time>2019-11-29T11:34:29.000Z</time>
      </trkpt>
      <trkpt lat="43.3126" lon="5.69349">
        <ele>1008</ele>
        <time>2019-11-29T11:34:30.000Z</time>
      </trkpt>
      <trkpt lat="43.3126" lon="5.69348">
        <ele>1008</ele>
        <time>2019-11-29T11:34:31.000Z</time>
      </trkpt>
      <trkpt lat="43.3126" lon="5.69347">
        <ele>1008</ele>
        <time>2019-11-29T11:34:32.000Z</time>
      </trkpt>
      <trkpt lat="43.3126" lon="5.69346">
        <ele>1008</ele>
        <time>2019-11-29T11:34:33.000Z</time>
      </trkpt>
      <trkpt lat="43.31259" lon="5.69344">
        <ele>1008</ele>
        <time>2019-11-29T11:34:34.000Z</time>
      </trkpt>
      <trkpt lat="43.31259" lon="5.69343">
        <ele>1008</ele>
        <time>2019-11-29T11:34:35.000Z</time>
      </trkpt>
      <trkpt lat="43.31259" lon="5.69342">
        <ele>1008</ele>
        <time>2019-11-29T11:34:36.000Z</time>
      </trkpt>
      <trkpt lat="43.31258" lon="5.6934">
        <ele>1008</ele>
        <time>2019-11-29T11:34:37.000Z</time>
      </trkpt>
      <trkpt lat="43.31258" lon="5.69339">
        <ele>1008</ele>
        <time>2019-11-29T11:34:38.000Z</time>
      </trkpt>
      <trkpt lat="43.31258" lon="5.69338">
        <ele>1008</ele>
        <time>2019-11-29T11:34:39.000Z</time>
      </trkpt>
      <trkpt lat="43.31258" lon="5.69336">
        <ele>1008</ele>
        <time>2019-11-29T11:34:40.000Z</time>
      </trkpt>
      <trkpt lat="43.31258" lon="5.69335">
        <ele>1008</ele>
        <time>2019-11-29T11:34:41.000Z</time>
      </trkpt>
      <trkpt lat="43.31257" lon="5.69334">
        <ele>1008</ele>
        <time>2019-11-29T11:34:42.000Z</time>
      </trkpt>
      <trkpt lat="43.31257" lon="5.69332">
        <ele>1008</ele>
        <time>2019-11-29T11:34:43.000Z</time>
      </trkpt>
      <trkpt lat="43.31257" lon="5.69331">
        <ele>1008</ele>
        <time>2019-11-29T11:34:44.000Z</time>
      </trkpt>
      <trkpt lat="43.31257" lon="5.6933">
        <ele>1008</ele>
        <time>2019-11-29T11:34:45.000Z</time>
      </trkpt>
      <trkpt lat="43.31257" lon="5.69329">
        <ele>1008</ele>
        <time>2019-11-29T11:34:46.000Z</time>
      </trkpt>
      <trkpt lat="43.31257" lon="5.69327">
        <ele>1008</ele>
        <time>2019-11-29T11:34:47.000Z</time>
      </trkpt>
      <trkpt lat="43.31257" lon="5.69326">
        <ele>1008</ele>
        <time>2019-11-29T11:34:48.000Z</time>
      </trkpt>
      <trkpt lat="43.31257" lon="5.69325">
        <ele>1008</ele>
        <time>2019-11-29T11:34:49.000Z</time>
      </trkpt>
      <trkpt lat="43.31257" lon="5.69324">
        <ele>1008</ele>
        <time>2019-11-29T11:34:50.000Z</time>
      </trkpt>
      <trkpt lat="43.31256" lon="5.69323">
        <ele>1008</ele>
        <time>2019-11-29T11:34:51.000Z</time>
      </trkpt>
      <trkpt lat="43.31256" lon="5.69322">
        <ele>1008</ele>
        <time>2019-11-29T11:34:52.000Z</time>
      </trkpt>
      <trkpt lat="43.31256" lon="5.6932">
        <ele>1008</ele>
        <time>2019-11-29T11:34:53.000Z</time>
      </trkpt>
      <trkpt lat="43.31256" lon="5.69319">
        <ele>1008</ele>
        <time>2019-11-29T11:34:54.000Z</time>
      </trkpt>
      <trkpt lat="43.31255" lon="5.69318">
        <ele>1008</ele>
        <time>2019-11-29T11:34:55.000Z</time>
      </trkpt>
      <trkpt lat="43.31255" lon="5.69317">
        <ele>1008</ele>
        <time>2019-11-29T11:34:56.000Z</time>
      </trkpt>
      <trkpt lat="43.31255" lon="5.69315">
        <ele>1008</ele>
        <time>2019-11-29T11:34:57.000Z</time>
      </trkpt>
      <trkpt lat="43.31255" lon="5.69314">
        <ele>1008</ele>
        <time>2019-11-29T11:34:58.000Z</time>
      </trkpt>
      <trkpt lat="43.31255" lon="5.69313">
        <ele>1008</ele>
        <time>2019-11-29T11:34:59.000Z</time>
      </trkpt>
      <trkpt lat="43.31254" lon="5.69312">
        <ele>1008</ele>
        <time>2019-11-29T11:35:00.000Z</time>
      </trkpt>
      <trkpt lat="43.31254" lon="5.69311">
        <ele>1008</ele>
        <time>2019-11-29T11:35:01.000Z</time>
      </trkpt>
      <trkpt lat="43.31254" lon="5.6931">
        <ele>1008</ele>
        <time>2019-11-29T11:35:02.000Z</time>
      </trkpt>
      <trkpt lat="43.31254" lon="5.69309">
        <ele>1008</ele>
        <time>2019-11-29T11:35:03.000Z</time>
      </trkpt>
      <trkpt lat="43.31253" lon="5.69308">
        <ele>1008</ele>
        <time>2019-11-29T11:35:04.000Z</time>
      </trkpt>
      <trkpt lat="43.31253" lon="5.69307">
        <ele>1008</ele>
        <time>2019-11-29T11:35:05.000Z</time>
      </trkpt>
      <trkpt lat="43.31253" lon="5.69306">
        <ele>1008</ele>
        <time>2019-11-29T11:35:06.000Z</time>
      </trkpt>
      <trkpt lat="43.31253" lon="5.69305">
        <ele>1008</ele>
        <time>2019-11-29T11:35:07.000Z</time>
      </trkpt>
      <trkpt lat="43.31253" lon="5.69304">
        <ele>1008</ele>
        <time>2019-11-29T11:35:08.000Z</time>
      </trkpt>
      <trkpt lat="43.31253" lon="5.69302">
        <ele>1008</ele>
        <time>2019-11-29T11:35:09.000Z</time>
      </trkpt>
      <trkpt lat="43.31252" lon="5.69301">
        <ele>1008</ele>
        <time>2019-11-29T11:35:10.000Z</time>
      </trkpt>
      <trkpt lat="43.31252" lon="5.693">
        <ele>1008</ele>
        <time>2019-11-29T11:35:11.000Z</time>
      </trkpt>
      <trkpt lat="43.31252" lon="5.69299">
        <ele>1008</ele>
        <time>2019-11-29T11:35:12.000Z</time>
      </trkpt>
      <trkpt lat="43.31252" lon="5.69298">
        <ele>1008</ele>
        <time>2019-11-29T11:35:13.000Z</time>
      </trkpt>
      <trkpt lat="43.31252" lon="5.69297">
        <ele>1008</ele>
        <time>2019-11-29T11:35:14.000Z</time>
      </trkpt>
      <trkpt lat="43.31252" lon="5.69296">
        <ele>1008</ele>
        <time>2019-11-29T11:35:15.000Z</time>
      </trkpt>
      <trkpt lat="43.31251" lon="5.69295">
        <ele>1008</ele>
        <time>2019-11-29T11:35:16.000Z</time>
      </trkpt>
      <trkpt lat="43.31251" lon="5.69294">
        <ele>1008</ele>
        <time>2019-11-29T11:35:17.000Z</time>
      </trkpt>
      <trkpt lat="43.31251" lon="5.69293">
        <ele>1008</ele>
        <time>2019-11-29T11:35:18.000Z</time>
      </trkpt>
      <trkpt lat="43.31251" lon="5.69292">
        <ele>1008</ele>
        <time>2019-11-29T11:35:19.000Z</time>
      </trkpt>
      <trkpt lat="43.31251" lon="5.69292">
        <ele>1008</ele>
        <time>2019-11-29T11:35:20.000Z</time>
      </trkpt>
      <trkpt lat="43.31251" lon="5.69291">
        <ele>1007</ele>
        <time>2019-11-29T11:35:21.000Z</time>
      </trkpt>
      <trkpt lat="43.31251" lon="5.69291">
        <ele>1007</ele>
        <time>2019-11-29T11:35:22.000Z</time>
      </trkpt>
      <trkpt lat="43.31251" lon="5.6929">
        <ele>1007</ele>
        <time>2019-11-29T11:35:23.000Z</time>
      </trkpt>
      <trkpt lat="43.31251" lon="5.6929">
        <ele>1007</ele>
        <time>2019-11-29T11:35:24.000Z</time>
      </trkpt>
      <trkpt lat="43.31251" lon="5.6929">
        <ele>1007</ele>
        <time>2019-11-29T11:35:25.000Z</time>
      </trkpt>
      <trkpt lat="43.3125" lon="5.69291">
        <ele>1007</ele>
        <time>2019-11-29T11:35:26.000Z</time>
      </trkpt>
      <trkpt lat="43.31249" lon="5.6929">
        <ele>1007</ele>
        <time>2019-11-29T11:35:27.000Z</time>
      </trkpt>
      <trkpt lat="43.31249" lon="5.69291">
        <ele>1007</ele>
        <time>2019-11-29T11:35:28.000Z</time>
      </trkpt>
      <trkpt lat="43.31249" lon="5.69291">
        <ele>1007</ele>
        <time>2019-11-29T11:35:29.000Z</time>
      </trkpt>
      <trkpt lat="43.31248" lon="5.69292">
        <ele>1007</ele>
        <time>2019-11-29T11:35:30.000Z</time>
      </trkpt>
      <trkpt lat="43.31248" lon="5.69293">
        <ele>1007</ele>
        <time>2019-11-29T11:35:31.000Z</time>
      </trkpt>
      <trkpt lat="43.31248" lon="5.69293">
        <ele>1007</ele>
        <time>2019-11-29T11:35:32.000Z</time>
      </trkpt>
      <trkpt lat="43.31247" lon="5.69293">
        <ele>1007</ele>
        <time>2019-11-29T11:35:33.000Z</time>
      </trkpt>
      <trkpt lat="43.31247" lon="5.69294">
        <ele>1007</ele>
        <time>2019-11-29T11:35:34.000Z</time>
      </trkpt>
      <trkpt lat="43.31247" lon="5.69294">
        <ele>1007</ele>
        <time>2019-11-29T11:35:35.000Z</time>
      </trkpt>
      <trkpt lat="43.31247" lon="5.69294">
        <ele>1006</ele>
        <time>2019-11-29T11:35:36.000Z</time>
      </trkpt>
      <trkpt lat="43.31247" lon="5.69294">
        <ele>1006</ele>
        <time>2019-11-29T11:35:37.000Z</time>
      </trkpt>
      <trkpt lat="43.31247" lon="5.69294">
        <ele>1006</ele>
        <time>2019-11-29T11:35:38.000Z</time>
      </trkpt>
      <trkpt lat="43.31247" lon="5.69294">
        <ele>1006</ele>
        <time>2019-11-29T11:35:39.000Z</time>
      </trkpt>
      <trkpt lat="43.31247" lon="5.69294">
        <ele>1006</ele>
        <time>2019-11-29T11:35:40.000Z</time>
      </trkpt>
      <trkpt lat="43.3125" lon="5.69289">
        <ele>1004</ele>
        <time>2019-11-29T11:35:41.000Z</time>
      </trkpt>
      <trkpt lat="43.3125" lon="5.69289">
        <ele>1004</ele>
        <time>2019-11-29T11:35:42.000Z</time>
      </trkpt>
      <trkpt lat="43.3125" lon="5.69288">
        <ele>1004</ele>
        <time>2019-11-29T11:35:43.000Z</time>
      </trkpt>
      <trkpt lat="43.31251" lon="5.69288">
        <ele>1004</ele>
        <time>2019-11-29T11:35:44.000Z</time>
      </trkpt>
      <trkpt lat="43.31251" lon="5.69288">
        <ele>1004</ele>
        <time>2019-11-29T11:35:45.000Z</time>
      </trkpt>
      <trkpt lat="43.31252" lon="5.69288">
        <ele>1004</ele>
        <time>2019-11-29T11:35:46.000Z</time>
      </trkpt>
      <trkpt lat="43.31252" lon="5.69289">
        <ele>1004</ele>
        <time>2019-11-29T11:35:47.000Z</time>
      </trkpt>
      <trkpt lat="43.31252" lon="5.6929">
        <ele>1004</ele>
        <time>2019-11-29T11:35:48.000Z</time>
      </trkpt>
      <trkpt lat="43.31253" lon="5.6929">
        <ele>1004</ele>
        <time>2019-11-29T11:35:49.000Z</time>
      </trkpt>
      <trkpt lat="43.31253" lon="5.6929">
        <ele>1004</ele>
        <time>2019-11-29T11:35:50.000Z</time>
      </trkpt>
      <trkpt lat="43.31254" lon="5.69289">
        <ele>1004</ele>
        <time>2019-11-29T11:35:51.000Z</time>
      </trkpt>
      <trkpt lat="43.31254" lon="5.69288">
        <ele>1004</ele>
        <time>2019-11-29T11:35:52.000Z</time>
      </trkpt>
      <trkpt lat="43.31254" lon="5.69286">
        <ele>1004</ele>
        <time>2019-11-29T11:35:53.000Z</time>
      </trkpt>
      <trkpt lat="43.31255" lon="5.69285">
        <ele>1004</ele>
        <time>2019-11-29T11:35:54.000Z</time>
      </trkpt>
      <trkpt lat="43.31256" lon="5.69284">
        <ele>1004</ele>
        <time>2019-11-29T11:35:55.000Z</time>
      </trkpt>
      <trkpt lat="43.31256" lon="5.69283">
        <ele>1005</ele>
        <time>2019-11-29T11:35:56.000Z</time>
      </trkpt>
      <trkpt lat="43.31257" lon="5.69283">
        <ele>1005</ele>
        <time>2019-11-29T11:35:57.000Z</time>
      </trkpt>
      <trkpt lat="43.31258" lon="5.69282">
        <ele>1005</ele>
        <time>2019-11-29T11:35:58.000Z</time>
      </trkpt>
      <trkpt lat="43.31259" lon="5.69281">
        <ele>1005</ele>
        <time>2019-11-29T11:35:59.000Z</time>
      </trkpt>
      <trkpt lat="43.31259" lon="5.69281">
        <ele>1005</ele>
        <time>2019-11-29T11:36:00.000Z</time>
      </trkpt>
      <trkpt lat="43.3126" lon="5.6928">
        <ele>1005</ele>
        <time>2019-11-29T11:36:01.000Z</time>
      </trkpt>
      <trkpt lat="43.3126" lon="5.69279">
        <ele>1005</ele>
        <time>2019-11-29T11:36:02.000Z</time>
      </trkpt>
      <trkpt lat="43.31261" lon="5.69278">
        <ele>1005</ele>
        <time>2019-11-29T11:36:03.000Z</time>
      </trkpt>
      <trkpt lat="43.31261" lon="5.69277">
        <ele>1005</ele>
        <time>2019-11-29T11:36:04.000Z</time>
      </trkpt>
      <trkpt lat="43.31261" lon="5.69276">
        <ele>1006</ele>
        <time>2019-11-29T11:36:05.000Z</time>
      </trkpt>
      <trkpt lat="43.31262" lon="5.69275">
        <ele>1006</ele>
        <time>2019-11-29T11:36:06.000Z</time>
      </trkpt>
      <trkpt lat="43.31262" lon="5.69275">
        <ele>1006</ele>
        <time>2019-11-29T11:36:07.000Z</time>
      </trkpt>
      <trkpt lat="43.31262" lon="5.69274">
        <ele>1006</ele>
        <time>2019-11-29T11:36:08.000Z</time>
      </trkpt>
      <trkpt lat="43.31262" lon="5.69272">
        <ele>1006</ele>
        <time>2019-11-29T11:36:09.000Z</time>
      </trkpt>
      <trkpt lat="43.31262" lon="5.69271">
        <ele>1006</ele>
        <time>2019-11-29T11:36:10.000Z</time>
      </trkpt>
      <trkpt lat="43.31262" lon="5.6927">
        <ele>1006</ele>
        <time>2019-11-29T11:36:11.000Z</time>
      </trkpt>
      <trkpt lat="43.31263" lon="5.69269">
        <ele>1006</ele>
        <time>2019-11-29T11:36:12.000Z</time>
      </trkpt>
      <trkpt lat="43.31263" lon="5.69268">
        <ele>1006</ele>
        <time>2019-11-29T11:36:13.000Z</time>
      </trkpt>
      <trkpt lat="43.31263" lon="5.69267">
        <ele>1006</ele>
        <time>2019-11-29T11:36:14.000Z</time>
      </trkpt>
      <trkpt lat="43.31264" lon="5.69266">
        <ele>1006</ele>
        <time>2019-11-29T11:36:15.000Z</time>
      </trkpt>
      <trkpt lat="43.31264" lon="5.69265">
        <ele>1006</ele>
        <time>2019-11-29T11:36:16.000Z</time>
      </trkpt>
      <trkpt lat="43.31264" lon="5.69264">
        <ele>1006</ele>
        <time>2019-11-29T11:36:17.000Z</time>
      </trkpt>
      <trkpt lat="43.31264" lon="5.69263">
        <ele>1006</ele>
        <time>2019-11-29T11:36:18.000Z</time>
      </trkpt>
      <trkpt lat="43.31264" lon="5.69261">
        <ele>1006</ele>
        <time>2019-11-29T11:36:19.000Z</time>
      </trkpt>
      <trkpt lat="43.31264" lon="5.6926">
        <ele>1006</ele>
        <time>2019-11-29T11:36:20.000Z</time>
      </trkpt>
      <trkpt lat="43.31265" lon="5.69259">
        <ele>1006</ele>
        <time>2019-11-29T11:36:21.000Z</time>
      </trkpt>
      <trkpt lat="43.31266" lon="5.69258">
        <ele>1006</ele>
        <time>2019-11-29T11:36:22.000Z</time>
      </trkpt>
      <trkpt lat="43.31266" lon="5.69258">
        <ele>1006</ele>
        <time>2019-11-29T11:36:23.000Z</time>
      </trkpt>
      <trkpt lat="43.31267" lon="5.69257">
        <ele>1007</ele>
        <time>2019-11-29T11:36:24.000Z</time>
      </trkpt>
      <trkpt lat="43.31268" lon="5.69256">
        <ele>1007</ele>
        <time>2019-11-29T11:36:25.000Z</time>
      </trkpt>
      <trkpt lat="43.31268" lon="5.69256">
        <ele>1007</ele>
        <time>2019-11-29T11:36:26.000Z</time>
      </trkpt>
      <trkpt lat="43.31269" lon="5.69255">
        <ele>1007</ele>
        <time>2019-11-29T11:36:27.000Z</time>
      </trkpt>
      <trkpt lat="43.31269" lon="5.69255">
        <ele>1007</ele>
        <time>2019-11-29T11:36:28.000Z</time>
      </trkpt>
      <trkpt lat="43.3127" lon="5.69254">
        <ele>1007</ele>
        <time>2019-11-29T11:36:29.000Z</time>
      </trkpt>
      <trkpt lat="43.31269" lon="5.69253">
        <ele>1007</ele>
        <time>2019-11-29T11:36:30.000Z</time>
      </trkpt>
      <trkpt lat="43.31269" lon="5.69252">
        <ele>1007</ele>
        <time>2019-11-29T11:36:31.000Z</time>
      </trkpt>
      <trkpt lat="43.31269" lon="5.69251">
        <ele>1007</ele>
        <time>2019-11-29T11:36:32.000Z</time>
      </trkpt>
      <trkpt lat="43.31269" lon="5.6925">
        <ele>1008</ele>
        <time>2019-11-29T11:36:33.000Z</time>
      </trkpt>
      <trkpt lat="43.31269" lon="5.69249">
        <ele>1008</ele>
        <time>2019-11-29T11:36:34.000Z</time>
      </trkpt>
      <trkpt lat="43.3127" lon="5.69249">
        <ele>1008</ele>
        <time>2019-11-29T11:36:35.000Z</time>
      </trkpt>
      <trkpt lat="43.3127" lon="5.69248">
        <ele>1008</ele>
        <time>2019-11-29T11:36:36.000Z</time>
      </trkpt>
      <trkpt lat="43.3127" lon="5.69246">
        <ele>1008</ele>
        <time>2019-11-29T11:36:37.000Z</time>
      </trkpt>
      <trkpt lat="43.31269" lon="5.69245">
        <ele>1008</ele>
        <time>2019-11-29T11:36:38.000Z</time>
      </trkpt>
      <trkpt lat="43.3127" lon="5.69244">
        <ele>1008</ele>
        <time>2019-11-29T11:36:39.000Z</time>
      </trkpt>
      <trkpt lat="43.3127" lon="5.69243">
        <ele>1008</ele>
        <time>2019-11-29T11:36:40.000Z</time>
      </trkpt>
      <trkpt lat="43.3127" lon="5.69243">
        <ele>1008</ele>
        <time>2019-11-29T11:36:41.000Z</time>
      </trkpt>
      <trkpt lat="43.3127" lon="5.69242">
        <ele>1009</ele>
        <time>2019-11-29T11:36:42.000Z</time>
      </trkpt>
      <trkpt lat="43.3127" lon="5.69241">
        <ele>1009</ele>
        <time>2019-11-29T11:36:43.000Z</time>
      </trkpt>
      <trkpt lat="43.3127" lon="5.6924">
        <ele>1009</ele>
        <time>2019-11-29T11:36:44.000Z</time>
      </trkpt>
      <trkpt lat="43.3127" lon="5.69239">
        <ele>1009</ele>
        <time>2019-11-29T11:36:45.000Z</time>
      </trkpt>
      <trkpt lat="43.3127" lon="5.69239">
        <ele>1009</ele>
        <time>2019-11-29T11:36:46.000Z</time>
      </trkpt>
      <trkpt lat="43.31271" lon="5.69238">
        <ele>1009</ele>
        <time>2019-11-29T11:36:47.000Z</time>
      </trkpt>
      <trkpt lat="43.31271" lon="5.69238">
        <ele>1009</ele>
        <time>2019-11-29T11:36:48.000Z</time>
      </trkpt>
      <trkpt lat="43.31271" lon="5.69237">
        <ele>1009</ele>
        <time>2019-11-29T11:36:49.000Z</time>
      </trkpt>
      <trkpt lat="43.31272" lon="5.69237">
        <ele>1009</ele>
        <time>2019-11-29T11:36:50.000Z</time>
      </trkpt>
      <trkpt lat="43.31273" lon="5.69236">
        <ele>1009</ele>
        <time>2019-11-29T11:36:51.000Z</time>
      </trkpt>
      <trkpt lat="43.31273" lon="5.69236">
        <ele>1009</ele>
        <time>2019-11-29T11:36:52.000Z</time>
      </trkpt>
      <trkpt lat="43.31273" lon="5.69236">
        <ele>1009</ele>
        <time>2019-11-29T11:36:53.000Z</time>
      </trkpt>
      <trkpt lat="43.31273" lon="5.69235">
        <ele>1009</ele>
        <time>2019-11-29T11:36:54.000Z</time>
      </trkpt>
      <trkpt lat="43.31273" lon="5.69235">
        <ele>1010</ele>
        <time>2019-11-29T11:36:55.000Z</time>
      </trkpt>
      <trkpt lat="43.31273" lon="5.69234">
        <ele>1010</ele>
        <time>2019-11-29T11:36:56.000Z</time>
      </trkpt>
      <trkpt lat="43.31273" lon="5.69234">
        <ele>1010</ele>
        <time>2019-11-29T11:36:57.000Z</time>
      </trkpt>
      <trkpt lat="43.31274" lon="5.69234">
        <ele>1010</ele>
        <time>2019-11-29T11:36:58.000Z</time>
      </trkpt>
      <trkpt lat="43.31274" lon="5.69233">
        <ele>1010</ele>
        <time>2019-11-29T11:36:59.000Z</time>
      </trkpt>
      <trkpt lat="43.31274" lon="5.69233">
        <ele>1010</ele>
        <time>2019-11-29T11:37:00.000Z</time>
      </trkpt>
      <trkpt lat="43.31274" lon="5.69232">
        <ele>1010</ele>
        <time>2019-11-29T11:37:01.000Z</time>
      </trkpt>
      <trkpt lat="43.31274" lon="5.69231">
        <ele>1010</ele>
        <time>2019-11-29T11:37:02.000Z</time>
      </trkpt>
      <trkpt lat="43.31274" lon="5.6923">
        <ele>1011</ele>
        <time>2019-11-29T11:37:03.000Z</time>
      </trkpt>
      <trkpt lat="43.31274" lon="5.69229">
        <ele>1011</ele>
        <time>2019-11-29T11:37:04.000Z</time>
      </trkpt>
      <trkpt lat="43.31274" lon="5.69228">
        <ele>1011</ele>
        <time>2019-11-29T11:37:05.000Z</time>
      </trkpt>
      <trkpt lat="43.31275" lon="5.69227">
        <ele>1011</ele>
        <time>2019-11-29T11:37:06.000Z</time>
      </trkpt>
      <trkpt lat="43.31275" lon="5.69227">
        <ele>1011</ele>
        <time>2019-11-29T11:37:07.000Z</time>
      </trkpt>
      <trkpt lat="43.31275" lon="5.69226">
        <ele>1011</ele>
        <time>2019-11-29T11:37:08.000Z</time>
      </trkpt>
      <trkpt lat="43.31276" lon="5.69226">
        <ele>1012</ele>
        <time>2019-11-29T11:37:09.000Z</time>
      </trkpt>
      <trkpt lat="43.31276" lon="5.69226">
        <ele>1012</ele>
        <time>2019-11-29T11:37:10.000Z</time>
      </trkpt>
      <trkpt lat="43.31276" lon="5.69225">
        <ele>1012</ele>
        <time>2019-11-29T11:37:11.000Z</time>
      </trkpt>
      <trkpt lat="43.31276" lon="5.69225">
        <ele>1012</ele>
        <time>2019-11-29T11:37:12.000Z</time>
      </trkpt>
      <trkpt lat="43.31276" lon="5.69224">
        <ele>1012</ele>
        <time>2019-11-29T11:37:13.000Z</time>
      </trkpt>
      <trkpt lat="43.31276" lon="5.69223">
        <ele>1013</ele>
        <time>2019-11-29T11:37:14.000Z</time>
      </trkpt>
      <trkpt lat="43.31276" lon="5.69223">
        <ele>1013</ele>
        <time>2019-11-29T11:37:15.000Z</time>
      </trkpt>
      <trkpt lat="43.31277" lon="5.69222">
        <ele>1013</ele>
        <time>2019-11-29T11:37:16.000Z</time>
      </trkpt>
      <trkpt lat="43.31277" lon="5.69222">
        <ele>1013</ele>
        <time>2019-11-29T11:37:17.000Z</time>
      </trkpt>
      <trkpt lat="43.31277" lon="5.69222">
        <ele>1013</ele>
        <time>2019-11-29T11:37:18.000Z</time>
      </trkpt>
      <trkpt lat="43.31277" lon="5.69222">
        <ele>1014</ele>
        <time>2019-11-29T11:37:19.000Z</time>
      </trkpt>
      <trkpt lat="43.31278" lon="5.69221">
        <ele>1014</ele>
        <time>2019-11-29T11:37:20.000Z</time>
      </trkpt>
      <trkpt lat="43.31278" lon="5.6922">
        <ele>1014</ele>
        <time>2019-11-29T11:37:21.000Z</time>
      </trkpt>
      <trkpt lat="43.31278" lon="5.6922">
        <ele>1014</ele>
        <time>2019-11-29T11:37:22.000Z</time>
      </trkpt>
      <trkpt lat="43.31278" lon="5.6922">
        <ele>1014</ele>
        <time>2019-11-29T11:37:23.000Z</time>
      </trkpt>
      <trkpt lat="43.31278" lon="5.6922">
        <ele>1014</ele>
        <time>2019-11-29T11:37:24.000Z</time>
      </trkpt>
      <trkpt lat="43.31278" lon="5.6922">
        <ele>1014</ele>
        <time>2019-11-29T11:37:25.000Z</time>
      </trkpt>
      <trkpt lat="43.31278" lon="5.69219">
        <ele>1014</ele>
        <time>2019-11-29T11:37:26.000Z</time>
      </trkpt>
      <trkpt lat="43.31278" lon="5.69219">
        <ele>1014</ele>
        <time>2019-11-29T11:37:27.000Z</time>
      </trkpt>
      <trkpt lat="43.31278" lon="5.69218">
        <ele>1014</ele>
        <time>2019-11-29T11:37:28.000Z</time>
      </trkpt>
      <trkpt lat="43.31279" lon="5.69218">
        <ele>1014</ele>
        <time>2019-11-29T11:37:29.000Z</time>
      </trkpt>
      <trkpt lat="43.31279" lon="5.69218">
        <ele>1015</ele>
        <time>2019-11-29T11:37:30.000Z</time>
      </trkpt>
      <trkpt lat="43.3128" lon="5.69218">
        <ele>1015</ele>
        <time>2019-11-29T11:37:31.000Z</time>
      </trkpt>
      <trkpt lat="43.3128" lon="5.69217">
        <ele>1015</ele>
        <time>2019-11-29T11:37:32.000Z</time>
      </trkpt>
      <trkpt lat="43.3128" lon="5.69217">
        <ele>1015</ele>
        <time>2019-11-29T11:37:33.000Z</time>
      </trkpt>
      <trkpt lat="43.3128" lon="5.69216">
        <ele>1015</ele>
        <time>2019-11-29T11:37:34.000Z</time>
      </trkpt>
      <trkpt lat="43.3128" lon="5.69215">
        <ele>1015</ele>
        <time>2019-11-29T11:37:35.000Z</time>
      </trkpt>
      <trkpt lat="43.3128" lon="5.69214">
        <ele>1015</ele>
        <time>2019-11-29T11:37:36.000Z</time>
      </trkpt>
      <trkpt lat="43.3128" lon="5.69214">
        <ele>1015</ele>
        <time>2019-11-29T11:37:37.000Z</time>
      </trkpt>
      <trkpt lat="43.3128" lon="5.69213">
        <ele>1015</ele>
        <time>2019-11-29T11:37:38.000Z</time>
      </trkpt>
      <trkpt lat="43.3128" lon="5.69213">
        <ele>1015</ele>
        <time>2019-11-29T11:37:39.000Z</time>
      </trkpt>
      <trkpt lat="43.31281" lon="5.69213">
        <ele>1015</ele>
        <time>2019-11-29T11:37:40.000Z</time>
      </trkpt>
      <trkpt lat="43.31281" lon="5.69213">
        <ele>1016</ele>
        <time>2019-11-29T11:37:41.000Z</time>
      </trkpt>
      <trkpt lat="43.31282" lon="5.69213">
        <ele>1016</ele>
        <time>2019-11-29T11:37:42.000Z</time>
      </trkpt>
      <trkpt lat="43.31282" lon="5.69212">
        <ele>1016</ele>
        <time>2019-11-29T11:37:43.000Z</time>
      </trkpt>
      <trkpt lat="43.31283" lon="5.69212">
        <ele>1016</ele>
        <time>2019-11-29T11:37:44.000Z</time>
      </trkpt>
      <trkpt lat="43.31284" lon="5.69212">
        <ele>1016</ele>
        <time>2019-11-29T11:37:45.000Z</time>
      </trkpt>
      <trkpt lat="43.31284" lon="5.69212">
        <ele>1016</ele>
        <time>2019-11-29T11:37:46.000Z</time>
      </trkpt>
      <trkpt lat="43.31285" lon="5.69212">
        <ele>1016</ele>
        <time>2019-11-29T11:37:47.000Z</time>
      </trkpt>
      <trkpt lat="43.31285" lon="5.69212">
        <ele>1017</ele>
        <time>2019-11-29T11:37:48.000Z</time>
      </trkpt>
      <trkpt lat="43.31286" lon="5.69212">
        <ele>1017</ele>
        <time>2019-11-29T11:37:49.000Z</time>
      </trkpt>
      <trkpt lat="43.31286" lon="5.69213">
        <ele>1017</ele>
        <time>2019-11-29T11:37:50.000Z</time>
      </trkpt>
      <trkpt lat="43.31286" lon="5.69214">
        <ele>1017</ele>
        <time>2019-11-29T11:37:51.000Z</time>
      </trkpt>
      <trkpt lat="43.31287" lon="5.69215">
        <ele>1017</ele>
        <time>2019-11-29T11:37:52.000Z</time>
      </trkpt>
      <trkpt lat="43.31287" lon="5.69215">
        <ele>1017</ele>
        <time>2019-11-29T11:37:53.000Z</time>
      </trkpt>
      <trkpt lat="43.31288" lon="5.69215">
        <ele>1017</ele>
        <time>2019-11-29T11:37:54.000Z</time>
      </trkpt>
      <trkpt lat="43.31288" lon="5.69216">
        <ele>1017</ele>
        <time>2019-11-29T11:37:55.000Z</time>
      </trkpt>
      <trkpt lat="43.31289" lon="5.69216">
        <ele>1017</ele>
        <time>2019-11-29T11:37:56.000Z</time>
      </trkpt>
      <trkpt lat="43.31289" lon="5.69217">
        <ele>1017</ele>
        <time>2019-11-29T11:37:57.000Z</time>
      </trkpt>
      <trkpt lat="43.3129" lon="5.69218">
        <ele>1017</ele>
        <time>2019-11-29T11:37:58.000Z</time>
      </trkpt>
      <trkpt lat="43.3129" lon="5.69219">
        <ele>1017</ele>
        <time>2019-11-29T11:37:59.000Z</time>
      </trkpt>
      <trkpt lat="43.31291" lon="5.69219">
        <ele>1017</ele>
        <time>2019-11-29T11:38:00.000Z</time>
      </trkpt>
      <trkpt lat="43.31291" lon="5.69219">
        <ele>1018</ele>
        <time>2019-11-29T11:38:01.000Z</time>
      </trkpt>
      <trkpt lat="43.31292" lon="5.69219">
        <ele>1018</ele>
        <time>2019-11-29T11:38:02.000Z</time>
      </trkpt>
      <trkpt lat="43.31292" lon="5.69219">
        <ele>1018</ele>
        <time>2019-11-29T11:38:03.000Z</time>
      </trkpt>
      <trkpt lat="43.31293" lon="5.69219">
        <ele>1018</ele>
        <time>2019-11-29T11:38:04.000Z</time>
      </trkpt>
      <trkpt lat="43.31293" lon="5.69219">
        <ele>1018</ele>
        <time>2019-11-29T11:38:05.000Z</time>
      </trkpt>
      <trkpt lat="43.31294" lon="5.69219">
        <ele>1018</ele>
        <time>2019-11-29T11:38:06.000Z</time>
      </trkpt>
      <trkpt lat="43.31294" lon="5.6922">
        <ele>1018</ele>
        <time>2019-11-29T11:38:07.000Z</time>
      </trkpt>
      <trkpt lat="43.31295" lon="5.6922">
        <ele>1018</ele>
        <time>2019-11-29T11:38:08.000Z</time>
      </trkpt>
      <trkpt lat="43.31296" lon="5.6922">
        <ele>1018</ele>
        <time>2019-11-29T11:38:09.000Z</time>
      </trkpt>
      <trkpt lat="43.31296" lon="5.6922">
        <ele>1018</ele>
        <time>2019-11-29T11:38:10.000Z</time>
      </trkpt>
      <trkpt lat="43.31297" lon="5.6922">
        <ele>1019</ele>
        <time>2019-11-29T11:38:11.000Z</time>
      </trkpt>
      <trkpt lat="43.31297" lon="5.6922">
        <ele>1019</ele>
        <time>2019-11-29T11:38:12.000Z</time>
      </trkpt>
      <trkpt lat="43.31298" lon="5.6922">
        <ele>1019</ele>
        <time>2019-11-29T11:38:13.000Z</time>
      </trkpt>
      <trkpt lat="43.31298" lon="5.6922">
        <ele>1019</ele>
        <time>2019-11-29T11:38:14.000Z</time>
      </trkpt>
      <trkpt lat="43.31299" lon="5.6922">
        <ele>1019</ele>
        <time>2019-11-29T11:38:15.000Z</time>
      </trkpt>
      <trkpt lat="43.31299" lon="5.69219">
        <ele>1019</ele>
        <time>2019-11-29T11:38:16.000Z</time>
      </trkpt>
      <trkpt lat="43.313" lon="5.69219">
        <ele>1019</ele>
        <time>2019-11-29T11:38:17.000Z</time>
      </trkpt>
      <trkpt lat="43.313" lon="5.69219">
        <ele>1019</ele>
        <time>2019-11-29T11:38:18.000Z</time>
      </trkpt>
      <trkpt lat="43.31301" lon="5.69219">
        <ele>1019</ele>
        <time>2019-11-29T11:38:19.000Z</time>
      </trkpt>
      <trkpt lat="43.31301" lon="5.69219">
        <ele>1019</ele>
        <time>2019-11-29T11:38:20.000Z</time>
      </trkpt>
      <trkpt lat="43.31301" lon="5.69219">
        <ele>1019</ele>
        <time>2019-11-29T11:38:21.000Z</time>
      </trkpt>
      <trkpt lat="43.31302" lon="5.69219">
        <ele>1019</ele>
        <time>2019-11-29T11:38:22.000Z</time>
      </trkpt>
      <trkpt lat="43.31303" lon="5.69219">
        <ele>1019</ele>
        <time>2019-11-29T11:38:23.000Z</time>
      </trkpt>
      <trkpt lat="43.31303" lon="5.69219">
        <ele>1019</ele>
        <time>2019-11-29T11:38:24.000Z</time>
      </trkpt>
      <trkpt lat="43.31304" lon="5.69219">
        <ele>1019</ele>
        <time>2019-11-29T11:38:25.000Z</time>
      </trkpt>
      <trkpt lat="43.31304" lon="5.69219">
        <ele>1019</ele>
        <time>2019-11-29T11:38:26.000Z</time>
      </trkpt>
      <trkpt lat="43.31304" lon="5.69219">
        <ele>1019</ele>
        <time>2019-11-29T11:38:27.000Z</time>
      </trkpt>
      <trkpt lat="43.31305" lon="5.69219">
        <ele>1020</ele>
        <time>2019-11-29T11:38:28.000Z</time>
      </trkpt>
      <trkpt lat="43.31305" lon="5.69219">
        <ele>1020</ele>
        <time>2019-11-29T11:38:29.000Z</time>
      </trkpt>
      <trkpt lat="43.31306" lon="5.69219">
        <ele>1020</ele>
        <time>2019-11-29T11:38:30.000Z</time>
      </trkpt>
      <trkpt lat="43.31306" lon="5.69219">
        <ele>1020</ele>
        <time>2019-11-29T11:38:31.000Z</time>
      </trkpt>
      <trkpt lat="43.31307" lon="5.69219">
        <ele>1020</ele>
        <time>2019-11-29T11:38:32.000Z</time>
      </trkpt>
      <trkpt lat="43.31307" lon="5.69219">
        <ele>1020</ele>
        <time>2019-11-29T11:38:33.000Z</time>
      </trkpt>
      <trkpt lat="43.31307" lon="5.69219">
        <ele>1020</ele>
        <time>2019-11-29T11:38:34.000Z</time>
      </trkpt>
      <trkpt lat="43.31308" lon="5.6922">
        <ele>1020</ele>
        <time>2019-11-29T11:38:35.000Z</time>
      </trkpt>
      <trkpt lat="43.31308" lon="5.69219">
        <ele>1020</ele>
        <time>2019-11-29T11:38:36.000Z</time>
      </trkpt>
      <trkpt lat="43.31308" lon="5.6922">
        <ele>1020</ele>
        <time>2019-11-29T11:38:37.000Z</time>
      </trkpt>
      <trkpt lat="43.31308" lon="5.69221">
        <ele>1020</ele>
        <time>2019-11-29T11:38:38.000Z</time>
      </trkpt>
      <trkpt lat="43.31309" lon="5.69221">
        <ele>1020</ele>
        <time>2019-11-29T11:38:39.000Z</time>
      </trkpt>
      <trkpt lat="43.31309" lon="5.69221">
        <ele>1020</ele>
        <time>2019-11-29T11:38:40.000Z</time>
      </trkpt>
      <trkpt lat="43.3131" lon="5.69221">
        <ele>1020</ele>
        <time>2019-11-29T11:38:41.000Z</time>
      </trkpt>
      <trkpt lat="43.3131" lon="5.69222">
        <ele>1020</ele>
        <time>2019-11-29T11:38:42.000Z</time>
      </trkpt>
      <trkpt lat="43.3131" lon="5.69223">
        <ele>1020</ele>
        <time>2019-11-29T11:38:43.000Z</time>
      </trkpt>
      <trkpt lat="43.3131" lon="5.69224">
        <ele>1020</ele>
        <time>2019-11-29T11:38:44.000Z</time>
      </trkpt>
      <trkpt lat="43.3131" lon="5.69225">
        <ele>1020</ele>
        <time>2019-11-29T11:38:45.000Z</time>
      </trkpt>
      <trkpt lat="43.31311" lon="5.69226">
        <ele>1020</ele>
        <time>2019-11-29T11:38:46.000Z</time>
      </trkpt>
      <trkpt lat="43.31311" lon="5.69226">
        <ele>1020</ele>
        <time>2019-11-29T11:38:47.000Z</time>
      </trkpt>
      <trkpt lat="43.31311" lon="5.69227">
        <ele>1020</ele>
        <time>2019-11-29T11:38:48.000Z</time>
      </trkpt>
      <trkpt lat="43.31311" lon="5.69228">
        <ele>1020</ele>
        <time>2019-11-29T11:38:49.000Z</time>
      </trkpt>
      <trkpt lat="43.31312" lon="5.69229">
        <ele>1020</ele>
        <time>2019-11-29T11:38:50.000Z</time>
      </trkpt>
      <trkpt lat="43.31311" lon="5.69229">
        <ele>1020</ele>
        <time>2019-11-29T11:38:51.000Z</time>
      </trkpt>
      <trkpt lat="43.31311" lon="5.6923">
        <ele>1020</ele>
        <time>2019-11-29T11:38:52.000Z</time>
      </trkpt>
      <trkpt lat="43.31311" lon="5.69231">
        <ele>1020</ele>
        <time>2019-11-29T11:38:53.000Z</time>
      </trkpt>
      <trkpt lat="43.31311" lon="5.69231">
        <ele>1020</ele>
        <time>2019-11-29T11:38:54.000Z</time>
      </trkpt>
      <trkpt lat="43.31311" lon="5.69232">
        <ele>1020</ele>
        <time>2019-11-29T11:38:55.000Z</time>
      </trkpt>
      <trkpt lat="43.31312" lon="5.69233">
        <ele>1020</ele>
        <time>2019-11-29T11:38:56.000Z</time>
      </trkpt>
      <trkpt lat="43.31312" lon="5.69234">
        <ele>1020</ele>
        <time>2019-11-29T11:38:57.000Z</time>
      </trkpt>
      <trkpt lat="43.31312" lon="5.69235">
        <ele>1020</ele>
        <time>2019-11-29T11:38:58.000Z</time>
      </trkpt>
      <trkpt lat="43.31312" lon="5.69236">
        <ele>1020</ele>
        <time>2019-11-29T11:38:59.000Z</time>
      </trkpt>
      <trkpt lat="43.31312" lon="5.69236">
        <ele>1020</ele>
        <time>2019-11-29T11:39:00.000Z</time>
      </trkpt>
      <trkpt lat="43.31312" lon="5.69237">
        <ele>1020</ele>
        <time>2019-11-29T11:39:01.000Z</time>
      </trkpt>
      <trkpt lat="43.31311" lon="5.69237">
        <ele>1020</ele>
        <time>2019-11-29T11:39:02.000Z</time>
      </trkpt>
      <trkpt lat="43.31311" lon="5.69238">
        <ele>1020</ele>
        <time>2019-11-29T11:39:03.000Z</time>
      </trkpt>
      <trkpt lat="43.31311" lon="5.69238">
        <ele>1020</ele>
        <time>2019-11-29T11:39:04.000Z</time>
      </trkpt>
      <trkpt lat="43.3131" lon="5.69239">
        <ele>1020</ele>
        <time>2019-11-29T11:39:05.000Z</time>
      </trkpt>
      <trkpt lat="43.3131" lon="5.6924">
        <ele>1020</ele>
        <time>2019-11-29T11:39:06.000Z</time>
      </trkpt>
      <trkpt lat="43.3131" lon="5.69241">
        <ele>1020</ele>
        <time>2019-11-29T11:39:07.000Z</time>
      </trkpt>
      <trkpt lat="43.3131" lon="5.69241">
        <ele>1020</ele>
        <time>2019-11-29T11:39:08.000Z</time>
      </trkpt>
      <trkpt lat="43.3131" lon="5.69242">
        <ele>1019</ele>
        <time>2019-11-29T11:39:09.000Z</time>
      </trkpt>
      <trkpt lat="43.3131" lon="5.69242">
        <ele>1019</ele>
        <time>2019-11-29T11:39:10.000Z</time>
      </trkpt>
      <trkpt lat="43.3131" lon="5.69243">
        <ele>1019</ele>
        <time>2019-11-29T11:39:11.000Z</time>
      </trkpt>
      <trkpt lat="43.3131" lon="5.69243">
        <ele>1019</ele>
        <time>2019-11-29T11:39:12.000Z</time>
      </trkpt>
      <trkpt lat="43.3131" lon="5.69242">
        <ele>1019</ele>
        <time>2019-11-29T11:39:13.000Z</time>
      </trkpt>
      <trkpt lat="43.3131" lon="5.69243">
        <ele>1020</ele>
        <time>2019-11-29T11:39:14.000Z</time>
      </trkpt>
      <trkpt lat="43.31309" lon="5.69242">
        <ele>1020</ele>
        <time>2019-11-29T11:39:15.000Z</time>
      </trkpt>
      <trkpt lat="43.31309" lon="5.69242">
        <ele>1019</ele>
        <time>2019-11-29T11:39:16.000Z</time>
      </trkpt>
      <trkpt lat="43.31308" lon="5.69242">
        <ele>1019</ele>
        <time>2019-11-29T11:39:17.000Z</time>
      </trkpt>
      <trkpt lat="43.31308" lon="5.69242">
        <ele>1019</ele>
        <time>2019-11-29T11:39:18.000Z</time>
      </trkpt>
      <trkpt lat="43.31308" lon="5.69242">
        <ele>1019</ele>
        <time>2019-11-29T11:39:19.000Z</time>
      </trkpt>
      <trkpt lat="43.31308" lon="5.69242">
        <ele>1019</ele>
        <time>2019-11-29T11:39:20.000Z</time>
      </trkpt>
      <trkpt lat="43.31308" lon="5.69242">
        <ele>1019</ele>
        <time>2019-11-29T11:39:21.000Z</time>
      </trkpt>
      <trkpt lat="43.31308" lon="5.69242">
        <ele>1019</ele>
        <time>2019-11-29T11:39:22.000Z</time>
      </trkpt>
      <trkpt lat="43.31308" lon="5.69242">
        <ele>1019</ele>
        <time>2019-11-29T11:39:23.000Z</time>
      </trkpt>
      <trkpt lat="43.31308" lon="5.69242">
        <ele>1019</ele>
        <time>2019-11-29T11:39:24.000Z</time>
      </trkpt>
      <trkpt lat="43.31308" lon="5.69242">
        <ele>1019</ele>
        <time>2019-11-29T11:39:25.000Z</time>
      </trkpt>
      <trkpt lat="43.31308" lon="5.69242">
        <ele>1019</ele>
        <time>2019-11-29T11:39:26.000Z</time>
      </trkpt>
      <trkpt lat="43.31308" lon="5.69242">
        <ele>1019</ele>
        <time>2019-11-29T11:39:27.000Z</time>
      </trkpt>
      <trkpt lat="43.31308" lon="5.69243">
        <ele>1019</ele>
        <time>2019-11-29T11:39:28.000Z</time>
      </trkpt>
      <trkpt lat="43.31308" lon="5.69243">
        <ele>1018</ele>
        <time>2019-11-29T11:39:29.000Z</time>
      </trkpt>
      <trkpt lat="43.31308" lon="5.69243">
        <ele>1018</ele>
        <time>2019-11-29T11:39:30.000Z</time>
      </trkpt>
      <trkpt lat="43.31307" lon="5.69243">
        <ele>1018</ele>
        <time>2019-11-29T11:39:31.000Z</time>
      </trkpt>
      <trkpt lat="43.31307" lon="5.69243">
        <ele>1018</ele>
        <time>2019-11-29T11:39:32.000Z</time>
      </trkpt>
      <trkpt lat="43.31307" lon="5.69243">
        <ele>1018</ele>
        <time>2019-11-29T11:39:33.000Z</time>
      </trkpt>
      <trkpt lat="43.31307" lon="5.69243">
        <ele>1018</ele>
        <time>2019-11-29T11:39:34.000Z</time>
      </trkpt>
      <trkpt lat="43.31306" lon="5.69242">
        <ele>1019</ele>
        <time>2019-11-29T11:39:35.000Z</time>
      </trkpt>
      <trkpt lat="43.31306" lon="5.69242">
        <ele>1019</ele>
        <time>2019-11-29T11:39:36.000Z</time>
      </trkpt>
      <trkpt lat="43.31306" lon="5.69242">
        <ele>1019</ele>
        <time>2019-11-29T11:39:37.000Z</time>
      </trkpt>
      <trkpt lat="43.31306" lon="5.69242">
        <ele>1019</ele>
        <time>2019-11-29T11:39:38.000Z</time>
      </trkpt>
      <trkpt lat="43.31306" lon="5.69242">
        <ele>1019</ele>
        <time>2019-11-29T11:39:39.000Z</time>
      </trkpt>
      <trkpt lat="43.31306" lon="5.69242">
        <ele>1019</ele>
        <time>2019-11-29T11:39:40.000Z</time>
      </trkpt>
      <trkpt lat="43.31306" lon="5.69242">
        <ele>1019</ele>
        <time>2019-11-29T11:39:41.000Z</time>
      </trkpt>
      <trkpt lat="43.31305" lon="5.69242">
        <ele>1019</ele>
        <time>2019-11-29T11:39:42.000Z</time>
      </trkpt>
      <trkpt lat="43.31306" lon="5.69242">
        <ele>1019</ele>
        <time>2019-11-29T11:39:43.000Z</time>
      </trkpt>
      <trkpt lat="43.31306" lon="5.69242">
        <ele>1019</ele>
        <time>2019-11-29T11:39:44.000Z</time>
      </trkpt>
      <trkpt lat="43.31306" lon="5.69242">
        <ele>1019</ele>
        <time>2019-11-29T11:39:45.000Z</time>
      </trkpt>
      <trkpt lat="43.31306" lon="5.69242">
        <ele>1019</ele>
        <time>2019-11-29T11:39:46.000Z</time>
      </trkpt>
      <trkpt lat="43.31306" lon="5.69242">
        <ele>1019</ele>
        <time>2019-11-29T11:39:47.000Z</time>
      </trkpt>
      <trkpt lat="43.31306" lon="5.69242">
        <ele>1019</ele>
        <time>2019-11-29T11:39:48.000Z</time>
      </trkpt>
      <trkpt lat="43.31305" lon="5.69242">
        <ele>1019</ele>
        <time>2019-11-29T11:39:49.000Z</time>
      </trkpt>
      <trkpt lat="43.31305" lon="5.69242">
        <ele>1019</ele>
        <time>2019-11-29T11:39:50.000Z</time>
      </trkpt>
      <trkpt lat="43.31305" lon="5.69242">
        <ele>1019</ele>
        <time>2019-11-29T11:39:51.000Z</time>
      </trkpt>
      <trkpt lat="43.31305" lon="5.69242">
        <ele>1019</ele>
        <time>2019-11-29T11:39:52.000Z</time>
      </trkpt>
      <trkpt lat="43.31306" lon="5.69242">
        <ele>1019</ele>
        <time>2019-11-29T11:39:53.000Z</time>
      </trkpt>
      <trkpt lat="43.31306" lon="5.69242">
        <ele>1019</ele>
        <time>2019-11-29T11:39:54.000Z</time>
      </trkpt>
      <trkpt lat="43.31306" lon="5.69242">
        <ele>1019</ele>
        <time>2019-11-29T11:39:55.000Z</time>
      </trkpt>
      <trkpt lat="43.31306" lon="5.69242">
        <ele>1019</ele>
        <time>2019-11-29T11:39:56.000Z</time>
      </trkpt>
      <trkpt lat="43.31306" lon="5.69243">
        <ele>1019</ele>
        <time>2019-11-29T11:39:57.000Z</time>
      </trkpt>
      <trkpt lat="43.31306" lon="5.69242">
        <ele>1019</ele>
        <time>2019-11-29T11:39:58.000Z</time>
      </trkpt>
      <trkpt lat="43.31306" lon="5.69242">
        <ele>1019</ele>
        <time>2019-11-29T11:39:59.000Z</time>
      </trkpt>
      <trkpt lat="43.31307" lon="5.69243">
        <ele>1019</ele>
        <time>2019-11-29T11:40:00.000Z</time>
      </trkpt>
      <trkpt lat="43.31307" lon="5.69243">
        <ele>1019</ele>
        <time>2019-11-29T11:40:01.000Z</time>
      </trkpt>
      <trkpt lat="43.31308" lon="5.69244">
        <ele>1019</ele>
        <time>2019-11-29T11:40:02.000Z</time>
      </trkpt>
      <trkpt lat="43.31308" lon="5.69244">
        <ele>1019</ele>
        <time>2019-11-29T11:40:03.000Z</time>
      </trkpt>
      <trkpt lat="43.31308" lon="5.69244">
        <ele>1019</ele>
        <time>2019-11-29T11:40:04.000Z</time>
      </trkpt>
      <trkpt lat="43.31307" lon="5.69244">
        <ele>1019</ele>
        <time>2019-11-29T11:40:05.000Z</time>
      </trkpt>
      <trkpt lat="43.31307" lon="5.69244">
        <ele>1019</ele>
        <time>2019-11-29T11:40:06.000Z</time>
      </trkpt>
      <trkpt lat="43.31307" lon="5.69243">
        <ele>1019</ele>
        <time>2019-11-29T11:40:07.000Z</time>
      </trkpt>
      <trkpt lat="43.31307" lon="5.69243">
        <ele>1019</ele>
        <time>2019-11-29T11:40:08.000Z</time>
      </trkpt>
      <trkpt lat="43.31308" lon="5.69243">
        <ele>1019</ele>
        <time>2019-11-29T11:40:09.000Z</time>
      </trkpt>
      <trkpt lat="43.31307" lon="5.69243">
        <ele>1019</ele>
        <time>2019-11-29T11:40:10.000Z</time>
      </trkpt>
      <trkpt lat="43.31308" lon="5.69243">
        <ele>1019</ele>
        <time>2019-11-29T11:40:11.000Z</time>
      </trkpt>
      <trkpt lat="43.31308" lon="5.69243">
        <ele>1019</ele>
        <time>2019-11-29T11:40:12.000Z</time>
      </trkpt>
      <trkpt lat="43.31307" lon="5.69243">
        <ele>1019</ele>
        <time>2019-11-29T11:40:13.000Z</time>
      </trkpt>
      <trkpt lat="43.31307" lon="5.69243">
        <ele>1019</ele>
        <time>2019-11-29T11:40:14.000Z</time>
      </trkpt>
      <trkpt lat="43.31307" lon="5.69243">
        <ele>1019</ele>
        <time>2019-11-29T11:40:15.000Z</time>
      </trkpt>
      <trkpt lat="43.31307" lon="5.69243">
        <ele>1019</ele>
        <time>2019-11-29T11:40:16.000Z</time>
      </trkpt>
      <trkpt lat="43.31308" lon="5.69242">
        <ele>1020</ele>
        <time>2019-11-29T11:40:17.000Z</time>
      </trkpt>
      <trkpt lat="43.31308" lon="5.69241">
        <ele>1020</ele>
        <time>2019-11-29T11:40:18.000Z</time>
      </trkpt>
      <trkpt lat="43.31307" lon="5.69241">
        <ele>1020</ele>
        <time>2019-11-29T11:40:19.000Z</time>
      </trkpt>
      <trkpt lat="43.31308" lon="5.69241">
        <ele>1020</ele>
        <time>2019-11-29T11:40:20.000Z</time>
      </trkpt>
      <trkpt lat="43.31308" lon="5.69241">
        <ele>1020</ele>
        <time>2019-11-29T11:40:21.000Z</time>
      </trkpt>
      <trkpt lat="43.31308" lon="5.69241">
        <ele>1020</ele>
        <time>2019-11-29T11:40:22.000Z</time>
      </trkpt>
      <trkpt lat="43.31308" lon="5.69241">
        <ele>1020</ele>
        <time>2019-11-29T11:40:23.000Z</time>
      </trkpt>
      <trkpt lat="43.31308" lon="5.69241">
        <ele>1020</ele>
        <time>2019-11-29T11:40:24.000Z</time>
      </trkpt>
      <trkpt lat="43.31308" lon="5.6924">
        <ele>1020</ele>
        <time>2019-11-29T11:40:25.000Z</time>
      </trkpt>
      <trkpt lat="43.31308" lon="5.69239">
        <ele>1020</ele>
        <time>2019-11-29T11:40:26.000Z</time>
      </trkpt>
      <trkpt lat="43.31309" lon="5.69238">
        <ele>1020</ele>
        <time>2019-11-29T11:40:27.000Z</time>
      </trkpt>
      <trkpt lat="43.31309" lon="5.69237">
        <ele>1019</ele>
        <time>2019-11-29T11:40:28.000Z</time>
      </trkpt>
      <trkpt lat="43.3131" lon="5.69236">
        <ele>1019</ele>
        <time>2019-11-29T11:40:29.000Z</time>
      </trkpt>
      <trkpt lat="43.31311" lon="5.69236">
        <ele>1019</ele>
        <time>2019-11-29T11:40:30.000Z</time>
      </trkpt>
      <trkpt lat="43.31312" lon="5.69236">
        <ele>1019</ele>
        <time>2019-11-29T11:40:31.000Z</time>
      </trkpt>
      <trkpt lat="43.31313" lon="5.69236">
        <ele>1019</ele>
        <time>2019-11-29T11:40:32.000Z</time>
      </trkpt>
      <trkpt lat="43.31314" lon="5.69236">
        <ele>1019</ele>
        <time>2019-11-29T11:40:33.000Z</time>
      </trkpt>
      <trkpt lat="43.31315" lon="5.69236">
        <ele>1019</ele>
        <time>2019-11-29T11:40:34.000Z</time>
      </trkpt>
      <trkpt lat="43.31316" lon="5.69236">
        <ele>1019</ele>
        <time>2019-11-29T11:40:35.000Z</time>
      </trkpt>
      <trkpt lat="43.31317" lon="5.69235">
        <ele>1019</ele>
        <time>2019-11-29T11:40:36.000Z</time>
      </trkpt>
      <trkpt lat="43.31318" lon="5.69236">
        <ele>1019</ele>
        <time>2019-11-29T11:40:37.000Z</time>
      </trkpt>
      <trkpt lat="43.31319" lon="5.69237">
        <ele>1019</ele>
        <time>2019-11-29T11:40:38.000Z</time>
      </trkpt>
      <trkpt lat="43.3132" lon="5.69238">
        <ele>1019</ele>
        <time>2019-11-29T11:40:39.000Z</time>
      </trkpt>
      <trkpt lat="43.31321" lon="5.69239">
        <ele>1019</ele>
        <time>2019-11-29T11:40:40.000Z</time>
      </trkpt>
      <trkpt lat="43.31322" lon="5.69239">
        <ele>1019</ele>
        <time>2019-11-29T11:40:41.000Z</time>
      </trkpt>
      <trkpt lat="43.31323" lon="5.6924">
        <ele>1019</ele>
        <time>2019-11-29T11:40:42.000Z</time>
      </trkpt>
      <trkpt lat="43.31324" lon="5.69241">
        <ele>1019</ele>
        <time>2019-11-29T11:40:43.000Z</time>
      </trkpt>
      <trkpt lat="43.31325" lon="5.69241">
        <ele>1019</ele>
        <time>2019-11-29T11:40:44.000Z</time>
      </trkpt>
      <trkpt lat="43.31326" lon="5.69242">
        <ele>1019</ele>
        <time>2019-11-29T11:40:45.000Z</time>
      </trkpt>
      <trkpt lat="43.31327" lon="5.69243">
        <ele>1019</ele>
        <time>2019-11-29T11:40:46.000Z</time>
      </trkpt>
      <trkpt lat="43.31327" lon="5.69243">
        <ele>1019</ele>
        <time>2019-11-29T11:40:47.000Z</time>
      </trkpt>
      <trkpt lat="43.31328" lon="5.69243">
        <ele>1019</ele>
        <time>2019-11-29T11:40:48.000Z</time>
      </trkpt>
      <trkpt lat="43.31328" lon="5.69243">
        <ele>1018</ele>
        <time>2019-11-29T11:40:49.000Z</time>
      </trkpt>
      <trkpt lat="43.31329" lon="5.69243">
        <ele>1018</ele>
        <time>2019-11-29T11:40:50.000Z</time>
      </trkpt>
      <trkpt lat="43.31329" lon="5.69242">
        <ele>1018</ele>
        <time>2019-11-29T11:40:51.000Z</time>
      </trkpt>
      <trkpt lat="43.31329" lon="5.69242">
        <ele>1018</ele>
        <time>2019-11-29T11:40:52.000Z</time>
      </trkpt>
      <trkpt lat="43.31329" lon="5.69242">
        <ele>1018</ele>
        <time>2019-11-29T11:40:53.000Z</time>
      </trkpt>
      <trkpt lat="43.31329" lon="5.69242">
        <ele>1018</ele>
        <time>2019-11-29T11:40:54.000Z</time>
      </trkpt>
      <trkpt lat="43.31329" lon="5.69241">
        <ele>1018</ele>
        <time>2019-11-29T11:40:55.000Z</time>
      </trkpt>
      <trkpt lat="43.31329" lon="5.69241">
        <ele>1018</ele>
        <time>2019-11-29T11:40:56.000Z</time>
      </trkpt>
      <trkpt lat="43.31329" lon="5.6924">
        <ele>1018</ele>
        <time>2019-11-29T11:40:57.000Z</time>
      </trkpt>
      <trkpt lat="43.31329" lon="5.6924">
        <ele>1018</ele>
        <time>2019-11-29T11:40:58.000Z</time>
      </trkpt>
      <trkpt lat="43.31329" lon="5.69239">
        <ele>1018</ele>
        <time>2019-11-29T11:40:59.000Z</time>
      </trkpt>
      <trkpt lat="43.31328" lon="5.69238">
        <ele>1018</ele>
        <time>2019-11-29T11:41:00.000Z</time>
      </trkpt>
      <trkpt lat="43.31328" lon="5.69237">
        <ele>1018</ele>
        <time>2019-11-29T11:41:01.000Z</time>
      </trkpt>
      <trkpt lat="43.31327" lon="5.69237">
        <ele>1018</ele>
        <time>2019-11-29T11:41:02.000Z</time>
      </trkpt>
      <trkpt lat="43.31327" lon="5.69236">
        <ele>1018</ele>
        <time>2019-11-29T11:41:03.000Z</time>
      </trkpt>
      <trkpt lat="43.31326" lon="5.69235">
        <ele>1018</ele>
        <time>2019-11-29T11:41:04.000Z</time>
      </trkpt>
      <trkpt lat="43.31326" lon="5.69235">
        <ele>1018</ele>
        <time>2019-11-29T11:41:05.000Z</time>
      </trkpt>
      <trkpt lat="43.31326" lon="5.69234">
        <ele>1018</ele>
        <time>2019-11-29T11:41:06.000Z</time>
      </trkpt>
      <trkpt lat="43.31326" lon="5.69233">
        <ele>1018</ele>
        <time>2019-11-29T11:41:07.000Z</time>
      </trkpt>
      <trkpt lat="43.31326" lon="5.69233">
        <ele>1018</ele>
        <time>2019-11-29T11:41:08.000Z</time>
      </trkpt>
      <trkpt lat="43.31326" lon="5.69232">
        <ele>1018</ele>
        <time>2019-11-29T11:41:09.000Z</time>
      </trkpt>
      <trkpt lat="43.31326" lon="5.69231">
        <ele>1017</ele>
        <time>2019-11-29T11:41:10.000Z</time>
      </trkpt>
      <trkpt lat="43.31327" lon="5.69231">
        <ele>1017</ele>
        <time>2019-11-29T11:41:11.000Z</time>
      </trkpt>
      <trkpt lat="43.31327" lon="5.6923">
        <ele>1017</ele>
        <time>2019-11-29T11:41:12.000Z</time>
      </trkpt>
      <trkpt lat="43.31327" lon="5.6923">
        <ele>1018</ele>
        <time>2019-11-29T11:41:13.000Z</time>
      </trkpt>
      <trkpt lat="43.31327" lon="5.6923">
        <ele>1018</ele>
        <time>2019-11-29T11:41:14.000Z</time>
      </trkpt>
      <trkpt lat="43.31328" lon="5.69229">
        <ele>1018</ele>
        <time>2019-11-29T11:41:15.000Z</time>
      </trkpt>
      <trkpt lat="43.31328" lon="5.69228">
        <ele>1018</ele>
        <time>2019-11-29T11:41:16.000Z</time>
      </trkpt>
      <trkpt lat="43.31328" lon="5.69228">
        <ele>1017</ele>
        <time>2019-11-29T11:41:17.000Z</time>
      </trkpt>
      <trkpt lat="43.31328" lon="5.69227">
        <ele>1017</ele>
        <time>2019-11-29T11:41:18.000Z</time>
      </trkpt>
      <trkpt lat="43.31328" lon="5.69226">
        <ele>1017</ele>
        <time>2019-11-29T11:41:19.000Z</time>
      </trkpt>
      <trkpt lat="43.31329" lon="5.69225">
        <ele>1017</ele>
        <time>2019-11-29T11:41:20.000Z</time>
      </trkpt>
      <trkpt lat="43.31329" lon="5.69225">
        <ele>1017</ele>
        <time>2019-11-29T11:41:21.000Z</time>
      </trkpt>
      <trkpt lat="43.31329" lon="5.69224">
        <ele>1017</ele>
        <time>2019-11-29T11:41:22.000Z</time>
      </trkpt>
      <trkpt lat="43.31329" lon="5.69224">
        <ele>1017</ele>
        <time>2019-11-29T11:41:23.000Z</time>
      </trkpt>
      <trkpt lat="43.31329" lon="5.69223">
        <ele>1017</ele>
        <time>2019-11-29T11:41:24.000Z</time>
      </trkpt>
      <trkpt lat="43.31329" lon="5.69222">
        <ele>1017</ele>
        <time>2019-11-29T11:41:25.000Z</time>
      </trkpt>
      <trkpt lat="43.3133" lon="5.69222">
        <ele>1017</ele>
        <time>2019-11-29T11:41:26.000Z</time>
      </trkpt>
      <trkpt lat="43.3133" lon="5.69221">
        <ele>1017</ele>
        <time>2019-11-29T11:41:27.000Z</time>
      </trkpt>
      <trkpt lat="43.3133" lon="5.6922">
        <ele>1017</ele>
        <time>2019-11-29T11:41:28.000Z</time>
      </trkpt>
      <trkpt lat="43.31331" lon="5.6922">
        <ele>1017</ele>
        <time>2019-11-29T11:41:29.000Z</time>
      </trkpt>
      <trkpt lat="43.31331" lon="5.69219">
        <ele>1017</ele>
        <time>2019-11-29T11:41:30.000Z</time>
      </trkpt>
      <trkpt lat="43.31332" lon="5.69218">
        <ele>1017</ele>
        <time>2019-11-29T11:41:31.000Z</time>
      </trkpt>
      <trkpt lat="43.31332" lon="5.69218">
        <ele>1017</ele>
        <time>2019-11-29T11:41:32.000Z</time>
      </trkpt>
      <trkpt lat="43.31332" lon="5.69217">
        <ele>1016</ele>
        <time>2019-11-29T11:41:33.000Z</time>
      </trkpt>
      <trkpt lat="43.31332" lon="5.69216">
        <ele>1016</ele>
        <time>2019-11-29T11:41:34.000Z</time>
      </trkpt>
      <trkpt lat="43.31332" lon="5.69215">
        <ele>1016</ele>
        <time>2019-11-29T11:41:35.000Z</time>
      </trkpt>
      <trkpt lat="43.31332" lon="5.69215">
        <ele>1016</ele>
        <time>2019-11-29T11:41:36.000Z</time>
      </trkpt>
      <trkpt lat="43.31331" lon="5.69214">
        <ele>1016</ele>
        <time>2019-11-29T11:41:37.000Z</time>
      </trkpt>
      <trkpt lat="43.31331" lon="5.69213">
        <ele>1016</ele>
        <time>2019-11-29T11:41:38.000Z</time>
      </trkpt>
      <trkpt lat="43.31332" lon="5.69213">
        <ele>1015</ele>
        <time>2019-11-29T11:41:39.000Z</time>
      </trkpt>
      <trkpt lat="43.31332" lon="5.69212">
        <ele>1015</ele>
        <time>2019-11-29T11:41:40.000Z</time>
      </trkpt>
      <trkpt lat="43.31332" lon="5.69212">
        <ele>1015</ele>
        <time>2019-11-29T11:41:41.000Z</time>
      </trkpt>
      <trkpt lat="43.31332" lon="5.69211">
        <ele>1015</ele>
        <time>2019-11-29T11:41:42.000Z</time>
      </trkpt>
      <trkpt lat="43.31333" lon="5.6921">
        <ele>1014</ele>
        <time>2019-11-29T11:41:43.000Z</time>
      </trkpt>
      <trkpt lat="43.31333" lon="5.69211">
        <ele>1014</ele>
        <time>2019-11-29T11:41:44.000Z</time>
      </trkpt>
      <trkpt lat="43.31334" lon="5.69211">
        <ele>1014</ele>
        <time>2019-11-29T11:41:45.000Z</time>
      </trkpt>
      <trkpt lat="43.31334" lon="5.6921">
        <ele>1014</ele>
        <time>2019-11-29T11:41:46.000Z</time>
      </trkpt>
      <trkpt lat="43.31334" lon="5.69209">
        <ele>1014</ele>
        <time>2019-11-29T11:41:47.000Z</time>
      </trkpt>
      <trkpt lat="43.31333" lon="5.69209">
        <ele>1013</ele>
        <time>2019-11-29T11:41:48.000Z</time>
      </trkpt>
      <trkpt lat="43.31333" lon="5.69207">
        <ele>1013</ele>
        <time>2019-11-29T11:41:49.000Z</time>
      </trkpt>
      <trkpt lat="43.31333" lon="5.69206">
        <ele>1013</ele>
        <time>2019-11-29T11:41:50.000Z</time>
      </trkpt>
      <trkpt lat="43.31333" lon="5.69206">
        <ele>1013</ele>
        <time>2019-11-29T11:41:51.000Z</time>
      </trkpt>
      <trkpt lat="43.31333" lon="5.69205">
        <ele>1012</ele>
        <time>2019-11-29T11:41:52.000Z</time>
      </trkpt>
      <trkpt lat="43.31332" lon="5.69204">
        <ele>1012</ele>
        <time>2019-11-29T11:41:53.000Z</time>
      </trkpt>
      <trkpt lat="43.31333" lon="5.69203">
        <ele>1012</ele>
        <time>2019-11-29T11:41:54.000Z</time>
      </trkpt>
      <trkpt lat="43.31333" lon="5.69202">
        <ele>1012</ele>
        <time>2019-11-29T11:41:55.000Z</time>
      </trkpt>
      <trkpt lat="43.31333" lon="5.69201">
        <ele>1011</ele>
        <time>2019-11-29T11:41:56.000Z</time>
      </trkpt>
      <trkpt lat="43.31333" lon="5.69201">
        <ele>1011</ele>
        <time>2019-11-29T11:41:57.000Z</time>
      </trkpt>
      <trkpt lat="43.31333" lon="5.692">
        <ele>1011</ele>
        <time>2019-11-29T11:41:58.000Z</time>
      </trkpt>
      <trkpt lat="43.31333" lon="5.69199">
        <ele>1010</ele>
        <time>2019-11-29T11:41:59.000Z</time>
      </trkpt>
      <trkpt lat="43.31333" lon="5.69199">
        <ele>1010</ele>
        <time>2019-11-29T11:42:00.000Z</time>
      </trkpt>
      <trkpt lat="43.31333" lon="5.69198">
        <ele>1010</ele>
        <time>2019-11-29T11:42:01.000Z</time>
      </trkpt>
      <trkpt lat="43.31333" lon="5.69198">
        <ele>1010</ele>
        <time>2019-11-29T11:42:02.000Z</time>
      </trkpt>
      <trkpt lat="43.31333" lon="5.69197">
        <ele>1009</ele>
        <time>2019-11-29T11:42:03.000Z</time>
      </trkpt>
      <trkpt lat="43.31334" lon="5.69197">
        <ele>1009</ele>
        <time>2019-11-29T11:42:04.000Z</time>
      </trkpt>
      <trkpt lat="43.31334" lon="5.69197">
        <ele>1009</ele>
        <time>2019-11-29T11:42:05.000Z</time>
      </trkpt>
      <trkpt lat="43.31334" lon="5.69197">
        <ele>1008</ele>
        <time>2019-11-29T11:42:06.000Z</time>
      </trkpt>
      <trkpt lat="43.31335" lon="5.69197">
        <ele>1008</ele>
        <time>2019-11-29T11:42:07.000Z</time>
      </trkpt>
      <trkpt lat="43.31335" lon="5.69196">
        <ele>1008</ele>
        <time>2019-11-29T11:42:08.000Z</time>
      </trkpt>
      <trkpt lat="43.31335" lon="5.69195">
        <ele>1008</ele>
        <time>2019-11-29T11:42:09.000Z</time>
      </trkpt>
      <trkpt lat="43.31335" lon="5.69194">
        <ele>1007</ele>
        <time>2019-11-29T11:42:10.000Z</time>
      </trkpt>
      <trkpt lat="43.31334" lon="5.69193">
        <ele>1007</ele>
        <time>2019-11-29T11:42:11.000Z</time>
      </trkpt>
      <trkpt lat="43.31334" lon="5.69192">
        <ele>1007</ele>
        <time>2019-11-29T11:42:12.000Z</time>
      </trkpt>
      <trkpt lat="43.31334" lon="5.69192">
        <ele>1006</ele>
        <time>2019-11-29T11:42:13.000Z</time>
      </trkpt>
      <trkpt lat="43.31334" lon="5.69191">
        <ele>1006</ele>
        <time>2019-11-29T11:42:14.000Z</time>
      </trkpt>
      <trkpt lat="43.31333" lon="5.6919">
        <ele>1006</ele>
        <time>2019-11-29T11:42:15.000Z</time>
      </trkpt>
      <trkpt lat="43.31333" lon="5.6919">
        <ele>1005</ele>
        <time>2019-11-29T11:42:16.000Z</time>
      </trkpt>
      <trkpt lat="43.31333" lon="5.6919">
        <ele>1005</ele>
        <time>2019-11-29T11:42:17.000Z</time>
      </trkpt>
      <trkpt lat="43.31333" lon="5.69189">
        <ele>1005</ele>
        <time>2019-11-29T11:42:18.000Z</time>
      </trkpt>
      <trkpt lat="43.31332" lon="5.69189">
        <ele>1005</ele>
        <time>2019-11-29T11:42:19.000Z</time>
      </trkpt>
      <trkpt lat="43.31332" lon="5.69188">
        <ele>1004</ele>
        <time>2019-11-29T11:42:20.000Z</time>
      </trkpt>
      <trkpt lat="43.31332" lon="5.69188">
        <ele>1004</ele>
        <time>2019-11-29T11:42:21.000Z</time>
      </trkpt>
      <trkpt lat="43.31332" lon="5.69187">
        <ele>1004</ele>
        <time>2019-11-29T11:42:22.000Z</time>
      </trkpt>
      <trkpt lat="43.31332" lon="5.69187">
        <ele>1004</ele>
        <time>2019-11-29T11:42:23.000Z</time>
      </trkpt>
      <trkpt lat="43.31332" lon="5.69186">
        <ele>1003</ele>
        <time>2019-11-29T11:42:24.000Z</time>
      </trkpt>
      <trkpt lat="43.31332" lon="5.69186">
        <ele>1003</ele>
        <time>2019-11-29T11:42:25.000Z</time>
      </trkpt>
      <trkpt lat="43.31332" lon="5.69185">
        <ele>1003</ele>
        <time>2019-11-29T11:42:26.000Z</time>
      </trkpt>
      <trkpt lat="43.31332" lon="5.69184">
        <ele>1002</ele>
        <time>2019-11-29T11:42:27.000Z</time>
      </trkpt>
      <trkpt lat="43.31332" lon="5.69184">
        <ele>1002</ele>
        <time>2019-11-29T11:42:28.000Z</time>
      </trkpt>
      <trkpt lat="43.31332" lon="5.69183">
        <ele>1002</ele>
        <time>2019-11-29T11:42:29.000Z</time>
      </trkpt>
      <trkpt lat="43.31332" lon="5.69183">
        <ele>1002</ele>
        <time>2019-11-29T11:42:30.000Z</time>
      </trkpt>
      <trkpt lat="43.31332" lon="5.69182">
        <ele>1002</ele>
        <time>2019-11-29T11:42:31.000Z</time>
      </trkpt>
      <trkpt lat="43.31332" lon="5.69181">
        <ele>1001</ele>
        <time>2019-11-29T11:42:32.000Z</time>
      </trkpt>
      <trkpt lat="43.31331" lon="5.69181">
        <ele>1001</ele>
        <time>2019-11-29T11:42:33.000Z</time>
      </trkpt>
      <trkpt lat="43.31331" lon="5.69181">
        <ele>1001</ele>
        <time>2019-11-29T11:42:34.000Z</time>
      </trkpt>
      <trkpt lat="43.3133" lon="5.6918">
        <ele>1001</ele>
        <time>2019-11-29T11:42:35.000Z</time>
      </trkpt>
      <trkpt lat="43.3133" lon="5.6918">
        <ele>1000</ele>
        <time>2019-11-29T11:42:36.000Z</time>
      </trkpt>
      <trkpt lat="43.3133" lon="5.69179">
        <ele>1000</ele>
        <time>2019-11-29T11:42:37.000Z</time>
      </trkpt>
      <trkpt lat="43.31329" lon="5.69179">
        <ele>1000</ele>
        <time>2019-11-29T11:42:38.000Z</time>
      </trkpt>
      <trkpt lat="43.31329" lon="5.69179">
        <ele>1000</ele>
        <time>2019-11-29T11:42:39.000Z</time>
      </trkpt>
      <trkpt lat="43.31329" lon="5.69179">
        <ele>1000</ele>
        <time>2019-11-29T11:42:40.000Z</time>
      </trkpt>
      <trkpt lat="43.3133" lon="5.69179">
        <ele>1000</ele>
        <time>2019-11-29T11:42:41.000Z</time>
      </trkpt>
      <trkpt lat="43.31329" lon="5.69178">
        <ele>1000</ele>
        <time>2019-11-29T11:42:42.000Z</time>
      </trkpt>
      <trkpt lat="43.31329" lon="5.69178">
        <ele>1000</ele>
        <time>2019-11-29T11:42:43.000Z</time>
      </trkpt>
      <trkpt lat="43.31329" lon="5.69178">
        <ele>1000</ele>
        <time>2019-11-29T11:42:44.000Z</time>
      </trkpt>
      <trkpt lat="43.31329" lon="5.69178">
        <ele>999</ele>
        <time>2019-11-29T11:42:45.000Z</time>
      </trkpt>
      <trkpt lat="43.3133" lon="5.69178">
        <ele>999</ele>
        <time>2019-11-29T11:42:46.000Z</time>
      </trkpt>
      <trkpt lat="43.3133" lon="5.69178">
        <ele>999</ele>
        <time>2019-11-29T11:42:47.000Z</time>
      </trkpt>
      <trkpt lat="43.3133" lon="5.69177">
        <ele>999</ele>
        <time>2019-11-29T11:42:48.000Z</time>
      </trkpt>
      <trkpt lat="43.3133" lon="5.69177">
        <ele>999</ele>
        <time>2019-11-29T11:42:49.000Z</time>
      </trkpt>
      <trkpt lat="43.3133" lon="5.69177">
        <ele>999</ele>
        <time>2019-11-29T11:42:50.000Z</time>
      </trkpt>
      <trkpt lat="43.3133" lon="5.69176">
        <ele>999</ele>
        <time>2019-11-29T11:42:51.000Z</time>
      </trkpt>
      <trkpt lat="43.3133" lon="5.69176">
        <ele>999</ele>
        <time>2019-11-29T11:42:52.000Z</time>
      </trkpt>
      <trkpt lat="43.3133" lon="5.69176">
        <ele>999</ele>
        <time>2019-11-29T11:42:53.000Z</time>
      </trkpt>
      <trkpt lat="43.3133" lon="5.69176">
        <ele>999</ele>
        <time>2019-11-29T11:42:54.000Z</time>
      </trkpt>
      <trkpt lat="43.3133" lon="5.69175">
        <ele>999</ele>
        <time>2019-11-29T11:42:55.000Z</time>
      </trkpt>
      <trkpt lat="43.3133" lon="5.69175">
        <ele>999</ele>
        <time>2019-11-29T11:42:56.000Z</time>
      </trkpt>
      <trkpt lat="43.3133" lon="5.69175">
        <ele>999</ele>
        <time>2019-11-29T11:42:57.000Z</time>
      </trkpt>
      <trkpt lat="43.3133" lon="5.69175">
        <ele>999</ele>
        <time>2019-11-29T11:42:58.000Z</time>
      </trkpt>
      <trkpt lat="43.3133" lon="5.69175">
        <ele>999</ele>
        <time>2019-11-29T11:42:59.000Z</time>
      </trkpt>
      <trkpt lat="43.3133" lon="5.69174">
        <ele>999</ele>
        <time>2019-11-29T11:43:00.000Z</time>
      </trkpt>
      <trkpt lat="43.3133" lon="5.69174">
        <ele>999</ele>
        <time>2019-11-29T11:43:01.000Z</time>
      </trkpt>
      <trkpt lat="43.3133" lon="5.69174">
        <ele>999</ele>
        <time>2019-11-29T11:43:02.000Z</time>
      </trkpt>
      <trkpt lat="43.3133" lon="5.69173">
        <ele>999</ele>
        <time>2019-11-29T11:43:03.000Z</time>
      </trkpt>
      <trkpt lat="43.3133" lon="5.69173">
        <ele>999</ele>
        <time>2019-11-29T11:43:04.000Z</time>
      </trkpt>
      <trkpt lat="43.3133" lon="5.69173">
        <ele>999</ele>
        <time>2019-11-29T11:43:05.000Z</time>
      </trkpt>
      <trkpt lat="43.3133" lon="5.69173">
        <ele>999</ele>
        <time>2019-11-29T11:43:06.000Z</time>
      </trkpt>
      <trkpt lat="43.3133" lon="5.69173">
        <ele>999</ele>
        <time>2019-11-29T11:43:07.000Z</time>
      </trkpt>
      <trkpt lat="43.3133" lon="5.69173">
        <ele>999</ele>
        <time>2019-11-29T11:43:08.000Z</time>
      </trkpt>
      <trkpt lat="43.3133" lon="5.69173">
        <ele>999</ele>
        <time>2019-11-29T11:43:09.000Z</time>
      </trkpt>
      <trkpt lat="43.3133" lon="5.69173">
        <ele>999</ele>
        <time>2019-11-29T11:43:10.000Z</time>
      </trkpt>
      <trkpt lat="43.3133" lon="5.69173">
        <ele>999</ele>
        <time>2019-11-29T11:43:11.000Z</time>
      </trkpt>
      <trkpt lat="43.3133" lon="5.69173">
        <ele>999</ele>
        <time>2019-11-29T11:43:12.000Z</time>
      </trkpt>
      <trkpt lat="43.3133" lon="5.69172">
        <ele>999</ele>
        <time>2019-11-29T11:43:13.000Z</time>
      </trkpt>
      <trkpt lat="43.3133" lon="5.69172">
        <ele>999</ele>
        <time>2019-11-29T11:43:14.000Z</time>
      </trkpt>
      <trkpt lat="43.3133" lon="5.69172">
        <ele>999</ele>
        <time>2019-11-29T11:43:15.000Z</time>
      </trkpt>
      <trkpt lat="43.3133" lon="5.69172">
        <ele>999</ele>
        <time>2019-11-29T11:43:16.000Z</time>
      </trkpt>
      <trkpt lat="43.31331" lon="5.69172">
        <ele>999</ele>
        <time>2019-11-29T11:43:17.000Z</time>
      </trkpt>
      <trkpt lat="43.31331" lon="5.69172">
        <ele>999</ele>
        <time>2019-11-29T11:43:18.000Z</time>
      </trkpt>
      <trkpt lat="43.31331" lon="5.69171">
        <ele>999</ele>
        <time>2019-11-29T11:43:19.000Z</time>
      </trkpt>
      <trkpt lat="43.31331" lon="5.6917">
        <ele>999</ele>
        <time>2019-11-29T11:43:20.000Z</time>
      </trkpt>
      <trkpt lat="43.31331" lon="5.6917">
        <ele>999</ele>
        <time>2019-11-29T11:43:21.000Z</time>
      </trkpt>
      <trkpt lat="43.31331" lon="5.69169">
        <ele>999</ele>
        <time>2019-11-29T11:43:22.000Z</time>
      </trkpt>
      <trkpt lat="43.31332" lon="5.69169">
        <ele>999</ele>
        <time>2019-11-29T11:43:23.000Z</time>
      </trkpt>
      <trkpt lat="43.31332" lon="5.69169">
        <ele>999</ele>
        <time>2019-11-29T11:43:24.000Z</time>
      </trkpt>
      <trkpt lat="43.31332" lon="5.69169">
        <ele>998</ele>
        <time>2019-11-29T11:43:25.000Z</time>
      </trkpt>
      <trkpt lat="43.31332" lon="5.69169">
        <ele>998</ele>
        <time>2019-11-29T11:43:26.000Z</time>
      </trkpt>
      <trkpt lat="43.31332" lon="5.6917">
        <ele>998</ele>
        <time>2019-11-29T11:43:27.000Z</time>
      </trkpt>
      <trkpt lat="43.31332" lon="5.6917">
        <ele>998</ele>
        <time>2019-11-29T11:43:28.000Z</time>
      </trkpt>
      <trkpt lat="43.31333" lon="5.69169">
        <ele>998</ele>
        <time>2019-11-29T11:43:29.000Z</time>
      </trkpt>
      <trkpt lat="43.31333" lon="5.69169">
        <ele>998</ele>
        <time>2019-11-29T11:43:30.000Z</time>
      </trkpt>
      <trkpt lat="43.31334" lon="5.6917">
        <ele>998</ele>
        <time>2019-11-29T11:43:31.000Z</time>
      </trkpt>
      <trkpt lat="43.31334" lon="5.6917">
        <ele>998</ele>
        <time>2019-11-29T11:43:32.000Z</time>
      </trkpt>
      <trkpt lat="43.31334" lon="5.6917">
        <ele>997</ele>
        <time>2019-11-29T11:43:33.000Z</time>
      </trkpt>
      <trkpt lat="43.31334" lon="5.6917">
        <ele>997</ele>
        <time>2019-11-29T11:43:34.000Z</time>
      </trkpt>
      <trkpt lat="43.31334" lon="5.6917">
        <ele>997</ele>
        <time>2019-11-29T11:43:35.000Z</time>
      </trkpt>
      <trkpt lat="43.31335" lon="5.6917">
        <ele>997</ele>
        <time>2019-11-29T11:43:36.000Z</time>
      </trkpt>
      <trkpt lat="43.31335" lon="5.6917">
        <ele>997</ele>
        <time>2019-11-29T11:43:37.000Z</time>
      </trkpt>
      <trkpt lat="43.31335" lon="5.6917">
        <ele>996</ele>
        <time>2019-11-29T11:43:38.000Z</time>
      </trkpt>
      <trkpt lat="43.31335" lon="5.6917">
        <ele>996</ele>
        <time>2019-11-29T11:43:39.000Z</time>
      </trkpt>
      <trkpt lat="43.31335" lon="5.6917">
        <ele>996</ele>
        <time>2019-11-29T11:43:40.000Z</time>
      </trkpt>
      <trkpt lat="43.31336" lon="5.6917">
        <ele>996</ele>
        <time>2019-11-29T11:43:41.000Z</time>
      </trkpt>
      <trkpt lat="43.31336" lon="5.69171">
        <ele>995</ele>
        <time>2019-11-29T11:43:42.000Z</time>
      </trkpt>
      <trkpt lat="43.31336" lon="5.69171">
        <ele>995</ele>
        <time>2019-11-29T11:43:43.000Z</time>
      </trkpt>
      <trkpt lat="43.31337" lon="5.6917">
        <ele>995</ele>
        <time>2019-11-29T11:43:44.000Z</time>
      </trkpt>
      <trkpt lat="43.31337" lon="5.6917">
        <ele>995</ele>
        <time>2019-11-29T11:43:45.000Z</time>
      </trkpt>
      <trkpt lat="43.31337" lon="5.6917">
        <ele>995</ele>
        <time>2019-11-29T11:43:46.000Z</time>
      </trkpt>
      <trkpt lat="43.31338" lon="5.6917">
        <ele>995</ele>
        <time>2019-11-29T11:43:47.000Z</time>
      </trkpt>
      <trkpt lat="43.31339" lon="5.69171">
        <ele>994</ele>
        <time>2019-11-29T11:43:48.000Z</time>
      </trkpt>
      <trkpt lat="43.31339" lon="5.69172">
        <ele>994</ele>
        <time>2019-11-29T11:43:49.000Z</time>
      </trkpt>
      <trkpt lat="43.3134" lon="5.69172">
        <ele>994</ele>
        <time>2019-11-29T11:43:50.000Z</time>
      </trkpt>
      <trkpt lat="43.3134" lon="5.69173">
        <ele>994</ele>
        <time>2019-11-29T11:43:51.000Z</time>
      </trkpt>
      <trkpt lat="43.3134" lon="5.69173">
        <ele>993</ele>
        <time>2019-11-29T11:43:52.000Z</time>
      </trkpt>
      <trkpt lat="43.3134" lon="5.69174">
        <ele>993</ele>
        <time>2019-11-29T11:43:53.000Z</time>
      </trkpt>
      <trkpt lat="43.31341" lon="5.69174">
        <ele>993</ele>
        <time>2019-11-29T11:43:54.000Z</time>
      </trkpt>
      <trkpt lat="43.31341" lon="5.69175">
        <ele>992</ele>
        <time>2019-11-29T11:43:55.000Z</time>
      </trkpt>
      <trkpt lat="43.31342" lon="5.69175">
        <ele>992</ele>
        <time>2019-11-29T11:43:56.000Z</time>
      </trkpt>
      <trkpt lat="43.31342" lon="5.69176">
        <ele>992</ele>
        <time>2019-11-29T11:43:57.000Z</time>
      </trkpt>
      <trkpt lat="43.31342" lon="5.69176">
        <ele>992</ele>
        <time>2019-11-29T11:43:58.000Z</time>
      </trkpt>
      <trkpt lat="43.31342" lon="5.69176">
        <ele>992</ele>
        <time>2019-11-29T11:43:59.000Z</time>
      </trkpt>
      <trkpt lat="43.31342" lon="5.69176">
        <ele>991</ele>
        <time>2019-11-29T11:44:00.000Z</time>
      </trkpt>
      <trkpt lat="43.31342" lon="5.69177">
        <ele>991</ele>
        <time>2019-11-29T11:44:01.000Z</time>
      </trkpt>
      <trkpt lat="43.31342" lon="5.69177">
        <ele>991</ele>
        <time>2019-11-29T11:44:02.000Z</time>
      </trkpt>
      <trkpt lat="43.31342" lon="5.69176">
        <ele>991</ele>
        <time>2019-11-29T11:44:03.000Z</time>
      </trkpt>
      <trkpt lat="43.31343" lon="5.69176">
        <ele>991</ele>
        <time>2019-11-29T11:44:04.000Z</time>
      </trkpt>
      <trkpt lat="43.31343" lon="5.69175">
        <ele>991</ele>
        <time>2019-11-29T11:44:05.000Z</time>
      </trkpt>
      <trkpt lat="43.31343" lon="5.69175">
        <ele>991</ele>
        <time>2019-11-29T11:44:06.000Z</time>
      </trkpt>
      <trkpt lat="43.31343" lon="5.69175">
        <ele>990</ele>
        <time>2019-11-29T11:44:07.000Z</time>
      </trkpt>
      <trkpt lat="43.31343" lon="5.69174">
        <ele>990</ele>
        <time>2019-11-29T11:44:08.000Z</time>
      </trkpt>
      <trkpt lat="43.31344" lon="5.69174">
        <ele>990</ele>
        <time>2019-11-29T11:44:09.000Z</time>
      </trkpt>
      <trkpt lat="43.31344" lon="5.69174">
        <ele>990</ele>
        <time>2019-11-29T11:44:10.000Z</time>
      </trkpt>
      <trkpt lat="43.31344" lon="5.69174">
        <ele>990</ele>
        <time>2019-11-29T11:44:11.000Z</time>
      </trkpt>
      <trkpt lat="43.31344" lon="5.69173">
        <ele>990</ele>
        <time>2019-11-29T11:44:12.000Z</time>
      </trkpt>
      <trkpt lat="43.31343" lon="5.69173">
        <ele>990</ele>
        <time>2019-11-29T11:44:13.000Z</time>
      </trkpt>
      <trkpt lat="43.31343" lon="5.69172">
        <ele>990</ele>
        <time>2019-11-29T11:44:14.000Z</time>
      </trkpt>
      <trkpt lat="43.31344" lon="5.69171">
        <ele>989</ele>
        <time>2019-11-29T11:44:15.000Z</time>
      </trkpt>
      <trkpt lat="43.31344" lon="5.69171">
        <ele>989</ele>
        <time>2019-11-29T11:44:16.000Z</time>
      </trkpt>
      <trkpt lat="43.31344" lon="5.69171">
        <ele>989</ele>
        <time>2019-11-29T11:44:17.000Z</time>
      </trkpt>
      <trkpt lat="43.31344" lon="5.69171">
        <ele>989</ele>
        <time>2019-11-29T11:44:18.000Z</time>
      </trkpt>
      <trkpt lat="43.31344" lon="5.69171">
        <ele>989</ele>
        <time>2019-11-29T11:44:19.000Z</time>
      </trkpt>
      <trkpt lat="43.31344" lon="5.69171">
        <ele>989</ele>
        <time>2019-11-29T11:44:20.000Z</time>
      </trkpt>
      <trkpt lat="43.31344" lon="5.6917">
        <ele>989</ele>
        <time>2019-11-29T11:44:21.000Z</time>
      </trkpt>
      <trkpt lat="43.31345" lon="5.6917">
        <ele>989</ele>
        <time>2019-11-29T11:44:22.000Z</time>
      </trkpt>
      <trkpt lat="43.31345" lon="5.69169">
        <ele>989</ele>
        <time>2019-11-29T11:44:23.000Z</time>
      </trkpt>
      <trkpt lat="43.31345" lon="5.69168">
        <ele>988</ele>
        <time>2019-11-29T11:44:24.000Z</time>
      </trkpt>
      <trkpt lat="43.31345" lon="5.69168">
        <ele>988</ele>
        <time>2019-11-29T11:44:25.000Z</time>
      </trkpt>
      <trkpt lat="43.31344" lon="5.69167">
        <ele>988</ele>
        <time>2019-11-29T11:44:26.000Z</time>
      </trkpt>
      <trkpt lat="43.31344" lon="5.69166">
        <ele>988</ele>
        <time>2019-11-29T11:44:27.000Z</time>
      </trkpt>
      <trkpt lat="43.31344" lon="5.69166">
        <ele>988</ele>
        <time>2019-11-29T11:44:28.000Z</time>
      </trkpt>
      <trkpt lat="43.31345" lon="5.69165">
        <ele>988</ele>
        <time>2019-11-29T11:44:29.000Z</time>
      </trkpt>
      <trkpt lat="43.31345" lon="5.69164">
        <ele>987</ele>
        <time>2019-11-29T11:44:30.000Z</time>
      </trkpt>
      <trkpt lat="43.31345" lon="5.69163">
        <ele>987</ele>
        <time>2019-11-29T11:44:31.000Z</time>
      </trkpt>
      <trkpt lat="43.31345" lon="5.69162">
        <ele>987</ele>
        <time>2019-11-29T11:44:32.000Z</time>
      </trkpt>
      <trkpt lat="43.31345" lon="5.69161">
        <ele>987</ele>
        <time>2019-11-29T11:44:33.000Z</time>
      </trkpt>
      <trkpt lat="43.31345" lon="5.6916">
        <ele>986</ele>
        <time>2019-11-29T11:44:34.000Z</time>
      </trkpt>
      <trkpt lat="43.31345" lon="5.6916">
        <ele>986</ele>
        <time>2019-11-29T11:44:35.000Z</time>
      </trkpt>
      <trkpt lat="43.31345" lon="5.69159">
        <ele>986</ele>
        <time>2019-11-29T11:44:36.000Z</time>
      </trkpt>
      <trkpt lat="43.31345" lon="5.69158">
        <ele>986</ele>
        <time>2019-11-29T11:44:37.000Z</time>
      </trkpt>
      <trkpt lat="43.31345" lon="5.69158">
        <ele>986</ele>
        <time>2019-11-29T11:44:38.000Z</time>
      </trkpt>
      <trkpt lat="43.31345" lon="5.69157">
        <ele>985</ele>
        <time>2019-11-29T11:44:39.000Z</time>
      </trkpt>
      <trkpt lat="43.31345" lon="5.69156">
        <ele>985</ele>
        <time>2019-11-29T11:44:40.000Z</time>
      </trkpt>
      <trkpt lat="43.31344" lon="5.69155">
        <ele>985</ele>
        <time>2019-11-29T11:44:41.000Z</time>
      </trkpt>
      <trkpt lat="43.31344" lon="5.69154">
        <ele>985</ele>
        <time>2019-11-29T11:44:42.000Z</time>
      </trkpt>
      <trkpt lat="43.31344" lon="5.69153">
        <ele>985</ele>
        <time>2019-11-29T11:44:43.000Z</time>
      </trkpt>
      <trkpt lat="43.31344" lon="5.69152">
        <ele>984</ele>
        <time>2019-11-29T11:44:44.000Z</time>
      </trkpt>
      <trkpt lat="43.31344" lon="5.69151">
        <ele>984</ele>
        <time>2019-11-29T11:44:45.000Z</time>
      </trkpt>
      <trkpt lat="43.31344" lon="5.69151">
        <ele>984</ele>
        <time>2019-11-29T11:44:46.000Z</time>
      </trkpt>
      <trkpt lat="43.31344" lon="5.6915">
        <ele>984</ele>
        <time>2019-11-29T11:44:47.000Z</time>
      </trkpt>
      <trkpt lat="43.31345" lon="5.6915">
        <ele>984</ele>
        <time>2019-11-29T11:44:48.000Z</time>
      </trkpt>
      <trkpt lat="43.31346" lon="5.6915">
        <ele>983</ele>
        <time>2019-11-29T11:44:49.000Z</time>
      </trkpt>
      <trkpt lat="43.31346" lon="5.6915">
        <ele>983</ele>
        <time>2019-11-29T11:44:50.000Z</time>
      </trkpt>
      <trkpt lat="43.31347" lon="5.69152">
        <ele>983</ele>
        <time>2019-11-29T11:44:51.000Z</time>
      </trkpt>
      <trkpt lat="43.31347" lon="5.69153">
        <ele>983</ele>
        <time>2019-11-29T11:44:52.000Z</time>
      </trkpt>
      <trkpt lat="43.31348" lon="5.69154">
        <ele>983</ele>
        <time>2019-11-29T11:44:53.000Z</time>
      </trkpt>
      <trkpt lat="43.31348" lon="5.69155">
        <ele>982</ele>
        <time>2019-11-29T11:44:54.000Z</time>
      </trkpt>
      <trkpt lat="43.31349" lon="5.69156">
        <ele>982</ele>
        <time>2019-11-29T11:44:55.000Z</time>
      </trkpt>
      <trkpt lat="43.31349" lon="5.69156">
        <ele>982</ele>
        <time>2019-11-29T11:44:56.000Z</time>
      </trkpt>
      <trkpt lat="43.3135" lon="5.69157">
        <ele>982</ele>
        <time>2019-11-29T11:44:57.000Z</time>
      </trkpt>
      <trkpt lat="43.31351" lon="5.69158">
        <ele>982</ele>
        <time>2019-11-29T11:44:58.000Z</time>
      </trkpt>
      <trkpt lat="43.31351" lon="5.69159">
        <ele>981</ele>
        <time>2019-11-29T11:44:59.000Z</time>
      </trkpt>
      <trkpt lat="43.31351" lon="5.69159">
        <ele>981</ele>
        <time>2019-11-29T11:45:00.000Z</time>
      </trkpt>
      <trkpt lat="43.31352" lon="5.69161">
        <ele>981</ele>
        <time>2019-11-29T11:45:01.000Z</time>
      </trkpt>
      <trkpt lat="43.31352" lon="5.69162">
        <ele>981</ele>
        <time>2019-11-29T11:45:02.000Z</time>
      </trkpt>
      <trkpt lat="43.31352" lon="5.69163">
        <ele>981</ele>
        <time>2019-11-29T11:45:03.000Z</time>
      </trkpt>
      <trkpt lat="43.31353" lon="5.69164">
        <ele>981</ele>
        <time>2019-11-29T11:45:04.000Z</time>
      </trkpt>
      <trkpt lat="43.31353" lon="5.69165">
        <ele>980</ele>
        <time>2019-11-29T11:45:05.000Z</time>
      </trkpt>
      <trkpt lat="43.31353" lon="5.69166">
        <ele>980</ele>
        <time>2019-11-29T11:45:06.000Z</time>
      </trkpt>
      <trkpt lat="43.31354" lon="5.69167">
        <ele>980</ele>
        <time>2019-11-29T11:45:07.000Z</time>
      </trkpt>
      <trkpt lat="43.31354" lon="5.69168">
        <ele>980</ele>
        <time>2019-11-29T11:45:08.000Z</time>
      </trkpt>
      <trkpt lat="43.31354" lon="5.69169">
        <ele>980</ele>
        <time>2019-11-29T11:45:09.000Z</time>
      </trkpt>
      <trkpt lat="43.31354" lon="5.6917">
        <ele>980</ele>
        <time>2019-11-29T11:45:10.000Z</time>
      </trkpt>
      <trkpt lat="43.31354" lon="5.69171">
        <ele>980</ele>
        <time>2019-11-29T11:45:11.000Z</time>
      </trkpt>
      <trkpt lat="43.31355" lon="5.69172">
        <ele>979</ele>
        <time>2019-11-29T11:45:12.000Z</time>
      </trkpt>
      <trkpt lat="43.31355" lon="5.69172">
        <ele>979</ele>
        <time>2019-11-29T11:45:13.000Z</time>
      </trkpt>
      <trkpt lat="43.31356" lon="5.69173">
        <ele>979</ele>
        <time>2019-11-29T11:45:14.000Z</time>
      </trkpt>
      <trkpt lat="43.31356" lon="5.69174">
        <ele>979</ele>
        <time>2019-11-29T11:45:15.000Z</time>
      </trkpt>
      <trkpt lat="43.31357" lon="5.69175">
        <ele>979</ele>
        <time>2019-11-29T11:45:16.000Z</time>
      </trkpt>
      <trkpt lat="43.31358" lon="5.69176">
        <ele>979</ele>
        <time>2019-11-29T11:45:17.000Z</time>
      </trkpt>
      <trkpt lat="43.31359" lon="5.69176">
        <ele>979</ele>
        <time>2019-11-29T11:45:18.000Z</time>
      </trkpt>
      <trkpt lat="43.31359" lon="5.69177">
        <ele>979</ele>
        <time>2019-11-29T11:45:19.000Z</time>
      </trkpt>
      <trkpt lat="43.3136" lon="5.69177">
        <ele>979</ele>
        <time>2019-11-29T11:45:20.000Z</time>
      </trkpt>
      <trkpt lat="43.3136" lon="5.69178">
        <ele>978</ele>
        <time>2019-11-29T11:45:21.000Z</time>
      </trkpt>
      <trkpt lat="43.31361" lon="5.69178">
        <ele>978</ele>
        <time>2019-11-29T11:45:22.000Z</time>
      </trkpt>
      <trkpt lat="43.31361" lon="5.69179">
        <ele>978</ele>
        <time>2019-11-29T11:45:23.000Z</time>
      </trkpt>
      <trkpt lat="43.31361" lon="5.69179">
        <ele>978</ele>
        <time>2019-11-29T11:45:24.000Z</time>
      </trkpt>
      <trkpt lat="43.31361" lon="5.6918">
        <ele>978</ele>
        <time>2019-11-29T11:45:25.000Z</time>
      </trkpt>
      <trkpt lat="43.31361" lon="5.69181">
        <ele>977</ele>
        <time>2019-11-29T11:45:26.000Z</time>
      </trkpt>
      <trkpt lat="43.31361" lon="5.69181">
        <ele>977</ele>
        <time>2019-11-29T11:45:27.000Z</time>
      </trkpt>
      <trkpt lat="43.31361" lon="5.69181">
        <ele>977</ele>
        <time>2019-11-29T11:45:28.000Z</time>
      </trkpt>
      <trkpt lat="43.31361" lon="5.69181">
        <ele>977</ele>
        <time>2019-11-29T11:45:29.000Z</time>
      </trkpt>
      <trkpt lat="43.31361" lon="5.69182">
        <ele>977</ele>
        <time>2019-11-29T11:45:30.000Z</time>
      </trkpt>
      <trkpt lat="43.31362" lon="5.69182">
        <ele>977</ele>
        <time>2019-11-29T11:45:31.000Z</time>
      </trkpt>
      <trkpt lat="43.31362" lon="5.69182">
        <ele>977</ele>
        <time>2019-11-29T11:45:32.000Z</time>
      </trkpt>
      <trkpt lat="43.31362" lon="5.69182">
        <ele>976</ele>
        <time>2019-11-29T11:45:33.000Z</time>
      </trkpt>
      <trkpt lat="43.31362" lon="5.69182">
        <ele>976</ele>
        <time>2019-11-29T11:45:34.000Z</time>
      </trkpt>
      <trkpt lat="43.31363" lon="5.69182">
        <ele>976</ele>
        <time>2019-11-29T11:45:35.000Z</time>
      </trkpt>
      <trkpt lat="43.31363" lon="5.69182">
        <ele>976</ele>
        <time>2019-11-29T11:45:36.000Z</time>
      </trkpt>
      <trkpt lat="43.31363" lon="5.69182">
        <ele>976</ele>
        <time>2019-11-29T11:45:37.000Z</time>
      </trkpt>
      <trkpt lat="43.31363" lon="5.69182">
        <ele>976</ele>
        <time>2019-11-29T11:45:38.000Z</time>
      </trkpt>
      <trkpt lat="43.31363" lon="5.69182">
        <ele>976</ele>
        <time>2019-11-29T11:45:39.000Z</time>
      </trkpt>
      <trkpt lat="43.31363" lon="5.69182">
        <ele>976</ele>
        <time>2019-11-29T11:45:40.000Z</time>
      </trkpt>
      <trkpt lat="43.31363" lon="5.69181">
        <ele>976</ele>
        <time>2019-11-29T11:45:41.000Z</time>
      </trkpt>
      <trkpt lat="43.31363" lon="5.69181">
        <ele>976</ele>
        <time>2019-11-29T11:45:42.000Z</time>
      </trkpt>
      <trkpt lat="43.31363" lon="5.69181">
        <ele>976</ele>
        <time>2019-11-29T11:45:43.000Z</time>
      </trkpt>
      <trkpt lat="43.31364" lon="5.69181">
        <ele>976</ele>
        <time>2019-11-29T11:45:44.000Z</time>
      </trkpt>
      <trkpt lat="43.31364" lon="5.69181">
        <ele>976</ele>
        <time>2019-11-29T11:45:45.000Z</time>
      </trkpt>
      <trkpt lat="43.31364" lon="5.69181">
        <ele>976</ele>
        <time>2019-11-29T11:45:46.000Z</time>
      </trkpt>
      <trkpt lat="43.31364" lon="5.69181">
        <ele>976</ele>
        <time>2019-11-29T11:45:47.000Z</time>
      </trkpt>
      <trkpt lat="43.31364" lon="5.69181">
        <ele>976</ele>
        <time>2019-11-29T11:45:48.000Z</time>
      </trkpt>
      <trkpt lat="43.31364" lon="5.69181">
        <ele>975</ele>
        <time>2019-11-29T11:45:49.000Z</time>
      </trkpt>
      <trkpt lat="43.31365" lon="5.69181">
        <ele>975</ele>
        <time>2019-11-29T11:45:50.000Z</time>
      </trkpt>
      <trkpt lat="43.31365" lon="5.69181">
        <ele>975</ele>
        <time>2019-11-29T11:45:51.000Z</time>
      </trkpt>
      <trkpt lat="43.31366" lon="5.69181">
        <ele>975</ele>
        <time>2019-11-29T11:45:52.000Z</time>
      </trkpt>
      <trkpt lat="43.31366" lon="5.69181">
        <ele>975</ele>
        <time>2019-11-29T11:45:53.000Z</time>
      </trkpt>
      <trkpt lat="43.31367" lon="5.69181">
        <ele>975</ele>
        <time>2019-11-29T11:45:54.000Z</time>
      </trkpt>
      <trkpt lat="43.31367" lon="5.69181">
        <ele>974</ele>
        <time>2019-11-29T11:45:55.000Z</time>
      </trkpt>
      <trkpt lat="43.31367" lon="5.69181">
        <ele>974</ele>
        <time>2019-11-29T11:45:56.000Z</time>
      </trkpt>
      <trkpt lat="43.31368" lon="5.69181">
        <ele>974</ele>
        <time>2019-11-29T11:45:57.000Z</time>
      </trkpt>
      <trkpt lat="43.31368" lon="5.6918">
        <ele>974</ele>
        <time>2019-11-29T11:45:58.000Z</time>
      </trkpt>
      <trkpt lat="43.31368" lon="5.6918">
        <ele>974</ele>
        <time>2019-11-29T11:45:59.000Z</time>
      </trkpt>
      <trkpt lat="43.31368" lon="5.69179">
        <ele>974</ele>
        <time>2019-11-29T11:46:00.000Z</time>
      </trkpt>
      <trkpt lat="43.31367" lon="5.69178">
        <ele>974</ele>
        <time>2019-11-29T11:46:01.000Z</time>
      </trkpt>
      <trkpt lat="43.31367" lon="5.69177">
        <ele>973</ele>
        <time>2019-11-29T11:46:02.000Z</time>
      </trkpt>
      <trkpt lat="43.31367" lon="5.69176">
        <ele>973</ele>
        <time>2019-11-29T11:46:03.000Z</time>
      </trkpt>
      <trkpt lat="43.31366" lon="5.69175">
        <ele>973</ele>
        <time>2019-11-29T11:46:04.000Z</time>
      </trkpt>
      <trkpt lat="43.31366" lon="5.69175">
        <ele>973</ele>
        <time>2019-11-29T11:46:05.000Z</time>
      </trkpt>
      <trkpt lat="43.31366" lon="5.69174">
        <ele>973</ele>
        <time>2019-11-29T11:46:06.000Z</time>
      </trkpt>
      <trkpt lat="43.31366" lon="5.69174">
        <ele>973</ele>
        <time>2019-11-29T11:46:07.000Z</time>
      </trkpt>
      <trkpt lat="43.31366" lon="5.69173">
        <ele>973</ele>
        <time>2019-11-29T11:46:08.000Z</time>
      </trkpt>
      <trkpt lat="43.31365" lon="5.69173">
        <ele>973</ele>
        <time>2019-11-29T11:46:09.000Z</time>
      </trkpt>
      <trkpt lat="43.31365" lon="5.69172">
        <ele>972</ele>
        <time>2019-11-29T11:46:10.000Z</time>
      </trkpt>
      <trkpt lat="43.31365" lon="5.69172">
        <ele>972</ele>
        <time>2019-11-29T11:46:11.000Z</time>
      </trkpt>
      <trkpt lat="43.31365" lon="5.69171">
        <ele>972</ele>
        <time>2019-11-29T11:46:12.000Z</time>
      </trkpt>
      <trkpt lat="43.31365" lon="5.69171">
        <ele>972</ele>
        <time>2019-11-29T11:46:13.000Z</time>
      </trkpt>
      <trkpt lat="43.31364" lon="5.6917">
        <ele>972</ele>
        <time>2019-11-29T11:46:14.000Z</time>
      </trkpt>
      <trkpt lat="43.31364" lon="5.69169">
        <ele>972</ele>
        <time>2019-11-29T11:46:15.000Z</time>
      </trkpt>
      <trkpt lat="43.31364" lon="5.69168">
        <ele>971</ele>
        <time>2019-11-29T11:46:16.000Z</time>
      </trkpt>
      <trkpt lat="43.31364" lon="5.69167">
        <ele>971</ele>
        <time>2019-11-29T11:46:17.000Z</time>
      </trkpt>
      <trkpt lat="43.31365" lon="5.69167">
        <ele>971</ele>
        <time>2019-11-29T11:46:18.000Z</time>
      </trkpt>
      <trkpt lat="43.31365" lon="5.69166">
        <ele>970</ele>
        <time>2019-11-29T11:46:19.000Z</time>
      </trkpt>
      <trkpt lat="43.31366" lon="5.69166">
        <ele>970</ele>
        <time>2019-11-29T11:46:20.000Z</time>
      </trkpt>
      <trkpt lat="43.31367" lon="5.69166">
        <ele>970</ele>
        <time>2019-11-29T11:46:21.000Z</time>
      </trkpt>
      <trkpt lat="43.31367" lon="5.69165">
        <ele>970</ele>
        <time>2019-11-29T11:46:22.000Z</time>
      </trkpt>
      <trkpt lat="43.31368" lon="5.69165">
        <ele>970</ele>
        <time>2019-11-29T11:46:23.000Z</time>
      </trkpt>
      <trkpt lat="43.31369" lon="5.69164">
        <ele>969</ele>
        <time>2019-11-29T11:46:24.000Z</time>
      </trkpt>
      <trkpt lat="43.3137" lon="5.69164">
        <ele>969</ele>
        <time>2019-11-29T11:46:25.000Z</time>
      </trkpt>
      <trkpt lat="43.31371" lon="5.69164">
        <ele>969</ele>
        <time>2019-11-29T11:46:26.000Z</time>
      </trkpt>
      <trkpt lat="43.31371" lon="5.69164">
        <ele>969</ele>
        <time>2019-11-29T11:46:27.000Z</time>
      </trkpt>
      <trkpt lat="43.31373" lon="5.69163">
        <ele>969</ele>
        <time>2019-11-29T11:46:28.000Z</time>
      </trkpt>
      <trkpt lat="43.31373" lon="5.69163">
        <ele>969</ele>
        <time>2019-11-29T11:46:29.000Z</time>
      </trkpt>
      <trkpt lat="43.31374" lon="5.69163">
        <ele>969</ele>
        <time>2019-11-29T11:46:30.000Z</time>
      </trkpt>
      <trkpt lat="43.31375" lon="5.69162">
        <ele>969</ele>
        <time>2019-11-29T11:46:31.000Z</time>
      </trkpt>
      <trkpt lat="43.31375" lon="5.69162">
        <ele>968</ele>
        <time>2019-11-29T11:46:32.000Z</time>
      </trkpt>
      <trkpt lat="43.31376" lon="5.69161">
        <ele>968</ele>
        <time>2019-11-29T11:46:33.000Z</time>
      </trkpt>
      <trkpt lat="43.31377" lon="5.6916">
        <ele>968</ele>
        <time>2019-11-29T11:46:34.000Z</time>
      </trkpt>
      <trkpt lat="43.31378" lon="5.69159">
        <ele>968</ele>
        <time>2019-11-29T11:46:35.000Z</time>
      </trkpt>
      <trkpt lat="43.31379" lon="5.69159">
        <ele>967</ele>
        <time>2019-11-29T11:46:36.000Z</time>
      </trkpt>
      <trkpt lat="43.3138" lon="5.69159">
        <ele>967</ele>
        <time>2019-11-29T11:46:37.000Z</time>
      </trkpt>
      <trkpt lat="43.3138" lon="5.69159">
        <ele>967</ele>
        <time>2019-11-29T11:46:38.000Z</time>
      </trkpt>
      <trkpt lat="43.31381" lon="5.69158">
        <ele>967</ele>
        <time>2019-11-29T11:46:39.000Z</time>
      </trkpt>
      <trkpt lat="43.31381" lon="5.69157">
        <ele>966</ele>
        <time>2019-11-29T11:46:40.000Z</time>
      </trkpt>
      <trkpt lat="43.31381" lon="5.69156">
        <ele>966</ele>
        <time>2019-11-29T11:46:41.000Z</time>
      </trkpt>
      <trkpt lat="43.31381" lon="5.69155">
        <ele>966</ele>
        <time>2019-11-29T11:46:42.000Z</time>
      </trkpt>
      <trkpt lat="43.31382" lon="5.69154">
        <ele>966</ele>
        <time>2019-11-29T11:46:43.000Z</time>
      </trkpt>
      <trkpt lat="43.31383" lon="5.69153">
        <ele>966</ele>
        <time>2019-11-29T11:46:44.000Z</time>
      </trkpt>
      <trkpt lat="43.31384" lon="5.69153">
        <ele>965</ele>
        <time>2019-11-29T11:46:45.000Z</time>
      </trkpt>
      <trkpt lat="43.31385" lon="5.69153">
        <ele>965</ele>
        <time>2019-11-29T11:46:46.000Z</time>
      </trkpt>
      <trkpt lat="43.31386" lon="5.69153">
        <ele>965</ele>
        <time>2019-11-29T11:46:47.000Z</time>
      </trkpt>
      <trkpt lat="43.31386" lon="5.69153">
        <ele>964</ele>
        <time>2019-11-29T11:46:48.000Z</time>
      </trkpt>
      <trkpt lat="43.31387" lon="5.69154">
        <ele>964</ele>
        <time>2019-11-29T11:46:49.000Z</time>
      </trkpt>
      <trkpt lat="43.31388" lon="5.69154">
        <ele>964</ele>
        <time>2019-11-29T11:46:50.000Z</time>
      </trkpt>
      <trkpt lat="43.31389" lon="5.69154">
        <ele>963</ele>
        <time>2019-11-29T11:46:51.000Z</time>
      </trkpt>
      <trkpt lat="43.31389" lon="5.69154">
        <ele>963</ele>
        <time>2019-11-29T11:46:52.000Z</time>
      </trkpt>
      <trkpt lat="43.3139" lon="5.69154">
        <ele>963</ele>
        <time>2019-11-29T11:46:53.000Z</time>
      </trkpt>
      <trkpt lat="43.31391" lon="5.69154">
        <ele>962</ele>
        <time>2019-11-29T11:46:54.000Z</time>
      </trkpt>
      <trkpt lat="43.31392" lon="5.69155">
        <ele>962</ele>
        <time>2019-11-29T11:46:55.000Z</time>
      </trkpt>
      <trkpt lat="43.31392" lon="5.69154">
        <ele>962</ele>
        <time>2019-11-29T11:46:56.000Z</time>
      </trkpt>
      <trkpt lat="43.31393" lon="5.69154">
        <ele>961</ele>
        <time>2019-11-29T11:46:57.000Z</time>
      </trkpt>
      <trkpt lat="43.31394" lon="5.69154">
        <ele>961</ele>
        <time>2019-11-29T11:46:58.000Z</time>
      </trkpt>
      <trkpt lat="43.31395" lon="5.69154">
        <ele>961</ele>
        <time>2019-11-29T11:46:59.000Z</time>
      </trkpt>
      <trkpt lat="43.31396" lon="5.69154">
        <ele>961</ele>
        <time>2019-11-29T11:47:00.000Z</time>
      </trkpt>
      <trkpt lat="43.31397" lon="5.69154">
        <ele>960</ele>
        <time>2019-11-29T11:47:01.000Z</time>
      </trkpt>
      <trkpt lat="43.31398" lon="5.69153">
        <ele>960</ele>
        <time>2019-11-29T11:47:02.000Z</time>
      </trkpt>
      <trkpt lat="43.31399" lon="5.69153">
        <ele>960</ele>
        <time>2019-11-29T11:47:03.000Z</time>
      </trkpt>
      <trkpt lat="43.31399" lon="5.69153">
        <ele>960</ele>
        <time>2019-11-29T11:47:04.000Z</time>
      </trkpt>
      <trkpt lat="43.314" lon="5.69153">
        <ele>959</ele>
        <time>2019-11-29T11:47:05.000Z</time>
      </trkpt>
      <trkpt lat="43.314" lon="5.69153">
        <ele>959</ele>
        <time>2019-11-29T11:47:06.000Z</time>
      </trkpt>
      <trkpt lat="43.31401" lon="5.69153">
        <ele>959</ele>
        <time>2019-11-29T11:47:07.000Z</time>
      </trkpt>
      <trkpt lat="43.31401" lon="5.69153">
        <ele>958</ele>
        <time>2019-11-29T11:47:08.000Z</time>
      </trkpt>
      <trkpt lat="43.31402" lon="5.69153">
        <ele>958</ele>
        <time>2019-11-29T11:47:09.000Z</time>
      </trkpt>
      <trkpt lat="43.31403" lon="5.69152">
        <ele>958</ele>
        <time>2019-11-29T11:47:10.000Z</time>
      </trkpt>
      <trkpt lat="43.31403" lon="5.69152">
        <ele>957</ele>
        <time>2019-11-29T11:47:11.000Z</time>
      </trkpt>
      <trkpt lat="43.31404" lon="5.69152">
        <ele>957</ele>
        <time>2019-11-29T11:47:12.000Z</time>
      </trkpt>
      <trkpt lat="43.31404" lon="5.69151">
        <ele>957</ele>
        <time>2019-11-29T11:47:13.000Z</time>
      </trkpt>
      <trkpt lat="43.31404" lon="5.69151">
        <ele>957</ele>
        <time>2019-11-29T11:47:14.000Z</time>
      </trkpt>
      <trkpt lat="43.31405" lon="5.69151">
        <ele>956</ele>
        <time>2019-11-29T11:47:15.000Z</time>
      </trkpt>
      <trkpt lat="43.31405" lon="5.69151">
        <ele>956</ele>
        <time>2019-11-29T11:47:16.000Z</time>
      </trkpt>
      <trkpt lat="43.31405" lon="5.6915">
        <ele>956</ele>
        <time>2019-11-29T11:47:17.000Z</time>
      </trkpt>
      <trkpt lat="43.31405" lon="5.6915">
        <ele>956</ele>
        <time>2019-11-29T11:47:18.000Z</time>
      </trkpt>
      <trkpt lat="43.31406" lon="5.69149">
        <ele>956</ele>
        <time>2019-11-29T11:47:19.000Z</time>
      </trkpt>
      <trkpt lat="43.31406" lon="5.69149">
        <ele>956</ele>
        <time>2019-11-29T11:47:20.000Z</time>
      </trkpt>
      <trkpt lat="43.31406" lon="5.69148">
        <ele>955</ele>
        <time>2019-11-29T11:47:21.000Z</time>
      </trkpt>
      <trkpt lat="43.31407" lon="5.69148">
        <ele>955</ele>
        <time>2019-11-29T11:47:22.000Z</time>
      </trkpt>
      <trkpt lat="43.31407" lon="5.69147">
        <ele>955</ele>
        <time>2019-11-29T11:47:23.000Z</time>
      </trkpt>
      <trkpt lat="43.31408" lon="5.69147">
        <ele>955</ele>
        <time>2019-11-29T11:47:24.000Z</time>
      </trkpt>
      <trkpt lat="43.31408" lon="5.69147">
        <ele>955</ele>
        <time>2019-11-29T11:47:25.000Z</time>
      </trkpt>
      <trkpt lat="43.31409" lon="5.69147">
        <ele>954</ele>
        <time>2019-11-29T11:47:26.000Z</time>
      </trkpt>
      <trkpt lat="43.3141" lon="5.69147">
        <ele>954</ele>
        <time>2019-11-29T11:47:27.000Z</time>
      </trkpt>
      <trkpt lat="43.31411" lon="5.69148">
        <ele>954</ele>
        <time>2019-11-29T11:47:28.000Z</time>
      </trkpt>
      <trkpt lat="43.31411" lon="5.69149">
        <ele>954</ele>
        <time>2019-11-29T11:47:29.000Z</time>
      </trkpt>
      <trkpt lat="43.31412" lon="5.69149">
        <ele>953</ele>
        <time>2019-11-29T11:47:30.000Z</time>
      </trkpt>
      <trkpt lat="43.31412" lon="5.69149">
        <ele>953</ele>
        <time>2019-11-29T11:47:31.000Z</time>
      </trkpt>
      <trkpt lat="43.31413" lon="5.6915">
        <ele>953</ele>
        <time>2019-11-29T11:47:32.000Z</time>
      </trkpt>
      <trkpt lat="43.31414" lon="5.6915">
        <ele>952</ele>
        <time>2019-11-29T11:47:33.000Z</time>
      </trkpt>
      <trkpt lat="43.31414" lon="5.6915">
        <ele>952</ele>
        <time>2019-11-29T11:47:34.000Z</time>
      </trkpt>
      <trkpt lat="43.31415" lon="5.6915">
        <ele>952</ele>
        <time>2019-11-29T11:47:35.000Z</time>
      </trkpt>
      <trkpt lat="43.31415" lon="5.6915">
        <ele>951</ele>
        <time>2019-11-29T11:47:36.000Z</time>
      </trkpt>
      <trkpt lat="43.31416" lon="5.6915">
        <ele>951</ele>
        <time>2019-11-29T11:47:37.000Z</time>
      </trkpt>
      <trkpt lat="43.31417" lon="5.6915">
        <ele>951</ele>
        <time>2019-11-29T11:47:38.000Z</time>
      </trkpt>
      <trkpt lat="43.31417" lon="5.6915">
        <ele>950</ele>
        <time>2019-11-29T11:47:39.000Z</time>
      </trkpt>
      <trkpt lat="43.31418" lon="5.6915">
        <ele>950</ele>
        <time>2019-11-29T11:47:40.000Z</time>
      </trkpt>
      <trkpt lat="43.31418" lon="5.6915">
        <ele>950</ele>
        <time>2019-11-29T11:47:41.000Z</time>
      </trkpt>
      <trkpt lat="43.31419" lon="5.6915">
        <ele>949</ele>
        <time>2019-11-29T11:47:42.000Z</time>
      </trkpt>
      <trkpt lat="43.3142" lon="5.6915">
        <ele>949</ele>
        <time>2019-11-29T11:47:43.000Z</time>
      </trkpt>
      <trkpt lat="43.3142" lon="5.6915">
        <ele>949</ele>
        <time>2019-11-29T11:47:44.000Z</time>
      </trkpt>
      <trkpt lat="43.31421" lon="5.69151">
        <ele>948</ele>
        <time>2019-11-29T11:47:45.000Z</time>
      </trkpt>
      <trkpt lat="43.31422" lon="5.69151">
        <ele>948</ele>
        <time>2019-11-29T11:47:46.000Z</time>
      </trkpt>
      <trkpt lat="43.31422" lon="5.69152">
        <ele>948</ele>
        <time>2019-11-29T11:47:47.000Z</time>
      </trkpt>
      <trkpt lat="43.31423" lon="5.69152">
        <ele>947</ele>
        <time>2019-11-29T11:47:48.000Z</time>
      </trkpt>
      <trkpt lat="43.31423" lon="5.69152">
        <ele>947</ele>
        <time>2019-11-29T11:47:49.000Z</time>
      </trkpt>
      <trkpt lat="43.31424" lon="5.69152">
        <ele>947</ele>
        <time>2019-11-29T11:47:50.000Z</time>
      </trkpt>
      <trkpt lat="43.31424" lon="5.69151">
        <ele>947</ele>
        <time>2019-11-29T11:47:51.000Z</time>
      </trkpt>
      <trkpt lat="43.31423" lon="5.6915">
        <ele>946</ele>
        <time>2019-11-29T11:47:52.000Z</time>
      </trkpt>
      <trkpt lat="43.31423" lon="5.69149">
        <ele>946</ele>
        <time>2019-11-29T11:47:53.000Z</time>
      </trkpt>
      <trkpt lat="43.31424" lon="5.69148">
        <ele>946</ele>
        <time>2019-11-29T11:47:54.000Z</time>
      </trkpt>
      <trkpt lat="43.31425" lon="5.69149">
        <ele>946</ele>
        <time>2019-11-29T11:47:55.000Z</time>
      </trkpt>
      <trkpt lat="43.31425" lon="5.69149">
        <ele>946</ele>
        <time>2019-11-29T11:47:56.000Z</time>
      </trkpt>
      <trkpt lat="43.31426" lon="5.69149">
        <ele>945</ele>
        <time>2019-11-29T11:47:57.000Z</time>
      </trkpt>
      <trkpt lat="43.31426" lon="5.6915">
        <ele>945</ele>
        <time>2019-11-29T11:47:58.000Z</time>
      </trkpt>
      <trkpt lat="43.31427" lon="5.69151">
        <ele>945</ele>
        <time>2019-11-29T11:47:59.000Z</time>
      </trkpt>
      <trkpt lat="43.31428" lon="5.69151">
        <ele>944</ele>
        <time>2019-11-29T11:48:00.000Z</time>
      </trkpt>
      <trkpt lat="43.31429" lon="5.69151">
        <ele>944</ele>
        <time>2019-11-29T11:48:01.000Z</time>
      </trkpt>
      <trkpt lat="43.31429" lon="5.6915">
        <ele>944</ele>
        <time>2019-11-29T11:48:02.000Z</time>
      </trkpt>
      <trkpt lat="43.3143" lon="5.6915">
        <ele>943</ele>
        <time>2019-11-29T11:48:03.000Z</time>
      </trkpt>
      <trkpt lat="43.31431" lon="5.6915">
        <ele>943</ele>
        <time>2019-11-29T11:48:04.000Z</time>
      </trkpt>
      <trkpt lat="43.31432" lon="5.69149">
        <ele>943</ele>
        <time>2019-11-29T11:48:05.000Z</time>
      </trkpt>
      <trkpt lat="43.31432" lon="5.69148">
        <ele>943</ele>
        <time>2019-11-29T11:48:06.000Z</time>
      </trkpt>
      <trkpt lat="43.31432" lon="5.69147">
        <ele>942</ele>
        <time>2019-11-29T11:48:07.000Z</time>
      </trkpt>
      <trkpt lat="43.31432" lon="5.69146">
        <ele>942</ele>
        <time>2019-11-29T11:48:08.000Z</time>
      </trkpt>
      <trkpt lat="43.31431" lon="5.69145">
        <ele>942</ele>
        <time>2019-11-29T11:48:09.000Z</time>
      </trkpt>
      <trkpt lat="43.31431" lon="5.69144">
        <ele>942</ele>
        <time>2019-11-29T11:48:10.000Z</time>
      </trkpt>
      <trkpt lat="43.31431" lon="5.69143">
        <ele>941</ele>
        <time>2019-11-29T11:48:11.000Z</time>
      </trkpt>
      <trkpt lat="43.31431" lon="5.69142">
        <ele>941</ele>
        <time>2019-11-29T11:48:12.000Z</time>
      </trkpt>
      <trkpt lat="43.3143" lon="5.6914">
        <ele>941</ele>
        <time>2019-11-29T11:48:13.000Z</time>
      </trkpt>
      <trkpt lat="43.3143" lon="5.6914">
        <ele>940</ele>
        <time>2019-11-29T11:48:14.000Z</time>
      </trkpt>
      <trkpt lat="43.31429" lon="5.69139">
        <ele>940</ele>
        <time>2019-11-29T11:48:15.000Z</time>
      </trkpt>
      <trkpt lat="43.31429" lon="5.69138">
        <ele>940</ele>
        <time>2019-11-29T11:48:16.000Z</time>
      </trkpt>
      <trkpt lat="43.31428" lon="5.69137">
        <ele>939</ele>
        <time>2019-11-29T11:48:17.000Z</time>
      </trkpt>
      <trkpt lat="43.31428" lon="5.69137">
        <ele>939</ele>
        <time>2019-11-29T11:48:18.000Z</time>
      </trkpt>
      <trkpt lat="43.31427" lon="5.69136">
        <ele>939</ele>
        <time>2019-11-29T11:48:19.000Z</time>
      </trkpt>
      <trkpt lat="43.31427" lon="5.69135">
        <ele>939</ele>
        <time>2019-11-29T11:48:20.000Z</time>
      </trkpt>
      <trkpt lat="43.31426" lon="5.69133">
        <ele>939</ele>
        <time>2019-11-29T11:48:21.000Z</time>
      </trkpt>
      <trkpt lat="43.31426" lon="5.69132">
        <ele>938</ele>
        <time>2019-11-29T11:48:22.000Z</time>
      </trkpt>
      <trkpt lat="43.31426" lon="5.69131">
        <ele>938</ele>
        <time>2019-11-29T11:48:23.000Z</time>
      </trkpt>
      <trkpt lat="43.31425" lon="5.6913">
        <ele>938</ele>
        <time>2019-11-29T11:48:24.000Z</time>
      </trkpt>
      <trkpt lat="43.31425" lon="5.69129">
        <ele>938</ele>
        <time>2019-11-29T11:48:25.000Z</time>
      </trkpt>
      <trkpt lat="43.31425" lon="5.69128">
        <ele>937</ele>
        <time>2019-11-29T11:48:26.000Z</time>
      </trkpt>
      <trkpt lat="43.31424" lon="5.69127">
        <ele>937</ele>
        <time>2019-11-29T11:48:27.000Z</time>
      </trkpt>
      <trkpt lat="43.31425" lon="5.69127">
        <ele>937</ele>
        <time>2019-11-29T11:48:28.000Z</time>
      </trkpt>
      <trkpt lat="43.31425" lon="5.69126">
        <ele>937</ele>
        <time>2019-11-29T11:48:29.000Z</time>
      </trkpt>
      <trkpt lat="43.31425" lon="5.69126">
        <ele>936</ele>
        <time>2019-11-29T11:48:30.000Z</time>
      </trkpt>
      <trkpt lat="43.31425" lon="5.69124">
        <ele>936</ele>
        <time>2019-11-29T11:48:31.000Z</time>
      </trkpt>
      <trkpt lat="43.31425" lon="5.69124">
        <ele>936</ele>
        <time>2019-11-29T11:48:32.000Z</time>
      </trkpt>
      <trkpt lat="43.31425" lon="5.69123">
        <ele>936</ele>
        <time>2019-11-29T11:48:33.000Z</time>
      </trkpt>
      <trkpt lat="43.31425" lon="5.69122">
        <ele>935</ele>
        <time>2019-11-29T11:48:34.000Z</time>
      </trkpt>
      <trkpt lat="43.31424" lon="5.69121">
        <ele>935</ele>
        <time>2019-11-29T11:48:35.000Z</time>
      </trkpt>
      <trkpt lat="43.31423" lon="5.6912">
        <ele>935</ele>
        <time>2019-11-29T11:48:36.000Z</time>
      </trkpt>
      <trkpt lat="43.31423" lon="5.69119">
        <ele>935</ele>
        <time>2019-11-29T11:48:37.000Z</time>
      </trkpt>
      <trkpt lat="43.31422" lon="5.69118">
        <ele>935</ele>
        <time>2019-11-29T11:48:38.000Z</time>
      </trkpt>
      <trkpt lat="43.31421" lon="5.69117">
        <ele>934</ele>
        <time>2019-11-29T11:48:39.000Z</time>
      </trkpt>
      <trkpt lat="43.31421" lon="5.69116">
        <ele>934</ele>
        <time>2019-11-29T11:48:40.000Z</time>
      </trkpt>
      <trkpt lat="43.3142" lon="5.69115">
        <ele>934</ele>
        <time>2019-11-29T11:48:41.000Z</time>
      </trkpt>
      <trkpt lat="43.3142" lon="5.69115">
        <ele>934</ele>
        <time>2019-11-29T11:48:42.000Z</time>
      </trkpt>
      <trkpt lat="43.31419" lon="5.69114">
        <ele>934</ele>
        <time>2019-11-29T11:48:43.000Z</time>
      </trkpt>
      <trkpt lat="43.31419" lon="5.69114">
        <ele>934</ele>
        <time>2019-11-29T11:48:44.000Z</time>
      </trkpt>
      <trkpt lat="43.31419" lon="5.69113">
        <ele>933</ele>
        <time>2019-11-29T11:48:45.000Z</time>
      </trkpt>
      <trkpt lat="43.31419" lon="5.69113">
        <ele>933</ele>
        <time>2019-11-29T11:48:46.000Z</time>
      </trkpt>
      <trkpt lat="43.31419" lon="5.69113">
        <ele>933</ele>
        <time>2019-11-29T11:48:47.000Z</time>
      </trkpt>
      <trkpt lat="43.31418" lon="5.69112">
        <ele>933</ele>
        <time>2019-11-29T11:48:48.000Z</time>
      </trkpt>
      <trkpt lat="43.31418" lon="5.69111">
        <ele>933</ele>
        <time>2019-11-29T11:48:49.000Z</time>
      </trkpt>
      <trkpt lat="43.31418" lon="5.69111">
        <ele>933</ele>
        <time>2019-11-29T11:48:50.000Z</time>
      </trkpt>
      <trkpt lat="43.31418" lon="5.69109">
        <ele>933</ele>
        <time>2019-11-29T11:48:51.000Z</time>
      </trkpt>
      <trkpt lat="43.31418" lon="5.69108">
        <ele>932</ele>
        <time>2019-11-29T11:48:52.000Z</time>
      </trkpt>
      <trkpt lat="43.31418" lon="5.69107">
        <ele>932</ele>
        <time>2019-11-29T11:48:53.000Z</time>
      </trkpt>
      <trkpt lat="43.31418" lon="5.69106">
        <ele>932</ele>
        <time>2019-11-29T11:48:54.000Z</time>
      </trkpt>
      <trkpt lat="43.31418" lon="5.69105">
        <ele>932</ele>
        <time>2019-11-29T11:48:55.000Z</time>
      </trkpt>
      <trkpt lat="43.31418" lon="5.69104">
        <ele>932</ele>
        <time>2019-11-29T11:48:56.000Z</time>
      </trkpt>
      <trkpt lat="43.31417" lon="5.69103">
        <ele>931</ele>
        <time>2019-11-29T11:48:57.000Z</time>
      </trkpt>
      <trkpt lat="43.31417" lon="5.69102">
        <ele>931</ele>
        <time>2019-11-29T11:48:58.000Z</time>
      </trkpt>
      <trkpt lat="43.31417" lon="5.691">
        <ele>931</ele>
        <time>2019-11-29T11:48:59.000Z</time>
      </trkpt>
      <trkpt lat="43.31418" lon="5.69099">
        <ele>931</ele>
        <time>2019-11-29T11:49:00.000Z</time>
      </trkpt>
      <trkpt lat="43.31417" lon="5.69098">
        <ele>931</ele>
        <time>2019-11-29T11:49:01.000Z</time>
      </trkpt>
      <trkpt lat="43.31417" lon="5.69097">
        <ele>930</ele>
        <time>2019-11-29T11:49:02.000Z</time>
      </trkpt>
      <trkpt lat="43.31417" lon="5.69097">
        <ele>930</ele>
        <time>2019-11-29T11:49:03.000Z</time>
      </trkpt>
      <trkpt lat="43.31417" lon="5.69096">
        <ele>930</ele>
        <time>2019-11-29T11:49:04.000Z</time>
      </trkpt>
      <trkpt lat="43.31416" lon="5.69096">
        <ele>930</ele>
        <time>2019-11-29T11:49:05.000Z</time>
      </trkpt>
      <trkpt lat="43.31416" lon="5.69095">
        <ele>930</ele>
        <time>2019-11-29T11:49:06.000Z</time>
      </trkpt>
      <trkpt lat="43.31415" lon="5.69094">
        <ele>929</ele>
        <time>2019-11-29T11:49:07.000Z</time>
      </trkpt>
      <trkpt lat="43.31415" lon="5.69094">
        <ele>929</ele>
        <time>2019-11-29T11:49:08.000Z</time>
      </trkpt>
      <trkpt lat="43.31415" lon="5.69093">
        <ele>929</ele>
        <time>2019-11-29T11:49:09.000Z</time>
      </trkpt>
      <trkpt lat="43.31415" lon="5.69092">
        <ele>929</ele>
        <time>2019-11-29T11:49:10.000Z</time>
      </trkpt>
      <trkpt lat="43.31415" lon="5.69092">
        <ele>928</ele>
        <time>2019-11-29T11:49:11.000Z</time>
      </trkpt>
      <trkpt lat="43.31414" lon="5.69091">
        <ele>928</ele>
        <time>2019-11-29T11:49:12.000Z</time>
      </trkpt>
      <trkpt lat="43.31414" lon="5.6909">
        <ele>928</ele>
        <time>2019-11-29T11:49:13.000Z</time>
      </trkpt>
      <trkpt lat="43.31414" lon="5.69089">
        <ele>928</ele>
        <time>2019-11-29T11:49:14.000Z</time>
      </trkpt>
      <trkpt lat="43.31414" lon="5.69089">
        <ele>927</ele>
        <time>2019-11-29T11:49:15.000Z</time>
      </trkpt>
      <trkpt lat="43.31414" lon="5.69089">
        <ele>927</ele>
        <time>2019-11-29T11:49:16.000Z</time>
      </trkpt>
      <trkpt lat="43.31414" lon="5.69088">
        <ele>927</ele>
        <time>2019-11-29T11:49:17.000Z</time>
      </trkpt>
      <trkpt lat="43.31414" lon="5.69088">
        <ele>927</ele>
        <time>2019-11-29T11:49:18.000Z</time>
      </trkpt>
      <trkpt lat="43.31414" lon="5.69087">
        <ele>926</ele>
        <time>2019-11-29T11:49:19.000Z</time>
      </trkpt>
      <trkpt lat="43.31413" lon="5.69087">
        <ele>926</ele>
        <time>2019-11-29T11:49:20.000Z</time>
      </trkpt>
      <trkpt lat="43.31413" lon="5.69086">
        <ele>926</ele>
        <time>2019-11-29T11:49:21.000Z</time>
      </trkpt>
      <trkpt lat="43.31412" lon="5.69086">
        <ele>925</ele>
        <time>2019-11-29T11:49:22.000Z</time>
      </trkpt>
      <trkpt lat="43.31412" lon="5.69085">
        <ele>925</ele>
        <time>2019-11-29T11:49:23.000Z</time>
      </trkpt>
      <trkpt lat="43.31412" lon="5.69085">
        <ele>925</ele>
        <time>2019-11-29T11:49:24.000Z</time>
      </trkpt>
      <trkpt lat="43.31411" lon="5.69085">
        <ele>924</ele>
        <time>2019-11-29T11:49:25.000Z</time>
      </trkpt>
      <trkpt lat="43.31411" lon="5.69085">
        <ele>924</ele>
        <time>2019-11-29T11:49:26.000Z</time>
      </trkpt>
      <trkpt lat="43.3141" lon="5.69084">
        <ele>924</ele>
        <time>2019-11-29T11:49:27.000Z</time>
      </trkpt>
      <trkpt lat="43.3141" lon="5.69084">
        <ele>923</ele>
        <time>2019-11-29T11:49:28.000Z</time>
      </trkpt>
      <trkpt lat="43.3141" lon="5.69083">
        <ele>923</ele>
        <time>2019-11-29T11:49:29.000Z</time>
      </trkpt>
      <trkpt lat="43.31409" lon="5.69083">
        <ele>923</ele>
        <time>2019-11-29T11:49:30.000Z</time>
      </trkpt>
      <trkpt lat="43.31409" lon="5.69082">
        <ele>922</ele>
        <time>2019-11-29T11:49:31.000Z</time>
      </trkpt>
      <trkpt lat="43.31408" lon="5.69081">
        <ele>922</ele>
        <time>2019-11-29T11:49:32.000Z</time>
      </trkpt>
      <trkpt lat="43.31408" lon="5.69081">
        <ele>922</ele>
        <time>2019-11-29T11:49:33.000Z</time>
      </trkpt>
      <trkpt lat="43.31408" lon="5.6908">
        <ele>922</ele>
        <time>2019-11-29T11:49:34.000Z</time>
      </trkpt>
      <trkpt lat="43.31408" lon="5.69079">
        <ele>921</ele>
        <time>2019-11-29T11:49:35.000Z</time>
      </trkpt>
      <trkpt lat="43.31408" lon="5.69079">
        <ele>921</ele>
        <time>2019-11-29T11:49:36.000Z</time>
      </trkpt>
      <trkpt lat="43.31408" lon="5.69078">
        <ele>921</ele>
        <time>2019-11-29T11:49:37.000Z</time>
      </trkpt>
      <trkpt lat="43.31407" lon="5.69077">
        <ele>920</ele>
        <time>2019-11-29T11:49:38.000Z</time>
      </trkpt>
      <trkpt lat="43.31407" lon="5.69076">
        <ele>920</ele>
        <time>2019-11-29T11:49:39.000Z</time>
      </trkpt>
      <trkpt lat="43.31407" lon="5.69076">
        <ele>920</ele>
        <time>2019-11-29T11:49:40.000Z</time>
      </trkpt>
      <trkpt lat="43.31406" lon="5.69075">
        <ele>920</ele>
        <time>2019-11-29T11:49:41.000Z</time>
      </trkpt>
      <trkpt lat="43.31406" lon="5.69074">
        <ele>920</ele>
        <time>2019-11-29T11:49:42.000Z</time>
      </trkpt>
      <trkpt lat="43.31405" lon="5.69073">
        <ele>920</ele>
        <time>2019-11-29T11:49:43.000Z</time>
      </trkpt>
      <trkpt lat="43.31405" lon="5.69073">
        <ele>919</ele>
        <time>2019-11-29T11:49:44.000Z</time>
      </trkpt>
      <trkpt lat="43.31405" lon="5.69072">
        <ele>919</ele>
        <time>2019-11-29T11:49:45.000Z</time>
      </trkpt>
      <trkpt lat="43.31404" lon="5.69072">
        <ele>919</ele>
        <time>2019-11-29T11:49:46.000Z</time>
      </trkpt>
      <trkpt lat="43.31405" lon="5.69071">
        <ele>919</ele>
        <time>2019-11-29T11:49:47.000Z</time>
      </trkpt>
      <trkpt lat="43.31405" lon="5.69071">
        <ele>919</ele>
        <time>2019-11-29T11:49:48.000Z</time>
      </trkpt>
      <trkpt lat="43.31405" lon="5.6907">
        <ele>919</ele>
        <time>2019-11-29T11:49:49.000Z</time>
      </trkpt>
      <trkpt lat="43.31405" lon="5.69069">
        <ele>919</ele>
        <time>2019-11-29T11:49:50.000Z</time>
      </trkpt>
      <trkpt lat="43.31405" lon="5.69069">
        <ele>918</ele>
        <time>2019-11-29T11:49:51.000Z</time>
      </trkpt>
      <trkpt lat="43.31405" lon="5.69068">
        <ele>918</ele>
        <time>2019-11-29T11:49:52.000Z</time>
      </trkpt>
      <trkpt lat="43.31405" lon="5.69068">
        <ele>918</ele>
        <time>2019-11-29T11:49:53.000Z</time>
      </trkpt>
      <trkpt lat="43.31405" lon="5.69067">
        <ele>918</ele>
        <time>2019-11-29T11:49:54.000Z</time>
      </trkpt>
      <trkpt lat="43.31405" lon="5.69066">
        <ele>918</ele>
        <time>2019-11-29T11:49:55.000Z</time>
      </trkpt>
      <trkpt lat="43.31405" lon="5.69066">
        <ele>918</ele>
        <time>2019-11-29T11:49:56.000Z</time>
      </trkpt>
      <trkpt lat="43.31405" lon="5.69066">
        <ele>918</ele>
        <time>2019-11-29T11:49:57.000Z</time>
      </trkpt>
      <trkpt lat="43.31405" lon="5.69065">
        <ele>917</ele>
        <time>2019-11-29T11:49:58.000Z</time>
      </trkpt>
      <trkpt lat="43.31405" lon="5.69064">
        <ele>917</ele>
        <time>2019-11-29T11:49:59.000Z</time>
      </trkpt>
      <trkpt lat="43.31405" lon="5.69064">
        <ele>917</ele>
        <time>2019-11-29T11:50:00.000Z</time>
      </trkpt>
      <trkpt lat="43.31405" lon="5.69064">
        <ele>917</ele>
        <time>2019-11-29T11:50:01.000Z</time>
      </trkpt>
      <trkpt lat="43.31405" lon="5.69064">
        <ele>917</ele>
        <time>2019-11-29T11:50:02.000Z</time>
      </trkpt>
      <trkpt lat="43.31405" lon="5.69063">
        <ele>917</ele>
        <time>2019-11-29T11:50:03.000Z</time>
      </trkpt>
      <trkpt lat="43.31405" lon="5.69062">
        <ele>916</ele>
        <time>2019-11-29T11:50:04.000Z</time>
      </trkpt>
      <trkpt lat="43.31405" lon="5.69062">
        <ele>916</ele>
        <time>2019-11-29T11:50:05.000Z</time>
      </trkpt>
      <trkpt lat="43.31405" lon="5.69062">
        <ele>916</ele>
        <time>2019-11-29T11:50:06.000Z</time>
      </trkpt>
      <trkpt lat="43.31405" lon="5.69062">
        <ele>916</ele>
        <time>2019-11-29T11:50:07.000Z</time>
      </trkpt>
      <trkpt lat="43.31406" lon="5.69061">
        <ele>916</ele>
        <time>2019-11-29T11:50:08.000Z</time>
      </trkpt>
      <trkpt lat="43.31406" lon="5.69061">
        <ele>916</ele>
        <time>2019-11-29T11:50:09.000Z</time>
      </trkpt>
      <trkpt lat="43.31406" lon="5.69061">
        <ele>916</ele>
        <time>2019-11-29T11:50:10.000Z</time>
      </trkpt>
      <trkpt lat="43.31406" lon="5.6906">
        <ele>915</ele>
        <time>2019-11-29T11:50:11.000Z</time>
      </trkpt>
      <trkpt lat="43.31406" lon="5.6906">
        <ele>915</ele>
        <time>2019-11-29T11:50:12.000Z</time>
      </trkpt>
      <trkpt lat="43.31406" lon="5.6906">
        <ele>915</ele>
        <time>2019-11-29T11:50:13.000Z</time>
      </trkpt>
      <trkpt lat="43.31406" lon="5.69059">
        <ele>915</ele>
        <time>2019-11-29T11:50:14.000Z</time>
      </trkpt>
      <trkpt lat="43.31406" lon="5.69059">
        <ele>915</ele>
        <time>2019-11-29T11:50:15.000Z</time>
      </trkpt>
      <trkpt lat="43.31406" lon="5.69059">
        <ele>915</ele>
        <time>2019-11-29T11:50:16.000Z</time>
      </trkpt>
      <trkpt lat="43.31406" lon="5.69059">
        <ele>915</ele>
        <time>2019-11-29T11:50:17.000Z</time>
      </trkpt>
      <trkpt lat="43.31406" lon="5.69059">
        <ele>915</ele>
        <time>2019-11-29T11:50:18.000Z</time>
      </trkpt>
      <trkpt lat="43.31406" lon="5.69058">
        <ele>915</ele>
        <time>2019-11-29T11:50:19.000Z</time>
      </trkpt>
      <trkpt lat="43.31406" lon="5.69058">
        <ele>915</ele>
        <time>2019-11-29T11:50:20.000Z</time>
      </trkpt>
      <trkpt lat="43.31406" lon="5.69058">
        <ele>915</ele>
        <time>2019-11-29T11:50:21.000Z</time>
      </trkpt>
      <trkpt lat="43.31406" lon="5.69057">
        <ele>914</ele>
        <time>2019-11-29T11:50:22.000Z</time>
      </trkpt>
      <trkpt lat="43.31406" lon="5.69057">
        <ele>915</ele>
        <time>2019-11-29T11:50:23.000Z</time>
      </trkpt>
      <trkpt lat="43.31407" lon="5.69057">
        <ele>915</ele>
        <time>2019-11-29T11:50:24.000Z</time>
      </trkpt>
      <trkpt lat="43.31407" lon="5.69057">
        <ele>915</ele>
        <time>2019-11-29T11:50:25.000Z</time>
      </trkpt>
      <trkpt lat="43.31407" lon="5.69057">
        <ele>915</ele>
        <time>2019-11-29T11:50:26.000Z</time>
      </trkpt>
      <trkpt lat="43.31407" lon="5.69057">
        <ele>915</ele>
        <time>2019-11-29T11:50:27.000Z</time>
      </trkpt>
      <trkpt lat="43.31408" lon="5.69056">
        <ele>915</ele>
        <time>2019-11-29T11:50:28.000Z</time>
      </trkpt>
      <trkpt lat="43.31408" lon="5.69056">
        <ele>915</ele>
        <time>2019-11-29T11:50:29.000Z</time>
      </trkpt>
      <trkpt lat="43.31407" lon="5.69056">
        <ele>915</ele>
        <time>2019-11-29T11:50:30.000Z</time>
      </trkpt>
      <trkpt lat="43.31407" lon="5.69055">
        <ele>915</ele>
        <time>2019-11-29T11:50:31.000Z</time>
      </trkpt>
      <trkpt lat="43.31407" lon="5.69055">
        <ele>915</ele>
        <time>2019-11-29T11:50:32.000Z</time>
      </trkpt>
      <trkpt lat="43.31407" lon="5.69054">
        <ele>915</ele>
        <time>2019-11-29T11:50:33.000Z</time>
      </trkpt>
      <trkpt lat="43.31407" lon="5.69054">
        <ele>915</ele>
        <time>2019-11-29T11:50:34.000Z</time>
      </trkpt>
      <trkpt lat="43.31407" lon="5.69053">
        <ele>915</ele>
        <time>2019-11-29T11:50:35.000Z</time>
      </trkpt>
      <trkpt lat="43.31407" lon="5.69053">
        <ele>915</ele>
        <time>2019-11-29T11:50:36.000Z</time>
      </trkpt>
      <trkpt lat="43.31407" lon="5.69052">
        <ele>915</ele>
        <time>2019-11-29T11:50:37.000Z</time>
      </trkpt>
      <trkpt lat="43.31407" lon="5.69052">
        <ele>914</ele>
        <time>2019-11-29T11:50:38.000Z</time>
      </trkpt>
      <trkpt lat="43.31407" lon="5.69052">
        <ele>914</ele>
        <time>2019-11-29T11:50:39.000Z</time>
      </trkpt>
      <trkpt lat="43.31407" lon="5.69051">
        <ele>914</ele>
        <time>2019-11-29T11:50:40.000Z</time>
      </trkpt>
      <trkpt lat="43.31407" lon="5.6905">
        <ele>914</ele>
        <time>2019-11-29T11:50:41.000Z</time>
      </trkpt>
      <trkpt lat="43.31407" lon="5.6905">
        <ele>914</ele>
        <time>2019-11-29T11:50:42.000Z</time>
      </trkpt>
      <trkpt lat="43.31407" lon="5.6905">
        <ele>914</ele>
        <time>2019-11-29T11:50:43.000Z</time>
      </trkpt>
      <trkpt lat="43.31407" lon="5.6905">
        <ele>914</ele>
        <time>2019-11-29T11:50:44.000Z</time>
      </trkpt>
      <trkpt lat="43.31407" lon="5.6905">
        <ele>914</ele>
        <time>2019-11-29T11:50:45.000Z</time>
      </trkpt>
      <trkpt lat="43.31408" lon="5.69049">
        <ele>914</ele>
        <time>2019-11-29T11:50:46.000Z</time>
      </trkpt>
      <trkpt lat="43.31408" lon="5.69049">
        <ele>914</ele>
        <time>2019-11-29T11:50:47.000Z</time>
      </trkpt>
      <trkpt lat="43.31408" lon="5.69049">
        <ele>914</ele>
        <time>2019-11-29T11:50:48.000Z</time>
      </trkpt>
      <trkpt lat="43.31408" lon="5.69048">
        <ele>914</ele>
        <time>2019-11-29T11:50:49.000Z</time>
      </trkpt>
      <trkpt lat="43.31408" lon="5.69048">
        <ele>914</ele>
        <time>2019-11-29T11:50:50.000Z</time>
      </trkpt>
      <trkpt lat="43.31408" lon="5.69047">
        <ele>914</ele>
        <time>2019-11-29T11:50:51.000Z</time>
      </trkpt>
      <trkpt lat="43.31408" lon="5.69046">
        <ele>914</ele>
        <time>2019-11-29T11:50:52.000Z</time>
      </trkpt>
      <trkpt lat="43.31408" lon="5.69046">
        <ele>914</ele>
        <time>2019-11-29T11:50:53.000Z</time>
      </trkpt>
      <trkpt lat="43.31408" lon="5.69045">
        <ele>914</ele>
        <time>2019-11-29T11:50:54.000Z</time>
      </trkpt>
      <trkpt lat="43.31408" lon="5.69045">
        <ele>914</ele>
        <time>2019-11-29T11:50:55.000Z</time>
      </trkpt>
      <trkpt lat="43.31409" lon="5.69044">
        <ele>913</ele>
        <time>2019-11-29T11:50:56.000Z</time>
      </trkpt>
      <trkpt lat="43.31409" lon="5.69044">
        <ele>913</ele>
        <time>2019-11-29T11:50:57.000Z</time>
      </trkpt>
      <trkpt lat="43.31409" lon="5.69043">
        <ele>913</ele>
        <time>2019-11-29T11:50:58.000Z</time>
      </trkpt>
      <trkpt lat="43.31409" lon="5.69042">
        <ele>913</ele>
        <time>2019-11-29T11:50:59.000Z</time>
      </trkpt>
      <trkpt lat="43.31409" lon="5.69042">
        <ele>913</ele>
        <time>2019-11-29T11:51:00.000Z</time>
      </trkpt>
      <trkpt lat="43.31409" lon="5.69041">
        <ele>913</ele>
        <time>2019-11-29T11:51:01.000Z</time>
      </trkpt>
      <trkpt lat="43.3141" lon="5.6904">
        <ele>913</ele>
        <time>2019-11-29T11:51:02.000Z</time>
      </trkpt>
      <trkpt lat="43.3141" lon="5.69039">
        <ele>913</ele>
        <time>2019-11-29T11:51:03.000Z</time>
      </trkpt>
      <trkpt lat="43.3141" lon="5.69039">
        <ele>913</ele>
        <time>2019-11-29T11:51:04.000Z</time>
      </trkpt>
      <trkpt lat="43.31411" lon="5.69038">
        <ele>913</ele>
        <time>2019-11-29T11:51:05.000Z</time>
      </trkpt>
      <trkpt lat="43.31411" lon="5.69038">
        <ele>913</ele>
        <time>2019-11-29T11:51:06.000Z</time>
      </trkpt>
      <trkpt lat="43.31411" lon="5.69037">
        <ele>913</ele>
        <time>2019-11-29T11:51:07.000Z</time>
      </trkpt>
      <trkpt lat="43.31412" lon="5.69037">
        <ele>912</ele>
        <time>2019-11-29T11:51:08.000Z</time>
      </trkpt>
      <trkpt lat="43.31412" lon="5.69036">
        <ele>912</ele>
        <time>2019-11-29T11:51:09.000Z</time>
      </trkpt>
      <trkpt lat="43.31413" lon="5.69036">
        <ele>912</ele>
        <time>2019-11-29T11:51:10.000Z</time>
      </trkpt>
      <trkpt lat="43.31413" lon="5.69036">
        <ele>912</ele>
        <time>2019-11-29T11:51:11.000Z</time>
      </trkpt>
      <trkpt lat="43.31414" lon="5.69035">
        <ele>912</ele>
        <time>2019-11-29T11:51:12.000Z</time>
      </trkpt>
      <trkpt lat="43.31414" lon="5.69034">
        <ele>912</ele>
        <time>2019-11-29T11:51:13.000Z</time>
      </trkpt>
      <trkpt lat="43.31414" lon="5.69033">
        <ele>912</ele>
        <time>2019-11-29T11:51:14.000Z</time>
      </trkpt>
      <trkpt lat="43.31414" lon="5.69032">
        <ele>912</ele>
        <time>2019-11-29T11:51:15.000Z</time>
      </trkpt>
      <trkpt lat="43.31415" lon="5.69031">
        <ele>911</ele>
        <time>2019-11-29T11:51:16.000Z</time>
      </trkpt>
      <trkpt lat="43.31415" lon="5.69031">
        <ele>911</ele>
        <time>2019-11-29T11:51:17.000Z</time>
      </trkpt>
      <trkpt lat="43.31416" lon="5.6903">
        <ele>911</ele>
        <time>2019-11-29T11:51:18.000Z</time>
      </trkpt>
      <trkpt lat="43.31416" lon="5.6903">
        <ele>911</ele>
        <time>2019-11-29T11:51:19.000Z</time>
      </trkpt>
      <trkpt lat="43.31417" lon="5.69029">
        <ele>911</ele>
        <time>2019-11-29T11:51:20.000Z</time>
      </trkpt>
      <trkpt lat="43.31418" lon="5.69029">
        <ele>911</ele>
        <time>2019-11-29T11:51:21.000Z</time>
      </trkpt>
      <trkpt lat="43.31419" lon="5.69029">
        <ele>911</ele>
        <time>2019-11-29T11:51:22.000Z</time>
      </trkpt>
      <trkpt lat="43.31419" lon="5.69029">
        <ele>911</ele>
        <time>2019-11-29T11:51:23.000Z</time>
      </trkpt>
      <trkpt lat="43.31419" lon="5.69029">
        <ele>911</ele>
        <time>2019-11-29T11:51:24.000Z</time>
      </trkpt>
      <trkpt lat="43.3142" lon="5.69028">
        <ele>911</ele>
        <time>2019-11-29T11:51:25.000Z</time>
      </trkpt>
      <trkpt lat="43.3142" lon="5.69028">
        <ele>911</ele>
        <time>2019-11-29T11:51:26.000Z</time>
      </trkpt>
      <trkpt lat="43.31421" lon="5.69027">
        <ele>911</ele>
        <time>2019-11-29T11:51:27.000Z</time>
      </trkpt>
      <trkpt lat="43.31422" lon="5.69027">
        <ele>911</ele>
        <time>2019-11-29T11:51:28.000Z</time>
      </trkpt>
      <trkpt lat="43.31423" lon="5.69026">
        <ele>911</ele>
        <time>2019-11-29T11:51:29.000Z</time>
      </trkpt>
      <trkpt lat="43.31423" lon="5.69026">
        <ele>910</ele>
        <time>2019-11-29T11:51:30.000Z</time>
      </trkpt>
      <trkpt lat="43.31424" lon="5.69025">
        <ele>910</ele>
        <time>2019-11-29T11:51:31.000Z</time>
      </trkpt>
      <trkpt lat="43.31425" lon="5.69025">
        <ele>910</ele>
        <time>2019-11-29T11:51:32.000Z</time>
      </trkpt>
      <trkpt lat="43.31425" lon="5.69024">
        <ele>910</ele>
        <time>2019-11-29T11:51:33.000Z</time>
      </trkpt>
      <trkpt lat="43.31425" lon="5.69024">
        <ele>910</ele>
        <time>2019-11-29T11:51:34.000Z</time>
      </trkpt>
      <trkpt lat="43.31426" lon="5.69024">
        <ele>910</ele>
        <time>2019-11-29T11:51:35.000Z</time>
      </trkpt>
      <trkpt lat="43.31426" lon="5.69024">
        <ele>910</ele>
        <time>2019-11-29T11:51:36.000Z</time>
      </trkpt>
      <trkpt lat="43.31427" lon="5.69023">
        <ele>910</ele>
        <time>2019-11-29T11:51:37.000Z</time>
      </trkpt>
      <trkpt lat="43.31427" lon="5.69023">
        <ele>910</ele>
        <time>2019-11-29T11:51:38.000Z</time>
      </trkpt>
      <trkpt lat="43.31428" lon="5.69023">
        <ele>910</ele>
        <time>2019-11-29T11:51:39.000Z</time>
      </trkpt>
      <trkpt lat="43.31428" lon="5.69023">
        <ele>909</ele>
        <time>2019-11-29T11:51:40.000Z</time>
      </trkpt>
      <trkpt lat="43.31429" lon="5.69022">
        <ele>909</ele>
        <time>2019-11-29T11:51:41.000Z</time>
      </trkpt>
      <trkpt lat="43.3143" lon="5.69022">
        <ele>909</ele>
        <time>2019-11-29T11:51:42.000Z</time>
      </trkpt>
      <trkpt lat="43.3143" lon="5.69022">
        <ele>909</ele>
        <time>2019-11-29T11:51:43.000Z</time>
      </trkpt>
      <trkpt lat="43.31431" lon="5.69021">
        <ele>909</ele>
        <time>2019-11-29T11:51:44.000Z</time>
      </trkpt>
      <trkpt lat="43.31432" lon="5.6902">
        <ele>909</ele>
        <time>2019-11-29T11:51:45.000Z</time>
      </trkpt>
      <trkpt lat="43.31432" lon="5.6902">
        <ele>909</ele>
        <time>2019-11-29T11:51:46.000Z</time>
      </trkpt>
      <trkpt lat="43.31433" lon="5.69019">
        <ele>908</ele>
        <time>2019-11-29T11:51:47.000Z</time>
      </trkpt>
      <trkpt lat="43.31433" lon="5.69019">
        <ele>908</ele>
        <time>2019-11-29T11:51:48.000Z</time>
      </trkpt>
      <trkpt lat="43.31434" lon="5.69019">
        <ele>908</ele>
        <time>2019-11-29T11:51:49.000Z</time>
      </trkpt>
      <trkpt lat="43.31434" lon="5.69018">
        <ele>908</ele>
        <time>2019-11-29T11:51:50.000Z</time>
      </trkpt>
      <trkpt lat="43.31435" lon="5.69017">
        <ele>908</ele>
        <time>2019-11-29T11:51:51.000Z</time>
      </trkpt>
      <trkpt lat="43.31435" lon="5.69017">
        <ele>907</ele>
        <time>2019-11-29T11:51:52.000Z</time>
      </trkpt>
      <trkpt lat="43.31435" lon="5.69016">
        <ele>907</ele>
        <time>2019-11-29T11:51:53.000Z</time>
      </trkpt>
      <trkpt lat="43.31436" lon="5.69016">
        <ele>907</ele>
        <time>2019-11-29T11:51:54.000Z</time>
      </trkpt>
      <trkpt lat="43.31437" lon="5.69015">
        <ele>907</ele>
        <time>2019-11-29T11:51:55.000Z</time>
      </trkpt>
      <trkpt lat="43.31437" lon="5.69015">
        <ele>907</ele>
        <time>2019-11-29T11:51:56.000Z</time>
      </trkpt>
      <trkpt lat="43.31438" lon="5.69014">
        <ele>906</ele>
        <time>2019-11-29T11:51:57.000Z</time>
      </trkpt>
      <trkpt lat="43.31438" lon="5.69014">
        <ele>906</ele>
        <time>2019-11-29T11:51:58.000Z</time>
      </trkpt>
      <trkpt lat="43.31438" lon="5.69013">
        <ele>906</ele>
        <time>2019-11-29T11:51:59.000Z</time>
      </trkpt>
      <trkpt lat="43.31439" lon="5.69013">
        <ele>905</ele>
        <time>2019-11-29T11:52:00.000Z</time>
      </trkpt>
      <trkpt lat="43.31439" lon="5.69012">
        <ele>905</ele>
        <time>2019-11-29T11:52:01.000Z</time>
      </trkpt>
      <trkpt lat="43.31439" lon="5.69011">
        <ele>905</ele>
        <time>2019-11-29T11:52:02.000Z</time>
      </trkpt>
      <trkpt lat="43.3144" lon="5.6901">
        <ele>904</ele>
        <time>2019-11-29T11:52:03.000Z</time>
      </trkpt>
      <trkpt lat="43.31441" lon="5.69009">
        <ele>904</ele>
        <time>2019-11-29T11:52:04.000Z</time>
      </trkpt>
      <trkpt lat="43.31442" lon="5.69008">
        <ele>904</ele>
        <time>2019-11-29T11:52:05.000Z</time>
      </trkpt>
      <trkpt lat="43.31443" lon="5.69008">
        <ele>903</ele>
        <time>2019-11-29T11:52:06.000Z</time>
      </trkpt>
      <trkpt lat="43.31443" lon="5.69007">
        <ele>903</ele>
        <time>2019-11-29T11:52:07.000Z</time>
      </trkpt>
      <trkpt lat="43.31444" lon="5.69006">
        <ele>903</ele>
        <time>2019-11-29T11:52:08.000Z</time>
      </trkpt>
      <trkpt lat="43.31445" lon="5.69006">
        <ele>903</ele>
        <time>2019-11-29T11:52:09.000Z</time>
      </trkpt>
      <trkpt lat="43.31446" lon="5.69005">
        <ele>903</ele>
        <time>2019-11-29T11:52:10.000Z</time>
      </trkpt>
      <trkpt lat="43.31446" lon="5.69004">
        <ele>902</ele>
        <time>2019-11-29T11:52:11.000Z</time>
      </trkpt>
      <trkpt lat="43.31447" lon="5.69003">
        <ele>902</ele>
        <time>2019-11-29T11:52:12.000Z</time>
      </trkpt>
      <trkpt lat="43.31448" lon="5.69002">
        <ele>902</ele>
        <time>2019-11-29T11:52:13.000Z</time>
      </trkpt>
      <trkpt lat="43.31449" lon="5.69001">
        <ele>902</ele>
        <time>2019-11-29T11:52:14.000Z</time>
      </trkpt>
      <trkpt lat="43.31449" lon="5.69001">
        <ele>902</ele>
        <time>2019-11-29T11:52:15.000Z</time>
      </trkpt>
      <trkpt lat="43.3145" lon="5.69">
        <ele>901</ele>
        <time>2019-11-29T11:52:16.000Z</time>
      </trkpt>
      <trkpt lat="43.31451" lon="5.69">
        <ele>901</ele>
        <time>2019-11-29T11:52:17.000Z</time>
      </trkpt>
      <trkpt lat="43.31452" lon="5.68999">
        <ele>901</ele>
        <time>2019-11-29T11:52:18.000Z</time>
      </trkpt>
      <trkpt lat="43.31453" lon="5.68998">
        <ele>901</ele>
        <time>2019-11-29T11:52:19.000Z</time>
      </trkpt>
      <trkpt lat="43.31454" lon="5.68997">
        <ele>900</ele>
        <time>2019-11-29T11:52:20.000Z</time>
      </trkpt>
      <trkpt lat="43.31455" lon="5.68997">
        <ele>900</ele>
        <time>2019-11-29T11:52:21.000Z</time>
      </trkpt>
      <trkpt lat="43.31456" lon="5.68996">
        <ele>900</ele>
        <time>2019-11-29T11:52:22.000Z</time>
      </trkpt>
      <trkpt lat="43.31457" lon="5.68995">
        <ele>900</ele>
        <time>2019-11-29T11:52:23.000Z</time>
      </trkpt>
      <trkpt lat="43.31458" lon="5.68994">
        <ele>899</ele>
        <time>2019-11-29T11:52:24.000Z</time>
      </trkpt>
      <trkpt lat="43.31459" lon="5.68994">
        <ele>899</ele>
        <time>2019-11-29T11:52:25.000Z</time>
      </trkpt>
      <trkpt lat="43.31459" lon="5.68993">
        <ele>899</ele>
        <time>2019-11-29T11:52:26.000Z</time>
      </trkpt>
      <trkpt lat="43.3146" lon="5.68992">
        <ele>899</ele>
        <time>2019-11-29T11:52:27.000Z</time>
      </trkpt>
      <trkpt lat="43.31461" lon="5.68992">
        <ele>898</ele>
        <time>2019-11-29T11:52:28.000Z</time>
      </trkpt>
      <trkpt lat="43.31462" lon="5.68992">
        <ele>898</ele>
        <time>2019-11-29T11:52:29.000Z</time>
      </trkpt>
      <trkpt lat="43.31463" lon="5.68992">
        <ele>898</ele>
        <time>2019-11-29T11:52:30.000Z</time>
      </trkpt>
      <trkpt lat="43.31464" lon="5.68991">
        <ele>898</ele>
        <time>2019-11-29T11:52:31.000Z</time>
      </trkpt>
      <trkpt lat="43.31465" lon="5.68991">
        <ele>897</ele>
        <time>2019-11-29T11:52:32.000Z</time>
      </trkpt>
      <trkpt lat="43.31466" lon="5.68991">
        <ele>897</ele>
        <time>2019-11-29T11:52:33.000Z</time>
      </trkpt>
      <trkpt lat="43.31467" lon="5.68991">
        <ele>897</ele>
        <time>2019-11-29T11:52:34.000Z</time>
      </trkpt>
      <trkpt lat="43.31467" lon="5.6899">
        <ele>897</ele>
        <time>2019-11-29T11:52:35.000Z</time>
      </trkpt>
      <trkpt lat="43.31468" lon="5.6899">
        <ele>896</ele>
        <time>2019-11-29T11:52:36.000Z</time>
      </trkpt>
      <trkpt lat="43.31468" lon="5.6899">
        <ele>896</ele>
        <time>2019-11-29T11:52:37.000Z</time>
      </trkpt>
      <trkpt lat="43.31469" lon="5.68989">
        <ele>896</ele>
        <time>2019-11-29T11:52:38.000Z</time>
      </trkpt>
      <trkpt lat="43.3147" lon="5.68988">
        <ele>896</ele>
        <time>2019-11-29T11:52:39.000Z</time>
      </trkpt>
      <trkpt lat="43.3147" lon="5.68988">
        <ele>895</ele>
        <time>2019-11-29T11:52:40.000Z</time>
      </trkpt>
      <trkpt lat="43.31471" lon="5.68987">
        <ele>895</ele>
        <time>2019-11-29T11:52:41.000Z</time>
      </trkpt>
      <trkpt lat="43.31472" lon="5.68986">
        <ele>895</ele>
        <time>2019-11-29T11:52:42.000Z</time>
      </trkpt>
      <trkpt lat="43.31472" lon="5.68985">
        <ele>895</ele>
        <time>2019-11-29T11:52:43.000Z</time>
      </trkpt>
      <trkpt lat="43.31473" lon="5.68985">
        <ele>895</ele>
        <time>2019-11-29T11:52:44.000Z</time>
      </trkpt>
      <trkpt lat="43.31474" lon="5.68985">
        <ele>894</ele>
        <time>2019-11-29T11:52:45.000Z</time>
      </trkpt>
      <trkpt lat="43.31475" lon="5.68986">
        <ele>894</ele>
        <time>2019-11-29T11:52:46.000Z</time>
      </trkpt>
      <trkpt lat="43.31476" lon="5.68986">
        <ele>894</ele>
        <time>2019-11-29T11:52:47.000Z</time>
      </trkpt>
      <trkpt lat="43.31476" lon="5.68985">
        <ele>893</ele>
        <time>2019-11-29T11:52:48.000Z</time>
      </trkpt>
      <trkpt lat="43.31476" lon="5.68985">
        <ele>893</ele>
        <time>2019-11-29T11:52:49.000Z</time>
      </trkpt>
      <trkpt lat="43.31476" lon="5.68984">
        <ele>893</ele>
        <time>2019-11-29T11:52:50.000Z</time>
      </trkpt>
      <trkpt lat="43.31477" lon="5.68983">
        <ele>892</ele>
        <time>2019-11-29T11:52:51.000Z</time>
      </trkpt>
      <trkpt lat="43.31477" lon="5.68982">
        <ele>892</ele>
        <time>2019-11-29T11:52:52.000Z</time>
      </trkpt>
      <trkpt lat="43.31477" lon="5.6898">
        <ele>891</ele>
        <time>2019-11-29T11:52:53.000Z</time>
      </trkpt>
      <trkpt lat="43.31477" lon="5.68979">
        <ele>891</ele>
        <time>2019-11-29T11:52:54.000Z</time>
      </trkpt>
      <trkpt lat="43.31477" lon="5.68978">
        <ele>890</ele>
        <time>2019-11-29T11:52:55.000Z</time>
      </trkpt>
      <trkpt lat="43.31478" lon="5.68977">
        <ele>890</ele>
        <time>2019-11-29T11:52:56.000Z</time>
      </trkpt>
      <trkpt lat="43.31478" lon="5.68976">
        <ele>890</ele>
        <time>2019-11-29T11:52:57.000Z</time>
      </trkpt>
      <trkpt lat="43.31479" lon="5.68975">
        <ele>889</ele>
        <time>2019-11-29T11:52:58.000Z</time>
      </trkpt>
      <trkpt lat="43.3148" lon="5.68975">
        <ele>889</ele>
        <time>2019-11-29T11:52:59.000Z</time>
      </trkpt>
      <trkpt lat="43.31481" lon="5.68976">
        <ele>889</ele>
        <time>2019-11-29T11:53:00.000Z</time>
      </trkpt>
      <trkpt lat="43.31481" lon="5.68976">
        <ele>888</ele>
        <time>2019-11-29T11:53:01.000Z</time>
      </trkpt>
      <trkpt lat="43.31482" lon="5.68976">
        <ele>888</ele>
        <time>2019-11-29T11:53:02.000Z</time>
      </trkpt>
      <trkpt lat="43.31482" lon="5.68977">
        <ele>888</ele>
        <time>2019-11-29T11:53:03.000Z</time>
      </trkpt>
      <trkpt lat="43.31483" lon="5.68977">
        <ele>887</ele>
        <time>2019-11-29T11:53:04.000Z</time>
      </trkpt>
      <trkpt lat="43.31483" lon="5.68976">
        <ele>887</ele>
        <time>2019-11-29T11:53:05.000Z</time>
      </trkpt>
      <trkpt lat="43.31484" lon="5.68976">
        <ele>887</ele>
        <time>2019-11-29T11:53:06.000Z</time>
      </trkpt>
      <trkpt lat="43.31485" lon="5.68976">
        <ele>887</ele>
        <time>2019-11-29T11:53:07.000Z</time>
      </trkpt>
      <trkpt lat="43.31485" lon="5.68976">
        <ele>886</ele>
        <time>2019-11-29T11:53:08.000Z</time>
      </trkpt>
      <trkpt lat="43.31486" lon="5.68975">
        <ele>886</ele>
        <time>2019-11-29T11:53:09.000Z</time>
      </trkpt>
      <trkpt lat="43.31487" lon="5.68975">
        <ele>886</ele>
        <time>2019-11-29T11:53:10.000Z</time>
      </trkpt>
      <trkpt lat="43.31487" lon="5.68974">
        <ele>886</ele>
        <time>2019-11-29T11:53:11.000Z</time>
      </trkpt>
      <trkpt lat="43.31488" lon="5.68974">
        <ele>885</ele>
        <time>2019-11-29T11:53:12.000Z</time>
      </trkpt>
      <trkpt lat="43.31488" lon="5.68973">
        <ele>885</ele>
        <time>2019-11-29T11:53:13.000Z</time>
      </trkpt>
      <trkpt lat="43.31489" lon="5.68972">
        <ele>885</ele>
        <time>2019-11-29T11:53:14.000Z</time>
      </trkpt>
      <trkpt lat="43.31489" lon="5.68972">
        <ele>885</ele>
        <time>2019-11-29T11:53:15.000Z</time>
      </trkpt>
      <trkpt lat="43.31489" lon="5.6897">
        <ele>885</ele>
        <time>2019-11-29T11:53:16.000Z</time>
      </trkpt>
      <trkpt lat="43.3149" lon="5.68969">
        <ele>884</ele>
        <time>2019-11-29T11:53:17.000Z</time>
      </trkpt>
      <trkpt lat="43.3149" lon="5.68968">
        <ele>884</ele>
        <time>2019-11-29T11:53:18.000Z</time>
      </trkpt>
      <trkpt lat="43.31491" lon="5.68967">
        <ele>884</ele>
        <time>2019-11-29T11:53:19.000Z</time>
      </trkpt>
      <trkpt lat="43.31491" lon="5.68967">
        <ele>884</ele>
        <time>2019-11-29T11:53:20.000Z</time>
      </trkpt>
      <trkpt lat="43.31492" lon="5.68966">
        <ele>884</ele>
        <time>2019-11-29T11:53:21.000Z</time>
      </trkpt>
      <trkpt lat="43.31492" lon="5.68966">
        <ele>884</ele>
        <time>2019-11-29T11:53:22.000Z</time>
      </trkpt>
      <trkpt lat="43.31493" lon="5.68966">
        <ele>884</ele>
        <time>2019-11-29T11:53:23.000Z</time>
      </trkpt>
      <trkpt lat="43.31494" lon="5.68965">
        <ele>884</ele>
        <time>2019-11-29T11:53:24.000Z</time>
      </trkpt>
      <trkpt lat="43.31495" lon="5.68966">
        <ele>884</ele>
        <time>2019-11-29T11:53:25.000Z</time>
      </trkpt>
      <trkpt lat="43.31496" lon="5.68965">
        <ele>884</ele>
        <time>2019-11-29T11:53:26.000Z</time>
      </trkpt>
      <trkpt lat="43.31497" lon="5.68965">
        <ele>883</ele>
        <time>2019-11-29T11:53:27.000Z</time>
      </trkpt>
      <trkpt lat="43.31498" lon="5.68965">
        <ele>883</ele>
        <time>2019-11-29T11:53:28.000Z</time>
      </trkpt>
      <trkpt lat="43.31499" lon="5.68964">
        <ele>883</ele>
        <time>2019-11-29T11:53:29.000Z</time>
      </trkpt>
      <trkpt lat="43.31499" lon="5.68963">
        <ele>883</ele>
        <time>2019-11-29T11:53:30.000Z</time>
      </trkpt>
      <trkpt lat="43.315" lon="5.68963">
        <ele>883</ele>
        <time>2019-11-29T11:53:31.000Z</time>
      </trkpt>
      <trkpt lat="43.31501" lon="5.68962">
        <ele>883</ele>
        <time>2019-11-29T11:53:32.000Z</time>
      </trkpt>
      <trkpt lat="43.31502" lon="5.68962">
        <ele>883</ele>
        <time>2019-11-29T11:53:33.000Z</time>
      </trkpt>
      <trkpt lat="43.31502" lon="5.68961">
        <ele>883</ele>
        <time>2019-11-29T11:53:34.000Z</time>
      </trkpt>
      <trkpt lat="43.31503" lon="5.68961">
        <ele>883</ele>
        <time>2019-11-29T11:53:35.000Z</time>
      </trkpt>
      <trkpt lat="43.31503" lon="5.6896">
        <ele>883</ele>
        <time>2019-11-29T11:53:36.000Z</time>
      </trkpt>
      <trkpt lat="43.31503" lon="5.6896">
        <ele>883</ele>
        <time>2019-11-29T11:53:37.000Z</time>
      </trkpt>
      <trkpt lat="43.31504" lon="5.6896">
        <ele>883</ele>
        <time>2019-11-29T11:53:38.000Z</time>
      </trkpt>
      <trkpt lat="43.31505" lon="5.68959">
        <ele>882</ele>
        <time>2019-11-29T11:53:39.000Z</time>
      </trkpt>
      <trkpt lat="43.31506" lon="5.68959">
        <ele>882</ele>
        <time>2019-11-29T11:53:40.000Z</time>
      </trkpt>
      <trkpt lat="43.31507" lon="5.68958">
        <ele>882</ele>
        <time>2019-11-29T11:53:41.000Z</time>
      </trkpt>
      <trkpt lat="43.31508" lon="5.68957">
        <ele>882</ele>
        <time>2019-11-29T11:53:42.000Z</time>
      </trkpt>
      <trkpt lat="43.31508" lon="5.68957">
        <ele>882</ele>
        <time>2019-11-29T11:53:43.000Z</time>
      </trkpt>
      <trkpt lat="43.31509" lon="5.68957">
        <ele>882</ele>
        <time>2019-11-29T11:53:44.000Z</time>
      </trkpt>
      <trkpt lat="43.3151" lon="5.68956">
        <ele>882</ele>
        <time>2019-11-29T11:53:45.000Z</time>
      </trkpt>
      <trkpt lat="43.3151" lon="5.68955">
        <ele>882</ele>
        <time>2019-11-29T11:53:46.000Z</time>
      </trkpt>
      <trkpt lat="43.31511" lon="5.68955">
        <ele>882</ele>
        <time>2019-11-29T11:53:47.000Z</time>
      </trkpt>
      <trkpt lat="43.31511" lon="5.68954">
        <ele>882</ele>
        <time>2019-11-29T11:53:48.000Z</time>
      </trkpt>
      <trkpt lat="43.31512" lon="5.68954">
        <ele>882</ele>
        <time>2019-11-29T11:53:49.000Z</time>
      </trkpt>
      <trkpt lat="43.31513" lon="5.68953">
        <ele>882</ele>
        <time>2019-11-29T11:53:50.000Z</time>
      </trkpt>
      <trkpt lat="43.31513" lon="5.68952">
        <ele>881</ele>
        <time>2019-11-29T11:53:51.000Z</time>
      </trkpt>
      <trkpt lat="43.31514" lon="5.68952">
        <ele>881</ele>
        <time>2019-11-29T11:53:52.000Z</time>
      </trkpt>
      <trkpt lat="43.31515" lon="5.68951">
        <ele>881</ele>
        <time>2019-11-29T11:53:53.000Z</time>
      </trkpt>
      <trkpt lat="43.31516" lon="5.68951">
        <ele>881</ele>
        <time>2019-11-29T11:53:54.000Z</time>
      </trkpt>
      <trkpt lat="43.31517" lon="5.68951">
        <ele>881</ele>
        <time>2019-11-29T11:53:55.000Z</time>
      </trkpt>
      <trkpt lat="43.31518" lon="5.68951">
        <ele>881</ele>
        <time>2019-11-29T11:53:56.000Z</time>
      </trkpt>
      <trkpt lat="43.31518" lon="5.68951">
        <ele>881</ele>
        <time>2019-11-29T11:53:57.000Z</time>
      </trkpt>
      <trkpt lat="43.3152" lon="5.6895">
        <ele>880</ele>
        <time>2019-11-29T11:53:58.000Z</time>
      </trkpt>
      <trkpt lat="43.31521" lon="5.6895">
        <ele>880</ele>
        <time>2019-11-29T11:53:59.000Z</time>
      </trkpt>
      <trkpt lat="43.31521" lon="5.6895">
        <ele>880</ele>
        <time>2019-11-29T11:54:00.000Z</time>
      </trkpt>
      <trkpt lat="43.31522" lon="5.6895">
        <ele>879</ele>
        <time>2019-11-29T11:54:01.000Z</time>
      </trkpt>
      <trkpt lat="43.31523" lon="5.6895">
        <ele>879</ele>
        <time>2019-11-29T11:54:02.000Z</time>
      </trkpt>
      <trkpt lat="43.31523" lon="5.68951">
        <ele>879</ele>
        <time>2019-11-29T11:54:03.000Z</time>
      </trkpt>
      <trkpt lat="43.31524" lon="5.68951">
        <ele>878</ele>
        <time>2019-11-29T11:54:04.000Z</time>
      </trkpt>
      <trkpt lat="43.31524" lon="5.68952">
        <ele>878</ele>
        <time>2019-11-29T11:54:05.000Z</time>
      </trkpt>
      <trkpt lat="43.31525" lon="5.68952">
        <ele>878</ele>
        <time>2019-11-29T11:54:06.000Z</time>
      </trkpt>
      <trkpt lat="43.31525" lon="5.68952">
        <ele>878</ele>
        <time>2019-11-29T11:54:07.000Z</time>
      </trkpt>
      <trkpt lat="43.31525" lon="5.68952">
        <ele>878</ele>
        <time>2019-11-29T11:54:08.000Z</time>
      </trkpt>
      <trkpt lat="43.31525" lon="5.68952">
        <ele>878</ele>
        <time>2019-11-29T11:54:09.000Z</time>
      </trkpt>
      <trkpt lat="43.31525" lon="5.68952">
        <ele>877</ele>
        <time>2019-11-29T11:54:10.000Z</time>
      </trkpt>
      <trkpt lat="43.31526" lon="5.68953">
        <ele>877</ele>
        <time>2019-11-29T11:54:11.000Z</time>
      </trkpt>
      <trkpt lat="43.31526" lon="5.68953">
        <ele>877</ele>
        <time>2019-11-29T11:54:12.000Z</time>
      </trkpt>
      <trkpt lat="43.31526" lon="5.68954">
        <ele>877</ele>
        <time>2019-11-29T11:54:13.000Z</time>
      </trkpt>
      <trkpt lat="43.31527" lon="5.68955">
        <ele>877</ele>
        <time>2019-11-29T11:54:14.000Z</time>
      </trkpt>
      <trkpt lat="43.31527" lon="5.68955">
        <ele>877</ele>
        <time>2019-11-29T11:54:15.000Z</time>
      </trkpt>
      <trkpt lat="43.31528" lon="5.68956">
        <ele>877</ele>
        <time>2019-11-29T11:54:16.000Z</time>
      </trkpt>
      <trkpt lat="43.31529" lon="5.68956">
        <ele>876</ele>
        <time>2019-11-29T11:54:17.000Z</time>
      </trkpt>
      <trkpt lat="43.3153" lon="5.68957">
        <ele>876</ele>
        <time>2019-11-29T11:54:18.000Z</time>
      </trkpt>
      <trkpt lat="43.31531" lon="5.68957">
        <ele>876</ele>
        <time>2019-11-29T11:54:19.000Z</time>
      </trkpt>
      <trkpt lat="43.31532" lon="5.68958">
        <ele>876</ele>
        <time>2019-11-29T11:54:20.000Z</time>
      </trkpt>
      <trkpt lat="43.31532" lon="5.68958">
        <ele>876</ele>
        <time>2019-11-29T11:54:21.000Z</time>
      </trkpt>
      <trkpt lat="43.31533" lon="5.68958">
        <ele>876</ele>
        <time>2019-11-29T11:54:22.000Z</time>
      </trkpt>
      <trkpt lat="43.31534" lon="5.68959">
        <ele>876</ele>
        <time>2019-11-29T11:54:23.000Z</time>
      </trkpt>
      <trkpt lat="43.31535" lon="5.68959">
        <ele>875</ele>
        <time>2019-11-29T11:54:24.000Z</time>
      </trkpt>
      <trkpt lat="43.31536" lon="5.6896">
        <ele>875</ele>
        <time>2019-11-29T11:54:25.000Z</time>
      </trkpt>
      <trkpt lat="43.31537" lon="5.6896">
        <ele>875</ele>
        <time>2019-11-29T11:54:26.000Z</time>
      </trkpt>
      <trkpt lat="43.31538" lon="5.68961">
        <ele>875</ele>
        <time>2019-11-29T11:54:27.000Z</time>
      </trkpt>
      <trkpt lat="43.31539" lon="5.68962">
        <ele>875</ele>
        <time>2019-11-29T11:54:28.000Z</time>
      </trkpt>
      <trkpt lat="43.31539" lon="5.68962">
        <ele>874</ele>
        <time>2019-11-29T11:54:29.000Z</time>
      </trkpt>
      <trkpt lat="43.3154" lon="5.68962">
        <ele>874</ele>
        <time>2019-11-29T11:54:30.000Z</time>
      </trkpt>
      <trkpt lat="43.31541" lon="5.68962">
        <ele>874</ele>
        <time>2019-11-29T11:54:31.000Z</time>
      </trkpt>
      <trkpt lat="43.31542" lon="5.68962">
        <ele>874</ele>
        <time>2019-11-29T11:54:32.000Z</time>
      </trkpt>
      <trkpt lat="43.31544" lon="5.68963">
        <ele>874</ele>
        <time>2019-11-29T11:54:33.000Z</time>
      </trkpt>
      <trkpt lat="43.31544" lon="5.68963">
        <ele>874</ele>
        <time>2019-11-29T11:54:34.000Z</time>
      </trkpt>
      <trkpt lat="43.31545" lon="5.68962">
        <ele>873</ele>
        <time>2019-11-29T11:54:35.000Z</time>
      </trkpt>
      <trkpt lat="43.31547" lon="5.68962">
        <ele>873</ele>
        <time>2019-11-29T11:54:36.000Z</time>
      </trkpt>
      <trkpt lat="43.31548" lon="5.68962">
        <ele>873</ele>
        <time>2019-11-29T11:54:37.000Z</time>
      </trkpt>
      <trkpt lat="43.31549" lon="5.68962">
        <ele>873</ele>
        <time>2019-11-29T11:54:38.000Z</time>
      </trkpt>
      <trkpt lat="43.3155" lon="5.68962">
        <ele>873</ele>
        <time>2019-11-29T11:54:39.000Z</time>
      </trkpt>
      <trkpt lat="43.31551" lon="5.68963">
        <ele>873</ele>
        <time>2019-11-29T11:54:40.000Z</time>
      </trkpt>
      <trkpt lat="43.31552" lon="5.68964">
        <ele>873</ele>
        <time>2019-11-29T11:54:41.000Z</time>
      </trkpt>
      <trkpt lat="43.31553" lon="5.68964">
        <ele>872</ele>
        <time>2019-11-29T11:54:42.000Z</time>
      </trkpt>
      <trkpt lat="43.31554" lon="5.68965">
        <ele>872</ele>
        <time>2019-11-29T11:54:43.000Z</time>
      </trkpt>
      <trkpt lat="43.31555" lon="5.68965">
        <ele>872</ele>
        <time>2019-11-29T11:54:44.000Z</time>
      </trkpt>
      <trkpt lat="43.31556" lon="5.68965">
        <ele>872</ele>
        <time>2019-11-29T11:54:45.000Z</time>
      </trkpt>
      <trkpt lat="43.31557" lon="5.68966">
        <ele>872</ele>
        <time>2019-11-29T11:54:46.000Z</time>
      </trkpt>
      <trkpt lat="43.31557" lon="5.68967">
        <ele>872</ele>
        <time>2019-11-29T11:54:47.000Z</time>
      </trkpt>
      <trkpt lat="43.31558" lon="5.68968">
        <ele>871</ele>
        <time>2019-11-29T11:54:48.000Z</time>
      </trkpt>
      <trkpt lat="43.31558" lon="5.68968">
        <ele>871</ele>
        <time>2019-11-29T11:54:49.000Z</time>
      </trkpt>
      <trkpt lat="43.31559" lon="5.68969">
        <ele>871</ele>
        <time>2019-11-29T11:54:50.000Z</time>
      </trkpt>
      <trkpt lat="43.3156" lon="5.68969">
        <ele>871</ele>
        <time>2019-11-29T11:54:51.000Z</time>
      </trkpt>
      <trkpt lat="43.3156" lon="5.6897">
        <ele>871</ele>
        <time>2019-11-29T11:54:52.000Z</time>
      </trkpt>
      <trkpt lat="43.3156" lon="5.6897">
        <ele>871</ele>
        <time>2019-11-29T11:54:53.000Z</time>
      </trkpt>
      <trkpt lat="43.31561" lon="5.6897">
        <ele>871</ele>
        <time>2019-11-29T11:54:54.000Z</time>
      </trkpt>
      <trkpt lat="43.31562" lon="5.68969">
        <ele>871</ele>
        <time>2019-11-29T11:54:55.000Z</time>
      </trkpt>
      <trkpt lat="43.31563" lon="5.68969">
        <ele>871</ele>
        <time>2019-11-29T11:54:56.000Z</time>
      </trkpt>
      <trkpt lat="43.31564" lon="5.68969">
        <ele>871</ele>
        <time>2019-11-29T11:54:57.000Z</time>
      </trkpt>
      <trkpt lat="43.31564" lon="5.68969">
        <ele>871</ele>
        <time>2019-11-29T11:54:58.000Z</time>
      </trkpt>
      <trkpt lat="43.31565" lon="5.68969">
        <ele>871</ele>
        <time>2019-11-29T11:54:59.000Z</time>
      </trkpt>
      <trkpt lat="43.31565" lon="5.68969">
        <ele>871</ele>
        <time>2019-11-29T11:55:00.000Z</time>
      </trkpt>
      <trkpt lat="43.31566" lon="5.68969">
        <ele>870</ele>
        <time>2019-11-29T11:55:01.000Z</time>
      </trkpt>
      <trkpt lat="43.31567" lon="5.68969">
        <ele>870</ele>
        <time>2019-11-29T11:55:02.000Z</time>
      </trkpt>
      <trkpt lat="43.31568" lon="5.68968">
        <ele>870</ele>
        <time>2019-11-29T11:55:03.000Z</time>
      </trkpt>
      <trkpt lat="43.31568" lon="5.68968">
        <ele>870</ele>
        <time>2019-11-29T11:55:04.000Z</time>
      </trkpt>
      <trkpt lat="43.31569" lon="5.68968">
        <ele>870</ele>
        <time>2019-11-29T11:55:05.000Z</time>
      </trkpt>
      <trkpt lat="43.3157" lon="5.68968">
        <ele>870</ele>
        <time>2019-11-29T11:55:06.000Z</time>
      </trkpt>
      <trkpt lat="43.31571" lon="5.68968">
        <ele>870</ele>
        <time>2019-11-29T11:55:07.000Z</time>
      </trkpt>
      <trkpt lat="43.31571" lon="5.68968">
        <ele>870</ele>
        <time>2019-11-29T11:55:08.000Z</time>
      </trkpt>
      <trkpt lat="43.31572" lon="5.68968">
        <ele>870</ele>
        <time>2019-11-29T11:55:09.000Z</time>
      </trkpt>
      <trkpt lat="43.31573" lon="5.68968">
        <ele>870</ele>
        <time>2019-11-29T11:55:10.000Z</time>
      </trkpt>
      <trkpt lat="43.31574" lon="5.68968">
        <ele>870</ele>
        <time>2019-11-29T11:55:11.000Z</time>
      </trkpt>
      <trkpt lat="43.31575" lon="5.68968">
        <ele>870</ele>
        <time>2019-11-29T11:55:12.000Z</time>
      </trkpt>
      <trkpt lat="43.31576" lon="5.68968">
        <ele>870</ele>
        <time>2019-11-29T11:55:13.000Z</time>
      </trkpt>
      <trkpt lat="43.31576" lon="5.68968">
        <ele>870</ele>
        <time>2019-11-29T11:55:14.000Z</time>
      </trkpt>
      <trkpt lat="43.31577" lon="5.68968">
        <ele>870</ele>
        <time>2019-11-29T11:55:15.000Z</time>
      </trkpt>
      <trkpt lat="43.31578" lon="5.68968">
        <ele>870</ele>
        <time>2019-11-29T11:55:16.000Z</time>
      </trkpt>
      <trkpt lat="43.31579" lon="5.68968">
        <ele>870</ele>
        <time>2019-11-29T11:55:17.000Z</time>
      </trkpt>
      <trkpt lat="43.31579" lon="5.68968">
        <ele>870</ele>
        <time>2019-11-29T11:55:18.000Z</time>
      </trkpt>
      <trkpt lat="43.3158" lon="5.68968">
        <ele>870</ele>
        <time>2019-11-29T11:55:19.000Z</time>
      </trkpt>
      <trkpt lat="43.31581" lon="5.68969">
        <ele>870</ele>
        <time>2019-11-29T11:55:20.000Z</time>
      </trkpt>
      <trkpt lat="43.31582" lon="5.68969">
        <ele>870</ele>
        <time>2019-11-29T11:55:21.000Z</time>
      </trkpt>
      <trkpt lat="43.31582" lon="5.6897">
        <ele>870</ele>
        <time>2019-11-29T11:55:22.000Z</time>
      </trkpt>
      <trkpt lat="43.31583" lon="5.68971">
        <ele>870</ele>
        <time>2019-11-29T11:55:23.000Z</time>
      </trkpt>
      <trkpt lat="43.31584" lon="5.68971">
        <ele>870</ele>
        <time>2019-11-29T11:55:24.000Z</time>
      </trkpt>
      <trkpt lat="43.31584" lon="5.68972">
        <ele>870</ele>
        <time>2019-11-29T11:55:25.000Z</time>
      </trkpt>
      <trkpt lat="43.31585" lon="5.68972">
        <ele>870</ele>
        <time>2019-11-29T11:55:26.000Z</time>
      </trkpt>
      <trkpt lat="43.31586" lon="5.68973">
        <ele>870</ele>
        <time>2019-11-29T11:55:27.000Z</time>
      </trkpt>
      <trkpt lat="43.31588" lon="5.68973">
        <ele>870</ele>
        <time>2019-11-29T11:55:28.000Z</time>
      </trkpt>
      <trkpt lat="43.31589" lon="5.68974">
        <ele>870</ele>
        <time>2019-11-29T11:55:29.000Z</time>
      </trkpt>
      <trkpt lat="43.3159" lon="5.68975">
        <ele>870</ele>
        <time>2019-11-29T11:55:30.000Z</time>
      </trkpt>
      <trkpt lat="43.31591" lon="5.68975">
        <ele>870</ele>
        <time>2019-11-29T11:55:31.000Z</time>
      </trkpt>
      <trkpt lat="43.31592" lon="5.68976">
        <ele>870</ele>
        <time>2019-11-29T11:55:32.000Z</time>
      </trkpt>
      <trkpt lat="43.31593" lon="5.68977">
        <ele>869</ele>
        <time>2019-11-29T11:55:33.000Z</time>
      </trkpt>
      <trkpt lat="43.31594" lon="5.68978">
        <ele>869</ele>
        <time>2019-11-29T11:55:34.000Z</time>
      </trkpt>
      <trkpt lat="43.31595" lon="5.68978">
        <ele>869</ele>
        <time>2019-11-29T11:55:35.000Z</time>
      </trkpt>
      <trkpt lat="43.31596" lon="5.68979">
        <ele>869</ele>
        <time>2019-11-29T11:55:36.000Z</time>
      </trkpt>
      <trkpt lat="43.31596" lon="5.6898">
        <ele>869</ele>
        <time>2019-11-29T11:55:37.000Z</time>
      </trkpt>
      <trkpt lat="43.31597" lon="5.68981">
        <ele>869</ele>
        <time>2019-11-29T11:55:38.000Z</time>
      </trkpt>
      <trkpt lat="43.31598" lon="5.68981">
        <ele>869</ele>
        <time>2019-11-29T11:55:39.000Z</time>
      </trkpt>
      <trkpt lat="43.31599" lon="5.68982">
        <ele>869</ele>
        <time>2019-11-29T11:55:40.000Z</time>
      </trkpt>
      <trkpt lat="43.316" lon="5.68982">
        <ele>869</ele>
        <time>2019-11-29T11:55:41.000Z</time>
      </trkpt>
      <trkpt lat="43.31601" lon="5.68983">
        <ele>869</ele>
        <time>2019-11-29T11:55:42.000Z</time>
      </trkpt>
      <trkpt lat="43.31601" lon="5.68984">
        <ele>869</ele>
        <time>2019-11-29T11:55:43.000Z</time>
      </trkpt>
      <trkpt lat="43.31602" lon="5.68984">
        <ele>869</ele>
        <time>2019-11-29T11:55:44.000Z</time>
      </trkpt>
      <trkpt lat="43.31603" lon="5.68985">
        <ele>869</ele>
        <time>2019-11-29T11:55:45.000Z</time>
      </trkpt>
      <trkpt lat="43.31604" lon="5.68986">
        <ele>869</ele>
        <time>2019-11-29T11:55:46.000Z</time>
      </trkpt>
      <trkpt lat="43.31605" lon="5.68986">
        <ele>869</ele>
        <time>2019-11-29T11:55:47.000Z</time>
      </trkpt>
      <trkpt lat="43.31605" lon="5.68987">
        <ele>869</ele>
        <time>2019-11-29T11:55:48.000Z</time>
      </trkpt>
      <trkpt lat="43.31606" lon="5.68988">
        <ele>869</ele>
        <time>2019-11-29T11:55:49.000Z</time>
      </trkpt>
      <trkpt lat="43.31607" lon="5.68988">
        <ele>869</ele>
        <time>2019-11-29T11:55:50.000Z</time>
      </trkpt>
      <trkpt lat="43.31608" lon="5.68989">
        <ele>869</ele>
        <time>2019-11-29T11:55:51.000Z</time>
      </trkpt>
      <trkpt lat="43.31609" lon="5.68989">
        <ele>869</ele>
        <time>2019-11-29T11:55:52.000Z</time>
      </trkpt>
      <trkpt lat="43.3161" lon="5.6899">
        <ele>869</ele>
        <time>2019-11-29T11:55:53.000Z</time>
      </trkpt>
      <trkpt lat="43.31611" lon="5.68991">
        <ele>869</ele>
        <time>2019-11-29T11:55:54.000Z</time>
      </trkpt>
      <trkpt lat="43.31612" lon="5.68991">
        <ele>869</ele>
        <time>2019-11-29T11:55:55.000Z</time>
      </trkpt>
      <trkpt lat="43.31613" lon="5.68992">
        <ele>869</ele>
        <time>2019-11-29T11:55:56.000Z</time>
      </trkpt>
      <trkpt lat="43.31613" lon="5.68993">
        <ele>870</ele>
        <time>2019-11-29T11:55:57.000Z</time>
      </trkpt>
      <trkpt lat="43.31614" lon="5.68993">
        <ele>870</ele>
        <time>2019-11-29T11:55:58.000Z</time>
      </trkpt>
      <trkpt lat="43.31615" lon="5.68994">
        <ele>870</ele>
        <time>2019-11-29T11:55:59.000Z</time>
      </trkpt>
      <trkpt lat="43.31616" lon="5.68995">
        <ele>870</ele>
        <time>2019-11-29T11:56:00.000Z</time>
      </trkpt>
      <trkpt lat="43.31617" lon="5.68996">
        <ele>870</ele>
        <time>2019-11-29T11:56:01.000Z</time>
      </trkpt>
      <trkpt lat="43.31618" lon="5.68997">
        <ele>870</ele>
        <time>2019-11-29T11:56:02.000Z</time>
      </trkpt>
      <trkpt lat="43.31619" lon="5.68998">
        <ele>870</ele>
        <time>2019-11-29T11:56:03.000Z</time>
      </trkpt>
      <trkpt lat="43.31621" lon="5.68998">
        <ele>870</ele>
        <time>2019-11-29T11:56:04.000Z</time>
      </trkpt>
      <trkpt lat="43.31622" lon="5.68999">
        <ele>870</ele>
        <time>2019-11-29T11:56:05.000Z</time>
      </trkpt>
      <trkpt lat="43.31623" lon="5.68999">
        <ele>870</ele>
        <time>2019-11-29T11:56:06.000Z</time>
      </trkpt>
      <trkpt lat="43.31624" lon="5.69">
        <ele>871</ele>
        <time>2019-11-29T11:56:07.000Z</time>
      </trkpt>
      <trkpt lat="43.31624" lon="5.69001">
        <ele>871</ele>
        <time>2019-11-29T11:56:08.000Z</time>
      </trkpt>
      <trkpt lat="43.31625" lon="5.69001">
        <ele>871</ele>
        <time>2019-11-29T11:56:09.000Z</time>
      </trkpt>
      <trkpt lat="43.31626" lon="5.69002">
        <ele>871</ele>
        <time>2019-11-29T11:56:10.000Z</time>
      </trkpt>
      <trkpt lat="43.31627" lon="5.69002">
        <ele>871</ele>
        <time>2019-11-29T11:56:11.000Z</time>
      </trkpt>
      <trkpt lat="43.31628" lon="5.69003">
        <ele>871</ele>
        <time>2019-11-29T11:56:12.000Z</time>
      </trkpt>
      <trkpt lat="43.31628" lon="5.69003">
        <ele>871</ele>
        <time>2019-11-29T11:56:13.000Z</time>
      </trkpt>
      <trkpt lat="43.3163" lon="5.69004">
        <ele>871</ele>
        <time>2019-11-29T11:56:14.000Z</time>
      </trkpt>
      <trkpt lat="43.3163" lon="5.69005">
        <ele>871</ele>
        <time>2019-11-29T11:56:15.000Z</time>
      </trkpt>
      <trkpt lat="43.31631" lon="5.69005">
        <ele>872</ele>
        <time>2019-11-29T11:56:16.000Z</time>
      </trkpt>
      <trkpt lat="43.31632" lon="5.69006">
        <ele>872</ele>
        <time>2019-11-29T11:56:17.000Z</time>
      </trkpt>
      <trkpt lat="43.31633" lon="5.69007">
        <ele>872</ele>
        <time>2019-11-29T11:56:18.000Z</time>
      </trkpt>
      <trkpt lat="43.31634" lon="5.69008">
        <ele>872</ele>
        <time>2019-11-29T11:56:19.000Z</time>
      </trkpt>
      <trkpt lat="43.31635" lon="5.69008">
        <ele>872</ele>
        <time>2019-11-29T11:56:20.000Z</time>
      </trkpt>
      <trkpt lat="43.31636" lon="5.69009">
        <ele>872</ele>
        <time>2019-11-29T11:56:21.000Z</time>
      </trkpt>
      <trkpt lat="43.31637" lon="5.6901">
        <ele>872</ele>
        <time>2019-11-29T11:56:22.000Z</time>
      </trkpt>
      <trkpt lat="43.31638" lon="5.69011">
        <ele>873</ele>
        <time>2019-11-29T11:56:23.000Z</time>
      </trkpt>
      <trkpt lat="43.31638" lon="5.69012">
        <ele>873</ele>
        <time>2019-11-29T11:56:24.000Z</time>
      </trkpt>
      <trkpt lat="43.31639" lon="5.69013">
        <ele>873</ele>
        <time>2019-11-29T11:56:25.000Z</time>
      </trkpt>
      <trkpt lat="43.3164" lon="5.69013">
        <ele>873</ele>
        <time>2019-11-29T11:56:26.000Z</time>
      </trkpt>
      <trkpt lat="43.31641" lon="5.69014">
        <ele>873</ele>
        <time>2019-11-29T11:56:27.000Z</time>
      </trkpt>
      <trkpt lat="43.31642" lon="5.69015">
        <ele>873</ele>
        <time>2019-11-29T11:56:28.000Z</time>
      </trkpt>
      <trkpt lat="43.31643" lon="5.69016">
        <ele>873</ele>
        <time>2019-11-29T11:56:29.000Z</time>
      </trkpt>
      <trkpt lat="43.31644" lon="5.69017">
        <ele>873</ele>
        <time>2019-11-29T11:56:30.000Z</time>
      </trkpt>
      <trkpt lat="43.31645" lon="5.69018">
        <ele>873</ele>
        <time>2019-11-29T11:56:31.000Z</time>
      </trkpt>
      <trkpt lat="43.31646" lon="5.69019">
        <ele>873</ele>
        <time>2019-11-29T11:56:32.000Z</time>
      </trkpt>
      <trkpt lat="43.31647" lon="5.69019">
        <ele>873</ele>
        <time>2019-11-29T11:56:33.000Z</time>
      </trkpt>
      <trkpt lat="43.31648" lon="5.69021">
        <ele>873</ele>
        <time>2019-11-29T11:56:34.000Z</time>
      </trkpt>
      <trkpt lat="43.31649" lon="5.69021">
        <ele>873</ele>
        <time>2019-11-29T11:56:35.000Z</time>
      </trkpt>
      <trkpt lat="43.31649" lon="5.69022">
        <ele>873</ele>
        <time>2019-11-29T11:56:36.000Z</time>
      </trkpt>
      <trkpt lat="43.3165" lon="5.69023">
        <ele>873</ele>
        <time>2019-11-29T11:56:37.000Z</time>
      </trkpt>
      <trkpt lat="43.31651" lon="5.69023">
        <ele>873</ele>
        <time>2019-11-29T11:56:38.000Z</time>
      </trkpt>
      <trkpt lat="43.31652" lon="5.69024">
        <ele>873</ele>
        <time>2019-11-29T11:56:39.000Z</time>
      </trkpt>
      <trkpt lat="43.31653" lon="5.69024">
        <ele>873</ele>
        <time>2019-11-29T11:56:40.000Z</time>
      </trkpt>
      <trkpt lat="43.31653" lon="5.69025">
        <ele>873</ele>
        <time>2019-11-29T11:56:41.000Z</time>
      </trkpt>
      <trkpt lat="43.31654" lon="5.69024">
        <ele>873</ele>
        <time>2019-11-29T11:56:42.000Z</time>
      </trkpt>
      <trkpt lat="43.31654" lon="5.69024">
        <ele>873</ele>
        <time>2019-11-29T11:56:43.000Z</time>
      </trkpt>
      <trkpt lat="43.31654" lon="5.69025">
        <ele>873</ele>
        <time>2019-11-29T11:56:44.000Z</time>
      </trkpt>
      <trkpt lat="43.31654" lon="5.69025">
        <ele>873</ele>
        <time>2019-11-29T11:56:45.000Z</time>
      </trkpt>
      <trkpt lat="43.31654" lon="5.69025">
        <ele>873</ele>
        <time>2019-11-29T11:56:46.000Z</time>
      </trkpt>
      <trkpt lat="43.31654" lon="5.69025">
        <ele>873</ele>
        <time>2019-11-29T11:56:47.000Z</time>
      </trkpt>
      <trkpt lat="43.31654" lon="5.69025">
        <ele>873</ele>
        <time>2019-11-29T11:56:48.000Z</time>
      </trkpt>
      <trkpt lat="43.31654" lon="5.69025">
        <ele>873</ele>
        <time>2019-11-29T11:56:49.000Z</time>
      </trkpt>
      <trkpt lat="43.31654" lon="5.69025">
        <ele>873</ele>
        <time>2019-11-29T11:56:50.000Z</time>
      </trkpt>
      <trkpt lat="43.31654" lon="5.69025">
        <ele>873</ele>
        <time>2019-11-29T11:56:51.000Z</time>
      </trkpt>
      <trkpt lat="43.31654" lon="5.69025">
        <ele>873</ele>
        <time>2019-11-29T11:56:52.000Z</time>
      </trkpt>
      <trkpt lat="43.31654" lon="5.69026">
        <ele>873</ele>
        <time>2019-11-29T11:56:53.000Z</time>
      </trkpt>
      <trkpt lat="43.31654" lon="5.69026">
        <ele>874</ele>
        <time>2019-11-29T11:56:54.000Z</time>
      </trkpt>
      <trkpt lat="43.31654" lon="5.69026">
        <ele>874</ele>
        <time>2019-11-29T11:56:55.000Z</time>
      </trkpt>
      <trkpt lat="43.31654" lon="5.69026">
        <ele>874</ele>
        <time>2019-11-29T11:56:56.000Z</time>
      </trkpt>
      <trkpt lat="43.31654" lon="5.69026">
        <ele>874</ele>
        <time>2019-11-29T11:56:57.000Z</time>
      </trkpt>
      <trkpt lat="43.31654" lon="5.69026">
        <ele>874</ele>
        <time>2019-11-29T11:56:58.000Z</time>
      </trkpt>
      <trkpt lat="43.31654" lon="5.69026">
        <ele>874</ele>
        <time>2019-11-29T11:56:59.000Z</time>
      </trkpt>
      <trkpt lat="43.31654" lon="5.69026">
        <ele>874</ele>
        <time>2019-11-29T11:57:00.000Z</time>
      </trkpt>
      <trkpt lat="43.31654" lon="5.69026">
        <ele>874</ele>
        <time>2019-11-29T11:57:01.000Z</time>
      </trkpt>
      <trkpt lat="43.31654" lon="5.69026">
        <ele>874</ele>
        <time>2019-11-29T11:57:02.000Z</time>
      </trkpt>
      <trkpt lat="43.31654" lon="5.69026">
        <ele>874</ele>
        <time>2019-11-29T11:57:03.000Z</time>
      </trkpt>
      <trkpt lat="43.31654" lon="5.69026">
        <ele>874</ele>
        <time>2019-11-29T11:57:04.000Z</time>
      </trkpt>
      <trkpt lat="43.31654" lon="5.69026">
        <ele>874</ele>
        <time>2019-11-29T11:57:05.000Z</time>
      </trkpt>
      <trkpt lat="43.31654" lon="5.69026">
        <ele>874</ele>
        <time>2019-11-29T11:57:06.000Z</time>
      </trkpt>
      <trkpt lat="43.31654" lon="5.69026">
        <ele>874</ele>
        <time>2019-11-29T11:57:07.000Z</time>
      </trkpt>
      <trkpt lat="43.31654" lon="5.69026">
        <ele>874</ele>
        <time>2019-11-29T11:57:08.000Z</time>
      </trkpt>
      <trkpt lat="43.31654" lon="5.69026">
        <ele>874</ele>
        <time>2019-11-29T11:57:09.000Z</time>
      </trkpt>
      <trkpt lat="43.31654" lon="5.69026">
        <ele>874</ele>
        <time>2019-11-29T11:57:10.000Z</time>
      </trkpt>
      <trkpt lat="43.31654" lon="5.69026">
        <ele>874</ele>
        <time>2019-11-29T11:57:11.000Z</time>
      </trkpt>
      <trkpt lat="43.31654" lon="5.69026">
        <ele>874</ele>
        <time>2019-11-29T11:57:12.000Z</time>
      </trkpt>
      <trkpt lat="43.31654" lon="5.69026">
        <ele>874</ele>
        <time>2019-11-29T11:57:13.000Z</time>
      </trkpt>
      <trkpt lat="43.31654" lon="5.69026">
        <ele>874</ele>
        <time>2019-11-29T11:57:14.000Z</time>
      </trkpt>
      <trkpt lat="43.31654" lon="5.69026">
        <ele>874</ele>
        <time>2019-11-29T11:57:15.000Z</time>
      </trkpt>
      <trkpt lat="43.31654" lon="5.69026">
        <ele>874</ele>
        <time>2019-11-29T11:57:16.000Z</time>
      </trkpt>
      <trkpt lat="43.31654" lon="5.69025">
        <ele>874</ele>
        <time>2019-11-29T11:57:17.000Z</time>
      </trkpt>
      <trkpt lat="43.31654" lon="5.69025">
        <ele>874</ele>
        <time>2019-11-29T11:57:18.000Z</time>
      </trkpt>
      <trkpt lat="43.31655" lon="5.69026">
        <ele>874</ele>
        <time>2019-11-29T11:57:19.000Z</time>
      </trkpt>
      <trkpt lat="43.31655" lon="5.69027">
        <ele>875</ele>
        <time>2019-11-29T11:57:20.000Z</time>
      </trkpt>
      <trkpt lat="43.31656" lon="5.69028">
        <ele>875</ele>
        <time>2019-11-29T11:57:21.000Z</time>
      </trkpt>
      <trkpt lat="43.31657" lon="5.69029">
        <ele>875</ele>
        <time>2019-11-29T11:57:22.000Z</time>
      </trkpt>
      <trkpt lat="43.31658" lon="5.6903">
        <ele>875</ele>
        <time>2019-11-29T11:57:23.000Z</time>
      </trkpt>
      <trkpt lat="43.31659" lon="5.6903">
        <ele>875</ele>
        <time>2019-11-29T11:57:24.000Z</time>
      </trkpt>
      <trkpt lat="43.31659" lon="5.69031">
        <ele>875</ele>
        <time>2019-11-29T11:57:25.000Z</time>
      </trkpt>
      <trkpt lat="43.3166" lon="5.69032">
        <ele>875</ele>
        <time>2019-11-29T11:57:26.000Z</time>
      </trkpt>
      <trkpt lat="43.31661" lon="5.69033">
        <ele>875</ele>
        <time>2019-11-29T11:57:27.000Z</time>
      </trkpt>
      <trkpt lat="43.31662" lon="5.69034">
        <ele>875</ele>
        <time>2019-11-29T11:57:28.000Z</time>
      </trkpt>
      <trkpt lat="43.31663" lon="5.69035">
        <ele>875</ele>
        <time>2019-11-29T11:57:29.000Z</time>
      </trkpt>
      <trkpt lat="43.31663" lon="5.69035">
        <ele>875</ele>
        <time>2019-11-29T11:57:30.000Z</time>
      </trkpt>
      <trkpt lat="43.31664" lon="5.69036">
        <ele>875</ele>
        <time>2019-11-29T11:57:31.000Z</time>
      </trkpt>
      <trkpt lat="43.31665" lon="5.69037">
        <ele>875</ele>
        <time>2019-11-29T11:57:32.000Z</time>
      </trkpt>
      <trkpt lat="43.31666" lon="5.69038">
        <ele>876</ele>
        <time>2019-11-29T11:57:33.000Z</time>
      </trkpt>
      <trkpt lat="43.31667" lon="5.69039">
        <ele>876</ele>
        <time>2019-11-29T11:57:34.000Z</time>
      </trkpt>
      <trkpt lat="43.31668" lon="5.69039">
        <ele>876</ele>
        <time>2019-11-29T11:57:35.000Z</time>
      </trkpt>
      <trkpt lat="43.31669" lon="5.6904">
        <ele>875</ele>
        <time>2019-11-29T11:57:36.000Z</time>
      </trkpt>
      <trkpt lat="43.3167" lon="5.69041">
        <ele>875</ele>
        <time>2019-11-29T11:57:37.000Z</time>
      </trkpt>
      <trkpt lat="43.3167" lon="5.69042">
        <ele>876</ele>
        <time>2019-11-29T11:57:38.000Z</time>
      </trkpt>
      <trkpt lat="43.31671" lon="5.69043">
        <ele>876</ele>
        <time>2019-11-29T11:57:39.000Z</time>
      </trkpt>
      <trkpt lat="43.31672" lon="5.69043">
        <ele>876</ele>
        <time>2019-11-29T11:57:40.000Z</time>
      </trkpt>
      <trkpt lat="43.31673" lon="5.69044">
        <ele>876</ele>
        <time>2019-11-29T11:57:41.000Z</time>
      </trkpt>
      <trkpt lat="43.31674" lon="5.69045">
        <ele>876</ele>
        <time>2019-11-29T11:57:42.000Z</time>
      </trkpt>
      <trkpt lat="43.31675" lon="5.69046">
        <ele>876</ele>
        <time>2019-11-29T11:57:43.000Z</time>
      </trkpt>
      <trkpt lat="43.31676" lon="5.69047">
        <ele>876</ele>
        <time>2019-11-29T11:57:44.000Z</time>
      </trkpt>
      <trkpt lat="43.31676" lon="5.69048">
        <ele>876</ele>
        <time>2019-11-29T11:57:45.000Z</time>
      </trkpt>
      <trkpt lat="43.31677" lon="5.69049">
        <ele>876</ele>
        <time>2019-11-29T11:57:46.000Z</time>
      </trkpt>
      <trkpt lat="43.31678" lon="5.69049">
        <ele>876</ele>
        <time>2019-11-29T11:57:47.000Z</time>
      </trkpt>
      <trkpt lat="43.31679" lon="5.6905">
        <ele>876</ele>
        <time>2019-11-29T11:57:48.000Z</time>
      </trkpt>
      <trkpt lat="43.3168" lon="5.69051">
        <ele>876</ele>
        <time>2019-11-29T11:57:49.000Z</time>
      </trkpt>
      <trkpt lat="43.31681" lon="5.69052">
        <ele>876</ele>
        <time>2019-11-29T11:57:50.000Z</time>
      </trkpt>
      <trkpt lat="43.31681" lon="5.69053">
        <ele>875</ele>
        <time>2019-11-29T11:57:51.000Z</time>
      </trkpt>
      <trkpt lat="43.31682" lon="5.69053">
        <ele>875</ele>
        <time>2019-11-29T11:57:52.000Z</time>
      </trkpt>
      <trkpt lat="43.31683" lon="5.69054">
        <ele>875</ele>
        <time>2019-11-29T11:57:53.000Z</time>
      </trkpt>
      <trkpt lat="43.31684" lon="5.69055">
        <ele>875</ele>
        <time>2019-11-29T11:57:54.000Z</time>
      </trkpt>
      <trkpt lat="43.31685" lon="5.69056">
        <ele>875</ele>
        <time>2019-11-29T11:57:55.000Z</time>
      </trkpt>
      <trkpt lat="43.31686" lon="5.69056">
        <ele>875</ele>
        <time>2019-11-29T11:57:56.000Z</time>
      </trkpt>
      <trkpt lat="43.31687" lon="5.69057">
        <ele>875</ele>
        <time>2019-11-29T11:57:57.000Z</time>
      </trkpt>
      <trkpt lat="43.31688" lon="5.69058">
        <ele>875</ele>
        <time>2019-11-29T11:57:58.000Z</time>
      </trkpt>
      <trkpt lat="43.31689" lon="5.69059">
        <ele>875</ele>
        <time>2019-11-29T11:57:59.000Z</time>
      </trkpt>
      <trkpt lat="43.3169" lon="5.6906">
        <ele>875</ele>
        <time>2019-11-29T11:58:00.000Z</time>
      </trkpt>
      <trkpt lat="43.31691" lon="5.6906">
        <ele>875</ele>
        <time>2019-11-29T11:58:01.000Z</time>
      </trkpt>
      <trkpt lat="43.31692" lon="5.69061">
        <ele>875</ele>
        <time>2019-11-29T11:58:02.000Z</time>
      </trkpt>
      <trkpt lat="43.31693" lon="5.69062">
        <ele>875</ele>
        <time>2019-11-29T11:58:03.000Z</time>
      </trkpt>
      <trkpt lat="43.31693" lon="5.69063">
        <ele>875</ele>
        <time>2019-11-29T11:58:04.000Z</time>
      </trkpt>
      <trkpt lat="43.31694" lon="5.69064">
        <ele>875</ele>
        <time>2019-11-29T11:58:05.000Z</time>
      </trkpt>
      <trkpt lat="43.31695" lon="5.69065">
        <ele>875</ele>
        <time>2019-11-29T11:58:06.000Z</time>
      </trkpt>
      <trkpt lat="43.31696" lon="5.69065">
        <ele>875</ele>
        <time>2019-11-29T11:58:07.000Z</time>
      </trkpt>
      <trkpt lat="43.31697" lon="5.69066">
        <ele>875</ele>
        <time>2019-11-29T11:58:08.000Z</time>
      </trkpt>
      <trkpt lat="43.31698" lon="5.69067">
        <ele>875</ele>
        <time>2019-11-29T11:58:09.000Z</time>
      </trkpt>
      <trkpt lat="43.31699" lon="5.69068">
        <ele>874</ele>
        <time>2019-11-29T11:58:10.000Z</time>
      </trkpt>
      <trkpt lat="43.317" lon="5.69069">
        <ele>874</ele>
        <time>2019-11-29T11:58:11.000Z</time>
      </trkpt>
      <trkpt lat="43.31701" lon="5.6907">
        <ele>874</ele>
        <time>2019-11-29T11:58:12.000Z</time>
      </trkpt>
      <trkpt lat="43.31702" lon="5.6907">
        <ele>874</ele>
        <time>2019-11-29T11:58:13.000Z</time>
      </trkpt>
      <trkpt lat="43.31703" lon="5.69071">
        <ele>874</ele>
        <time>2019-11-29T11:58:14.000Z</time>
      </trkpt>
      <trkpt lat="43.31704" lon="5.69072">
        <ele>874</ele>
        <time>2019-11-29T11:58:15.000Z</time>
      </trkpt>
      <trkpt lat="43.31705" lon="5.69072">
        <ele>874</ele>
        <time>2019-11-29T11:58:16.000Z</time>
      </trkpt>
      <trkpt lat="43.31706" lon="5.69073">
        <ele>874</ele>
        <time>2019-11-29T11:58:17.000Z</time>
      </trkpt>
      <trkpt lat="43.31707" lon="5.69074">
        <ele>874</ele>
        <time>2019-11-29T11:58:18.000Z</time>
      </trkpt>
      <trkpt lat="43.31708" lon="5.69074">
        <ele>874</ele>
        <time>2019-11-29T11:58:19.000Z</time>
      </trkpt>
      <trkpt lat="43.31709" lon="5.69075">
        <ele>874</ele>
        <time>2019-11-29T11:58:20.000Z</time>
      </trkpt>
      <trkpt lat="43.3171" lon="5.69076">
        <ele>874</ele>
        <time>2019-11-29T11:58:21.000Z</time>
      </trkpt>
      <trkpt lat="43.31712" lon="5.69076">
        <ele>874</ele>
        <time>2019-11-29T11:58:22.000Z</time>
      </trkpt>
      <trkpt lat="43.31713" lon="5.69076">
        <ele>874</ele>
        <time>2019-11-29T11:58:23.000Z</time>
      </trkpt>
      <trkpt lat="43.31714" lon="5.69077">
        <ele>874</ele>
        <time>2019-11-29T11:58:24.000Z</time>
      </trkpt>
      <trkpt lat="43.31715" lon="5.69078">
        <ele>873</ele>
        <time>2019-11-29T11:58:25.000Z</time>
      </trkpt>
      <trkpt lat="43.31716" lon="5.69078">
        <ele>873</ele>
        <time>2019-11-29T11:58:26.000Z</time>
      </trkpt>
      <trkpt lat="43.31717" lon="5.69079">
        <ele>873</ele>
        <time>2019-11-29T11:58:27.000Z</time>
      </trkpt>
      <trkpt lat="43.31718" lon="5.69079">
        <ele>873</ele>
        <time>2019-11-29T11:58:28.000Z</time>
      </trkpt>
      <trkpt lat="43.3172" lon="5.6908">
        <ele>873</ele>
        <time>2019-11-29T11:58:29.000Z</time>
      </trkpt>
      <trkpt lat="43.31721" lon="5.6908">
        <ele>873</ele>
        <time>2019-11-29T11:58:30.000Z</time>
      </trkpt>
      <trkpt lat="43.31722" lon="5.6908">
        <ele>873</ele>
        <time>2019-11-29T11:58:31.000Z</time>
      </trkpt>
      <trkpt lat="43.31723" lon="5.6908">
        <ele>873</ele>
        <time>2019-11-29T11:58:32.000Z</time>
      </trkpt>
      <trkpt lat="43.31725" lon="5.6908">
        <ele>874</ele>
        <time>2019-11-29T11:58:33.000Z</time>
      </trkpt>
      <trkpt lat="43.31726" lon="5.6908">
        <ele>874</ele>
        <time>2019-11-29T11:58:34.000Z</time>
      </trkpt>
      <trkpt lat="43.31727" lon="5.6908">
        <ele>874</ele>
        <time>2019-11-29T11:58:35.000Z</time>
      </trkpt>
      <trkpt lat="43.31728" lon="5.6908">
        <ele>874</ele>
        <time>2019-11-29T11:58:36.000Z</time>
      </trkpt>
      <trkpt lat="43.31729" lon="5.6908">
        <ele>874</ele>
        <time>2019-11-29T11:58:37.000Z</time>
      </trkpt>
      <trkpt lat="43.3173" lon="5.6908">
        <ele>874</ele>
        <time>2019-11-29T11:58:38.000Z</time>
      </trkpt>
      <trkpt lat="43.31731" lon="5.6908">
        <ele>873</ele>
        <time>2019-11-29T11:58:39.000Z</time>
      </trkpt>
      <trkpt lat="43.31733" lon="5.6908">
        <ele>873</ele>
        <time>2019-11-29T11:58:40.000Z</time>
      </trkpt>
      <trkpt lat="43.31734" lon="5.6908">
        <ele>873</ele>
        <time>2019-11-29T11:58:41.000Z</time>
      </trkpt>
      <trkpt lat="43.31735" lon="5.6908">
        <ele>873</ele>
        <time>2019-11-29T11:58:42.000Z</time>
      </trkpt>
      <trkpt lat="43.31736" lon="5.69079">
        <ele>873</ele>
        <time>2019-11-29T11:58:43.000Z</time>
      </trkpt>
      <trkpt lat="43.31737" lon="5.69079">
        <ele>873</ele>
        <time>2019-11-29T11:58:44.000Z</time>
      </trkpt>
      <trkpt lat="43.31738" lon="5.69078">
        <ele>874</ele>
        <time>2019-11-29T11:58:45.000Z</time>
      </trkpt>
      <trkpt lat="43.31739" lon="5.69078">
        <ele>874</ele>
        <time>2019-11-29T11:58:46.000Z</time>
      </trkpt>
      <trkpt lat="43.3174" lon="5.69077">
        <ele>874</ele>
        <time>2019-11-29T11:58:47.000Z</time>
      </trkpt>
      <trkpt lat="43.31742" lon="5.69077">
        <ele>873</ele>
        <time>2019-11-29T11:58:48.000Z</time>
      </trkpt>
      <trkpt lat="43.31743" lon="5.69076">
        <ele>873</ele>
        <time>2019-11-29T11:58:49.000Z</time>
      </trkpt>
      <trkpt lat="43.31744" lon="5.69076">
        <ele>873</ele>
        <time>2019-11-29T11:58:50.000Z</time>
      </trkpt>
      <trkpt lat="43.31745" lon="5.69075">
        <ele>873</ele>
        <time>2019-11-29T11:58:51.000Z</time>
      </trkpt>
      <trkpt lat="43.31746" lon="5.69075">
        <ele>873</ele>
        <time>2019-11-29T11:58:52.000Z</time>
      </trkpt>
      <trkpt lat="43.31747" lon="5.69074">
        <ele>873</ele>
        <time>2019-11-29T11:58:53.000Z</time>
      </trkpt>
      <trkpt lat="43.31748" lon="5.69074">
        <ele>874</ele>
        <time>2019-11-29T11:58:54.000Z</time>
      </trkpt>
      <trkpt lat="43.31749" lon="5.69073">
        <ele>874</ele>
        <time>2019-11-29T11:58:55.000Z</time>
      </trkpt>
      <trkpt lat="43.3175" lon="5.69072">
        <ele>874</ele>
        <time>2019-11-29T11:58:56.000Z</time>
      </trkpt>
      <trkpt lat="43.31751" lon="5.69071">
        <ele>874</ele>
        <time>2019-11-29T11:58:57.000Z</time>
      </trkpt>
      <trkpt lat="43.31752" lon="5.69071">
        <ele>874</ele>
        <time>2019-11-29T11:58:58.000Z</time>
      </trkpt>
      <trkpt lat="43.31753" lon="5.6907">
        <ele>874</ele>
        <time>2019-11-29T11:58:59.000Z</time>
      </trkpt>
      <trkpt lat="43.31754" lon="5.69069">
        <ele>874</ele>
        <time>2019-11-29T11:59:00.000Z</time>
      </trkpt>
      <trkpt lat="43.31755" lon="5.69068">
        <ele>874</ele>
        <time>2019-11-29T11:59:01.000Z</time>
      </trkpt>
      <trkpt lat="43.31756" lon="5.69066">
        <ele>874</ele>
        <time>2019-11-29T11:59:02.000Z</time>
      </trkpt>
      <trkpt lat="43.31757" lon="5.69065">
        <ele>874</ele>
        <time>2019-11-29T11:59:03.000Z</time>
      </trkpt>
      <trkpt lat="43.31758" lon="5.69064">
        <ele>874</ele>
        <time>2019-11-29T11:59:04.000Z</time>
      </trkpt>
      <trkpt lat="43.31758" lon="5.69063">
        <ele>874</ele>
        <time>2019-11-29T11:59:05.000Z</time>
      </trkpt>
      <trkpt lat="43.31759" lon="5.69062">
        <ele>874</ele>
        <time>2019-11-29T11:59:06.000Z</time>
      </trkpt>
      <trkpt lat="43.3176" lon="5.69061">
        <ele>874</ele>
        <time>2019-11-29T11:59:07.000Z</time>
      </trkpt>
      <trkpt lat="43.3176" lon="5.6906">
        <ele>874</ele>
        <time>2019-11-29T11:59:08.000Z</time>
      </trkpt>
      <trkpt lat="43.31761" lon="5.69059">
        <ele>874</ele>
        <time>2019-11-29T11:59:09.000Z</time>
      </trkpt>
      <trkpt lat="43.31761" lon="5.69057">
        <ele>874</ele>
        <time>2019-11-29T11:59:10.000Z</time>
      </trkpt>
      <trkpt lat="43.31762" lon="5.69056">
        <ele>874</ele>
        <time>2019-11-29T11:59:11.000Z</time>
      </trkpt>
      <trkpt lat="43.31762" lon="5.69056">
        <ele>874</ele>
        <time>2019-11-29T11:59:12.000Z</time>
      </trkpt>
      <trkpt lat="43.31763" lon="5.69054">
        <ele>874</ele>
        <time>2019-11-29T11:59:13.000Z</time>
      </trkpt>
      <trkpt lat="43.31764" lon="5.69053">
        <ele>874</ele>
        <time>2019-11-29T11:59:14.000Z</time>
      </trkpt>
      <trkpt lat="43.31764" lon="5.69053">
        <ele>874</ele>
        <time>2019-11-29T11:59:15.000Z</time>
      </trkpt>
      <trkpt lat="43.31765" lon="5.69052">
        <ele>874</ele>
        <time>2019-11-29T11:59:16.000Z</time>
      </trkpt>
      <trkpt lat="43.31765" lon="5.69051">
        <ele>874</ele>
        <time>2019-11-29T11:59:17.000Z</time>
      </trkpt>
      <trkpt lat="43.31765" lon="5.6905">
        <ele>874</ele>
        <time>2019-11-29T11:59:18.000Z</time>
      </trkpt>
      <trkpt lat="43.31766" lon="5.69049">
        <ele>874</ele>
        <time>2019-11-29T11:59:19.000Z</time>
      </trkpt>
      <trkpt lat="43.31766" lon="5.69049">
        <ele>874</ele>
        <time>2019-11-29T11:59:20.000Z</time>
      </trkpt>
      <trkpt lat="43.31767" lon="5.69048">
        <ele>874</ele>
        <time>2019-11-29T11:59:21.000Z</time>
      </trkpt>
      <trkpt lat="43.31767" lon="5.69047">
        <ele>874</ele>
        <time>2019-11-29T11:59:22.000Z</time>
      </trkpt>
      <trkpt lat="43.31767" lon="5.69047">
        <ele>874</ele>
        <time>2019-11-29T11:59:23.000Z</time>
      </trkpt>
      <trkpt lat="43.31768" lon="5.69046">
        <ele>874</ele>
        <time>2019-11-29T11:59:24.000Z</time>
      </trkpt>
      <trkpt lat="43.31768" lon="5.69046">
        <ele>874</ele>
        <time>2019-11-29T11:59:25.000Z</time>
      </trkpt>
      <trkpt lat="43.31768" lon="5.69046">
        <ele>874</ele>
        <time>2019-11-29T11:59:26.000Z</time>
      </trkpt>
      <trkpt lat="43.31768" lon="5.69046">
        <ele>874</ele>
        <time>2019-11-29T11:59:27.000Z</time>
      </trkpt>
      <trkpt lat="43.31768" lon="5.69046">
        <ele>874</ele>
        <time>2019-11-29T11:59:28.000Z</time>
      </trkpt>
      <trkpt lat="43.31768" lon="5.69046">
        <ele>874</ele>
        <time>2019-11-29T11:59:29.000Z</time>
      </trkpt>
      <trkpt lat="43.31768" lon="5.69046">
        <ele>874</ele>
        <time>2019-11-29T11:59:30.000Z</time>
      </trkpt>
      <trkpt lat="43.31768" lon="5.69046">
        <ele>874</ele>
        <time>2019-11-29T11:59:31.000Z</time>
      </trkpt>
      <trkpt lat="43.31768" lon="5.69046">
        <ele>874</ele>
        <time>2019-11-29T11:59:32.000Z</time>
      </trkpt>
      <trkpt lat="43.31768" lon="5.69046">
        <ele>873</ele>
        <time>2019-11-29T11:59:33.000Z</time>
      </trkpt>
      <trkpt lat="43.31768" lon="5.69045">
        <ele>873</ele>
        <time>2019-11-29T11:59:34.000Z</time>
      </trkpt>
      <trkpt lat="43.31769" lon="5.69045">
        <ele>873</ele>
        <time>2019-11-29T11:59:35.000Z</time>
      </trkpt>
      <trkpt lat="43.31769" lon="5.69044">
        <ele>873</ele>
        <time>2019-11-29T11:59:36.000Z</time>
      </trkpt>
      <trkpt lat="43.31769" lon="5.69043">
        <ele>873</ele>
        <time>2019-11-29T11:59:37.000Z</time>
      </trkpt>
      <trkpt lat="43.3177" lon="5.69042">
        <ele>873</ele>
        <time>2019-11-29T11:59:38.000Z</time>
      </trkpt>
      <trkpt lat="43.3177" lon="5.69041">
        <ele>873</ele>
        <time>2019-11-29T11:59:39.000Z</time>
      </trkpt>
      <trkpt lat="43.31771" lon="5.6904">
        <ele>873</ele>
        <time>2019-11-29T11:59:40.000Z</time>
      </trkpt>
      <trkpt lat="43.31771" lon="5.69039">
        <ele>873</ele>
        <time>2019-11-29T11:59:41.000Z</time>
      </trkpt>
      <trkpt lat="43.31771" lon="5.69038">
        <ele>873</ele>
        <time>2019-11-29T11:59:42.000Z</time>
      </trkpt>
      <trkpt lat="43.31771" lon="5.69037">
        <ele>872</ele>
        <time>2019-11-29T11:59:43.000Z</time>
      </trkpt>
      <trkpt lat="43.31772" lon="5.69036">
        <ele>872</ele>
        <time>2019-11-29T11:59:44.000Z</time>
      </trkpt>
      <trkpt lat="43.31772" lon="5.69035">
        <ele>872</ele>
        <time>2019-11-29T11:59:45.000Z</time>
      </trkpt>
      <trkpt lat="43.31772" lon="5.69034">
        <ele>872</ele>
        <time>2019-11-29T11:59:46.000Z</time>
      </trkpt>
      <trkpt lat="43.31772" lon="5.69033">
        <ele>872</ele>
        <time>2019-11-29T11:59:47.000Z</time>
      </trkpt>
      <trkpt lat="43.31772" lon="5.69032">
        <ele>872</ele>
        <time>2019-11-29T11:59:48.000Z</time>
      </trkpt>
      <trkpt lat="43.31772" lon="5.69031">
        <ele>872</ele>
        <time>2019-11-29T11:59:49.000Z</time>
      </trkpt>
      <trkpt lat="43.31772" lon="5.6903">
        <ele>871</ele>
        <time>2019-11-29T11:59:50.000Z</time>
      </trkpt>
      <trkpt lat="43.31773" lon="5.69029">
        <ele>871</ele>
        <time>2019-11-29T11:59:51.000Z</time>
      </trkpt>
      <trkpt lat="43.31773" lon="5.69028">
        <ele>871</ele>
        <time>2019-11-29T11:59:52.000Z</time>
      </trkpt>
      <trkpt lat="43.31773" lon="5.69027">
        <ele>871</ele>
        <time>2019-11-29T11:59:53.000Z</time>
      </trkpt>
      <trkpt lat="43.31773" lon="5.69026">
        <ele>871</ele>
        <time>2019-11-29T11:59:54.000Z</time>
      </trkpt>
      <trkpt lat="43.31774" lon="5.69025">
        <ele>871</ele>
        <time>2019-11-29T11:59:55.000Z</time>
      </trkpt>
      <trkpt lat="43.31774" lon="5.69024">
        <ele>871</ele>
        <time>2019-11-29T11:59:56.000Z</time>
      </trkpt>
      <trkpt lat="43.31774" lon="5.69023">
        <ele>871</ele>
        <time>2019-11-29T11:59:57.000Z</time>
      </trkpt>
      <trkpt lat="43.31774" lon="5.69023">
        <ele>870</ele>
        <time>2019-11-29T11:59:58.000Z</time>
      </trkpt>
      <trkpt lat="43.31775" lon="5.69022">
        <ele>870</ele>
        <time>2019-11-29T11:59:59.000Z</time>
      </trkpt>
      <trkpt lat="43.31775" lon="5.69021">
        <ele>870</ele>
        <time>2019-11-29T12:00:00.000Z</time>
      </trkpt>
      <trkpt lat="43.31775" lon="5.6902">
        <ele>870</ele>
        <time>2019-11-29T12:00:01.000Z</time>
      </trkpt>
      <trkpt lat="43.31776" lon="5.6902">
        <ele>870</ele>
        <time>2019-11-29T12:00:02.000Z</time>
      </trkpt>
      <trkpt lat="43.31776" lon="5.69019">
        <ele>870</ele>
        <time>2019-11-29T12:00:03.000Z</time>
      </trkpt>
      <trkpt lat="43.31776" lon="5.69018">
        <ele>869</ele>
        <time>2019-11-29T12:00:04.000Z</time>
      </trkpt>
      <trkpt lat="43.31777" lon="5.69017">
        <ele>869</ele>
        <time>2019-11-29T12:00:05.000Z</time>
      </trkpt>
      <trkpt lat="43.31777" lon="5.69017">
        <ele>869</ele>
        <time>2019-11-29T12:00:06.000Z</time>
      </trkpt>
      <trkpt lat="43.31777" lon="5.69016">
        <ele>869</ele>
        <time>2019-11-29T12:00:07.000Z</time>
      </trkpt>
      <trkpt lat="43.31777" lon="5.69014">
        <ele>869</ele>
        <time>2019-11-29T12:00:08.000Z</time>
      </trkpt>
      <trkpt lat="43.31778" lon="5.69014">
        <ele>869</ele>
        <time>2019-11-29T12:00:09.000Z</time>
      </trkpt>
      <trkpt lat="43.31778" lon="5.69013">
        <ele>868</ele>
        <time>2019-11-29T12:00:10.000Z</time>
      </trkpt>
      <trkpt lat="43.31778" lon="5.69012">
        <ele>868</ele>
        <time>2019-11-29T12:00:11.000Z</time>
      </trkpt>
      <trkpt lat="43.31779" lon="5.6901">
        <ele>868</ele>
        <time>2019-11-29T12:00:12.000Z</time>
      </trkpt>
      <trkpt lat="43.31779" lon="5.69009">
        <ele>868</ele>
        <time>2019-11-29T12:00:13.000Z</time>
      </trkpt>
      <trkpt lat="43.31779" lon="5.69008">
        <ele>867</ele>
        <time>2019-11-29T12:00:14.000Z</time>
      </trkpt>
      <trkpt lat="43.31779" lon="5.69007">
        <ele>867</ele>
        <time>2019-11-29T12:00:15.000Z</time>
      </trkpt>
      <trkpt lat="43.31779" lon="5.69007">
        <ele>867</ele>
        <time>2019-11-29T12:00:16.000Z</time>
      </trkpt>
      <trkpt lat="43.3178" lon="5.69006">
        <ele>867</ele>
        <time>2019-11-29T12:00:17.000Z</time>
      </trkpt>
      <trkpt lat="43.3178" lon="5.69005">
        <ele>867</ele>
        <time>2019-11-29T12:00:18.000Z</time>
      </trkpt>
      <trkpt lat="43.3178" lon="5.69004">
        <ele>867</ele>
        <time>2019-11-29T12:00:19.000Z</time>
      </trkpt>
      <trkpt lat="43.3178" lon="5.69003">
        <ele>866</ele>
        <time>2019-11-29T12:00:20.000Z</time>
      </trkpt>
      <trkpt lat="43.3178" lon="5.69002">
        <ele>866</ele>
        <time>2019-11-29T12:00:21.000Z</time>
      </trkpt>
      <trkpt lat="43.31781" lon="5.69001">
        <ele>866</ele>
        <time>2019-11-29T12:00:22.000Z</time>
      </trkpt>
      <trkpt lat="43.31781" lon="5.69">
        <ele>866</ele>
        <time>2019-11-29T12:00:23.000Z</time>
      </trkpt>
      <trkpt lat="43.31781" lon="5.69">
        <ele>866</ele>
        <time>2019-11-29T12:00:24.000Z</time>
      </trkpt>
      <trkpt lat="43.31781" lon="5.68999">
        <ele>865</ele>
        <time>2019-11-29T12:00:25.000Z</time>
      </trkpt>
      <trkpt lat="43.31781" lon="5.68998">
        <ele>865</ele>
        <time>2019-11-29T12:00:26.000Z</time>
      </trkpt>
      <trkpt lat="43.31782" lon="5.68997">
        <ele>865</ele>
        <time>2019-11-29T12:00:27.000Z</time>
      </trkpt>
      <trkpt lat="43.31782" lon="5.68996">
        <ele>865</ele>
        <time>2019-11-29T12:00:28.000Z</time>
      </trkpt>
      <trkpt lat="43.31782" lon="5.68995">
        <ele>865</ele>
        <time>2019-11-29T12:00:29.000Z</time>
      </trkpt>
      <trkpt lat="43.31782" lon="5.68994">
        <ele>865</ele>
        <time>2019-11-29T12:00:30.000Z</time>
      </trkpt>
      <trkpt lat="43.31783" lon="5.68993">
        <ele>864</ele>
        <time>2019-11-29T12:00:31.000Z</time>
      </trkpt>
      <trkpt lat="43.31783" lon="5.68991">
        <ele>864</ele>
        <time>2019-11-29T12:00:32.000Z</time>
      </trkpt>
      <trkpt lat="43.31783" lon="5.6899">
        <ele>864</ele>
        <time>2019-11-29T12:00:33.000Z</time>
      </trkpt>
      <trkpt lat="43.31784" lon="5.68989">
        <ele>864</ele>
        <time>2019-11-29T12:00:34.000Z</time>
      </trkpt>
      <trkpt lat="43.31784" lon="5.68988">
        <ele>864</ele>
        <time>2019-11-29T12:00:35.000Z</time>
      </trkpt>
      <trkpt lat="43.31784" lon="5.68986">
        <ele>864</ele>
        <time>2019-11-29T12:00:36.000Z</time>
      </trkpt>
      <trkpt lat="43.31784" lon="5.68985">
        <ele>864</ele>
        <time>2019-11-29T12:00:37.000Z</time>
      </trkpt>
      <trkpt lat="43.31784" lon="5.68984">
        <ele>863</ele>
        <time>2019-11-29T12:00:38.000Z</time>
      </trkpt>
      <trkpt lat="43.31784" lon="5.68984">
        <ele>863</ele>
        <time>2019-11-29T12:00:39.000Z</time>
      </trkpt>
      <trkpt lat="43.31785" lon="5.68984">
        <ele>863</ele>
        <time>2019-11-29T12:00:40.000Z</time>
      </trkpt>
      <trkpt lat="43.31785" lon="5.68984">
        <ele>863</ele>
        <time>2019-11-29T12:00:41.000Z</time>
      </trkpt>
      <trkpt lat="43.31785" lon="5.68984">
        <ele>863</ele>
        <time>2019-11-29T12:00:42.000Z</time>
      </trkpt>
      <trkpt lat="43.31785" lon="5.68984">
        <ele>863</ele>
        <time>2019-11-29T12:00:43.000Z</time>
      </trkpt>
      <trkpt lat="43.31785" lon="5.68983">
        <ele>863</ele>
        <time>2019-11-29T12:00:44.000Z</time>
      </trkpt>
      <trkpt lat="43.31785" lon="5.68983">
        <ele>863</ele>
        <time>2019-11-29T12:00:45.000Z</time>
      </trkpt>
      <trkpt lat="43.31785" lon="5.68983">
        <ele>863</ele>
        <time>2019-11-29T12:00:46.000Z</time>
      </trkpt>
      <trkpt lat="43.31785" lon="5.68983">
        <ele>863</ele>
        <time>2019-11-29T12:00:47.000Z</time>
      </trkpt>
      <trkpt lat="43.31785" lon="5.68983">
        <ele>863</ele>
        <time>2019-11-29T12:00:48.000Z</time>
      </trkpt>
      <trkpt lat="43.31785" lon="5.68983">
        <ele>863</ele>
        <time>2019-11-29T12:00:49.000Z</time>
      </trkpt>
      <trkpt lat="43.31785" lon="5.68983">
        <ele>863</ele>
        <time>2019-11-29T12:00:50.000Z</time>
      </trkpt>
      <trkpt lat="43.31785" lon="5.68983">
        <ele>863</ele>
        <time>2019-11-29T12:00:51.000Z</time>
      </trkpt>
      <trkpt lat="43.31785" lon="5.68983">
        <ele>863</ele>
        <time>2019-11-29T12:00:52.000Z</time>
      </trkpt>
      <trkpt lat="43.31785" lon="5.68983">
        <ele>863</ele>
        <time>2019-11-29T12:00:53.000Z</time>
      </trkpt>
      <trkpt lat="43.31785" lon="5.68983">
        <ele>863</ele>
        <time>2019-11-29T12:00:54.000Z</time>
      </trkpt>
      <trkpt lat="43.31785" lon="5.68983">
        <ele>863</ele>
        <time>2019-11-29T12:00:55.000Z</time>
      </trkpt>
      <trkpt lat="43.31785" lon="5.68983">
        <ele>863</ele>
        <time>2019-11-29T12:00:56.000Z</time>
      </trkpt>
      <trkpt lat="43.31785" lon="5.68983">
        <ele>863</ele>
        <time>2019-11-29T12:00:57.000Z</time>
      </trkpt>
      <trkpt lat="43.31785" lon="5.68983">
        <ele>863</ele>
        <time>2019-11-29T12:00:58.000Z</time>
      </trkpt>
      <trkpt lat="43.31785" lon="5.68982">
        <ele>863</ele>
        <time>2019-11-29T12:00:59.000Z</time>
      </trkpt>
      <trkpt lat="43.31784" lon="5.68982">
        <ele>863</ele>
        <time>2019-11-29T12:01:00.000Z</time>
      </trkpt>
      <trkpt lat="43.31784" lon="5.68981">
        <ele>863</ele>
        <time>2019-11-29T12:01:01.000Z</time>
      </trkpt>
      <trkpt lat="43.31784" lon="5.6898">
        <ele>863</ele>
        <time>2019-11-29T12:01:02.000Z</time>
      </trkpt>
      <trkpt lat="43.31783" lon="5.68978">
        <ele>862</ele>
        <time>2019-11-29T12:01:03.000Z</time>
      </trkpt>
      <trkpt lat="43.31782" lon="5.68977">
        <ele>862</ele>
        <time>2019-11-29T12:01:04.000Z</time>
      </trkpt>
      <trkpt lat="43.31782" lon="5.68976">
        <ele>862</ele>
        <time>2019-11-29T12:01:05.000Z</time>
      </trkpt>
      <trkpt lat="43.31782" lon="5.68974">
        <ele>862</ele>
        <time>2019-11-29T12:01:06.000Z</time>
      </trkpt>
      <trkpt lat="43.31782" lon="5.68973">
        <ele>862</ele>
        <time>2019-11-29T12:01:07.000Z</time>
      </trkpt>
      <trkpt lat="43.31781" lon="5.68971">
        <ele>862</ele>
        <time>2019-11-29T12:01:08.000Z</time>
      </trkpt>
      <trkpt lat="43.31781" lon="5.6897">
        <ele>862</ele>
        <time>2019-11-29T12:01:09.000Z</time>
      </trkpt>
      <trkpt lat="43.3178" lon="5.68968">
        <ele>862</ele>
        <time>2019-11-29T12:01:10.000Z</time>
      </trkpt>
      <trkpt lat="43.3178" lon="5.68967">
        <ele>861</ele>
        <time>2019-11-29T12:01:11.000Z</time>
      </trkpt>
      <trkpt lat="43.3178" lon="5.68966">
        <ele>861</ele>
        <time>2019-11-29T12:01:12.000Z</time>
      </trkpt>
      <trkpt lat="43.31779" lon="5.68965">
        <ele>861</ele>
        <time>2019-11-29T12:01:13.000Z</time>
      </trkpt>
      <trkpt lat="43.31779" lon="5.68963">
        <ele>861</ele>
        <time>2019-11-29T12:01:14.000Z</time>
      </trkpt>
      <trkpt lat="43.31778" lon="5.68962">
        <ele>861</ele>
        <time>2019-11-29T12:01:15.000Z</time>
      </trkpt>
      <trkpt lat="43.31778" lon="5.68961">
        <ele>861</ele>
        <time>2019-11-29T12:01:16.000Z</time>
      </trkpt>
      <trkpt lat="43.31777" lon="5.68959">
        <ele>861</ele>
        <time>2019-11-29T12:01:17.000Z</time>
      </trkpt>
      <trkpt lat="43.31777" lon="5.68958">
        <ele>861</ele>
        <time>2019-11-29T12:01:18.000Z</time>
      </trkpt>
      <trkpt lat="43.31776" lon="5.68956">
        <ele>861</ele>
        <time>2019-11-29T12:01:19.000Z</time>
      </trkpt>
      <trkpt lat="43.31776" lon="5.68955">
        <ele>861</ele>
        <time>2019-11-29T12:01:20.000Z</time>
      </trkpt>
      <trkpt lat="43.31775" lon="5.68954">
        <ele>861</ele>
        <time>2019-11-29T12:01:21.000Z</time>
      </trkpt>
      <trkpt lat="43.31775" lon="5.68953">
        <ele>861</ele>
        <time>2019-11-29T12:01:22.000Z</time>
      </trkpt>
      <trkpt lat="43.31774" lon="5.68952">
        <ele>861</ele>
        <time>2019-11-29T12:01:23.000Z</time>
      </trkpt>
      <trkpt lat="43.31774" lon="5.6895">
        <ele>861</ele>
        <time>2019-11-29T12:01:24.000Z</time>
      </trkpt>
      <trkpt lat="43.31773" lon="5.68949">
        <ele>861</ele>
        <time>2019-11-29T12:01:25.000Z</time>
      </trkpt>
      <trkpt lat="43.31773" lon="5.68948">
        <ele>861</ele>
        <time>2019-11-29T12:01:26.000Z</time>
      </trkpt>
      <trkpt lat="43.31772" lon="5.68946">
        <ele>861</ele>
        <time>2019-11-29T12:01:27.000Z</time>
      </trkpt>
      <trkpt lat="43.31771" lon="5.68945">
        <ele>860</ele>
        <time>2019-11-29T12:01:28.000Z</time>
      </trkpt>
      <trkpt lat="43.31771" lon="5.68944">
        <ele>860</ele>
        <time>2019-11-29T12:01:29.000Z</time>
      </trkpt>
      <trkpt lat="43.3177" lon="5.68943">
        <ele>860</ele>
        <time>2019-11-29T12:01:30.000Z</time>
      </trkpt>
      <trkpt lat="43.3177" lon="5.68941">
        <ele>860</ele>
        <time>2019-11-29T12:01:31.000Z</time>
      </trkpt>
      <trkpt lat="43.31769" lon="5.6894">
        <ele>860</ele>
        <time>2019-11-29T12:01:32.000Z</time>
      </trkpt>
      <trkpt lat="43.31769" lon="5.68939">
        <ele>860</ele>
        <time>2019-11-29T12:01:33.000Z</time>
      </trkpt>
      <trkpt lat="43.31768" lon="5.68938">
        <ele>860</ele>
        <time>2019-11-29T12:01:34.000Z</time>
      </trkpt>
      <trkpt lat="43.31767" lon="5.68937">
        <ele>860</ele>
        <time>2019-11-29T12:01:35.000Z</time>
      </trkpt>
      <trkpt lat="43.31767" lon="5.68935">
        <ele>860</ele>
        <time>2019-11-29T12:01:36.000Z</time>
      </trkpt>
      <trkpt lat="43.31766" lon="5.68934">
        <ele>860</ele>
        <time>2019-11-29T12:01:37.000Z</time>
      </trkpt>
      <trkpt lat="43.31765" lon="5.68933">
        <ele>859</ele>
        <time>2019-11-29T12:01:38.000Z</time>
      </trkpt>
      <trkpt lat="43.31765" lon="5.68932">
        <ele>859</ele>
        <time>2019-11-29T12:01:39.000Z</time>
      </trkpt>
      <trkpt lat="43.31764" lon="5.6893">
        <ele>859</ele>
        <time>2019-11-29T12:01:40.000Z</time>
      </trkpt>
      <trkpt lat="43.31763" lon="5.68929">
        <ele>859</ele>
        <time>2019-11-29T12:01:41.000Z</time>
      </trkpt>
      <trkpt lat="43.31763" lon="5.68928">
        <ele>859</ele>
        <time>2019-11-29T12:01:42.000Z</time>
      </trkpt>
      <trkpt lat="43.31762" lon="5.68927">
        <ele>859</ele>
        <time>2019-11-29T12:01:43.000Z</time>
      </trkpt>
      <trkpt lat="43.31762" lon="5.68926">
        <ele>859</ele>
        <time>2019-11-29T12:01:44.000Z</time>
      </trkpt>
      <trkpt lat="43.31762" lon="5.68926">
        <ele>859</ele>
        <time>2019-11-29T12:01:45.000Z</time>
      </trkpt>
      <trkpt lat="43.31762" lon="5.68926">
        <ele>859</ele>
        <time>2019-11-29T12:01:46.000Z</time>
      </trkpt>
      <trkpt lat="43.31762" lon="5.68926">
        <ele>859</ele>
        <time>2019-11-29T12:01:47.000Z</time>
      </trkpt>
      <trkpt lat="43.31762" lon="5.68926">
        <ele>859</ele>
        <time>2019-11-29T12:01:48.000Z</time>
      </trkpt>
      <trkpt lat="43.31762" lon="5.68926">
        <ele>859</ele>
        <time>2019-11-29T12:01:49.000Z</time>
      </trkpt>
      <trkpt lat="43.31762" lon="5.68926">
        <ele>859</ele>
        <time>2019-11-29T12:01:50.000Z</time>
      </trkpt>
      <trkpt lat="43.31762" lon="5.68926">
        <ele>859</ele>
        <time>2019-11-29T12:01:51.000Z</time>
      </trkpt>
      <trkpt lat="43.31762" lon="5.68926">
        <ele>859</ele>
        <time>2019-11-29T12:01:52.000Z</time>
      </trkpt>
      <trkpt lat="43.31762" lon="5.68926">
        <ele>859</ele>
        <time>2019-11-29T12:01:53.000Z</time>
      </trkpt>
      <trkpt lat="43.31762" lon="5.68926">
        <ele>859</ele>
        <time>2019-11-29T12:01:54.000Z</time>
      </trkpt>
      <trkpt lat="43.31762" lon="5.68926">
        <ele>859</ele>
        <time>2019-11-29T12:01:55.000Z</time>
      </trkpt>
      <trkpt lat="43.31762" lon="5.68926">
        <ele>859</ele>
        <time>2019-11-29T12:01:56.000Z</time>
      </trkpt>
      <trkpt lat="43.31762" lon="5.68926">
        <ele>859</ele>
        <time>2019-11-29T12:01:57.000Z</time>
      </trkpt>
      <trkpt lat="43.31762" lon="5.68926">
        <ele>859</ele>
        <time>2019-11-29T12:01:58.000Z</time>
      </trkpt>
      <trkpt lat="43.31762" lon="5.68926">
        <ele>859</ele>
        <time>2019-11-29T12:01:59.000Z</time>
      </trkpt>
      <trkpt lat="43.31762" lon="5.68926">
        <ele>859</ele>
        <time>2019-11-29T12:02:00.000Z</time>
      </trkpt>
      <trkpt lat="43.31762" lon="5.68926">
        <ele>859</ele>
        <time>2019-11-29T12:02:01.000Z</time>
      </trkpt>
      <trkpt lat="43.31762" lon="5.68926">
        <ele>859</ele>
        <time>2019-11-29T12:02:02.000Z</time>
      </trkpt>
      <trkpt lat="43.31762" lon="5.68926">
        <ele>859</ele>
        <time>2019-11-29T12:02:03.000Z</time>
      </trkpt>
      <trkpt lat="43.31762" lon="5.68926">
        <ele>859</ele>
        <time>2019-11-29T12:02:04.000Z</time>
      </trkpt>
      <trkpt lat="43.31762" lon="5.68925">
        <ele>859</ele>
        <time>2019-11-29T12:02:05.000Z</time>
      </trkpt>
      <trkpt lat="43.31763" lon="5.68925">
        <ele>859</ele>
        <time>2019-11-29T12:02:06.000Z</time>
      </trkpt>
      <trkpt lat="43.31764" lon="5.68926">
        <ele>859</ele>
        <time>2019-11-29T12:02:07.000Z</time>
      </trkpt>
      <trkpt lat="43.31764" lon="5.68926">
        <ele>859</ele>
        <time>2019-11-29T12:02:08.000Z</time>
      </trkpt>
      <trkpt lat="43.31765" lon="5.68926">
        <ele>859</ele>
        <time>2019-11-29T12:02:09.000Z</time>
      </trkpt>
      <trkpt lat="43.31766" lon="5.68926">
        <ele>859</ele>
        <time>2019-11-29T12:02:10.000Z</time>
      </trkpt>
      <trkpt lat="43.31766" lon="5.68925">
        <ele>859</ele>
        <time>2019-11-29T12:02:11.000Z</time>
      </trkpt>
      <trkpt lat="43.31767" lon="5.68925">
        <ele>859</ele>
        <time>2019-11-29T12:02:12.000Z</time>
      </trkpt>
      <trkpt lat="43.31767" lon="5.68924">
        <ele>859</ele>
        <time>2019-11-29T12:02:13.000Z</time>
      </trkpt>
      <trkpt lat="43.31768" lon="5.68923">
        <ele>859</ele>
        <time>2019-11-29T12:02:14.000Z</time>
      </trkpt>
      <trkpt lat="43.31768" lon="5.68923">
        <ele>859</ele>
        <time>2019-11-29T12:02:15.000Z</time>
      </trkpt>
      <trkpt lat="43.31769" lon="5.68922">
        <ele>859</ele>
        <time>2019-11-29T12:02:16.000Z</time>
      </trkpt>
      <trkpt lat="43.3177" lon="5.68922">
        <ele>859</ele>
        <time>2019-11-29T12:02:17.000Z</time>
      </trkpt>
      <trkpt lat="43.31771" lon="5.68922">
        <ele>859</ele>
        <time>2019-11-29T12:02:18.000Z</time>
      </trkpt>
      <trkpt lat="43.31772" lon="5.68921">
        <ele>859</ele>
        <time>2019-11-29T12:02:19.000Z</time>
      </trkpt>
      <trkpt lat="43.31772" lon="5.68921">
        <ele>859</ele>
        <time>2019-11-29T12:02:20.000Z</time>
      </trkpt>
      <trkpt lat="43.31773" lon="5.68921">
        <ele>859</ele>
        <time>2019-11-29T12:02:21.000Z</time>
      </trkpt>
      <trkpt lat="43.31773" lon="5.6892">
        <ele>859</ele>
        <time>2019-11-29T12:02:22.000Z</time>
      </trkpt>
      <trkpt lat="43.31773" lon="5.6892">
        <ele>859</ele>
        <time>2019-11-29T12:02:23.000Z</time>
      </trkpt>
      <trkpt lat="43.31773" lon="5.68919">
        <ele>858</ele>
        <time>2019-11-29T12:02:24.000Z</time>
      </trkpt>
      <trkpt lat="43.31773" lon="5.68917">
        <ele>858</ele>
        <time>2019-11-29T12:02:25.000Z</time>
      </trkpt>
      <trkpt lat="43.31774" lon="5.68916">
        <ele>858</ele>
        <time>2019-11-29T12:02:26.000Z</time>
      </trkpt>
      <trkpt lat="43.31774" lon="5.68915">
        <ele>858</ele>
        <time>2019-11-29T12:02:27.000Z</time>
      </trkpt>
      <trkpt lat="43.31774" lon="5.68914">
        <ele>858</ele>
        <time>2019-11-29T12:02:28.000Z</time>
      </trkpt>
      <trkpt lat="43.31774" lon="5.68913">
        <ele>857</ele>
        <time>2019-11-29T12:02:29.000Z</time>
      </trkpt>
      <trkpt lat="43.31775" lon="5.68913">
        <ele>857</ele>
        <time>2019-11-29T12:02:30.000Z</time>
      </trkpt>
      <trkpt lat="43.31775" lon="5.68912">
        <ele>857</ele>
        <time>2019-11-29T12:02:31.000Z</time>
      </trkpt>
      <trkpt lat="43.31776" lon="5.68912">
        <ele>857</ele>
        <time>2019-11-29T12:02:32.000Z</time>
      </trkpt>
      <trkpt lat="43.31777" lon="5.68912">
        <ele>857</ele>
        <time>2019-11-29T12:02:33.000Z</time>
      </trkpt>
      <trkpt lat="43.31777" lon="5.68911">
        <ele>856</ele>
        <time>2019-11-29T12:02:34.000Z</time>
      </trkpt>
      <trkpt lat="43.31778" lon="5.68911">
        <ele>856</ele>
        <time>2019-11-29T12:02:35.000Z</time>
      </trkpt>
      <trkpt lat="43.31778" lon="5.6891">
        <ele>856</ele>
        <time>2019-11-29T12:02:36.000Z</time>
      </trkpt>
      <trkpt lat="43.31779" lon="5.6891">
        <ele>856</ele>
        <time>2019-11-29T12:02:37.000Z</time>
      </trkpt>
      <trkpt lat="43.31779" lon="5.68909">
        <ele>856</ele>
        <time>2019-11-29T12:02:38.000Z</time>
      </trkpt>
      <trkpt lat="43.3178" lon="5.68908">
        <ele>856</ele>
        <time>2019-11-29T12:02:39.000Z</time>
      </trkpt>
      <trkpt lat="43.3178" lon="5.68907">
        <ele>855</ele>
        <time>2019-11-29T12:02:40.000Z</time>
      </trkpt>
      <trkpt lat="43.3178" lon="5.68907">
        <ele>855</ele>
        <time>2019-11-29T12:02:41.000Z</time>
      </trkpt>
      <trkpt lat="43.3178" lon="5.68906">
        <ele>855</ele>
        <time>2019-11-29T12:02:42.000Z</time>
      </trkpt>
      <trkpt lat="43.3178" lon="5.68905">
        <ele>855</ele>
        <time>2019-11-29T12:02:43.000Z</time>
      </trkpt>
      <trkpt lat="43.3178" lon="5.68904">
        <ele>855</ele>
        <time>2019-11-29T12:02:44.000Z</time>
      </trkpt>
      <trkpt lat="43.3178" lon="5.68903">
        <ele>854</ele>
        <time>2019-11-29T12:02:45.000Z</time>
      </trkpt>
      <trkpt lat="43.3178" lon="5.68902">
        <ele>854</ele>
        <time>2019-11-29T12:02:46.000Z</time>
      </trkpt>
      <trkpt lat="43.3178" lon="5.68901">
        <ele>854</ele>
        <time>2019-11-29T12:02:47.000Z</time>
      </trkpt>
      <trkpt lat="43.31781" lon="5.68901">
        <ele>854</ele>
        <time>2019-11-29T12:02:48.000Z</time>
      </trkpt>
      <trkpt lat="43.31781" lon="5.689">
        <ele>853</ele>
        <time>2019-11-29T12:02:49.000Z</time>
      </trkpt>
      <trkpt lat="43.31781" lon="5.68899">
        <ele>853</ele>
        <time>2019-11-29T12:02:50.000Z</time>
      </trkpt>
      <trkpt lat="43.31781" lon="5.68899">
        <ele>853</ele>
        <time>2019-11-29T12:02:51.000Z</time>
      </trkpt>
      <trkpt lat="43.31781" lon="5.68898">
        <ele>853</ele>
        <time>2019-11-29T12:02:52.000Z</time>
      </trkpt>
      <trkpt lat="43.31781" lon="5.68897">
        <ele>853</ele>
        <time>2019-11-29T12:02:53.000Z</time>
      </trkpt>
      <trkpt lat="43.31781" lon="5.68896">
        <ele>853</ele>
        <time>2019-11-29T12:02:54.000Z</time>
      </trkpt>
      <trkpt lat="43.31781" lon="5.68895">
        <ele>852</ele>
        <time>2019-11-29T12:02:55.000Z</time>
      </trkpt>
      <trkpt lat="43.31782" lon="5.68895">
        <ele>852</ele>
        <time>2019-11-29T12:02:56.000Z</time>
      </trkpt>
      <trkpt lat="43.31782" lon="5.68895">
        <ele>852</ele>
        <time>2019-11-29T12:02:57.000Z</time>
      </trkpt>
      <trkpt lat="43.31782" lon="5.68894">
        <ele>852</ele>
        <time>2019-11-29T12:02:58.000Z</time>
      </trkpt>
      <trkpt lat="43.31783" lon="5.68893">
        <ele>852</ele>
        <time>2019-11-29T12:02:59.000Z</time>
      </trkpt>
      <trkpt lat="43.31783" lon="5.68891">
        <ele>851</ele>
        <time>2019-11-29T12:03:00.000Z</time>
      </trkpt>
      <trkpt lat="43.31783" lon="5.6889">
        <ele>851</ele>
        <time>2019-11-29T12:03:01.000Z</time>
      </trkpt>
      <trkpt lat="43.31782" lon="5.68888">
        <ele>851</ele>
        <time>2019-11-29T12:03:02.000Z</time>
      </trkpt>
      <trkpt lat="43.31781" lon="5.68887">
        <ele>851</ele>
        <time>2019-11-29T12:03:03.000Z</time>
      </trkpt>
      <trkpt lat="43.31781" lon="5.68886">
        <ele>851</ele>
        <time>2019-11-29T12:03:04.000Z</time>
      </trkpt>
      <trkpt lat="43.3178" lon="5.68885">
        <ele>850</ele>
        <time>2019-11-29T12:03:05.000Z</time>
      </trkpt>
      <trkpt lat="43.31778" lon="5.68883">
        <ele>850</ele>
        <time>2019-11-29T12:03:06.000Z</time>
      </trkpt>
      <trkpt lat="43.31778" lon="5.68882">
        <ele>850</ele>
        <time>2019-11-29T12:03:07.000Z</time>
      </trkpt>
      <trkpt lat="43.31777" lon="5.68881">
        <ele>849</ele>
        <time>2019-11-29T12:03:08.000Z</time>
      </trkpt>
      <trkpt lat="43.31777" lon="5.6888">
        <ele>849</ele>
        <time>2019-11-29T12:03:09.000Z</time>
      </trkpt>
      <trkpt lat="43.31776" lon="5.68879">
        <ele>849</ele>
        <time>2019-11-29T12:03:10.000Z</time>
      </trkpt>
      <trkpt lat="43.31776" lon="5.68878">
        <ele>848</ele>
        <time>2019-11-29T12:03:11.000Z</time>
      </trkpt>
      <trkpt lat="43.31775" lon="5.68877">
        <ele>848</ele>
        <time>2019-11-29T12:03:12.000Z</time>
      </trkpt>
      <trkpt lat="43.31774" lon="5.68875">
        <ele>848</ele>
        <time>2019-11-29T12:03:13.000Z</time>
      </trkpt>
      <trkpt lat="43.31774" lon="5.68874">
        <ele>847</ele>
        <time>2019-11-29T12:03:14.000Z</time>
      </trkpt>
      <trkpt lat="43.31773" lon="5.68872">
        <ele>847</ele>
        <time>2019-11-29T12:03:15.000Z</time>
      </trkpt>
      <trkpt lat="43.31773" lon="5.68871">
        <ele>847</ele>
        <time>2019-11-29T12:03:16.000Z</time>
      </trkpt>
      <trkpt lat="43.31772" lon="5.6887">
        <ele>846</ele>
        <time>2019-11-29T12:03:17.000Z</time>
      </trkpt>
      <trkpt lat="43.31772" lon="5.68868">
        <ele>846</ele>
        <time>2019-11-29T12:03:18.000Z</time>
      </trkpt>
      <trkpt lat="43.31771" lon="5.68867">
        <ele>846</ele>
        <time>2019-11-29T12:03:19.000Z</time>
      </trkpt>
      <trkpt lat="43.3177" lon="5.68865">
        <ele>846</ele>
        <time>2019-11-29T12:03:20.000Z</time>
      </trkpt>
      <trkpt lat="43.3177" lon="5.68864">
        <ele>846</ele>
        <time>2019-11-29T12:03:21.000Z</time>
      </trkpt>
      <trkpt lat="43.31769" lon="5.68862">
        <ele>846</ele>
        <time>2019-11-29T12:03:22.000Z</time>
      </trkpt>
      <trkpt lat="43.31768" lon="5.68861">
        <ele>846</ele>
        <time>2019-11-29T12:03:23.000Z</time>
      </trkpt>
      <trkpt lat="43.31768" lon="5.68859">
        <ele>846</ele>
        <time>2019-11-29T12:03:24.000Z</time>
      </trkpt>
      <trkpt lat="43.31767" lon="5.68857">
        <ele>846</ele>
        <time>2019-11-29T12:03:25.000Z</time>
      </trkpt>
      <trkpt lat="43.31766" lon="5.68856">
        <ele>845</ele>
        <time>2019-11-29T12:03:26.000Z</time>
      </trkpt>
      <trkpt lat="43.31766" lon="5.68854">
        <ele>845</ele>
        <time>2019-11-29T12:03:27.000Z</time>
      </trkpt>
      <trkpt lat="43.31765" lon="5.68853">
        <ele>845</ele>
        <time>2019-11-29T12:03:28.000Z</time>
      </trkpt>
      <trkpt lat="43.31765" lon="5.68852">
        <ele>845</ele>
        <time>2019-11-29T12:03:29.000Z</time>
      </trkpt>
      <trkpt lat="43.31764" lon="5.6885">
        <ele>845</ele>
        <time>2019-11-29T12:03:30.000Z</time>
      </trkpt>
      <trkpt lat="43.31763" lon="5.68849">
        <ele>845</ele>
        <time>2019-11-29T12:03:31.000Z</time>
      </trkpt>
      <trkpt lat="43.31763" lon="5.68848">
        <ele>845</ele>
        <time>2019-11-29T12:03:32.000Z</time>
      </trkpt>
      <trkpt lat="43.31763" lon="5.68846">
        <ele>845</ele>
        <time>2019-11-29T12:03:33.000Z</time>
      </trkpt>
      <trkpt lat="43.31763" lon="5.68845">
        <ele>845</ele>
        <time>2019-11-29T12:03:34.000Z</time>
      </trkpt>
      <trkpt lat="43.31762" lon="5.68844">
        <ele>845</ele>
        <time>2019-11-29T12:03:35.000Z</time>
      </trkpt>
      <trkpt lat="43.31762" lon="5.68843">
        <ele>845</ele>
        <time>2019-11-29T12:03:36.000Z</time>
      </trkpt>
      <trkpt lat="43.31761" lon="5.68842">
        <ele>844</ele>
        <time>2019-11-29T12:03:37.000Z</time>
      </trkpt>
      <trkpt lat="43.31761" lon="5.6884">
        <ele>844</ele>
        <time>2019-11-29T12:03:38.000Z</time>
      </trkpt>
      <trkpt lat="43.3176" lon="5.68839">
        <ele>844</ele>
        <time>2019-11-29T12:03:39.000Z</time>
      </trkpt>
      <trkpt lat="43.3176" lon="5.68838">
        <ele>844</ele>
        <time>2019-11-29T12:03:40.000Z</time>
      </trkpt>
      <trkpt lat="43.31759" lon="5.68836">
        <ele>844</ele>
        <time>2019-11-29T12:03:41.000Z</time>
      </trkpt>
      <trkpt lat="43.31759" lon="5.68835">
        <ele>844</ele>
        <time>2019-11-29T12:03:42.000Z</time>
      </trkpt>
      <trkpt lat="43.31758" lon="5.68834">
        <ele>843</ele>
        <time>2019-11-29T12:03:43.000Z</time>
      </trkpt>
      <trkpt lat="43.31758" lon="5.68833">
        <ele>843</ele>
        <time>2019-11-29T12:03:44.000Z</time>
      </trkpt>
      <trkpt lat="43.31757" lon="5.68831">
        <ele>843</ele>
        <time>2019-11-29T12:03:45.000Z</time>
      </trkpt>
      <trkpt lat="43.31756" lon="5.6883">
        <ele>843</ele>
        <time>2019-11-29T12:03:46.000Z</time>
      </trkpt>
      <trkpt lat="43.31756" lon="5.68829">
        <ele>842</ele>
        <time>2019-11-29T12:03:47.000Z</time>
      </trkpt>
      <trkpt lat="43.31755" lon="5.68827">
        <ele>842</ele>
        <time>2019-11-29T12:03:48.000Z</time>
      </trkpt>
      <trkpt lat="43.31755" lon="5.68826">
        <ele>842</ele>
        <time>2019-11-29T12:03:49.000Z</time>
      </trkpt>
      <trkpt lat="43.31754" lon="5.68825">
        <ele>842</ele>
        <time>2019-11-29T12:03:50.000Z</time>
      </trkpt>
      <trkpt lat="43.31754" lon="5.68824">
        <ele>842</ele>
        <time>2019-11-29T12:03:51.000Z</time>
      </trkpt>
      <trkpt lat="43.31753" lon="5.68823">
        <ele>842</ele>
        <time>2019-11-29T12:03:52.000Z</time>
      </trkpt>
      <trkpt lat="43.31753" lon="5.68822">
        <ele>841</ele>
        <time>2019-11-29T12:03:53.000Z</time>
      </trkpt>
      <trkpt lat="43.31752" lon="5.6882">
        <ele>841</ele>
        <time>2019-11-29T12:03:54.000Z</time>
      </trkpt>
      <trkpt lat="43.31752" lon="5.68819">
        <ele>841</ele>
        <time>2019-11-29T12:03:55.000Z</time>
      </trkpt>
      <trkpt lat="43.31751" lon="5.68818">
        <ele>841</ele>
        <time>2019-11-29T12:03:56.000Z</time>
      </trkpt>
      <trkpt lat="43.31751" lon="5.68817">
        <ele>841</ele>
        <time>2019-11-29T12:03:57.000Z</time>
      </trkpt>
      <trkpt lat="43.31751" lon="5.68816">
        <ele>841</ele>
        <time>2019-11-29T12:03:58.000Z</time>
      </trkpt>
      <trkpt lat="43.31751" lon="5.68815">
        <ele>841</ele>
        <time>2019-11-29T12:03:59.000Z</time>
      </trkpt>
      <trkpt lat="43.3175" lon="5.68814">
        <ele>841</ele>
        <time>2019-11-29T12:04:00.000Z</time>
      </trkpt>
      <trkpt lat="43.31749" lon="5.68813">
        <ele>840</ele>
        <time>2019-11-29T12:04:01.000Z</time>
      </trkpt>
      <trkpt lat="43.31749" lon="5.68812">
        <ele>840</ele>
        <time>2019-11-29T12:04:02.000Z</time>
      </trkpt>
      <trkpt lat="43.31748" lon="5.68811">
        <ele>840</ele>
        <time>2019-11-29T12:04:03.000Z</time>
      </trkpt>
      <trkpt lat="43.31747" lon="5.6881">
        <ele>840</ele>
        <time>2019-11-29T12:04:04.000Z</time>
      </trkpt>
      <trkpt lat="43.31747" lon="5.68809">
        <ele>840</ele>
        <time>2019-11-29T12:04:05.000Z</time>
      </trkpt>
      <trkpt lat="43.31746" lon="5.68808">
        <ele>840</ele>
        <time>2019-11-29T12:04:06.000Z</time>
      </trkpt>
      <trkpt lat="43.31746" lon="5.68807">
        <ele>840</ele>
        <time>2019-11-29T12:04:07.000Z</time>
      </trkpt>
      <trkpt lat="43.31745" lon="5.68806">
        <ele>839</ele>
        <time>2019-11-29T12:04:08.000Z</time>
      </trkpt>
      <trkpt lat="43.31745" lon="5.68806">
        <ele>839</ele>
        <time>2019-11-29T12:04:09.000Z</time>
      </trkpt>
      <trkpt lat="43.31745" lon="5.68806">
        <ele>839</ele>
        <time>2019-11-29T12:04:10.000Z</time>
      </trkpt>
      <trkpt lat="43.31745" lon="5.68806">
        <ele>839</ele>
        <time>2019-11-29T12:04:11.000Z</time>
      </trkpt>
      <trkpt lat="43.31745" lon="5.68806">
        <ele>839</ele>
        <time>2019-11-29T12:04:12.000Z</time>
      </trkpt>
      <trkpt lat="43.31745" lon="5.68805">
        <ele>839</ele>
        <time>2019-11-29T12:04:13.000Z</time>
      </trkpt>
      <trkpt lat="43.31745" lon="5.68805">
        <ele>839</ele>
        <time>2019-11-29T12:04:14.000Z</time>
      </trkpt>
      <trkpt lat="43.31745" lon="5.68805">
        <ele>839</ele>
        <time>2019-11-29T12:04:15.000Z</time>
      </trkpt>
      <trkpt lat="43.31744" lon="5.68804">
        <ele>839</ele>
        <time>2019-11-29T12:04:16.000Z</time>
      </trkpt>
      <trkpt lat="43.31744" lon="5.68802">
        <ele>839</ele>
        <time>2019-11-29T12:04:17.000Z</time>
      </trkpt>
      <trkpt lat="43.31744" lon="5.68801">
        <ele>839</ele>
        <time>2019-11-29T12:04:18.000Z</time>
      </trkpt>
      <trkpt lat="43.31743" lon="5.688">
        <ele>839</ele>
        <time>2019-11-29T12:04:19.000Z</time>
      </trkpt>
      <trkpt lat="43.31743" lon="5.68799">
        <ele>839</ele>
        <time>2019-11-29T12:04:20.000Z</time>
      </trkpt>
      <trkpt lat="43.31742" lon="5.68798">
        <ele>838</ele>
        <time>2019-11-29T12:04:21.000Z</time>
      </trkpt>
      <trkpt lat="43.31742" lon="5.68796">
        <ele>838</ele>
        <time>2019-11-29T12:04:22.000Z</time>
      </trkpt>
      <trkpt lat="43.31741" lon="5.68795">
        <ele>838</ele>
        <time>2019-11-29T12:04:23.000Z</time>
      </trkpt>
      <trkpt lat="43.31741" lon="5.68794">
        <ele>838</ele>
        <time>2019-11-29T12:04:24.000Z</time>
      </trkpt>
      <trkpt lat="43.3174" lon="5.68793">
        <ele>838</ele>
        <time>2019-11-29T12:04:25.000Z</time>
      </trkpt>
      <trkpt lat="43.31739" lon="5.68791">
        <ele>838</ele>
        <time>2019-11-29T12:04:26.000Z</time>
      </trkpt>
      <trkpt lat="43.31739" lon="5.6879">
        <ele>838</ele>
        <time>2019-11-29T12:04:27.000Z</time>
      </trkpt>
      <trkpt lat="43.31739" lon="5.68789">
        <ele>837</ele>
        <time>2019-11-29T12:04:28.000Z</time>
      </trkpt>
      <trkpt lat="43.31739" lon="5.68787">
        <ele>837</ele>
        <time>2019-11-29T12:04:29.000Z</time>
      </trkpt>
      <trkpt lat="43.31738" lon="5.68786">
        <ele>837</ele>
        <time>2019-11-29T12:04:30.000Z</time>
      </trkpt>
      <trkpt lat="43.31738" lon="5.68784">
        <ele>837</ele>
        <time>2019-11-29T12:04:31.000Z</time>
      </trkpt>
      <trkpt lat="43.31738" lon="5.68783">
        <ele>837</ele>
        <time>2019-11-29T12:04:32.000Z</time>
      </trkpt>
      <trkpt lat="43.31737" lon="5.68781">
        <ele>837</ele>
        <time>2019-11-29T12:04:33.000Z</time>
      </trkpt>
      <trkpt lat="43.31737" lon="5.6878">
        <ele>837</ele>
        <time>2019-11-29T12:04:34.000Z</time>
      </trkpt>
      <trkpt lat="43.31736" lon="5.68779">
        <ele>837</ele>
        <time>2019-11-29T12:04:35.000Z</time>
      </trkpt>
      <trkpt lat="43.31736" lon="5.68777">
        <ele>837</ele>
        <time>2019-11-29T12:04:36.000Z</time>
      </trkpt>
      <trkpt lat="43.31735" lon="5.68776">
        <ele>837</ele>
        <time>2019-11-29T12:04:37.000Z</time>
      </trkpt>
      <trkpt lat="43.31735" lon="5.68774">
        <ele>837</ele>
        <time>2019-11-29T12:04:38.000Z</time>
      </trkpt>
      <trkpt lat="43.31735" lon="5.68773">
        <ele>836</ele>
        <time>2019-11-29T12:04:39.000Z</time>
      </trkpt>
      <trkpt lat="43.31734" lon="5.68772">
        <ele>836</ele>
        <time>2019-11-29T12:04:40.000Z</time>
      </trkpt>
      <trkpt lat="43.31734" lon="5.6877">
        <ele>836</ele>
        <time>2019-11-29T12:04:41.000Z</time>
      </trkpt>
      <trkpt lat="43.31733" lon="5.68769">
        <ele>836</ele>
        <time>2019-11-29T12:04:42.000Z</time>
      </trkpt>
      <trkpt lat="43.31733" lon="5.68768">
        <ele>836</ele>
        <time>2019-11-29T12:04:43.000Z</time>
      </trkpt>
      <trkpt lat="43.31732" lon="5.68766">
        <ele>836</ele>
        <time>2019-11-29T12:04:44.000Z</time>
      </trkpt>
      <trkpt lat="43.31732" lon="5.68765">
        <ele>836</ele>
        <time>2019-11-29T12:04:45.000Z</time>
      </trkpt>
      <trkpt lat="43.31732" lon="5.68764">
        <ele>836</ele>
        <time>2019-11-29T12:04:46.000Z</time>
      </trkpt>
      <trkpt lat="43.31731" lon="5.68763">
        <ele>836</ele>
        <time>2019-11-29T12:04:47.000Z</time>
      </trkpt>
      <trkpt lat="43.31731" lon="5.68762">
        <ele>835</ele>
        <time>2019-11-29T12:04:48.000Z</time>
      </trkpt>
      <trkpt lat="43.31731" lon="5.68761">
        <ele>835</ele>
        <time>2019-11-29T12:04:49.000Z</time>
      </trkpt>
      <trkpt lat="43.3173" lon="5.68759">
        <ele>835</ele>
        <time>2019-11-29T12:04:50.000Z</time>
      </trkpt>
      <trkpt lat="43.3173" lon="5.68758">
        <ele>835</ele>
        <time>2019-11-29T12:04:51.000Z</time>
      </trkpt>
      <trkpt lat="43.3173" lon="5.68757">
        <ele>835</ele>
        <time>2019-11-29T12:04:52.000Z</time>
      </trkpt>
      <trkpt lat="43.3173" lon="5.68756">
        <ele>835</ele>
        <time>2019-11-29T12:04:53.000Z</time>
      </trkpt>
      <trkpt lat="43.3173" lon="5.68755">
        <ele>835</ele>
        <time>2019-11-29T12:04:54.000Z</time>
      </trkpt>
      <trkpt lat="43.3173" lon="5.68754">
        <ele>835</ele>
        <time>2019-11-29T12:04:55.000Z</time>
      </trkpt>
      <trkpt lat="43.3173" lon="5.68752">
        <ele>835</ele>
        <time>2019-11-29T12:04:56.000Z</time>
      </trkpt>
      <trkpt lat="43.3173" lon="5.68751">
        <ele>835</ele>
        <time>2019-11-29T12:04:57.000Z</time>
      </trkpt>
      <trkpt lat="43.31729" lon="5.6875">
        <ele>835</ele>
        <time>2019-11-29T12:04:58.000Z</time>
      </trkpt>
      <trkpt lat="43.31729" lon="5.68749">
        <ele>835</ele>
        <time>2019-11-29T12:04:59.000Z</time>
      </trkpt>
      <trkpt lat="43.31729" lon="5.68748">
        <ele>834</ele>
        <time>2019-11-29T12:05:00.000Z</time>
      </trkpt>
      <trkpt lat="43.3173" lon="5.68747">
        <ele>834</ele>
        <time>2019-11-29T12:05:01.000Z</time>
      </trkpt>
      <trkpt lat="43.3173" lon="5.68746">
        <ele>835</ele>
        <time>2019-11-29T12:05:02.000Z</time>
      </trkpt>
      <trkpt lat="43.3173" lon="5.68744">
        <ele>835</ele>
        <time>2019-11-29T12:05:03.000Z</time>
      </trkpt>
      <trkpt lat="43.3173" lon="5.68743">
        <ele>835</ele>
        <time>2019-11-29T12:05:04.000Z</time>
      </trkpt>
      <trkpt lat="43.3173" lon="5.68741">
        <ele>834</ele>
        <time>2019-11-29T12:05:05.000Z</time>
      </trkpt>
      <trkpt lat="43.3173" lon="5.6874">
        <ele>834</ele>
        <time>2019-11-29T12:05:06.000Z</time>
      </trkpt>
      <trkpt lat="43.3173" lon="5.68739">
        <ele>834</ele>
        <time>2019-11-29T12:05:07.000Z</time>
      </trkpt>
      <trkpt lat="43.3173" lon="5.68738">
        <ele>834</ele>
        <time>2019-11-29T12:05:08.000Z</time>
      </trkpt>
      <trkpt lat="43.3173" lon="5.68736">
        <ele>834</ele>
        <time>2019-11-29T12:05:09.000Z</time>
      </trkpt>
      <trkpt lat="43.3173" lon="5.68735">
        <ele>834</ele>
        <time>2019-11-29T12:05:10.000Z</time>
      </trkpt>
      <trkpt lat="43.3173" lon="5.68733">
        <ele>834</ele>
        <time>2019-11-29T12:05:11.000Z</time>
      </trkpt>
      <trkpt lat="43.3173" lon="5.68732">
        <ele>834</ele>
        <time>2019-11-29T12:05:12.000Z</time>
      </trkpt>
      <trkpt lat="43.3173" lon="5.6873">
        <ele>834</ele>
        <time>2019-11-29T12:05:13.000Z</time>
      </trkpt>
      <trkpt lat="43.31731" lon="5.68729">
        <ele>834</ele>
        <time>2019-11-29T12:05:14.000Z</time>
      </trkpt>
      <trkpt lat="43.31731" lon="5.68727">
        <ele>834</ele>
        <time>2019-11-29T12:05:15.000Z</time>
      </trkpt>
      <trkpt lat="43.31731" lon="5.68726">
        <ele>834</ele>
        <time>2019-11-29T12:05:16.000Z</time>
      </trkpt>
      <trkpt lat="43.31731" lon="5.68724">
        <ele>834</ele>
        <time>2019-11-29T12:05:17.000Z</time>
      </trkpt>
      <trkpt lat="43.31732" lon="5.68723">
        <ele>834</ele>
        <time>2019-11-29T12:05:18.000Z</time>
      </trkpt>
      <trkpt lat="43.31732" lon="5.68721">
        <ele>834</ele>
        <time>2019-11-29T12:05:19.000Z</time>
      </trkpt>
      <trkpt lat="43.31732" lon="5.6872">
        <ele>834</ele>
        <time>2019-11-29T12:05:20.000Z</time>
      </trkpt>
      <trkpt lat="43.31733" lon="5.68718">
        <ele>834</ele>
        <time>2019-11-29T12:05:21.000Z</time>
      </trkpt>
      <trkpt lat="43.31733" lon="5.68717">
        <ele>833</ele>
        <time>2019-11-29T12:05:22.000Z</time>
      </trkpt>
      <trkpt lat="43.31733" lon="5.68715">
        <ele>833</ele>
        <time>2019-11-29T12:05:23.000Z</time>
      </trkpt>
      <trkpt lat="43.31733" lon="5.68714">
        <ele>833</ele>
        <time>2019-11-29T12:05:24.000Z</time>
      </trkpt>
      <trkpt lat="43.31733" lon="5.68712">
        <ele>833</ele>
        <time>2019-11-29T12:05:25.000Z</time>
      </trkpt>
      <trkpt lat="43.31733" lon="5.68711">
        <ele>833</ele>
        <time>2019-11-29T12:05:26.000Z</time>
      </trkpt>
      <trkpt lat="43.31733" lon="5.6871">
        <ele>833</ele>
        <time>2019-11-29T12:05:27.000Z</time>
      </trkpt>
      <trkpt lat="43.31733" lon="5.68708">
        <ele>833</ele>
        <time>2019-11-29T12:05:28.000Z</time>
      </trkpt>
      <trkpt lat="43.31733" lon="5.68707">
        <ele>833</ele>
        <time>2019-11-29T12:05:29.000Z</time>
      </trkpt>
      <trkpt lat="43.31734" lon="5.68705">
        <ele>833</ele>
        <time>2019-11-29T12:05:30.000Z</time>
      </trkpt>
      <trkpt lat="43.31734" lon="5.68704">
        <ele>832</ele>
        <time>2019-11-29T12:05:31.000Z</time>
      </trkpt>
      <trkpt lat="43.31734" lon="5.68702">
        <ele>832</ele>
        <time>2019-11-29T12:05:32.000Z</time>
      </trkpt>
      <trkpt lat="43.31734" lon="5.68701">
        <ele>832</ele>
        <time>2019-11-29T12:05:33.000Z</time>
      </trkpt>
      <trkpt lat="43.31735" lon="5.687">
        <ele>832</ele>
        <time>2019-11-29T12:05:34.000Z</time>
      </trkpt>
      <trkpt lat="43.31735" lon="5.68698">
        <ele>832</ele>
        <time>2019-11-29T12:05:35.000Z</time>
      </trkpt>
      <trkpt lat="43.31735" lon="5.68697">
        <ele>832</ele>
        <time>2019-11-29T12:05:36.000Z</time>
      </trkpt>
      <trkpt lat="43.31735" lon="5.68695">
        <ele>832</ele>
        <time>2019-11-29T12:05:37.000Z</time>
      </trkpt>
      <trkpt lat="43.31735" lon="5.68694">
        <ele>832</ele>
        <time>2019-11-29T12:05:38.000Z</time>
      </trkpt>
      <trkpt lat="43.31736" lon="5.68692">
        <ele>832</ele>
        <time>2019-11-29T12:05:39.000Z</time>
      </trkpt>
      <trkpt lat="43.31736" lon="5.68691">
        <ele>831</ele>
        <time>2019-11-29T12:05:40.000Z</time>
      </trkpt>
      <trkpt lat="43.31736" lon="5.6869">
        <ele>831</ele>
        <time>2019-11-29T12:05:41.000Z</time>
      </trkpt>
      <trkpt lat="43.31736" lon="5.68689">
        <ele>831</ele>
        <time>2019-11-29T12:05:42.000Z</time>
      </trkpt>
      <trkpt lat="43.31736" lon="5.68688">
        <ele>831</ele>
        <time>2019-11-29T12:05:43.000Z</time>
      </trkpt>
      <trkpt lat="43.31736" lon="5.68687">
        <ele>831</ele>
        <time>2019-11-29T12:05:44.000Z</time>
      </trkpt>
      <trkpt lat="43.31736" lon="5.68686">
        <ele>830</ele>
        <time>2019-11-29T12:05:45.000Z</time>
      </trkpt>
      <trkpt lat="43.31737" lon="5.68684">
        <ele>830</ele>
        <time>2019-11-29T12:05:46.000Z</time>
      </trkpt>
      <trkpt lat="43.31737" lon="5.68683">
        <ele>830</ele>
        <time>2019-11-29T12:05:47.000Z</time>
      </trkpt>
      <trkpt lat="43.31737" lon="5.68682">
        <ele>830</ele>
        <time>2019-11-29T12:05:48.000Z</time>
      </trkpt>
      <trkpt lat="43.31737" lon="5.68681">
        <ele>830</ele>
        <time>2019-11-29T12:05:49.000Z</time>
      </trkpt>
      <trkpt lat="43.31737" lon="5.6868">
        <ele>830</ele>
        <time>2019-11-29T12:05:50.000Z</time>
      </trkpt>
      <trkpt lat="43.31737" lon="5.68679">
        <ele>830</ele>
        <time>2019-11-29T12:05:51.000Z</time>
      </trkpt>
      <trkpt lat="43.31737" lon="5.68678">
        <ele>829</ele>
        <time>2019-11-29T12:05:52.000Z</time>
      </trkpt>
      <trkpt lat="43.31737" lon="5.68677">
        <ele>829</ele>
        <time>2019-11-29T12:05:53.000Z</time>
      </trkpt>
      <trkpt lat="43.31738" lon="5.68676">
        <ele>829</ele>
        <time>2019-11-29T12:05:54.000Z</time>
      </trkpt>
      <trkpt lat="43.31738" lon="5.68675">
        <ele>829</ele>
        <time>2019-11-29T12:05:55.000Z</time>
      </trkpt>
      <trkpt lat="43.31738" lon="5.68674">
        <ele>829</ele>
        <time>2019-11-29T12:05:56.000Z</time>
      </trkpt>
      <trkpt lat="43.31738" lon="5.68673">
        <ele>829</ele>
        <time>2019-11-29T12:05:57.000Z</time>
      </trkpt>
      <trkpt lat="43.31739" lon="5.68673">
        <ele>829</ele>
        <time>2019-11-29T12:05:58.000Z</time>
      </trkpt>
      <trkpt lat="43.31739" lon="5.68673">
        <ele>829</ele>
        <time>2019-11-29T12:05:59.000Z</time>
      </trkpt>
      <trkpt lat="43.31739" lon="5.68673">
        <ele>829</ele>
        <time>2019-11-29T12:06:00.000Z</time>
      </trkpt>
      <trkpt lat="43.31739" lon="5.68672">
        <ele>829</ele>
        <time>2019-11-29T12:06:01.000Z</time>
      </trkpt>
      <trkpt lat="43.3174" lon="5.68672">
        <ele>829</ele>
        <time>2019-11-29T12:06:02.000Z</time>
      </trkpt>
      <trkpt lat="43.31741" lon="5.68671">
        <ele>829</ele>
        <time>2019-11-29T12:06:03.000Z</time>
      </trkpt>
      <trkpt lat="43.31742" lon="5.68671">
        <ele>829</ele>
        <time>2019-11-29T12:06:04.000Z</time>
      </trkpt>
      <trkpt lat="43.31743" lon="5.6867">
        <ele>829</ele>
        <time>2019-11-29T12:06:05.000Z</time>
      </trkpt>
      <trkpt lat="43.31744" lon="5.6867">
        <ele>829</ele>
        <time>2019-11-29T12:06:06.000Z</time>
      </trkpt>
      <trkpt lat="43.31745" lon="5.6867">
        <ele>829</ele>
        <time>2019-11-29T12:06:07.000Z</time>
      </trkpt>
      <trkpt lat="43.31747" lon="5.68669">
        <ele>828</ele>
        <time>2019-11-29T12:06:08.000Z</time>
      </trkpt>
      <trkpt lat="43.31748" lon="5.68669">
        <ele>828</ele>
        <time>2019-11-29T12:06:09.000Z</time>
      </trkpt>
      <trkpt lat="43.31749" lon="5.68669">
        <ele>828</ele>
        <time>2019-11-29T12:06:10.000Z</time>
      </trkpt>
      <trkpt lat="43.3175" lon="5.6867">
        <ele>828</ele>
        <time>2019-11-29T12:06:11.000Z</time>
      </trkpt>
      <trkpt lat="43.3175" lon="5.6867">
        <ele>828</ele>
        <time>2019-11-29T12:06:12.000Z</time>
      </trkpt>
      <trkpt lat="43.31751" lon="5.68671">
        <ele>828</ele>
        <time>2019-11-29T12:06:13.000Z</time>
      </trkpt>
      <trkpt lat="43.31751" lon="5.68672">
        <ele>828</ele>
        <time>2019-11-29T12:06:14.000Z</time>
      </trkpt>
      <trkpt lat="43.31752" lon="5.68672">
        <ele>827</ele>
        <time>2019-11-29T12:06:15.000Z</time>
      </trkpt>
      <trkpt lat="43.31752" lon="5.68673">
        <ele>827</ele>
        <time>2019-11-29T12:06:16.000Z</time>
      </trkpt>
      <trkpt lat="43.31753" lon="5.68674">
        <ele>827</ele>
        <time>2019-11-29T12:06:17.000Z</time>
      </trkpt>
      <trkpt lat="43.31753" lon="5.68674">
        <ele>827</ele>
        <time>2019-11-29T12:06:18.000Z</time>
      </trkpt>
      <trkpt lat="43.31753" lon="5.68675">
        <ele>826</ele>
        <time>2019-11-29T12:06:19.000Z</time>
      </trkpt>
      <trkpt lat="43.31753" lon="5.68675">
        <ele>826</ele>
        <time>2019-11-29T12:06:20.000Z</time>
      </trkpt>
      <trkpt lat="43.31753" lon="5.68675">
        <ele>826</ele>
        <time>2019-11-29T12:06:21.000Z</time>
      </trkpt>
      <trkpt lat="43.31754" lon="5.68676">
        <ele>825</ele>
        <time>2019-11-29T12:06:22.000Z</time>
      </trkpt>
      <trkpt lat="43.31754" lon="5.68677">
        <ele>825</ele>
        <time>2019-11-29T12:06:23.000Z</time>
      </trkpt>
      <trkpt lat="43.31754" lon="5.68678">
        <ele>824</ele>
        <time>2019-11-29T12:06:24.000Z</time>
      </trkpt>
      <trkpt lat="43.31753" lon="5.68679">
        <ele>824</ele>
        <time>2019-11-29T12:06:25.000Z</time>
      </trkpt>
      <trkpt lat="43.31753" lon="5.6868">
        <ele>824</ele>
        <time>2019-11-29T12:06:26.000Z</time>
      </trkpt>
      <trkpt lat="43.31753" lon="5.68681">
        <ele>824</ele>
        <time>2019-11-29T12:06:27.000Z</time>
      </trkpt>
      <trkpt lat="43.31753" lon="5.68682">
        <ele>823</ele>
        <time>2019-11-29T12:06:28.000Z</time>
      </trkpt>
      <trkpt lat="43.31753" lon="5.68684">
        <ele>823</ele>
        <time>2019-11-29T12:06:29.000Z</time>
      </trkpt>
      <trkpt lat="43.31752" lon="5.68685">
        <ele>823</ele>
        <time>2019-11-29T12:06:30.000Z</time>
      </trkpt>
      <trkpt lat="43.31753" lon="5.68686">
        <ele>823</ele>
        <time>2019-11-29T12:06:31.000Z</time>
      </trkpt>
      <trkpt lat="43.31753" lon="5.68687">
        <ele>822</ele>
        <time>2019-11-29T12:06:32.000Z</time>
      </trkpt>
      <trkpt lat="43.31753" lon="5.68688">
        <ele>822</ele>
        <time>2019-11-29T12:06:33.000Z</time>
      </trkpt>
      <trkpt lat="43.31753" lon="5.68688">
        <ele>822</ele>
        <time>2019-11-29T12:06:34.000Z</time>
      </trkpt>
      <trkpt lat="43.31753" lon="5.68689">
        <ele>822</ele>
        <time>2019-11-29T12:06:35.000Z</time>
      </trkpt>
      <trkpt lat="43.31753" lon="5.6869">
        <ele>822</ele>
        <time>2019-11-29T12:06:36.000Z</time>
      </trkpt>
      <trkpt lat="43.31753" lon="5.68691">
        <ele>821</ele>
        <time>2019-11-29T12:06:37.000Z</time>
      </trkpt>
      <trkpt lat="43.31753" lon="5.68692">
        <ele>821</ele>
        <time>2019-11-29T12:06:38.000Z</time>
      </trkpt>
      <trkpt lat="43.31754" lon="5.68693">
        <ele>821</ele>
        <time>2019-11-29T12:06:39.000Z</time>
      </trkpt>
      <trkpt lat="43.31754" lon="5.68694">
        <ele>821</ele>
        <time>2019-11-29T12:06:40.000Z</time>
      </trkpt>
      <trkpt lat="43.31754" lon="5.68695">
        <ele>821</ele>
        <time>2019-11-29T12:06:41.000Z</time>
      </trkpt>
      <trkpt lat="43.31754" lon="5.68696">
        <ele>820</ele>
        <time>2019-11-29T12:06:42.000Z</time>
      </trkpt>
      <trkpt lat="43.31754" lon="5.68697">
        <ele>820</ele>
        <time>2019-11-29T12:06:43.000Z</time>
      </trkpt>
      <trkpt lat="43.31754" lon="5.68698">
        <ele>820</ele>
        <time>2019-11-29T12:06:44.000Z</time>
      </trkpt>
      <trkpt lat="43.31755" lon="5.68699">
        <ele>820</ele>
        <time>2019-11-29T12:06:45.000Z</time>
      </trkpt>
      <trkpt lat="43.31755" lon="5.687">
        <ele>820</ele>
        <time>2019-11-29T12:06:46.000Z</time>
      </trkpt>
      <trkpt lat="43.31755" lon="5.68701">
        <ele>820</ele>
        <time>2019-11-29T12:06:47.000Z</time>
      </trkpt>
      <trkpt lat="43.31755" lon="5.68702">
        <ele>819</ele>
        <time>2019-11-29T12:06:48.000Z</time>
      </trkpt>
      <trkpt lat="43.31756" lon="5.68703">
        <ele>819</ele>
        <time>2019-11-29T12:06:49.000Z</time>
      </trkpt>
      <trkpt lat="43.31756" lon="5.68704">
        <ele>819</ele>
        <time>2019-11-29T12:06:50.000Z</time>
      </trkpt>
      <trkpt lat="43.31756" lon="5.68705">
        <ele>819</ele>
        <time>2019-11-29T12:06:51.000Z</time>
      </trkpt>
      <trkpt lat="43.31757" lon="5.68706">
        <ele>819</ele>
        <time>2019-11-29T12:06:52.000Z</time>
      </trkpt>
      <trkpt lat="43.31757" lon="5.68706">
        <ele>818</ele>
        <time>2019-11-29T12:06:53.000Z</time>
      </trkpt>
      <trkpt lat="43.31758" lon="5.68707">
        <ele>818</ele>
        <time>2019-11-29T12:06:54.000Z</time>
      </trkpt>
      <trkpt lat="43.31758" lon="5.68708">
        <ele>818</ele>
        <time>2019-11-29T12:06:55.000Z</time>
      </trkpt>
      <trkpt lat="43.31759" lon="5.68709">
        <ele>818</ele>
        <time>2019-11-29T12:06:56.000Z</time>
      </trkpt>
      <trkpt lat="43.31759" lon="5.68709">
        <ele>817</ele>
        <time>2019-11-29T12:06:57.000Z</time>
      </trkpt>
      <trkpt lat="43.3176" lon="5.6871">
        <ele>817</ele>
        <time>2019-11-29T12:06:58.000Z</time>
      </trkpt>
      <trkpt lat="43.3176" lon="5.68711">
        <ele>817</ele>
        <time>2019-11-29T12:06:59.000Z</time>
      </trkpt>
      <trkpt lat="43.3176" lon="5.68712">
        <ele>817</ele>
        <time>2019-11-29T12:07:00.000Z</time>
      </trkpt>
      <trkpt lat="43.3176" lon="5.68712">
        <ele>817</ele>
        <time>2019-11-29T12:07:01.000Z</time>
      </trkpt>
      <trkpt lat="43.31761" lon="5.68712">
        <ele>817</ele>
        <time>2019-11-29T12:07:02.000Z</time>
      </trkpt>
      <trkpt lat="43.31761" lon="5.68712">
        <ele>816</ele>
        <time>2019-11-29T12:07:03.000Z</time>
      </trkpt>
      <trkpt lat="43.31761" lon="5.68712">
        <ele>816</ele>
        <time>2019-11-29T12:07:04.000Z</time>
      </trkpt>
      <trkpt lat="43.31761" lon="5.68712">
        <ele>816</ele>
        <time>2019-11-29T12:07:05.000Z</time>
      </trkpt>
      <trkpt lat="43.31761" lon="5.68712">
        <ele>816</ele>
        <time>2019-11-29T12:07:06.000Z</time>
      </trkpt>
      <trkpt lat="43.31761" lon="5.68712">
        <ele>816</ele>
        <time>2019-11-29T12:07:07.000Z</time>
      </trkpt>
      <trkpt lat="43.31761" lon="5.68712">
        <ele>816</ele>
        <time>2019-11-29T12:07:08.000Z</time>
      </trkpt>
      <trkpt lat="43.31761" lon="5.68712">
        <ele>816</ele>
        <time>2019-11-29T12:07:09.000Z</time>
      </trkpt>
      <trkpt lat="43.31761" lon="5.68712">
        <ele>816</ele>
        <time>2019-11-29T12:07:10.000Z</time>
      </trkpt>
      <trkpt lat="43.31762" lon="5.68713">
        <ele>816</ele>
        <time>2019-11-29T12:07:11.000Z</time>
      </trkpt>
      <trkpt lat="43.31762" lon="5.68713">
        <ele>816</ele>
        <time>2019-11-29T12:07:12.000Z</time>
      </trkpt>
      <trkpt lat="43.31762" lon="5.68713">
        <ele>816</ele>
        <time>2019-11-29T12:07:13.000Z</time>
      </trkpt>
      <trkpt lat="43.31763" lon="5.68714">
        <ele>816</ele>
        <time>2019-11-29T12:07:14.000Z</time>
      </trkpt>
      <trkpt lat="43.31763" lon="5.68715">
        <ele>816</ele>
        <time>2019-11-29T12:07:15.000Z</time>
      </trkpt>
      <trkpt lat="43.31764" lon="5.68716">
        <ele>816</ele>
        <time>2019-11-29T12:07:16.000Z</time>
      </trkpt>
      <trkpt lat="43.31764" lon="5.68716">
        <ele>816</ele>
        <time>2019-11-29T12:07:17.000Z</time>
      </trkpt>
      <trkpt lat="43.31764" lon="5.68717">
        <ele>815</ele>
        <time>2019-11-29T12:07:18.000Z</time>
      </trkpt>
      <trkpt lat="43.31765" lon="5.68718">
        <ele>815</ele>
        <time>2019-11-29T12:07:19.000Z</time>
      </trkpt>
      <trkpt lat="43.31765" lon="5.68719">
        <ele>815</ele>
        <time>2019-11-29T12:07:20.000Z</time>
      </trkpt>
      <trkpt lat="43.31765" lon="5.6872">
        <ele>815</ele>
        <time>2019-11-29T12:07:21.000Z</time>
      </trkpt>
      <trkpt lat="43.31766" lon="5.6872">
        <ele>815</ele>
        <time>2019-11-29T12:07:22.000Z</time>
      </trkpt>
      <trkpt lat="43.31766" lon="5.68721">
        <ele>815</ele>
        <time>2019-11-29T12:07:23.000Z</time>
      </trkpt>
      <trkpt lat="43.31767" lon="5.68722">
        <ele>815</ele>
        <time>2019-11-29T12:07:24.000Z</time>
      </trkpt>
      <trkpt lat="43.31767" lon="5.68723">
        <ele>814</ele>
        <time>2019-11-29T12:07:25.000Z</time>
      </trkpt>
      <trkpt lat="43.31767" lon="5.68723">
        <ele>814</ele>
        <time>2019-11-29T12:07:26.000Z</time>
      </trkpt>
      <trkpt lat="43.31768" lon="5.68724">
        <ele>814</ele>
        <time>2019-11-29T12:07:27.000Z</time>
      </trkpt>
      <trkpt lat="43.31768" lon="5.68724">
        <ele>814</ele>
        <time>2019-11-29T12:07:28.000Z</time>
      </trkpt>
      <trkpt lat="43.31768" lon="5.68725">
        <ele>814</ele>
        <time>2019-11-29T12:07:29.000Z</time>
      </trkpt>
      <trkpt lat="43.31769" lon="5.68725">
        <ele>814</ele>
        <time>2019-11-29T12:07:30.000Z</time>
      </trkpt>
      <trkpt lat="43.31769" lon="5.68726">
        <ele>814</ele>
        <time>2019-11-29T12:07:31.000Z</time>
      </trkpt>
      <trkpt lat="43.3177" lon="5.68727">
        <ele>813</ele>
        <time>2019-11-29T12:07:32.000Z</time>
      </trkpt>
      <trkpt lat="43.3177" lon="5.68727">
        <ele>813</ele>
        <time>2019-11-29T12:07:33.000Z</time>
      </trkpt>
      <trkpt lat="43.31771" lon="5.68728">
        <ele>813</ele>
        <time>2019-11-29T12:07:34.000Z</time>
      </trkpt>
      <trkpt lat="43.31771" lon="5.68729">
        <ele>813</ele>
        <time>2019-11-29T12:07:35.000Z</time>
      </trkpt>
      <trkpt lat="43.31771" lon="5.6873">
        <ele>813</ele>
        <time>2019-11-29T12:07:36.000Z</time>
      </trkpt>
      <trkpt lat="43.31772" lon="5.68731">
        <ele>813</ele>
        <time>2019-11-29T12:07:37.000Z</time>
      </trkpt>
      <trkpt lat="43.31772" lon="5.68732">
        <ele>813</ele>
        <time>2019-11-29T12:07:38.000Z</time>
      </trkpt>
      <trkpt lat="43.31773" lon="5.68733">
        <ele>812</ele>
        <time>2019-11-29T12:07:39.000Z</time>
      </trkpt>
      <trkpt lat="43.31773" lon="5.68733">
        <ele>812</ele>
        <time>2019-11-29T12:07:40.000Z</time>
      </trkpt>
      <trkpt lat="43.31774" lon="5.68734">
        <ele>812</ele>
        <time>2019-11-29T12:07:41.000Z</time>
      </trkpt>
      <trkpt lat="43.31774" lon="5.68735">
        <ele>812</ele>
        <time>2019-11-29T12:07:42.000Z</time>
      </trkpt>
      <trkpt lat="43.31775" lon="5.68736">
        <ele>812</ele>
        <time>2019-11-29T12:07:43.000Z</time>
      </trkpt>
      <trkpt lat="43.31775" lon="5.68736">
        <ele>812</ele>
        <time>2019-11-29T12:07:44.000Z</time>
      </trkpt>
      <trkpt lat="43.31776" lon="5.68737">
        <ele>811</ele>
        <time>2019-11-29T12:07:45.000Z</time>
      </trkpt>
      <trkpt lat="43.31776" lon="5.68738">
        <ele>811</ele>
        <time>2019-11-29T12:07:46.000Z</time>
      </trkpt>
      <trkpt lat="43.31777" lon="5.68739">
        <ele>811</ele>
        <time>2019-11-29T12:07:47.000Z</time>
      </trkpt>
      <trkpt lat="43.31778" lon="5.6874">
        <ele>811</ele>
        <time>2019-11-29T12:07:48.000Z</time>
      </trkpt>
      <trkpt lat="43.31778" lon="5.6874">
        <ele>811</ele>
        <time>2019-11-29T12:07:49.000Z</time>
      </trkpt>
      <trkpt lat="43.31779" lon="5.68741">
        <ele>811</ele>
        <time>2019-11-29T12:07:50.000Z</time>
      </trkpt>
      <trkpt lat="43.31779" lon="5.68741">
        <ele>810</ele>
        <time>2019-11-29T12:07:51.000Z</time>
      </trkpt>
      <trkpt lat="43.3178" lon="5.68742">
        <ele>810</ele>
        <time>2019-11-29T12:07:52.000Z</time>
      </trkpt>
      <trkpt lat="43.3178" lon="5.68743">
        <ele>810</ele>
        <time>2019-11-29T12:07:53.000Z</time>
      </trkpt>
      <trkpt lat="43.31781" lon="5.68744">
        <ele>810</ele>
        <time>2019-11-29T12:07:54.000Z</time>
      </trkpt>
      <trkpt lat="43.31781" lon="5.68744">
        <ele>810</ele>
        <time>2019-11-29T12:07:55.000Z</time>
      </trkpt>
      <trkpt lat="43.31781" lon="5.68744">
        <ele>810</ele>
        <time>2019-11-29T12:07:56.000Z</time>
      </trkpt>
      <trkpt lat="43.31781" lon="5.68744">
        <ele>809</ele>
        <time>2019-11-29T12:07:57.000Z</time>
      </trkpt>
      <trkpt lat="43.31781" lon="5.68744">
        <ele>809</ele>
        <time>2019-11-29T12:07:58.000Z</time>
      </trkpt>
      <trkpt lat="43.31781" lon="5.68744">
        <ele>809</ele>
        <time>2019-11-29T12:07:59.000Z</time>
      </trkpt>
      <trkpt lat="43.31781" lon="5.68745">
        <ele>809</ele>
        <time>2019-11-29T12:08:00.000Z</time>
      </trkpt>
      <trkpt lat="43.31782" lon="5.68746">
        <ele>809</ele>
        <time>2019-11-29T12:08:01.000Z</time>
      </trkpt>
      <trkpt lat="43.31782" lon="5.68746">
        <ele>809</ele>
        <time>2019-11-29T12:08:02.000Z</time>
      </trkpt>
      <trkpt lat="43.31783" lon="5.68747">
        <ele>809</ele>
        <time>2019-11-29T12:08:03.000Z</time>
      </trkpt>
      <trkpt lat="43.31783" lon="5.68748">
        <ele>809</ele>
        <time>2019-11-29T12:08:04.000Z</time>
      </trkpt>
      <trkpt lat="43.31784" lon="5.68748">
        <ele>809</ele>
        <time>2019-11-29T12:08:05.000Z</time>
      </trkpt>
      <trkpt lat="43.31785" lon="5.68749">
        <ele>809</ele>
        <time>2019-11-29T12:08:06.000Z</time>
      </trkpt>
      <trkpt lat="43.31785" lon="5.6875">
        <ele>808</ele>
        <time>2019-11-29T12:08:07.000Z</time>
      </trkpt>
      <trkpt lat="43.31786" lon="5.6875">
        <ele>808</ele>
        <time>2019-11-29T12:08:08.000Z</time>
      </trkpt>
      <trkpt lat="43.31787" lon="5.6875">
        <ele>808</ele>
        <time>2019-11-29T12:08:09.000Z</time>
      </trkpt>
      <trkpt lat="43.31787" lon="5.68751">
        <ele>808</ele>
        <time>2019-11-29T12:08:10.000Z</time>
      </trkpt>
      <trkpt lat="43.31788" lon="5.68751">
        <ele>808</ele>
        <time>2019-11-29T12:08:11.000Z</time>
      </trkpt>
      <trkpt lat="43.31789" lon="5.68751">
        <ele>808</ele>
        <time>2019-11-29T12:08:12.000Z</time>
      </trkpt>
      <trkpt lat="43.31789" lon="5.68752">
        <ele>808</ele>
        <time>2019-11-29T12:08:13.000Z</time>
      </trkpt>
      <trkpt lat="43.3179" lon="5.68752">
        <ele>808</ele>
        <time>2019-11-29T12:08:14.000Z</time>
      </trkpt>
      <trkpt lat="43.31791" lon="5.68753">
        <ele>808</ele>
        <time>2019-11-29T12:08:15.000Z</time>
      </trkpt>
      <trkpt lat="43.31791" lon="5.68754">
        <ele>807</ele>
        <time>2019-11-29T12:08:16.000Z</time>
      </trkpt>
      <trkpt lat="43.31791" lon="5.68754">
        <ele>807</ele>
        <time>2019-11-29T12:08:17.000Z</time>
      </trkpt>
      <trkpt lat="43.31791" lon="5.68755">
        <ele>807</ele>
        <time>2019-11-29T12:08:18.000Z</time>
      </trkpt>
      <trkpt lat="43.31792" lon="5.68755">
        <ele>807</ele>
        <time>2019-11-29T12:08:19.000Z</time>
      </trkpt>
      <trkpt lat="43.31792" lon="5.68755">
        <ele>807</ele>
        <time>2019-11-29T12:08:20.000Z</time>
      </trkpt>
      <trkpt lat="43.31793" lon="5.68755">
        <ele>807</ele>
        <time>2019-11-29T12:08:21.000Z</time>
      </trkpt>
      <trkpt lat="43.31794" lon="5.68755">
        <ele>807</ele>
        <time>2019-11-29T12:08:22.000Z</time>
      </trkpt>
      <trkpt lat="43.31795" lon="5.68756">
        <ele>807</ele>
        <time>2019-11-29T12:08:23.000Z</time>
      </trkpt>
      <trkpt lat="43.31796" lon="5.68756">
        <ele>807</ele>
        <time>2019-11-29T12:08:24.000Z</time>
      </trkpt>
      <trkpt lat="43.31796" lon="5.68757">
        <ele>807</ele>
        <time>2019-11-29T12:08:25.000Z</time>
      </trkpt>
      <trkpt lat="43.31797" lon="5.68757">
        <ele>807</ele>
        <time>2019-11-29T12:08:26.000Z</time>
      </trkpt>
      <trkpt lat="43.31798" lon="5.68757">
        <ele>806</ele>
        <time>2019-11-29T12:08:27.000Z</time>
      </trkpt>
      <trkpt lat="43.31798" lon="5.68757">
        <ele>806</ele>
        <time>2019-11-29T12:08:28.000Z</time>
      </trkpt>
      <trkpt lat="43.31799" lon="5.68757">
        <ele>806</ele>
        <time>2019-11-29T12:08:29.000Z</time>
      </trkpt>
      <trkpt lat="43.318" lon="5.68756">
        <ele>806</ele>
        <time>2019-11-29T12:08:30.000Z</time>
      </trkpt>
      <trkpt lat="43.318" lon="5.68756">
        <ele>806</ele>
        <time>2019-11-29T12:08:31.000Z</time>
      </trkpt>
      <trkpt lat="43.31801" lon="5.68755">
        <ele>806</ele>
        <time>2019-11-29T12:08:32.000Z</time>
      </trkpt>
      <trkpt lat="43.31802" lon="5.68755">
        <ele>806</ele>
        <time>2019-11-29T12:08:33.000Z</time>
      </trkpt>
      <trkpt lat="43.31802" lon="5.68755">
        <ele>805</ele>
        <time>2019-11-29T12:08:34.000Z</time>
      </trkpt>
      <trkpt lat="43.31802" lon="5.68756">
        <ele>805</ele>
        <time>2019-11-29T12:08:35.000Z</time>
      </trkpt>
      <trkpt lat="43.31803" lon="5.68756">
        <ele>805</ele>
        <time>2019-11-29T12:08:36.000Z</time>
      </trkpt>
      <trkpt lat="43.31803" lon="5.68756">
        <ele>805</ele>
        <time>2019-11-29T12:08:37.000Z</time>
      </trkpt>
      <trkpt lat="43.31804" lon="5.68756">
        <ele>804</ele>
        <time>2019-11-29T12:08:38.000Z</time>
      </trkpt>
      <trkpt lat="43.31804" lon="5.68756">
        <ele>804</ele>
        <time>2019-11-29T12:08:39.000Z</time>
      </trkpt>
      <trkpt lat="43.31805" lon="5.68756">
        <ele>804</ele>
        <time>2019-11-29T12:08:40.000Z</time>
      </trkpt>
      <trkpt lat="43.31805" lon="5.68757">
        <ele>804</ele>
        <time>2019-11-29T12:08:41.000Z</time>
      </trkpt>
      <trkpt lat="43.31805" lon="5.68757">
        <ele>804</ele>
        <time>2019-11-29T12:08:42.000Z</time>
      </trkpt>
      <trkpt lat="43.31806" lon="5.68758">
        <ele>803</ele>
        <time>2019-11-29T12:08:43.000Z</time>
      </trkpt>
      <trkpt lat="43.31807" lon="5.68758">
        <ele>803</ele>
        <time>2019-11-29T12:08:44.000Z</time>
      </trkpt>
      <trkpt lat="43.31807" lon="5.68759">
        <ele>803</ele>
        <time>2019-11-29T12:08:45.000Z</time>
      </trkpt>
      <trkpt lat="43.31808" lon="5.6876">
        <ele>803</ele>
        <time>2019-11-29T12:08:46.000Z</time>
      </trkpt>
      <trkpt lat="43.31808" lon="5.6876">
        <ele>803</ele>
        <time>2019-11-29T12:08:47.000Z</time>
      </trkpt>
      <trkpt lat="43.31809" lon="5.6876">
        <ele>803</ele>
        <time>2019-11-29T12:08:48.000Z</time>
      </trkpt>
      <trkpt lat="43.3181" lon="5.68759">
        <ele>803</ele>
        <time>2019-11-29T12:08:49.000Z</time>
      </trkpt>
      <trkpt lat="43.31811" lon="5.68759">
        <ele>803</ele>
        <time>2019-11-29T12:08:50.000Z</time>
      </trkpt>
      <trkpt lat="43.31812" lon="5.68759">
        <ele>803</ele>
        <time>2019-11-29T12:08:51.000Z</time>
      </trkpt>
      <trkpt lat="43.31813" lon="5.68759">
        <ele>803</ele>
        <time>2019-11-29T12:08:52.000Z</time>
      </trkpt>
      <trkpt lat="43.31813" lon="5.68759">
        <ele>803</ele>
        <time>2019-11-29T12:08:53.000Z</time>
      </trkpt>
      <trkpt lat="43.31814" lon="5.68758">
        <ele>803</ele>
        <time>2019-11-29T12:08:54.000Z</time>
      </trkpt>
      <trkpt lat="43.31815" lon="5.68758">
        <ele>802</ele>
        <time>2019-11-29T12:08:55.000Z</time>
      </trkpt>
      <trkpt lat="43.31816" lon="5.68757">
        <ele>802</ele>
        <time>2019-11-29T12:08:56.000Z</time>
      </trkpt>
      <trkpt lat="43.31816" lon="5.68756">
        <ele>802</ele>
        <time>2019-11-29T12:08:57.000Z</time>
      </trkpt>
      <trkpt lat="43.31817" lon="5.68755">
        <ele>802</ele>
        <time>2019-11-29T12:08:58.000Z</time>
      </trkpt>
      <trkpt lat="43.31818" lon="5.68754">
        <ele>802</ele>
        <time>2019-11-29T12:08:59.000Z</time>
      </trkpt>
      <trkpt lat="43.31818" lon="5.68754">
        <ele>802</ele>
        <time>2019-11-29T12:09:00.000Z</time>
      </trkpt>
      <trkpt lat="43.31819" lon="5.68753">
        <ele>802</ele>
        <time>2019-11-29T12:09:01.000Z</time>
      </trkpt>
      <trkpt lat="43.3182" lon="5.68752">
        <ele>802</ele>
        <time>2019-11-29T12:09:02.000Z</time>
      </trkpt>
      <trkpt lat="43.31821" lon="5.68752">
        <ele>802</ele>
        <time>2019-11-29T12:09:03.000Z</time>
      </trkpt>
      <trkpt lat="43.31822" lon="5.68751">
        <ele>801</ele>
        <time>2019-11-29T12:09:04.000Z</time>
      </trkpt>
      <trkpt lat="43.31823" lon="5.6875">
        <ele>801</ele>
        <time>2019-11-29T12:09:05.000Z</time>
      </trkpt>
      <trkpt lat="43.31823" lon="5.68749">
        <ele>801</ele>
        <time>2019-11-29T12:09:06.000Z</time>
      </trkpt>
      <trkpt lat="43.31824" lon="5.68749">
        <ele>801</ele>
        <time>2019-11-29T12:09:07.000Z</time>
      </trkpt>
      <trkpt lat="43.31825" lon="5.68748">
        <ele>800</ele>
        <time>2019-11-29T12:09:08.000Z</time>
      </trkpt>
      <trkpt lat="43.31826" lon="5.68748">
        <ele>800</ele>
        <time>2019-11-29T12:09:09.000Z</time>
      </trkpt>
      <trkpt lat="43.31826" lon="5.68747">
        <ele>800</ele>
        <time>2019-11-29T12:09:10.000Z</time>
      </trkpt>
      <trkpt lat="43.31827" lon="5.68746">
        <ele>799</ele>
        <time>2019-11-29T12:09:11.000Z</time>
      </trkpt>
      <trkpt lat="43.31827" lon="5.68744">
        <ele>799</ele>
        <time>2019-11-29T12:09:12.000Z</time>
      </trkpt>
      <trkpt lat="43.31828" lon="5.68743">
        <ele>799</ele>
        <time>2019-11-29T12:09:13.000Z</time>
      </trkpt>
      <trkpt lat="43.31828" lon="5.68742">
        <ele>799</ele>
        <time>2019-11-29T12:09:14.000Z</time>
      </trkpt>
      <trkpt lat="43.31828" lon="5.6874">
        <ele>799</ele>
        <time>2019-11-29T12:09:15.000Z</time>
      </trkpt>
      <trkpt lat="43.31829" lon="5.68739">
        <ele>799</ele>
        <time>2019-11-29T12:09:16.000Z</time>
      </trkpt>
      <trkpt lat="43.31829" lon="5.68738">
        <ele>799</ele>
        <time>2019-11-29T12:09:17.000Z</time>
      </trkpt>
      <trkpt lat="43.3183" lon="5.68736">
        <ele>799</ele>
        <time>2019-11-29T12:09:18.000Z</time>
      </trkpt>
      <trkpt lat="43.3183" lon="5.68735">
        <ele>799</ele>
        <time>2019-11-29T12:09:19.000Z</time>
      </trkpt>
      <trkpt lat="43.3183" lon="5.68733">
        <ele>800</ele>
        <time>2019-11-29T12:09:20.000Z</time>
      </trkpt>
      <trkpt lat="43.31831" lon="5.68732">
        <ele>800</ele>
        <time>2019-11-29T12:09:21.000Z</time>
      </trkpt>
      <trkpt lat="43.31831" lon="5.6873">
        <ele>800</ele>
        <time>2019-11-29T12:09:22.000Z</time>
      </trkpt>
      <trkpt lat="43.31832" lon="5.68729">
        <ele>800</ele>
        <time>2019-11-29T12:09:23.000Z</time>
      </trkpt>
      <trkpt lat="43.31833" lon="5.68727">
        <ele>800</ele>
        <time>2019-11-29T12:09:24.000Z</time>
      </trkpt>
      <trkpt lat="43.31833" lon="5.68726">
        <ele>800</ele>
        <time>2019-11-29T12:09:25.000Z</time>
      </trkpt>
      <trkpt lat="43.31834" lon="5.68725">
        <ele>800</ele>
        <time>2019-11-29T12:09:26.000Z</time>
      </trkpt>
      <trkpt lat="43.31835" lon="5.68724">
        <ele>801</ele>
        <time>2019-11-29T12:09:27.000Z</time>
      </trkpt>
      <trkpt lat="43.31836" lon="5.68723">
        <ele>801</ele>
        <time>2019-11-29T12:09:28.000Z</time>
      </trkpt>
      <trkpt lat="43.31837" lon="5.68722">
        <ele>801</ele>
        <time>2019-11-29T12:09:29.000Z</time>
      </trkpt>
      <trkpt lat="43.31838" lon="5.6872">
        <ele>801</ele>
        <time>2019-11-29T12:09:30.000Z</time>
      </trkpt>
      <trkpt lat="43.31839" lon="5.68719">
        <ele>801</ele>
        <time>2019-11-29T12:09:31.000Z</time>
      </trkpt>
      <trkpt lat="43.31839" lon="5.68718">
        <ele>801</ele>
        <time>2019-11-29T12:09:32.000Z</time>
      </trkpt>
      <trkpt lat="43.3184" lon="5.68717">
        <ele>801</ele>
        <time>2019-11-29T12:09:33.000Z</time>
      </trkpt>
      <trkpt lat="43.31842" lon="5.68716">
        <ele>801</ele>
        <time>2019-11-29T12:09:34.000Z</time>
      </trkpt>
      <trkpt lat="43.31843" lon="5.68715">
        <ele>801</ele>
        <time>2019-11-29T12:09:35.000Z</time>
      </trkpt>
      <trkpt lat="43.31844" lon="5.68715">
        <ele>801</ele>
        <time>2019-11-29T12:09:36.000Z</time>
      </trkpt>
      <trkpt lat="43.31845" lon="5.68715">
        <ele>801</ele>
        <time>2019-11-29T12:09:37.000Z</time>
      </trkpt>
      <trkpt lat="43.31845" lon="5.68715">
        <ele>801</ele>
        <time>2019-11-29T12:09:38.000Z</time>
      </trkpt>
      <trkpt lat="43.31846" lon="5.68714">
        <ele>801</ele>
        <time>2019-11-29T12:09:39.000Z</time>
      </trkpt>
      <trkpt lat="43.31847" lon="5.68714">
        <ele>801</ele>
        <time>2019-11-29T12:09:40.000Z</time>
      </trkpt>
      <trkpt lat="43.31848" lon="5.68713">
        <ele>801</ele>
        <time>2019-11-29T12:09:41.000Z</time>
      </trkpt>
      <trkpt lat="43.31848" lon="5.68713">
        <ele>801</ele>
        <time>2019-11-29T12:09:42.000Z</time>
      </trkpt>
      <trkpt lat="43.31849" lon="5.68712">
        <ele>801</ele>
        <time>2019-11-29T12:09:43.000Z</time>
      </trkpt>
      <trkpt lat="43.3185" lon="5.68712">
        <ele>801</ele>
        <time>2019-11-29T12:09:44.000Z</time>
      </trkpt>
      <trkpt lat="43.31851" lon="5.68712">
        <ele>801</ele>
        <time>2019-11-29T12:09:45.000Z</time>
      </trkpt>
      <trkpt lat="43.31852" lon="5.68711">
        <ele>801</ele>
        <time>2019-11-29T12:09:46.000Z</time>
      </trkpt>
      <trkpt lat="43.31854" lon="5.68711">
        <ele>801</ele>
        <time>2019-11-29T12:09:47.000Z</time>
      </trkpt>
      <trkpt lat="43.31855" lon="5.68711">
        <ele>801</ele>
        <time>2019-11-29T12:09:48.000Z</time>
      </trkpt>
      <trkpt lat="43.31856" lon="5.6871">
        <ele>801</ele>
        <time>2019-11-29T12:09:49.000Z</time>
      </trkpt>
      <trkpt lat="43.31857" lon="5.6871">
        <ele>801</ele>
        <time>2019-11-29T12:09:50.000Z</time>
      </trkpt>
      <trkpt lat="43.31858" lon="5.68709">
        <ele>801</ele>
        <time>2019-11-29T12:09:51.000Z</time>
      </trkpt>
      <trkpt lat="43.31859" lon="5.68709">
        <ele>801</ele>
        <time>2019-11-29T12:09:52.000Z</time>
      </trkpt>
      <trkpt lat="43.31861" lon="5.68709">
        <ele>801</ele>
        <time>2019-11-29T12:09:53.000Z</time>
      </trkpt>
      <trkpt lat="43.31862" lon="5.68709">
        <ele>801</ele>
        <time>2019-11-29T12:09:54.000Z</time>
      </trkpt>
      <trkpt lat="43.31863" lon="5.68708">
        <ele>801</ele>
        <time>2019-11-29T12:09:55.000Z</time>
      </trkpt>
      <trkpt lat="43.31864" lon="5.68708">
        <ele>801</ele>
        <time>2019-11-29T12:09:56.000Z</time>
      </trkpt>
      <trkpt lat="43.31865" lon="5.68707">
        <ele>801</ele>
        <time>2019-11-29T12:09:57.000Z</time>
      </trkpt>
      <trkpt lat="43.31866" lon="5.68707">
        <ele>800</ele>
        <time>2019-11-29T12:09:58.000Z</time>
      </trkpt>
      <trkpt lat="43.31868" lon="5.68706">
        <ele>800</ele>
        <time>2019-11-29T12:09:59.000Z</time>
      </trkpt>
      <trkpt lat="43.31869" lon="5.68706">
        <ele>800</ele>
        <time>2019-11-29T12:10:00.000Z</time>
      </trkpt>
      <trkpt lat="43.3187" lon="5.68706">
        <ele>800</ele>
        <time>2019-11-29T12:10:01.000Z</time>
      </trkpt>
      <trkpt lat="43.31871" lon="5.68706">
        <ele>800</ele>
        <time>2019-11-29T12:10:02.000Z</time>
      </trkpt>
      <trkpt lat="43.31872" lon="5.68705">
        <ele>800</ele>
        <time>2019-11-29T12:10:03.000Z</time>
      </trkpt>
      <trkpt lat="43.31873" lon="5.68705">
        <ele>800</ele>
        <time>2019-11-29T12:10:04.000Z</time>
      </trkpt>
      <trkpt lat="43.31875" lon="5.68705">
        <ele>800</ele>
        <time>2019-11-29T12:10:05.000Z</time>
      </trkpt>
      <trkpt lat="43.31876" lon="5.68705">
        <ele>800</ele>
        <time>2019-11-29T12:10:06.000Z</time>
      </trkpt>
      <trkpt lat="43.31877" lon="5.68704">
        <ele>799</ele>
        <time>2019-11-29T12:10:07.000Z</time>
      </trkpt>
      <trkpt lat="43.31878" lon="5.68704">
        <ele>799</ele>
        <time>2019-11-29T12:10:08.000Z</time>
      </trkpt>
      <trkpt lat="43.31879" lon="5.68704">
        <ele>799</ele>
        <time>2019-11-29T12:10:09.000Z</time>
      </trkpt>
      <trkpt lat="43.3188" lon="5.68704">
        <ele>799</ele>
        <time>2019-11-29T12:10:10.000Z</time>
      </trkpt>
      <trkpt lat="43.31881" lon="5.68704">
        <ele>799</ele>
        <time>2019-11-29T12:10:11.000Z</time>
      </trkpt>
      <trkpt lat="43.31882" lon="5.68703">
        <ele>798</ele>
        <time>2019-11-29T12:10:12.000Z</time>
      </trkpt>
      <trkpt lat="43.31883" lon="5.68703">
        <ele>798</ele>
        <time>2019-11-29T12:10:13.000Z</time>
      </trkpt>
      <trkpt lat="43.31884" lon="5.68702">
        <ele>798</ele>
        <time>2019-11-29T12:10:14.000Z</time>
      </trkpt>
      <trkpt lat="43.31885" lon="5.68702">
        <ele>798</ele>
        <time>2019-11-29T12:10:15.000Z</time>
      </trkpt>
      <trkpt lat="43.31886" lon="5.68701">
        <ele>797</ele>
        <time>2019-11-29T12:10:16.000Z</time>
      </trkpt>
      <trkpt lat="43.31887" lon="5.68701">
        <ele>797</ele>
        <time>2019-11-29T12:10:17.000Z</time>
      </trkpt>
      <trkpt lat="43.31888" lon="5.687">
        <ele>797</ele>
        <time>2019-11-29T12:10:18.000Z</time>
      </trkpt>
      <trkpt lat="43.31889" lon="5.687">
        <ele>797</ele>
        <time>2019-11-29T12:10:19.000Z</time>
      </trkpt>
      <trkpt lat="43.3189" lon="5.68699">
        <ele>797</ele>
        <time>2019-11-29T12:10:20.000Z</time>
      </trkpt>
      <trkpt lat="43.31891" lon="5.68699">
        <ele>797</ele>
        <time>2019-11-29T12:10:21.000Z</time>
      </trkpt>
      <trkpt lat="43.31892" lon="5.68698">
        <ele>797</ele>
        <time>2019-11-29T12:10:22.000Z</time>
      </trkpt>
      <trkpt lat="43.31893" lon="5.68698">
        <ele>796</ele>
        <time>2019-11-29T12:10:23.000Z</time>
      </trkpt>
      <trkpt lat="43.31894" lon="5.68697">
        <ele>796</ele>
        <time>2019-11-29T12:10:24.000Z</time>
      </trkpt>
      <trkpt lat="43.31895" lon="5.68697">
        <ele>796</ele>
        <time>2019-11-29T12:10:25.000Z</time>
      </trkpt>
      <trkpt lat="43.31896" lon="5.68696">
        <ele>796</ele>
        <time>2019-11-29T12:10:26.000Z</time>
      </trkpt>
      <trkpt lat="43.31897" lon="5.68695">
        <ele>796</ele>
        <time>2019-11-29T12:10:27.000Z</time>
      </trkpt>
      <trkpt lat="43.31898" lon="5.68695">
        <ele>795</ele>
        <time>2019-11-29T12:10:28.000Z</time>
      </trkpt>
      <trkpt lat="43.31899" lon="5.68695">
        <ele>795</ele>
        <time>2019-11-29T12:10:29.000Z</time>
      </trkpt>
      <trkpt lat="43.319" lon="5.68694">
        <ele>795</ele>
        <time>2019-11-29T12:10:30.000Z</time>
      </trkpt>
      <trkpt lat="43.31901" lon="5.68694">
        <ele>795</ele>
        <time>2019-11-29T12:10:31.000Z</time>
      </trkpt>
      <trkpt lat="43.31902" lon="5.68693">
        <ele>794</ele>
        <time>2019-11-29T12:10:32.000Z</time>
      </trkpt>
      <trkpt lat="43.31902" lon="5.68693">
        <ele>794</ele>
        <time>2019-11-29T12:10:33.000Z</time>
      </trkpt>
      <trkpt lat="43.31903" lon="5.68692">
        <ele>794</ele>
        <time>2019-11-29T12:10:34.000Z</time>
      </trkpt>
      <trkpt lat="43.31904" lon="5.68692">
        <ele>794</ele>
        <time>2019-11-29T12:10:35.000Z</time>
      </trkpt>
      <trkpt lat="43.31904" lon="5.68691">
        <ele>794</ele>
        <time>2019-11-29T12:10:36.000Z</time>
      </trkpt>
      <trkpt lat="43.31905" lon="5.68691">
        <ele>793</ele>
        <time>2019-11-29T12:10:37.000Z</time>
      </trkpt>
      <trkpt lat="43.31906" lon="5.68691">
        <ele>793</ele>
        <time>2019-11-29T12:10:38.000Z</time>
      </trkpt>
      <trkpt lat="43.31907" lon="5.6869">
        <ele>793</ele>
        <time>2019-11-29T12:10:39.000Z</time>
      </trkpt>
      <trkpt lat="43.31908" lon="5.6869">
        <ele>792</ele>
        <time>2019-11-29T12:10:40.000Z</time>
      </trkpt>
      <trkpt lat="43.31909" lon="5.68691">
        <ele>792</ele>
        <time>2019-11-29T12:10:41.000Z</time>
      </trkpt>
      <trkpt lat="43.31909" lon="5.68691">
        <ele>792</ele>
        <time>2019-11-29T12:10:42.000Z</time>
      </trkpt>
      <trkpt lat="43.3191" lon="5.68691">
        <ele>792</ele>
        <time>2019-11-29T12:10:43.000Z</time>
      </trkpt>
      <trkpt lat="43.3191" lon="5.68691">
        <ele>792</ele>
        <time>2019-11-29T12:10:44.000Z</time>
      </trkpt>
      <trkpt lat="43.31911" lon="5.68691">
        <ele>792</ele>
        <time>2019-11-29T12:10:45.000Z</time>
      </trkpt>
      <trkpt lat="43.31912" lon="5.68691">
        <ele>792</ele>
        <time>2019-11-29T12:10:46.000Z</time>
      </trkpt>
      <trkpt lat="43.31912" lon="5.68691">
        <ele>792</ele>
        <time>2019-11-29T12:10:47.000Z</time>
      </trkpt>
      <trkpt lat="43.31913" lon="5.68691">
        <ele>792</ele>
        <time>2019-11-29T12:10:48.000Z</time>
      </trkpt>
      <trkpt lat="43.31914" lon="5.68691">
        <ele>792</ele>
        <time>2019-11-29T12:10:49.000Z</time>
      </trkpt>
      <trkpt lat="43.31914" lon="5.68692">
        <ele>791</ele>
        <time>2019-11-29T12:10:50.000Z</time>
      </trkpt>
      <trkpt lat="43.31914" lon="5.68692">
        <ele>791</ele>
        <time>2019-11-29T12:10:51.000Z</time>
      </trkpt>
      <trkpt lat="43.31914" lon="5.68692">
        <ele>791</ele>
        <time>2019-11-29T12:10:52.000Z</time>
      </trkpt>
      <trkpt lat="43.31914" lon="5.68692">
        <ele>791</ele>
        <time>2019-11-29T12:10:53.000Z</time>
      </trkpt>
      <trkpt lat="43.31914" lon="5.68693">
        <ele>790</ele>
        <time>2019-11-29T12:10:54.000Z</time>
      </trkpt>
      <trkpt lat="43.31914" lon="5.68693">
        <ele>790</ele>
        <time>2019-11-29T12:10:55.000Z</time>
      </trkpt>
      <trkpt lat="43.31914" lon="5.68693">
        <ele>790</ele>
        <time>2019-11-29T12:10:56.000Z</time>
      </trkpt>
      <trkpt lat="43.31914" lon="5.68693">
        <ele>790</ele>
        <time>2019-11-29T12:10:57.000Z</time>
      </trkpt>
      <trkpt lat="43.31914" lon="5.68693">
        <ele>789</ele>
        <time>2019-11-29T12:10:58.000Z</time>
      </trkpt>
      <trkpt lat="43.31914" lon="5.68693">
        <ele>789</ele>
        <time>2019-11-29T12:10:59.000Z</time>
      </trkpt>
      <trkpt lat="43.31914" lon="5.68693">
        <ele>789</ele>
        <time>2019-11-29T12:11:00.000Z</time>
      </trkpt>
      <trkpt lat="43.31914" lon="5.68693">
        <ele>789</ele>
        <time>2019-11-29T12:11:01.000Z</time>
      </trkpt>
      <trkpt lat="43.31914" lon="5.68693">
        <ele>789</ele>
        <time>2019-11-29T12:11:02.000Z</time>
      </trkpt>
      <trkpt lat="43.31914" lon="5.68693">
        <ele>789</ele>
        <time>2019-11-29T12:11:03.000Z</time>
      </trkpt>
      <trkpt lat="43.31914" lon="5.68693">
        <ele>788</ele>
        <time>2019-11-29T12:11:04.000Z</time>
      </trkpt>
      <trkpt lat="43.31914" lon="5.68693">
        <ele>788</ele>
        <time>2019-11-29T12:11:05.000Z</time>
      </trkpt>
      <trkpt lat="43.31914" lon="5.68693">
        <ele>788</ele>
        <time>2019-11-29T12:11:06.000Z</time>
      </trkpt>
      <trkpt lat="43.31914" lon="5.68693">
        <ele>788</ele>
        <time>2019-11-29T12:11:07.000Z</time>
      </trkpt>
      <trkpt lat="43.31914" lon="5.68693">
        <ele>788</ele>
        <time>2019-11-29T12:11:08.000Z</time>
      </trkpt>
      <trkpt lat="43.31914" lon="5.68693">
        <ele>788</ele>
        <time>2019-11-29T12:11:09.000Z</time>
      </trkpt>
      <trkpt lat="43.31914" lon="5.68693">
        <ele>788</ele>
        <time>2019-11-29T12:11:10.000Z</time>
      </trkpt>
      <trkpt lat="43.31914" lon="5.68693">
        <ele>788</ele>
        <time>2019-11-29T12:11:11.000Z</time>
      </trkpt>
      <trkpt lat="43.31914" lon="5.68693">
        <ele>788</ele>
        <time>2019-11-29T12:11:12.000Z</time>
      </trkpt>
      <trkpt lat="43.31914" lon="5.68693">
        <ele>788</ele>
        <time>2019-11-29T12:11:13.000Z</time>
      </trkpt>
      <trkpt lat="43.31914" lon="5.68693">
        <ele>788</ele>
        <time>2019-11-29T12:11:14.000Z</time>
      </trkpt>
      <trkpt lat="43.31914" lon="5.68693">
        <ele>787</ele>
        <time>2019-11-29T12:11:15.000Z</time>
      </trkpt>
      <trkpt lat="43.31914" lon="5.68693">
        <ele>787</ele>
        <time>2019-11-29T12:11:16.000Z</time>
      </trkpt>
      <trkpt lat="43.31914" lon="5.68693">
        <ele>787</ele>
        <time>2019-11-29T12:11:17.000Z</time>
      </trkpt>
      <trkpt lat="43.31914" lon="5.68694">
        <ele>787</ele>
        <time>2019-11-29T12:11:18.000Z</time>
      </trkpt>
      <trkpt lat="43.31914" lon="5.68694">
        <ele>787</ele>
        <time>2019-11-29T12:11:19.000Z</time>
      </trkpt>
      <trkpt lat="43.31914" lon="5.68694">
        <ele>787</ele>
        <time>2019-11-29T12:11:20.000Z</time>
      </trkpt>
      <trkpt lat="43.31914" lon="5.68694">
        <ele>787</ele>
        <time>2019-11-29T12:11:21.000Z</time>
      </trkpt>
      <trkpt lat="43.31914" lon="5.68694">
        <ele>787</ele>
        <time>2019-11-29T12:11:22.000Z</time>
      </trkpt>
      <trkpt lat="43.31914" lon="5.68694">
        <ele>787</ele>
        <time>2019-11-29T12:11:23.000Z</time>
      </trkpt>
      <trkpt lat="43.31914" lon="5.68694">
        <ele>787</ele>
        <time>2019-11-29T12:11:24.000Z</time>
      </trkpt>
      <trkpt lat="43.31914" lon="5.68694">
        <ele>787</ele>
        <time>2019-11-29T12:11:25.000Z</time>
      </trkpt>
      <trkpt lat="43.31914" lon="5.68694">
        <ele>787</ele>
        <time>2019-11-29T12:11:26.000Z</time>
      </trkpt>
      <trkpt lat="43.31914" lon="5.68694">
        <ele>787</ele>
        <time>2019-11-29T12:11:27.000Z</time>
      </trkpt>
      <trkpt lat="43.31914" lon="5.68694">
        <ele>787</ele>
        <time>2019-11-29T12:11:28.000Z</time>
      </trkpt>
      <trkpt lat="43.31914" lon="5.68694">
        <ele>787</ele>
        <time>2019-11-29T12:11:29.000Z</time>
      </trkpt>
      <trkpt lat="43.31914" lon="5.68694">
        <ele>787</ele>
        <time>2019-11-29T12:11:30.000Z</time>
      </trkpt>
      <trkpt lat="43.31914" lon="5.68694">
        <ele>787</ele>
        <time>2019-11-29T12:11:31.000Z</time>
      </trkpt>
      <trkpt lat="43.31914" lon="5.68694">
        <ele>788</ele>
        <time>2019-11-29T12:11:32.000Z</time>
      </trkpt>
      <trkpt lat="43.31915" lon="5.68694">
        <ele>788</ele>
        <time>2019-11-29T12:11:33.000Z</time>
      </trkpt>
      <trkpt lat="43.31915" lon="5.68694">
        <ele>788</ele>
        <time>2019-11-29T12:11:34.000Z</time>
      </trkpt>
      <trkpt lat="43.31916" lon="5.68694">
        <ele>788</ele>
        <time>2019-11-29T12:11:35.000Z</time>
      </trkpt>
      <trkpt lat="43.31916" lon="5.68694">
        <ele>788</ele>
        <time>2019-11-29T12:11:36.000Z</time>
      </trkpt>
      <trkpt lat="43.31917" lon="5.68694">
        <ele>788</ele>
        <time>2019-11-29T12:11:37.000Z</time>
      </trkpt>
      <trkpt lat="43.31917" lon="5.68694">
        <ele>788</ele>
        <time>2019-11-29T12:11:38.000Z</time>
      </trkpt>
      <trkpt lat="43.31918" lon="5.68694">
        <ele>788</ele>
        <time>2019-11-29T12:11:39.000Z</time>
      </trkpt>
      <trkpt lat="43.31919" lon="5.68694">
        <ele>787</ele>
        <time>2019-11-29T12:11:40.000Z</time>
      </trkpt>
      <trkpt lat="43.3192" lon="5.68694">
        <ele>787</ele>
        <time>2019-11-29T12:11:41.000Z</time>
      </trkpt>
      <trkpt lat="43.31921" lon="5.68693">
        <ele>787</ele>
        <time>2019-11-29T12:11:42.000Z</time>
      </trkpt>
      <trkpt lat="43.31921" lon="5.68693">
        <ele>787</ele>
        <time>2019-11-29T12:11:43.000Z</time>
      </trkpt>
      <trkpt lat="43.31921" lon="5.68693">
        <ele>787</ele>
        <time>2019-11-29T12:11:44.000Z</time>
      </trkpt>
      <trkpt lat="43.31921" lon="5.68693">
        <ele>787</ele>
        <time>2019-11-29T12:11:45.000Z</time>
      </trkpt>
      <trkpt lat="43.31921" lon="5.68693">
        <ele>787</ele>
        <time>2019-11-29T12:11:46.000Z</time>
      </trkpt>
      <trkpt lat="43.31921" lon="5.68692">
        <ele>787</ele>
        <time>2019-11-29T12:11:47.000Z</time>
      </trkpt>
      <trkpt lat="43.31921" lon="5.68692">
        <ele>788</ele>
        <time>2019-11-29T12:11:48.000Z</time>
      </trkpt>
      <trkpt lat="43.31921" lon="5.68692">
        <ele>788</ele>
        <time>2019-11-29T12:11:49.000Z</time>
      </trkpt>
      <trkpt lat="43.31921" lon="5.68692">
        <ele>788</ele>
        <time>2019-11-29T12:11:50.000Z</time>
      </trkpt>
      <trkpt lat="43.31921" lon="5.68692">
        <ele>788</ele>
        <time>2019-11-29T12:11:51.000Z</time>
      </trkpt>
      <trkpt lat="43.31921" lon="5.68692">
        <ele>788</ele>
        <time>2019-11-29T12:11:52.000Z</time>
      </trkpt>
      <trkpt lat="43.31921" lon="5.68692">
        <ele>788</ele>
        <time>2019-11-29T12:11:53.000Z</time>
      </trkpt>
      <trkpt lat="43.31921" lon="5.68692">
        <ele>788</ele>
        <time>2019-11-29T12:11:54.000Z</time>
      </trkpt>
      <trkpt lat="43.31921" lon="5.68692">
        <ele>788</ele>
        <time>2019-11-29T12:11:55.000Z</time>
      </trkpt>
      <trkpt lat="43.31921" lon="5.68692">
        <ele>788</ele>
        <time>2019-11-29T12:11:56.000Z</time>
      </trkpt>
      <trkpt lat="43.31921" lon="5.68692">
        <ele>788</ele>
        <time>2019-11-29T12:11:57.000Z</time>
      </trkpt>
      <trkpt lat="43.31921" lon="5.68692">
        <ele>788</ele>
        <time>2019-11-29T12:11:58.000Z</time>
      </trkpt>
      <trkpt lat="43.31921" lon="5.68692">
        <ele>788</ele>
        <time>2019-11-29T12:11:59.000Z</time>
      </trkpt>
      <trkpt lat="43.3192" lon="5.68692">
        <ele>788</ele>
        <time>2019-11-29T12:12:00.000Z</time>
      </trkpt>
      <trkpt lat="43.3192" lon="5.68691">
        <ele>788</ele>
        <time>2019-11-29T12:12:01.000Z</time>
      </trkpt>
      <trkpt lat="43.3192" lon="5.68691">
        <ele>787</ele>
        <time>2019-11-29T12:12:02.000Z</time>
      </trkpt>
      <trkpt lat="43.3192" lon="5.68691">
        <ele>787</ele>
        <time>2019-11-29T12:12:03.000Z</time>
      </trkpt>
      <trkpt lat="43.3192" lon="5.68691">
        <ele>787</ele>
        <time>2019-11-29T12:12:04.000Z</time>
      </trkpt>
      <trkpt lat="43.3192" lon="5.68691">
        <ele>787</ele>
        <time>2019-11-29T12:12:05.000Z</time>
      </trkpt>
      <trkpt lat="43.3192" lon="5.68691">
        <ele>787</ele>
        <time>2019-11-29T12:12:06.000Z</time>
      </trkpt>
      <trkpt lat="43.3192" lon="5.68691">
        <ele>787</ele>
        <time>2019-11-29T12:12:07.000Z</time>
      </trkpt>
      <trkpt lat="43.3192" lon="5.68691">
        <ele>787</ele>
        <time>2019-11-29T12:12:08.000Z</time>
      </trkpt>
      <trkpt lat="43.3192" lon="5.68691">
        <ele>787</ele>
        <time>2019-11-29T12:12:09.000Z</time>
      </trkpt>
      <trkpt lat="43.3192" lon="5.6869">
        <ele>787</ele>
        <time>2019-11-29T12:12:10.000Z</time>
      </trkpt>
      <trkpt lat="43.3192" lon="5.6869">
        <ele>787</ele>
        <time>2019-11-29T12:12:11.000Z</time>
      </trkpt>
      <trkpt lat="43.3192" lon="5.6869">
        <ele>787</ele>
        <time>2019-11-29T12:12:12.000Z</time>
      </trkpt>
      <trkpt lat="43.3192" lon="5.6869">
        <ele>787</ele>
        <time>2019-11-29T12:12:13.000Z</time>
      </trkpt>
      <trkpt lat="43.3192" lon="5.6869">
        <ele>787</ele>
        <time>2019-11-29T12:12:14.000Z</time>
      </trkpt>
      <trkpt lat="43.3192" lon="5.6869">
        <ele>787</ele>
        <time>2019-11-29T12:12:15.000Z</time>
      </trkpt>
      <trkpt lat="43.3192" lon="5.6869">
        <ele>787</ele>
        <time>2019-11-29T12:12:16.000Z</time>
      </trkpt>
      <trkpt lat="43.3192" lon="5.6869">
        <ele>787</ele>
        <time>2019-11-29T12:12:17.000Z</time>
      </trkpt>
      <trkpt lat="43.3192" lon="5.6869">
        <ele>787</ele>
        <time>2019-11-29T12:12:18.000Z</time>
      </trkpt>
      <trkpt lat="43.3192" lon="5.6869">
        <ele>787</ele>
        <time>2019-11-29T12:12:19.000Z</time>
      </trkpt>
      <trkpt lat="43.31921" lon="5.68689">
        <ele>786</ele>
        <time>2019-11-29T12:12:20.000Z</time>
      </trkpt>
      <trkpt lat="43.31921" lon="5.68688">
        <ele>786</ele>
        <time>2019-11-29T12:12:21.000Z</time>
      </trkpt>
      <trkpt lat="43.31922" lon="5.68687">
        <ele>786</ele>
        <time>2019-11-29T12:12:22.000Z</time>
      </trkpt>
      <trkpt lat="43.31923" lon="5.68686">
        <ele>786</ele>
        <time>2019-11-29T12:12:23.000Z</time>
      </trkpt>
      <trkpt lat="43.31923" lon="5.68685">
        <ele>786</ele>
        <time>2019-11-29T12:12:24.000Z</time>
      </trkpt>
      <trkpt lat="43.31924" lon="5.68684">
        <ele>786</ele>
        <time>2019-11-29T12:12:25.000Z</time>
      </trkpt>
      <trkpt lat="43.31925" lon="5.68683">
        <ele>786</ele>
        <time>2019-11-29T12:12:26.000Z</time>
      </trkpt>
      <trkpt lat="43.31925" lon="5.68682">
        <ele>786</ele>
        <time>2019-11-29T12:12:27.000Z</time>
      </trkpt>
      <trkpt lat="43.31925" lon="5.68682">
        <ele>786</ele>
        <time>2019-11-29T12:12:28.000Z</time>
      </trkpt>
      <trkpt lat="43.31925" lon="5.68682">
        <ele>786</ele>
        <time>2019-11-29T12:12:29.000Z</time>
      </trkpt>
      <trkpt lat="43.31925" lon="5.68682">
        <ele>786</ele>
        <time>2019-11-29T12:12:30.000Z</time>
      </trkpt>
      <trkpt lat="43.31925" lon="5.68682">
        <ele>786</ele>
        <time>2019-11-29T12:12:31.000Z</time>
      </trkpt>
      <trkpt lat="43.31925" lon="5.68682">
        <ele>786</ele>
        <time>2019-11-29T12:12:32.000Z</time>
      </trkpt>
      <trkpt lat="43.31925" lon="5.68682">
        <ele>786</ele>
        <time>2019-11-29T12:12:33.000Z</time>
      </trkpt>
      <trkpt lat="43.31925" lon="5.68682">
        <ele>785</ele>
        <time>2019-11-29T12:12:34.000Z</time>
      </trkpt>
      <trkpt lat="43.31925" lon="5.68682">
        <ele>785</ele>
        <time>2019-11-29T12:12:35.000Z</time>
      </trkpt>
      <trkpt lat="43.31925" lon="5.68682">
        <ele>785</ele>
        <time>2019-11-29T12:12:36.000Z</time>
      </trkpt>
      <trkpt lat="43.31925" lon="5.68682">
        <ele>785</ele>
        <time>2019-11-29T12:12:37.000Z</time>
      </trkpt>
      <trkpt lat="43.31925" lon="5.68682">
        <ele>785</ele>
        <time>2019-11-29T12:12:38.000Z</time>
      </trkpt>
      <trkpt lat="43.31926" lon="5.68682">
        <ele>785</ele>
        <time>2019-11-29T12:12:39.000Z</time>
      </trkpt>
      <trkpt lat="43.31926" lon="5.68682">
        <ele>785</ele>
        <time>2019-11-29T12:12:40.000Z</time>
      </trkpt>
      <trkpt lat="43.31926" lon="5.68682">
        <ele>784</ele>
        <time>2019-11-29T12:12:41.000Z</time>
      </trkpt>
      <trkpt lat="43.31926" lon="5.68682">
        <ele>784</ele>
        <time>2019-11-29T12:12:42.000Z</time>
      </trkpt>
      <trkpt lat="43.31926" lon="5.68682">
        <ele>784</ele>
        <time>2019-11-29T12:12:43.000Z</time>
      </trkpt>
      <trkpt lat="43.31926" lon="5.68682">
        <ele>784</ele>
        <time>2019-11-29T12:12:44.000Z</time>
      </trkpt>
      <trkpt lat="43.31926" lon="5.68682">
        <ele>784</ele>
        <time>2019-11-29T12:12:45.000Z</time>
      </trkpt>
      <trkpt lat="43.31926" lon="5.68682">
        <ele>784</ele>
        <time>2019-11-29T12:12:46.000Z</time>
      </trkpt>
      <trkpt lat="43.31925" lon="5.68682">
        <ele>783</ele>
        <time>2019-11-29T12:12:47.000Z</time>
      </trkpt>
      <trkpt lat="43.31925" lon="5.68681">
        <ele>783</ele>
        <time>2019-11-29T12:12:48.000Z</time>
      </trkpt>
      <trkpt lat="43.31925" lon="5.6868">
        <ele>783</ele>
        <time>2019-11-29T12:12:49.000Z</time>
      </trkpt>
      <trkpt lat="43.31925" lon="5.68679">
        <ele>783</ele>
        <time>2019-11-29T12:12:50.000Z</time>
      </trkpt>
      <trkpt lat="43.31925" lon="5.68679">
        <ele>782</ele>
        <time>2019-11-29T12:12:51.000Z</time>
      </trkpt>
      <trkpt lat="43.31925" lon="5.68678">
        <ele>782</ele>
        <time>2019-11-29T12:12:52.000Z</time>
      </trkpt>
      <trkpt lat="43.31925" lon="5.68678">
        <ele>782</ele>
        <time>2019-11-29T12:12:53.000Z</time>
      </trkpt>
      <trkpt lat="43.31926" lon="5.68677">
        <ele>782</ele>
        <time>2019-11-29T12:12:54.000Z</time>
      </trkpt>
      <trkpt lat="43.31926" lon="5.68676">
        <ele>782</ele>
        <time>2019-11-29T12:12:55.000Z</time>
      </trkpt>
      <trkpt lat="43.31926" lon="5.68675">
        <ele>781</ele>
        <time>2019-11-29T12:12:56.000Z</time>
      </trkpt>
      <trkpt lat="43.31927" lon="5.68674">
        <ele>781</ele>
        <time>2019-11-29T12:12:57.000Z</time>
      </trkpt>
      <trkpt lat="43.31928" lon="5.68673">
        <ele>781</ele>
        <time>2019-11-29T12:12:58.000Z</time>
      </trkpt>
      <trkpt lat="43.31928" lon="5.68673">
        <ele>781</ele>
        <time>2019-11-29T12:12:59.000Z</time>
      </trkpt>
      <trkpt lat="43.31929" lon="5.68672">
        <ele>780</ele>
        <time>2019-11-29T12:13:00.000Z</time>
      </trkpt>
      <trkpt lat="43.31929" lon="5.68671">
        <ele>780</ele>
        <time>2019-11-29T12:13:01.000Z</time>
      </trkpt>
      <trkpt lat="43.31929" lon="5.68669">
        <ele>780</ele>
        <time>2019-11-29T12:13:02.000Z</time>
      </trkpt>
      <trkpt lat="43.31929" lon="5.68668">
        <ele>780</ele>
        <time>2019-11-29T12:13:03.000Z</time>
      </trkpt>
      <trkpt lat="43.31929" lon="5.68667">
        <ele>780</ele>
        <time>2019-11-29T12:13:04.000Z</time>
      </trkpt>
      <trkpt lat="43.31929" lon="5.68666">
        <ele>780</ele>
        <time>2019-11-29T12:13:05.000Z</time>
      </trkpt>
      <trkpt lat="43.31929" lon="5.68666">
        <ele>780</ele>
        <time>2019-11-29T12:13:06.000Z</time>
      </trkpt>
      <trkpt lat="43.31929" lon="5.68665">
        <ele>780</ele>
        <time>2019-11-29T12:13:07.000Z</time>
      </trkpt>
      <trkpt lat="43.31928" lon="5.68664">
        <ele>780</ele>
        <time>2019-11-29T12:13:08.000Z</time>
      </trkpt>
      <trkpt lat="43.31928" lon="5.68663">
        <ele>780</ele>
        <time>2019-11-29T12:13:09.000Z</time>
      </trkpt>
      <trkpt lat="43.31928" lon="5.68662">
        <ele>780</ele>
        <time>2019-11-29T12:13:10.000Z</time>
      </trkpt>
      <trkpt lat="43.31928" lon="5.68661">
        <ele>780</ele>
        <time>2019-11-29T12:13:11.000Z</time>
      </trkpt>
      <trkpt lat="43.31928" lon="5.6866">
        <ele>780</ele>
        <time>2019-11-29T12:13:12.000Z</time>
      </trkpt>
      <trkpt lat="43.31928" lon="5.68658">
        <ele>780</ele>
        <time>2019-11-29T12:13:13.000Z</time>
      </trkpt>
      <trkpt lat="43.31928" lon="5.68657">
        <ele>779</ele>
        <time>2019-11-29T12:13:14.000Z</time>
      </trkpt>
      <trkpt lat="43.31929" lon="5.68656">
        <ele>779</ele>
        <time>2019-11-29T12:13:15.000Z</time>
      </trkpt>
      <trkpt lat="43.31929" lon="5.68655">
        <ele>779</ele>
        <time>2019-11-29T12:13:16.000Z</time>
      </trkpt>
      <trkpt lat="43.31929" lon="5.68654">
        <ele>779</ele>
        <time>2019-11-29T12:13:17.000Z</time>
      </trkpt>
      <trkpt lat="43.31929" lon="5.68653">
        <ele>779</ele>
        <time>2019-11-29T12:13:18.000Z</time>
      </trkpt>
      <trkpt lat="43.31929" lon="5.68652">
        <ele>779</ele>
        <time>2019-11-29T12:13:19.000Z</time>
      </trkpt>
      <trkpt lat="43.3193" lon="5.6865">
        <ele>779</ele>
        <time>2019-11-29T12:13:20.000Z</time>
      </trkpt>
      <trkpt lat="43.3193" lon="5.68649">
        <ele>779</ele>
        <time>2019-11-29T12:13:21.000Z</time>
      </trkpt>
      <trkpt lat="43.31931" lon="5.68647">
        <ele>779</ele>
        <time>2019-11-29T12:13:22.000Z</time>
      </trkpt>
      <trkpt lat="43.31931" lon="5.68646">
        <ele>779</ele>
        <time>2019-11-29T12:13:23.000Z</time>
      </trkpt>
      <trkpt lat="43.31932" lon="5.68645">
        <ele>778</ele>
        <time>2019-11-29T12:13:24.000Z</time>
      </trkpt>
      <trkpt lat="43.31932" lon="5.68645">
        <ele>778</ele>
        <time>2019-11-29T12:13:25.000Z</time>
      </trkpt>
      <trkpt lat="43.31933" lon="5.68644">
        <ele>778</ele>
        <time>2019-11-29T12:13:26.000Z</time>
      </trkpt>
      <trkpt lat="43.31933" lon="5.68643">
        <ele>778</ele>
        <time>2019-11-29T12:13:27.000Z</time>
      </trkpt>
      <trkpt lat="43.31934" lon="5.68642">
        <ele>778</ele>
        <time>2019-11-29T12:13:28.000Z</time>
      </trkpt>
      <trkpt lat="43.31935" lon="5.68641">
        <ele>778</ele>
        <time>2019-11-29T12:13:29.000Z</time>
      </trkpt>
      <trkpt lat="43.31935" lon="5.6864">
        <ele>778</ele>
        <time>2019-11-29T12:13:30.000Z</time>
      </trkpt>
      <trkpt lat="43.31936" lon="5.68639">
        <ele>778</ele>
        <time>2019-11-29T12:13:31.000Z</time>
      </trkpt>
      <trkpt lat="43.31936" lon="5.68638">
        <ele>778</ele>
        <time>2019-11-29T12:13:32.000Z</time>
      </trkpt>
      <trkpt lat="43.31935" lon="5.68637">
        <ele>778</ele>
        <time>2019-11-29T12:13:33.000Z</time>
      </trkpt>
      <trkpt lat="43.31935" lon="5.68636">
        <ele>778</ele>
        <time>2019-11-29T12:13:34.000Z</time>
      </trkpt>
      <trkpt lat="43.31935" lon="5.68635">
        <ele>778</ele>
        <time>2019-11-29T12:13:35.000Z</time>
      </trkpt>
      <trkpt lat="43.31935" lon="5.68634">
        <ele>778</ele>
        <time>2019-11-29T12:13:36.000Z</time>
      </trkpt>
      <trkpt lat="43.31935" lon="5.68633">
        <ele>778</ele>
        <time>2019-11-29T12:13:37.000Z</time>
      </trkpt>
      <trkpt lat="43.31935" lon="5.68632">
        <ele>778</ele>
        <time>2019-11-29T12:13:38.000Z</time>
      </trkpt>
      <trkpt lat="43.31935" lon="5.68631">
        <ele>778</ele>
        <time>2019-11-29T12:13:39.000Z</time>
      </trkpt>
      <trkpt lat="43.31935" lon="5.6863">
        <ele>778</ele>
        <time>2019-11-29T12:13:40.000Z</time>
      </trkpt>
      <trkpt lat="43.31935" lon="5.68629">
        <ele>779</ele>
        <time>2019-11-29T12:13:41.000Z</time>
      </trkpt>
      <trkpt lat="43.31935" lon="5.68628">
        <ele>779</ele>
        <time>2019-11-29T12:13:42.000Z</time>
      </trkpt>
      <trkpt lat="43.31935" lon="5.68627">
        <ele>779</ele>
        <time>2019-11-29T12:13:43.000Z</time>
      </trkpt>
      <trkpt lat="43.31936" lon="5.68626">
        <ele>779</ele>
        <time>2019-11-29T12:13:44.000Z</time>
      </trkpt>
      <trkpt lat="43.31936" lon="5.68625">
        <ele>779</ele>
        <time>2019-11-29T12:13:45.000Z</time>
      </trkpt>
      <trkpt lat="43.31936" lon="5.68624">
        <ele>779</ele>
        <time>2019-11-29T12:13:46.000Z</time>
      </trkpt>
      <trkpt lat="43.31936" lon="5.68623">
        <ele>779</ele>
        <time>2019-11-29T12:13:47.000Z</time>
      </trkpt>
      <trkpt lat="43.31937" lon="5.68623">
        <ele>779</ele>
        <time>2019-11-29T12:13:48.000Z</time>
      </trkpt>
      <trkpt lat="43.31937" lon="5.68622">
        <ele>779</ele>
        <time>2019-11-29T12:13:49.000Z</time>
      </trkpt>
      <trkpt lat="43.31937" lon="5.68622">
        <ele>779</ele>
        <time>2019-11-29T12:13:50.000Z</time>
      </trkpt>
      <trkpt lat="43.31937" lon="5.68621">
        <ele>779</ele>
        <time>2019-11-29T12:13:51.000Z</time>
      </trkpt>
      <trkpt lat="43.31936" lon="5.6862">
        <ele>780</ele>
        <time>2019-11-29T12:13:52.000Z</time>
      </trkpt>
      <trkpt lat="43.31936" lon="5.68619">
        <ele>780</ele>
        <time>2019-11-29T12:13:53.000Z</time>
      </trkpt>
      <trkpt lat="43.31936" lon="5.68618">
        <ele>780</ele>
        <time>2019-11-29T12:13:54.000Z</time>
      </trkpt>
      <trkpt lat="43.31936" lon="5.68618">
        <ele>780</ele>
        <time>2019-11-29T12:13:55.000Z</time>
      </trkpt>
      <trkpt lat="43.31936" lon="5.68617">
        <ele>780</ele>
        <time>2019-11-29T12:13:56.000Z</time>
      </trkpt>
      <trkpt lat="43.31936" lon="5.68616">
        <ele>780</ele>
        <time>2019-11-29T12:13:57.000Z</time>
      </trkpt>
      <trkpt lat="43.31937" lon="5.68616">
        <ele>780</ele>
        <time>2019-11-29T12:13:58.000Z</time>
      </trkpt>
      <trkpt lat="43.31937" lon="5.68615">
        <ele>780</ele>
        <time>2019-11-29T12:13:59.000Z</time>
      </trkpt>
      <trkpt lat="43.31938" lon="5.68614">
        <ele>781</ele>
        <time>2019-11-29T12:14:00.000Z</time>
      </trkpt>
      <trkpt lat="43.31938" lon="5.68613">
        <ele>781</ele>
        <time>2019-11-29T12:14:01.000Z</time>
      </trkpt>
      <trkpt lat="43.31938" lon="5.68613">
        <ele>781</ele>
        <time>2019-11-29T12:14:02.000Z</time>
      </trkpt>
      <trkpt lat="43.31939" lon="5.68612">
        <ele>781</ele>
        <time>2019-11-29T12:14:03.000Z</time>
      </trkpt>
      <trkpt lat="43.31939" lon="5.68611">
        <ele>781</ele>
        <time>2019-11-29T12:14:04.000Z</time>
      </trkpt>
      <trkpt lat="43.31939" lon="5.6861">
        <ele>781</ele>
        <time>2019-11-29T12:14:05.000Z</time>
      </trkpt>
      <trkpt lat="43.31939" lon="5.6861">
        <ele>781</ele>
        <time>2019-11-29T12:14:06.000Z</time>
      </trkpt>
      <trkpt lat="43.3194" lon="5.68609">
        <ele>781</ele>
        <time>2019-11-29T12:14:07.000Z</time>
      </trkpt>
      <trkpt lat="43.3194" lon="5.68608">
        <ele>781</ele>
        <time>2019-11-29T12:14:08.000Z</time>
      </trkpt>
      <trkpt lat="43.31941" lon="5.68608">
        <ele>781</ele>
        <time>2019-11-29T12:14:09.000Z</time>
      </trkpt>
      <trkpt lat="43.31941" lon="5.68607">
        <ele>782</ele>
        <time>2019-11-29T12:14:10.000Z</time>
      </trkpt>
      <trkpt lat="43.31941" lon="5.68607">
        <ele>782</ele>
        <time>2019-11-29T12:14:11.000Z</time>
      </trkpt>
      <trkpt lat="43.31942" lon="5.68606">
        <ele>782</ele>
        <time>2019-11-29T12:14:12.000Z</time>
      </trkpt>
      <trkpt lat="43.31942" lon="5.68606">
        <ele>782</ele>
        <time>2019-11-29T12:14:13.000Z</time>
      </trkpt>
      <trkpt lat="43.31942" lon="5.68605">
        <ele>782</ele>
        <time>2019-11-29T12:14:14.000Z</time>
      </trkpt>
      <trkpt lat="43.31943" lon="5.68605">
        <ele>782</ele>
        <time>2019-11-29T12:14:15.000Z</time>
      </trkpt>
      <trkpt lat="43.31943" lon="5.68604">
        <ele>782</ele>
        <time>2019-11-29T12:14:16.000Z</time>
      </trkpt>
      <trkpt lat="43.31943" lon="5.68603">
        <ele>782</ele>
        <time>2019-11-29T12:14:17.000Z</time>
      </trkpt>
      <trkpt lat="43.31944" lon="5.68603">
        <ele>783</ele>
        <time>2019-11-29T12:14:18.000Z</time>
      </trkpt>
      <trkpt lat="43.31945" lon="5.68602">
        <ele>783</ele>
        <time>2019-11-29T12:14:19.000Z</time>
      </trkpt>
      <trkpt lat="43.31946" lon="5.68601">
        <ele>783</ele>
        <time>2019-11-29T12:14:20.000Z</time>
      </trkpt>
      <trkpt lat="43.31946" lon="5.68601">
        <ele>783</ele>
        <time>2019-11-29T12:14:21.000Z</time>
      </trkpt>
      <trkpt lat="43.31947" lon="5.68601">
        <ele>783</ele>
        <time>2019-11-29T12:14:22.000Z</time>
      </trkpt>
      <trkpt lat="43.31947" lon="5.686">
        <ele>784</ele>
        <time>2019-11-29T12:14:23.000Z</time>
      </trkpt>
      <trkpt lat="43.31948" lon="5.686">
        <ele>784</ele>
        <time>2019-11-29T12:14:24.000Z</time>
      </trkpt>
      <trkpt lat="43.31949" lon="5.686">
        <ele>784</ele>
        <time>2019-11-29T12:14:25.000Z</time>
      </trkpt>
      <trkpt lat="43.31949" lon="5.686">
        <ele>784</ele>
        <time>2019-11-29T12:14:26.000Z</time>
      </trkpt>
      <trkpt lat="43.31949" lon="5.686">
        <ele>785</ele>
        <time>2019-11-29T12:14:27.000Z</time>
      </trkpt>
      <trkpt lat="43.3195" lon="5.686">
        <ele>785</ele>
        <time>2019-11-29T12:14:28.000Z</time>
      </trkpt>
      <trkpt lat="43.31951" lon="5.68599">
        <ele>785</ele>
        <time>2019-11-29T12:14:29.000Z</time>
      </trkpt>
      <trkpt lat="43.31951" lon="5.68599">
        <ele>785</ele>
        <time>2019-11-29T12:14:30.000Z</time>
      </trkpt>
      <trkpt lat="43.31952" lon="5.68599">
        <ele>786</ele>
        <time>2019-11-29T12:14:31.000Z</time>
      </trkpt>
      <trkpt lat="43.31953" lon="5.68598">
        <ele>786</ele>
        <time>2019-11-29T12:14:32.000Z</time>
      </trkpt>
      <trkpt lat="43.31953" lon="5.68598">
        <ele>786</ele>
        <time>2019-11-29T12:14:33.000Z</time>
      </trkpt>
      <trkpt lat="43.31954" lon="5.68598">
        <ele>786</ele>
        <time>2019-11-29T12:14:34.000Z</time>
      </trkpt>
      <trkpt lat="43.31954" lon="5.68598">
        <ele>786</ele>
        <time>2019-11-29T12:14:35.000Z</time>
      </trkpt>
      <trkpt lat="43.31954" lon="5.68597">
        <ele>787</ele>
        <time>2019-11-29T12:14:36.000Z</time>
      </trkpt>
      <trkpt lat="43.31954" lon="5.68597">
        <ele>787</ele>
        <time>2019-11-29T12:14:37.000Z</time>
      </trkpt>
      <trkpt lat="43.31954" lon="5.68597">
        <ele>787</ele>
        <time>2019-11-29T12:14:38.000Z</time>
      </trkpt>
      <trkpt lat="43.31954" lon="5.68596">
        <ele>787</ele>
        <time>2019-11-29T12:14:39.000Z</time>
      </trkpt>
      <trkpt lat="43.31954" lon="5.68596">
        <ele>788</ele>
        <time>2019-11-29T12:14:40.000Z</time>
      </trkpt>
      <trkpt lat="43.31954" lon="5.68596">
        <ele>788</ele>
        <time>2019-11-29T12:14:41.000Z</time>
      </trkpt>
      <trkpt lat="43.31954" lon="5.68596">
        <ele>788</ele>
        <time>2019-11-29T12:14:42.000Z</time>
      </trkpt>
      <trkpt lat="43.31954" lon="5.68595">
        <ele>788</ele>
        <time>2019-11-29T12:14:43.000Z</time>
      </trkpt>
      <trkpt lat="43.31954" lon="5.68594">
        <ele>789</ele>
        <time>2019-11-29T12:14:44.000Z</time>
      </trkpt>
      <trkpt lat="43.31954" lon="5.68594">
        <ele>789</ele>
        <time>2019-11-29T12:14:45.000Z</time>
      </trkpt>
      <trkpt lat="43.31954" lon="5.68594">
        <ele>789</ele>
        <time>2019-11-29T12:14:46.000Z</time>
      </trkpt>
      <trkpt lat="43.31955" lon="5.68593">
        <ele>789</ele>
        <time>2019-11-29T12:14:47.000Z</time>
      </trkpt>
      <trkpt lat="43.31955" lon="5.68593">
        <ele>789</ele>
        <time>2019-11-29T12:14:48.000Z</time>
      </trkpt>
      <trkpt lat="43.31955" lon="5.68593">
        <ele>790</ele>
        <time>2019-11-29T12:14:49.000Z</time>
      </trkpt>
      <trkpt lat="43.31956" lon="5.68593">
        <ele>790</ele>
        <time>2019-11-29T12:14:50.000Z</time>
      </trkpt>
      <trkpt lat="43.31957" lon="5.68593">
        <ele>790</ele>
        <time>2019-11-29T12:14:51.000Z</time>
      </trkpt>
      <trkpt lat="43.31958" lon="5.68593">
        <ele>790</ele>
        <time>2019-11-29T12:14:52.000Z</time>
      </trkpt>
      <trkpt lat="43.31959" lon="5.68593">
        <ele>790</ele>
        <time>2019-11-29T12:14:53.000Z</time>
      </trkpt>
      <trkpt lat="43.31959" lon="5.68593">
        <ele>791</ele>
        <time>2019-11-29T12:14:54.000Z</time>
      </trkpt>
      <trkpt lat="43.3196" lon="5.68593">
        <ele>791</ele>
        <time>2019-11-29T12:14:55.000Z</time>
      </trkpt>
      <trkpt lat="43.31961" lon="5.68592">
        <ele>791</ele>
        <time>2019-11-29T12:14:56.000Z</time>
      </trkpt>
      <trkpt lat="43.31961" lon="5.68592">
        <ele>791</ele>
        <time>2019-11-29T12:14:57.000Z</time>
      </trkpt>
      <trkpt lat="43.31962" lon="5.68592">
        <ele>791</ele>
        <time>2019-11-29T12:14:58.000Z</time>
      </trkpt>
      <trkpt lat="43.31962" lon="5.68592">
        <ele>791</ele>
        <time>2019-11-29T12:14:59.000Z</time>
      </trkpt>
      <trkpt lat="43.31962" lon="5.68592">
        <ele>791</ele>
        <time>2019-11-29T12:15:00.000Z</time>
      </trkpt>
      <trkpt lat="43.31963" lon="5.68593">
        <ele>791</ele>
        <time>2019-11-29T12:15:01.000Z</time>
      </trkpt>
      <trkpt lat="43.31964" lon="5.68593">
        <ele>791</ele>
        <time>2019-11-29T12:15:02.000Z</time>
      </trkpt>
      <trkpt lat="43.31964" lon="5.68594">
        <ele>792</ele>
        <time>2019-11-29T12:15:03.000Z</time>
      </trkpt>
      <trkpt lat="43.31965" lon="5.68594">
        <ele>792</ele>
        <time>2019-11-29T12:15:04.000Z</time>
      </trkpt>
      <trkpt lat="43.31965" lon="5.68594">
        <ele>792</ele>
        <time>2019-11-29T12:15:05.000Z</time>
      </trkpt>
      <trkpt lat="43.31965" lon="5.68595">
        <ele>792</ele>
        <time>2019-11-29T12:15:06.000Z</time>
      </trkpt>
      <trkpt lat="43.31966" lon="5.68595">
        <ele>792</ele>
        <time>2019-11-29T12:15:07.000Z</time>
      </trkpt>
      <trkpt lat="43.31967" lon="5.68595">
        <ele>792</ele>
        <time>2019-11-29T12:15:08.000Z</time>
      </trkpt>
      <trkpt lat="43.31968" lon="5.68595">
        <ele>792</ele>
        <time>2019-11-29T12:15:09.000Z</time>
      </trkpt>
      <trkpt lat="43.31968" lon="5.68596">
        <ele>792</ele>
        <time>2019-11-29T12:15:10.000Z</time>
      </trkpt>
      <trkpt lat="43.31969" lon="5.68596">
        <ele>792</ele>
        <time>2019-11-29T12:15:11.000Z</time>
      </trkpt>
      <trkpt lat="43.31969" lon="5.68597">
        <ele>792</ele>
        <time>2019-11-29T12:15:12.000Z</time>
      </trkpt>
      <trkpt lat="43.3197" lon="5.68598">
        <ele>792</ele>
        <time>2019-11-29T12:15:13.000Z</time>
      </trkpt>
      <trkpt lat="43.31971" lon="5.68598">
        <ele>792</ele>
        <time>2019-11-29T12:15:14.000Z</time>
      </trkpt>
      <trkpt lat="43.31971" lon="5.68598">
        <ele>792</ele>
        <time>2019-11-29T12:15:15.000Z</time>
      </trkpt>
      <trkpt lat="43.31972" lon="5.68598">
        <ele>791</ele>
        <time>2019-11-29T12:15:16.000Z</time>
      </trkpt>
      <trkpt lat="43.31973" lon="5.68598">
        <ele>791</ele>
        <time>2019-11-29T12:15:17.000Z</time>
      </trkpt>
      <trkpt lat="43.31973" lon="5.68597">
        <ele>791</ele>
        <time>2019-11-29T12:15:18.000Z</time>
      </trkpt>
      <trkpt lat="43.31973" lon="5.68597">
        <ele>791</ele>
        <time>2019-11-29T12:15:19.000Z</time>
      </trkpt>
      <trkpt lat="43.31974" lon="5.68597">
        <ele>791</ele>
        <time>2019-11-29T12:15:20.000Z</time>
      </trkpt>
      <trkpt lat="43.31974" lon="5.68597">
        <ele>791</ele>
        <time>2019-11-29T12:15:21.000Z</time>
      </trkpt>
      <trkpt lat="43.31975" lon="5.68596">
        <ele>792</ele>
        <time>2019-11-29T12:15:22.000Z</time>
      </trkpt>
      <trkpt lat="43.31976" lon="5.68596">
        <ele>791</ele>
        <time>2019-11-29T12:15:23.000Z</time>
      </trkpt>
      <trkpt lat="43.31977" lon="5.68596">
        <ele>791</ele>
        <time>2019-11-29T12:15:24.000Z</time>
      </trkpt>
      <trkpt lat="43.31978" lon="5.68597">
        <ele>791</ele>
        <time>2019-11-29T12:15:25.000Z</time>
      </trkpt>
      <trkpt lat="43.31978" lon="5.68597">
        <ele>791</ele>
        <time>2019-11-29T12:15:26.000Z</time>
      </trkpt>
      <trkpt lat="43.3198" lon="5.68597">
        <ele>791</ele>
        <time>2019-11-29T12:15:27.000Z</time>
      </trkpt>
      <trkpt lat="43.31981" lon="5.68597">
        <ele>791</ele>
        <time>2019-11-29T12:15:28.000Z</time>
      </trkpt>
      <trkpt lat="43.31982" lon="5.68597">
        <ele>791</ele>
        <time>2019-11-29T12:15:29.000Z</time>
      </trkpt>
      <trkpt lat="43.31982" lon="5.68597">
        <ele>791</ele>
        <time>2019-11-29T12:15:30.000Z</time>
      </trkpt>
      <trkpt lat="43.31983" lon="5.68597">
        <ele>791</ele>
        <time>2019-11-29T12:15:31.000Z</time>
      </trkpt>
      <trkpt lat="43.31983" lon="5.68597">
        <ele>791</ele>
        <time>2019-11-29T12:15:32.000Z</time>
      </trkpt>
      <trkpt lat="43.31984" lon="5.68597">
        <ele>791</ele>
        <time>2019-11-29T12:15:33.000Z</time>
      </trkpt>
      <trkpt lat="43.31984" lon="5.68597">
        <ele>792</ele>
        <time>2019-11-29T12:15:34.000Z</time>
      </trkpt>
      <trkpt lat="43.31985" lon="5.68597">
        <ele>792</ele>
        <time>2019-11-29T12:15:35.000Z</time>
      </trkpt>
      <trkpt lat="43.31986" lon="5.68598">
        <ele>792</ele>
        <time>2019-11-29T12:15:36.000Z</time>
      </trkpt>
      <trkpt lat="43.31986" lon="5.68598">
        <ele>792</ele>
        <time>2019-11-29T12:15:37.000Z</time>
      </trkpt>
      <trkpt lat="43.31986" lon="5.68598">
        <ele>792</ele>
        <time>2019-11-29T12:15:38.000Z</time>
      </trkpt>
      <trkpt lat="43.31986" lon="5.68597">
        <ele>792</ele>
        <time>2019-11-29T12:15:39.000Z</time>
      </trkpt>
      <trkpt lat="43.31987" lon="5.68597">
        <ele>792</ele>
        <time>2019-11-29T12:15:40.000Z</time>
      </trkpt>
      <trkpt lat="43.31987" lon="5.68597">
        <ele>792</ele>
        <time>2019-11-29T12:15:41.000Z</time>
      </trkpt>
      <trkpt lat="43.31987" lon="5.68597">
        <ele>792</ele>
        <time>2019-11-29T12:15:42.000Z</time>
      </trkpt>
      <trkpt lat="43.31987" lon="5.68597">
        <ele>792</ele>
        <time>2019-11-29T12:15:43.000Z</time>
      </trkpt>
      <trkpt lat="43.31987" lon="5.68597">
        <ele>792</ele>
        <time>2019-11-29T12:15:44.000Z</time>
      </trkpt>
      <trkpt lat="43.31987" lon="5.68597">
        <ele>792</ele>
        <time>2019-11-29T12:15:45.000Z</time>
      </trkpt>
      <trkpt lat="43.31988" lon="5.68597">
        <ele>792</ele>
        <time>2019-11-29T12:15:46.000Z</time>
      </trkpt>
      <trkpt lat="43.31988" lon="5.68597">
        <ele>792</ele>
        <time>2019-11-29T12:15:47.000Z</time>
      </trkpt>
      <trkpt lat="43.31989" lon="5.68598">
        <ele>792</ele>
        <time>2019-11-29T12:15:48.000Z</time>
      </trkpt>
      <trkpt lat="43.3199" lon="5.68598">
        <ele>793</ele>
        <time>2019-11-29T12:15:49.000Z</time>
      </trkpt>
      <trkpt lat="43.31991" lon="5.68599">
        <ele>793</ele>
        <time>2019-11-29T12:15:50.000Z</time>
      </trkpt>
      <trkpt lat="43.31992" lon="5.68599">
        <ele>793</ele>
        <time>2019-11-29T12:15:51.000Z</time>
      </trkpt>
      <trkpt lat="43.31993" lon="5.68599">
        <ele>793</ele>
        <time>2019-11-29T12:15:52.000Z</time>
      </trkpt>
      <trkpt lat="43.31994" lon="5.686">
        <ele>793</ele>
        <time>2019-11-29T12:15:53.000Z</time>
      </trkpt>
      <trkpt lat="43.31995" lon="5.68601">
        <ele>793</ele>
        <time>2019-11-29T12:15:54.000Z</time>
      </trkpt>
      <trkpt lat="43.31996" lon="5.68602">
        <ele>793</ele>
        <time>2019-11-29T12:15:55.000Z</time>
      </trkpt>
      <trkpt lat="43.31996" lon="5.68603">
        <ele>793</ele>
        <time>2019-11-29T12:15:56.000Z</time>
      </trkpt>
      <trkpt lat="43.31997" lon="5.68604">
        <ele>793</ele>
        <time>2019-11-29T12:15:57.000Z</time>
      </trkpt>
      <trkpt lat="43.31997" lon="5.68605">
        <ele>792</ele>
        <time>2019-11-29T12:15:58.000Z</time>
      </trkpt>
      <trkpt lat="43.31998" lon="5.68605">
        <ele>792</ele>
        <time>2019-11-29T12:15:59.000Z</time>
      </trkpt>
      <trkpt lat="43.31997" lon="5.68605">
        <ele>792</ele>
        <time>2019-11-29T12:16:00.000Z</time>
      </trkpt>
      <trkpt lat="43.31998" lon="5.68606">
        <ele>792</ele>
        <time>2019-11-29T12:16:01.000Z</time>
      </trkpt>
      <trkpt lat="43.31998" lon="5.68606">
        <ele>792</ele>
        <time>2019-11-29T12:16:02.000Z</time>
      </trkpt>
      <trkpt lat="43.31998" lon="5.68606">
        <ele>793</ele>
        <time>2019-11-29T12:16:03.000Z</time>
      </trkpt>
      <trkpt lat="43.31999" lon="5.68607">
        <ele>793</ele>
        <time>2019-11-29T12:16:04.000Z</time>
      </trkpt>
      <trkpt lat="43.31999" lon="5.68608">
        <ele>793</ele>
        <time>2019-11-29T12:16:05.000Z</time>
      </trkpt>
      <trkpt lat="43.32" lon="5.68609">
        <ele>793</ele>
        <time>2019-11-29T12:16:06.000Z</time>
      </trkpt>
      <trkpt lat="43.32001" lon="5.6861">
        <ele>793</ele>
        <time>2019-11-29T12:16:07.000Z</time>
      </trkpt>
      <trkpt lat="43.32002" lon="5.68611">
        <ele>793</ele>
        <time>2019-11-29T12:16:08.000Z</time>
      </trkpt>
      <trkpt lat="43.32002" lon="5.68612">
        <ele>793</ele>
        <time>2019-11-29T12:16:09.000Z</time>
      </trkpt>
      <trkpt lat="43.32002" lon="5.68612">
        <ele>793</ele>
        <time>2019-11-29T12:16:10.000Z</time>
      </trkpt>
      <trkpt lat="43.32003" lon="5.68614">
        <ele>793</ele>
        <time>2019-11-29T12:16:11.000Z</time>
      </trkpt>
      <trkpt lat="43.32003" lon="5.68615">
        <ele>793</ele>
        <time>2019-11-29T12:16:12.000Z</time>
      </trkpt>
      <trkpt lat="43.32003" lon="5.68615">
        <ele>793</ele>
        <time>2019-11-29T12:16:13.000Z</time>
      </trkpt>
      <trkpt lat="43.32004" lon="5.68616">
        <ele>793</ele>
        <time>2019-11-29T12:16:14.000Z</time>
      </trkpt>
      <trkpt lat="43.32004" lon="5.68616">
        <ele>793</ele>
        <time>2019-11-29T12:16:15.000Z</time>
      </trkpt>
      <trkpt lat="43.32004" lon="5.68616">
        <ele>793</ele>
        <time>2019-11-29T12:16:16.000Z</time>
      </trkpt>
      <trkpt lat="43.32005" lon="5.68617">
        <ele>793</ele>
        <time>2019-11-29T12:16:17.000Z</time>
      </trkpt>
      <trkpt lat="43.32005" lon="5.68617">
        <ele>793</ele>
        <time>2019-11-29T12:16:18.000Z</time>
      </trkpt>
      <trkpt lat="43.32005" lon="5.68617">
        <ele>793</ele>
        <time>2019-11-29T12:16:19.000Z</time>
      </trkpt>
      <trkpt lat="43.32005" lon="5.68617">
        <ele>793</ele>
        <time>2019-11-29T12:16:20.000Z</time>
      </trkpt>
      <trkpt lat="43.32005" lon="5.68618">
        <ele>793</ele>
        <time>2019-11-29T12:16:21.000Z</time>
      </trkpt>
      <trkpt lat="43.32006" lon="5.68619">
        <ele>793</ele>
        <time>2019-11-29T12:16:22.000Z</time>
      </trkpt>
      <trkpt lat="43.32006" lon="5.68619">
        <ele>793</ele>
        <time>2019-11-29T12:16:23.000Z</time>
      </trkpt>
      <trkpt lat="43.32007" lon="5.6862">
        <ele>793</ele>
        <time>2019-11-29T12:16:24.000Z</time>
      </trkpt>
      <trkpt lat="43.32007" lon="5.68622">
        <ele>793</ele>
        <time>2019-11-29T12:16:25.000Z</time>
      </trkpt>
      <trkpt lat="43.32007" lon="5.68623">
        <ele>793</ele>
        <time>2019-11-29T12:16:26.000Z</time>
      </trkpt>
      <trkpt lat="43.32007" lon="5.68625">
        <ele>793</ele>
        <time>2019-11-29T12:16:27.000Z</time>
      </trkpt>
      <trkpt lat="43.32007" lon="5.68626">
        <ele>793</ele>
        <time>2019-11-29T12:16:28.000Z</time>
      </trkpt>
      <trkpt lat="43.32007" lon="5.68628">
        <ele>793</ele>
        <time>2019-11-29T12:16:29.000Z</time>
      </trkpt>
      <trkpt lat="43.32007" lon="5.68629">
        <ele>793</ele>
        <time>2019-11-29T12:16:30.000Z</time>
      </trkpt>
      <trkpt lat="43.32008" lon="5.68629">
        <ele>793</ele>
        <time>2019-11-29T12:16:31.000Z</time>
      </trkpt>
      <trkpt lat="43.32008" lon="5.6863">
        <ele>793</ele>
        <time>2019-11-29T12:16:32.000Z</time>
      </trkpt>
      <trkpt lat="43.32009" lon="5.68631">
        <ele>793</ele>
        <time>2019-11-29T12:16:33.000Z</time>
      </trkpt>
      <trkpt lat="43.3201" lon="5.68631">
        <ele>793</ele>
        <time>2019-11-29T12:16:34.000Z</time>
      </trkpt>
      <trkpt lat="43.3201" lon="5.68632">
        <ele>793</ele>
        <time>2019-11-29T12:16:35.000Z</time>
      </trkpt>
      <trkpt lat="43.32011" lon="5.68632">
        <ele>793</ele>
        <time>2019-11-29T12:16:36.000Z</time>
      </trkpt>
      <trkpt lat="43.32012" lon="5.68631">
        <ele>793</ele>
        <time>2019-11-29T12:16:37.000Z</time>
      </trkpt>
      <trkpt lat="43.32013" lon="5.68631">
        <ele>793</ele>
        <time>2019-11-29T12:16:38.000Z</time>
      </trkpt>
      <trkpt lat="43.32014" lon="5.68631">
        <ele>793</ele>
        <time>2019-11-29T12:16:39.000Z</time>
      </trkpt>
      <trkpt lat="43.32015" lon="5.68631">
        <ele>793</ele>
        <time>2019-11-29T12:16:40.000Z</time>
      </trkpt>
      <trkpt lat="43.32016" lon="5.68631">
        <ele>793</ele>
        <time>2019-11-29T12:16:41.000Z</time>
      </trkpt>
      <trkpt lat="43.32016" lon="5.68631">
        <ele>793</ele>
        <time>2019-11-29T12:16:42.000Z</time>
      </trkpt>
      <trkpt lat="43.32017" lon="5.68631">
        <ele>793</ele>
        <time>2019-11-29T12:16:43.000Z</time>
      </trkpt>
      <trkpt lat="43.32018" lon="5.68631">
        <ele>793</ele>
        <time>2019-11-29T12:16:44.000Z</time>
      </trkpt>
      <trkpt lat="43.32018" lon="5.68631">
        <ele>793</ele>
        <time>2019-11-29T12:16:45.000Z</time>
      </trkpt>
      <trkpt lat="43.32019" lon="5.68631">
        <ele>794</ele>
        <time>2019-11-29T12:16:46.000Z</time>
      </trkpt>
      <trkpt lat="43.3202" lon="5.68631">
        <ele>794</ele>
        <time>2019-11-29T12:16:47.000Z</time>
      </trkpt>
      <trkpt lat="43.3202" lon="5.68632">
        <ele>794</ele>
        <time>2019-11-29T12:16:48.000Z</time>
      </trkpt>
      <trkpt lat="43.32021" lon="5.68632">
        <ele>794</ele>
        <time>2019-11-29T12:16:49.000Z</time>
      </trkpt>
      <trkpt lat="43.32022" lon="5.68632">
        <ele>794</ele>
        <time>2019-11-29T12:16:50.000Z</time>
      </trkpt>
      <trkpt lat="43.32023" lon="5.68632">
        <ele>794</ele>
        <time>2019-11-29T12:16:51.000Z</time>
      </trkpt>
      <trkpt lat="43.32024" lon="5.68633">
        <ele>794</ele>
        <time>2019-11-29T12:16:52.000Z</time>
      </trkpt>
      <trkpt lat="43.32024" lon="5.68633">
        <ele>794</ele>
        <time>2019-11-29T12:16:53.000Z</time>
      </trkpt>
      <trkpt lat="43.32025" lon="5.68634">
        <ele>794</ele>
        <time>2019-11-29T12:16:54.000Z</time>
      </trkpt>
      <trkpt lat="43.32026" lon="5.68634">
        <ele>794</ele>
        <time>2019-11-29T12:16:55.000Z</time>
      </trkpt>
      <trkpt lat="43.32026" lon="5.68635">
        <ele>794</ele>
        <time>2019-11-29T12:16:56.000Z</time>
      </trkpt>
      <trkpt lat="43.32026" lon="5.68636">
        <ele>794</ele>
        <time>2019-11-29T12:16:57.000Z</time>
      </trkpt>
      <trkpt lat="43.32027" lon="5.68636">
        <ele>794</ele>
        <time>2019-11-29T12:16:58.000Z</time>
      </trkpt>
      <trkpt lat="43.32028" lon="5.68637">
        <ele>794</ele>
        <time>2019-11-29T12:16:59.000Z</time>
      </trkpt>
      <trkpt lat="43.32028" lon="5.68638">
        <ele>794</ele>
        <time>2019-11-29T12:17:00.000Z</time>
      </trkpt>
      <trkpt lat="43.32029" lon="5.68638">
        <ele>794</ele>
        <time>2019-11-29T12:17:01.000Z</time>
      </trkpt>
      <trkpt lat="43.32029" lon="5.68639">
        <ele>794</ele>
        <time>2019-11-29T12:17:02.000Z</time>
      </trkpt>
      <trkpt lat="43.3203" lon="5.6864">
        <ele>794</ele>
        <time>2019-11-29T12:17:03.000Z</time>
      </trkpt>
      <trkpt lat="43.3203" lon="5.6864">
        <ele>794</ele>
        <time>2019-11-29T12:17:04.000Z</time>
      </trkpt>
      <trkpt lat="43.32031" lon="5.68641">
        <ele>794</ele>
        <time>2019-11-29T12:17:05.000Z</time>
      </trkpt>
      <trkpt lat="43.32031" lon="5.68642">
        <ele>794</ele>
        <time>2019-11-29T12:17:06.000Z</time>
      </trkpt>
      <trkpt lat="43.32031" lon="5.68642">
        <ele>793</ele>
        <time>2019-11-29T12:17:07.000Z</time>
      </trkpt>
      <trkpt lat="43.32031" lon="5.68643">
        <ele>793</ele>
        <time>2019-11-29T12:17:08.000Z</time>
      </trkpt>
      <trkpt lat="43.32032" lon="5.68644">
        <ele>793</ele>
        <time>2019-11-29T12:17:09.000Z</time>
      </trkpt>
      <trkpt lat="43.32033" lon="5.68645">
        <ele>793</ele>
        <time>2019-11-29T12:17:10.000Z</time>
      </trkpt>
      <trkpt lat="43.32033" lon="5.68646">
        <ele>793</ele>
        <time>2019-11-29T12:17:11.000Z</time>
      </trkpt>
      <trkpt lat="43.32033" lon="5.68646">
        <ele>793</ele>
        <time>2019-11-29T12:17:12.000Z</time>
      </trkpt>
      <trkpt lat="43.32034" lon="5.68647">
        <ele>793</ele>
        <time>2019-11-29T12:17:13.000Z</time>
      </trkpt>
      <trkpt lat="43.32034" lon="5.68648">
        <ele>793</ele>
        <time>2019-11-29T12:17:14.000Z</time>
      </trkpt>
      <trkpt lat="43.32035" lon="5.68649">
        <ele>793</ele>
        <time>2019-11-29T12:17:15.000Z</time>
      </trkpt>
      <trkpt lat="43.32035" lon="5.6865">
        <ele>793</ele>
        <time>2019-11-29T12:17:16.000Z</time>
      </trkpt>
      <trkpt lat="43.32036" lon="5.6865">
        <ele>793</ele>
        <time>2019-11-29T12:17:17.000Z</time>
      </trkpt>
      <trkpt lat="43.32037" lon="5.68651">
        <ele>793</ele>
        <time>2019-11-29T12:17:18.000Z</time>
      </trkpt>
      <trkpt lat="43.32038" lon="5.68652">
        <ele>793</ele>
        <time>2019-11-29T12:17:19.000Z</time>
      </trkpt>
      <trkpt lat="43.32038" lon="5.68653">
        <ele>793</ele>
        <time>2019-11-29T12:17:20.000Z</time>
      </trkpt>
      <trkpt lat="43.32039" lon="5.68653">
        <ele>793</ele>
        <time>2019-11-29T12:17:21.000Z</time>
      </trkpt>
      <trkpt lat="43.3204" lon="5.68654">
        <ele>793</ele>
        <time>2019-11-29T12:17:22.000Z</time>
      </trkpt>
      <trkpt lat="43.3204" lon="5.68654">
        <ele>793</ele>
        <time>2019-11-29T12:17:23.000Z</time>
      </trkpt>
      <trkpt lat="43.32041" lon="5.68655">
        <ele>793</ele>
        <time>2019-11-29T12:17:24.000Z</time>
      </trkpt>
      <trkpt lat="43.32042" lon="5.68655">
        <ele>793</ele>
        <time>2019-11-29T12:17:25.000Z</time>
      </trkpt>
      <trkpt lat="43.32044" lon="5.68655">
        <ele>793</ele>
        <time>2019-11-29T12:17:26.000Z</time>
      </trkpt>
      <trkpt lat="43.32045" lon="5.68656">
        <ele>793</ele>
        <time>2019-11-29T12:17:27.000Z</time>
      </trkpt>
      <trkpt lat="43.32046" lon="5.68656">
        <ele>793</ele>
        <time>2019-11-29T12:17:28.000Z</time>
      </trkpt>
      <trkpt lat="43.32047" lon="5.68656">
        <ele>793</ele>
        <time>2019-11-29T12:17:29.000Z</time>
      </trkpt>
      <trkpt lat="43.32048" lon="5.68657">
        <ele>793</ele>
        <time>2019-11-29T12:17:30.000Z</time>
      </trkpt>
      <trkpt lat="43.32049" lon="5.68657">
        <ele>793</ele>
        <time>2019-11-29T12:17:31.000Z</time>
      </trkpt>
      <trkpt lat="43.3205" lon="5.68657">
        <ele>793</ele>
        <time>2019-11-29T12:17:32.000Z</time>
      </trkpt>
      <trkpt lat="43.32051" lon="5.68658">
        <ele>793</ele>
        <time>2019-11-29T12:17:33.000Z</time>
      </trkpt>
      <trkpt lat="43.32052" lon="5.68658">
        <ele>793</ele>
        <time>2019-11-29T12:17:34.000Z</time>
      </trkpt>
      <trkpt lat="43.32054" lon="5.68658">
        <ele>793</ele>
        <time>2019-11-29T12:17:35.000Z</time>
      </trkpt>
      <trkpt lat="43.32054" lon="5.68659">
        <ele>793</ele>
        <time>2019-11-29T12:17:36.000Z</time>
      </trkpt>
      <trkpt lat="43.32055" lon="5.68659">
        <ele>793</ele>
        <time>2019-11-29T12:17:37.000Z</time>
      </trkpt>
      <trkpt lat="43.32056" lon="5.6866">
        <ele>793</ele>
        <time>2019-11-29T12:17:38.000Z</time>
      </trkpt>
      <trkpt lat="43.32057" lon="5.6866">
        <ele>793</ele>
        <time>2019-11-29T12:17:39.000Z</time>
      </trkpt>
      <trkpt lat="43.32058" lon="5.68661">
        <ele>793</ele>
        <time>2019-11-29T12:17:40.000Z</time>
      </trkpt>
      <trkpt lat="43.32058" lon="5.68661">
        <ele>793</ele>
        <time>2019-11-29T12:17:41.000Z</time>
      </trkpt>
      <trkpt lat="43.32059" lon="5.68662">
        <ele>793</ele>
        <time>2019-11-29T12:17:42.000Z</time>
      </trkpt>
      <trkpt lat="43.3206" lon="5.68663">
        <ele>793</ele>
        <time>2019-11-29T12:17:43.000Z</time>
      </trkpt>
      <trkpt lat="43.32061" lon="5.68663">
        <ele>793</ele>
        <time>2019-11-29T12:17:44.000Z</time>
      </trkpt>
      <trkpt lat="43.32062" lon="5.68663">
        <ele>793</ele>
        <time>2019-11-29T12:17:45.000Z</time>
      </trkpt>
      <trkpt lat="43.32063" lon="5.68664">
        <ele>793</ele>
        <time>2019-11-29T12:17:46.000Z</time>
      </trkpt>
      <trkpt lat="43.32064" lon="5.68664">
        <ele>793</ele>
        <time>2019-11-29T12:17:47.000Z</time>
      </trkpt>
      <trkpt lat="43.32065" lon="5.68664">
        <ele>793</ele>
        <time>2019-11-29T12:17:48.000Z</time>
      </trkpt>
      <trkpt lat="43.32066" lon="5.68664">
        <ele>794</ele>
        <time>2019-11-29T12:17:49.000Z</time>
      </trkpt>
      <trkpt lat="43.32067" lon="5.68664">
        <ele>794</ele>
        <time>2019-11-29T12:17:50.000Z</time>
      </trkpt>
      <trkpt lat="43.32069" lon="5.68664">
        <ele>794</ele>
        <time>2019-11-29T12:17:51.000Z</time>
      </trkpt>
      <trkpt lat="43.32069" lon="5.68663">
        <ele>794</ele>
        <time>2019-11-29T12:17:52.000Z</time>
      </trkpt>
      <trkpt lat="43.3207" lon="5.68663">
        <ele>794</ele>
        <time>2019-11-29T12:17:53.000Z</time>
      </trkpt>
      <trkpt lat="43.32071" lon="5.68663">
        <ele>794</ele>
        <time>2019-11-29T12:17:54.000Z</time>
      </trkpt>
      <trkpt lat="43.32071" lon="5.68663">
        <ele>794</ele>
        <time>2019-11-29T12:17:55.000Z</time>
      </trkpt>
      <trkpt lat="43.32071" lon="5.68662">
        <ele>794</ele>
        <time>2019-11-29T12:17:56.000Z</time>
      </trkpt>
      <trkpt lat="43.32072" lon="5.68662">
        <ele>793</ele>
        <time>2019-11-29T12:17:57.000Z</time>
      </trkpt>
      <trkpt lat="43.32072" lon="5.68662">
        <ele>793</ele>
        <time>2019-11-29T12:17:58.000Z</time>
      </trkpt>
      <trkpt lat="43.32072" lon="5.68662">
        <ele>793</ele>
        <time>2019-11-29T12:17:59.000Z</time>
      </trkpt>
      <trkpt lat="43.32072" lon="5.68662">
        <ele>793</ele>
        <time>2019-11-29T12:18:00.000Z</time>
      </trkpt>
      <trkpt lat="43.32072" lon="5.68662">
        <ele>793</ele>
        <time>2019-11-29T12:18:01.000Z</time>
      </trkpt>
      <trkpt lat="43.32072" lon="5.68663">
        <ele>793</ele>
        <time>2019-11-29T12:18:02.000Z</time>
      </trkpt>
      <trkpt lat="43.32073" lon="5.68663">
        <ele>793</ele>
        <time>2019-11-29T12:18:03.000Z</time>
      </trkpt>
      <trkpt lat="43.32073" lon="5.68663">
        <ele>793</ele>
        <time>2019-11-29T12:18:04.000Z</time>
      </trkpt>
      <trkpt lat="43.32074" lon="5.68663">
        <ele>793</ele>
        <time>2019-11-29T12:18:05.000Z</time>
      </trkpt>
      <trkpt lat="43.32075" lon="5.68663">
        <ele>793</ele>
        <time>2019-11-29T12:18:06.000Z</time>
      </trkpt>
      <trkpt lat="43.32076" lon="5.68663">
        <ele>793</ele>
        <time>2019-11-29T12:18:07.000Z</time>
      </trkpt>
      <trkpt lat="43.32077" lon="5.68664">
        <ele>793</ele>
        <time>2019-11-29T12:18:08.000Z</time>
      </trkpt>
      <trkpt lat="43.32079" lon="5.68663">
        <ele>793</ele>
        <time>2019-11-29T12:18:09.000Z</time>
      </trkpt>
      <trkpt lat="43.3208" lon="5.68663">
        <ele>793</ele>
        <time>2019-11-29T12:18:10.000Z</time>
      </trkpt>
      <trkpt lat="43.32081" lon="5.68663">
        <ele>793</ele>
        <time>2019-11-29T12:18:11.000Z</time>
      </trkpt>
      <trkpt lat="43.32082" lon="5.68663">
        <ele>793</ele>
        <time>2019-11-29T12:18:12.000Z</time>
      </trkpt>
      <trkpt lat="43.32082" lon="5.68663">
        <ele>793</ele>
        <time>2019-11-29T12:18:13.000Z</time>
      </trkpt>
      <trkpt lat="43.32083" lon="5.68663">
        <ele>792</ele>
        <time>2019-11-29T12:18:14.000Z</time>
      </trkpt>
      <trkpt lat="43.32083" lon="5.68662">
        <ele>792</ele>
        <time>2019-11-29T12:18:15.000Z</time>
      </trkpt>
      <trkpt lat="43.32084" lon="5.68662">
        <ele>792</ele>
        <time>2019-11-29T12:18:16.000Z</time>
      </trkpt>
      <trkpt lat="43.32084" lon="5.68662">
        <ele>792</ele>
        <time>2019-11-29T12:18:17.000Z</time>
      </trkpt>
      <trkpt lat="43.32085" lon="5.68662">
        <ele>792</ele>
        <time>2019-11-29T12:18:18.000Z</time>
      </trkpt>
      <trkpt lat="43.32085" lon="5.68661">
        <ele>792</ele>
        <time>2019-11-29T12:18:19.000Z</time>
      </trkpt>
      <trkpt lat="43.32085" lon="5.68661">
        <ele>792</ele>
        <time>2019-11-29T12:18:20.000Z</time>
      </trkpt>
      <trkpt lat="43.32085" lon="5.68661">
        <ele>792</ele>
        <time>2019-11-29T12:18:21.000Z</time>
      </trkpt>
      <trkpt lat="43.32085" lon="5.68661">
        <ele>792</ele>
        <time>2019-11-29T12:18:22.000Z</time>
      </trkpt>
      <trkpt lat="43.32086" lon="5.68661">
        <ele>791</ele>
        <time>2019-11-29T12:18:23.000Z</time>
      </trkpt>
      <trkpt lat="43.32086" lon="5.68661">
        <ele>791</ele>
        <time>2019-11-29T12:18:24.000Z</time>
      </trkpt>
      <trkpt lat="43.32086" lon="5.68661">
        <ele>791</ele>
        <time>2019-11-29T12:18:25.000Z</time>
      </trkpt>
      <trkpt lat="43.32086" lon="5.68661">
        <ele>791</ele>
        <time>2019-11-29T12:18:26.000Z</time>
      </trkpt>
      <trkpt lat="43.32086" lon="5.68661">
        <ele>791</ele>
        <time>2019-11-29T12:18:27.000Z</time>
      </trkpt>
      <trkpt lat="43.32086" lon="5.68661">
        <ele>791</ele>
        <time>2019-11-29T12:18:28.000Z</time>
      </trkpt>
      <trkpt lat="43.32087" lon="5.68661">
        <ele>791</ele>
        <time>2019-11-29T12:18:29.000Z</time>
      </trkpt>
      <trkpt lat="43.32087" lon="5.6866">
        <ele>791</ele>
        <time>2019-11-29T12:18:30.000Z</time>
      </trkpt>
      <trkpt lat="43.32087" lon="5.6866">
        <ele>791</ele>
        <time>2019-11-29T12:18:31.000Z</time>
      </trkpt>
      <trkpt lat="43.32088" lon="5.68661">
        <ele>791</ele>
        <time>2019-11-29T12:18:32.000Z</time>
      </trkpt>
      <trkpt lat="43.32089" lon="5.68661">
        <ele>791</ele>
        <time>2019-11-29T12:18:33.000Z</time>
      </trkpt>
      <trkpt lat="43.3209" lon="5.68661">
        <ele>790</ele>
        <time>2019-11-29T12:18:34.000Z</time>
      </trkpt>
      <trkpt lat="43.32091" lon="5.68661">
        <ele>790</ele>
        <time>2019-11-29T12:18:35.000Z</time>
      </trkpt>
      <trkpt lat="43.32092" lon="5.68661">
        <ele>790</ele>
        <time>2019-11-29T12:18:36.000Z</time>
      </trkpt>
      <trkpt lat="43.32092" lon="5.68661">
        <ele>790</ele>
        <time>2019-11-29T12:18:37.000Z</time>
      </trkpt>
      <trkpt lat="43.32093" lon="5.68661">
        <ele>790</ele>
        <time>2019-11-29T12:18:38.000Z</time>
      </trkpt>
      <trkpt lat="43.32094" lon="5.68661">
        <ele>790</ele>
        <time>2019-11-29T12:18:39.000Z</time>
      </trkpt>
      <trkpt lat="43.32095" lon="5.68661">
        <ele>790</ele>
        <time>2019-11-29T12:18:40.000Z</time>
      </trkpt>
      <trkpt lat="43.32095" lon="5.6866">
        <ele>790</ele>
        <time>2019-11-29T12:18:41.000Z</time>
      </trkpt>
      <trkpt lat="43.32096" lon="5.6866">
        <ele>790</ele>
        <time>2019-11-29T12:18:42.000Z</time>
      </trkpt>
      <trkpt lat="43.32097" lon="5.6866">
        <ele>790</ele>
        <time>2019-11-29T12:18:43.000Z</time>
      </trkpt>
      <trkpt lat="43.32098" lon="5.6866">
        <ele>790</ele>
        <time>2019-11-29T12:18:44.000Z</time>
      </trkpt>
      <trkpt lat="43.32099" lon="5.6866">
        <ele>790</ele>
        <time>2019-11-29T12:18:45.000Z</time>
      </trkpt>
      <trkpt lat="43.321" lon="5.68659">
        <ele>790</ele>
        <time>2019-11-29T12:18:46.000Z</time>
      </trkpt>
      <trkpt lat="43.32102" lon="5.68659">
        <ele>790</ele>
        <time>2019-11-29T12:18:47.000Z</time>
      </trkpt>
      <trkpt lat="43.32103" lon="5.68659">
        <ele>790</ele>
        <time>2019-11-29T12:18:48.000Z</time>
      </trkpt>
      <trkpt lat="43.32104" lon="5.6866">
        <ele>790</ele>
        <time>2019-11-29T12:18:49.000Z</time>
      </trkpt>
      <trkpt lat="43.32104" lon="5.6866">
        <ele>790</ele>
        <time>2019-11-29T12:18:50.000Z</time>
      </trkpt>
      <trkpt lat="43.32105" lon="5.6866">
        <ele>790</ele>
        <time>2019-11-29T12:18:51.000Z</time>
      </trkpt>
      <trkpt lat="43.32106" lon="5.6866">
        <ele>790</ele>
        <time>2019-11-29T12:18:52.000Z</time>
      </trkpt>
      <trkpt lat="43.32107" lon="5.6866">
        <ele>790</ele>
        <time>2019-11-29T12:18:53.000Z</time>
      </trkpt>
      <trkpt lat="43.32108" lon="5.6866">
        <ele>790</ele>
        <time>2019-11-29T12:18:54.000Z</time>
      </trkpt>
      <trkpt lat="43.32109" lon="5.68659">
        <ele>790</ele>
        <time>2019-11-29T12:18:55.000Z</time>
      </trkpt>
      <trkpt lat="43.3211" lon="5.68659">
        <ele>790</ele>
        <time>2019-11-29T12:18:56.000Z</time>
      </trkpt>
      <trkpt lat="43.32112" lon="5.68659">
        <ele>790</ele>
        <time>2019-11-29T12:18:57.000Z</time>
      </trkpt>
      <trkpt lat="43.32113" lon="5.68659">
        <ele>790</ele>
        <time>2019-11-29T12:18:58.000Z</time>
      </trkpt>
      <trkpt lat="43.32113" lon="5.68659">
        <ele>790</ele>
        <time>2019-11-29T12:18:59.000Z</time>
      </trkpt>
      <trkpt lat="43.32114" lon="5.68659">
        <ele>790</ele>
        <time>2019-11-29T12:19:00.000Z</time>
      </trkpt>
      <trkpt lat="43.32115" lon="5.6866">
        <ele>790</ele>
        <time>2019-11-29T12:19:01.000Z</time>
      </trkpt>
      <trkpt lat="43.32116" lon="5.68661">
        <ele>790</ele>
        <time>2019-11-29T12:19:02.000Z</time>
      </trkpt>
      <trkpt lat="43.32117" lon="5.68661">
        <ele>790</ele>
        <time>2019-11-29T12:19:03.000Z</time>
      </trkpt>
      <trkpt lat="43.32117" lon="5.68661">
        <ele>790</ele>
        <time>2019-11-29T12:19:04.000Z</time>
      </trkpt>
      <trkpt lat="43.32118" lon="5.68662">
        <ele>790</ele>
        <time>2019-11-29T12:19:05.000Z</time>
      </trkpt>
      <trkpt lat="43.32119" lon="5.68662">
        <ele>790</ele>
        <time>2019-11-29T12:19:06.000Z</time>
      </trkpt>
      <trkpt lat="43.32119" lon="5.68663">
        <ele>790</ele>
        <time>2019-11-29T12:19:07.000Z</time>
      </trkpt>
      <trkpt lat="43.3212" lon="5.68663">
        <ele>790</ele>
        <time>2019-11-29T12:19:08.000Z</time>
      </trkpt>
      <trkpt lat="43.32121" lon="5.68664">
        <ele>790</ele>
        <time>2019-11-29T12:19:09.000Z</time>
      </trkpt>
      <trkpt lat="43.32122" lon="5.68665">
        <ele>790</ele>
        <time>2019-11-29T12:19:10.000Z</time>
      </trkpt>
      <trkpt lat="43.32123" lon="5.68665">
        <ele>790</ele>
        <time>2019-11-29T12:19:11.000Z</time>
      </trkpt>
      <trkpt lat="43.32124" lon="5.68666">
        <ele>790</ele>
        <time>2019-11-29T12:19:12.000Z</time>
      </trkpt>
      <trkpt lat="43.32125" lon="5.68667">
        <ele>790</ele>
        <time>2019-11-29T12:19:13.000Z</time>
      </trkpt>
      <trkpt lat="43.32126" lon="5.68667">
        <ele>790</ele>
        <time>2019-11-29T12:19:14.000Z</time>
      </trkpt>
      <trkpt lat="43.32127" lon="5.68668">
        <ele>790</ele>
        <time>2019-11-29T12:19:15.000Z</time>
      </trkpt>
      <trkpt lat="43.32128" lon="5.68668">
        <ele>790</ele>
        <time>2019-11-29T12:19:16.000Z</time>
      </trkpt>
      <trkpt lat="43.32129" lon="5.68669">
        <ele>790</ele>
        <time>2019-11-29T12:19:17.000Z</time>
      </trkpt>
      <trkpt lat="43.3213" lon="5.68669">
        <ele>790</ele>
        <time>2019-11-29T12:19:18.000Z</time>
      </trkpt>
      <trkpt lat="43.32131" lon="5.6867">
        <ele>790</ele>
        <time>2019-11-29T12:19:19.000Z</time>
      </trkpt>
      <trkpt lat="43.32133" lon="5.6867">
        <ele>790</ele>
        <time>2019-11-29T12:19:20.000Z</time>
      </trkpt>
      <trkpt lat="43.32134" lon="5.68671">
        <ele>790</ele>
        <time>2019-11-29T12:19:21.000Z</time>
      </trkpt>
      <trkpt lat="43.32135" lon="5.68671">
        <ele>790</ele>
        <time>2019-11-29T12:19:22.000Z</time>
      </trkpt>
      <trkpt lat="43.32137" lon="5.68672">
        <ele>789</ele>
        <time>2019-11-29T12:19:23.000Z</time>
      </trkpt>
      <trkpt lat="43.32138" lon="5.68672">
        <ele>789</ele>
        <time>2019-11-29T12:19:24.000Z</time>
      </trkpt>
      <trkpt lat="43.32139" lon="5.68672">
        <ele>789</ele>
        <time>2019-11-29T12:19:25.000Z</time>
      </trkpt>
      <trkpt lat="43.32141" lon="5.68673">
        <ele>789</ele>
        <time>2019-11-29T12:19:26.000Z</time>
      </trkpt>
      <trkpt lat="43.32142" lon="5.68673">
        <ele>789</ele>
        <time>2019-11-29T12:19:27.000Z</time>
      </trkpt>
      <trkpt lat="43.32143" lon="5.68673">
        <ele>789</ele>
        <time>2019-11-29T12:19:28.000Z</time>
      </trkpt>
      <trkpt lat="43.32144" lon="5.68674">
        <ele>789</ele>
        <time>2019-11-29T12:19:29.000Z</time>
      </trkpt>
      <trkpt lat="43.32146" lon="5.68674">
        <ele>789</ele>
        <time>2019-11-29T12:19:30.000Z</time>
      </trkpt>
      <trkpt lat="43.32147" lon="5.68674">
        <ele>789</ele>
        <time>2019-11-29T12:19:31.000Z</time>
      </trkpt>
      <trkpt lat="43.32148" lon="5.68675">
        <ele>789</ele>
        <time>2019-11-29T12:19:32.000Z</time>
      </trkpt>
      <trkpt lat="43.32149" lon="5.68675">
        <ele>789</ele>
        <time>2019-11-29T12:19:33.000Z</time>
      </trkpt>
      <trkpt lat="43.3215" lon="5.68676">
        <ele>789</ele>
        <time>2019-11-29T12:19:34.000Z</time>
      </trkpt>
      <trkpt lat="43.32151" lon="5.68676">
        <ele>789</ele>
        <time>2019-11-29T12:19:35.000Z</time>
      </trkpt>
      <trkpt lat="43.32153" lon="5.68676">
        <ele>789</ele>
        <time>2019-11-29T12:19:36.000Z</time>
      </trkpt>
      <trkpt lat="43.32154" lon="5.68676">
        <ele>789</ele>
        <time>2019-11-29T12:19:37.000Z</time>
      </trkpt>
      <trkpt lat="43.32155" lon="5.68676">
        <ele>789</ele>
        <time>2019-11-29T12:19:38.000Z</time>
      </trkpt>
      <trkpt lat="43.32156" lon="5.68676">
        <ele>789</ele>
        <time>2019-11-29T12:19:39.000Z</time>
      </trkpt>
      <trkpt lat="43.32157" lon="5.68676">
        <ele>789</ele>
        <time>2019-11-29T12:19:40.000Z</time>
      </trkpt>
      <trkpt lat="43.32157" lon="5.68675">
        <ele>789</ele>
        <time>2019-11-29T12:19:41.000Z</time>
      </trkpt>
      <trkpt lat="43.32158" lon="5.68675">
        <ele>789</ele>
        <time>2019-11-29T12:19:42.000Z</time>
      </trkpt>
      <trkpt lat="43.3216" lon="5.68675">
        <ele>789</ele>
        <time>2019-11-29T12:19:43.000Z</time>
      </trkpt>
      <trkpt lat="43.32161" lon="5.68675">
        <ele>789</ele>
        <time>2019-11-29T12:19:44.000Z</time>
      </trkpt>
      <trkpt lat="43.32162" lon="5.68676">
        <ele>789</ele>
        <time>2019-11-29T12:19:45.000Z</time>
      </trkpt>
      <trkpt lat="43.32163" lon="5.68676">
        <ele>789</ele>
        <time>2019-11-29T12:19:46.000Z</time>
      </trkpt>
      <trkpt lat="43.32164" lon="5.68676">
        <ele>789</ele>
        <time>2019-11-29T12:19:47.000Z</time>
      </trkpt>
      <trkpt lat="43.32165" lon="5.68677">
        <ele>789</ele>
        <time>2019-11-29T12:19:48.000Z</time>
      </trkpt>
      <trkpt lat="43.32166" lon="5.68677">
        <ele>789</ele>
        <time>2019-11-29T12:19:49.000Z</time>
      </trkpt>
      <trkpt lat="43.32167" lon="5.68677">
        <ele>789</ele>
        <time>2019-11-29T12:19:50.000Z</time>
      </trkpt>
      <trkpt lat="43.32168" lon="5.68677">
        <ele>789</ele>
        <time>2019-11-29T12:19:51.000Z</time>
      </trkpt>
      <trkpt lat="43.32169" lon="5.68677">
        <ele>789</ele>
        <time>2019-11-29T12:19:52.000Z</time>
      </trkpt>
      <trkpt lat="43.3217" lon="5.68678">
        <ele>789</ele>
        <time>2019-11-29T12:19:53.000Z</time>
      </trkpt>
      <trkpt lat="43.32171" lon="5.68678">
        <ele>789</ele>
        <time>2019-11-29T12:19:54.000Z</time>
      </trkpt>
      <trkpt lat="43.32172" lon="5.68679">
        <ele>789</ele>
        <time>2019-11-29T12:19:55.000Z</time>
      </trkpt>
      <trkpt lat="43.32173" lon="5.68679">
        <ele>789</ele>
        <time>2019-11-29T12:19:56.000Z</time>
      </trkpt>
      <trkpt lat="43.32174" lon="5.6868">
        <ele>789</ele>
        <time>2019-11-29T12:19:57.000Z</time>
      </trkpt>
      <trkpt lat="43.32174" lon="5.6868">
        <ele>789</ele>
        <time>2019-11-29T12:19:58.000Z</time>
      </trkpt>
      <trkpt lat="43.32175" lon="5.68681">
        <ele>789</ele>
        <time>2019-11-29T12:19:59.000Z</time>
      </trkpt>
      <trkpt lat="43.32176" lon="5.68681">
        <ele>789</ele>
        <time>2019-11-29T12:20:00.000Z</time>
      </trkpt>
      <trkpt lat="43.32177" lon="5.68681">
        <ele>789</ele>
        <time>2019-11-29T12:20:01.000Z</time>
      </trkpt>
      <trkpt lat="43.32178" lon="5.68681">
        <ele>789</ele>
        <time>2019-11-29T12:20:02.000Z</time>
      </trkpt>
      <trkpt lat="43.3218" lon="5.68681">
        <ele>789</ele>
        <time>2019-11-29T12:20:03.000Z</time>
      </trkpt>
      <trkpt lat="43.32181" lon="5.68681">
        <ele>789</ele>
        <time>2019-11-29T12:20:04.000Z</time>
      </trkpt>
      <trkpt lat="43.32182" lon="5.68681">
        <ele>789</ele>
        <time>2019-11-29T12:20:05.000Z</time>
      </trkpt>
      <trkpt lat="43.32184" lon="5.68681">
        <ele>789</ele>
        <time>2019-11-29T12:20:06.000Z</time>
      </trkpt>
      <trkpt lat="43.32185" lon="5.68681">
        <ele>789</ele>
        <time>2019-11-29T12:20:07.000Z</time>
      </trkpt>
      <trkpt lat="43.32186" lon="5.68681">
        <ele>789</ele>
        <time>2019-11-29T12:20:08.000Z</time>
      </trkpt>
      <trkpt lat="43.32188" lon="5.68681">
        <ele>789</ele>
        <time>2019-11-29T12:20:09.000Z</time>
      </trkpt>
      <trkpt lat="43.32189" lon="5.68681">
        <ele>789</ele>
        <time>2019-11-29T12:20:10.000Z</time>
      </trkpt>
      <trkpt lat="43.3219" lon="5.68681">
        <ele>789</ele>
        <time>2019-11-29T12:20:11.000Z</time>
      </trkpt>
      <trkpt lat="43.32192" lon="5.68682">
        <ele>789</ele>
        <time>2019-11-29T12:20:12.000Z</time>
      </trkpt>
      <trkpt lat="43.32193" lon="5.68682">
        <ele>788</ele>
        <time>2019-11-29T12:20:13.000Z</time>
      </trkpt>
      <trkpt lat="43.32194" lon="5.68682">
        <ele>788</ele>
        <time>2019-11-29T12:20:14.000Z</time>
      </trkpt>
      <trkpt lat="43.32195" lon="5.68682">
        <ele>788</ele>
        <time>2019-11-29T12:20:15.000Z</time>
      </trkpt>
      <trkpt lat="43.32197" lon="5.68682">
        <ele>788</ele>
        <time>2019-11-29T12:20:16.000Z</time>
      </trkpt>
      <trkpt lat="43.32199" lon="5.68682">
        <ele>788</ele>
        <time>2019-11-29T12:20:17.000Z</time>
      </trkpt>
      <trkpt lat="43.322" lon="5.68682">
        <ele>788</ele>
        <time>2019-11-29T12:20:18.000Z</time>
      </trkpt>
      <trkpt lat="43.32201" lon="5.68683">
        <ele>788</ele>
        <time>2019-11-29T12:20:19.000Z</time>
      </trkpt>
      <trkpt lat="43.32202" lon="5.68683">
        <ele>788</ele>
        <time>2019-11-29T12:20:20.000Z</time>
      </trkpt>
      <trkpt lat="43.32202" lon="5.68684">
        <ele>788</ele>
        <time>2019-11-29T12:20:21.000Z</time>
      </trkpt>
      <trkpt lat="43.32203" lon="5.68684">
        <ele>788</ele>
        <time>2019-11-29T12:20:22.000Z</time>
      </trkpt>
      <trkpt lat="43.32204" lon="5.68685">
        <ele>788</ele>
        <time>2019-11-29T12:20:23.000Z</time>
      </trkpt>
      <trkpt lat="43.32205" lon="5.68685">
        <ele>788</ele>
        <time>2019-11-29T12:20:24.000Z</time>
      </trkpt>
      <trkpt lat="43.32205" lon="5.68686">
        <ele>788</ele>
        <time>2019-11-29T12:20:25.000Z</time>
      </trkpt>
      <trkpt lat="43.32206" lon="5.68686">
        <ele>788</ele>
        <time>2019-11-29T12:20:26.000Z</time>
      </trkpt>
      <trkpt lat="43.32207" lon="5.68685">
        <ele>788</ele>
        <time>2019-11-29T12:20:27.000Z</time>
      </trkpt>
      <trkpt lat="43.32209" lon="5.68685">
        <ele>788</ele>
        <time>2019-11-29T12:20:28.000Z</time>
      </trkpt>
      <trkpt lat="43.3221" lon="5.68685">
        <ele>788</ele>
        <time>2019-11-29T12:20:29.000Z</time>
      </trkpt>
      <trkpt lat="43.32211" lon="5.68684">
        <ele>788</ele>
        <time>2019-11-29T12:20:30.000Z</time>
      </trkpt>
      <trkpt lat="43.32213" lon="5.68683">
        <ele>788</ele>
        <time>2019-11-29T12:20:31.000Z</time>
      </trkpt>
      <trkpt lat="43.32214" lon="5.68683">
        <ele>787</ele>
        <time>2019-11-29T12:20:32.000Z</time>
      </trkpt>
      <trkpt lat="43.32215" lon="5.68684">
        <ele>787</ele>
        <time>2019-11-29T12:20:33.000Z</time>
      </trkpt>
      <trkpt lat="43.32215" lon="5.68684">
        <ele>787</ele>
        <time>2019-11-29T12:20:34.000Z</time>
      </trkpt>
      <trkpt lat="43.32216" lon="5.68685">
        <ele>787</ele>
        <time>2019-11-29T12:20:35.000Z</time>
      </trkpt>
      <trkpt lat="43.32217" lon="5.68686">
        <ele>787</ele>
        <time>2019-11-29T12:20:36.000Z</time>
      </trkpt>
      <trkpt lat="43.32217" lon="5.68687">
        <ele>787</ele>
        <time>2019-11-29T12:20:37.000Z</time>
      </trkpt>
      <trkpt lat="43.32218" lon="5.68688">
        <ele>787</ele>
        <time>2019-11-29T12:20:38.000Z</time>
      </trkpt>
      <trkpt lat="43.32219" lon="5.68689">
        <ele>787</ele>
        <time>2019-11-29T12:20:39.000Z</time>
      </trkpt>
      <trkpt lat="43.32221" lon="5.68689">
        <ele>786</ele>
        <time>2019-11-29T12:20:40.000Z</time>
      </trkpt>
      <trkpt lat="43.32222" lon="5.6869">
        <ele>786</ele>
        <time>2019-11-29T12:20:41.000Z</time>
      </trkpt>
      <trkpt lat="43.32223" lon="5.68691">
        <ele>786</ele>
        <time>2019-11-29T12:20:42.000Z</time>
      </trkpt>
      <trkpt lat="43.32225" lon="5.68691">
        <ele>786</ele>
        <time>2019-11-29T12:20:43.000Z</time>
      </trkpt>
      <trkpt lat="43.32226" lon="5.68692">
        <ele>786</ele>
        <time>2019-11-29T12:20:44.000Z</time>
      </trkpt>
      <trkpt lat="43.32227" lon="5.68692">
        <ele>786</ele>
        <time>2019-11-29T12:20:45.000Z</time>
      </trkpt>
      <trkpt lat="43.32228" lon="5.68692">
        <ele>786</ele>
        <time>2019-11-29T12:20:46.000Z</time>
      </trkpt>
      <trkpt lat="43.32229" lon="5.68692">
        <ele>786</ele>
        <time>2019-11-29T12:20:47.000Z</time>
      </trkpt>
      <trkpt lat="43.3223" lon="5.68691">
        <ele>786</ele>
        <time>2019-11-29T12:20:48.000Z</time>
      </trkpt>
      <trkpt lat="43.32232" lon="5.68691">
        <ele>786</ele>
        <time>2019-11-29T12:20:49.000Z</time>
      </trkpt>
      <trkpt lat="43.32233" lon="5.6869">
        <ele>786</ele>
        <time>2019-11-29T12:20:50.000Z</time>
      </trkpt>
      <trkpt lat="43.32234" lon="5.6869">
        <ele>786</ele>
        <time>2019-11-29T12:20:51.000Z</time>
      </trkpt>
      <trkpt lat="43.32235" lon="5.6869">
        <ele>786</ele>
        <time>2019-11-29T12:20:52.000Z</time>
      </trkpt>
      <trkpt lat="43.32237" lon="5.6869">
        <ele>786</ele>
        <time>2019-11-29T12:20:53.000Z</time>
      </trkpt>
      <trkpt lat="43.32238" lon="5.68689">
        <ele>786</ele>
        <time>2019-11-29T12:20:54.000Z</time>
      </trkpt>
      <trkpt lat="43.32239" lon="5.68689">
        <ele>786</ele>
        <time>2019-11-29T12:20:55.000Z</time>
      </trkpt>
      <trkpt lat="43.32239" lon="5.68688">
        <ele>786</ele>
        <time>2019-11-29T12:20:56.000Z</time>
      </trkpt>
      <trkpt lat="43.3224" lon="5.68688">
        <ele>786</ele>
        <time>2019-11-29T12:20:57.000Z</time>
      </trkpt>
      <trkpt lat="43.32241" lon="5.68688">
        <ele>786</ele>
        <time>2019-11-29T12:20:58.000Z</time>
      </trkpt>
      <trkpt lat="43.32242" lon="5.68687">
        <ele>786</ele>
        <time>2019-11-29T12:20:59.000Z</time>
      </trkpt>
      <trkpt lat="43.32243" lon="5.68686">
        <ele>786</ele>
        <time>2019-11-29T12:21:00.000Z</time>
      </trkpt>
      <trkpt lat="43.32245" lon="5.68685">
        <ele>786</ele>
        <time>2019-11-29T12:21:01.000Z</time>
      </trkpt>
      <trkpt lat="43.32246" lon="5.68685">
        <ele>786</ele>
        <time>2019-11-29T12:21:02.000Z</time>
      </trkpt>
      <trkpt lat="43.32247" lon="5.68684">
        <ele>786</ele>
        <time>2019-11-29T12:21:03.000Z</time>
      </trkpt>
      <trkpt lat="43.32248" lon="5.68684">
        <ele>786</ele>
        <time>2019-11-29T12:21:04.000Z</time>
      </trkpt>
      <trkpt lat="43.3225" lon="5.68683">
        <ele>786</ele>
        <time>2019-11-29T12:21:05.000Z</time>
      </trkpt>
      <trkpt lat="43.32251" lon="5.68683">
        <ele>786</ele>
        <time>2019-11-29T12:21:06.000Z</time>
      </trkpt>
      <trkpt lat="43.32252" lon="5.68682">
        <ele>786</ele>
        <time>2019-11-29T12:21:07.000Z</time>
      </trkpt>
      <trkpt lat="43.32253" lon="5.68681">
        <ele>786</ele>
        <time>2019-11-29T12:21:08.000Z</time>
      </trkpt>
      <trkpt lat="43.32255" lon="5.68681">
        <ele>786</ele>
        <time>2019-11-29T12:21:09.000Z</time>
      </trkpt>
      <trkpt lat="43.32256" lon="5.6868">
        <ele>786</ele>
        <time>2019-11-29T12:21:10.000Z</time>
      </trkpt>
      <trkpt lat="43.32258" lon="5.68679">
        <ele>786</ele>
        <time>2019-11-29T12:21:11.000Z</time>
      </trkpt>
      <trkpt lat="43.32259" lon="5.68678">
        <ele>786</ele>
        <time>2019-11-29T12:21:12.000Z</time>
      </trkpt>
      <trkpt lat="43.3226" lon="5.68677">
        <ele>786</ele>
        <time>2019-11-29T12:21:13.000Z</time>
      </trkpt>
      <trkpt lat="43.32261" lon="5.68677">
        <ele>786</ele>
        <time>2019-11-29T12:21:14.000Z</time>
      </trkpt>
      <trkpt lat="43.32261" lon="5.68677">
        <ele>786</ele>
        <time>2019-11-29T12:21:15.000Z</time>
      </trkpt>
      <trkpt lat="43.32262" lon="5.68678">
        <ele>786</ele>
        <time>2019-11-29T12:21:16.000Z</time>
      </trkpt>
      <trkpt lat="43.32263" lon="5.68679">
        <ele>786</ele>
        <time>2019-11-29T12:21:17.000Z</time>
      </trkpt>
      <trkpt lat="43.32263" lon="5.6868">
        <ele>787</ele>
        <time>2019-11-29T12:21:18.000Z</time>
      </trkpt>
      <trkpt lat="43.32264" lon="5.68681">
        <ele>787</ele>
        <time>2019-11-29T12:21:19.000Z</time>
      </trkpt>
      <trkpt lat="43.32265" lon="5.68682">
        <ele>787</ele>
        <time>2019-11-29T12:21:20.000Z</time>
      </trkpt>
      <trkpt lat="43.32266" lon="5.68682">
        <ele>787</ele>
        <time>2019-11-29T12:21:21.000Z</time>
      </trkpt>
      <trkpt lat="43.32266" lon="5.68683">
        <ele>787</ele>
        <time>2019-11-29T12:21:22.000Z</time>
      </trkpt>
      <trkpt lat="43.32267" lon="5.68684">
        <ele>787</ele>
        <time>2019-11-29T12:21:23.000Z</time>
      </trkpt>
      <trkpt lat="43.32268" lon="5.68685">
        <ele>787</ele>
        <time>2019-11-29T12:21:24.000Z</time>
      </trkpt>
      <trkpt lat="43.32269" lon="5.68685">
        <ele>787</ele>
        <time>2019-11-29T12:21:25.000Z</time>
      </trkpt>
      <trkpt lat="43.3227" lon="5.68686">
        <ele>788</ele>
        <time>2019-11-29T12:21:26.000Z</time>
      </trkpt>
      <trkpt lat="43.32271" lon="5.68686">
        <ele>788</ele>
        <time>2019-11-29T12:21:27.000Z</time>
      </trkpt>
      <trkpt lat="43.32271" lon="5.68687">
        <ele>788</ele>
        <time>2019-11-29T12:21:28.000Z</time>
      </trkpt>
      <trkpt lat="43.32272" lon="5.68687">
        <ele>788</ele>
        <time>2019-11-29T12:21:29.000Z</time>
      </trkpt>
      <trkpt lat="43.32273" lon="5.68688">
        <ele>788</ele>
        <time>2019-11-29T12:21:30.000Z</time>
      </trkpt>
      <trkpt lat="43.32274" lon="5.68688">
        <ele>789</ele>
        <time>2019-11-29T12:21:31.000Z</time>
      </trkpt>
      <trkpt lat="43.32275" lon="5.68689">
        <ele>789</ele>
        <time>2019-11-29T12:21:32.000Z</time>
      </trkpt>
      <trkpt lat="43.32276" lon="5.68689">
        <ele>789</ele>
        <time>2019-11-29T12:21:33.000Z</time>
      </trkpt>
      <trkpt lat="43.32277" lon="5.6869">
        <ele>789</ele>
        <time>2019-11-29T12:21:34.000Z</time>
      </trkpt>
      <trkpt lat="43.32278" lon="5.6869">
        <ele>789</ele>
        <time>2019-11-29T12:21:35.000Z</time>
      </trkpt>
      <trkpt lat="43.32279" lon="5.6869">
        <ele>790</ele>
        <time>2019-11-29T12:21:36.000Z</time>
      </trkpt>
      <trkpt lat="43.32279" lon="5.6869">
        <ele>790</ele>
        <time>2019-11-29T12:21:37.000Z</time>
      </trkpt>
      <trkpt lat="43.32279" lon="5.68691">
        <ele>790</ele>
        <time>2019-11-29T12:21:38.000Z</time>
      </trkpt>
      <trkpt lat="43.32279" lon="5.68691">
        <ele>790</ele>
        <time>2019-11-29T12:21:39.000Z</time>
      </trkpt>
      <trkpt lat="43.32279" lon="5.68691">
        <ele>790</ele>
        <time>2019-11-29T12:21:40.000Z</time>
      </trkpt>
      <trkpt lat="43.32279" lon="5.68691">
        <ele>790</ele>
        <time>2019-11-29T12:21:41.000Z</time>
      </trkpt>
      <trkpt lat="43.32279" lon="5.68691">
        <ele>790</ele>
        <time>2019-11-29T12:21:42.000Z</time>
      </trkpt>
      <trkpt lat="43.32279" lon="5.68691">
        <ele>790</ele>
        <time>2019-11-29T12:21:43.000Z</time>
      </trkpt>
      <trkpt lat="43.3228" lon="5.68691">
        <ele>790</ele>
        <time>2019-11-29T12:21:44.000Z</time>
      </trkpt>
      <trkpt lat="43.3228" lon="5.68692">
        <ele>790</ele>
        <time>2019-11-29T12:21:45.000Z</time>
      </trkpt>
      <trkpt lat="43.32281" lon="5.68692">
        <ele>790</ele>
        <time>2019-11-29T12:21:46.000Z</time>
      </trkpt>
      <trkpt lat="43.32281" lon="5.68693">
        <ele>790</ele>
        <time>2019-11-29T12:21:47.000Z</time>
      </trkpt>
      <trkpt lat="43.32282" lon="5.68693">
        <ele>790</ele>
        <time>2019-11-29T12:21:48.000Z</time>
      </trkpt>
      <trkpt lat="43.32283" lon="5.68694">
        <ele>790</ele>
        <time>2019-11-29T12:21:49.000Z</time>
      </trkpt>
      <trkpt lat="43.32283" lon="5.68694">
        <ele>790</ele>
        <time>2019-11-29T12:21:50.000Z</time>
      </trkpt>
      <trkpt lat="43.32284" lon="5.68695">
        <ele>790</ele>
        <time>2019-11-29T12:21:51.000Z</time>
      </trkpt>
      <trkpt lat="43.32285" lon="5.68696">
        <ele>790</ele>
        <time>2019-11-29T12:21:52.000Z</time>
      </trkpt>
      <trkpt lat="43.32286" lon="5.68696">
        <ele>790</ele>
        <time>2019-11-29T12:21:53.000Z</time>
      </trkpt>
      <trkpt lat="43.32287" lon="5.68697">
        <ele>790</ele>
        <time>2019-11-29T12:21:54.000Z</time>
      </trkpt>
      <trkpt lat="43.32288" lon="5.68697">
        <ele>790</ele>
        <time>2019-11-29T12:21:55.000Z</time>
      </trkpt>
      <trkpt lat="43.32288" lon="5.68697">
        <ele>790</ele>
        <time>2019-11-29T12:21:56.000Z</time>
      </trkpt>
      <trkpt lat="43.32289" lon="5.68698">
        <ele>790</ele>
        <time>2019-11-29T12:21:57.000Z</time>
      </trkpt>
      <trkpt lat="43.32289" lon="5.68698">
        <ele>790</ele>
        <time>2019-11-29T12:21:58.000Z</time>
      </trkpt>
      <trkpt lat="43.3229" lon="5.68699">
        <ele>789</ele>
        <time>2019-11-29T12:21:59.000Z</time>
      </trkpt>
      <trkpt lat="43.32291" lon="5.68699">
        <ele>789</ele>
        <time>2019-11-29T12:22:00.000Z</time>
      </trkpt>
      <trkpt lat="43.32292" lon="5.687">
        <ele>789</ele>
        <time>2019-11-29T12:22:01.000Z</time>
      </trkpt>
      <trkpt lat="43.32292" lon="5.687">
        <ele>789</ele>
        <time>2019-11-29T12:22:02.000Z</time>
      </trkpt>
      <trkpt lat="43.32294" lon="5.68701">
        <ele>789</ele>
        <time>2019-11-29T12:22:03.000Z</time>
      </trkpt>
      <trkpt lat="43.32295" lon="5.68701">
        <ele>789</ele>
        <time>2019-11-29T12:22:04.000Z</time>
      </trkpt>
      <trkpt lat="43.32296" lon="5.68701">
        <ele>789</ele>
        <time>2019-11-29T12:22:05.000Z</time>
      </trkpt>
      <trkpt lat="43.32297" lon="5.68702">
        <ele>790</ele>
        <time>2019-11-29T12:22:06.000Z</time>
      </trkpt>
      <trkpt lat="43.32298" lon="5.68702">
        <ele>790</ele>
        <time>2019-11-29T12:22:07.000Z</time>
      </trkpt>
      <trkpt lat="43.323" lon="5.68702">
        <ele>790</ele>
        <time>2019-11-29T12:22:08.000Z</time>
      </trkpt>
      <trkpt lat="43.32301" lon="5.68703">
        <ele>790</ele>
        <time>2019-11-29T12:22:09.000Z</time>
      </trkpt>
      <trkpt lat="43.32303" lon="5.68703">
        <ele>790</ele>
        <time>2019-11-29T12:22:10.000Z</time>
      </trkpt>
      <trkpt lat="43.32304" lon="5.68703">
        <ele>790</ele>
        <time>2019-11-29T12:22:11.000Z</time>
      </trkpt>
      <trkpt lat="43.32305" lon="5.68703">
        <ele>790</ele>
        <time>2019-11-29T12:22:12.000Z</time>
      </trkpt>
      <trkpt lat="43.32307" lon="5.68703">
        <ele>790</ele>
        <time>2019-11-29T12:22:13.000Z</time>
      </trkpt>
      <trkpt lat="43.32308" lon="5.68704">
        <ele>790</ele>
        <time>2019-11-29T12:22:14.000Z</time>
      </trkpt>
      <trkpt lat="43.32309" lon="5.68704">
        <ele>790</ele>
        <time>2019-11-29T12:22:15.000Z</time>
      </trkpt>
      <trkpt lat="43.3231" lon="5.68704">
        <ele>790</ele>
        <time>2019-11-29T12:22:16.000Z</time>
      </trkpt>
      <trkpt lat="43.32312" lon="5.68704">
        <ele>790</ele>
        <time>2019-11-29T12:22:17.000Z</time>
      </trkpt>
      <trkpt lat="43.32313" lon="5.68704">
        <ele>790</ele>
        <time>2019-11-29T12:22:18.000Z</time>
      </trkpt>
      <trkpt lat="43.32314" lon="5.68705">
        <ele>790</ele>
        <time>2019-11-29T12:22:19.000Z</time>
      </trkpt>
      <trkpt lat="43.32315" lon="5.68705">
        <ele>790</ele>
        <time>2019-11-29T12:22:20.000Z</time>
      </trkpt>
      <trkpt lat="43.32317" lon="5.68704">
        <ele>790</ele>
        <time>2019-11-29T12:22:21.000Z</time>
      </trkpt>
      <trkpt lat="43.32318" lon="5.68705">
        <ele>790</ele>
        <time>2019-11-29T12:22:22.000Z</time>
      </trkpt>
      <trkpt lat="43.32319" lon="5.68705">
        <ele>791</ele>
        <time>2019-11-29T12:22:23.000Z</time>
      </trkpt>
      <trkpt lat="43.3232" lon="5.68704">
        <ele>791</ele>
        <time>2019-11-29T12:22:24.000Z</time>
      </trkpt>
      <trkpt lat="43.32321" lon="5.68704">
        <ele>791</ele>
        <time>2019-11-29T12:22:25.000Z</time>
      </trkpt>
      <trkpt lat="43.32323" lon="5.68704">
        <ele>791</ele>
        <time>2019-11-29T12:22:26.000Z</time>
      </trkpt>
      <trkpt lat="43.32324" lon="5.68704">
        <ele>791</ele>
        <time>2019-11-29T12:22:27.000Z</time>
      </trkpt>
      <trkpt lat="43.32325" lon="5.68704">
        <ele>791</ele>
        <time>2019-11-29T12:22:28.000Z</time>
      </trkpt>
      <trkpt lat="43.32326" lon="5.68704">
        <ele>792</ele>
        <time>2019-11-29T12:22:29.000Z</time>
      </trkpt>
      <trkpt lat="43.32327" lon="5.68704">
        <ele>792</ele>
        <time>2019-11-29T12:22:30.000Z</time>
      </trkpt>
      <trkpt lat="43.32328" lon="5.68704">
        <ele>792</ele>
        <time>2019-11-29T12:22:31.000Z</time>
      </trkpt>
      <trkpt lat="43.32329" lon="5.68704">
        <ele>792</ele>
        <time>2019-11-29T12:22:32.000Z</time>
      </trkpt>
      <trkpt lat="43.32331" lon="5.68704">
        <ele>792</ele>
        <time>2019-11-29T12:22:33.000Z</time>
      </trkpt>
      <trkpt lat="43.32332" lon="5.68705">
        <ele>792</ele>
        <time>2019-11-29T12:22:34.000Z</time>
      </trkpt>
      <trkpt lat="43.32333" lon="5.68705">
        <ele>792</ele>
        <time>2019-11-29T12:22:35.000Z</time>
      </trkpt>
      <trkpt lat="43.32334" lon="5.68706">
        <ele>792</ele>
        <time>2019-11-29T12:22:36.000Z</time>
      </trkpt>
      <trkpt lat="43.32335" lon="5.68706">
        <ele>792</ele>
        <time>2019-11-29T12:22:37.000Z</time>
      </trkpt>
      <trkpt lat="43.32336" lon="5.68706">
        <ele>792</ele>
        <time>2019-11-29T12:22:38.000Z</time>
      </trkpt>
      <trkpt lat="43.32337" lon="5.68707">
        <ele>792</ele>
        <time>2019-11-29T12:22:39.000Z</time>
      </trkpt>
      <trkpt lat="43.32338" lon="5.68708">
        <ele>792</ele>
        <time>2019-11-29T12:22:40.000Z</time>
      </trkpt>
      <trkpt lat="43.32339" lon="5.68708">
        <ele>792</ele>
        <time>2019-11-29T12:22:41.000Z</time>
      </trkpt>
      <trkpt lat="43.3234" lon="5.68709">
        <ele>792</ele>
        <time>2019-11-29T12:22:42.000Z</time>
      </trkpt>
      <trkpt lat="43.32341" lon="5.68709">
        <ele>792</ele>
        <time>2019-11-29T12:22:43.000Z</time>
      </trkpt>
      <trkpt lat="43.32343" lon="5.6871">
        <ele>792</ele>
        <time>2019-11-29T12:22:44.000Z</time>
      </trkpt>
      <trkpt lat="43.32344" lon="5.6871">
        <ele>792</ele>
        <time>2019-11-29T12:22:45.000Z</time>
      </trkpt>
      <trkpt lat="43.32345" lon="5.68709">
        <ele>792</ele>
        <time>2019-11-29T12:22:46.000Z</time>
      </trkpt>
      <trkpt lat="43.32346" lon="5.68709">
        <ele>792</ele>
        <time>2019-11-29T12:22:47.000Z</time>
      </trkpt>
      <trkpt lat="43.32347" lon="5.68709">
        <ele>792</ele>
        <time>2019-11-29T12:22:48.000Z</time>
      </trkpt>
      <trkpt lat="43.32348" lon="5.68709">
        <ele>792</ele>
        <time>2019-11-29T12:22:49.000Z</time>
      </trkpt>
      <trkpt lat="43.32349" lon="5.68709">
        <ele>792</ele>
        <time>2019-11-29T12:22:50.000Z</time>
      </trkpt>
      <trkpt lat="43.3235" lon="5.68708">
        <ele>792</ele>
        <time>2019-11-29T12:22:51.000Z</time>
      </trkpt>
      <trkpt lat="43.32351" lon="5.68709">
        <ele>792</ele>
        <time>2019-11-29T12:22:52.000Z</time>
      </trkpt>
      <trkpt lat="43.32352" lon="5.68709">
        <ele>792</ele>
        <time>2019-11-29T12:22:53.000Z</time>
      </trkpt>
      <trkpt lat="43.32353" lon="5.68709">
        <ele>792</ele>
        <time>2019-11-29T12:22:54.000Z</time>
      </trkpt>
      <trkpt lat="43.32355" lon="5.68709">
        <ele>792</ele>
        <time>2019-11-29T12:22:55.000Z</time>
      </trkpt>
      <trkpt lat="43.32356" lon="5.68709">
        <ele>793</ele>
        <time>2019-11-29T12:22:56.000Z</time>
      </trkpt>
      <trkpt lat="43.32357" lon="5.68709">
        <ele>793</ele>
        <time>2019-11-29T12:22:57.000Z</time>
      </trkpt>
      <trkpt lat="43.32358" lon="5.68709">
        <ele>793</ele>
        <time>2019-11-29T12:22:58.000Z</time>
      </trkpt>
      <trkpt lat="43.32359" lon="5.68709">
        <ele>793</ele>
        <time>2019-11-29T12:22:59.000Z</time>
      </trkpt>
      <trkpt lat="43.32359" lon="5.6871">
        <ele>793</ele>
        <time>2019-11-29T12:23:00.000Z</time>
      </trkpt>
      <trkpt lat="43.3236" lon="5.6871">
        <ele>793</ele>
        <time>2019-11-29T12:23:01.000Z</time>
      </trkpt>
      <trkpt lat="43.32361" lon="5.68711">
        <ele>793</ele>
        <time>2019-11-29T12:23:02.000Z</time>
      </trkpt>
      <trkpt lat="43.32363" lon="5.68711">
        <ele>793</ele>
        <time>2019-11-29T12:23:03.000Z</time>
      </trkpt>
      <trkpt lat="43.32363" lon="5.68711">
        <ele>793</ele>
        <time>2019-11-29T12:23:04.000Z</time>
      </trkpt>
      <trkpt lat="43.32365" lon="5.68711">
        <ele>793</ele>
        <time>2019-11-29T12:23:05.000Z</time>
      </trkpt>
      <trkpt lat="43.32366" lon="5.68712">
        <ele>794</ele>
        <time>2019-11-29T12:23:06.000Z</time>
      </trkpt>
      <trkpt lat="43.32367" lon="5.68712">
        <ele>794</ele>
        <time>2019-11-29T12:23:07.000Z</time>
      </trkpt>
      <trkpt lat="43.32368" lon="5.68712">
        <ele>794</ele>
        <time>2019-11-29T12:23:08.000Z</time>
      </trkpt>
      <trkpt lat="43.32369" lon="5.68712">
        <ele>794</ele>
        <time>2019-11-29T12:23:09.000Z</time>
      </trkpt>
      <trkpt lat="43.3237" lon="5.68712">
        <ele>794</ele>
        <time>2019-11-29T12:23:10.000Z</time>
      </trkpt>
      <trkpt lat="43.32371" lon="5.68712">
        <ele>794</ele>
        <time>2019-11-29T12:23:11.000Z</time>
      </trkpt>
      <trkpt lat="43.32372" lon="5.68712">
        <ele>794</ele>
        <time>2019-11-29T12:23:12.000Z</time>
      </trkpt>
      <trkpt lat="43.32374" lon="5.68712">
        <ele>794</ele>
        <time>2019-11-29T12:23:13.000Z</time>
      </trkpt>
      <trkpt lat="43.32375" lon="5.68712">
        <ele>794</ele>
        <time>2019-11-29T12:23:14.000Z</time>
      </trkpt>
      <trkpt lat="43.32376" lon="5.68713">
        <ele>794</ele>
        <time>2019-11-29T12:23:15.000Z</time>
      </trkpt>
      <trkpt lat="43.32377" lon="5.68713">
        <ele>794</ele>
        <time>2019-11-29T12:23:16.000Z</time>
      </trkpt>
      <trkpt lat="43.32378" lon="5.68713">
        <ele>794</ele>
        <time>2019-11-29T12:23:17.000Z</time>
      </trkpt>
      <trkpt lat="43.32378" lon="5.68714">
        <ele>794</ele>
        <time>2019-11-29T12:23:18.000Z</time>
      </trkpt>
      <trkpt lat="43.32379" lon="5.68714">
        <ele>794</ele>
        <time>2019-11-29T12:23:19.000Z</time>
      </trkpt>
      <trkpt lat="43.32381" lon="5.68714">
        <ele>794</ele>
        <time>2019-11-29T12:23:20.000Z</time>
      </trkpt>
      <trkpt lat="43.32382" lon="5.68714">
        <ele>794</ele>
        <time>2019-11-29T12:23:21.000Z</time>
      </trkpt>
      <trkpt lat="43.32383" lon="5.68714">
        <ele>794</ele>
        <time>2019-11-29T12:23:22.000Z</time>
      </trkpt>
      <trkpt lat="43.32384" lon="5.68714">
        <ele>794</ele>
        <time>2019-11-29T12:23:23.000Z</time>
      </trkpt>
      <trkpt lat="43.32385" lon="5.68714">
        <ele>794</ele>
        <time>2019-11-29T12:23:24.000Z</time>
      </trkpt>
      <trkpt lat="43.32386" lon="5.68715">
        <ele>794</ele>
        <time>2019-11-29T12:23:25.000Z</time>
      </trkpt>
      <trkpt lat="43.32387" lon="5.68715">
        <ele>794</ele>
        <time>2019-11-29T12:23:26.000Z</time>
      </trkpt>
      <trkpt lat="43.32388" lon="5.68715">
        <ele>794</ele>
        <time>2019-11-29T12:23:27.000Z</time>
      </trkpt>
      <trkpt lat="43.32389" lon="5.68715">
        <ele>794</ele>
        <time>2019-11-29T12:23:28.000Z</time>
      </trkpt>
      <trkpt lat="43.32389" lon="5.68716">
        <ele>794</ele>
        <time>2019-11-29T12:23:29.000Z</time>
      </trkpt>
      <trkpt lat="43.3239" lon="5.68717">
        <ele>794</ele>
        <time>2019-11-29T12:23:30.000Z</time>
      </trkpt>
      <trkpt lat="43.3239" lon="5.68717">
        <ele>794</ele>
        <time>2019-11-29T12:23:31.000Z</time>
      </trkpt>
      <trkpt lat="43.32391" lon="5.68718">
        <ele>794</ele>
        <time>2019-11-29T12:23:32.000Z</time>
      </trkpt>
      <trkpt lat="43.32392" lon="5.68719">
        <ele>794</ele>
        <time>2019-11-29T12:23:33.000Z</time>
      </trkpt>
      <trkpt lat="43.32392" lon="5.6872">
        <ele>794</ele>
        <time>2019-11-29T12:23:34.000Z</time>
      </trkpt>
      <trkpt lat="43.32393" lon="5.6872">
        <ele>794</ele>
        <time>2019-11-29T12:23:35.000Z</time>
      </trkpt>
      <trkpt lat="43.32394" lon="5.68721">
        <ele>794</ele>
        <time>2019-11-29T12:23:36.000Z</time>
      </trkpt>
      <trkpt lat="43.32394" lon="5.68721">
        <ele>793</ele>
        <time>2019-11-29T12:23:37.000Z</time>
      </trkpt>
      <trkpt lat="43.32395" lon="5.68722">
        <ele>793</ele>
        <time>2019-11-29T12:23:38.000Z</time>
      </trkpt>
      <trkpt lat="43.32397" lon="5.68723">
        <ele>793</ele>
        <time>2019-11-29T12:23:39.000Z</time>
      </trkpt>
      <trkpt lat="43.32398" lon="5.68724">
        <ele>793</ele>
        <time>2019-11-29T12:23:40.000Z</time>
      </trkpt>
      <trkpt lat="43.32399" lon="5.68724">
        <ele>793</ele>
        <time>2019-11-29T12:23:41.000Z</time>
      </trkpt>
      <trkpt lat="43.324" lon="5.68725">
        <ele>793</ele>
        <time>2019-11-29T12:23:42.000Z</time>
      </trkpt>
      <trkpt lat="43.32402" lon="5.68725">
        <ele>793</ele>
        <time>2019-11-29T12:23:43.000Z</time>
      </trkpt>
      <trkpt lat="43.32403" lon="5.68726">
        <ele>793</ele>
        <time>2019-11-29T12:23:44.000Z</time>
      </trkpt>
      <trkpt lat="43.32404" lon="5.68726">
        <ele>793</ele>
        <time>2019-11-29T12:23:45.000Z</time>
      </trkpt>
      <trkpt lat="43.32404" lon="5.68726">
        <ele>793</ele>
        <time>2019-11-29T12:23:46.000Z</time>
      </trkpt>
      <trkpt lat="43.32405" lon="5.68726">
        <ele>793</ele>
        <time>2019-11-29T12:23:47.000Z</time>
      </trkpt>
      <trkpt lat="43.32406" lon="5.68726">
        <ele>793</ele>
        <time>2019-11-29T12:23:48.000Z</time>
      </trkpt>
      <trkpt lat="43.32407" lon="5.68726">
        <ele>793</ele>
        <time>2019-11-29T12:23:49.000Z</time>
      </trkpt>
      <trkpt lat="43.32408" lon="5.68726">
        <ele>793</ele>
        <time>2019-11-29T12:23:50.000Z</time>
      </trkpt>
      <trkpt lat="43.32409" lon="5.68727">
        <ele>793</ele>
        <time>2019-11-29T12:23:51.000Z</time>
      </trkpt>
      <trkpt lat="43.3241" lon="5.68727">
        <ele>793</ele>
        <time>2019-11-29T12:23:52.000Z</time>
      </trkpt>
      <trkpt lat="43.32411" lon="5.68727">
        <ele>793</ele>
        <time>2019-11-29T12:23:53.000Z</time>
      </trkpt>
      <trkpt lat="43.32412" lon="5.68727">
        <ele>793</ele>
        <time>2019-11-29T12:23:54.000Z</time>
      </trkpt>
      <trkpt lat="43.32413" lon="5.68728">
        <ele>793</ele>
        <time>2019-11-29T12:23:55.000Z</time>
      </trkpt>
      <trkpt lat="43.32414" lon="5.68728">
        <ele>793</ele>
        <time>2019-11-29T12:23:56.000Z</time>
      </trkpt>
      <trkpt lat="43.32415" lon="5.68728">
        <ele>793</ele>
        <time>2019-11-29T12:23:57.000Z</time>
      </trkpt>
      <trkpt lat="43.32416" lon="5.68728">
        <ele>793</ele>
        <time>2019-11-29T12:23:58.000Z</time>
      </trkpt>
      <trkpt lat="43.32416" lon="5.68728">
        <ele>793</ele>
        <time>2019-11-29T12:23:59.000Z</time>
      </trkpt>
      <trkpt lat="43.32417" lon="5.68728">
        <ele>793</ele>
        <time>2019-11-29T12:24:00.000Z</time>
      </trkpt>
      <trkpt lat="43.32418" lon="5.68728">
        <ele>793</ele>
        <time>2019-11-29T12:24:01.000Z</time>
      </trkpt>
      <trkpt lat="43.32419" lon="5.68728">
        <ele>793</ele>
        <time>2019-11-29T12:24:02.000Z</time>
      </trkpt>
      <trkpt lat="43.32419" lon="5.68727">
        <ele>793</ele>
        <time>2019-11-29T12:24:03.000Z</time>
      </trkpt>
      <trkpt lat="43.3242" lon="5.68727">
        <ele>793</ele>
        <time>2019-11-29T12:24:04.000Z</time>
      </trkpt>
      <trkpt lat="43.32421" lon="5.68727">
        <ele>793</ele>
        <time>2019-11-29T12:24:05.000Z</time>
      </trkpt>
      <trkpt lat="43.32421" lon="5.68727">
        <ele>794</ele>
        <time>2019-11-29T12:24:06.000Z</time>
      </trkpt>
      <trkpt lat="43.32422" lon="5.68726">
        <ele>794</ele>
        <time>2019-11-29T12:24:07.000Z</time>
      </trkpt>
      <trkpt lat="43.32422" lon="5.68726">
        <ele>794</ele>
        <time>2019-11-29T12:24:08.000Z</time>
      </trkpt>
      <trkpt lat="43.32423" lon="5.68726">
        <ele>794</ele>
        <time>2019-11-29T12:24:09.000Z</time>
      </trkpt>
      <trkpt lat="43.32423" lon="5.68726">
        <ele>794</ele>
        <time>2019-11-29T12:24:10.000Z</time>
      </trkpt>
      <trkpt lat="43.32424" lon="5.68725">
        <ele>794</ele>
        <time>2019-11-29T12:24:11.000Z</time>
      </trkpt>
      <trkpt lat="43.32425" lon="5.68725">
        <ele>794</ele>
        <time>2019-11-29T12:24:12.000Z</time>
      </trkpt>
      <trkpt lat="43.32425" lon="5.68725">
        <ele>794</ele>
        <time>2019-11-29T12:24:13.000Z</time>
      </trkpt>
      <trkpt lat="43.32426" lon="5.68725">
        <ele>794</ele>
        <time>2019-11-29T12:24:14.000Z</time>
      </trkpt>
      <trkpt lat="43.32427" lon="5.68724">
        <ele>794</ele>
        <time>2019-11-29T12:24:15.000Z</time>
      </trkpt>
      <trkpt lat="43.32428" lon="5.68724">
        <ele>795</ele>
        <time>2019-11-29T12:24:16.000Z</time>
      </trkpt>
      <trkpt lat="43.32429" lon="5.68725">
        <ele>795</ele>
        <time>2019-11-29T12:24:17.000Z</time>
      </trkpt>
      <trkpt lat="43.3243" lon="5.68725">
        <ele>795</ele>
        <time>2019-11-29T12:24:18.000Z</time>
      </trkpt>
      <trkpt lat="43.32431" lon="5.68725">
        <ele>795</ele>
        <time>2019-11-29T12:24:19.000Z</time>
      </trkpt>
      <trkpt lat="43.32432" lon="5.68725">
        <ele>795</ele>
        <time>2019-11-29T12:24:20.000Z</time>
      </trkpt>
      <trkpt lat="43.32433" lon="5.68724">
        <ele>795</ele>
        <time>2019-11-29T12:24:21.000Z</time>
      </trkpt>
      <trkpt lat="43.32433" lon="5.68724">
        <ele>795</ele>
        <time>2019-11-29T12:24:22.000Z</time>
      </trkpt>
      <trkpt lat="43.32434" lon="5.68724">
        <ele>795</ele>
        <time>2019-11-29T12:24:23.000Z</time>
      </trkpt>
      <trkpt lat="43.32435" lon="5.68724">
        <ele>796</ele>
        <time>2019-11-29T12:24:24.000Z</time>
      </trkpt>
      <trkpt lat="43.32436" lon="5.68724">
        <ele>796</ele>
        <time>2019-11-29T12:24:25.000Z</time>
      </trkpt>
      <trkpt lat="43.32437" lon="5.68723">
        <ele>796</ele>
        <time>2019-11-29T12:24:26.000Z</time>
      </trkpt>
      <trkpt lat="43.32438" lon="5.68723">
        <ele>796</ele>
        <time>2019-11-29T12:24:27.000Z</time>
      </trkpt>
      <trkpt lat="43.32438" lon="5.68723">
        <ele>796</ele>
        <time>2019-11-29T12:24:28.000Z</time>
      </trkpt>
      <trkpt lat="43.32439" lon="5.68723">
        <ele>796</ele>
        <time>2019-11-29T12:24:29.000Z</time>
      </trkpt>
      <trkpt lat="43.3244" lon="5.68723">
        <ele>796</ele>
        <time>2019-11-29T12:24:30.000Z</time>
      </trkpt>
      <trkpt lat="43.32441" lon="5.68724">
        <ele>796</ele>
        <time>2019-11-29T12:24:31.000Z</time>
      </trkpt>
      <trkpt lat="43.32442" lon="5.68724">
        <ele>796</ele>
        <time>2019-11-29T12:24:32.000Z</time>
      </trkpt>
      <trkpt lat="43.32443" lon="5.68725">
        <ele>796</ele>
        <time>2019-11-29T12:24:33.000Z</time>
      </trkpt>
      <trkpt lat="43.32444" lon="5.68725">
        <ele>796</ele>
        <time>2019-11-29T12:24:34.000Z</time>
      </trkpt>
      <trkpt lat="43.32445" lon="5.68725">
        <ele>796</ele>
        <time>2019-11-29T12:24:35.000Z</time>
      </trkpt>
      <trkpt lat="43.32446" lon="5.68725">
        <ele>796</ele>
        <time>2019-11-29T12:24:36.000Z</time>
      </trkpt>
      <trkpt lat="43.32447" lon="5.68726">
        <ele>796</ele>
        <time>2019-11-29T12:24:37.000Z</time>
      </trkpt>
      <trkpt lat="43.32448" lon="5.68726">
        <ele>796</ele>
        <time>2019-11-29T12:24:38.000Z</time>
      </trkpt>
      <trkpt lat="43.32449" lon="5.68726">
        <ele>796</ele>
        <time>2019-11-29T12:24:39.000Z</time>
      </trkpt>
      <trkpt lat="43.3245" lon="5.68726">
        <ele>796</ele>
        <time>2019-11-29T12:24:40.000Z</time>
      </trkpt>
      <trkpt lat="43.32451" lon="5.68726">
        <ele>796</ele>
        <time>2019-11-29T12:24:41.000Z</time>
      </trkpt>
      <trkpt lat="43.32452" lon="5.68725">
        <ele>796</ele>
        <time>2019-11-29T12:24:42.000Z</time>
      </trkpt>
      <trkpt lat="43.32453" lon="5.68725">
        <ele>796</ele>
        <time>2019-11-29T12:24:43.000Z</time>
      </trkpt>
      <trkpt lat="43.32453" lon="5.68725">
        <ele>796</ele>
        <time>2019-11-29T12:24:44.000Z</time>
      </trkpt>
      <trkpt lat="43.32454" lon="5.68725">
        <ele>796</ele>
        <time>2019-11-29T12:24:45.000Z</time>
      </trkpt>
      <trkpt lat="43.32455" lon="5.68726">
        <ele>796</ele>
        <time>2019-11-29T12:24:46.000Z</time>
      </trkpt>
      <trkpt lat="43.32456" lon="5.68726">
        <ele>796</ele>
        <time>2019-11-29T12:24:47.000Z</time>
      </trkpt>
      <trkpt lat="43.32457" lon="5.68726">
        <ele>796</ele>
        <time>2019-11-29T12:24:48.000Z</time>
      </trkpt>
      <trkpt lat="43.32458" lon="5.68727">
        <ele>796</ele>
        <time>2019-11-29T12:24:49.000Z</time>
      </trkpt>
      <trkpt lat="43.32459" lon="5.68727">
        <ele>796</ele>
        <time>2019-11-29T12:24:50.000Z</time>
      </trkpt>
      <trkpt lat="43.3246" lon="5.68727">
        <ele>797</ele>
        <time>2019-11-29T12:24:51.000Z</time>
      </trkpt>
      <trkpt lat="43.32461" lon="5.68727">
        <ele>797</ele>
        <time>2019-11-29T12:24:52.000Z</time>
      </trkpt>
      <trkpt lat="43.32462" lon="5.68728">
        <ele>797</ele>
        <time>2019-11-29T12:24:53.000Z</time>
      </trkpt>
      <trkpt lat="43.32463" lon="5.68728">
        <ele>797</ele>
        <time>2019-11-29T12:24:54.000Z</time>
      </trkpt>
      <trkpt lat="43.32463" lon="5.68727">
        <ele>797</ele>
        <time>2019-11-29T12:24:55.000Z</time>
      </trkpt>
      <trkpt lat="43.32464" lon="5.68727">
        <ele>797</ele>
        <time>2019-11-29T12:24:56.000Z</time>
      </trkpt>
      <trkpt lat="43.32465" lon="5.68727">
        <ele>797</ele>
        <time>2019-11-29T12:24:57.000Z</time>
      </trkpt>
      <trkpt lat="43.32466" lon="5.68728">
        <ele>797</ele>
        <time>2019-11-29T12:24:58.000Z</time>
      </trkpt>
      <trkpt lat="43.32466" lon="5.68728">
        <ele>797</ele>
        <time>2019-11-29T12:24:59.000Z</time>
      </trkpt>
      <trkpt lat="43.32467" lon="5.68728">
        <ele>797</ele>
        <time>2019-11-29T12:25:00.000Z</time>
      </trkpt>
      <trkpt lat="43.32468" lon="5.68728">
        <ele>797</ele>
        <time>2019-11-29T12:25:01.000Z</time>
      </trkpt>
      <trkpt lat="43.32469" lon="5.68728">
        <ele>797</ele>
        <time>2019-11-29T12:25:02.000Z</time>
      </trkpt>
      <trkpt lat="43.3247" lon="5.68729">
        <ele>797</ele>
        <time>2019-11-29T12:25:03.000Z</time>
      </trkpt>
      <trkpt lat="43.32471" lon="5.68729">
        <ele>797</ele>
        <time>2019-11-29T12:25:04.000Z</time>
      </trkpt>
      <trkpt lat="43.32471" lon="5.6873">
        <ele>797</ele>
        <time>2019-11-29T12:25:05.000Z</time>
      </trkpt>
      <trkpt lat="43.32472" lon="5.6873">
        <ele>797</ele>
        <time>2019-11-29T12:25:06.000Z</time>
      </trkpt>
      <trkpt lat="43.32473" lon="5.68731">
        <ele>797</ele>
        <time>2019-11-29T12:25:07.000Z</time>
      </trkpt>
      <trkpt lat="43.32473" lon="5.68732">
        <ele>797</ele>
        <time>2019-11-29T12:25:08.000Z</time>
      </trkpt>
      <trkpt lat="43.32474" lon="5.68732">
        <ele>797</ele>
        <time>2019-11-29T12:25:09.000Z</time>
      </trkpt>
      <trkpt lat="43.32475" lon="5.68733">
        <ele>797</ele>
        <time>2019-11-29T12:25:10.000Z</time>
      </trkpt>
      <trkpt lat="43.32476" lon="5.68733">
        <ele>797</ele>
        <time>2019-11-29T12:25:11.000Z</time>
      </trkpt>
      <trkpt lat="43.32477" lon="5.68734">
        <ele>797</ele>
        <time>2019-11-29T12:25:12.000Z</time>
      </trkpt>
      <trkpt lat="43.32478" lon="5.68734">
        <ele>797</ele>
        <time>2019-11-29T12:25:13.000Z</time>
      </trkpt>
      <trkpt lat="43.32479" lon="5.68735">
        <ele>797</ele>
        <time>2019-11-29T12:25:14.000Z</time>
      </trkpt>
      <trkpt lat="43.32479" lon="5.68735">
        <ele>796</ele>
        <time>2019-11-29T12:25:15.000Z</time>
      </trkpt>
      <trkpt lat="43.3248" lon="5.68735">
        <ele>796</ele>
        <time>2019-11-29T12:25:16.000Z</time>
      </trkpt>
      <trkpt lat="43.32481" lon="5.68736">
        <ele>796</ele>
        <time>2019-11-29T12:25:17.000Z</time>
      </trkpt>
      <trkpt lat="43.32482" lon="5.68736">
        <ele>796</ele>
        <time>2019-11-29T12:25:18.000Z</time>
      </trkpt>
      <trkpt lat="43.32482" lon="5.68736">
        <ele>796</ele>
        <time>2019-11-29T12:25:19.000Z</time>
      </trkpt>
      <trkpt lat="43.32483" lon="5.68737">
        <ele>797</ele>
        <time>2019-11-29T12:25:20.000Z</time>
      </trkpt>
      <trkpt lat="43.32484" lon="5.68738">
        <ele>797</ele>
        <time>2019-11-29T12:25:21.000Z</time>
      </trkpt>
      <trkpt lat="43.32485" lon="5.68738">
        <ele>796</ele>
        <time>2019-11-29T12:25:22.000Z</time>
      </trkpt>
      <trkpt lat="43.32486" lon="5.68739">
        <ele>796</ele>
        <time>2019-11-29T12:25:23.000Z</time>
      </trkpt>
      <trkpt lat="43.32487" lon="5.6874">
        <ele>796</ele>
        <time>2019-11-29T12:25:24.000Z</time>
      </trkpt>
      <trkpt lat="43.32487" lon="5.6874">
        <ele>796</ele>
        <time>2019-11-29T12:25:25.000Z</time>
      </trkpt>
      <trkpt lat="43.32488" lon="5.68741">
        <ele>796</ele>
        <time>2019-11-29T12:25:26.000Z</time>
      </trkpt>
      <trkpt lat="43.32489" lon="5.68742">
        <ele>796</ele>
        <time>2019-11-29T12:25:27.000Z</time>
      </trkpt>
      <trkpt lat="43.32489" lon="5.68742">
        <ele>796</ele>
        <time>2019-11-29T12:25:28.000Z</time>
      </trkpt>
      <trkpt lat="43.32491" lon="5.68743">
        <ele>796</ele>
        <time>2019-11-29T12:25:29.000Z</time>
      </trkpt>
      <trkpt lat="43.32492" lon="5.68744">
        <ele>796</ele>
        <time>2019-11-29T12:25:30.000Z</time>
      </trkpt>
      <trkpt lat="43.32493" lon="5.68745">
        <ele>796</ele>
        <time>2019-11-29T12:25:31.000Z</time>
      </trkpt>
      <trkpt lat="43.32494" lon="5.68745">
        <ele>796</ele>
        <time>2019-11-29T12:25:32.000Z</time>
      </trkpt>
      <trkpt lat="43.32495" lon="5.68746">
        <ele>796</ele>
        <time>2019-11-29T12:25:33.000Z</time>
      </trkpt>
      <trkpt lat="43.32496" lon="5.68746">
        <ele>796</ele>
        <time>2019-11-29T12:25:34.000Z</time>
      </trkpt>
      <trkpt lat="43.32497" lon="5.68747">
        <ele>796</ele>
        <time>2019-11-29T12:25:35.000Z</time>
      </trkpt>
      <trkpt lat="43.32497" lon="5.68747">
        <ele>796</ele>
        <time>2019-11-29T12:25:36.000Z</time>
      </trkpt>
      <trkpt lat="43.32497" lon="5.68747">
        <ele>796</ele>
        <time>2019-11-29T12:25:37.000Z</time>
      </trkpt>
      <trkpt lat="43.32498" lon="5.68747">
        <ele>795</ele>
        <time>2019-11-29T12:25:38.000Z</time>
      </trkpt>
      <trkpt lat="43.32499" lon="5.68748">
        <ele>795</ele>
        <time>2019-11-29T12:25:39.000Z</time>
      </trkpt>
      <trkpt lat="43.325" lon="5.68749">
        <ele>795</ele>
        <time>2019-11-29T12:25:40.000Z</time>
      </trkpt>
      <trkpt lat="43.32501" lon="5.68749">
        <ele>795</ele>
        <time>2019-11-29T12:25:41.000Z</time>
      </trkpt>
      <trkpt lat="43.32502" lon="5.68749">
        <ele>795</ele>
        <time>2019-11-29T12:25:42.000Z</time>
      </trkpt>
      <trkpt lat="43.32503" lon="5.6875">
        <ele>795</ele>
        <time>2019-11-29T12:25:43.000Z</time>
      </trkpt>
      <trkpt lat="43.32504" lon="5.68751">
        <ele>795</ele>
        <time>2019-11-29T12:25:44.000Z</time>
      </trkpt>
      <trkpt lat="43.32505" lon="5.68751">
        <ele>795</ele>
        <time>2019-11-29T12:25:45.000Z</time>
      </trkpt>
      <trkpt lat="43.32506" lon="5.68752">
        <ele>795</ele>
        <time>2019-11-29T12:25:46.000Z</time>
      </trkpt>
      <trkpt lat="43.32507" lon="5.68752">
        <ele>795</ele>
        <time>2019-11-29T12:25:47.000Z</time>
      </trkpt>
      <trkpt lat="43.32508" lon="5.68752">
        <ele>795</ele>
        <time>2019-11-29T12:25:48.000Z</time>
      </trkpt>
      <trkpt lat="43.32509" lon="5.68752">
        <ele>795</ele>
        <time>2019-11-29T12:25:49.000Z</time>
      </trkpt>
      <trkpt lat="43.3251" lon="5.68752">
        <ele>795</ele>
        <time>2019-11-29T12:25:50.000Z</time>
      </trkpt>
      <trkpt lat="43.32511" lon="5.68752">
        <ele>795</ele>
        <time>2019-11-29T12:25:51.000Z</time>
      </trkpt>
      <trkpt lat="43.32512" lon="5.68753">
        <ele>795</ele>
        <time>2019-11-29T12:25:52.000Z</time>
      </trkpt>
      <trkpt lat="43.32513" lon="5.68754">
        <ele>795</ele>
        <time>2019-11-29T12:25:53.000Z</time>
      </trkpt>
      <trkpt lat="43.32514" lon="5.68755">
        <ele>795</ele>
        <time>2019-11-29T12:25:54.000Z</time>
      </trkpt>
      <trkpt lat="43.32515" lon="5.68755">
        <ele>795</ele>
        <time>2019-11-29T12:25:55.000Z</time>
      </trkpt>
      <trkpt lat="43.32516" lon="5.68756">
        <ele>795</ele>
        <time>2019-11-29T12:25:56.000Z</time>
      </trkpt>
      <trkpt lat="43.32517" lon="5.68757">
        <ele>795</ele>
        <time>2019-11-29T12:25:57.000Z</time>
      </trkpt>
      <trkpt lat="43.32518" lon="5.68757">
        <ele>795</ele>
        <time>2019-11-29T12:25:58.000Z</time>
      </trkpt>
      <trkpt lat="43.32519" lon="5.68757">
        <ele>795</ele>
        <time>2019-11-29T12:25:59.000Z</time>
      </trkpt>
      <trkpt lat="43.3252" lon="5.68757">
        <ele>795</ele>
        <time>2019-11-29T12:26:00.000Z</time>
      </trkpt>
      <trkpt lat="43.32521" lon="5.68757">
        <ele>795</ele>
        <time>2019-11-29T12:26:01.000Z</time>
      </trkpt>
      <trkpt lat="43.32521" lon="5.68757">
        <ele>795</ele>
        <time>2019-11-29T12:26:02.000Z</time>
      </trkpt>
      <trkpt lat="43.32522" lon="5.68757">
        <ele>795</ele>
        <time>2019-11-29T12:26:03.000Z</time>
      </trkpt>
      <trkpt lat="43.32523" lon="5.68757">
        <ele>795</ele>
        <time>2019-11-29T12:26:04.000Z</time>
      </trkpt>
      <trkpt lat="43.32524" lon="5.68757">
        <ele>795</ele>
        <time>2019-11-29T12:26:05.000Z</time>
      </trkpt>
      <trkpt lat="43.32524" lon="5.68757">
        <ele>795</ele>
        <time>2019-11-29T12:26:06.000Z</time>
      </trkpt>
      <trkpt lat="43.32525" lon="5.68757">
        <ele>795</ele>
        <time>2019-11-29T12:26:07.000Z</time>
      </trkpt>
      <trkpt lat="43.32526" lon="5.68757">
        <ele>795</ele>
        <time>2019-11-29T12:26:08.000Z</time>
      </trkpt>
      <trkpt lat="43.32527" lon="5.68757">
        <ele>796</ele>
        <time>2019-11-29T12:26:09.000Z</time>
      </trkpt>
      <trkpt lat="43.32527" lon="5.68757">
        <ele>796</ele>
        <time>2019-11-29T12:26:10.000Z</time>
      </trkpt>
      <trkpt lat="43.32528" lon="5.68757">
        <ele>796</ele>
        <time>2019-11-29T12:26:11.000Z</time>
      </trkpt>
      <trkpt lat="43.32529" lon="5.68757">
        <ele>796</ele>
        <time>2019-11-29T12:26:12.000Z</time>
      </trkpt>
      <trkpt lat="43.3253" lon="5.68757">
        <ele>796</ele>
        <time>2019-11-29T12:26:13.000Z</time>
      </trkpt>
      <trkpt lat="43.3253" lon="5.68757">
        <ele>796</ele>
        <time>2019-11-29T12:26:14.000Z</time>
      </trkpt>
      <trkpt lat="43.32531" lon="5.68757">
        <ele>797</ele>
        <time>2019-11-29T12:26:15.000Z</time>
      </trkpt>
      <trkpt lat="43.32531" lon="5.68756">
        <ele>797</ele>
        <time>2019-11-29T12:26:16.000Z</time>
      </trkpt>
      <trkpt lat="43.32532" lon="5.68756">
        <ele>797</ele>
        <time>2019-11-29T12:26:17.000Z</time>
      </trkpt>
      <trkpt lat="43.32533" lon="5.68756">
        <ele>797</ele>
        <time>2019-11-29T12:26:18.000Z</time>
      </trkpt>
      <trkpt lat="43.32533" lon="5.68756">
        <ele>797</ele>
        <time>2019-11-29T12:26:19.000Z</time>
      </trkpt>
      <trkpt lat="43.32534" lon="5.68755">
        <ele>798</ele>
        <time>2019-11-29T12:26:20.000Z</time>
      </trkpt>
      <trkpt lat="43.32535" lon="5.68755">
        <ele>798</ele>
        <time>2019-11-29T12:26:21.000Z</time>
      </trkpt>
      <trkpt lat="43.32535" lon="5.68755">
        <ele>798</ele>
        <time>2019-11-29T12:26:22.000Z</time>
      </trkpt>
      <trkpt lat="43.32536" lon="5.68755">
        <ele>798</ele>
        <time>2019-11-29T12:26:23.000Z</time>
      </trkpt>
      <trkpt lat="43.32537" lon="5.68754">
        <ele>798</ele>
        <time>2019-11-29T12:26:24.000Z</time>
      </trkpt>
      <trkpt lat="43.32537" lon="5.68754">
        <ele>798</ele>
        <time>2019-11-29T12:26:25.000Z</time>
      </trkpt>
      <trkpt lat="43.32538" lon="5.68754">
        <ele>799</ele>
        <time>2019-11-29T12:26:26.000Z</time>
      </trkpt>
      <trkpt lat="43.32538" lon="5.68753">
        <ele>799</ele>
        <time>2019-11-29T12:26:27.000Z</time>
      </trkpt>
      <trkpt lat="43.32539" lon="5.68753">
        <ele>799</ele>
        <time>2019-11-29T12:26:28.000Z</time>
      </trkpt>
      <trkpt lat="43.3254" lon="5.68753">
        <ele>799</ele>
        <time>2019-11-29T12:26:29.000Z</time>
      </trkpt>
      <trkpt lat="43.3254" lon="5.68752">
        <ele>799</ele>
        <time>2019-11-29T12:26:30.000Z</time>
      </trkpt>
      <trkpt lat="43.3254" lon="5.68752">
        <ele>799</ele>
        <time>2019-11-29T12:26:31.000Z</time>
      </trkpt>
      <trkpt lat="43.32541" lon="5.68751">
        <ele>799</ele>
        <time>2019-11-29T12:26:32.000Z</time>
      </trkpt>
      <trkpt lat="43.32542" lon="5.68751">
        <ele>800</ele>
        <time>2019-11-29T12:26:33.000Z</time>
      </trkpt>
      <trkpt lat="43.32542" lon="5.68751">
        <ele>800</ele>
        <time>2019-11-29T12:26:34.000Z</time>
      </trkpt>
      <trkpt lat="43.32543" lon="5.6875">
        <ele>800</ele>
        <time>2019-11-29T12:26:35.000Z</time>
      </trkpt>
      <trkpt lat="43.32543" lon="5.6875">
        <ele>800</ele>
        <time>2019-11-29T12:26:36.000Z</time>
      </trkpt>
      <trkpt lat="43.32544" lon="5.68749">
        <ele>800</ele>
        <time>2019-11-29T12:26:37.000Z</time>
      </trkpt>
      <trkpt lat="43.32545" lon="5.68749">
        <ele>800</ele>
        <time>2019-11-29T12:26:38.000Z</time>
      </trkpt>
      <trkpt lat="43.32545" lon="5.68749">
        <ele>801</ele>
        <time>2019-11-29T12:26:39.000Z</time>
      </trkpt>
      <trkpt lat="43.32545" lon="5.68748">
        <ele>801</ele>
        <time>2019-11-29T12:26:40.000Z</time>
      </trkpt>
      <trkpt lat="43.32545" lon="5.68748">
        <ele>801</ele>
        <time>2019-11-29T12:26:41.000Z</time>
      </trkpt>
      <trkpt lat="43.32545" lon="5.68748">
        <ele>801</ele>
        <time>2019-11-29T12:26:42.000Z</time>
      </trkpt>
      <trkpt lat="43.32545" lon="5.68748">
        <ele>801</ele>
        <time>2019-11-29T12:26:43.000Z</time>
      </trkpt>
      <trkpt lat="43.32545" lon="5.68748">
        <ele>801</ele>
        <time>2019-11-29T12:26:44.000Z</time>
      </trkpt>
      <trkpt lat="43.32545" lon="5.68748">
        <ele>801</ele>
        <time>2019-11-29T12:26:45.000Z</time>
      </trkpt>
      <trkpt lat="43.32545" lon="5.68748">
        <ele>801</ele>
        <time>2019-11-29T12:26:46.000Z</time>
      </trkpt>
      <trkpt lat="43.32545" lon="5.68748">
        <ele>801</ele>
        <time>2019-11-29T12:26:47.000Z</time>
      </trkpt>
      <trkpt lat="43.32545" lon="5.68748">
        <ele>802</ele>
        <time>2019-11-29T12:26:48.000Z</time>
      </trkpt>
      <trkpt lat="43.32545" lon="5.68748">
        <ele>802</ele>
        <time>2019-11-29T12:26:49.000Z</time>
      </trkpt>
      <trkpt lat="43.32545" lon="5.68748">
        <ele>802</ele>
        <time>2019-11-29T12:26:50.000Z</time>
      </trkpt>
      <trkpt lat="43.32546" lon="5.68748">
        <ele>802</ele>
        <time>2019-11-29T12:26:51.000Z</time>
      </trkpt>
      <trkpt lat="43.32545" lon="5.68748">
        <ele>802</ele>
        <time>2019-11-29T12:26:52.000Z</time>
      </trkpt>
      <trkpt lat="43.32545" lon="5.68748">
        <ele>802</ele>
        <time>2019-11-29T12:26:53.000Z</time>
      </trkpt>
      <trkpt lat="43.32545" lon="5.68748">
        <ele>802</ele>
        <time>2019-11-29T12:26:54.000Z</time>
      </trkpt>
      <trkpt lat="43.32545" lon="5.68748">
        <ele>802</ele>
        <time>2019-11-29T12:26:55.000Z</time>
      </trkpt>
      <trkpt lat="43.32546" lon="5.68748">
        <ele>802</ele>
        <time>2019-11-29T12:26:56.000Z</time>
      </trkpt>
      <trkpt lat="43.32546" lon="5.68748">
        <ele>802</ele>
        <time>2019-11-29T12:26:57.000Z</time>
      </trkpt>
      <trkpt lat="43.32546" lon="5.68748">
        <ele>802</ele>
        <time>2019-11-29T12:26:58.000Z</time>
      </trkpt>
      <trkpt lat="43.32546" lon="5.68748">
        <ele>802</ele>
        <time>2019-11-29T12:26:59.000Z</time>
      </trkpt>
      <trkpt lat="43.32546" lon="5.68747">
        <ele>803</ele>
        <time>2019-11-29T12:27:00.000Z</time>
      </trkpt>
      <trkpt lat="43.32547" lon="5.68747">
        <ele>803</ele>
        <time>2019-11-29T12:27:01.000Z</time>
      </trkpt>
      <trkpt lat="43.32547" lon="5.68747">
        <ele>803</ele>
        <time>2019-11-29T12:27:02.000Z</time>
      </trkpt>
      <trkpt lat="43.32547" lon="5.68747">
        <ele>803</ele>
        <time>2019-11-29T12:27:03.000Z</time>
      </trkpt>
      <trkpt lat="43.32547" lon="5.68747">
        <ele>803</ele>
        <time>2019-11-29T12:27:04.000Z</time>
      </trkpt>
      <trkpt lat="43.32547" lon="5.68747">
        <ele>803</ele>
        <time>2019-11-29T12:27:05.000Z</time>
      </trkpt>
      <trkpt lat="43.32547" lon="5.68747">
        <ele>803</ele>
        <time>2019-11-29T12:27:06.000Z</time>
      </trkpt>
      <trkpt lat="43.32547" lon="5.68747">
        <ele>803</ele>
        <time>2019-11-29T12:27:07.000Z</time>
      </trkpt>
      <trkpt lat="43.32547" lon="5.68747">
        <ele>803</ele>
        <time>2019-11-29T12:27:08.000Z</time>
      </trkpt>
      <trkpt lat="43.32547" lon="5.68747">
        <ele>803</ele>
        <time>2019-11-29T12:27:09.000Z</time>
      </trkpt>
      <trkpt lat="43.32547" lon="5.68746">
        <ele>803</ele>
        <time>2019-11-29T12:27:10.000Z</time>
      </trkpt>
      <trkpt lat="43.32547" lon="5.68746">
        <ele>803</ele>
        <time>2019-11-29T12:27:11.000Z</time>
      </trkpt>
      <trkpt lat="43.32547" lon="5.68746">
        <ele>803</ele>
        <time>2019-11-29T12:27:12.000Z</time>
      </trkpt>
      <trkpt lat="43.32547" lon="5.68746">
        <ele>803</ele>
        <time>2019-11-29T12:27:13.000Z</time>
      </trkpt>
      <trkpt lat="43.32547" lon="5.68746">
        <ele>803</ele>
        <time>2019-11-29T12:27:14.000Z</time>
      </trkpt>
      <trkpt lat="43.32547" lon="5.68746">
        <ele>803</ele>
        <time>2019-11-29T12:27:15.000Z</time>
      </trkpt>
      <trkpt lat="43.32547" lon="5.68746">
        <ele>803</ele>
        <time>2019-11-29T12:27:16.000Z</time>
      </trkpt>
      <trkpt lat="43.32547" lon="5.68746">
        <ele>803</ele>
        <time>2019-11-29T12:27:17.000Z</time>
      </trkpt>
      <trkpt lat="43.32547" lon="5.68747">
        <ele>803</ele>
        <time>2019-11-29T12:27:18.000Z</time>
      </trkpt>
      <trkpt lat="43.32547" lon="5.68747">
        <ele>803</ele>
        <time>2019-11-29T12:27:19.000Z</time>
      </trkpt>
      <trkpt lat="43.32547" lon="5.68747">
        <ele>803</ele>
        <time>2019-11-29T12:27:20.000Z</time>
      </trkpt>
      <trkpt lat="43.32547" lon="5.68747">
        <ele>803</ele>
        <time>2019-11-29T12:27:21.000Z</time>
      </trkpt>
      <trkpt lat="43.32547" lon="5.68747">
        <ele>803</ele>
        <time>2019-11-29T12:27:22.000Z</time>
      </trkpt>
      <trkpt lat="43.32547" lon="5.68747">
        <ele>803</ele>
        <time>2019-11-29T12:27:23.000Z</time>
      </trkpt>
      <trkpt lat="43.32547" lon="5.68747">
        <ele>804</ele>
        <time>2019-11-29T12:27:24.000Z</time>
      </trkpt>
      <trkpt lat="43.32547" lon="5.68747">
        <ele>804</ele>
        <time>2019-11-29T12:27:25.000Z</time>
      </trkpt>
      <trkpt lat="43.32547" lon="5.68747">
        <ele>804</ele>
        <time>2019-11-29T12:27:26.000Z</time>
      </trkpt>
      <trkpt lat="43.32547" lon="5.68747">
        <ele>804</ele>
        <time>2019-11-29T12:27:27.000Z</time>
      </trkpt>
      <trkpt lat="43.32547" lon="5.68747">
        <ele>804</ele>
        <time>2019-11-29T12:27:28.000Z</time>
      </trkpt>
      <trkpt lat="43.32547" lon="5.68747">
        <ele>804</ele>
        <time>2019-11-29T12:27:29.000Z</time>
      </trkpt>
      <trkpt lat="43.32547" lon="5.68747">
        <ele>804</ele>
        <time>2019-11-29T12:27:30.000Z</time>
      </trkpt>
      <trkpt lat="43.32547" lon="5.68747">
        <ele>804</ele>
        <time>2019-11-29T12:27:31.000Z</time>
      </trkpt>
      <trkpt lat="43.32548" lon="5.68747">
        <ele>804</ele>
        <time>2019-11-29T12:27:32.000Z</time>
      </trkpt>
      <trkpt lat="43.32548" lon="5.68747">
        <ele>804</ele>
        <time>2019-11-29T12:27:33.000Z</time>
      </trkpt>
      <trkpt lat="43.32548" lon="5.68747">
        <ele>804</ele>
        <time>2019-11-29T12:27:34.000Z</time>
      </trkpt>
      <trkpt lat="43.32548" lon="5.68747">
        <ele>804</ele>
        <time>2019-11-29T12:27:35.000Z</time>
      </trkpt>
      <trkpt lat="43.32547" lon="5.68747">
        <ele>804</ele>
        <time>2019-11-29T12:27:36.000Z</time>
      </trkpt>
      <trkpt lat="43.32547" lon="5.68747">
        <ele>804</ele>
        <time>2019-11-29T12:27:37.000Z</time>
      </trkpt>
      <trkpt lat="43.32547" lon="5.68747">
        <ele>804</ele>
        <time>2019-11-29T12:27:38.000Z</time>
      </trkpt>
      <trkpt lat="43.32547" lon="5.68747">
        <ele>804</ele>
        <time>2019-11-29T12:27:39.000Z</time>
      </trkpt>
      <trkpt lat="43.32547" lon="5.68747">
        <ele>804</ele>
        <time>2019-11-29T12:27:40.000Z</time>
      </trkpt>
      <trkpt lat="43.32548" lon="5.68747">
        <ele>804</ele>
        <time>2019-11-29T12:27:41.000Z</time>
      </trkpt>
      <trkpt lat="43.32548" lon="5.68747">
        <ele>804</ele>
        <time>2019-11-29T12:27:42.000Z</time>
      </trkpt>
      <trkpt lat="43.32548" lon="5.68747">
        <ele>804</ele>
        <time>2019-11-29T12:27:43.000Z</time>
      </trkpt>
      <trkpt lat="43.32548" lon="5.68747">
        <ele>804</ele>
        <time>2019-11-29T12:27:44.000Z</time>
      </trkpt>
      <trkpt lat="43.32548" lon="5.68747">
        <ele>804</ele>
        <time>2019-11-29T12:27:45.000Z</time>
      </trkpt>
      <trkpt lat="43.32547" lon="5.68747">
        <ele>804</ele>
        <time>2019-11-29T12:27:46.000Z</time>
      </trkpt>
      <trkpt lat="43.32547" lon="5.68747">
        <ele>804</ele>
        <time>2019-11-29T12:27:47.000Z</time>
      </trkpt>
      <trkpt lat="43.32547" lon="5.68747">
        <ele>804</ele>
        <time>2019-11-29T12:27:48.000Z</time>
      </trkpt>
      <trkpt lat="43.32547" lon="5.68747">
        <ele>804</ele>
        <time>2019-11-29T12:27:49.000Z</time>
      </trkpt>
      <trkpt lat="43.32548" lon="5.68747">
        <ele>804</ele>
        <time>2019-11-29T12:27:50.000Z</time>
      </trkpt>
      <trkpt lat="43.32548" lon="5.68747">
        <ele>804</ele>
        <time>2019-11-29T12:27:51.000Z</time>
      </trkpt>
      <trkpt lat="43.32548" lon="5.68746">
        <ele>804</ele>
        <time>2019-11-29T12:27:52.000Z</time>
      </trkpt>
      <trkpt lat="43.32548" lon="5.68746">
        <ele>804</ele>
        <time>2019-11-29T12:27:53.000Z</time>
      </trkpt>
      <trkpt lat="43.32548" lon="5.68746">
        <ele>804</ele>
        <time>2019-11-29T12:27:54.000Z</time>
      </trkpt>
      <trkpt lat="43.32548" lon="5.68746">
        <ele>804</ele>
        <time>2019-11-29T12:27:55.000Z</time>
      </trkpt>
      <trkpt lat="43.32548" lon="5.68746">
        <ele>804</ele>
        <time>2019-11-29T12:27:56.000Z</time>
      </trkpt>
      <trkpt lat="43.32548" lon="5.68746">
        <ele>804</ele>
        <time>2019-11-29T12:27:57.000Z</time>
      </trkpt>
      <trkpt lat="43.32548" lon="5.68746">
        <ele>804</ele>
        <time>2019-11-29T12:27:58.000Z</time>
      </trkpt>
      <trkpt lat="43.32548" lon="5.68746">
        <ele>805</ele>
        <time>2019-11-29T12:27:59.000Z</time>
      </trkpt>
      <trkpt lat="43.32548" lon="5.68746">
        <ele>804</ele>
        <time>2019-11-29T12:28:00.000Z</time>
      </trkpt>
      <trkpt lat="43.32548" lon="5.68746">
        <ele>805</ele>
        <time>2019-11-29T12:28:01.000Z</time>
      </trkpt>
      <trkpt lat="43.32548" lon="5.68746">
        <ele>805</ele>
        <time>2019-11-29T12:28:02.000Z</time>
      </trkpt>
      <trkpt lat="43.32548" lon="5.68746">
        <ele>805</ele>
        <time>2019-11-29T12:28:03.000Z</time>
      </trkpt>
      <trkpt lat="43.32548" lon="5.68746">
        <ele>805</ele>
        <time>2019-11-29T12:28:04.000Z</time>
      </trkpt>
      <trkpt lat="43.32548" lon="5.68746">
        <ele>805</ele>
        <time>2019-11-29T12:28:05.000Z</time>
      </trkpt>
      <trkpt lat="43.32548" lon="5.68746">
        <ele>805</ele>
        <time>2019-11-29T12:28:06.000Z</time>
      </trkpt>
      <trkpt lat="43.32547" lon="5.68746">
        <ele>805</ele>
        <time>2019-11-29T12:28:07.000Z</time>
      </trkpt>
      <trkpt lat="43.32547" lon="5.68746">
        <ele>805</ele>
        <time>2019-11-29T12:28:08.000Z</time>
      </trkpt>
      <trkpt lat="43.32547" lon="5.68746">
        <ele>805</ele>
        <time>2019-11-29T12:28:09.000Z</time>
      </trkpt>
      <trkpt lat="43.32547" lon="5.68746">
        <ele>804</ele>
        <time>2019-11-29T12:28:10.000Z</time>
      </trkpt>
      <trkpt lat="43.32547" lon="5.68746">
        <ele>804</ele>
        <time>2019-11-29T12:28:11.000Z</time>
      </trkpt>
      <trkpt lat="43.32547" lon="5.68745">
        <ele>804</ele>
        <time>2019-11-29T12:28:12.000Z</time>
      </trkpt>
      <trkpt lat="43.32547" lon="5.68745">
        <ele>805</ele>
        <time>2019-11-29T12:28:13.000Z</time>
      </trkpt>
      <trkpt lat="43.32547" lon="5.68745">
        <ele>805</ele>
        <time>2019-11-29T12:28:14.000Z</time>
      </trkpt>
      <trkpt lat="43.32547" lon="5.68745">
        <ele>805</ele>
        <time>2019-11-29T12:28:15.000Z</time>
      </trkpt>
      <trkpt lat="43.32547" lon="5.68745">
        <ele>805</ele>
        <time>2019-11-29T12:28:16.000Z</time>
      </trkpt>
      <trkpt lat="43.32547" lon="5.68745">
        <ele>805</ele>
        <time>2019-11-29T12:28:17.000Z</time>
      </trkpt>
      <trkpt lat="43.32547" lon="5.68745">
        <ele>805</ele>
        <time>2019-11-29T12:28:18.000Z</time>
      </trkpt>
      <trkpt lat="43.32547" lon="5.68745">
        <ele>805</ele>
        <time>2019-11-29T12:28:19.000Z</time>
      </trkpt>
      <trkpt lat="43.32547" lon="5.68745">
        <ele>805</ele>
        <time>2019-11-29T12:28:20.000Z</time>
      </trkpt>
      <trkpt lat="43.32547" lon="5.68746">
        <ele>805</ele>
        <time>2019-11-29T12:28:21.000Z</time>
      </trkpt>
      <trkpt lat="43.32547" lon="5.68746">
        <ele>805</ele>
        <time>2019-11-29T12:28:22.000Z</time>
      </trkpt>
      <trkpt lat="43.32547" lon="5.68745">
        <ele>805</ele>
        <time>2019-11-29T12:28:23.000Z</time>
      </trkpt>
      <trkpt lat="43.32547" lon="5.68745">
        <ele>805</ele>
        <time>2019-11-29T12:28:24.000Z</time>
      </trkpt>
      <trkpt lat="43.32547" lon="5.68745">
        <ele>805</ele>
        <time>2019-11-29T12:28:25.000Z</time>
      </trkpt>
      <trkpt lat="43.32547" lon="5.68745">
        <ele>805</ele>
        <time>2019-11-29T12:28:26.000Z</time>
      </trkpt>
      <trkpt lat="43.32547" lon="5.68745">
        <ele>805</ele>
        <time>2019-11-29T12:28:27.000Z</time>
      </trkpt>
      <trkpt lat="43.32547" lon="5.68745">
        <ele>805</ele>
        <time>2019-11-29T12:28:28.000Z</time>
      </trkpt>
      <trkpt lat="43.32547" lon="5.68745">
        <ele>805</ele>
        <time>2019-11-29T12:28:29.000Z</time>
      </trkpt>
      <trkpt lat="43.32547" lon="5.68745">
        <ele>805</ele>
        <time>2019-11-29T12:28:30.000Z</time>
      </trkpt>
      <trkpt lat="43.32547" lon="5.68745">
        <ele>805</ele>
        <time>2019-11-29T12:28:31.000Z</time>
      </trkpt>
      <trkpt lat="43.32547" lon="5.68745">
        <ele>805</ele>
        <time>2019-11-29T12:28:32.000Z</time>
      </trkpt>
      <trkpt lat="43.32547" lon="5.68745">
        <ele>804</ele>
        <time>2019-11-29T12:28:33.000Z</time>
      </trkpt>
      <trkpt lat="43.32547" lon="5.68745">
        <ele>804</ele>
        <time>2019-11-29T12:28:34.000Z</time>
      </trkpt>
      <trkpt lat="43.32547" lon="5.68745">
        <ele>804</ele>
        <time>2019-11-29T12:28:35.000Z</time>
      </trkpt>
      <trkpt lat="43.32547" lon="5.68745">
        <ele>804</ele>
        <time>2019-11-29T12:28:36.000Z</time>
      </trkpt>
      <trkpt lat="43.32547" lon="5.68746">
        <ele>804</ele>
        <time>2019-11-29T12:28:37.000Z</time>
      </trkpt>
      <trkpt lat="43.32547" lon="5.68745">
        <ele>804</ele>
        <time>2019-11-29T12:28:38.000Z</time>
      </trkpt>
      <trkpt lat="43.32547" lon="5.68745">
        <ele>804</ele>
        <time>2019-11-29T12:28:39.000Z</time>
      </trkpt>
      <trkpt lat="43.32547" lon="5.68745">
        <ele>804</ele>
        <time>2019-11-29T12:28:40.000Z</time>
      </trkpt>
      <trkpt lat="43.32547" lon="5.68746">
        <ele>804</ele>
        <time>2019-11-29T12:28:41.000Z</time>
      </trkpt>
      <trkpt lat="43.32547" lon="5.68746">
        <ele>804</ele>
        <time>2019-11-29T12:28:42.000Z</time>
      </trkpt>
      <trkpt lat="43.32547" lon="5.68746">
        <ele>804</ele>
        <time>2019-11-29T12:28:43.000Z</time>
      </trkpt>
      <trkpt lat="43.32547" lon="5.68745">
        <ele>804</ele>
        <time>2019-11-29T12:28:44.000Z</time>
      </trkpt>
      <trkpt lat="43.32547" lon="5.68745">
        <ele>804</ele>
        <time>2019-11-29T12:28:45.000Z</time>
      </trkpt>
      <trkpt lat="43.32547" lon="5.68745">
        <ele>804</ele>
        <time>2019-11-29T12:28:46.000Z</time>
      </trkpt>
      <trkpt lat="43.32547" lon="5.68745">
        <ele>804</ele>
        <time>2019-11-29T12:28:47.000Z</time>
      </trkpt>
      <trkpt lat="43.32547" lon="5.68745">
        <ele>804</ele>
        <time>2019-11-29T12:28:48.000Z</time>
      </trkpt>
      <trkpt lat="43.32547" lon="5.68746">
        <ele>804</ele>
        <time>2019-11-29T12:28:49.000Z</time>
      </trkpt>
      <trkpt lat="43.32548" lon="5.68745">
        <ele>804</ele>
        <time>2019-11-29T12:28:50.000Z</time>
      </trkpt>
      <trkpt lat="43.32548" lon="5.68746">
        <ele>804</ele>
        <time>2019-11-29T12:28:51.000Z</time>
      </trkpt>
      <trkpt lat="43.32548" lon="5.68746">
        <ele>804</ele>
        <time>2019-11-29T12:28:52.000Z</time>
      </trkpt>
      <trkpt lat="43.32548" lon="5.68746">
        <ele>804</ele>
        <time>2019-11-29T12:28:53.000Z</time>
      </trkpt>
      <trkpt lat="43.32548" lon="5.68746">
        <ele>804</ele>
        <time>2019-11-29T12:28:54.000Z</time>
      </trkpt>
      <trkpt lat="43.32547" lon="5.68746">
        <ele>804</ele>
        <time>2019-11-29T12:28:55.000Z</time>
      </trkpt>
      <trkpt lat="43.32547" lon="5.68746">
        <ele>804</ele>
        <time>2019-11-29T12:28:56.000Z</time>
      </trkpt>
      <trkpt lat="43.32547" lon="5.68746">
        <ele>804</ele>
        <time>2019-11-29T12:28:57.000Z</time>
      </trkpt>
      <trkpt lat="43.32547" lon="5.68746">
        <ele>804</ele>
        <time>2019-11-29T12:28:58.000Z</time>
      </trkpt>
      <trkpt lat="43.32547" lon="5.68746">
        <ele>804</ele>
        <time>2019-11-29T12:28:59.000Z</time>
      </trkpt>
      <trkpt lat="43.32547" lon="5.68746">
        <ele>804</ele>
        <time>2019-11-29T12:29:00.000Z</time>
      </trkpt>
      <trkpt lat="43.32547" lon="5.68746">
        <ele>804</ele>
        <time>2019-11-29T12:29:01.000Z</time>
      </trkpt>
      <trkpt lat="43.32547" lon="5.68746">
        <ele>804</ele>
        <time>2019-11-29T12:29:02.000Z</time>
      </trkpt>
      <trkpt lat="43.32547" lon="5.68746">
        <ele>804</ele>
        <time>2019-11-29T12:29:03.000Z</time>
      </trkpt>
      <trkpt lat="43.32547" lon="5.68746">
        <ele>804</ele>
        <time>2019-11-29T12:29:04.000Z</time>
      </trkpt>
      <trkpt lat="43.32547" lon="5.68746">
        <ele>804</ele>
        <time>2019-11-29T12:29:05.000Z</time>
      </trkpt>
      <trkpt lat="43.32547" lon="5.68746">
        <ele>804</ele>
        <time>2019-11-29T12:29:06.000Z</time>
      </trkpt>
      <trkpt lat="43.32547" lon="5.68746">
        <ele>804</ele>
        <time>2019-11-29T12:29:07.000Z</time>
      </trkpt>
      <trkpt lat="43.32547" lon="5.68746">
        <ele>804</ele>
        <time>2019-11-29T12:29:08.000Z</time>
      </trkpt>
      <trkpt lat="43.32547" lon="5.68746">
        <ele>804</ele>
        <time>2019-11-29T12:29:09.000Z</time>
      </trkpt>
      <trkpt lat="43.32547" lon="5.68746">
        <ele>804</ele>
        <time>2019-11-29T12:29:10.000Z</time>
      </trkpt>
      <trkpt lat="43.32547" lon="5.68746">
        <ele>804</ele>
        <time>2019-11-29T12:29:11.000Z</time>
      </trkpt>
      <trkpt lat="43.32547" lon="5.68746">
        <ele>804</ele>
        <time>2019-11-29T12:29:12.000Z</time>
      </trkpt>
      <trkpt lat="43.32547" lon="5.68746">
        <ele>804</ele>
        <time>2019-11-29T12:29:13.000Z</time>
      </trkpt>
      <trkpt lat="43.32547" lon="5.68746">
        <ele>804</ele>
        <time>2019-11-29T12:29:14.000Z</time>
      </trkpt>
      <trkpt lat="43.32547" lon="5.68746">
        <ele>804</ele>
        <time>2019-11-29T12:29:15.000Z</time>
      </trkpt>
      <trkpt lat="43.32547" lon="5.68746">
        <ele>804</ele>
        <time>2019-11-29T12:29:16.000Z</time>
      </trkpt>
      <trkpt lat="43.32547" lon="5.68746">
        <ele>804</ele>
        <time>2019-11-29T12:29:17.000Z</time>
      </trkpt>
      <trkpt lat="43.32547" lon="5.68746">
        <ele>804</ele>
        <time>2019-11-29T12:29:18.000Z</time>
      </trkpt>
      <trkpt lat="43.32547" lon="5.68746">
        <ele>804</ele>
        <time>2019-11-29T12:29:19.000Z</time>
      </trkpt>
      <trkpt lat="43.32547" lon="5.68746">
        <ele>804</ele>
        <time>2019-11-29T12:29:20.000Z</time>
      </trkpt>
      <trkpt lat="43.32547" lon="5.68746">
        <ele>804</ele>
        <time>2019-11-29T12:29:21.000Z</time>
      </trkpt>
      <trkpt lat="43.32547" lon="5.68746">
        <ele>804</ele>
        <time>2019-11-29T12:29:22.000Z</time>
      </trkpt>
      <trkpt lat="43.32547" lon="5.68746">
        <ele>804</ele>
        <time>2019-11-29T12:29:23.000Z</time>
      </trkpt>
      <trkpt lat="43.32547" lon="5.68746">
        <ele>804</ele>
        <time>2019-11-29T12:29:24.000Z</time>
      </trkpt>
      <trkpt lat="43.32547" lon="5.68746">
        <ele>804</ele>
        <time>2019-11-29T12:29:25.000Z</time>
      </trkpt>
      <trkpt lat="43.32548" lon="5.68746">
        <ele>804</ele>
        <time>2019-11-29T12:29:26.000Z</time>
      </trkpt>
      <trkpt lat="43.32548" lon="5.68747">
        <ele>804</ele>
        <time>2019-11-29T12:29:27.000Z</time>
      </trkpt>
      <trkpt lat="43.32548" lon="5.68747">
        <ele>804</ele>
        <time>2019-11-29T12:29:28.000Z</time>
      </trkpt>
      <trkpt lat="43.32548" lon="5.68747">
        <ele>804</ele>
        <time>2019-11-29T12:29:29.000Z</time>
      </trkpt>
      <trkpt lat="43.32548" lon="5.68746">
        <ele>803</ele>
        <time>2019-11-29T12:29:30.000Z</time>
      </trkpt>
      <trkpt lat="43.32548" lon="5.68746">
        <ele>803</ele>
        <time>2019-11-29T12:29:31.000Z</time>
      </trkpt>
      <trkpt lat="43.32548" lon="5.68746">
        <ele>803</ele>
        <time>2019-11-29T12:29:32.000Z</time>
      </trkpt>
      <trkpt lat="43.32548" lon="5.68746">
        <ele>803</ele>
        <time>2019-11-29T12:29:33.000Z</time>
      </trkpt>
      <trkpt lat="43.32548" lon="5.68746">
        <ele>803</ele>
        <time>2019-11-29T12:29:34.000Z</time>
      </trkpt>
      <trkpt lat="43.32548" lon="5.68747">
        <ele>803</ele>
        <time>2019-11-29T12:29:35.000Z</time>
      </trkpt>
      <trkpt lat="43.32548" lon="5.68747">
        <ele>803</ele>
        <time>2019-11-29T12:29:36.000Z</time>
      </trkpt>
      <trkpt lat="43.32548" lon="5.68747">
        <ele>803</ele>
        <time>2019-11-29T12:29:37.000Z</time>
      </trkpt>
      <trkpt lat="43.32548" lon="5.68747">
        <ele>803</ele>
        <time>2019-11-29T12:29:38.000Z</time>
      </trkpt>
      <trkpt lat="43.32548" lon="5.68746">
        <ele>803</ele>
        <time>2019-11-29T12:29:39.000Z</time>
      </trkpt>
      <trkpt lat="43.32548" lon="5.68746">
        <ele>803</ele>
        <time>2019-11-29T12:29:40.000Z</time>
      </trkpt>
      <trkpt lat="43.32548" lon="5.68746">
        <ele>803</ele>
        <time>2019-11-29T12:29:41.000Z</time>
      </trkpt>
      <trkpt lat="43.32548" lon="5.68746">
        <ele>803</ele>
        <time>2019-11-29T12:29:42.000Z</time>
      </trkpt>
      <trkpt lat="43.32548" lon="5.68746">
        <ele>803</ele>
        <time>2019-11-29T12:29:43.000Z</time>
      </trkpt>
      <trkpt lat="43.32548" lon="5.68746">
        <ele>803</ele>
        <time>2019-11-29T12:29:44.000Z</time>
      </trkpt>
      <trkpt lat="43.32548" lon="5.68746">
        <ele>803</ele>
        <time>2019-11-29T12:29:45.000Z</time>
      </trkpt>
      <trkpt lat="43.32548" lon="5.68746">
        <ele>803</ele>
        <time>2019-11-29T12:29:46.000Z</time>
      </trkpt>
      <trkpt lat="43.32548" lon="5.68746">
        <ele>803</ele>
        <time>2019-11-29T12:29:47.000Z</time>
      </trkpt>
      <trkpt lat="43.32548" lon="5.68746">
        <ele>803</ele>
        <time>2019-11-29T12:29:48.000Z</time>
      </trkpt>
      <trkpt lat="43.32548" lon="5.68747">
        <ele>803</ele>
        <time>2019-11-29T12:29:49.000Z</time>
      </trkpt>
      <trkpt lat="43.32548" lon="5.68747">
        <ele>803</ele>
        <time>2019-11-29T12:29:50.000Z</time>
      </trkpt>
      <trkpt lat="43.32548" lon="5.68747">
        <ele>803</ele>
        <time>2019-11-29T12:29:51.000Z</time>
      </trkpt>
      <trkpt lat="43.32548" lon="5.68747">
        <ele>803</ele>
        <time>2019-11-29T12:29:52.000Z</time>
      </trkpt>
      <trkpt lat="43.32548" lon="5.68747">
        <ele>803</ele>
        <time>2019-11-29T12:29:53.000Z</time>
      </trkpt>
      <trkpt lat="43.32548" lon="5.68747">
        <ele>803</ele>
        <time>2019-11-29T12:29:54.000Z</time>
      </trkpt>
      <trkpt lat="43.32548" lon="5.68747">
        <ele>803</ele>
        <time>2019-11-29T12:29:55.000Z</time>
      </trkpt>
      <trkpt lat="43.32548" lon="5.68747">
        <ele>803</ele>
        <time>2019-11-29T12:29:56.000Z</time>
      </trkpt>
      <trkpt lat="43.32548" lon="5.68747">
        <ele>803</ele>
        <time>2019-11-29T12:29:57.000Z</time>
      </trkpt>
      <trkpt lat="43.32548" lon="5.68747">
        <ele>803</ele>
        <time>2019-11-29T12:29:58.000Z</time>
      </trkpt>
      <trkpt lat="43.32548" lon="5.68747">
        <ele>803</ele>
        <time>2019-11-29T12:29:59.000Z</time>
      </trkpt>
      <trkpt lat="43.32548" lon="5.68747">
        <ele>803</ele>
        <time>2019-11-29T12:30:00.000Z</time>
      </trkpt>
      <trkpt lat="43.32548" lon="5.68747">
        <ele>803</ele>
        <time>2019-11-29T12:30:01.000Z</time>
      </trkpt>
      <trkpt lat="43.32548" lon="5.68747">
        <ele>803</ele>
        <time>2019-11-29T12:30:02.000Z</time>
      </trkpt>
      <trkpt lat="43.32548" lon="5.68747">
        <ele>803</ele>
        <time>2019-11-29T12:30:03.000Z</time>
      </trkpt>
      <trkpt lat="43.32548" lon="5.68747">
        <ele>803</ele>
        <time>2019-11-29T12:30:04.000Z</time>
      </trkpt>
      <trkpt lat="43.32548" lon="5.68747">
        <ele>803</ele>
        <time>2019-11-29T12:30:05.000Z</time>
      </trkpt>
      <trkpt lat="43.32548" lon="5.68747">
        <ele>803</ele>
        <time>2019-11-29T12:30:06.000Z</time>
      </trkpt>
      <trkpt lat="43.32548" lon="5.68747">
        <ele>803</ele>
        <time>2019-11-29T12:30:07.000Z</time>
      </trkpt>
      <trkpt lat="43.32548" lon="5.68747">
        <ele>803</ele>
        <time>2019-11-29T12:30:08.000Z</time>
      </trkpt>
      <trkpt lat="43.32548" lon="5.68747">
        <ele>803</ele>
        <time>2019-11-29T12:30:09.000Z</time>
      </trkpt>
      <trkpt lat="43.32548" lon="5.68747">
        <ele>803</ele>
        <time>2019-11-29T12:30:10.000Z</time>
      </trkpt>
      <trkpt lat="43.32548" lon="5.68747">
        <ele>803</ele>
        <time>2019-11-29T12:30:11.000Z</time>
      </trkpt>
      <trkpt lat="43.32548" lon="5.68747">
        <ele>803</ele>
        <time>2019-11-29T12:30:12.000Z</time>
      </trkpt>
      <trkpt lat="43.32548" lon="5.68747">
        <ele>803</ele>
        <time>2019-11-29T12:30:13.000Z</time>
      </trkpt>
      <trkpt lat="43.32548" lon="5.68747">
        <ele>803</ele>
        <time>2019-11-29T12:30:14.000Z</time>
      </trkpt>
      <trkpt lat="43.32548" lon="5.68747">
        <ele>803</ele>
        <time>2019-11-29T12:30:15.000Z</time>
      </trkpt>
      <trkpt lat="43.32548" lon="5.68747">
        <ele>803</ele>
        <time>2019-11-29T12:30:16.000Z</time>
      </trkpt>
      <trkpt lat="43.32548" lon="5.68747">
        <ele>803</ele>
        <time>2019-11-29T12:30:17.000Z</time>
      </trkpt>
      <trkpt lat="43.32548" lon="5.68747">
        <ele>803</ele>
        <time>2019-11-29T12:30:18.000Z</time>
      </trkpt>
      <trkpt lat="43.32548" lon="5.68747">
        <ele>803</ele>
        <time>2019-11-29T12:30:19.000Z</time>
      </trkpt>
      <trkpt lat="43.32548" lon="5.68747">
        <ele>803</ele>
        <time>2019-11-29T12:30:20.000Z</time>
      </trkpt>
      <trkpt lat="43.32548" lon="5.68747">
        <ele>803</ele>
        <time>2019-11-29T12:30:21.000Z</time>
      </trkpt>
      <trkpt lat="43.32548" lon="5.68746">
        <ele>803</ele>
        <time>2019-11-29T12:30:22.000Z</time>
      </trkpt>
      <trkpt lat="43.32548" lon="5.68746">
        <ele>803</ele>
        <time>2019-11-29T12:30:23.000Z</time>
      </trkpt>
      <trkpt lat="43.32548" lon="5.68746">
        <ele>803</ele>
        <time>2019-11-29T12:30:24.000Z</time>
      </trkpt>
      <trkpt lat="43.32548" lon="5.68746">
        <ele>803</ele>
        <time>2019-11-29T12:30:25.000Z</time>
      </trkpt>
      <trkpt lat="43.32548" lon="5.68746">
        <ele>803</ele>
        <time>2019-11-29T12:30:26.000Z</time>
      </trkpt>
      <trkpt lat="43.32548" lon="5.68746">
        <ele>803</ele>
        <time>2019-11-29T12:30:27.000Z</time>
      </trkpt>
      <trkpt lat="43.32548" lon="5.68746">
        <ele>803</ele>
        <time>2019-11-29T12:30:28.000Z</time>
      </trkpt>
      <trkpt lat="43.32548" lon="5.68746">
        <ele>803</ele>
        <time>2019-11-29T12:30:29.000Z</time>
      </trkpt>
      <trkpt lat="43.32548" lon="5.68746">
        <ele>803</ele>
        <time>2019-11-29T12:30:30.000Z</time>
      </trkpt>
      <trkpt lat="43.32548" lon="5.68747">
        <ele>803</ele>
        <time>2019-11-29T12:30:31.000Z</time>
      </trkpt>
      <trkpt lat="43.32548" lon="5.68747">
        <ele>803</ele>
        <time>2019-11-29T12:30:32.000Z</time>
      </trkpt>
      <trkpt lat="43.32548" lon="5.68747">
        <ele>803</ele>
        <time>2019-11-29T12:30:33.000Z</time>
      </trkpt>
      <trkpt lat="43.32548" lon="5.68747">
        <ele>803</ele>
        <time>2019-11-29T12:30:34.000Z</time>
      </trkpt>
      <trkpt lat="43.32548" lon="5.68747">
        <ele>803</ele>
        <time>2019-11-29T12:30:35.000Z</time>
      </trkpt>
      <trkpt lat="43.32548" lon="5.68747">
        <ele>803</ele>
        <time>2019-11-29T12:30:36.000Z</time>
      </trkpt>
      <trkpt lat="43.32548" lon="5.68747">
        <ele>803</ele>
        <time>2019-11-29T12:30:37.000Z</time>
      </trkpt>
      <trkpt lat="43.32548" lon="5.68747">
        <ele>803</ele>
        <time>2019-11-29T12:30:38.000Z</time>
      </trkpt>
      <trkpt lat="43.32548" lon="5.68747">
        <ele>803</ele>
        <time>2019-11-29T12:30:39.000Z</time>
      </trkpt>
      <trkpt lat="43.32548" lon="5.68747">
        <ele>803</ele>
        <time>2019-11-29T12:30:40.000Z</time>
      </trkpt>
      <trkpt lat="43.32548" lon="5.68747">
        <ele>803</ele>
        <time>2019-11-29T12:30:41.000Z</time>
      </trkpt>
      <trkpt lat="43.32548" lon="5.68747">
        <ele>803</ele>
        <time>2019-11-29T12:30:42.000Z</time>
      </trkpt>
      <trkpt lat="43.32548" lon="5.68747">
        <ele>803</ele>
        <time>2019-11-29T12:30:43.000Z</time>
      </trkpt>
      <trkpt lat="43.32548" lon="5.68747">
        <ele>803</ele>
        <time>2019-11-29T12:30:44.000Z</time>
      </trkpt>
      <trkpt lat="43.32548" lon="5.68747">
        <ele>803</ele>
        <time>2019-11-29T12:30:45.000Z</time>
      </trkpt>
      <trkpt lat="43.32548" lon="5.68747">
        <ele>803</ele>
        <time>2019-11-29T12:30:46.000Z</time>
      </trkpt>
      <trkpt lat="43.32548" lon="5.68747">
        <ele>803</ele>
        <time>2019-11-29T12:30:47.000Z</time>
      </trkpt>
      <trkpt lat="43.32548" lon="5.68747">
        <ele>803</ele>
        <time>2019-11-29T12:30:48.000Z</time>
      </trkpt>
      <trkpt lat="43.32548" lon="5.68747">
        <ele>803</ele>
        <time>2019-11-29T12:30:49.000Z</time>
      </trkpt>
      <trkpt lat="43.32548" lon="5.68747">
        <ele>803</ele>
        <time>2019-11-29T12:30:50.000Z</time>
      </trkpt>
      <trkpt lat="43.32548" lon="5.68747">
        <ele>803</ele>
        <time>2019-11-29T12:30:51.000Z</time>
      </trkpt>
      <trkpt lat="43.32548" lon="5.68747">
        <ele>804</ele>
        <time>2019-11-29T12:30:52.000Z</time>
      </trkpt>
      <trkpt lat="43.32548" lon="5.68747">
        <ele>803</ele>
        <time>2019-11-29T12:30:53.000Z</time>
      </trkpt>
      <trkpt lat="43.32548" lon="5.68747">
        <ele>803</ele>
        <time>2019-11-29T12:30:54.000Z</time>
      </trkpt>
      <trkpt lat="43.32548" lon="5.68747">
        <ele>803</ele>
        <time>2019-11-29T12:30:55.000Z</time>
      </trkpt>
      <trkpt lat="43.32548" lon="5.68747">
        <ele>803</ele>
        <time>2019-11-29T12:30:56.000Z</time>
      </trkpt>
      <trkpt lat="43.32548" lon="5.68747">
        <ele>803</ele>
        <time>2019-11-29T12:30:57.000Z</time>
      </trkpt>
      <trkpt lat="43.32548" lon="5.68747">
        <ele>803</ele>
        <time>2019-11-29T12:30:58.000Z</time>
      </trkpt>
      <trkpt lat="43.32548" lon="5.68747">
        <ele>803</ele>
        <time>2019-11-29T12:30:59.000Z</time>
      </trkpt>
      <trkpt lat="43.32548" lon="5.68747">
        <ele>803</ele>
        <time>2019-11-29T12:31:00.000Z</time>
      </trkpt>
      <trkpt lat="43.32548" lon="5.68747">
        <ele>803</ele>
        <time>2019-11-29T12:31:01.000Z</time>
      </trkpt>
      <trkpt lat="43.32548" lon="5.68747">
        <ele>803</ele>
        <time>2019-11-29T12:31:02.000Z</time>
      </trkpt>
      <trkpt lat="43.32548" lon="5.68747">
        <ele>803</ele>
        <time>2019-11-29T12:31:03.000Z</time>
      </trkpt>
      <trkpt lat="43.32548" lon="5.68747">
        <ele>803</ele>
        <time>2019-11-29T12:31:04.000Z</time>
      </trkpt>
      <trkpt lat="43.32548" lon="5.68747">
        <ele>803</ele>
        <time>2019-11-29T12:31:05.000Z</time>
      </trkpt>
      <trkpt lat="43.32548" lon="5.68747">
        <ele>803</ele>
        <time>2019-11-29T12:31:06.000Z</time>
      </trkpt>
      <trkpt lat="43.32548" lon="5.68747">
        <ele>803</ele>
        <time>2019-11-29T12:31:07.000Z</time>
      </trkpt>
      <trkpt lat="43.32548" lon="5.68747">
        <ele>803</ele>
        <time>2019-11-29T12:31:08.000Z</time>
      </trkpt>
      <trkpt lat="43.32548" lon="5.68747">
        <ele>803</ele>
        <time>2019-11-29T12:31:09.000Z</time>
      </trkpt>
      <trkpt lat="43.32548" lon="5.68747">
        <ele>803</ele>
        <time>2019-11-29T12:31:10.000Z</time>
      </trkpt>
      <trkpt lat="43.32548" lon="5.68747">
        <ele>803</ele>
        <time>2019-11-29T12:31:11.000Z</time>
      </trkpt>
      <trkpt lat="43.32548" lon="5.68747">
        <ele>803</ele>
        <time>2019-11-29T12:31:12.000Z</time>
      </trkpt>
      <trkpt lat="43.32548" lon="5.68747">
        <ele>803</ele>
        <time>2019-11-29T12:31:13.000Z</time>
      </trkpt>
      <trkpt lat="43.32548" lon="5.68747">
        <ele>803</ele>
        <time>2019-11-29T12:31:14.000Z</time>
      </trkpt>
      <trkpt lat="43.32548" lon="5.68747">
        <ele>804</ele>
        <time>2019-11-29T12:31:15.000Z</time>
      </trkpt>
      <trkpt lat="43.32548" lon="5.68747">
        <ele>804</ele>
        <time>2019-11-29T12:31:16.000Z</time>
      </trkpt>
      <trkpt lat="43.32547" lon="5.68747">
        <ele>804</ele>
        <time>2019-11-29T12:31:17.000Z</time>
      </trkpt>
      <trkpt lat="43.32547" lon="5.68747">
        <ele>804</ele>
        <time>2019-11-29T12:31:18.000Z</time>
      </trkpt>
      <trkpt lat="43.32547" lon="5.68747">
        <ele>804</ele>
        <time>2019-11-29T12:31:19.000Z</time>
      </trkpt>
      <trkpt lat="43.32547" lon="5.68747">
        <ele>804</ele>
        <time>2019-11-29T12:31:20.000Z</time>
      </trkpt>
      <trkpt lat="43.32547" lon="5.68747">
        <ele>804</ele>
        <time>2019-11-29T12:31:21.000Z</time>
      </trkpt>
      <trkpt lat="43.32547" lon="5.68747">
        <ele>804</ele>
        <time>2019-11-29T12:31:22.000Z</time>
      </trkpt>
      <trkpt lat="43.32547" lon="5.68747">
        <ele>804</ele>
        <time>2019-11-29T12:31:23.000Z</time>
      </trkpt>
      <trkpt lat="43.32547" lon="5.68747">
        <ele>804</ele>
        <time>2019-11-29T12:31:24.000Z</time>
      </trkpt>
      <trkpt lat="43.32547" lon="5.68747">
        <ele>804</ele>
        <time>2019-11-29T12:31:25.000Z</time>
      </trkpt>
      <trkpt lat="43.32547" lon="5.68747">
        <ele>804</ele>
        <time>2019-11-29T12:31:26.000Z</time>
      </trkpt>
      <trkpt lat="43.32547" lon="5.68747">
        <ele>804</ele>
        <time>2019-11-29T12:31:27.000Z</time>
      </trkpt>
      <trkpt lat="43.32547" lon="5.68747">
        <ele>804</ele>
        <time>2019-11-29T12:31:28.000Z</time>
      </trkpt>
      <trkpt lat="43.32547" lon="5.68747">
        <ele>804</ele>
        <time>2019-11-29T12:31:29.000Z</time>
      </trkpt>
      <trkpt lat="43.32547" lon="5.68747">
        <ele>804</ele>
        <time>2019-11-29T12:31:30.000Z</time>
      </trkpt>
      <trkpt lat="43.32547" lon="5.68747">
        <ele>804</ele>
        <time>2019-11-29T12:31:31.000Z</time>
      </trkpt>
      <trkpt lat="43.32547" lon="5.68747">
        <ele>804</ele>
        <time>2019-11-29T12:31:32.000Z</time>
      </trkpt>
      <trkpt lat="43.32547" lon="5.68747">
        <ele>804</ele>
        <time>2019-11-29T12:31:33.000Z</time>
      </trkpt>
      <trkpt lat="43.32547" lon="5.68747">
        <ele>804</ele>
        <time>2019-11-29T12:31:34.000Z</time>
      </trkpt>
      <trkpt lat="43.32548" lon="5.68747">
        <ele>804</ele>
        <time>2019-11-29T12:31:35.000Z</time>
      </trkpt>
      <trkpt lat="43.32548" lon="5.68747">
        <ele>804</ele>
        <time>2019-11-29T12:31:36.000Z</time>
      </trkpt>
      <trkpt lat="43.32548" lon="5.68747">
        <ele>804</ele>
        <time>2019-11-29T12:31:37.000Z</time>
      </trkpt>
      <trkpt lat="43.32548" lon="5.68747">
        <ele>804</ele>
        <time>2019-11-29T12:31:38.000Z</time>
      </trkpt>
      <trkpt lat="43.32549" lon="5.68747">
        <ele>804</ele>
        <time>2019-11-29T12:31:39.000Z</time>
      </trkpt>
      <trkpt lat="43.32549" lon="5.68747">
        <ele>804</ele>
        <time>2019-11-29T12:31:40.000Z</time>
      </trkpt>
      <trkpt lat="43.32549" lon="5.68747">
        <ele>803</ele>
        <time>2019-11-29T12:31:41.000Z</time>
      </trkpt>
      <trkpt lat="43.32549" lon="5.68747">
        <ele>803</ele>
        <time>2019-11-29T12:31:42.000Z</time>
      </trkpt>
      <trkpt lat="43.32549" lon="5.68747">
        <ele>803</ele>
        <time>2019-11-29T12:31:43.000Z</time>
      </trkpt>
      <trkpt lat="43.32549" lon="5.68747">
        <ele>803</ele>
        <time>2019-11-29T12:31:44.000Z</time>
      </trkpt>
      <trkpt lat="43.3255" lon="5.68747">
        <ele>803</ele>
        <time>2019-11-29T12:31:45.000Z</time>
      </trkpt>
      <trkpt lat="43.32551" lon="5.68747">
        <ele>803</ele>
        <time>2019-11-29T12:31:46.000Z</time>
      </trkpt>
      <trkpt lat="43.32551" lon="5.68747">
        <ele>803</ele>
        <time>2019-11-29T12:31:47.000Z</time>
      </trkpt>
      <trkpt lat="43.32552" lon="5.68748">
        <ele>803</ele>
        <time>2019-11-29T12:31:48.000Z</time>
      </trkpt>
      <trkpt lat="43.32552" lon="5.68748">
        <ele>803</ele>
        <time>2019-11-29T12:31:49.000Z</time>
      </trkpt>
      <trkpt lat="43.32553" lon="5.68748">
        <ele>803</ele>
        <time>2019-11-29T12:31:50.000Z</time>
      </trkpt>
      <trkpt lat="43.32553" lon="5.68748">
        <ele>803</ele>
        <time>2019-11-29T12:31:51.000Z</time>
      </trkpt>
      <trkpt lat="43.32554" lon="5.68748">
        <ele>803</ele>
        <time>2019-11-29T12:31:52.000Z</time>
      </trkpt>
      <trkpt lat="43.32555" lon="5.68749">
        <ele>803</ele>
        <time>2019-11-29T12:31:53.000Z</time>
      </trkpt>
      <trkpt lat="43.32555" lon="5.68749">
        <ele>803</ele>
        <time>2019-11-29T12:31:54.000Z</time>
      </trkpt>
      <trkpt lat="43.32556" lon="5.6875">
        <ele>803</ele>
        <time>2019-11-29T12:31:55.000Z</time>
      </trkpt>
      <trkpt lat="43.32556" lon="5.6875">
        <ele>803</ele>
        <time>2019-11-29T12:31:56.000Z</time>
      </trkpt>
      <trkpt lat="43.32557" lon="5.6875">
        <ele>803</ele>
        <time>2019-11-29T12:31:57.000Z</time>
      </trkpt>
      <trkpt lat="43.32558" lon="5.68751">
        <ele>803</ele>
        <time>2019-11-29T12:31:58.000Z</time>
      </trkpt>
      <trkpt lat="43.32559" lon="5.68751">
        <ele>803</ele>
        <time>2019-11-29T12:31:59.000Z</time>
      </trkpt>
      <trkpt lat="43.32559" lon="5.68752">
        <ele>803</ele>
        <time>2019-11-29T12:32:00.000Z</time>
      </trkpt>
      <trkpt lat="43.3256" lon="5.68752">
        <ele>803</ele>
        <time>2019-11-29T12:32:01.000Z</time>
      </trkpt>
      <trkpt lat="43.3256" lon="5.68752">
        <ele>802</ele>
        <time>2019-11-29T12:32:02.000Z</time>
      </trkpt>
      <trkpt lat="43.32561" lon="5.68753">
        <ele>802</ele>
        <time>2019-11-29T12:32:03.000Z</time>
      </trkpt>
      <trkpt lat="43.32562" lon="5.68753">
        <ele>802</ele>
        <time>2019-11-29T12:32:04.000Z</time>
      </trkpt>
      <trkpt lat="43.32563" lon="5.68753">
        <ele>802</ele>
        <time>2019-11-29T12:32:05.000Z</time>
      </trkpt>
      <trkpt lat="43.32564" lon="5.68753">
        <ele>802</ele>
        <time>2019-11-29T12:32:06.000Z</time>
      </trkpt>
      <trkpt lat="43.32565" lon="5.68754">
        <ele>802</ele>
        <time>2019-11-29T12:32:07.000Z</time>
      </trkpt>
      <trkpt lat="43.32565" lon="5.68754">
        <ele>802</ele>
        <time>2019-11-29T12:32:08.000Z</time>
      </trkpt>
      <trkpt lat="43.32566" lon="5.68754">
        <ele>802</ele>
        <time>2019-11-29T12:32:09.000Z</time>
      </trkpt>
      <trkpt lat="43.32567" lon="5.68754">
        <ele>802</ele>
        <time>2019-11-29T12:32:10.000Z</time>
      </trkpt>
      <trkpt lat="43.32568" lon="5.68755">
        <ele>802</ele>
        <time>2019-11-29T12:32:11.000Z</time>
      </trkpt>
      <trkpt lat="43.32568" lon="5.68755">
        <ele>802</ele>
        <time>2019-11-29T12:32:12.000Z</time>
      </trkpt>
      <trkpt lat="43.32569" lon="5.68755">
        <ele>802</ele>
        <time>2019-11-29T12:32:13.000Z</time>
      </trkpt>
      <trkpt lat="43.3257" lon="5.68756">
        <ele>802</ele>
        <time>2019-11-29T12:32:14.000Z</time>
      </trkpt>
      <trkpt lat="43.3257" lon="5.68756">
        <ele>802</ele>
        <time>2019-11-29T12:32:15.000Z</time>
      </trkpt>
      <trkpt lat="43.32571" lon="5.68757">
        <ele>802</ele>
        <time>2019-11-29T12:32:16.000Z</time>
      </trkpt>
      <trkpt lat="43.32572" lon="5.68757">
        <ele>801</ele>
        <time>2019-11-29T12:32:17.000Z</time>
      </trkpt>
      <trkpt lat="43.32573" lon="5.68758">
        <ele>801</ele>
        <time>2019-11-29T12:32:18.000Z</time>
      </trkpt>
      <trkpt lat="43.32573" lon="5.68758">
        <ele>801</ele>
        <time>2019-11-29T12:32:19.000Z</time>
      </trkpt>
      <trkpt lat="43.32574" lon="5.68758">
        <ele>801</ele>
        <time>2019-11-29T12:32:20.000Z</time>
      </trkpt>
      <trkpt lat="43.32575" lon="5.68758">
        <ele>801</ele>
        <time>2019-11-29T12:32:21.000Z</time>
      </trkpt>
      <trkpt lat="43.32577" lon="5.68758">
        <ele>801</ele>
        <time>2019-11-29T12:32:22.000Z</time>
      </trkpt>
      <trkpt lat="43.32578" lon="5.68758">
        <ele>801</ele>
        <time>2019-11-29T12:32:23.000Z</time>
      </trkpt>
      <trkpt lat="43.32579" lon="5.68757">
        <ele>800</ele>
        <time>2019-11-29T12:32:24.000Z</time>
      </trkpt>
      <trkpt lat="43.3258" lon="5.68757">
        <ele>800</ele>
        <time>2019-11-29T12:32:25.000Z</time>
      </trkpt>
      <trkpt lat="43.32582" lon="5.68757">
        <ele>800</ele>
        <time>2019-11-29T12:32:26.000Z</time>
      </trkpt>
      <trkpt lat="43.32583" lon="5.68757">
        <ele>800</ele>
        <time>2019-11-29T12:32:27.000Z</time>
      </trkpt>
      <trkpt lat="43.32584" lon="5.68757">
        <ele>800</ele>
        <time>2019-11-29T12:32:28.000Z</time>
      </trkpt>
      <trkpt lat="43.32585" lon="5.68757">
        <ele>800</ele>
        <time>2019-11-29T12:32:29.000Z</time>
      </trkpt>
      <trkpt lat="43.32586" lon="5.68756">
        <ele>800</ele>
        <time>2019-11-29T12:32:30.000Z</time>
      </trkpt>
      <trkpt lat="43.32587" lon="5.68757">
        <ele>800</ele>
        <time>2019-11-29T12:32:31.000Z</time>
      </trkpt>
      <trkpt lat="43.32588" lon="5.68757">
        <ele>800</ele>
        <time>2019-11-29T12:32:32.000Z</time>
      </trkpt>
      <trkpt lat="43.32589" lon="5.68757">
        <ele>800</ele>
        <time>2019-11-29T12:32:33.000Z</time>
      </trkpt>
      <trkpt lat="43.3259" lon="5.68757">
        <ele>800</ele>
        <time>2019-11-29T12:32:34.000Z</time>
      </trkpt>
      <trkpt lat="43.32591" lon="5.68757">
        <ele>800</ele>
        <time>2019-11-29T12:32:35.000Z</time>
      </trkpt>
      <trkpt lat="43.32592" lon="5.68757">
        <ele>800</ele>
        <time>2019-11-29T12:32:36.000Z</time>
      </trkpt>
      <trkpt lat="43.32593" lon="5.68757">
        <ele>799</ele>
        <time>2019-11-29T12:32:37.000Z</time>
      </trkpt>
      <trkpt lat="43.32594" lon="5.68757">
        <ele>799</ele>
        <time>2019-11-29T12:32:38.000Z</time>
      </trkpt>
      <trkpt lat="43.32596" lon="5.68757">
        <ele>799</ele>
        <time>2019-11-29T12:32:39.000Z</time>
      </trkpt>
      <trkpt lat="43.32597" lon="5.68757">
        <ele>799</ele>
        <time>2019-11-29T12:32:40.000Z</time>
      </trkpt>
      <trkpt lat="43.32598" lon="5.68757">
        <ele>799</ele>
        <time>2019-11-29T12:32:41.000Z</time>
      </trkpt>
      <trkpt lat="43.326" lon="5.68757">
        <ele>799</ele>
        <time>2019-11-29T12:32:42.000Z</time>
      </trkpt>
      <trkpt lat="43.32601" lon="5.68757">
        <ele>799</ele>
        <time>2019-11-29T12:32:43.000Z</time>
      </trkpt>
      <trkpt lat="43.32602" lon="5.68757">
        <ele>799</ele>
        <time>2019-11-29T12:32:44.000Z</time>
      </trkpt>
      <trkpt lat="43.32603" lon="5.68757">
        <ele>799</ele>
        <time>2019-11-29T12:32:45.000Z</time>
      </trkpt>
      <trkpt lat="43.32605" lon="5.68757">
        <ele>799</ele>
        <time>2019-11-29T12:32:46.000Z</time>
      </trkpt>
      <trkpt lat="43.32606" lon="5.68757">
        <ele>799</ele>
        <time>2019-11-29T12:32:47.000Z</time>
      </trkpt>
      <trkpt lat="43.32607" lon="5.68757">
        <ele>798</ele>
        <time>2019-11-29T12:32:48.000Z</time>
      </trkpt>
      <trkpt lat="43.32608" lon="5.68757">
        <ele>798</ele>
        <time>2019-11-29T12:32:49.000Z</time>
      </trkpt>
      <trkpt lat="43.32609" lon="5.68758">
        <ele>798</ele>
        <time>2019-11-29T12:32:50.000Z</time>
      </trkpt>
      <trkpt lat="43.3261" lon="5.68758">
        <ele>798</ele>
        <time>2019-11-29T12:32:51.000Z</time>
      </trkpt>
      <trkpt lat="43.32611" lon="5.68758">
        <ele>798</ele>
        <time>2019-11-29T12:32:52.000Z</time>
      </trkpt>
      <trkpt lat="43.32613" lon="5.68759">
        <ele>798</ele>
        <time>2019-11-29T12:32:53.000Z</time>
      </trkpt>
      <trkpt lat="43.32614" lon="5.68759">
        <ele>798</ele>
        <time>2019-11-29T12:32:54.000Z</time>
      </trkpt>
      <trkpt lat="43.32615" lon="5.68759">
        <ele>798</ele>
        <time>2019-11-29T12:32:55.000Z</time>
      </trkpt>
      <trkpt lat="43.32616" lon="5.68759">
        <ele>798</ele>
        <time>2019-11-29T12:32:56.000Z</time>
      </trkpt>
      <trkpt lat="43.32618" lon="5.68759">
        <ele>797</ele>
        <time>2019-11-29T12:32:57.000Z</time>
      </trkpt>
      <trkpt lat="43.32619" lon="5.68759">
        <ele>797</ele>
        <time>2019-11-29T12:32:58.000Z</time>
      </trkpt>
      <trkpt lat="43.32621" lon="5.6876">
        <ele>797</ele>
        <time>2019-11-29T12:32:59.000Z</time>
      </trkpt>
      <trkpt lat="43.32622" lon="5.6876">
        <ele>797</ele>
        <time>2019-11-29T12:33:00.000Z</time>
      </trkpt>
      <trkpt lat="43.32624" lon="5.6876">
        <ele>797</ele>
        <time>2019-11-29T12:33:01.000Z</time>
      </trkpt>
      <trkpt lat="43.32626" lon="5.6876">
        <ele>797</ele>
        <time>2019-11-29T12:33:02.000Z</time>
      </trkpt>
      <trkpt lat="43.32627" lon="5.6876">
        <ele>797</ele>
        <time>2019-11-29T12:33:03.000Z</time>
      </trkpt>
      <trkpt lat="43.32629" lon="5.6876">
        <ele>797</ele>
        <time>2019-11-29T12:33:04.000Z</time>
      </trkpt>
      <trkpt lat="43.3263" lon="5.6876">
        <ele>797</ele>
        <time>2019-11-29T12:33:05.000Z</time>
      </trkpt>
      <trkpt lat="43.32632" lon="5.68759">
        <ele>797</ele>
        <time>2019-11-29T12:33:06.000Z</time>
      </trkpt>
      <trkpt lat="43.32633" lon="5.68759">
        <ele>796</ele>
        <time>2019-11-29T12:33:07.000Z</time>
      </trkpt>
      <trkpt lat="43.32634" lon="5.68759">
        <ele>796</ele>
        <time>2019-11-29T12:33:08.000Z</time>
      </trkpt>
      <trkpt lat="43.32636" lon="5.68758">
        <ele>796</ele>
        <time>2019-11-29T12:33:09.000Z</time>
      </trkpt>
      <trkpt lat="43.32637" lon="5.68758">
        <ele>796</ele>
        <time>2019-11-29T12:33:10.000Z</time>
      </trkpt>
      <trkpt lat="43.32638" lon="5.68758">
        <ele>796</ele>
        <time>2019-11-29T12:33:11.000Z</time>
      </trkpt>
      <trkpt lat="43.3264" lon="5.68758">
        <ele>796</ele>
        <time>2019-11-29T12:33:12.000Z</time>
      </trkpt>
      <trkpt lat="43.32641" lon="5.68757">
        <ele>796</ele>
        <time>2019-11-29T12:33:13.000Z</time>
      </trkpt>
      <trkpt lat="43.32642" lon="5.68757">
        <ele>796</ele>
        <time>2019-11-29T12:33:14.000Z</time>
      </trkpt>
      <trkpt lat="43.32644" lon="5.68757">
        <ele>796</ele>
        <time>2019-11-29T12:33:15.000Z</time>
      </trkpt>
      <trkpt lat="43.32645" lon="5.68757">
        <ele>796</ele>
        <time>2019-11-29T12:33:16.000Z</time>
      </trkpt>
      <trkpt lat="43.32646" lon="5.68757">
        <ele>796</ele>
        <time>2019-11-29T12:33:17.000Z</time>
      </trkpt>
      <trkpt lat="43.32647" lon="5.68758">
        <ele>796</ele>
        <time>2019-11-29T12:33:18.000Z</time>
      </trkpt>
      <trkpt lat="43.32648" lon="5.68758">
        <ele>796</ele>
        <time>2019-11-29T12:33:19.000Z</time>
      </trkpt>
      <trkpt lat="43.32649" lon="5.68759">
        <ele>796</ele>
        <time>2019-11-29T12:33:20.000Z</time>
      </trkpt>
      <trkpt lat="43.3265" lon="5.68759">
        <ele>796</ele>
        <time>2019-11-29T12:33:21.000Z</time>
      </trkpt>
      <trkpt lat="43.32651" lon="5.68759">
        <ele>796</ele>
        <time>2019-11-29T12:33:22.000Z</time>
      </trkpt>
      <trkpt lat="43.32653" lon="5.6876">
        <ele>796</ele>
        <time>2019-11-29T12:33:23.000Z</time>
      </trkpt>
      <trkpt lat="43.32654" lon="5.6876">
        <ele>796</ele>
        <time>2019-11-29T12:33:24.000Z</time>
      </trkpt>
      <trkpt lat="43.32655" lon="5.68761">
        <ele>796</ele>
        <time>2019-11-29T12:33:25.000Z</time>
      </trkpt>
      <trkpt lat="43.32655" lon="5.68762">
        <ele>795</ele>
        <time>2019-11-29T12:33:26.000Z</time>
      </trkpt>
      <trkpt lat="43.32656" lon="5.68763">
        <ele>795</ele>
        <time>2019-11-29T12:33:27.000Z</time>
      </trkpt>
      <trkpt lat="43.32656" lon="5.68765">
        <ele>795</ele>
        <time>2019-11-29T12:33:28.000Z</time>
      </trkpt>
      <trkpt lat="43.32656" lon="5.68766">
        <ele>795</ele>
        <time>2019-11-29T12:33:29.000Z</time>
      </trkpt>
      <trkpt lat="43.32657" lon="5.68767">
        <ele>795</ele>
        <time>2019-11-29T12:33:30.000Z</time>
      </trkpt>
      <trkpt lat="43.32657" lon="5.68768">
        <ele>795</ele>
        <time>2019-11-29T12:33:31.000Z</time>
      </trkpt>
      <trkpt lat="43.32657" lon="5.68769">
        <ele>795</ele>
        <time>2019-11-29T12:33:32.000Z</time>
      </trkpt>
      <trkpt lat="43.32658" lon="5.68771">
        <ele>795</ele>
        <time>2019-11-29T12:33:33.000Z</time>
      </trkpt>
      <trkpt lat="43.32658" lon="5.68772">
        <ele>795</ele>
        <time>2019-11-29T12:33:34.000Z</time>
      </trkpt>
      <trkpt lat="43.32659" lon="5.68774">
        <ele>795</ele>
        <time>2019-11-29T12:33:35.000Z</time>
      </trkpt>
      <trkpt lat="43.32659" lon="5.68775">
        <ele>794</ele>
        <time>2019-11-29T12:33:36.000Z</time>
      </trkpt>
      <trkpt lat="43.32659" lon="5.68776">
        <ele>794</ele>
        <time>2019-11-29T12:33:37.000Z</time>
      </trkpt>
      <trkpt lat="43.3266" lon="5.68778">
        <ele>794</ele>
        <time>2019-11-29T12:33:38.000Z</time>
      </trkpt>
      <trkpt lat="43.32661" lon="5.68779">
        <ele>794</ele>
        <time>2019-11-29T12:33:39.000Z</time>
      </trkpt>
      <trkpt lat="43.32661" lon="5.6878">
        <ele>794</ele>
        <time>2019-11-29T12:33:40.000Z</time>
      </trkpt>
      <trkpt lat="43.32662" lon="5.68781">
        <ele>794</ele>
        <time>2019-11-29T12:33:41.000Z</time>
      </trkpt>
      <trkpt lat="43.32663" lon="5.68782">
        <ele>794</ele>
        <time>2019-11-29T12:33:42.000Z</time>
      </trkpt>
      <trkpt lat="43.32664" lon="5.68784">
        <ele>794</ele>
        <time>2019-11-29T12:33:43.000Z</time>
      </trkpt>
      <trkpt lat="43.32665" lon="5.68785">
        <ele>794</ele>
        <time>2019-11-29T12:33:44.000Z</time>
      </trkpt>
      <trkpt lat="43.32666" lon="5.68786">
        <ele>795</ele>
        <time>2019-11-29T12:33:45.000Z</time>
      </trkpt>
      <trkpt lat="43.32667" lon="5.68787">
        <ele>794</ele>
        <time>2019-11-29T12:33:46.000Z</time>
      </trkpt>
      <trkpt lat="43.32668" lon="5.68788">
        <ele>794</ele>
        <time>2019-11-29T12:33:47.000Z</time>
      </trkpt>
      <trkpt lat="43.32668" lon="5.68789">
        <ele>794</ele>
        <time>2019-11-29T12:33:48.000Z</time>
      </trkpt>
      <trkpt lat="43.32669" lon="5.6879">
        <ele>795</ele>
        <time>2019-11-29T12:33:49.000Z</time>
      </trkpt>
      <trkpt lat="43.3267" lon="5.68791">
        <ele>795</ele>
        <time>2019-11-29T12:33:50.000Z</time>
      </trkpt>
      <trkpt lat="43.3267" lon="5.68792">
        <ele>795</ele>
        <time>2019-11-29T12:33:51.000Z</time>
      </trkpt>
      <trkpt lat="43.32671" lon="5.68794">
        <ele>795</ele>
        <time>2019-11-29T12:33:52.000Z</time>
      </trkpt>
      <trkpt lat="43.32672" lon="5.68795">
        <ele>795</ele>
        <time>2019-11-29T12:33:53.000Z</time>
      </trkpt>
      <trkpt lat="43.32673" lon="5.68797">
        <ele>795</ele>
        <time>2019-11-29T12:33:54.000Z</time>
      </trkpt>
      <trkpt lat="43.32674" lon="5.68798">
        <ele>794</ele>
        <time>2019-11-29T12:33:55.000Z</time>
      </trkpt>
      <trkpt lat="43.32675" lon="5.68799">
        <ele>794</ele>
        <time>2019-11-29T12:33:56.000Z</time>
      </trkpt>
      <trkpt lat="43.32675" lon="5.688">
        <ele>794</ele>
        <time>2019-11-29T12:33:57.000Z</time>
      </trkpt>
      <trkpt lat="43.32676" lon="5.68801">
        <ele>794</ele>
        <time>2019-11-29T12:33:58.000Z</time>
      </trkpt>
      <trkpt lat="43.32677" lon="5.68802">
        <ele>794</ele>
        <time>2019-11-29T12:33:59.000Z</time>
      </trkpt>
      <trkpt lat="43.32678" lon="5.68804">
        <ele>794</ele>
        <time>2019-11-29T12:34:00.000Z</time>
      </trkpt>
      <trkpt lat="43.32678" lon="5.68805">
        <ele>794</ele>
        <time>2019-11-29T12:34:01.000Z</time>
      </trkpt>
      <trkpt lat="43.32679" lon="5.68807">
        <ele>794</ele>
        <time>2019-11-29T12:34:02.000Z</time>
      </trkpt>
      <trkpt lat="43.3268" lon="5.68808">
        <ele>794</ele>
        <time>2019-11-29T12:34:03.000Z</time>
      </trkpt>
      <trkpt lat="43.3268" lon="5.6881">
        <ele>794</ele>
        <time>2019-11-29T12:34:04.000Z</time>
      </trkpt>
      <trkpt lat="43.3268" lon="5.68811">
        <ele>794</ele>
        <time>2019-11-29T12:34:05.000Z</time>
      </trkpt>
      <trkpt lat="43.32681" lon="5.68813">
        <ele>794</ele>
        <time>2019-11-29T12:34:06.000Z</time>
      </trkpt>
      <trkpt lat="43.32682" lon="5.68814">
        <ele>794</ele>
        <time>2019-11-29T12:34:07.000Z</time>
      </trkpt>
      <trkpt lat="43.32682" lon="5.68815">
        <ele>794</ele>
        <time>2019-11-29T12:34:08.000Z</time>
      </trkpt>
      <trkpt lat="43.32683" lon="5.68817">
        <ele>794</ele>
        <time>2019-11-29T12:34:09.000Z</time>
      </trkpt>
      <trkpt lat="43.32684" lon="5.68818">
        <ele>794</ele>
        <time>2019-11-29T12:34:10.000Z</time>
      </trkpt>
      <trkpt lat="43.32685" lon="5.68819">
        <ele>794</ele>
        <time>2019-11-29T12:34:11.000Z</time>
      </trkpt>
      <trkpt lat="43.32686" lon="5.6882">
        <ele>794</ele>
        <time>2019-11-29T12:34:12.000Z</time>
      </trkpt>
      <trkpt lat="43.32686" lon="5.68821">
        <ele>794</ele>
        <time>2019-11-29T12:34:13.000Z</time>
      </trkpt>
      <trkpt lat="43.32688" lon="5.68823">
        <ele>794</ele>
        <time>2019-11-29T12:34:14.000Z</time>
      </trkpt>
      <trkpt lat="43.32689" lon="5.68824">
        <ele>794</ele>
        <time>2019-11-29T12:34:15.000Z</time>
      </trkpt>
      <trkpt lat="43.32689" lon="5.68825">
        <ele>794</ele>
        <time>2019-11-29T12:34:16.000Z</time>
      </trkpt>
      <trkpt lat="43.3269" lon="5.68826">
        <ele>794</ele>
        <time>2019-11-29T12:34:17.000Z</time>
      </trkpt>
      <trkpt lat="43.32691" lon="5.68828">
        <ele>794</ele>
        <time>2019-11-29T12:34:18.000Z</time>
      </trkpt>
      <trkpt lat="43.32692" lon="5.68829">
        <ele>794</ele>
        <time>2019-11-29T12:34:19.000Z</time>
      </trkpt>
      <trkpt lat="43.32693" lon="5.6883">
        <ele>794</ele>
        <time>2019-11-29T12:34:20.000Z</time>
      </trkpt>
      <trkpt lat="43.32694" lon="5.68831">
        <ele>794</ele>
        <time>2019-11-29T12:34:21.000Z</time>
      </trkpt>
      <trkpt lat="43.32695" lon="5.68832">
        <ele>794</ele>
        <time>2019-11-29T12:34:22.000Z</time>
      </trkpt>
      <trkpt lat="43.32696" lon="5.68833">
        <ele>794</ele>
        <time>2019-11-29T12:34:23.000Z</time>
      </trkpt>
      <trkpt lat="43.32696" lon="5.68834">
        <ele>795</ele>
        <time>2019-11-29T12:34:24.000Z</time>
      </trkpt>
      <trkpt lat="43.32697" lon="5.68836">
        <ele>795</ele>
        <time>2019-11-29T12:34:25.000Z</time>
      </trkpt>
      <trkpt lat="43.32698" lon="5.68837">
        <ele>795</ele>
        <time>2019-11-29T12:34:26.000Z</time>
      </trkpt>
      <trkpt lat="43.32699" lon="5.68838">
        <ele>795</ele>
        <time>2019-11-29T12:34:27.000Z</time>
      </trkpt>
      <trkpt lat="43.327" lon="5.6884">
        <ele>795</ele>
        <time>2019-11-29T12:34:28.000Z</time>
      </trkpt>
      <trkpt lat="43.327" lon="5.68841">
        <ele>795</ele>
        <time>2019-11-29T12:34:29.000Z</time>
      </trkpt>
      <trkpt lat="43.32701" lon="5.68842">
        <ele>795</ele>
        <time>2019-11-29T12:34:30.000Z</time>
      </trkpt>
      <trkpt lat="43.32702" lon="5.68843">
        <ele>795</ele>
        <time>2019-11-29T12:34:31.000Z</time>
      </trkpt>
      <trkpt lat="43.32703" lon="5.68844">
        <ele>795</ele>
        <time>2019-11-29T12:34:32.000Z</time>
      </trkpt>
      <trkpt lat="43.32704" lon="5.68846">
        <ele>795</ele>
        <time>2019-11-29T12:34:33.000Z</time>
      </trkpt>
      <trkpt lat="43.32704" lon="5.68847">
        <ele>795</ele>
        <time>2019-11-29T12:34:34.000Z</time>
      </trkpt>
      <trkpt lat="43.32705" lon="5.68848">
        <ele>795</ele>
        <time>2019-11-29T12:34:35.000Z</time>
      </trkpt>
      <trkpt lat="43.32706" lon="5.68849">
        <ele>795</ele>
        <time>2019-11-29T12:34:36.000Z</time>
      </trkpt>
      <trkpt lat="43.32706" lon="5.6885">
        <ele>795</ele>
        <time>2019-11-29T12:34:37.000Z</time>
      </trkpt>
      <trkpt lat="43.32707" lon="5.68852">
        <ele>795</ele>
        <time>2019-11-29T12:34:38.000Z</time>
      </trkpt>
      <trkpt lat="43.32708" lon="5.68852">
        <ele>795</ele>
        <time>2019-11-29T12:34:39.000Z</time>
      </trkpt>
      <trkpt lat="43.32709" lon="5.68853">
        <ele>795</ele>
        <time>2019-11-29T12:34:40.000Z</time>
      </trkpt>
      <trkpt lat="43.3271" lon="5.68854">
        <ele>795</ele>
        <time>2019-11-29T12:34:41.000Z</time>
      </trkpt>
      <trkpt lat="43.3271" lon="5.68855">
        <ele>795</ele>
        <time>2019-11-29T12:34:42.000Z</time>
      </trkpt>
      <trkpt lat="43.32711" lon="5.68855">
        <ele>795</ele>
        <time>2019-11-29T12:34:43.000Z</time>
      </trkpt>
      <trkpt lat="43.32711" lon="5.68856">
        <ele>795</ele>
        <time>2019-11-29T12:34:44.000Z</time>
      </trkpt>
      <trkpt lat="43.32711" lon="5.68856">
        <ele>795</ele>
        <time>2019-11-29T12:34:45.000Z</time>
      </trkpt>
      <trkpt lat="43.32711" lon="5.68856">
        <ele>795</ele>
        <time>2019-11-29T12:34:46.000Z</time>
      </trkpt>
      <trkpt lat="43.32711" lon="5.68856">
        <ele>795</ele>
        <time>2019-11-29T12:34:47.000Z</time>
      </trkpt>
      <trkpt lat="43.32711" lon="5.68856">
        <ele>795</ele>
        <time>2019-11-29T12:34:48.000Z</time>
      </trkpt>
      <trkpt lat="43.32711" lon="5.68856">
        <ele>795</ele>
        <time>2019-11-29T12:34:49.000Z</time>
      </trkpt>
      <trkpt lat="43.32711" lon="5.68856">
        <ele>795</ele>
        <time>2019-11-29T12:34:50.000Z</time>
      </trkpt>
      <trkpt lat="43.32711" lon="5.68856">
        <ele>795</ele>
        <time>2019-11-29T12:34:51.000Z</time>
      </trkpt>
      <trkpt lat="43.32712" lon="5.68856">
        <ele>795</ele>
        <time>2019-11-29T12:34:52.000Z</time>
      </trkpt>
      <trkpt lat="43.32712" lon="5.68856">
        <ele>795</ele>
        <time>2019-11-29T12:34:53.000Z</time>
      </trkpt>
      <trkpt lat="43.32713" lon="5.68857">
        <ele>795</ele>
        <time>2019-11-29T12:34:54.000Z</time>
      </trkpt>
      <trkpt lat="43.32713" lon="5.68858">
        <ele>795</ele>
        <time>2019-11-29T12:34:55.000Z</time>
      </trkpt>
      <trkpt lat="43.32714" lon="5.68859">
        <ele>795</ele>
        <time>2019-11-29T12:34:56.000Z</time>
      </trkpt>
      <trkpt lat="43.32715" lon="5.68861">
        <ele>795</ele>
        <time>2019-11-29T12:34:57.000Z</time>
      </trkpt>
      <trkpt lat="43.32715" lon="5.68862">
        <ele>795</ele>
        <time>2019-11-29T12:34:58.000Z</time>
      </trkpt>
      <trkpt lat="43.32716" lon="5.68863">
        <ele>795</ele>
        <time>2019-11-29T12:34:59.000Z</time>
      </trkpt>
      <trkpt lat="43.32717" lon="5.68864">
        <ele>795</ele>
        <time>2019-11-29T12:35:00.000Z</time>
      </trkpt>
      <trkpt lat="43.32717" lon="5.68865">
        <ele>795</ele>
        <time>2019-11-29T12:35:01.000Z</time>
      </trkpt>
      <trkpt lat="43.32717" lon="5.68867">
        <ele>795</ele>
        <time>2019-11-29T12:35:02.000Z</time>
      </trkpt>
      <trkpt lat="43.32718" lon="5.68868">
        <ele>795</ele>
        <time>2019-11-29T12:35:03.000Z</time>
      </trkpt>
      <trkpt lat="43.32719" lon="5.6887">
        <ele>795</ele>
        <time>2019-11-29T12:35:04.000Z</time>
      </trkpt>
      <trkpt lat="43.3272" lon="5.68871">
        <ele>795</ele>
        <time>2019-11-29T12:35:05.000Z</time>
      </trkpt>
      <trkpt lat="43.3272" lon="5.68873">
        <ele>795</ele>
        <time>2019-11-29T12:35:06.000Z</time>
      </trkpt>
      <trkpt lat="43.32721" lon="5.68875">
        <ele>795</ele>
        <time>2019-11-29T12:35:07.000Z</time>
      </trkpt>
      <trkpt lat="43.32722" lon="5.68876">
        <ele>795</ele>
        <time>2019-11-29T12:35:08.000Z</time>
      </trkpt>
      <trkpt lat="43.32723" lon="5.68878">
        <ele>795</ele>
        <time>2019-11-29T12:35:09.000Z</time>
      </trkpt>
      <trkpt lat="43.32723" lon="5.68879">
        <ele>795</ele>
        <time>2019-11-29T12:35:10.000Z</time>
      </trkpt>
      <trkpt lat="43.32724" lon="5.68881">
        <ele>795</ele>
        <time>2019-11-29T12:35:11.000Z</time>
      </trkpt>
      <trkpt lat="43.32725" lon="5.68882">
        <ele>795</ele>
        <time>2019-11-29T12:35:12.000Z</time>
      </trkpt>
      <trkpt lat="43.32725" lon="5.68883">
        <ele>795</ele>
        <time>2019-11-29T12:35:13.000Z</time>
      </trkpt>
      <trkpt lat="43.32726" lon="5.68885">
        <ele>795</ele>
        <time>2019-11-29T12:35:14.000Z</time>
      </trkpt>
      <trkpt lat="43.32727" lon="5.68886">
        <ele>795</ele>
        <time>2019-11-29T12:35:15.000Z</time>
      </trkpt>
      <trkpt lat="43.32728" lon="5.68888">
        <ele>795</ele>
        <time>2019-11-29T12:35:16.000Z</time>
      </trkpt>
      <trkpt lat="43.32729" lon="5.68889">
        <ele>795</ele>
        <time>2019-11-29T12:35:17.000Z</time>
      </trkpt>
      <trkpt lat="43.3273" lon="5.6889">
        <ele>794</ele>
        <time>2019-11-29T12:35:18.000Z</time>
      </trkpt>
      <trkpt lat="43.32731" lon="5.68891">
        <ele>794</ele>
        <time>2019-11-29T12:35:19.000Z</time>
      </trkpt>
      <trkpt lat="43.32732" lon="5.68893">
        <ele>794</ele>
        <time>2019-11-29T12:35:20.000Z</time>
      </trkpt>
      <trkpt lat="43.32732" lon="5.68894">
        <ele>794</ele>
        <time>2019-11-29T12:35:21.000Z</time>
      </trkpt>
      <trkpt lat="43.32733" lon="5.68896">
        <ele>794</ele>
        <time>2019-11-29T12:35:22.000Z</time>
      </trkpt>
      <trkpt lat="43.32734" lon="5.68897">
        <ele>794</ele>
        <time>2019-11-29T12:35:23.000Z</time>
      </trkpt>
      <trkpt lat="43.32735" lon="5.68898">
        <ele>794</ele>
        <time>2019-11-29T12:35:24.000Z</time>
      </trkpt>
      <trkpt lat="43.32736" lon="5.68899">
        <ele>794</ele>
        <time>2019-11-29T12:35:25.000Z</time>
      </trkpt>
      <trkpt lat="43.32737" lon="5.68901">
        <ele>794</ele>
        <time>2019-11-29T12:35:26.000Z</time>
      </trkpt>
      <trkpt lat="43.32738" lon="5.68902">
        <ele>794</ele>
        <time>2019-11-29T12:35:27.000Z</time>
      </trkpt>
      <trkpt lat="43.32739" lon="5.68904">
        <ele>794</ele>
        <time>2019-11-29T12:35:28.000Z</time>
      </trkpt>
      <trkpt lat="43.3274" lon="5.68905">
        <ele>794</ele>
        <time>2019-11-29T12:35:29.000Z</time>
      </trkpt>
      <trkpt lat="43.3274" lon="5.68907">
        <ele>794</ele>
        <time>2019-11-29T12:35:30.000Z</time>
      </trkpt>
      <trkpt lat="43.32741" lon="5.68908">
        <ele>794</ele>
        <time>2019-11-29T12:35:31.000Z</time>
      </trkpt>
      <trkpt lat="43.32742" lon="5.68909">
        <ele>794</ele>
        <time>2019-11-29T12:35:32.000Z</time>
      </trkpt>
      <trkpt lat="43.32742" lon="5.68911">
        <ele>794</ele>
        <time>2019-11-29T12:35:33.000Z</time>
      </trkpt>
      <trkpt lat="43.32743" lon="5.68911">
        <ele>794</ele>
        <time>2019-11-29T12:35:34.000Z</time>
      </trkpt>
      <trkpt lat="43.32744" lon="5.68912">
        <ele>794</ele>
        <time>2019-11-29T12:35:35.000Z</time>
      </trkpt>
      <trkpt lat="43.32745" lon="5.68913">
        <ele>794</ele>
        <time>2019-11-29T12:35:36.000Z</time>
      </trkpt>
      <trkpt lat="43.32746" lon="5.68914">
        <ele>795</ele>
        <time>2019-11-29T12:35:37.000Z</time>
      </trkpt>
      <trkpt lat="43.32747" lon="5.68915">
        <ele>795</ele>
        <time>2019-11-29T12:35:38.000Z</time>
      </trkpt>
      <trkpt lat="43.32748" lon="5.68917">
        <ele>795</ele>
        <time>2019-11-29T12:35:39.000Z</time>
      </trkpt>
      <trkpt lat="43.32749" lon="5.68918">
        <ele>795</ele>
        <time>2019-11-29T12:35:40.000Z</time>
      </trkpt>
      <trkpt lat="43.3275" lon="5.68919">
        <ele>795</ele>
        <time>2019-11-29T12:35:41.000Z</time>
      </trkpt>
      <trkpt lat="43.3275" lon="5.6892">
        <ele>795</ele>
        <time>2019-11-29T12:35:42.000Z</time>
      </trkpt>
      <trkpt lat="43.32751" lon="5.68922">
        <ele>795</ele>
        <time>2019-11-29T12:35:43.000Z</time>
      </trkpt>
      <trkpt lat="43.32752" lon="5.68923">
        <ele>795</ele>
        <time>2019-11-29T12:35:44.000Z</time>
      </trkpt>
      <trkpt lat="43.32753" lon="5.68924">
        <ele>795</ele>
        <time>2019-11-29T12:35:45.000Z</time>
      </trkpt>
      <trkpt lat="43.32753" lon="5.68925">
        <ele>795</ele>
        <time>2019-11-29T12:35:46.000Z</time>
      </trkpt>
      <trkpt lat="43.32754" lon="5.68926">
        <ele>795</ele>
        <time>2019-11-29T12:35:47.000Z</time>
      </trkpt>
      <trkpt lat="43.32754" lon="5.68927">
        <ele>795</ele>
        <time>2019-11-29T12:35:48.000Z</time>
      </trkpt>
      <trkpt lat="43.32754" lon="5.68927">
        <ele>795</ele>
        <time>2019-11-29T12:35:49.000Z</time>
      </trkpt>
      <trkpt lat="43.32754" lon="5.68928">
        <ele>795</ele>
        <time>2019-11-29T12:35:50.000Z</time>
      </trkpt>
      <trkpt lat="43.32755" lon="5.68929">
        <ele>795</ele>
        <time>2019-11-29T12:35:51.000Z</time>
      </trkpt>
      <trkpt lat="43.32755" lon="5.6893">
        <ele>795</ele>
        <time>2019-11-29T12:35:52.000Z</time>
      </trkpt>
      <trkpt lat="43.32756" lon="5.68931">
        <ele>795</ele>
        <time>2019-11-29T12:35:53.000Z</time>
      </trkpt>
      <trkpt lat="43.32757" lon="5.68932">
        <ele>795</ele>
        <time>2019-11-29T12:35:54.000Z</time>
      </trkpt>
      <trkpt lat="43.32757" lon="5.68933">
        <ele>795</ele>
        <time>2019-11-29T12:35:55.000Z</time>
      </trkpt>
      <trkpt lat="43.32758" lon="5.68934">
        <ele>795</ele>
        <time>2019-11-29T12:35:56.000Z</time>
      </trkpt>
      <trkpt lat="43.32758" lon="5.68935">
        <ele>795</ele>
        <time>2019-11-29T12:35:57.000Z</time>
      </trkpt>
      <trkpt lat="43.32759" lon="5.68935">
        <ele>795</ele>
        <time>2019-11-29T12:35:58.000Z</time>
      </trkpt>
      <trkpt lat="43.3276" lon="5.68936">
        <ele>795</ele>
        <time>2019-11-29T12:35:59.000Z</time>
      </trkpt>
      <trkpt lat="43.3276" lon="5.68937">
        <ele>795</ele>
        <time>2019-11-29T12:36:00.000Z</time>
      </trkpt>
      <trkpt lat="43.32761" lon="5.68938">
        <ele>795</ele>
        <time>2019-11-29T12:36:01.000Z</time>
      </trkpt>
      <trkpt lat="43.32762" lon="5.68939">
        <ele>795</ele>
        <time>2019-11-29T12:36:02.000Z</time>
      </trkpt>
      <trkpt lat="43.32762" lon="5.6894">
        <ele>795</ele>
        <time>2019-11-29T12:36:03.000Z</time>
      </trkpt>
      <trkpt lat="43.32763" lon="5.68941">
        <ele>795</ele>
        <time>2019-11-29T12:36:04.000Z</time>
      </trkpt>
      <trkpt lat="43.32763" lon="5.68942">
        <ele>795</ele>
        <time>2019-11-29T12:36:05.000Z</time>
      </trkpt>
      <trkpt lat="43.32763" lon="5.68942">
        <ele>795</ele>
        <time>2019-11-29T12:36:06.000Z</time>
      </trkpt>
      <trkpt lat="43.32763" lon="5.68942">
        <ele>795</ele>
        <time>2019-11-29T12:36:07.000Z</time>
      </trkpt>
      <trkpt lat="43.32763" lon="5.68942">
        <ele>795</ele>
        <time>2019-11-29T12:36:08.000Z</time>
      </trkpt>
      <trkpt lat="43.32764" lon="5.68942">
        <ele>795</ele>
        <time>2019-11-29T12:36:09.000Z</time>
      </trkpt>
      <trkpt lat="43.32764" lon="5.68942">
        <ele>795</ele>
        <time>2019-11-29T12:36:10.000Z</time>
      </trkpt>
      <trkpt lat="43.32764" lon="5.68943">
        <ele>795</ele>
        <time>2019-11-29T12:36:11.000Z</time>
      </trkpt>
      <trkpt lat="43.32764" lon="5.68943">
        <ele>795</ele>
        <time>2019-11-29T12:36:12.000Z</time>
      </trkpt>
      <trkpt lat="43.32764" lon="5.68943">
        <ele>795</ele>
        <time>2019-11-29T12:36:13.000Z</time>
      </trkpt>
      <trkpt lat="43.32764" lon="5.68943">
        <ele>795</ele>
        <time>2019-11-29T12:36:14.000Z</time>
      </trkpt>
      <trkpt lat="43.32764" lon="5.68943">
        <ele>795</ele>
        <time>2019-11-29T12:36:15.000Z</time>
      </trkpt>
      <trkpt lat="43.32764" lon="5.68942">
        <ele>796</ele>
        <time>2019-11-29T12:36:16.000Z</time>
      </trkpt>
      <trkpt lat="43.32765" lon="5.68943">
        <ele>796</ele>
        <time>2019-11-29T12:36:17.000Z</time>
      </trkpt>
      <trkpt lat="43.32765" lon="5.68943">
        <ele>796</ele>
        <time>2019-11-29T12:36:18.000Z</time>
      </trkpt>
      <trkpt lat="43.32765" lon="5.68943">
        <ele>796</ele>
        <time>2019-11-29T12:36:19.000Z</time>
      </trkpt>
      <trkpt lat="43.32765" lon="5.68943">
        <ele>795</ele>
        <time>2019-11-29T12:36:20.000Z</time>
      </trkpt>
      <trkpt lat="43.32765" lon="5.68943">
        <ele>795</ele>
        <time>2019-11-29T12:36:21.000Z</time>
      </trkpt>
      <trkpt lat="43.32765" lon="5.68943">
        <ele>795</ele>
        <time>2019-11-29T12:36:22.000Z</time>
      </trkpt>
      <trkpt lat="43.32765" lon="5.68943">
        <ele>795</ele>
        <time>2019-11-29T12:36:23.000Z</time>
      </trkpt>
      <trkpt lat="43.32765" lon="5.68944">
        <ele>795</ele>
        <time>2019-11-29T12:36:24.000Z</time>
      </trkpt>
      <trkpt lat="43.32765" lon="5.68944">
        <ele>795</ele>
        <time>2019-11-29T12:36:25.000Z</time>
      </trkpt>
      <trkpt lat="43.32765" lon="5.68944">
        <ele>795</ele>
        <time>2019-11-29T12:36:26.000Z</time>
      </trkpt>
      <trkpt lat="43.32765" lon="5.68945">
        <ele>795</ele>
        <time>2019-11-29T12:36:27.000Z</time>
      </trkpt>
      <trkpt lat="43.32765" lon="5.68946">
        <ele>796</ele>
        <time>2019-11-29T12:36:28.000Z</time>
      </trkpt>
      <trkpt lat="43.32765" lon="5.68946">
        <ele>796</ele>
        <time>2019-11-29T12:36:29.000Z</time>
      </trkpt>
      <trkpt lat="43.32765" lon="5.68946">
        <ele>796</ele>
        <time>2019-11-29T12:36:30.000Z</time>
      </trkpt>
      <trkpt lat="43.32765" lon="5.68946">
        <ele>796</ele>
        <time>2019-11-29T12:36:31.000Z</time>
      </trkpt>
      <trkpt lat="43.32765" lon="5.68946">
        <ele>796</ele>
        <time>2019-11-29T12:36:32.000Z</time>
      </trkpt>
      <trkpt lat="43.32765" lon="5.68946">
        <ele>796</ele>
        <time>2019-11-29T12:36:33.000Z</time>
      </trkpt>
      <trkpt lat="43.32765" lon="5.68946">
        <ele>796</ele>
        <time>2019-11-29T12:36:34.000Z</time>
      </trkpt>
      <trkpt lat="43.32765" lon="5.68946">
        <ele>796</ele>
        <time>2019-11-29T12:36:35.000Z</time>
      </trkpt>
      <trkpt lat="43.32765" lon="5.68946">
        <ele>796</ele>
        <time>2019-11-29T12:36:36.000Z</time>
      </trkpt>
      <trkpt lat="43.32765" lon="5.68946">
        <ele>796</ele>
        <time>2019-11-29T12:36:37.000Z</time>
      </trkpt>
      <trkpt lat="43.32765" lon="5.68946">
        <ele>796</ele>
        <time>2019-11-29T12:36:38.000Z</time>
      </trkpt>
      <trkpt lat="43.32765" lon="5.68946">
        <ele>796</ele>
        <time>2019-11-29T12:36:39.000Z</time>
      </trkpt>
      <trkpt lat="43.32765" lon="5.68947">
        <ele>796</ele>
        <time>2019-11-29T12:36:40.000Z</time>
      </trkpt>
      <trkpt lat="43.32765" lon="5.68948">
        <ele>796</ele>
        <time>2019-11-29T12:36:41.000Z</time>
      </trkpt>
      <trkpt lat="43.32765" lon="5.68948">
        <ele>796</ele>
        <time>2019-11-29T12:36:42.000Z</time>
      </trkpt>
      <trkpt lat="43.32765" lon="5.68949">
        <ele>796</ele>
        <time>2019-11-29T12:36:43.000Z</time>
      </trkpt>
      <trkpt lat="43.32765" lon="5.68949">
        <ele>796</ele>
        <time>2019-11-29T12:36:44.000Z</time>
      </trkpt>
      <trkpt lat="43.32765" lon="5.68949">
        <ele>796</ele>
        <time>2019-11-29T12:36:45.000Z</time>
      </trkpt>
      <trkpt lat="43.32765" lon="5.68949">
        <ele>796</ele>
        <time>2019-11-29T12:36:46.000Z</time>
      </trkpt>
      <trkpt lat="43.32765" lon="5.68949">
        <ele>796</ele>
        <time>2019-11-29T12:36:47.000Z</time>
      </trkpt>
      <trkpt lat="43.32765" lon="5.68949">
        <ele>796</ele>
        <time>2019-11-29T12:36:48.000Z</time>
      </trkpt>
      <trkpt lat="43.32765" lon="5.68949">
        <ele>796</ele>
        <time>2019-11-29T12:36:49.000Z</time>
      </trkpt>
      <trkpt lat="43.32765" lon="5.68949">
        <ele>796</ele>
        <time>2019-11-29T12:36:50.000Z</time>
      </trkpt>
      <trkpt lat="43.32765" lon="5.68949">
        <ele>796</ele>
        <time>2019-11-29T12:36:51.000Z</time>
      </trkpt>
      <trkpt lat="43.32765" lon="5.68949">
        <ele>796</ele>
        <time>2019-11-29T12:36:52.000Z</time>
      </trkpt>
      <trkpt lat="43.32765" lon="5.68949">
        <ele>796</ele>
        <time>2019-11-29T12:36:53.000Z</time>
      </trkpt>
      <trkpt lat="43.32765" lon="5.68949">
        <ele>796</ele>
        <time>2019-11-29T12:36:54.000Z</time>
      </trkpt>
      <trkpt lat="43.32765" lon="5.68949">
        <ele>796</ele>
        <time>2019-11-29T12:36:55.000Z</time>
      </trkpt>
      <trkpt lat="43.32765" lon="5.6895">
        <ele>796</ele>
        <time>2019-11-29T12:36:56.000Z</time>
      </trkpt>
      <trkpt lat="43.32765" lon="5.6895">
        <ele>797</ele>
        <time>2019-11-29T12:36:57.000Z</time>
      </trkpt>
      <trkpt lat="43.32765" lon="5.68951">
        <ele>797</ele>
        <time>2019-11-29T12:36:58.000Z</time>
      </trkpt>
      <trkpt lat="43.32765" lon="5.68951">
        <ele>797</ele>
        <time>2019-11-29T12:36:59.000Z</time>
      </trkpt>
      <trkpt lat="43.32765" lon="5.68951">
        <ele>797</ele>
        <time>2019-11-29T12:37:00.000Z</time>
      </trkpt>
      <trkpt lat="43.32765" lon="5.68951">
        <ele>797</ele>
        <time>2019-11-29T12:37:01.000Z</time>
      </trkpt>
      <trkpt lat="43.32765" lon="5.68951">
        <ele>797</ele>
        <time>2019-11-29T12:37:02.000Z</time>
      </trkpt>
      <trkpt lat="43.32766" lon="5.68951">
        <ele>797</ele>
        <time>2019-11-29T12:37:03.000Z</time>
      </trkpt>
      <trkpt lat="43.32766" lon="5.68951">
        <ele>797</ele>
        <time>2019-11-29T12:37:04.000Z</time>
      </trkpt>
      <trkpt lat="43.32766" lon="5.6895">
        <ele>797</ele>
        <time>2019-11-29T12:37:05.000Z</time>
      </trkpt>
      <trkpt lat="43.32766" lon="5.68951">
        <ele>797</ele>
        <time>2019-11-29T12:37:06.000Z</time>
      </trkpt>
      <trkpt lat="43.32766" lon="5.68951">
        <ele>797</ele>
        <time>2019-11-29T12:37:07.000Z</time>
      </trkpt>
      <trkpt lat="43.32767" lon="5.68952">
        <ele>797</ele>
        <time>2019-11-29T12:37:08.000Z</time>
      </trkpt>
      <trkpt lat="43.32767" lon="5.68952">
        <ele>797</ele>
        <time>2019-11-29T12:37:09.000Z</time>
      </trkpt>
      <trkpt lat="43.32767" lon="5.68951">
        <ele>797</ele>
        <time>2019-11-29T12:37:10.000Z</time>
      </trkpt>
      <trkpt lat="43.32767" lon="5.68951">
        <ele>797</ele>
        <time>2019-11-29T12:37:11.000Z</time>
      </trkpt>
      <trkpt lat="43.32767" lon="5.68951">
        <ele>798</ele>
        <time>2019-11-29T12:37:12.000Z</time>
      </trkpt>
      <trkpt lat="43.32767" lon="5.68951">
        <ele>798</ele>
        <time>2019-11-29T12:37:13.000Z</time>
      </trkpt>
      <trkpt lat="43.32767" lon="5.68951">
        <ele>798</ele>
        <time>2019-11-29T12:37:14.000Z</time>
      </trkpt>
      <trkpt lat="43.32767" lon="5.68952">
        <ele>798</ele>
        <time>2019-11-29T12:37:15.000Z</time>
      </trkpt>
      <trkpt lat="43.32767" lon="5.68952">
        <ele>798</ele>
        <time>2019-11-29T12:37:16.000Z</time>
      </trkpt>
      <trkpt lat="43.32767" lon="5.68953">
        <ele>798</ele>
        <time>2019-11-29T12:37:17.000Z</time>
      </trkpt>
      <trkpt lat="43.32768" lon="5.68953">
        <ele>798</ele>
        <time>2019-11-29T12:37:18.000Z</time>
      </trkpt>
      <trkpt lat="43.32768" lon="5.68954">
        <ele>798</ele>
        <time>2019-11-29T12:37:19.000Z</time>
      </trkpt>
      <trkpt lat="43.32768" lon="5.68955">
        <ele>799</ele>
        <time>2019-11-29T12:37:20.000Z</time>
      </trkpt>
      <trkpt lat="43.32767" lon="5.68956">
        <ele>799</ele>
        <time>2019-11-29T12:37:21.000Z</time>
      </trkpt>
      <trkpt lat="43.32767" lon="5.68957">
        <ele>799</ele>
        <time>2019-11-29T12:37:22.000Z</time>
      </trkpt>
      <trkpt lat="43.32767" lon="5.68957">
        <ele>799</ele>
        <time>2019-11-29T12:37:23.000Z</time>
      </trkpt>
      <trkpt lat="43.32767" lon="5.68957">
        <ele>799</ele>
        <time>2019-11-29T12:37:24.000Z</time>
      </trkpt>
      <trkpt lat="43.32767" lon="5.68956">
        <ele>799</ele>
        <time>2019-11-29T12:37:25.000Z</time>
      </trkpt>
      <trkpt lat="43.32767" lon="5.68956">
        <ele>799</ele>
        <time>2019-11-29T12:37:26.000Z</time>
      </trkpt>
      <trkpt lat="43.32767" lon="5.68956">
        <ele>799</ele>
        <time>2019-11-29T12:37:27.000Z</time>
      </trkpt>
      <trkpt lat="43.32767" lon="5.68956">
        <ele>799</ele>
        <time>2019-11-29T12:37:28.000Z</time>
      </trkpt>
      <trkpt lat="43.32767" lon="5.68957">
        <ele>799</ele>
        <time>2019-11-29T12:37:29.000Z</time>
      </trkpt>
      <trkpt lat="43.32767" lon="5.68957">
        <ele>799</ele>
        <time>2019-11-29T12:37:30.000Z</time>
      </trkpt>
      <trkpt lat="43.32767" lon="5.68957">
        <ele>800</ele>
        <time>2019-11-29T12:37:31.000Z</time>
      </trkpt>
      <trkpt lat="43.32767" lon="5.68956">
        <ele>800</ele>
        <time>2019-11-29T12:37:32.000Z</time>
      </trkpt>
      <trkpt lat="43.32767" lon="5.68956">
        <ele>800</ele>
        <time>2019-11-29T12:37:33.000Z</time>
      </trkpt>
      <trkpt lat="43.32767" lon="5.68957">
        <ele>800</ele>
        <time>2019-11-29T12:37:34.000Z</time>
      </trkpt>
      <trkpt lat="43.32767" lon="5.68957">
        <ele>800</ele>
        <time>2019-11-29T12:37:35.000Z</time>
      </trkpt>
      <trkpt lat="43.32767" lon="5.68958">
        <ele>800</ele>
        <time>2019-11-29T12:37:36.000Z</time>
      </trkpt>
      <trkpt lat="43.32767" lon="5.68958">
        <ele>800</ele>
        <time>2019-11-29T12:37:37.000Z</time>
      </trkpt>
      <trkpt lat="43.32767" lon="5.68959">
        <ele>800</ele>
        <time>2019-11-29T12:37:38.000Z</time>
      </trkpt>
      <trkpt lat="43.32767" lon="5.68959">
        <ele>800</ele>
        <time>2019-11-29T12:37:39.000Z</time>
      </trkpt>
      <trkpt lat="43.32768" lon="5.68959">
        <ele>800</ele>
        <time>2019-11-29T12:37:40.000Z</time>
      </trkpt>
      <trkpt lat="43.32768" lon="5.68959">
        <ele>800</ele>
        <time>2019-11-29T12:37:41.000Z</time>
      </trkpt>
      <trkpt lat="43.32768" lon="5.68959">
        <ele>800</ele>
        <time>2019-11-29T12:37:42.000Z</time>
      </trkpt>
      <trkpt lat="43.32768" lon="5.68959">
        <ele>800</ele>
        <time>2019-11-29T12:37:43.000Z</time>
      </trkpt>
      <trkpt lat="43.32768" lon="5.68959">
        <ele>800</ele>
        <time>2019-11-29T12:37:44.000Z</time>
      </trkpt>
      <trkpt lat="43.32768" lon="5.6896">
        <ele>801</ele>
        <time>2019-11-29T12:37:45.000Z</time>
      </trkpt>
      <trkpt lat="43.32768" lon="5.6896">
        <ele>801</ele>
        <time>2019-11-29T12:37:46.000Z</time>
      </trkpt>
      <trkpt lat="43.32768" lon="5.68961">
        <ele>801</ele>
        <time>2019-11-29T12:37:47.000Z</time>
      </trkpt>
      <trkpt lat="43.32768" lon="5.68961">
        <ele>801</ele>
        <time>2019-11-29T12:37:48.000Z</time>
      </trkpt>
      <trkpt lat="43.32768" lon="5.68961">
        <ele>801</ele>
        <time>2019-11-29T12:37:49.000Z</time>
      </trkpt>
      <trkpt lat="43.32768" lon="5.68961">
        <ele>801</ele>
        <time>2019-11-29T12:37:50.000Z</time>
      </trkpt>
      <trkpt lat="43.32768" lon="5.68961">
        <ele>801</ele>
        <time>2019-11-29T12:37:51.000Z</time>
      </trkpt>
      <trkpt lat="43.32768" lon="5.68962">
        <ele>802</ele>
        <time>2019-11-29T12:37:52.000Z</time>
      </trkpt>
      <trkpt lat="43.32769" lon="5.68962">
        <ele>802</ele>
        <time>2019-11-29T12:37:53.000Z</time>
      </trkpt>
      <trkpt lat="43.32769" lon="5.68962">
        <ele>802</ele>
        <time>2019-11-29T12:37:54.000Z</time>
      </trkpt>
      <trkpt lat="43.32769" lon="5.68962">
        <ele>802</ele>
        <time>2019-11-29T12:37:55.000Z</time>
      </trkpt>
      <trkpt lat="43.3277" lon="5.68963">
        <ele>802</ele>
        <time>2019-11-29T12:37:56.000Z</time>
      </trkpt>
      <trkpt lat="43.3277" lon="5.68965">
        <ele>803</ele>
        <time>2019-11-29T12:37:57.000Z</time>
      </trkpt>
      <trkpt lat="43.3277" lon="5.68966">
        <ele>803</ele>
        <time>2019-11-29T12:37:58.000Z</time>
      </trkpt>
      <trkpt lat="43.32769" lon="5.68967">
        <ele>803</ele>
        <time>2019-11-29T12:37:59.000Z</time>
      </trkpt>
      <trkpt lat="43.32769" lon="5.68967">
        <ele>803</ele>
        <time>2019-11-29T12:38:00.000Z</time>
      </trkpt>
      <trkpt lat="43.32769" lon="5.68967">
        <ele>803</ele>
        <time>2019-11-29T12:38:01.000Z</time>
      </trkpt>
      <trkpt lat="43.32769" lon="5.68967">
        <ele>803</ele>
        <time>2019-11-29T12:38:02.000Z</time>
      </trkpt>
      <trkpt lat="43.32769" lon="5.68967">
        <ele>803</ele>
        <time>2019-11-29T12:38:03.000Z</time>
      </trkpt>
      <trkpt lat="43.32769" lon="5.68967">
        <ele>803</ele>
        <time>2019-11-29T12:38:04.000Z</time>
      </trkpt>
      <trkpt lat="43.32769" lon="5.68967">
        <ele>804</ele>
        <time>2019-11-29T12:38:05.000Z</time>
      </trkpt>
      <trkpt lat="43.32769" lon="5.68967">
        <ele>804</ele>
        <time>2019-11-29T12:38:06.000Z</time>
      </trkpt>
      <trkpt lat="43.32769" lon="5.68967">
        <ele>804</ele>
        <time>2019-11-29T12:38:07.000Z</time>
      </trkpt>
      <trkpt lat="43.32769" lon="5.68967">
        <ele>804</ele>
        <time>2019-11-29T12:38:08.000Z</time>
      </trkpt>
      <trkpt lat="43.32769" lon="5.68967">
        <ele>804</ele>
        <time>2019-11-29T12:38:09.000Z</time>
      </trkpt>
      <trkpt lat="43.32769" lon="5.68967">
        <ele>804</ele>
        <time>2019-11-29T12:38:10.000Z</time>
      </trkpt>
      <trkpt lat="43.32769" lon="5.68967">
        <ele>804</ele>
        <time>2019-11-29T12:38:11.000Z</time>
      </trkpt>
      <trkpt lat="43.32769" lon="5.68967">
        <ele>804</ele>
        <time>2019-11-29T12:38:12.000Z</time>
      </trkpt>
      <trkpt lat="43.32769" lon="5.68967">
        <ele>804</ele>
        <time>2019-11-29T12:38:13.000Z</time>
      </trkpt>
      <trkpt lat="43.32769" lon="5.68967">
        <ele>804</ele>
        <time>2019-11-29T12:38:14.000Z</time>
      </trkpt>
      <trkpt lat="43.32769" lon="5.68967">
        <ele>804</ele>
        <time>2019-11-29T12:38:15.000Z</time>
      </trkpt>
      <trkpt lat="43.32769" lon="5.68967">
        <ele>804</ele>
        <time>2019-11-29T12:38:16.000Z</time>
      </trkpt>
      <trkpt lat="43.32769" lon="5.68967">
        <ele>804</ele>
        <time>2019-11-29T12:38:17.000Z</time>
      </trkpt>
      <trkpt lat="43.32769" lon="5.68967">
        <ele>804</ele>
        <time>2019-11-29T12:38:18.000Z</time>
      </trkpt>
      <trkpt lat="43.32769" lon="5.68967">
        <ele>804</ele>
        <time>2019-11-29T12:38:19.000Z</time>
      </trkpt>
      <trkpt lat="43.32769" lon="5.68967">
        <ele>804</ele>
        <time>2019-11-29T12:38:20.000Z</time>
      </trkpt>
      <trkpt lat="43.32769" lon="5.68967">
        <ele>804</ele>
        <time>2019-11-29T12:38:21.000Z</time>
      </trkpt>
      <trkpt lat="43.32769" lon="5.68967">
        <ele>804</ele>
        <time>2019-11-29T12:38:22.000Z</time>
      </trkpt>
      <trkpt lat="43.32769" lon="5.68967">
        <ele>804</ele>
        <time>2019-11-29T12:38:23.000Z</time>
      </trkpt>
      <trkpt lat="43.32769" lon="5.68967">
        <ele>804</ele>
        <time>2019-11-29T12:38:24.000Z</time>
      </trkpt>
      <trkpt lat="43.32769" lon="5.68967">
        <ele>804</ele>
        <time>2019-11-29T12:38:25.000Z</time>
      </trkpt>
      <trkpt lat="43.32769" lon="5.68967">
        <ele>804</ele>
        <time>2019-11-29T12:38:26.000Z</time>
      </trkpt>
      <trkpt lat="43.32769" lon="5.68967">
        <ele>804</ele>
        <time>2019-11-29T12:38:27.000Z</time>
      </trkpt>
      <trkpt lat="43.32768" lon="5.68966">
        <ele>804</ele>
        <time>2019-11-29T12:38:28.000Z</time>
      </trkpt>
      <trkpt lat="43.32768" lon="5.68966">
        <ele>804</ele>
        <time>2019-11-29T12:38:29.000Z</time>
      </trkpt>
      <trkpt lat="43.32768" lon="5.68966">
        <ele>804</ele>
        <time>2019-11-29T12:38:30.000Z</time>
      </trkpt>
      <trkpt lat="43.32768" lon="5.68966">
        <ele>804</ele>
        <time>2019-11-29T12:38:31.000Z</time>
      </trkpt>
      <trkpt lat="43.32768" lon="5.68966">
        <ele>804</ele>
        <time>2019-11-29T12:38:32.000Z</time>
      </trkpt>
      <trkpt lat="43.32768" lon="5.68966">
        <ele>804</ele>
        <time>2019-11-29T12:38:33.000Z</time>
      </trkpt>
      <trkpt lat="43.32768" lon="5.68966">
        <ele>804</ele>
        <time>2019-11-29T12:38:34.000Z</time>
      </trkpt>
      <trkpt lat="43.32768" lon="5.68966">
        <ele>804</ele>
        <time>2019-11-29T12:38:35.000Z</time>
      </trkpt>
      <trkpt lat="43.32768" lon="5.68966">
        <ele>805</ele>
        <time>2019-11-29T12:38:36.000Z</time>
      </trkpt>
      <trkpt lat="43.32768" lon="5.68966">
        <ele>805</ele>
        <time>2019-11-29T12:38:37.000Z</time>
      </trkpt>
      <trkpt lat="43.32768" lon="5.68966">
        <ele>805</ele>
        <time>2019-11-29T12:38:38.000Z</time>
      </trkpt>
      <trkpt lat="43.32768" lon="5.68966">
        <ele>805</ele>
        <time>2019-11-29T12:38:39.000Z</time>
      </trkpt>
      <trkpt lat="43.32768" lon="5.68966">
        <ele>805</ele>
        <time>2019-11-29T12:38:40.000Z</time>
      </trkpt>
      <trkpt lat="43.32768" lon="5.68966">
        <ele>805</ele>
        <time>2019-11-29T12:38:41.000Z</time>
      </trkpt>
      <trkpt lat="43.32768" lon="5.68966">
        <ele>805</ele>
        <time>2019-11-29T12:38:42.000Z</time>
      </trkpt>
      <trkpt lat="43.32768" lon="5.68966">
        <ele>805</ele>
        <time>2019-11-29T12:38:43.000Z</time>
      </trkpt>
      <trkpt lat="43.32768" lon="5.68966">
        <ele>805</ele>
        <time>2019-11-29T12:38:44.000Z</time>
      </trkpt>
      <trkpt lat="43.32768" lon="5.68966">
        <ele>805</ele>
        <time>2019-11-29T12:38:45.000Z</time>
      </trkpt>
      <trkpt lat="43.32768" lon="5.68966">
        <ele>805</ele>
        <time>2019-11-29T12:38:46.000Z</time>
      </trkpt>
      <trkpt lat="43.32768" lon="5.68966">
        <ele>805</ele>
        <time>2019-11-29T12:38:47.000Z</time>
      </trkpt>
      <trkpt lat="43.32768" lon="5.68966">
        <ele>805</ele>
        <time>2019-11-29T12:38:48.000Z</time>
      </trkpt>
      <trkpt lat="43.32768" lon="5.68966">
        <ele>805</ele>
        <time>2019-11-29T12:38:49.000Z</time>
      </trkpt>
      <trkpt lat="43.32768" lon="5.68966">
        <ele>806</ele>
        <time>2019-11-29T12:38:50.000Z</time>
      </trkpt>
      <trkpt lat="43.32768" lon="5.68966">
        <ele>806</ele>
        <time>2019-11-29T12:38:51.000Z</time>
      </trkpt>
      <trkpt lat="43.32768" lon="5.68966">
        <ele>806</ele>
        <time>2019-11-29T12:38:52.000Z</time>
      </trkpt>
      <trkpt lat="43.32767" lon="5.68965">
        <ele>806</ele>
        <time>2019-11-29T12:38:53.000Z</time>
      </trkpt>
      <trkpt lat="43.32768" lon="5.68965">
        <ele>806</ele>
        <time>2019-11-29T12:38:54.000Z</time>
      </trkpt>
      <trkpt lat="43.32768" lon="5.68966">
        <ele>806</ele>
        <time>2019-11-29T12:38:55.000Z</time>
      </trkpt>
      <trkpt lat="43.32768" lon="5.68966">
        <ele>806</ele>
        <time>2019-11-29T12:38:56.000Z</time>
      </trkpt>
      <trkpt lat="43.32768" lon="5.68967">
        <ele>806</ele>
        <time>2019-11-29T12:38:57.000Z</time>
      </trkpt>
      <trkpt lat="43.32769" lon="5.68968">
        <ele>806</ele>
        <time>2019-11-29T12:38:58.000Z</time>
      </trkpt>
      <trkpt lat="43.32769" lon="5.68968">
        <ele>806</ele>
        <time>2019-11-29T12:38:59.000Z</time>
      </trkpt>
      <trkpt lat="43.32769" lon="5.68968">
        <ele>806</ele>
        <time>2019-11-29T12:39:00.000Z</time>
      </trkpt>
      <trkpt lat="43.32769" lon="5.68968">
        <ele>807</ele>
        <time>2019-11-29T12:39:01.000Z</time>
      </trkpt>
      <trkpt lat="43.32769" lon="5.68968">
        <ele>807</ele>
        <time>2019-11-29T12:39:02.000Z</time>
      </trkpt>
      <trkpt lat="43.32769" lon="5.68968">
        <ele>807</ele>
        <time>2019-11-29T12:39:03.000Z</time>
      </trkpt>
      <trkpt lat="43.32769" lon="5.68968">
        <ele>807</ele>
        <time>2019-11-29T12:39:04.000Z</time>
      </trkpt>
      <trkpt lat="43.32769" lon="5.68968">
        <ele>807</ele>
        <time>2019-11-29T12:39:05.000Z</time>
      </trkpt>
      <trkpt lat="43.32769" lon="5.68968">
        <ele>807</ele>
        <time>2019-11-29T12:39:06.000Z</time>
      </trkpt>
      <trkpt lat="43.32769" lon="5.68968">
        <ele>807</ele>
        <time>2019-11-29T12:39:07.000Z</time>
      </trkpt>
      <trkpt lat="43.32769" lon="5.68968">
        <ele>807</ele>
        <time>2019-11-29T12:39:08.000Z</time>
      </trkpt>
      <trkpt lat="43.32769" lon="5.68968">
        <ele>807</ele>
        <time>2019-11-29T12:39:09.000Z</time>
      </trkpt>
      <trkpt lat="43.32769" lon="5.68968">
        <ele>807</ele>
        <time>2019-11-29T12:39:10.000Z</time>
      </trkpt>
      <trkpt lat="43.32769" lon="5.68969">
        <ele>807</ele>
        <time>2019-11-29T12:39:11.000Z</time>
      </trkpt>
      <trkpt lat="43.32769" lon="5.6897">
        <ele>807</ele>
        <time>2019-11-29T12:39:12.000Z</time>
      </trkpt>
      <trkpt lat="43.32769" lon="5.6897">
        <ele>807</ele>
        <time>2019-11-29T12:39:13.000Z</time>
      </trkpt>
      <trkpt lat="43.32769" lon="5.6897">
        <ele>807</ele>
        <time>2019-11-29T12:39:14.000Z</time>
      </trkpt>
      <trkpt lat="43.32769" lon="5.6897">
        <ele>807</ele>
        <time>2019-11-29T12:39:15.000Z</time>
      </trkpt>
      <trkpt lat="43.32769" lon="5.6897">
        <ele>807</ele>
        <time>2019-11-29T12:39:16.000Z</time>
      </trkpt>
      <trkpt lat="43.32769" lon="5.68971">
        <ele>807</ele>
        <time>2019-11-29T12:39:17.000Z</time>
      </trkpt>
      <trkpt lat="43.32769" lon="5.68971">
        <ele>807</ele>
        <time>2019-11-29T12:39:18.000Z</time>
      </trkpt>
      <trkpt lat="43.32769" lon="5.6897">
        <ele>808</ele>
        <time>2019-11-29T12:39:19.000Z</time>
      </trkpt>
      <trkpt lat="43.32768" lon="5.6897">
        <ele>808</ele>
        <time>2019-11-29T12:39:20.000Z</time>
      </trkpt>
      <trkpt lat="43.32768" lon="5.68971">
        <ele>808</ele>
        <time>2019-11-29T12:39:21.000Z</time>
      </trkpt>
      <trkpt lat="43.32768" lon="5.68971">
        <ele>808</ele>
        <time>2019-11-29T12:39:22.000Z</time>
      </trkpt>
      <trkpt lat="43.32768" lon="5.68971">
        <ele>808</ele>
        <time>2019-11-29T12:39:23.000Z</time>
      </trkpt>
      <trkpt lat="43.32768" lon="5.68971">
        <ele>808</ele>
        <time>2019-11-29T12:39:24.000Z</time>
      </trkpt>
      <trkpt lat="43.32768" lon="5.68971">
        <ele>808</ele>
        <time>2019-11-29T12:39:25.000Z</time>
      </trkpt>
      <trkpt lat="43.32768" lon="5.68971">
        <ele>808</ele>
        <time>2019-11-29T12:39:26.000Z</time>
      </trkpt>
      <trkpt lat="43.32768" lon="5.68971">
        <ele>808</ele>
        <time>2019-11-29T12:39:27.000Z</time>
      </trkpt>
      <trkpt lat="43.32768" lon="5.68971">
        <ele>808</ele>
        <time>2019-11-29T12:39:28.000Z</time>
      </trkpt>
      <trkpt lat="43.32768" lon="5.68971">
        <ele>808</ele>
        <time>2019-11-29T12:39:29.000Z</time>
      </trkpt>
      <trkpt lat="43.32768" lon="5.68971">
        <ele>808</ele>
        <time>2019-11-29T12:39:30.000Z</time>
      </trkpt>
      <trkpt lat="43.32768" lon="5.68971">
        <ele>808</ele>
        <time>2019-11-29T12:39:31.000Z</time>
      </trkpt>
      <trkpt lat="43.32768" lon="5.68971">
        <ele>808</ele>
        <time>2019-11-29T12:39:32.000Z</time>
      </trkpt>
      <trkpt lat="43.32768" lon="5.68971">
        <ele>808</ele>
        <time>2019-11-29T12:39:33.000Z</time>
      </trkpt>
      <trkpt lat="43.32768" lon="5.68971">
        <ele>808</ele>
        <time>2019-11-29T12:39:34.000Z</time>
      </trkpt>
      <trkpt lat="43.32768" lon="5.68971">
        <ele>808</ele>
        <time>2019-11-29T12:39:35.000Z</time>
      </trkpt>
      <trkpt lat="43.32769" lon="5.68971">
        <ele>809</ele>
        <time>2019-11-29T12:39:36.000Z</time>
      </trkpt>
      <trkpt lat="43.32769" lon="5.68972">
        <ele>809</ele>
        <time>2019-11-29T12:39:37.000Z</time>
      </trkpt>
      <trkpt lat="43.32769" lon="5.68972">
        <ele>809</ele>
        <time>2019-11-29T12:39:38.000Z</time>
      </trkpt>
      <trkpt lat="43.32769" lon="5.68972">
        <ele>809</ele>
        <time>2019-11-29T12:39:39.000Z</time>
      </trkpt>
      <trkpt lat="43.32769" lon="5.68972">
        <ele>809</ele>
        <time>2019-11-29T12:39:40.000Z</time>
      </trkpt>
      <trkpt lat="43.32769" lon="5.68972">
        <ele>809</ele>
        <time>2019-11-29T12:39:41.000Z</time>
      </trkpt>
      <trkpt lat="43.32769" lon="5.68972">
        <ele>809</ele>
        <time>2019-11-29T12:39:42.000Z</time>
      </trkpt>
      <trkpt lat="43.32769" lon="5.68972">
        <ele>809</ele>
        <time>2019-11-29T12:39:43.000Z</time>
      </trkpt>
      <trkpt lat="43.32769" lon="5.68972">
        <ele>809</ele>
        <time>2019-11-29T12:39:44.000Z</time>
      </trkpt>
      <trkpt lat="43.32769" lon="5.68972">
        <ele>810</ele>
        <time>2019-11-29T12:39:45.000Z</time>
      </trkpt>
      <trkpt lat="43.32769" lon="5.68971">
        <ele>810</ele>
        <time>2019-11-29T12:39:46.000Z</time>
      </trkpt>
      <trkpt lat="43.32769" lon="5.68971">
        <ele>810</ele>
        <time>2019-11-29T12:39:47.000Z</time>
      </trkpt>
      <trkpt lat="43.32769" lon="5.68971">
        <ele>810</ele>
        <time>2019-11-29T12:39:48.000Z</time>
      </trkpt>
      <trkpt lat="43.32769" lon="5.68971">
        <ele>810</ele>
        <time>2019-11-29T12:39:49.000Z</time>
      </trkpt>
      <trkpt lat="43.32769" lon="5.68971">
        <ele>810</ele>
        <time>2019-11-29T12:39:50.000Z</time>
      </trkpt>
      <trkpt lat="43.32768" lon="5.68971">
        <ele>810</ele>
        <time>2019-11-29T12:39:51.000Z</time>
      </trkpt>
      <trkpt lat="43.32768" lon="5.68971">
        <ele>810</ele>
        <time>2019-11-29T12:39:52.000Z</time>
      </trkpt>
      <trkpt lat="43.32768" lon="5.68971">
        <ele>810</ele>
        <time>2019-11-29T12:39:53.000Z</time>
      </trkpt>
      <trkpt lat="43.32768" lon="5.68971">
        <ele>810</ele>
        <time>2019-11-29T12:39:54.000Z</time>
      </trkpt>
      <trkpt lat="43.32768" lon="5.68971">
        <ele>810</ele>
        <time>2019-11-29T12:39:55.000Z</time>
      </trkpt>
      <trkpt lat="43.32768" lon="5.68971">
        <ele>810</ele>
        <time>2019-11-29T12:39:56.000Z</time>
      </trkpt>
      <trkpt lat="43.32769" lon="5.68971">
        <ele>811</ele>
        <time>2019-11-29T12:39:57.000Z</time>
      </trkpt>
      <trkpt lat="43.32769" lon="5.68971">
        <ele>811</ele>
        <time>2019-11-29T12:39:58.000Z</time>
      </trkpt>
      <trkpt lat="43.32768" lon="5.6897">
        <ele>811</ele>
        <time>2019-11-29T12:39:59.000Z</time>
      </trkpt>
      <trkpt lat="43.32768" lon="5.6897">
        <ele>811</ele>
        <time>2019-11-29T12:40:00.000Z</time>
      </trkpt>
      <trkpt lat="43.32768" lon="5.6897">
        <ele>811</ele>
        <time>2019-11-29T12:40:01.000Z</time>
      </trkpt>
      <trkpt lat="43.32768" lon="5.6897">
        <ele>811</ele>
        <time>2019-11-29T12:40:02.000Z</time>
      </trkpt>
      <trkpt lat="43.32768" lon="5.6897">
        <ele>811</ele>
        <time>2019-11-29T12:40:03.000Z</time>
      </trkpt>
      <trkpt lat="43.32769" lon="5.68971">
        <ele>811</ele>
        <time>2019-11-29T12:40:04.000Z</time>
      </trkpt>
      <trkpt lat="43.32769" lon="5.68971">
        <ele>811</ele>
        <time>2019-11-29T12:40:05.000Z</time>
      </trkpt>
      <trkpt lat="43.32769" lon="5.68971">
        <ele>811</ele>
        <time>2019-11-29T12:40:06.000Z</time>
      </trkpt>
      <trkpt lat="43.32768" lon="5.68971">
        <ele>811</ele>
        <time>2019-11-29T12:40:07.000Z</time>
      </trkpt>
      <trkpt lat="43.32768" lon="5.68972">
        <ele>811</ele>
        <time>2019-11-29T12:40:08.000Z</time>
      </trkpt>
      <trkpt lat="43.32768" lon="5.68972">
        <ele>811</ele>
        <time>2019-11-29T12:40:09.000Z</time>
      </trkpt>
      <trkpt lat="43.32768" lon="5.68972">
        <ele>811</ele>
        <time>2019-11-29T12:40:10.000Z</time>
      </trkpt>
      <trkpt lat="43.32768" lon="5.68972">
        <ele>811</ele>
        <time>2019-11-29T12:40:11.000Z</time>
      </trkpt>
      <trkpt lat="43.32768" lon="5.68972">
        <ele>811</ele>
        <time>2019-11-29T12:40:12.000Z</time>
      </trkpt>
      <trkpt lat="43.32768" lon="5.68972">
        <ele>811</ele>
        <time>2019-11-29T12:40:13.000Z</time>
      </trkpt>
      <trkpt lat="43.32768" lon="5.68972">
        <ele>811</ele>
        <time>2019-11-29T12:40:14.000Z</time>
      </trkpt>
      <trkpt lat="43.32768" lon="5.68972">
        <ele>811</ele>
        <time>2019-11-29T12:40:15.000Z</time>
      </trkpt>
      <trkpt lat="43.32767" lon="5.68972">
        <ele>811</ele>
        <time>2019-11-29T12:40:16.000Z</time>
      </trkpt>
      <trkpt lat="43.32768" lon="5.68972">
        <ele>812</ele>
        <time>2019-11-29T12:40:17.000Z</time>
      </trkpt>
      <trkpt lat="43.32768" lon="5.68973">
        <ele>812</ele>
        <time>2019-11-29T12:40:18.000Z</time>
      </trkpt>
      <trkpt lat="43.32768" lon="5.68973">
        <ele>812</ele>
        <time>2019-11-29T12:40:19.000Z</time>
      </trkpt>
      <trkpt lat="43.32768" lon="5.68974">
        <ele>812</ele>
        <time>2019-11-29T12:40:20.000Z</time>
      </trkpt>
      <trkpt lat="43.32768" lon="5.68975">
        <ele>812</ele>
        <time>2019-11-29T12:40:21.000Z</time>
      </trkpt>
      <trkpt lat="43.32768" lon="5.68976">
        <ele>812</ele>
        <time>2019-11-29T12:40:22.000Z</time>
      </trkpt>
      <trkpt lat="43.32768" lon="5.68976">
        <ele>812</ele>
        <time>2019-11-29T12:40:23.000Z</time>
      </trkpt>
      <trkpt lat="43.32768" lon="5.68977">
        <ele>812</ele>
        <time>2019-11-29T12:40:24.000Z</time>
      </trkpt>
      <trkpt lat="43.32768" lon="5.68978">
        <ele>812</ele>
        <time>2019-11-29T12:40:25.000Z</time>
      </trkpt>
      <trkpt lat="43.32768" lon="5.68978">
        <ele>813</ele>
        <time>2019-11-29T12:40:26.000Z</time>
      </trkpt>
      <trkpt lat="43.32768" lon="5.68978">
        <ele>813</ele>
        <time>2019-11-29T12:40:27.000Z</time>
      </trkpt>
      <trkpt lat="43.32768" lon="5.68978">
        <ele>813</ele>
        <time>2019-11-29T12:40:28.000Z</time>
      </trkpt>
      <trkpt lat="43.32769" lon="5.68979">
        <ele>813</ele>
        <time>2019-11-29T12:40:29.000Z</time>
      </trkpt>
      <trkpt lat="43.32769" lon="5.68979">
        <ele>813</ele>
        <time>2019-11-29T12:40:30.000Z</time>
      </trkpt>
      <trkpt lat="43.32769" lon="5.6898">
        <ele>813</ele>
        <time>2019-11-29T12:40:31.000Z</time>
      </trkpt>
      <trkpt lat="43.32768" lon="5.6898">
        <ele>813</ele>
        <time>2019-11-29T12:40:32.000Z</time>
      </trkpt>
      <trkpt lat="43.32768" lon="5.6898">
        <ele>813</ele>
        <time>2019-11-29T12:40:33.000Z</time>
      </trkpt>
      <trkpt lat="43.32768" lon="5.68981">
        <ele>813</ele>
        <time>2019-11-29T12:40:34.000Z</time>
      </trkpt>
      <trkpt lat="43.32768" lon="5.68981">
        <ele>813</ele>
        <time>2019-11-29T12:40:35.000Z</time>
      </trkpt>
      <trkpt lat="43.32768" lon="5.68981">
        <ele>813</ele>
        <time>2019-11-29T12:40:36.000Z</time>
      </trkpt>
      <trkpt lat="43.32769" lon="5.68981">
        <ele>814</ele>
        <time>2019-11-29T12:40:37.000Z</time>
      </trkpt>
      <trkpt lat="43.32769" lon="5.68983">
        <ele>814</ele>
        <time>2019-11-29T12:40:38.000Z</time>
      </trkpt>
      <trkpt lat="43.3277" lon="5.68984">
        <ele>814</ele>
        <time>2019-11-29T12:40:39.000Z</time>
      </trkpt>
      <trkpt lat="43.3277" lon="5.68985">
        <ele>814</ele>
        <time>2019-11-29T12:40:40.000Z</time>
      </trkpt>
      <trkpt lat="43.3277" lon="5.68986">
        <ele>814</ele>
        <time>2019-11-29T12:40:41.000Z</time>
      </trkpt>
      <trkpt lat="43.3277" lon="5.68987">
        <ele>815</ele>
        <time>2019-11-29T12:40:42.000Z</time>
      </trkpt>
      <trkpt lat="43.3277" lon="5.68988">
        <ele>815</ele>
        <time>2019-11-29T12:40:43.000Z</time>
      </trkpt>
      <trkpt lat="43.32769" lon="5.68989">
        <ele>815</ele>
        <time>2019-11-29T12:40:44.000Z</time>
      </trkpt>
      <trkpt lat="43.32768" lon="5.68989">
        <ele>815</ele>
        <time>2019-11-29T12:40:45.000Z</time>
      </trkpt>
      <trkpt lat="43.32768" lon="5.68988">
        <ele>816</ele>
        <time>2019-11-29T12:40:46.000Z</time>
      </trkpt>
      <trkpt lat="43.32767" lon="5.68988">
        <ele>816</ele>
        <time>2019-11-29T12:40:47.000Z</time>
      </trkpt>
      <trkpt lat="43.32767" lon="5.68988">
        <ele>816</ele>
        <time>2019-11-29T12:40:48.000Z</time>
      </trkpt>
      <trkpt lat="43.32767" lon="5.68988">
        <ele>816</ele>
        <time>2019-11-29T12:40:49.000Z</time>
      </trkpt>
      <trkpt lat="43.32767" lon="5.68988">
        <ele>816</ele>
        <time>2019-11-29T12:40:50.000Z</time>
      </trkpt>
      <trkpt lat="43.32767" lon="5.68988">
        <ele>816</ele>
        <time>2019-11-29T12:40:51.000Z</time>
      </trkpt>
      <trkpt lat="43.32767" lon="5.68988">
        <ele>816</ele>
        <time>2019-11-29T12:40:52.000Z</time>
      </trkpt>
      <trkpt lat="43.32767" lon="5.68986">
        <ele>816</ele>
        <time>2019-11-29T12:40:53.000Z</time>
      </trkpt>
      <trkpt lat="43.32766" lon="5.68986">
        <ele>816</ele>
        <time>2019-11-29T12:40:54.000Z</time>
      </trkpt>
      <trkpt lat="43.32766" lon="5.68986">
        <ele>816</ele>
        <time>2019-11-29T12:40:55.000Z</time>
      </trkpt>
      <trkpt lat="43.32766" lon="5.68985">
        <ele>817</ele>
        <time>2019-11-29T12:40:56.000Z</time>
      </trkpt>
      <trkpt lat="43.32765" lon="5.68986">
        <ele>817</ele>
        <time>2019-11-29T12:40:57.000Z</time>
      </trkpt>
      <trkpt lat="43.32765" lon="5.68985">
        <ele>817</ele>
        <time>2019-11-29T12:40:58.000Z</time>
      </trkpt>
      <trkpt lat="43.32766" lon="5.68985">
        <ele>817</ele>
        <time>2019-11-29T12:40:59.000Z</time>
      </trkpt>
      <trkpt lat="43.32766" lon="5.68985">
        <ele>817</ele>
        <time>2019-11-29T12:41:00.000Z</time>
      </trkpt>
      <trkpt lat="43.32766" lon="5.68985">
        <ele>817</ele>
        <time>2019-11-29T12:41:01.000Z</time>
      </trkpt>
      <trkpt lat="43.32766" lon="5.68985">
        <ele>817</ele>
        <time>2019-11-29T12:41:02.000Z</time>
      </trkpt>
      <trkpt lat="43.32766" lon="5.68985">
        <ele>817</ele>
        <time>2019-11-29T12:41:03.000Z</time>
      </trkpt>
      <trkpt lat="43.32766" lon="5.68986">
        <ele>817</ele>
        <time>2019-11-29T12:41:04.000Z</time>
      </trkpt>
      <trkpt lat="43.32766" lon="5.68986">
        <ele>817</ele>
        <time>2019-11-29T12:41:05.000Z</time>
      </trkpt>
      <trkpt lat="43.32766" lon="5.68986">
        <ele>817</ele>
        <time>2019-11-29T12:41:06.000Z</time>
      </trkpt>
      <trkpt lat="43.32766" lon="5.68986">
        <ele>817</ele>
        <time>2019-11-29T12:41:07.000Z</time>
      </trkpt>
      <trkpt lat="43.32765" lon="5.68986">
        <ele>818</ele>
        <time>2019-11-29T12:41:08.000Z</time>
      </trkpt>
      <trkpt lat="43.32765" lon="5.68985">
        <ele>818</ele>
        <time>2019-11-29T12:41:09.000Z</time>
      </trkpt>
      <trkpt lat="43.32765" lon="5.68984">
        <ele>818</ele>
        <time>2019-11-29T12:41:10.000Z</time>
      </trkpt>
      <trkpt lat="43.32764" lon="5.68984">
        <ele>818</ele>
        <time>2019-11-29T12:41:11.000Z</time>
      </trkpt>
      <trkpt lat="43.32763" lon="5.68984">
        <ele>818</ele>
        <time>2019-11-29T12:41:12.000Z</time>
      </trkpt>
      <trkpt lat="43.32763" lon="5.68983">
        <ele>818</ele>
        <time>2019-11-29T12:41:13.000Z</time>
      </trkpt>
      <trkpt lat="43.32762" lon="5.68984">
        <ele>818</ele>
        <time>2019-11-29T12:41:14.000Z</time>
      </trkpt>
      <trkpt lat="43.32762" lon="5.68984">
        <ele>818</ele>
        <time>2019-11-29T12:41:15.000Z</time>
      </trkpt>
      <trkpt lat="43.32761" lon="5.68984">
        <ele>818</ele>
        <time>2019-11-29T12:41:16.000Z</time>
      </trkpt>
      <trkpt lat="43.32761" lon="5.68984">
        <ele>819</ele>
        <time>2019-11-29T12:41:17.000Z</time>
      </trkpt>
      <trkpt lat="43.32761" lon="5.68984">
        <ele>819</ele>
        <time>2019-11-29T12:41:18.000Z</time>
      </trkpt>
      <trkpt lat="43.32761" lon="5.68985">
        <ele>819</ele>
        <time>2019-11-29T12:41:19.000Z</time>
      </trkpt>
      <trkpt lat="43.3276" lon="5.68985">
        <ele>819</ele>
        <time>2019-11-29T12:41:20.000Z</time>
      </trkpt>
      <trkpt lat="43.3276" lon="5.68986">
        <ele>819</ele>
        <time>2019-11-29T12:41:21.000Z</time>
      </trkpt>
      <trkpt lat="43.3276" lon="5.68986">
        <ele>819</ele>
        <time>2019-11-29T12:41:22.000Z</time>
      </trkpt>
      <trkpt lat="43.32759" lon="5.68985">
        <ele>819</ele>
        <time>2019-11-29T12:41:23.000Z</time>
      </trkpt>
      <trkpt lat="43.32759" lon="5.68985">
        <ele>820</ele>
        <time>2019-11-29T12:41:24.000Z</time>
      </trkpt>
      <trkpt lat="43.32758" lon="5.68985">
        <ele>820</ele>
        <time>2019-11-29T12:41:25.000Z</time>
      </trkpt>
      <trkpt lat="43.32757" lon="5.68986">
        <ele>820</ele>
        <time>2019-11-29T12:41:26.000Z</time>
      </trkpt>
      <trkpt lat="43.32757" lon="5.68986">
        <ele>820</ele>
        <time>2019-11-29T12:41:27.000Z</time>
      </trkpt>
      <trkpt lat="43.32757" lon="5.68987">
        <ele>821</ele>
        <time>2019-11-29T12:41:28.000Z</time>
      </trkpt>
      <trkpt lat="43.32756" lon="5.68987">
        <ele>821</ele>
        <time>2019-11-29T12:41:29.000Z</time>
      </trkpt>
      <trkpt lat="43.32755" lon="5.68988">
        <ele>821</ele>
        <time>2019-11-29T12:41:30.000Z</time>
      </trkpt>
      <trkpt lat="43.32755" lon="5.68987">
        <ele>821</ele>
        <time>2019-11-29T12:41:31.000Z</time>
      </trkpt>
      <trkpt lat="43.32755" lon="5.68987">
        <ele>821</ele>
        <time>2019-11-29T12:41:32.000Z</time>
      </trkpt>
      <trkpt lat="43.32755" lon="5.68987">
        <ele>821</ele>
        <time>2019-11-29T12:41:33.000Z</time>
      </trkpt>
      <trkpt lat="43.32755" lon="5.68987">
        <ele>821</ele>
        <time>2019-11-29T12:41:34.000Z</time>
      </trkpt>
      <trkpt lat="43.32755" lon="5.68987">
        <ele>821</ele>
        <time>2019-11-29T12:41:35.000Z</time>
      </trkpt>
      <trkpt lat="43.32755" lon="5.68987">
        <ele>822</ele>
        <time>2019-11-29T12:41:36.000Z</time>
      </trkpt>
      <trkpt lat="43.32754" lon="5.68987">
        <ele>822</ele>
        <time>2019-11-29T12:41:37.000Z</time>
      </trkpt>
      <trkpt lat="43.32754" lon="5.68987">
        <ele>822</ele>
        <time>2019-11-29T12:41:38.000Z</time>
      </trkpt>
      <trkpt lat="43.32754" lon="5.68987">
        <ele>822</ele>
        <time>2019-11-29T12:41:39.000Z</time>
      </trkpt>
      <trkpt lat="43.32754" lon="5.68987">
        <ele>822</ele>
        <time>2019-11-29T12:41:40.000Z</time>
      </trkpt>
      <trkpt lat="43.32754" lon="5.68988">
        <ele>822</ele>
        <time>2019-11-29T12:41:41.000Z</time>
      </trkpt>
      <trkpt lat="43.32754" lon="5.68987">
        <ele>822</ele>
        <time>2019-11-29T12:41:42.000Z</time>
      </trkpt>
      <trkpt lat="43.32753" lon="5.68987">
        <ele>822</ele>
        <time>2019-11-29T12:41:43.000Z</time>
      </trkpt>
      <trkpt lat="43.32753" lon="5.68986">
        <ele>822</ele>
        <time>2019-11-29T12:41:44.000Z</time>
      </trkpt>
      <trkpt lat="43.32752" lon="5.68986">
        <ele>822</ele>
        <time>2019-11-29T12:41:45.000Z</time>
      </trkpt>
      <trkpt lat="43.32751" lon="5.68985">
        <ele>822</ele>
        <time>2019-11-29T12:41:46.000Z</time>
      </trkpt>
      <trkpt lat="43.32751" lon="5.68985">
        <ele>822</ele>
        <time>2019-11-29T12:41:47.000Z</time>
      </trkpt>
      <trkpt lat="43.3275" lon="5.68984">
        <ele>823</ele>
        <time>2019-11-29T12:41:48.000Z</time>
      </trkpt>
      <trkpt lat="43.32749" lon="5.68983">
        <ele>823</ele>
        <time>2019-11-29T12:41:49.000Z</time>
      </trkpt>
      <trkpt lat="43.32749" lon="5.68983">
        <ele>823</ele>
        <time>2019-11-29T12:41:50.000Z</time>
      </trkpt>
      <trkpt lat="43.32748" lon="5.68982">
        <ele>823</ele>
        <time>2019-11-29T12:41:51.000Z</time>
      </trkpt>
      <trkpt lat="43.32748" lon="5.68981">
        <ele>823</ele>
        <time>2019-11-29T12:41:52.000Z</time>
      </trkpt>
      <trkpt lat="43.32747" lon="5.68981">
        <ele>823</ele>
        <time>2019-11-29T12:41:53.000Z</time>
      </trkpt>
      <trkpt lat="43.32747" lon="5.6898">
        <ele>823</ele>
        <time>2019-11-29T12:41:54.000Z</time>
      </trkpt>
      <trkpt lat="43.32746" lon="5.68979">
        <ele>823</ele>
        <time>2019-11-29T12:41:55.000Z</time>
      </trkpt>
      <trkpt lat="43.32746" lon="5.68978">
        <ele>823</ele>
        <time>2019-11-29T12:41:56.000Z</time>
      </trkpt>
      <trkpt lat="43.32746" lon="5.68978">
        <ele>823</ele>
        <time>2019-11-29T12:41:57.000Z</time>
      </trkpt>
      <trkpt lat="43.32745" lon="5.68977">
        <ele>822</ele>
        <time>2019-11-29T12:41:58.000Z</time>
      </trkpt>
      <trkpt lat="43.32745" lon="5.68975">
        <ele>822</ele>
        <time>2019-11-29T12:41:59.000Z</time>
      </trkpt>
      <trkpt lat="43.32745" lon="5.68974">
        <ele>822</ele>
        <time>2019-11-29T12:42:00.000Z</time>
      </trkpt>
      <trkpt lat="43.32744" lon="5.68973">
        <ele>822</ele>
        <time>2019-11-29T12:42:01.000Z</time>
      </trkpt>
      <trkpt lat="43.32744" lon="5.68972">
        <ele>822</ele>
        <time>2019-11-29T12:42:02.000Z</time>
      </trkpt>
      <trkpt lat="43.32743" lon="5.68971">
        <ele>822</ele>
        <time>2019-11-29T12:42:03.000Z</time>
      </trkpt>
      <trkpt lat="43.32742" lon="5.68969">
        <ele>822</ele>
        <time>2019-11-29T12:42:04.000Z</time>
      </trkpt>
      <trkpt lat="43.32742" lon="5.68968">
        <ele>822</ele>
        <time>2019-11-29T12:42:05.000Z</time>
      </trkpt>
      <trkpt lat="43.32741" lon="5.68967">
        <ele>822</ele>
        <time>2019-11-29T12:42:06.000Z</time>
      </trkpt>
      <trkpt lat="43.3274" lon="5.68966">
        <ele>822</ele>
        <time>2019-11-29T12:42:07.000Z</time>
      </trkpt>
      <trkpt lat="43.3274" lon="5.68965">
        <ele>822</ele>
        <time>2019-11-29T12:42:08.000Z</time>
      </trkpt>
      <trkpt lat="43.32739" lon="5.68964">
        <ele>822</ele>
        <time>2019-11-29T12:42:09.000Z</time>
      </trkpt>
      <trkpt lat="43.32739" lon="5.68964">
        <ele>822</ele>
        <time>2019-11-29T12:42:10.000Z</time>
      </trkpt>
      <trkpt lat="43.32739" lon="5.68963">
        <ele>822</ele>
        <time>2019-11-29T12:42:11.000Z</time>
      </trkpt>
      <trkpt lat="43.32738" lon="5.68962">
        <ele>823</ele>
        <time>2019-11-29T12:42:12.000Z</time>
      </trkpt>
      <trkpt lat="43.32738" lon="5.68961">
        <ele>823</ele>
        <time>2019-11-29T12:42:13.000Z</time>
      </trkpt>
      <trkpt lat="43.32738" lon="5.6896">
        <ele>823</ele>
        <time>2019-11-29T12:42:14.000Z</time>
      </trkpt>
      <trkpt lat="43.32738" lon="5.6896">
        <ele>823</ele>
        <time>2019-11-29T12:42:15.000Z</time>
      </trkpt>
      <trkpt lat="43.32738" lon="5.6896">
        <ele>823</ele>
        <time>2019-11-29T12:42:16.000Z</time>
      </trkpt>
      <trkpt lat="43.32738" lon="5.6896">
        <ele>823</ele>
        <time>2019-11-29T12:42:17.000Z</time>
      </trkpt>
      <trkpt lat="43.32738" lon="5.6896">
        <ele>823</ele>
        <time>2019-11-29T12:42:18.000Z</time>
      </trkpt>
      <trkpt lat="43.32738" lon="5.6896">
        <ele>823</ele>
        <time>2019-11-29T12:42:19.000Z</time>
      </trkpt>
      <trkpt lat="43.32738" lon="5.6896">
        <ele>823</ele>
        <time>2019-11-29T12:42:20.000Z</time>
      </trkpt>
      <trkpt lat="43.32738" lon="5.6896">
        <ele>823</ele>
        <time>2019-11-29T12:42:21.000Z</time>
      </trkpt>
      <trkpt lat="43.32739" lon="5.6896">
        <ele>823</ele>
        <time>2019-11-29T12:42:22.000Z</time>
      </trkpt>
      <trkpt lat="43.32739" lon="5.68959">
        <ele>823</ele>
        <time>2019-11-29T12:42:23.000Z</time>
      </trkpt>
      <trkpt lat="43.32739" lon="5.6896">
        <ele>823</ele>
        <time>2019-11-29T12:42:24.000Z</time>
      </trkpt>
      <trkpt lat="43.32738" lon="5.6896">
        <ele>823</ele>
        <time>2019-11-29T12:42:25.000Z</time>
      </trkpt>
      <trkpt lat="43.32739" lon="5.6896">
        <ele>823</ele>
        <time>2019-11-29T12:42:26.000Z</time>
      </trkpt>
      <trkpt lat="43.32739" lon="5.6896">
        <ele>823</ele>
        <time>2019-11-29T12:42:27.000Z</time>
      </trkpt>
      <trkpt lat="43.32739" lon="5.6896">
        <ele>823</ele>
        <time>2019-11-29T12:42:28.000Z</time>
      </trkpt>
      <trkpt lat="43.32739" lon="5.6896">
        <ele>823</ele>
        <time>2019-11-29T12:42:29.000Z</time>
      </trkpt>
      <trkpt lat="43.32739" lon="5.6896">
        <ele>823</ele>
        <time>2019-11-29T12:42:30.000Z</time>
      </trkpt>
      <trkpt lat="43.32739" lon="5.6896">
        <ele>823</ele>
        <time>2019-11-29T12:42:31.000Z</time>
      </trkpt>
      <trkpt lat="43.32739" lon="5.6896">
        <ele>823</ele>
        <time>2019-11-29T12:42:32.000Z</time>
      </trkpt>
      <trkpt lat="43.32739" lon="5.6896">
        <ele>823</ele>
        <time>2019-11-29T12:42:33.000Z</time>
      </trkpt>
      <trkpt lat="43.32738" lon="5.6896">
        <ele>823</ele>
        <time>2019-11-29T12:42:34.000Z</time>
      </trkpt>
      <trkpt lat="43.32738" lon="5.6896">
        <ele>823</ele>
        <time>2019-11-29T12:42:35.000Z</time>
      </trkpt>
      <trkpt lat="43.32738" lon="5.68959">
        <ele>823</ele>
        <time>2019-11-29T12:42:36.000Z</time>
      </trkpt>
      <trkpt lat="43.32738" lon="5.68959">
        <ele>823</ele>
        <time>2019-11-29T12:42:37.000Z</time>
      </trkpt>
      <trkpt lat="43.32738" lon="5.68959">
        <ele>823</ele>
        <time>2019-11-29T12:42:38.000Z</time>
      </trkpt>
      <trkpt lat="43.32738" lon="5.6896">
        <ele>823</ele>
        <time>2019-11-29T12:42:39.000Z</time>
      </trkpt>
      <trkpt lat="43.32738" lon="5.6896">
        <ele>823</ele>
        <time>2019-11-29T12:42:40.000Z</time>
      </trkpt>
      <trkpt lat="43.32738" lon="5.68959">
        <ele>823</ele>
        <time>2019-11-29T12:42:41.000Z</time>
      </trkpt>
      <trkpt lat="43.32738" lon="5.68958">
        <ele>823</ele>
        <time>2019-11-29T12:42:42.000Z</time>
      </trkpt>
      <trkpt lat="43.32738" lon="5.68958">
        <ele>823</ele>
        <time>2019-11-29T12:42:43.000Z</time>
      </trkpt>
      <trkpt lat="43.32738" lon="5.68958">
        <ele>823</ele>
        <time>2019-11-29T12:42:44.000Z</time>
      </trkpt>
      <trkpt lat="43.32738" lon="5.68957">
        <ele>824</ele>
        <time>2019-11-29T12:42:45.000Z</time>
      </trkpt>
      <trkpt lat="43.32738" lon="5.68956">
        <ele>824</ele>
        <time>2019-11-29T12:42:46.000Z</time>
      </trkpt>
      <trkpt lat="43.32738" lon="5.68956">
        <ele>824</ele>
        <time>2019-11-29T12:42:47.000Z</time>
      </trkpt>
      <trkpt lat="43.32738" lon="5.68955">
        <ele>824</ele>
        <time>2019-11-29T12:42:48.000Z</time>
      </trkpt>
      <trkpt lat="43.32738" lon="5.68955">
        <ele>824</ele>
        <time>2019-11-29T12:42:49.000Z</time>
      </trkpt>
      <trkpt lat="43.32738" lon="5.68955">
        <ele>824</ele>
        <time>2019-11-29T12:42:50.000Z</time>
      </trkpt>
      <trkpt lat="43.32738" lon="5.68955">
        <ele>824</ele>
        <time>2019-11-29T12:42:51.000Z</time>
      </trkpt>
      <trkpt lat="43.32738" lon="5.68955">
        <ele>824</ele>
        <time>2019-11-29T12:42:52.000Z</time>
      </trkpt>
      <trkpt lat="43.32738" lon="5.68954">
        <ele>824</ele>
        <time>2019-11-29T12:42:53.000Z</time>
      </trkpt>
      <trkpt lat="43.32738" lon="5.68954">
        <ele>824</ele>
        <time>2019-11-29T12:42:54.000Z</time>
      </trkpt>
      <trkpt lat="43.32738" lon="5.68954">
        <ele>824</ele>
        <time>2019-11-29T12:42:55.000Z</time>
      </trkpt>
      <trkpt lat="43.32738" lon="5.68954">
        <ele>824</ele>
        <time>2019-11-29T12:42:56.000Z</time>
      </trkpt>
      <trkpt lat="43.32738" lon="5.68954">
        <ele>824</ele>
        <time>2019-11-29T12:42:57.000Z</time>
      </trkpt>
      <trkpt lat="43.32738" lon="5.68954">
        <ele>824</ele>
        <time>2019-11-29T12:42:58.000Z</time>
      </trkpt>
      <trkpt lat="43.32738" lon="5.68954">
        <ele>824</ele>
        <time>2019-11-29T12:42:59.000Z</time>
      </trkpt>
      <trkpt lat="43.32738" lon="5.68954">
        <ele>824</ele>
        <time>2019-11-29T12:43:00.000Z</time>
      </trkpt>
      <trkpt lat="43.32738" lon="5.68954">
        <ele>824</ele>
        <time>2019-11-29T12:43:01.000Z</time>
      </trkpt>
      <trkpt lat="43.32738" lon="5.68954">
        <ele>824</ele>
        <time>2019-11-29T12:43:02.000Z</time>
      </trkpt>
      <trkpt lat="43.32738" lon="5.68953">
        <ele>824</ele>
        <time>2019-11-29T12:43:03.000Z</time>
      </trkpt>
      <trkpt lat="43.32738" lon="5.68953">
        <ele>824</ele>
        <time>2019-11-29T12:43:04.000Z</time>
      </trkpt>
      <trkpt lat="43.32738" lon="5.68953">
        <ele>824</ele>
        <time>2019-11-29T12:43:05.000Z</time>
      </trkpt>
      <trkpt lat="43.32738" lon="5.68954">
        <ele>824</ele>
        <time>2019-11-29T12:43:06.000Z</time>
      </trkpt>
      <trkpt lat="43.32738" lon="5.68953">
        <ele>824</ele>
        <time>2019-11-29T12:43:07.000Z</time>
      </trkpt>
      <trkpt lat="43.32738" lon="5.68953">
        <ele>824</ele>
        <time>2019-11-29T12:43:08.000Z</time>
      </trkpt>
      <trkpt lat="43.32739" lon="5.68953">
        <ele>824</ele>
        <time>2019-11-29T12:43:09.000Z</time>
      </trkpt>
      <trkpt lat="43.32739" lon="5.68953">
        <ele>824</ele>
        <time>2019-11-29T12:43:10.000Z</time>
      </trkpt>
      <trkpt lat="43.32739" lon="5.68953">
        <ele>824</ele>
        <time>2019-11-29T12:43:11.000Z</time>
      </trkpt>
      <trkpt lat="43.32739" lon="5.68952">
        <ele>824</ele>
        <time>2019-11-29T12:43:12.000Z</time>
      </trkpt>
      <trkpt lat="43.32739" lon="5.68952">
        <ele>824</ele>
        <time>2019-11-29T12:43:13.000Z</time>
      </trkpt>
      <trkpt lat="43.3274" lon="5.68952">
        <ele>824</ele>
        <time>2019-11-29T12:43:14.000Z</time>
      </trkpt>
      <trkpt lat="43.3274" lon="5.68952">
        <ele>824</ele>
        <time>2019-11-29T12:43:15.000Z</time>
      </trkpt>
      <trkpt lat="43.3274" lon="5.68952">
        <ele>824</ele>
        <time>2019-11-29T12:43:16.000Z</time>
      </trkpt>
      <trkpt lat="43.3274" lon="5.68952">
        <ele>824</ele>
        <time>2019-11-29T12:43:17.000Z</time>
      </trkpt>
      <trkpt lat="43.3274" lon="5.68952">
        <ele>824</ele>
        <time>2019-11-29T12:43:18.000Z</time>
      </trkpt>
      <trkpt lat="43.32741" lon="5.68952">
        <ele>824</ele>
        <time>2019-11-29T12:43:19.000Z</time>
      </trkpt>
      <trkpt lat="43.32741" lon="5.68952">
        <ele>824</ele>
        <time>2019-11-29T12:43:20.000Z</time>
      </trkpt>
      <trkpt lat="43.32741" lon="5.68952">
        <ele>824</ele>
        <time>2019-11-29T12:43:21.000Z</time>
      </trkpt>
      <trkpt lat="43.32741" lon="5.68952">
        <ele>824</ele>
        <time>2019-11-29T12:43:22.000Z</time>
      </trkpt>
      <trkpt lat="43.32741" lon="5.68952">
        <ele>824</ele>
        <time>2019-11-29T12:43:23.000Z</time>
      </trkpt>
      <trkpt lat="43.32741" lon="5.68952">
        <ele>824</ele>
        <time>2019-11-29T12:43:24.000Z</time>
      </trkpt>
      <trkpt lat="43.32741" lon="5.68952">
        <ele>824</ele>
        <time>2019-11-29T12:43:25.000Z</time>
      </trkpt>
      <trkpt lat="43.32741" lon="5.68952">
        <ele>824</ele>
        <time>2019-11-29T12:43:26.000Z</time>
      </trkpt>
      <trkpt lat="43.32741" lon="5.68952">
        <ele>824</ele>
        <time>2019-11-29T12:43:27.000Z</time>
      </trkpt>
      <trkpt lat="43.32741" lon="5.68952">
        <ele>824</ele>
        <time>2019-11-29T12:43:28.000Z</time>
      </trkpt>
      <trkpt lat="43.32741" lon="5.68952">
        <ele>824</ele>
        <time>2019-11-29T12:43:29.000Z</time>
      </trkpt>
      <trkpt lat="43.32741" lon="5.68952">
        <ele>824</ele>
        <time>2019-11-29T12:43:30.000Z</time>
      </trkpt>
      <trkpt lat="43.32741" lon="5.68952">
        <ele>824</ele>
        <time>2019-11-29T12:43:31.000Z</time>
      </trkpt>
      <trkpt lat="43.32741" lon="5.68952">
        <ele>824</ele>
        <time>2019-11-29T12:43:32.000Z</time>
      </trkpt>
      <trkpt lat="43.32741" lon="5.68952">
        <ele>824</ele>
        <time>2019-11-29T12:43:33.000Z</time>
      </trkpt>
      <trkpt lat="43.32741" lon="5.68952">
        <ele>824</ele>
        <time>2019-11-29T12:43:34.000Z</time>
      </trkpt>
      <trkpt lat="43.32741" lon="5.68952">
        <ele>824</ele>
        <time>2019-11-29T12:43:35.000Z</time>
      </trkpt>
      <trkpt lat="43.32741" lon="5.68952">
        <ele>824</ele>
        <time>2019-11-29T12:43:36.000Z</time>
      </trkpt>
      <trkpt lat="43.32741" lon="5.68952">
        <ele>824</ele>
        <time>2019-11-29T12:43:37.000Z</time>
      </trkpt>
      <trkpt lat="43.32741" lon="5.68952">
        <ele>824</ele>
        <time>2019-11-29T12:43:38.000Z</time>
      </trkpt>
      <trkpt lat="43.32741" lon="5.68952">
        <ele>824</ele>
        <time>2019-11-29T12:43:39.000Z</time>
      </trkpt>
      <trkpt lat="43.32741" lon="5.68952">
        <ele>824</ele>
        <time>2019-11-29T12:43:40.000Z</time>
      </trkpt>
      <trkpt lat="43.32741" lon="5.68952">
        <ele>824</ele>
        <time>2019-11-29T12:43:41.000Z</time>
      </trkpt>
      <trkpt lat="43.32741" lon="5.68952">
        <ele>824</ele>
        <time>2019-11-29T12:43:42.000Z</time>
      </trkpt>
      <trkpt lat="43.32741" lon="5.68952">
        <ele>824</ele>
        <time>2019-11-29T12:43:43.000Z</time>
      </trkpt>
      <trkpt lat="43.32741" lon="5.68952">
        <ele>824</ele>
        <time>2019-11-29T12:43:44.000Z</time>
      </trkpt>
      <trkpt lat="43.32741" lon="5.68952">
        <ele>824</ele>
        <time>2019-11-29T12:43:45.000Z</time>
      </trkpt>
      <trkpt lat="43.32741" lon="5.68952">
        <ele>824</ele>
        <time>2019-11-29T12:43:46.000Z</time>
      </trkpt>
      <trkpt lat="43.32741" lon="5.68952">
        <ele>824</ele>
        <time>2019-11-29T12:43:47.000Z</time>
      </trkpt>
      <trkpt lat="43.32741" lon="5.68952">
        <ele>824</ele>
        <time>2019-11-29T12:43:48.000Z</time>
      </trkpt>
      <trkpt lat="43.32741" lon="5.68952">
        <ele>824</ele>
        <time>2019-11-29T12:43:49.000Z</time>
      </trkpt>
      <trkpt lat="43.32741" lon="5.68951">
        <ele>824</ele>
        <time>2019-11-29T12:43:50.000Z</time>
      </trkpt>
      <trkpt lat="43.32741" lon="5.68951">
        <ele>824</ele>
        <time>2019-11-29T12:43:51.000Z</time>
      </trkpt>
      <trkpt lat="43.32741" lon="5.68951">
        <ele>824</ele>
        <time>2019-11-29T12:43:52.000Z</time>
      </trkpt>
      <trkpt lat="43.32741" lon="5.68951">
        <ele>824</ele>
        <time>2019-11-29T12:43:53.000Z</time>
      </trkpt>
      <trkpt lat="43.32741" lon="5.68951">
        <ele>824</ele>
        <time>2019-11-29T12:43:54.000Z</time>
      </trkpt>
      <trkpt lat="43.32741" lon="5.68951">
        <ele>824</ele>
        <time>2019-11-29T12:43:55.000Z</time>
      </trkpt>
      <trkpt lat="43.32741" lon="5.68951">
        <ele>824</ele>
        <time>2019-11-29T12:43:56.000Z</time>
      </trkpt>
      <trkpt lat="43.32741" lon="5.68951">
        <ele>824</ele>
        <time>2019-11-29T12:43:57.000Z</time>
      </trkpt>
      <trkpt lat="43.32741" lon="5.68952">
        <ele>824</ele>
        <time>2019-11-29T12:43:58.000Z</time>
      </trkpt>
      <trkpt lat="43.32742" lon="5.68952">
        <ele>824</ele>
        <time>2019-11-29T12:43:59.000Z</time>
      </trkpt>
      <trkpt lat="43.32742" lon="5.68952">
        <ele>824</ele>
        <time>2019-11-29T12:44:00.000Z</time>
      </trkpt>
      <trkpt lat="43.32742" lon="5.68952">
        <ele>824</ele>
        <time>2019-11-29T12:44:01.000Z</time>
      </trkpt>
      <trkpt lat="43.32741" lon="5.68952">
        <ele>824</ele>
        <time>2019-11-29T12:44:02.000Z</time>
      </trkpt>
      <trkpt lat="43.32741" lon="5.68952">
        <ele>824</ele>
        <time>2019-11-29T12:44:03.000Z</time>
      </trkpt>
      <trkpt lat="43.32741" lon="5.68952">
        <ele>824</ele>
        <time>2019-11-29T12:44:04.000Z</time>
      </trkpt>
      <trkpt lat="43.32741" lon="5.68952">
        <ele>824</ele>
        <time>2019-11-29T12:44:05.000Z</time>
      </trkpt>
      <trkpt lat="43.32741" lon="5.68952">
        <ele>824</ele>
        <time>2019-11-29T12:44:06.000Z</time>
      </trkpt>
      <trkpt lat="43.32741" lon="5.68952">
        <ele>824</ele>
        <time>2019-11-29T12:44:07.000Z</time>
      </trkpt>
      <trkpt lat="43.32742" lon="5.68952">
        <ele>824</ele>
        <time>2019-11-29T12:44:08.000Z</time>
      </trkpt>
      <trkpt lat="43.32742" lon="5.68952">
        <ele>824</ele>
        <time>2019-11-29T12:44:09.000Z</time>
      </trkpt>
      <trkpt lat="43.32742" lon="5.68952">
        <ele>824</ele>
        <time>2019-11-29T12:44:10.000Z</time>
      </trkpt>
      <trkpt lat="43.32742" lon="5.68952">
        <ele>824</ele>
        <time>2019-11-29T12:44:11.000Z</time>
      </trkpt>
      <trkpt lat="43.32742" lon="5.68952">
        <ele>824</ele>
        <time>2019-11-29T12:44:12.000Z</time>
      </trkpt>
      <trkpt lat="43.32741" lon="5.68952">
        <ele>824</ele>
        <time>2019-11-29T12:44:13.000Z</time>
      </trkpt>
      <trkpt lat="43.32741" lon="5.68952">
        <ele>824</ele>
        <time>2019-11-29T12:44:14.000Z</time>
      </trkpt>
      <trkpt lat="43.32741" lon="5.68952">
        <ele>824</ele>
        <time>2019-11-29T12:44:15.000Z</time>
      </trkpt>
      <trkpt lat="43.32741" lon="5.68952">
        <ele>824</ele>
        <time>2019-11-29T12:44:16.000Z</time>
      </trkpt>
      <trkpt lat="43.32741" lon="5.68952">
        <ele>824</ele>
        <time>2019-11-29T12:44:17.000Z</time>
      </trkpt>
      <trkpt lat="43.32741" lon="5.68952">
        <ele>824</ele>
        <time>2019-11-29T12:44:18.000Z</time>
      </trkpt>
      <trkpt lat="43.32741" lon="5.68952">
        <ele>824</ele>
        <time>2019-11-29T12:44:19.000Z</time>
      </trkpt>
      <trkpt lat="43.32742" lon="5.68952">
        <ele>824</ele>
        <time>2019-11-29T12:44:20.000Z</time>
      </trkpt>
      <trkpt lat="43.32742" lon="5.68952">
        <ele>824</ele>
        <time>2019-11-29T12:44:21.000Z</time>
      </trkpt>
      <trkpt lat="43.32742" lon="5.68952">
        <ele>824</ele>
        <time>2019-11-29T12:44:22.000Z</time>
      </trkpt>
      <trkpt lat="43.32742" lon="5.68952">
        <ele>824</ele>
        <time>2019-11-29T12:44:23.000Z</time>
      </trkpt>
      <trkpt lat="43.32742" lon="5.68952">
        <ele>824</ele>
        <time>2019-11-29T12:44:24.000Z</time>
      </trkpt>
      <trkpt lat="43.32742" lon="5.68952">
        <ele>824</ele>
        <time>2019-11-29T12:44:25.000Z</time>
      </trkpt>
      <trkpt lat="43.32742" lon="5.68952">
        <ele>824</ele>
        <time>2019-11-29T12:44:26.000Z</time>
      </trkpt>
      <trkpt lat="43.32742" lon="5.68952">
        <ele>824</ele>
        <time>2019-11-29T12:44:27.000Z</time>
      </trkpt>
      <trkpt lat="43.32742" lon="5.68952">
        <ele>824</ele>
        <time>2019-11-29T12:44:28.000Z</time>
      </trkpt>
      <trkpt lat="43.32742" lon="5.68953">
        <ele>824</ele>
        <time>2019-11-29T12:44:29.000Z</time>
      </trkpt>
      <trkpt lat="43.32742" lon="5.68953">
        <ele>824</ele>
        <time>2019-11-29T12:44:30.000Z</time>
      </trkpt>
      <trkpt lat="43.32742" lon="5.68953">
        <ele>824</ele>
        <time>2019-11-29T12:44:31.000Z</time>
      </trkpt>
      <trkpt lat="43.32742" lon="5.68953">
        <ele>824</ele>
        <time>2019-11-29T12:44:32.000Z</time>
      </trkpt>
      <trkpt lat="43.32742" lon="5.68953">
        <ele>824</ele>
        <time>2019-11-29T12:44:33.000Z</time>
      </trkpt>
      <trkpt lat="43.32741" lon="5.68952">
        <ele>824</ele>
        <time>2019-11-29T12:44:34.000Z</time>
      </trkpt>
      <trkpt lat="43.32741" lon="5.68952">
        <ele>824</ele>
        <time>2019-11-29T12:44:35.000Z</time>
      </trkpt>
      <trkpt lat="43.32741" lon="5.68952">
        <ele>824</ele>
        <time>2019-11-29T12:44:36.000Z</time>
      </trkpt>
      <trkpt lat="43.32741" lon="5.68952">
        <ele>824</ele>
        <time>2019-11-29T12:44:37.000Z</time>
      </trkpt>
      <trkpt lat="43.32741" lon="5.68952">
        <ele>824</ele>
        <time>2019-11-29T12:44:38.000Z</time>
      </trkpt>
      <trkpt lat="43.32741" lon="5.68952">
        <ele>824</ele>
        <time>2019-11-29T12:44:39.000Z</time>
      </trkpt>
      <trkpt lat="43.32741" lon="5.68952">
        <ele>824</ele>
        <time>2019-11-29T12:44:40.000Z</time>
      </trkpt>
      <trkpt lat="43.32741" lon="5.68952">
        <ele>824</ele>
        <time>2019-11-29T12:44:41.000Z</time>
      </trkpt>
      <trkpt lat="43.32741" lon="5.68952">
        <ele>824</ele>
        <time>2019-11-29T12:44:42.000Z</time>
      </trkpt>
      <trkpt lat="43.32741" lon="5.68952">
        <ele>824</ele>
        <time>2019-11-29T12:44:43.000Z</time>
      </trkpt>
      <trkpt lat="43.32741" lon="5.68952">
        <ele>824</ele>
        <time>2019-11-29T12:44:44.000Z</time>
      </trkpt>
      <trkpt lat="43.32741" lon="5.68952">
        <ele>824</ele>
        <time>2019-11-29T12:44:45.000Z</time>
      </trkpt>
      <trkpt lat="43.32741" lon="5.68952">
        <ele>824</ele>
        <time>2019-11-29T12:44:46.000Z</time>
      </trkpt>
      <trkpt lat="43.32741" lon="5.68952">
        <ele>824</ele>
        <time>2019-11-29T12:44:47.000Z</time>
      </trkpt>
      <trkpt lat="43.32741" lon="5.68952">
        <ele>824</ele>
        <time>2019-11-29T12:44:48.000Z</time>
      </trkpt>
      <trkpt lat="43.32741" lon="5.68952">
        <ele>824</ele>
        <time>2019-11-29T12:44:49.000Z</time>
      </trkpt>
      <trkpt lat="43.32741" lon="5.68952">
        <ele>824</ele>
        <time>2019-11-29T12:44:50.000Z</time>
      </trkpt>
      <trkpt lat="43.32741" lon="5.68952">
        <ele>824</ele>
        <time>2019-11-29T12:44:51.000Z</time>
      </trkpt>
      <trkpt lat="43.32741" lon="5.68952">
        <ele>824</ele>
        <time>2019-11-29T12:44:52.000Z</time>
      </trkpt>
      <trkpt lat="43.32741" lon="5.68952">
        <ele>824</ele>
        <time>2019-11-29T12:44:53.000Z</time>
      </trkpt>
      <trkpt lat="43.32741" lon="5.68952">
        <ele>824</ele>
        <time>2019-11-29T12:44:54.000Z</time>
      </trkpt>
      <trkpt lat="43.32741" lon="5.68952">
        <ele>824</ele>
        <time>2019-11-29T12:44:55.000Z</time>
      </trkpt>
      <trkpt lat="43.32741" lon="5.68952">
        <ele>824</ele>
        <time>2019-11-29T12:44:56.000Z</time>
      </trkpt>
      <trkpt lat="43.32741" lon="5.68952">
        <ele>824</ele>
        <time>2019-11-29T12:44:57.000Z</time>
      </trkpt>
      <trkpt lat="43.32741" lon="5.68952">
        <ele>824</ele>
        <time>2019-11-29T12:44:58.000Z</time>
      </trkpt>
      <trkpt lat="43.32741" lon="5.68952">
        <ele>824</ele>
        <time>2019-11-29T12:44:59.000Z</time>
      </trkpt>
      <trkpt lat="43.32741" lon="5.68952">
        <ele>824</ele>
        <time>2019-11-29T12:45:00.000Z</time>
      </trkpt>
      <trkpt lat="43.32741" lon="5.68952">
        <ele>824</ele>
        <time>2019-11-29T12:45:01.000Z</time>
      </trkpt>
      <trkpt lat="43.32741" lon="5.68952">
        <ele>824</ele>
        <time>2019-11-29T12:45:02.000Z</time>
      </trkpt>
      <trkpt lat="43.32741" lon="5.68952">
        <ele>824</ele>
        <time>2019-11-29T12:45:03.000Z</time>
      </trkpt>
      <trkpt lat="43.32741" lon="5.68952">
        <ele>824</ele>
        <time>2019-11-29T12:45:04.000Z</time>
      </trkpt>
      <trkpt lat="43.32741" lon="5.68952">
        <ele>824</ele>
        <time>2019-11-29T12:45:05.000Z</time>
      </trkpt>
      <trkpt lat="43.32741" lon="5.68952">
        <ele>824</ele>
        <time>2019-11-29T12:45:06.000Z</time>
      </trkpt>
      <trkpt lat="43.32741" lon="5.68952">
        <ele>824</ele>
        <time>2019-11-29T12:45:07.000Z</time>
      </trkpt>
      <trkpt lat="43.32741" lon="5.68952">
        <ele>824</ele>
        <time>2019-11-29T12:45:08.000Z</time>
      </trkpt>
      <trkpt lat="43.32741" lon="5.68952">
        <ele>824</ele>
        <time>2019-11-29T12:45:09.000Z</time>
      </trkpt>
      <trkpt lat="43.32741" lon="5.68952">
        <ele>824</ele>
        <time>2019-11-29T12:45:10.000Z</time>
      </trkpt>
      <trkpt lat="43.32741" lon="5.68952">
        <ele>824</ele>
        <time>2019-11-29T12:45:11.000Z</time>
      </trkpt>
      <trkpt lat="43.32741" lon="5.68952">
        <ele>824</ele>
        <time>2019-11-29T12:45:12.000Z</time>
      </trkpt>
      <trkpt lat="43.32741" lon="5.68952">
        <ele>824</ele>
        <time>2019-11-29T12:45:13.000Z</time>
      </trkpt>
      <trkpt lat="43.32741" lon="5.68952">
        <ele>824</ele>
        <time>2019-11-29T12:45:14.000Z</time>
      </trkpt>
      <trkpt lat="43.32741" lon="5.68952">
        <ele>824</ele>
        <time>2019-11-29T12:45:15.000Z</time>
      </trkpt>
      <trkpt lat="43.32741" lon="5.68952">
        <ele>824</ele>
        <time>2019-11-29T12:45:16.000Z</time>
      </trkpt>
      <trkpt lat="43.32741" lon="5.68952">
        <ele>824</ele>
        <time>2019-11-29T12:45:17.000Z</time>
      </trkpt>
      <trkpt lat="43.32741" lon="5.68952">
        <ele>824</ele>
        <time>2019-11-29T12:45:18.000Z</time>
      </trkpt>
      <trkpt lat="43.32741" lon="5.68952">
        <ele>824</ele>
        <time>2019-11-29T12:45:19.000Z</time>
      </trkpt>
      <trkpt lat="43.32741" lon="5.68952">
        <ele>824</ele>
        <time>2019-11-29T12:45:20.000Z</time>
      </trkpt>
      <trkpt lat="43.32741" lon="5.68952">
        <ele>824</ele>
        <time>2019-11-29T12:45:21.000Z</time>
      </trkpt>
      <trkpt lat="43.32741" lon="5.68952">
        <ele>824</ele>
        <time>2019-11-29T12:45:22.000Z</time>
      </trkpt>
      <trkpt lat="43.32741" lon="5.68952">
        <ele>824</ele>
        <time>2019-11-29T12:45:23.000Z</time>
      </trkpt>
      <trkpt lat="43.32741" lon="5.68953">
        <ele>824</ele>
        <time>2019-11-29T12:45:24.000Z</time>
      </trkpt>
      <trkpt lat="43.32741" lon="5.68953">
        <ele>824</ele>
        <time>2019-11-29T12:45:25.000Z</time>
      </trkpt>
      <trkpt lat="43.32741" lon="5.68953">
        <ele>824</ele>
        <time>2019-11-29T12:45:26.000Z</time>
      </trkpt>
      <trkpt lat="43.32741" lon="5.68953">
        <ele>824</ele>
        <time>2019-11-29T12:45:27.000Z</time>
      </trkpt>
      <trkpt lat="43.32741" lon="5.68953">
        <ele>824</ele>
        <time>2019-11-29T12:45:28.000Z</time>
      </trkpt>
      <trkpt lat="43.32741" lon="5.68953">
        <ele>824</ele>
        <time>2019-11-29T12:45:29.000Z</time>
      </trkpt>
      <trkpt lat="43.32741" lon="5.68953">
        <ele>824</ele>
        <time>2019-11-29T12:45:30.000Z</time>
      </trkpt>
      <trkpt lat="43.32741" lon="5.68953">
        <ele>824</ele>
        <time>2019-11-29T12:45:31.000Z</time>
      </trkpt>
      <trkpt lat="43.32741" lon="5.68953">
        <ele>824</ele>
        <time>2019-11-29T12:45:32.000Z</time>
      </trkpt>
      <trkpt lat="43.32741" lon="5.68953">
        <ele>824</ele>
        <time>2019-11-29T12:45:33.000Z</time>
      </trkpt>
      <trkpt lat="43.32741" lon="5.68953">
        <ele>824</ele>
        <time>2019-11-29T12:45:34.000Z</time>
      </trkpt>
      <trkpt lat="43.32741" lon="5.68953">
        <ele>824</ele>
        <time>2019-11-29T12:45:35.000Z</time>
      </trkpt>
      <trkpt lat="43.32741" lon="5.68952">
        <ele>824</ele>
        <time>2019-11-29T12:45:36.000Z</time>
      </trkpt>
      <trkpt lat="43.32741" lon="5.68952">
        <ele>824</ele>
        <time>2019-11-29T12:45:37.000Z</time>
      </trkpt>
      <trkpt lat="43.32741" lon="5.68952">
        <ele>824</ele>
        <time>2019-11-29T12:45:38.000Z</time>
      </trkpt>
      <trkpt lat="43.32741" lon="5.68952">
        <ele>824</ele>
        <time>2019-11-29T12:45:39.000Z</time>
      </trkpt>
      <trkpt lat="43.3274" lon="5.68952">
        <ele>824</ele>
        <time>2019-11-29T12:45:40.000Z</time>
      </trkpt>
      <trkpt lat="43.3274" lon="5.68952">
        <ele>824</ele>
        <time>2019-11-29T12:45:41.000Z</time>
      </trkpt>
      <trkpt lat="43.3274" lon="5.68952">
        <ele>824</ele>
        <time>2019-11-29T12:45:42.000Z</time>
      </trkpt>
      <trkpt lat="43.32741" lon="5.68952">
        <ele>824</ele>
        <time>2019-11-29T12:45:43.000Z</time>
      </trkpt>
      <trkpt lat="43.32741" lon="5.68952">
        <ele>824</ele>
        <time>2019-11-29T12:45:44.000Z</time>
      </trkpt>
      <trkpt lat="43.32741" lon="5.68952">
        <ele>824</ele>
        <time>2019-11-29T12:45:45.000Z</time>
      </trkpt>
      <trkpt lat="43.3274" lon="5.68952">
        <ele>824</ele>
        <time>2019-11-29T12:45:46.000Z</time>
      </trkpt>
      <trkpt lat="43.3274" lon="5.68952">
        <ele>824</ele>
        <time>2019-11-29T12:45:47.000Z</time>
      </trkpt>
      <trkpt lat="43.3274" lon="5.68952">
        <ele>824</ele>
        <time>2019-11-29T12:45:48.000Z</time>
      </trkpt>
      <trkpt lat="43.32741" lon="5.68952">
        <ele>824</ele>
        <time>2019-11-29T12:45:49.000Z</time>
      </trkpt>
      <trkpt lat="43.32741" lon="5.68952">
        <ele>824</ele>
        <time>2019-11-29T12:45:50.000Z</time>
      </trkpt>
      <trkpt lat="43.32741" lon="5.68952">
        <ele>824</ele>
        <time>2019-11-29T12:45:51.000Z</time>
      </trkpt>
      <trkpt lat="43.32741" lon="5.68952">
        <ele>824</ele>
        <time>2019-11-29T12:45:52.000Z</time>
      </trkpt>
      <trkpt lat="43.32741" lon="5.68952">
        <ele>824</ele>
        <time>2019-11-29T12:45:53.000Z</time>
      </trkpt>
      <trkpt lat="43.32741" lon="5.68952">
        <ele>824</ele>
        <time>2019-11-29T12:45:54.000Z</time>
      </trkpt>
      <trkpt lat="43.3274" lon="5.68952">
        <ele>824</ele>
        <time>2019-11-29T12:45:55.000Z</time>
      </trkpt>
      <trkpt lat="43.3274" lon="5.68953">
        <ele>824</ele>
        <time>2019-11-29T12:45:56.000Z</time>
      </trkpt>
      <trkpt lat="43.3274" lon="5.68953">
        <ele>824</ele>
        <time>2019-11-29T12:45:57.000Z</time>
      </trkpt>
      <trkpt lat="43.3274" lon="5.68953">
        <ele>824</ele>
        <time>2019-11-29T12:45:58.000Z</time>
      </trkpt>
      <trkpt lat="43.3274" lon="5.68953">
        <ele>824</ele>
        <time>2019-11-29T12:45:59.000Z</time>
      </trkpt>
      <trkpt lat="43.32739" lon="5.68953">
        <ele>824</ele>
        <time>2019-11-29T12:46:00.000Z</time>
      </trkpt>
      <trkpt lat="43.32739" lon="5.68954">
        <ele>824</ele>
        <time>2019-11-29T12:46:01.000Z</time>
      </trkpt>
      <trkpt lat="43.32738" lon="5.68954">
        <ele>824</ele>
        <time>2019-11-29T12:46:02.000Z</time>
      </trkpt>
      <trkpt lat="43.32738" lon="5.68955">
        <ele>824</ele>
        <time>2019-11-29T12:46:03.000Z</time>
      </trkpt>
      <trkpt lat="43.32738" lon="5.68956">
        <ele>824</ele>
        <time>2019-11-29T12:46:04.000Z</time>
      </trkpt>
      <trkpt lat="43.32738" lon="5.68957">
        <ele>824</ele>
        <time>2019-11-29T12:46:05.000Z</time>
      </trkpt>
      <trkpt lat="43.32738" lon="5.68958">
        <ele>824</ele>
        <time>2019-11-29T12:46:06.000Z</time>
      </trkpt>
      <trkpt lat="43.32738" lon="5.68958">
        <ele>824</ele>
        <time>2019-11-29T12:46:07.000Z</time>
      </trkpt>
      <trkpt lat="43.32739" lon="5.68959">
        <ele>824</ele>
        <time>2019-11-29T12:46:08.000Z</time>
      </trkpt>
      <trkpt lat="43.32739" lon="5.68959">
        <ele>824</ele>
        <time>2019-11-29T12:46:09.000Z</time>
      </trkpt>
      <trkpt lat="43.32739" lon="5.68959">
        <ele>824</ele>
        <time>2019-11-29T12:46:10.000Z</time>
      </trkpt>
      <trkpt lat="43.32739" lon="5.6896">
        <ele>824</ele>
        <time>2019-11-29T12:46:11.000Z</time>
      </trkpt>
      <trkpt lat="43.32739" lon="5.68961">
        <ele>824</ele>
        <time>2019-11-29T12:46:12.000Z</time>
      </trkpt>
      <trkpt lat="43.32739" lon="5.68961">
        <ele>824</ele>
        <time>2019-11-29T12:46:13.000Z</time>
      </trkpt>
      <trkpt lat="43.3274" lon="5.68962">
        <ele>824</ele>
        <time>2019-11-29T12:46:14.000Z</time>
      </trkpt>
      <trkpt lat="43.3274" lon="5.68962">
        <ele>824</ele>
        <time>2019-11-29T12:46:15.000Z</time>
      </trkpt>
      <trkpt lat="43.3274" lon="5.68964">
        <ele>824</ele>
        <time>2019-11-29T12:46:16.000Z</time>
      </trkpt>
      <trkpt lat="43.32741" lon="5.68965">
        <ele>823</ele>
        <time>2019-11-29T12:46:17.000Z</time>
      </trkpt>
      <trkpt lat="43.32741" lon="5.68966">
        <ele>823</ele>
        <time>2019-11-29T12:46:18.000Z</time>
      </trkpt>
      <trkpt lat="43.32742" lon="5.68968">
        <ele>823</ele>
        <time>2019-11-29T12:46:19.000Z</time>
      </trkpt>
      <trkpt lat="43.32742" lon="5.68969">
        <ele>823</ele>
        <time>2019-11-29T12:46:20.000Z</time>
      </trkpt>
      <trkpt lat="43.32743" lon="5.6897">
        <ele>823</ele>
        <time>2019-11-29T12:46:21.000Z</time>
      </trkpt>
      <trkpt lat="43.32744" lon="5.68972">
        <ele>823</ele>
        <time>2019-11-29T12:46:22.000Z</time>
      </trkpt>
      <trkpt lat="43.32744" lon="5.68973">
        <ele>823</ele>
        <time>2019-11-29T12:46:23.000Z</time>
      </trkpt>
      <trkpt lat="43.32745" lon="5.68974">
        <ele>823</ele>
        <time>2019-11-29T12:46:24.000Z</time>
      </trkpt>
      <trkpt lat="43.32745" lon="5.68975">
        <ele>823</ele>
        <time>2019-11-29T12:46:25.000Z</time>
      </trkpt>
      <trkpt lat="43.32745" lon="5.68976">
        <ele>823</ele>
        <time>2019-11-29T12:46:26.000Z</time>
      </trkpt>
      <trkpt lat="43.32746" lon="5.68977">
        <ele>823</ele>
        <time>2019-11-29T12:46:27.000Z</time>
      </trkpt>
      <trkpt lat="43.32746" lon="5.68978">
        <ele>823</ele>
        <time>2019-11-29T12:46:28.000Z</time>
      </trkpt>
      <trkpt lat="43.32746" lon="5.68979">
        <ele>824</ele>
        <time>2019-11-29T12:46:29.000Z</time>
      </trkpt>
      <trkpt lat="43.32747" lon="5.68979">
        <ele>824</ele>
        <time>2019-11-29T12:46:30.000Z</time>
      </trkpt>
      <trkpt lat="43.32747" lon="5.6898">
        <ele>824</ele>
        <time>2019-11-29T12:46:31.000Z</time>
      </trkpt>
      <trkpt lat="43.32748" lon="5.6898">
        <ele>824</ele>
        <time>2019-11-29T12:46:32.000Z</time>
      </trkpt>
      <trkpt lat="43.32748" lon="5.6898">
        <ele>824</ele>
        <time>2019-11-29T12:46:33.000Z</time>
      </trkpt>
      <trkpt lat="43.32749" lon="5.68981">
        <ele>824</ele>
        <time>2019-11-29T12:46:34.000Z</time>
      </trkpt>
      <trkpt lat="43.3275" lon="5.68981">
        <ele>824</ele>
        <time>2019-11-29T12:46:35.000Z</time>
      </trkpt>
      <trkpt lat="43.32751" lon="5.68981">
        <ele>824</ele>
        <time>2019-11-29T12:46:36.000Z</time>
      </trkpt>
      <trkpt lat="43.32751" lon="5.68982">
        <ele>824</ele>
        <time>2019-11-29T12:46:37.000Z</time>
      </trkpt>
      <trkpt lat="43.32752" lon="5.68981">
        <ele>824</ele>
        <time>2019-11-29T12:46:38.000Z</time>
      </trkpt>
      <trkpt lat="43.32753" lon="5.68981">
        <ele>824</ele>
        <time>2019-11-29T12:46:39.000Z</time>
      </trkpt>
      <trkpt lat="43.32754" lon="5.68981">
        <ele>824</ele>
        <time>2019-11-29T12:46:40.000Z</time>
      </trkpt>
      <trkpt lat="43.32755" lon="5.68981">
        <ele>824</ele>
        <time>2019-11-29T12:46:41.000Z</time>
      </trkpt>
      <trkpt lat="43.32756" lon="5.68982">
        <ele>823</ele>
        <time>2019-11-29T12:46:42.000Z</time>
      </trkpt>
      <trkpt lat="43.32756" lon="5.68982">
        <ele>823</ele>
        <time>2019-11-29T12:46:43.000Z</time>
      </trkpt>
      <trkpt lat="43.32757" lon="5.68982">
        <ele>823</ele>
        <time>2019-11-29T12:46:44.000Z</time>
      </trkpt>
      <trkpt lat="43.32757" lon="5.68982">
        <ele>823</ele>
        <time>2019-11-29T12:46:45.000Z</time>
      </trkpt>
      <trkpt lat="43.32758" lon="5.68982">
        <ele>823</ele>
        <time>2019-11-29T12:46:46.000Z</time>
      </trkpt>
      <trkpt lat="43.32759" lon="5.68982">
        <ele>823</ele>
        <time>2019-11-29T12:46:47.000Z</time>
      </trkpt>
      <trkpt lat="43.32759" lon="5.68983">
        <ele>823</ele>
        <time>2019-11-29T12:46:48.000Z</time>
      </trkpt>
      <trkpt lat="43.3276" lon="5.68983">
        <ele>823</ele>
        <time>2019-11-29T12:46:49.000Z</time>
      </trkpt>
      <trkpt lat="43.3276" lon="5.68983">
        <ele>823</ele>
        <time>2019-11-29T12:46:50.000Z</time>
      </trkpt>
      <trkpt lat="43.3276" lon="5.68983">
        <ele>823</ele>
        <time>2019-11-29T12:46:51.000Z</time>
      </trkpt>
      <trkpt lat="43.32761" lon="5.68983">
        <ele>822</ele>
        <time>2019-11-29T12:46:52.000Z</time>
      </trkpt>
      <trkpt lat="43.32762" lon="5.68983">
        <ele>822</ele>
        <time>2019-11-29T12:46:53.000Z</time>
      </trkpt>
      <trkpt lat="43.32763" lon="5.68984">
        <ele>822</ele>
        <time>2019-11-29T12:46:54.000Z</time>
      </trkpt>
      <trkpt lat="43.32764" lon="5.68984">
        <ele>822</ele>
        <time>2019-11-29T12:46:55.000Z</time>
      </trkpt>
      <trkpt lat="43.32765" lon="5.68985">
        <ele>822</ele>
        <time>2019-11-29T12:46:56.000Z</time>
      </trkpt>
      <trkpt lat="43.32765" lon="5.68986">
        <ele>822</ele>
        <time>2019-11-29T12:46:57.000Z</time>
      </trkpt>
      <trkpt lat="43.32766" lon="5.68986">
        <ele>821</ele>
        <time>2019-11-29T12:46:58.000Z</time>
      </trkpt>
      <trkpt lat="43.32766" lon="5.68987">
        <ele>821</ele>
        <time>2019-11-29T12:46:59.000Z</time>
      </trkpt>
      <trkpt lat="43.32766" lon="5.68987">
        <ele>821</ele>
        <time>2019-11-29T12:47:00.000Z</time>
      </trkpt>
      <trkpt lat="43.32766" lon="5.68987">
        <ele>821</ele>
        <time>2019-11-29T12:47:01.000Z</time>
      </trkpt>
      <trkpt lat="43.32766" lon="5.68987">
        <ele>821</ele>
        <time>2019-11-29T12:47:02.000Z</time>
      </trkpt>
      <trkpt lat="43.32766" lon="5.68988">
        <ele>821</ele>
        <time>2019-11-29T12:47:03.000Z</time>
      </trkpt>
      <trkpt lat="43.32766" lon="5.68989">
        <ele>821</ele>
        <time>2019-11-29T12:47:04.000Z</time>
      </trkpt>
      <trkpt lat="43.32767" lon="5.68989">
        <ele>821</ele>
        <time>2019-11-29T12:47:05.000Z</time>
      </trkpt>
      <trkpt lat="43.32767" lon="5.68989">
        <ele>821</ele>
        <time>2019-11-29T12:47:06.000Z</time>
      </trkpt>
      <trkpt lat="43.32767" lon="5.68989">
        <ele>820</ele>
        <time>2019-11-29T12:47:07.000Z</time>
      </trkpt>
      <trkpt lat="43.32767" lon="5.68989">
        <ele>820</ele>
        <time>2019-11-29T12:47:08.000Z</time>
      </trkpt>
      <trkpt lat="43.32767" lon="5.68989">
        <ele>820</ele>
        <time>2019-11-29T12:47:09.000Z</time>
      </trkpt>
      <trkpt lat="43.32768" lon="5.68988">
        <ele>820</ele>
        <time>2019-11-29T12:47:10.000Z</time>
      </trkpt>
      <trkpt lat="43.32768" lon="5.68988">
        <ele>820</ele>
        <time>2019-11-29T12:47:11.000Z</time>
      </trkpt>
      <trkpt lat="43.32768" lon="5.68988">
        <ele>820</ele>
        <time>2019-11-29T12:47:12.000Z</time>
      </trkpt>
      <trkpt lat="43.32768" lon="5.68988">
        <ele>820</ele>
        <time>2019-11-29T12:47:13.000Z</time>
      </trkpt>
      <trkpt lat="43.32769" lon="5.68988">
        <ele>820</ele>
        <time>2019-11-29T12:47:14.000Z</time>
      </trkpt>
      <trkpt lat="43.32769" lon="5.68987">
        <ele>820</ele>
        <time>2019-11-29T12:47:15.000Z</time>
      </trkpt>
      <trkpt lat="43.32769" lon="5.68987">
        <ele>819</ele>
        <time>2019-11-29T12:47:16.000Z</time>
      </trkpt>
      <trkpt lat="43.32769" lon="5.68987">
        <ele>819</ele>
        <time>2019-11-29T12:47:17.000Z</time>
      </trkpt>
      <trkpt lat="43.3277" lon="5.68986">
        <ele>819</ele>
        <time>2019-11-29T12:47:18.000Z</time>
      </trkpt>
      <trkpt lat="43.3277" lon="5.68986">
        <ele>819</ele>
        <time>2019-11-29T12:47:19.000Z</time>
      </trkpt>
      <trkpt lat="43.3277" lon="5.68985">
        <ele>819</ele>
        <time>2019-11-29T12:47:20.000Z</time>
      </trkpt>
      <trkpt lat="43.32769" lon="5.68985">
        <ele>819</ele>
        <time>2019-11-29T12:47:21.000Z</time>
      </trkpt>
      <trkpt lat="43.32769" lon="5.68984">
        <ele>819</ele>
        <time>2019-11-29T12:47:22.000Z</time>
      </trkpt>
      <trkpt lat="43.32769" lon="5.68984">
        <ele>818</ele>
        <time>2019-11-29T12:47:23.000Z</time>
      </trkpt>
      <trkpt lat="43.32769" lon="5.68983">
        <ele>818</ele>
        <time>2019-11-29T12:47:24.000Z</time>
      </trkpt>
      <trkpt lat="43.32769" lon="5.68983">
        <ele>818</ele>
        <time>2019-11-29T12:47:25.000Z</time>
      </trkpt>
      <trkpt lat="43.32769" lon="5.68982">
        <ele>818</ele>
        <time>2019-11-29T12:47:26.000Z</time>
      </trkpt>
      <trkpt lat="43.32769" lon="5.68982">
        <ele>818</ele>
        <time>2019-11-29T12:47:27.000Z</time>
      </trkpt>
      <trkpt lat="43.32769" lon="5.68982">
        <ele>818</ele>
        <time>2019-11-29T12:47:28.000Z</time>
      </trkpt>
      <trkpt lat="43.32769" lon="5.68981">
        <ele>818</ele>
        <time>2019-11-29T12:47:29.000Z</time>
      </trkpt>
      <trkpt lat="43.32769" lon="5.68981">
        <ele>818</ele>
        <time>2019-11-29T12:47:30.000Z</time>
      </trkpt>
      <trkpt lat="43.32769" lon="5.68981">
        <ele>818</ele>
        <time>2019-11-29T12:47:31.000Z</time>
      </trkpt>
      <trkpt lat="43.32769" lon="5.68981">
        <ele>818</ele>
        <time>2019-11-29T12:47:32.000Z</time>
      </trkpt>
      <trkpt lat="43.32769" lon="5.68981">
        <ele>818</ele>
        <time>2019-11-29T12:47:33.000Z</time>
      </trkpt>
      <trkpt lat="43.32769" lon="5.68981">
        <ele>818</ele>
        <time>2019-11-29T12:47:34.000Z</time>
      </trkpt>
      <trkpt lat="43.32769" lon="5.68981">
        <ele>817</ele>
        <time>2019-11-29T12:47:35.000Z</time>
      </trkpt>
      <trkpt lat="43.32769" lon="5.68981">
        <ele>817</ele>
        <time>2019-11-29T12:47:36.000Z</time>
      </trkpt>
      <trkpt lat="43.32768" lon="5.6898">
        <ele>817</ele>
        <time>2019-11-29T12:47:37.000Z</time>
      </trkpt>
      <trkpt lat="43.32768" lon="5.6898">
        <ele>817</ele>
        <time>2019-11-29T12:47:38.000Z</time>
      </trkpt>
      <trkpt lat="43.32768" lon="5.6898">
        <ele>817</ele>
        <time>2019-11-29T12:47:39.000Z</time>
      </trkpt>
      <trkpt lat="43.32768" lon="5.68979">
        <ele>817</ele>
        <time>2019-11-29T12:47:40.000Z</time>
      </trkpt>
      <trkpt lat="43.32768" lon="5.68979">
        <ele>817</ele>
        <time>2019-11-29T12:47:41.000Z</time>
      </trkpt>
      <trkpt lat="43.32768" lon="5.68979">
        <ele>817</ele>
        <time>2019-11-29T12:47:42.000Z</time>
      </trkpt>
      <trkpt lat="43.32768" lon="5.68979">
        <ele>817</ele>
        <time>2019-11-29T12:47:43.000Z</time>
      </trkpt>
      <trkpt lat="43.32768" lon="5.68979">
        <ele>817</ele>
        <time>2019-11-29T12:47:44.000Z</time>
      </trkpt>
      <trkpt lat="43.32768" lon="5.68979">
        <ele>817</ele>
        <time>2019-11-29T12:47:45.000Z</time>
      </trkpt>
      <trkpt lat="43.32768" lon="5.68979">
        <ele>817</ele>
        <time>2019-11-29T12:47:46.000Z</time>
      </trkpt>
      <trkpt lat="43.32768" lon="5.68978">
        <ele>817</ele>
        <time>2019-11-29T12:47:47.000Z</time>
      </trkpt>
      <trkpt lat="43.32768" lon="5.68978">
        <ele>817</ele>
        <time>2019-11-29T12:47:48.000Z</time>
      </trkpt>
      <trkpt lat="43.32768" lon="5.68977">
        <ele>817</ele>
        <time>2019-11-29T12:47:49.000Z</time>
      </trkpt>
      <trkpt lat="43.32768" lon="5.68977">
        <ele>817</ele>
        <time>2019-11-29T12:47:50.000Z</time>
      </trkpt>
      <trkpt lat="43.32768" lon="5.68977">
        <ele>817</ele>
        <time>2019-11-29T12:47:51.000Z</time>
      </trkpt>
      <trkpt lat="43.32768" lon="5.68976">
        <ele>817</ele>
        <time>2019-11-29T12:47:52.000Z</time>
      </trkpt>
      <trkpt lat="43.32767" lon="5.68976">
        <ele>817</ele>
        <time>2019-11-29T12:47:53.000Z</time>
      </trkpt>
      <trkpt lat="43.32767" lon="5.68975">
        <ele>817</ele>
        <time>2019-11-29T12:47:54.000Z</time>
      </trkpt>
      <trkpt lat="43.32767" lon="5.68975">
        <ele>817</ele>
        <time>2019-11-29T12:47:55.000Z</time>
      </trkpt>
      <trkpt lat="43.32767" lon="5.68975">
        <ele>817</ele>
        <time>2019-11-29T12:47:56.000Z</time>
      </trkpt>
      <trkpt lat="43.32767" lon="5.68975">
        <ele>817</ele>
        <time>2019-11-29T12:47:57.000Z</time>
      </trkpt>
      <trkpt lat="43.32767" lon="5.68975">
        <ele>817</ele>
        <time>2019-11-29T12:47:58.000Z</time>
      </trkpt>
      <trkpt lat="43.32767" lon="5.68975">
        <ele>817</ele>
        <time>2019-11-29T12:47:59.000Z</time>
      </trkpt>
      <trkpt lat="43.32767" lon="5.68975">
        <ele>817</ele>
        <time>2019-11-29T12:48:00.000Z</time>
      </trkpt>
      <trkpt lat="43.32767" lon="5.68975">
        <ele>817</ele>
        <time>2019-11-29T12:48:01.000Z</time>
      </trkpt>
      <trkpt lat="43.32767" lon="5.68975">
        <ele>816</ele>
        <time>2019-11-29T12:48:02.000Z</time>
      </trkpt>
      <trkpt lat="43.32767" lon="5.68975">
        <ele>816</ele>
        <time>2019-11-29T12:48:03.000Z</time>
      </trkpt>
      <trkpt lat="43.32767" lon="5.68974">
        <ele>816</ele>
        <time>2019-11-29T12:48:04.000Z</time>
      </trkpt>
      <trkpt lat="43.32767" lon="5.68974">
        <ele>816</ele>
        <time>2019-11-29T12:48:05.000Z</time>
      </trkpt>
      <trkpt lat="43.32767" lon="5.68974">
        <ele>816</ele>
        <time>2019-11-29T12:48:06.000Z</time>
      </trkpt>
      <trkpt lat="43.32766" lon="5.68973">
        <ele>816</ele>
        <time>2019-11-29T12:48:07.000Z</time>
      </trkpt>
      <trkpt lat="43.32766" lon="5.68973">
        <ele>816</ele>
        <time>2019-11-29T12:48:08.000Z</time>
      </trkpt>
      <trkpt lat="43.32766" lon="5.68973">
        <ele>816</ele>
        <time>2019-11-29T12:48:09.000Z</time>
      </trkpt>
      <trkpt lat="43.32766" lon="5.68973">
        <ele>816</ele>
        <time>2019-11-29T12:48:10.000Z</time>
      </trkpt>
      <trkpt lat="43.32766" lon="5.68973">
        <ele>816</ele>
        <time>2019-11-29T12:48:11.000Z</time>
      </trkpt>
      <trkpt lat="43.32766" lon="5.68972">
        <ele>816</ele>
        <time>2019-11-29T12:48:12.000Z</time>
      </trkpt>
      <trkpt lat="43.32766" lon="5.68972">
        <ele>816</ele>
        <time>2019-11-29T12:48:13.000Z</time>
      </trkpt>
      <trkpt lat="43.32766" lon="5.68972">
        <ele>816</ele>
        <time>2019-11-29T12:48:14.000Z</time>
      </trkpt>
      <trkpt lat="43.32767" lon="5.68972">
        <ele>816</ele>
        <time>2019-11-29T12:48:15.000Z</time>
      </trkpt>
      <trkpt lat="43.32767" lon="5.68971">
        <ele>816</ele>
        <time>2019-11-29T12:48:16.000Z</time>
      </trkpt>
      <trkpt lat="43.32767" lon="5.6897">
        <ele>816</ele>
        <time>2019-11-29T12:48:17.000Z</time>
      </trkpt>
      <trkpt lat="43.32766" lon="5.6897">
        <ele>816</ele>
        <time>2019-11-29T12:48:18.000Z</time>
      </trkpt>
      <trkpt lat="43.32766" lon="5.68969">
        <ele>815</ele>
        <time>2019-11-29T12:48:19.000Z</time>
      </trkpt>
      <trkpt lat="43.32766" lon="5.68969">
        <ele>815</ele>
        <time>2019-11-29T12:48:20.000Z</time>
      </trkpt>
      <trkpt lat="43.32766" lon="5.68968">
        <ele>815</ele>
        <time>2019-11-29T12:48:21.000Z</time>
      </trkpt>
      <trkpt lat="43.32766" lon="5.68968">
        <ele>815</ele>
        <time>2019-11-29T12:48:22.000Z</time>
      </trkpt>
      <trkpt lat="43.32766" lon="5.68967">
        <ele>815</ele>
        <time>2019-11-29T12:48:23.000Z</time>
      </trkpt>
      <trkpt lat="43.32766" lon="5.68967">
        <ele>815</ele>
        <time>2019-11-29T12:48:24.000Z</time>
      </trkpt>
      <trkpt lat="43.32766" lon="5.68967">
        <ele>815</ele>
        <time>2019-11-29T12:48:25.000Z</time>
      </trkpt>
      <trkpt lat="43.32766" lon="5.68967">
        <ele>815</ele>
        <time>2019-11-29T12:48:26.000Z</time>
      </trkpt>
      <trkpt lat="43.32766" lon="5.68967">
        <ele>814</ele>
        <time>2019-11-29T12:48:27.000Z</time>
      </trkpt>
      <trkpt lat="43.32766" lon="5.68966">
        <ele>814</ele>
        <time>2019-11-29T12:48:28.000Z</time>
      </trkpt>
      <trkpt lat="43.32766" lon="5.68966">
        <ele>814</ele>
        <time>2019-11-29T12:48:29.000Z</time>
      </trkpt>
      <trkpt lat="43.32766" lon="5.68966">
        <ele>814</ele>
        <time>2019-11-29T12:48:30.000Z</time>
      </trkpt>
      <trkpt lat="43.32766" lon="5.68966">
        <ele>814</ele>
        <time>2019-11-29T12:48:31.000Z</time>
      </trkpt>
      <trkpt lat="43.32766" lon="5.68966">
        <ele>814</ele>
        <time>2019-11-29T12:48:32.000Z</time>
      </trkpt>
      <trkpt lat="43.32766" lon="5.68966">
        <ele>814</ele>
        <time>2019-11-29T12:48:33.000Z</time>
      </trkpt>
      <trkpt lat="43.32766" lon="5.68966">
        <ele>814</ele>
        <time>2019-11-29T12:48:34.000Z</time>
      </trkpt>
      <trkpt lat="43.32766" lon="5.68966">
        <ele>814</ele>
        <time>2019-11-29T12:48:35.000Z</time>
      </trkpt>
      <trkpt lat="43.32766" lon="5.68966">
        <ele>814</ele>
        <time>2019-11-29T12:48:36.000Z</time>
      </trkpt>
      <trkpt lat="43.32766" lon="5.68966">
        <ele>814</ele>
        <time>2019-11-29T12:48:37.000Z</time>
      </trkpt>
      <trkpt lat="43.32766" lon="5.68966">
        <ele>814</ele>
        <time>2019-11-29T12:48:38.000Z</time>
      </trkpt>
      <trkpt lat="43.32766" lon="5.68966">
        <ele>814</ele>
        <time>2019-11-29T12:48:39.000Z</time>
      </trkpt>
      <trkpt lat="43.32766" lon="5.68965">
        <ele>813</ele>
        <time>2019-11-29T12:48:40.000Z</time>
      </trkpt>
      <trkpt lat="43.32766" lon="5.68965">
        <ele>813</ele>
        <time>2019-11-29T12:48:41.000Z</time>
      </trkpt>
      <trkpt lat="43.32766" lon="5.68965">
        <ele>813</ele>
        <time>2019-11-29T12:48:42.000Z</time>
      </trkpt>
      <trkpt lat="43.32766" lon="5.68965">
        <ele>813</ele>
        <time>2019-11-29T12:48:43.000Z</time>
      </trkpt>
      <trkpt lat="43.32766" lon="5.68965">
        <ele>813</ele>
        <time>2019-11-29T12:48:44.000Z</time>
      </trkpt>
      <trkpt lat="43.32766" lon="5.68965">
        <ele>813</ele>
        <time>2019-11-29T12:48:45.000Z</time>
      </trkpt>
      <trkpt lat="43.32766" lon="5.68965">
        <ele>813</ele>
        <time>2019-11-29T12:48:46.000Z</time>
      </trkpt>
      <trkpt lat="43.32766" lon="5.68965">
        <ele>813</ele>
        <time>2019-11-29T12:48:47.000Z</time>
      </trkpt>
      <trkpt lat="43.32766" lon="5.68965">
        <ele>813</ele>
        <time>2019-11-29T12:48:48.000Z</time>
      </trkpt>
      <trkpt lat="43.32766" lon="5.68965">
        <ele>813</ele>
        <time>2019-11-29T12:48:49.000Z</time>
      </trkpt>
      <trkpt lat="43.32766" lon="5.68965">
        <ele>813</ele>
        <time>2019-11-29T12:48:50.000Z</time>
      </trkpt>
      <trkpt lat="43.32766" lon="5.68965">
        <ele>813</ele>
        <time>2019-11-29T12:48:51.000Z</time>
      </trkpt>
      <trkpt lat="43.32766" lon="5.68965">
        <ele>813</ele>
        <time>2019-11-29T12:48:52.000Z</time>
      </trkpt>
      <trkpt lat="43.32766" lon="5.68965">
        <ele>813</ele>
        <time>2019-11-29T12:48:53.000Z</time>
      </trkpt>
      <trkpt lat="43.32766" lon="5.68965">
        <ele>813</ele>
        <time>2019-11-29T12:48:54.000Z</time>
      </trkpt>
      <trkpt lat="43.32766" lon="5.68965">
        <ele>813</ele>
        <time>2019-11-29T12:48:55.000Z</time>
      </trkpt>
      <trkpt lat="43.32766" lon="5.68965">
        <ele>813</ele>
        <time>2019-11-29T12:48:56.000Z</time>
      </trkpt>
      <trkpt lat="43.32766" lon="5.68965">
        <ele>813</ele>
        <time>2019-11-29T12:48:57.000Z</time>
      </trkpt>
      <trkpt lat="43.32766" lon="5.68965">
        <ele>813</ele>
        <time>2019-11-29T12:48:58.000Z</time>
      </trkpt>
      <trkpt lat="43.32766" lon="5.68965">
        <ele>813</ele>
        <time>2019-11-29T12:48:59.000Z</time>
      </trkpt>
      <trkpt lat="43.32766" lon="5.68965">
        <ele>813</ele>
        <time>2019-11-29T12:49:00.000Z</time>
      </trkpt>
      <trkpt lat="43.32766" lon="5.68965">
        <ele>813</ele>
        <time>2019-11-29T12:49:01.000Z</time>
      </trkpt>
      <trkpt lat="43.32766" lon="5.68965">
        <ele>813</ele>
        <time>2019-11-29T12:49:02.000Z</time>
      </trkpt>
      <trkpt lat="43.32766" lon="5.68964">
        <ele>813</ele>
        <time>2019-11-29T12:49:03.000Z</time>
      </trkpt>
      <trkpt lat="43.32766" lon="5.68964">
        <ele>813</ele>
        <time>2019-11-29T12:49:04.000Z</time>
      </trkpt>
      <trkpt lat="43.32766" lon="5.68964">
        <ele>813</ele>
        <time>2019-11-29T12:49:05.000Z</time>
      </trkpt>
      <trkpt lat="43.32766" lon="5.68964">
        <ele>813</ele>
        <time>2019-11-29T12:49:06.000Z</time>
      </trkpt>
      <trkpt lat="43.32766" lon="5.68964">
        <ele>813</ele>
        <time>2019-11-29T12:49:07.000Z</time>
      </trkpt>
      <trkpt lat="43.32766" lon="5.68964">
        <ele>813</ele>
        <time>2019-11-29T12:49:08.000Z</time>
      </trkpt>
      <trkpt lat="43.32765" lon="5.68963">
        <ele>813</ele>
        <time>2019-11-29T12:49:09.000Z</time>
      </trkpt>
      <trkpt lat="43.32765" lon="5.68963">
        <ele>813</ele>
        <time>2019-11-29T12:49:10.000Z</time>
      </trkpt>
      <trkpt lat="43.32765" lon="5.68963">
        <ele>813</ele>
        <time>2019-11-29T12:49:11.000Z</time>
      </trkpt>
      <trkpt lat="43.32765" lon="5.68963">
        <ele>813</ele>
        <time>2019-11-29T12:49:12.000Z</time>
      </trkpt>
      <trkpt lat="43.32765" lon="5.68963">
        <ele>813</ele>
        <time>2019-11-29T12:49:13.000Z</time>
      </trkpt>
      <trkpt lat="43.32765" lon="5.68963">
        <ele>813</ele>
        <time>2019-11-29T12:49:14.000Z</time>
      </trkpt>
      <trkpt lat="43.32765" lon="5.68963">
        <ele>813</ele>
        <time>2019-11-29T12:49:15.000Z</time>
      </trkpt>
      <trkpt lat="43.32765" lon="5.68963">
        <ele>813</ele>
        <time>2019-11-29T12:49:16.000Z</time>
      </trkpt>
      <trkpt lat="43.32765" lon="5.68963">
        <ele>813</ele>
        <time>2019-11-29T12:49:17.000Z</time>
      </trkpt>
      <trkpt lat="43.32765" lon="5.68963">
        <ele>813</ele>
        <time>2019-11-29T12:49:18.000Z</time>
      </trkpt>
      <trkpt lat="43.32765" lon="5.68963">
        <ele>813</ele>
        <time>2019-11-29T12:49:19.000Z</time>
      </trkpt>
      <trkpt lat="43.32765" lon="5.68963">
        <ele>813</ele>
        <time>2019-11-29T12:49:20.000Z</time>
      </trkpt>
      <trkpt lat="43.32765" lon="5.68963">
        <ele>812</ele>
        <time>2019-11-29T12:49:21.000Z</time>
      </trkpt>
      <trkpt lat="43.32765" lon="5.68963">
        <ele>812</ele>
        <time>2019-11-29T12:49:22.000Z</time>
      </trkpt>
      <trkpt lat="43.32765" lon="5.68963">
        <ele>812</ele>
        <time>2019-11-29T12:49:23.000Z</time>
      </trkpt>
      <trkpt lat="43.32765" lon="5.68963">
        <ele>812</ele>
        <time>2019-11-29T12:49:24.000Z</time>
      </trkpt>
      <trkpt lat="43.32766" lon="5.68963">
        <ele>812</ele>
        <time>2019-11-29T12:49:25.000Z</time>
      </trkpt>
      <trkpt lat="43.32766" lon="5.68962">
        <ele>812</ele>
        <time>2019-11-29T12:49:26.000Z</time>
      </trkpt>
      <trkpt lat="43.32767" lon="5.68963">
        <ele>812</ele>
        <time>2019-11-29T12:49:27.000Z</time>
      </trkpt>
      <trkpt lat="43.32767" lon="5.68962">
        <ele>812</ele>
        <time>2019-11-29T12:49:28.000Z</time>
      </trkpt>
      <trkpt lat="43.32766" lon="5.68962">
        <ele>812</ele>
        <time>2019-11-29T12:49:29.000Z</time>
      </trkpt>
      <trkpt lat="43.32766" lon="5.68961">
        <ele>812</ele>
        <time>2019-11-29T12:49:30.000Z</time>
      </trkpt>
      <trkpt lat="43.32766" lon="5.68961">
        <ele>811</ele>
        <time>2019-11-29T12:49:31.000Z</time>
      </trkpt>
      <trkpt lat="43.32766" lon="5.68961">
        <ele>811</ele>
        <time>2019-11-29T12:49:32.000Z</time>
      </trkpt>
      <trkpt lat="43.32766" lon="5.68961">
        <ele>811</ele>
        <time>2019-11-29T12:49:33.000Z</time>
      </trkpt>
      <trkpt lat="43.32766" lon="5.6896">
        <ele>811</ele>
        <time>2019-11-29T12:49:34.000Z</time>
      </trkpt>
      <trkpt lat="43.32766" lon="5.6896">
        <ele>811</ele>
        <time>2019-11-29T12:49:35.000Z</time>
      </trkpt>
      <trkpt lat="43.32766" lon="5.6896">
        <ele>811</ele>
        <time>2019-11-29T12:49:36.000Z</time>
      </trkpt>
      <trkpt lat="43.32766" lon="5.6896">
        <ele>811</ele>
        <time>2019-11-29T12:49:37.000Z</time>
      </trkpt>
      <trkpt lat="43.32766" lon="5.6896">
        <ele>811</ele>
        <time>2019-11-29T12:49:38.000Z</time>
      </trkpt>
      <trkpt lat="43.32766" lon="5.6896">
        <ele>810</ele>
        <time>2019-11-29T12:49:39.000Z</time>
      </trkpt>
      <trkpt lat="43.32765" lon="5.6896">
        <ele>810</ele>
        <time>2019-11-29T12:49:40.000Z</time>
      </trkpt>
      <trkpt lat="43.32765" lon="5.6896">
        <ele>810</ele>
        <time>2019-11-29T12:49:41.000Z</time>
      </trkpt>
      <trkpt lat="43.32765" lon="5.6896">
        <ele>810</ele>
        <time>2019-11-29T12:49:42.000Z</time>
      </trkpt>
      <trkpt lat="43.32765" lon="5.6896">
        <ele>810</ele>
        <time>2019-11-29T12:49:43.000Z</time>
      </trkpt>
      <trkpt lat="43.32765" lon="5.6896">
        <ele>810</ele>
        <time>2019-11-29T12:49:44.000Z</time>
      </trkpt>
      <trkpt lat="43.32765" lon="5.6896">
        <ele>810</ele>
        <time>2019-11-29T12:49:45.000Z</time>
      </trkpt>
      <trkpt lat="43.32765" lon="5.6896">
        <ele>810</ele>
        <time>2019-11-29T12:49:46.000Z</time>
      </trkpt>
      <trkpt lat="43.32765" lon="5.6896">
        <ele>810</ele>
        <time>2019-11-29T12:49:47.000Z</time>
      </trkpt>
      <trkpt lat="43.32765" lon="5.6896">
        <ele>810</ele>
        <time>2019-11-29T12:49:48.000Z</time>
      </trkpt>
      <trkpt lat="43.32765" lon="5.6896">
        <ele>810</ele>
        <time>2019-11-29T12:49:49.000Z</time>
      </trkpt>
      <trkpt lat="43.32765" lon="5.68959">
        <ele>810</ele>
        <time>2019-11-29T12:49:50.000Z</time>
      </trkpt>
      <trkpt lat="43.32764" lon="5.68959">
        <ele>809</ele>
        <time>2019-11-29T12:49:51.000Z</time>
      </trkpt>
      <trkpt lat="43.32764" lon="5.68959">
        <ele>809</ele>
        <time>2019-11-29T12:49:52.000Z</time>
      </trkpt>
      <trkpt lat="43.32764" lon="5.68959">
        <ele>809</ele>
        <time>2019-11-29T12:49:53.000Z</time>
      </trkpt>
      <trkpt lat="43.32764" lon="5.68959">
        <ele>809</ele>
        <time>2019-11-29T12:49:54.000Z</time>
      </trkpt>
      <trkpt lat="43.32764" lon="5.68959">
        <ele>809</ele>
        <time>2019-11-29T12:49:55.000Z</time>
      </trkpt>
      <trkpt lat="43.32764" lon="5.68959">
        <ele>809</ele>
        <time>2019-11-29T12:49:56.000Z</time>
      </trkpt>
      <trkpt lat="43.32764" lon="5.68959">
        <ele>809</ele>
        <time>2019-11-29T12:49:57.000Z</time>
      </trkpt>
      <trkpt lat="43.32764" lon="5.68958">
        <ele>809</ele>
        <time>2019-11-29T12:49:58.000Z</time>
      </trkpt>
      <trkpt lat="43.32764" lon="5.68958">
        <ele>809</ele>
        <time>2019-11-29T12:49:59.000Z</time>
      </trkpt>
      <trkpt lat="43.32764" lon="5.68958">
        <ele>809</ele>
        <time>2019-11-29T12:50:00.000Z</time>
      </trkpt>
      <trkpt lat="43.32764" lon="5.68958">
        <ele>809</ele>
        <time>2019-11-29T12:50:01.000Z</time>
      </trkpt>
      <trkpt lat="43.32764" lon="5.68958">
        <ele>809</ele>
        <time>2019-11-29T12:50:02.000Z</time>
      </trkpt>
      <trkpt lat="43.32764" lon="5.68958">
        <ele>809</ele>
        <time>2019-11-29T12:50:03.000Z</time>
      </trkpt>
      <trkpt lat="43.32764" lon="5.68957">
        <ele>809</ele>
        <time>2019-11-29T12:50:04.000Z</time>
      </trkpt>
      <trkpt lat="43.32764" lon="5.68957">
        <ele>809</ele>
        <time>2019-11-29T12:50:05.000Z</time>
      </trkpt>
      <trkpt lat="43.32764" lon="5.68957">
        <ele>809</ele>
        <time>2019-11-29T12:50:06.000Z</time>
      </trkpt>
      <trkpt lat="43.32764" lon="5.68957">
        <ele>809</ele>
        <time>2019-11-29T12:50:07.000Z</time>
      </trkpt>
      <trkpt lat="43.32764" lon="5.68957">
        <ele>809</ele>
        <time>2019-11-29T12:50:08.000Z</time>
      </trkpt>
      <trkpt lat="43.32764" lon="5.68957">
        <ele>808</ele>
        <time>2019-11-29T12:50:09.000Z</time>
      </trkpt>
      <trkpt lat="43.32764" lon="5.68956">
        <ele>808</ele>
        <time>2019-11-29T12:50:10.000Z</time>
      </trkpt>
      <trkpt lat="43.32764" lon="5.68955">
        <ele>808</ele>
        <time>2019-11-29T12:50:11.000Z</time>
      </trkpt>
      <trkpt lat="43.32764" lon="5.68955">
        <ele>808</ele>
        <time>2019-11-29T12:50:12.000Z</time>
      </trkpt>
      <trkpt lat="43.32764" lon="5.68955">
        <ele>808</ele>
        <time>2019-11-29T12:50:13.000Z</time>
      </trkpt>
      <trkpt lat="43.32764" lon="5.68954">
        <ele>808</ele>
        <time>2019-11-29T12:50:14.000Z</time>
      </trkpt>
      <trkpt lat="43.32765" lon="5.68954">
        <ele>808</ele>
        <time>2019-11-29T12:50:15.000Z</time>
      </trkpt>
      <trkpt lat="43.32765" lon="5.68955">
        <ele>808</ele>
        <time>2019-11-29T12:50:16.000Z</time>
      </trkpt>
      <trkpt lat="43.32765" lon="5.68955">
        <ele>808</ele>
        <time>2019-11-29T12:50:17.000Z</time>
      </trkpt>
      <trkpt lat="43.32765" lon="5.68954">
        <ele>808</ele>
        <time>2019-11-29T12:50:18.000Z</time>
      </trkpt>
      <trkpt lat="43.32765" lon="5.68954">
        <ele>808</ele>
        <time>2019-11-29T12:50:19.000Z</time>
      </trkpt>
      <trkpt lat="43.32765" lon="5.68954">
        <ele>808</ele>
        <time>2019-11-29T12:50:20.000Z</time>
      </trkpt>
      <trkpt lat="43.32764" lon="5.68953">
        <ele>808</ele>
        <time>2019-11-29T12:50:21.000Z</time>
      </trkpt>
      <trkpt lat="43.32764" lon="5.68953">
        <ele>808</ele>
        <time>2019-11-29T12:50:22.000Z</time>
      </trkpt>
      <trkpt lat="43.32764" lon="5.68953">
        <ele>807</ele>
        <time>2019-11-29T12:50:23.000Z</time>
      </trkpt>
      <trkpt lat="43.32764" lon="5.68952">
        <ele>807</ele>
        <time>2019-11-29T12:50:24.000Z</time>
      </trkpt>
      <trkpt lat="43.32764" lon="5.68951">
        <ele>807</ele>
        <time>2019-11-29T12:50:25.000Z</time>
      </trkpt>
      <trkpt lat="43.32764" lon="5.68951">
        <ele>807</ele>
        <time>2019-11-29T12:50:26.000Z</time>
      </trkpt>
      <trkpt lat="43.32764" lon="5.68951">
        <ele>807</ele>
        <time>2019-11-29T12:50:27.000Z</time>
      </trkpt>
      <trkpt lat="43.32764" lon="5.6895">
        <ele>806</ele>
        <time>2019-11-29T12:50:28.000Z</time>
      </trkpt>
      <trkpt lat="43.32764" lon="5.6895">
        <ele>806</ele>
        <time>2019-11-29T12:50:29.000Z</time>
      </trkpt>
      <trkpt lat="43.32764" lon="5.6895">
        <ele>806</ele>
        <time>2019-11-29T12:50:30.000Z</time>
      </trkpt>
      <trkpt lat="43.32764" lon="5.6895">
        <ele>806</ele>
        <time>2019-11-29T12:50:31.000Z</time>
      </trkpt>
      <trkpt lat="43.32764" lon="5.6895">
        <ele>806</ele>
        <time>2019-11-29T12:50:32.000Z</time>
      </trkpt>
      <trkpt lat="43.32764" lon="5.68949">
        <ele>806</ele>
        <time>2019-11-29T12:50:33.000Z</time>
      </trkpt>
      <trkpt lat="43.32763" lon="5.68949">
        <ele>806</ele>
        <time>2019-11-29T12:50:34.000Z</time>
      </trkpt>
      <trkpt lat="43.32763" lon="5.68948">
        <ele>806</ele>
        <time>2019-11-29T12:50:35.000Z</time>
      </trkpt>
      <trkpt lat="43.32763" lon="5.68948">
        <ele>806</ele>
        <time>2019-11-29T12:50:36.000Z</time>
      </trkpt>
      <trkpt lat="43.32763" lon="5.68948">
        <ele>806</ele>
        <time>2019-11-29T12:50:37.000Z</time>
      </trkpt>
      <trkpt lat="43.32763" lon="5.68948">
        <ele>805</ele>
        <time>2019-11-29T12:50:38.000Z</time>
      </trkpt>
      <trkpt lat="43.32763" lon="5.68948">
        <ele>805</ele>
        <time>2019-11-29T12:50:39.000Z</time>
      </trkpt>
      <trkpt lat="43.32763" lon="5.68948">
        <ele>805</ele>
        <time>2019-11-29T12:50:40.000Z</time>
      </trkpt>
      <trkpt lat="43.32763" lon="5.68948">
        <ele>805</ele>
        <time>2019-11-29T12:50:41.000Z</time>
      </trkpt>
      <trkpt lat="43.32763" lon="5.68948">
        <ele>805</ele>
        <time>2019-11-29T12:50:42.000Z</time>
      </trkpt>
      <trkpt lat="43.32763" lon="5.68947">
        <ele>805</ele>
        <time>2019-11-29T12:50:43.000Z</time>
      </trkpt>
      <trkpt lat="43.32763" lon="5.68947">
        <ele>805</ele>
        <time>2019-11-29T12:50:44.000Z</time>
      </trkpt>
      <trkpt lat="43.32763" lon="5.68947">
        <ele>805</ele>
        <time>2019-11-29T12:50:45.000Z</time>
      </trkpt>
      <trkpt lat="43.32763" lon="5.68947">
        <ele>805</ele>
        <time>2019-11-29T12:50:46.000Z</time>
      </trkpt>
      <trkpt lat="43.32763" lon="5.68947">
        <ele>805</ele>
        <time>2019-11-29T12:50:47.000Z</time>
      </trkpt>
      <trkpt lat="43.32763" lon="5.68947">
        <ele>805</ele>
        <time>2019-11-29T12:50:48.000Z</time>
      </trkpt>
      <trkpt lat="43.32763" lon="5.68947">
        <ele>804</ele>
        <time>2019-11-29T12:50:49.000Z</time>
      </trkpt>
      <trkpt lat="43.32762" lon="5.68948">
        <ele>804</ele>
        <time>2019-11-29T12:50:50.000Z</time>
      </trkpt>
      <trkpt lat="43.32762" lon="5.68948">
        <ele>804</ele>
        <time>2019-11-29T12:50:51.000Z</time>
      </trkpt>
      <trkpt lat="43.32763" lon="5.68947">
        <ele>804</ele>
        <time>2019-11-29T12:50:52.000Z</time>
      </trkpt>
      <trkpt lat="43.32763" lon="5.68947">
        <ele>804</ele>
        <time>2019-11-29T12:50:53.000Z</time>
      </trkpt>
      <trkpt lat="43.32763" lon="5.68946">
        <ele>804</ele>
        <time>2019-11-29T12:50:54.000Z</time>
      </trkpt>
      <trkpt lat="43.32763" lon="5.68946">
        <ele>804</ele>
        <time>2019-11-29T12:50:55.000Z</time>
      </trkpt>
      <trkpt lat="43.32763" lon="5.68946">
        <ele>803</ele>
        <time>2019-11-29T12:50:56.000Z</time>
      </trkpt>
      <trkpt lat="43.32763" lon="5.68946">
        <ele>803</ele>
        <time>2019-11-29T12:50:57.000Z</time>
      </trkpt>
      <trkpt lat="43.32763" lon="5.68946">
        <ele>803</ele>
        <time>2019-11-29T12:50:58.000Z</time>
      </trkpt>
      <trkpt lat="43.32763" lon="5.68946">
        <ele>803</ele>
        <time>2019-11-29T12:50:59.000Z</time>
      </trkpt>
      <trkpt lat="43.32764" lon="5.68946">
        <ele>803</ele>
        <time>2019-11-29T12:51:00.000Z</time>
      </trkpt>
      <trkpt lat="43.32764" lon="5.68946">
        <ele>803</ele>
        <time>2019-11-29T12:51:01.000Z</time>
      </trkpt>
      <trkpt lat="43.32763" lon="5.68945">
        <ele>803</ele>
        <time>2019-11-29T12:51:02.000Z</time>
      </trkpt>
      <trkpt lat="43.32763" lon="5.68945">
        <ele>803</ele>
        <time>2019-11-29T12:51:03.000Z</time>
      </trkpt>
      <trkpt lat="43.32763" lon="5.68945">
        <ele>803</ele>
        <time>2019-11-29T12:51:04.000Z</time>
      </trkpt>
      <trkpt lat="43.32763" lon="5.68945">
        <ele>803</ele>
        <time>2019-11-29T12:51:05.000Z</time>
      </trkpt>
      <trkpt lat="43.32764" lon="5.68945">
        <ele>803</ele>
        <time>2019-11-29T12:51:06.000Z</time>
      </trkpt>
      <trkpt lat="43.32763" lon="5.68944">
        <ele>803</ele>
        <time>2019-11-29T12:51:07.000Z</time>
      </trkpt>
      <trkpt lat="43.32763" lon="5.68943">
        <ele>803</ele>
        <time>2019-11-29T12:51:08.000Z</time>
      </trkpt>
      <trkpt lat="43.32762" lon="5.68943">
        <ele>802</ele>
        <time>2019-11-29T12:51:09.000Z</time>
      </trkpt>
      <trkpt lat="43.32762" lon="5.68942">
        <ele>802</ele>
        <time>2019-11-29T12:51:10.000Z</time>
      </trkpt>
      <trkpt lat="43.32761" lon="5.68942">
        <ele>802</ele>
        <time>2019-11-29T12:51:11.000Z</time>
      </trkpt>
      <trkpt lat="43.32761" lon="5.68941">
        <ele>802</ele>
        <time>2019-11-29T12:51:12.000Z</time>
      </trkpt>
      <trkpt lat="43.3276" lon="5.68939">
        <ele>802</ele>
        <time>2019-11-29T12:51:13.000Z</time>
      </trkpt>
      <trkpt lat="43.32759" lon="5.68938">
        <ele>802</ele>
        <time>2019-11-29T12:51:14.000Z</time>
      </trkpt>
      <trkpt lat="43.32758" lon="5.68937">
        <ele>801</ele>
        <time>2019-11-29T12:51:15.000Z</time>
      </trkpt>
      <trkpt lat="43.32758" lon="5.68937">
        <ele>801</ele>
        <time>2019-11-29T12:51:16.000Z</time>
      </trkpt>
      <trkpt lat="43.32757" lon="5.68937">
        <ele>801</ele>
        <time>2019-11-29T12:51:17.000Z</time>
      </trkpt>
      <trkpt lat="43.32756" lon="5.68936">
        <ele>801</ele>
        <time>2019-11-29T12:51:18.000Z</time>
      </trkpt>
      <trkpt lat="43.32756" lon="5.68935">
        <ele>801</ele>
        <time>2019-11-29T12:51:19.000Z</time>
      </trkpt>
      <trkpt lat="43.32755" lon="5.68934">
        <ele>801</ele>
        <time>2019-11-29T12:51:20.000Z</time>
      </trkpt>
      <trkpt lat="43.32755" lon="5.68934">
        <ele>800</ele>
        <time>2019-11-29T12:51:21.000Z</time>
      </trkpt>
      <trkpt lat="43.32754" lon="5.68933">
        <ele>800</ele>
        <time>2019-11-29T12:51:22.000Z</time>
      </trkpt>
      <trkpt lat="43.32754" lon="5.68932">
        <ele>800</ele>
        <time>2019-11-29T12:51:23.000Z</time>
      </trkpt>
      <trkpt lat="43.32753" lon="5.68931">
        <ele>800</ele>
        <time>2019-11-29T12:51:24.000Z</time>
      </trkpt>
      <trkpt lat="43.32753" lon="5.6893">
        <ele>799</ele>
        <time>2019-11-29T12:51:25.000Z</time>
      </trkpt>
      <trkpt lat="43.32752" lon="5.68929">
        <ele>799</ele>
        <time>2019-11-29T12:51:26.000Z</time>
      </trkpt>
      <trkpt lat="43.32752" lon="5.68928">
        <ele>799</ele>
        <time>2019-11-29T12:51:27.000Z</time>
      </trkpt>
      <trkpt lat="43.32752" lon="5.68928">
        <ele>799</ele>
        <time>2019-11-29T12:51:28.000Z</time>
      </trkpt>
      <trkpt lat="43.32752" lon="5.68927">
        <ele>799</ele>
        <time>2019-11-29T12:51:29.000Z</time>
      </trkpt>
      <trkpt lat="43.32752" lon="5.68927">
        <ele>799</ele>
        <time>2019-11-29T12:51:30.000Z</time>
      </trkpt>
      <trkpt lat="43.32752" lon="5.68927">
        <ele>799</ele>
        <time>2019-11-29T12:51:31.000Z</time>
      </trkpt>
      <trkpt lat="43.32751" lon="5.68927">
        <ele>799</ele>
        <time>2019-11-29T12:51:32.000Z</time>
      </trkpt>
      <trkpt lat="43.32751" lon="5.68926">
        <ele>799</ele>
        <time>2019-11-29T12:51:33.000Z</time>
      </trkpt>
      <trkpt lat="43.3275" lon="5.68924">
        <ele>799</ele>
        <time>2019-11-29T12:51:34.000Z</time>
      </trkpt>
      <trkpt lat="43.32749" lon="5.68923">
        <ele>799</ele>
        <time>2019-11-29T12:51:35.000Z</time>
      </trkpt>
      <trkpt lat="43.32748" lon="5.68921">
        <ele>798</ele>
        <time>2019-11-29T12:51:36.000Z</time>
      </trkpt>
      <trkpt lat="43.32747" lon="5.6892">
        <ele>798</ele>
        <time>2019-11-29T12:51:37.000Z</time>
      </trkpt>
      <trkpt lat="43.32746" lon="5.68919">
        <ele>798</ele>
        <time>2019-11-29T12:51:38.000Z</time>
      </trkpt>
      <trkpt lat="43.32745" lon="5.68918">
        <ele>798</ele>
        <time>2019-11-29T12:51:39.000Z</time>
      </trkpt>
      <trkpt lat="43.32744" lon="5.68917">
        <ele>798</ele>
        <time>2019-11-29T12:51:40.000Z</time>
      </trkpt>
      <trkpt lat="43.32744" lon="5.68916">
        <ele>798</ele>
        <time>2019-11-29T12:51:41.000Z</time>
      </trkpt>
      <trkpt lat="43.32743" lon="5.68915">
        <ele>798</ele>
        <time>2019-11-29T12:51:42.000Z</time>
      </trkpt>
      <trkpt lat="43.32742" lon="5.68914">
        <ele>798</ele>
        <time>2019-11-29T12:51:43.000Z</time>
      </trkpt>
      <trkpt lat="43.32741" lon="5.68913">
        <ele>798</ele>
        <time>2019-11-29T12:51:44.000Z</time>
      </trkpt>
      <trkpt lat="43.3274" lon="5.68912">
        <ele>798</ele>
        <time>2019-11-29T12:51:45.000Z</time>
      </trkpt>
      <trkpt lat="43.32739" lon="5.68911">
        <ele>798</ele>
        <time>2019-11-29T12:51:46.000Z</time>
      </trkpt>
      <trkpt lat="43.32739" lon="5.6891">
        <ele>798</ele>
        <time>2019-11-29T12:51:47.000Z</time>
      </trkpt>
      <trkpt lat="43.32738" lon="5.68909">
        <ele>798</ele>
        <time>2019-11-29T12:51:48.000Z</time>
      </trkpt>
      <trkpt lat="43.32738" lon="5.68908">
        <ele>798</ele>
        <time>2019-11-29T12:51:49.000Z</time>
      </trkpt>
      <trkpt lat="43.32737" lon="5.68907">
        <ele>797</ele>
        <time>2019-11-29T12:51:50.000Z</time>
      </trkpt>
      <trkpt lat="43.32736" lon="5.68905">
        <ele>797</ele>
        <time>2019-11-29T12:51:51.000Z</time>
      </trkpt>
      <trkpt lat="43.32735" lon="5.68904">
        <ele>797</ele>
        <time>2019-11-29T12:51:52.000Z</time>
      </trkpt>
      <trkpt lat="43.32734" lon="5.68903">
        <ele>797</ele>
        <time>2019-11-29T12:51:53.000Z</time>
      </trkpt>
      <trkpt lat="43.32733" lon="5.68902">
        <ele>797</ele>
        <time>2019-11-29T12:51:54.000Z</time>
      </trkpt>
      <trkpt lat="43.32733" lon="5.68901">
        <ele>796</ele>
        <time>2019-11-29T12:51:55.000Z</time>
      </trkpt>
      <trkpt lat="43.32732" lon="5.689">
        <ele>796</ele>
        <time>2019-11-29T12:51:56.000Z</time>
      </trkpt>
      <trkpt lat="43.32731" lon="5.68898">
        <ele>796</ele>
        <time>2019-11-29T12:51:57.000Z</time>
      </trkpt>
      <trkpt lat="43.3273" lon="5.68897">
        <ele>796</ele>
        <time>2019-11-29T12:51:58.000Z</time>
      </trkpt>
      <trkpt lat="43.3273" lon="5.68896">
        <ele>796</ele>
        <time>2019-11-29T12:51:59.000Z</time>
      </trkpt>
      <trkpt lat="43.32729" lon="5.68895">
        <ele>795</ele>
        <time>2019-11-29T12:52:00.000Z</time>
      </trkpt>
      <trkpt lat="43.32729" lon="5.68894">
        <ele>795</ele>
        <time>2019-11-29T12:52:01.000Z</time>
      </trkpt>
      <trkpt lat="43.32729" lon="5.68894">
        <ele>795</ele>
        <time>2019-11-29T12:52:02.000Z</time>
      </trkpt>
      <trkpt lat="43.32729" lon="5.68894">
        <ele>795</ele>
        <time>2019-11-29T12:52:03.000Z</time>
      </trkpt>
      <trkpt lat="43.32729" lon="5.68894">
        <ele>795</ele>
        <time>2019-11-29T12:52:04.000Z</time>
      </trkpt>
      <trkpt lat="43.32729" lon="5.68894">
        <ele>795</ele>
        <time>2019-11-29T12:52:05.000Z</time>
      </trkpt>
      <trkpt lat="43.32729" lon="5.68894">
        <ele>795</ele>
        <time>2019-11-29T12:52:06.000Z</time>
      </trkpt>
      <trkpt lat="43.32729" lon="5.68893">
        <ele>794</ele>
        <time>2019-11-29T12:52:07.000Z</time>
      </trkpt>
      <trkpt lat="43.32729" lon="5.68893">
        <ele>794</ele>
        <time>2019-11-29T12:52:08.000Z</time>
      </trkpt>
      <trkpt lat="43.32729" lon="5.68894">
        <ele>794</ele>
        <time>2019-11-29T12:52:09.000Z</time>
      </trkpt>
      <trkpt lat="43.32729" lon="5.68894">
        <ele>794</ele>
        <time>2019-11-29T12:52:10.000Z</time>
      </trkpt>
      <trkpt lat="43.32729" lon="5.68894">
        <ele>794</ele>
        <time>2019-11-29T12:52:11.000Z</time>
      </trkpt>
      <trkpt lat="43.32729" lon="5.68894">
        <ele>794</ele>
        <time>2019-11-29T12:52:12.000Z</time>
      </trkpt>
      <trkpt lat="43.32729" lon="5.68894">
        <ele>794</ele>
        <time>2019-11-29T12:52:13.000Z</time>
      </trkpt>
      <trkpt lat="43.32729" lon="5.68893">
        <ele>794</ele>
        <time>2019-11-29T12:52:14.000Z</time>
      </trkpt>
      <trkpt lat="43.32729" lon="5.68892">
        <ele>794</ele>
        <time>2019-11-29T12:52:15.000Z</time>
      </trkpt>
      <trkpt lat="43.32729" lon="5.68891">
        <ele>794</ele>
        <time>2019-11-29T12:52:16.000Z</time>
      </trkpt>
      <trkpt lat="43.32729" lon="5.68891">
        <ele>794</ele>
        <time>2019-11-29T12:52:17.000Z</time>
      </trkpt>
      <trkpt lat="43.32728" lon="5.68889">
        <ele>794</ele>
        <time>2019-11-29T12:52:18.000Z</time>
      </trkpt>
      <trkpt lat="43.32727" lon="5.68888">
        <ele>794</ele>
        <time>2019-11-29T12:52:19.000Z</time>
      </trkpt>
      <trkpt lat="43.32726" lon="5.68887">
        <ele>794</ele>
        <time>2019-11-29T12:52:20.000Z</time>
      </trkpt>
      <trkpt lat="43.32725" lon="5.68886">
        <ele>794</ele>
        <time>2019-11-29T12:52:21.000Z</time>
      </trkpt>
      <trkpt lat="43.32724" lon="5.68885">
        <ele>794</ele>
        <time>2019-11-29T12:52:22.000Z</time>
      </trkpt>
      <trkpt lat="43.32723" lon="5.68884">
        <ele>794</ele>
        <time>2019-11-29T12:52:23.000Z</time>
      </trkpt>
      <trkpt lat="43.32723" lon="5.68882">
        <ele>794</ele>
        <time>2019-11-29T12:52:24.000Z</time>
      </trkpt>
      <trkpt lat="43.32722" lon="5.68881">
        <ele>794</ele>
        <time>2019-11-29T12:52:25.000Z</time>
      </trkpt>
      <trkpt lat="43.32721" lon="5.68879">
        <ele>794</ele>
        <time>2019-11-29T12:52:26.000Z</time>
      </trkpt>
      <trkpt lat="43.32721" lon="5.68878">
        <ele>794</ele>
        <time>2019-11-29T12:52:27.000Z</time>
      </trkpt>
      <trkpt lat="43.3272" lon="5.68876">
        <ele>794</ele>
        <time>2019-11-29T12:52:28.000Z</time>
      </trkpt>
      <trkpt lat="43.32719" lon="5.68875">
        <ele>794</ele>
        <time>2019-11-29T12:52:29.000Z</time>
      </trkpt>
      <trkpt lat="43.32719" lon="5.68873">
        <ele>794</ele>
        <time>2019-11-29T12:52:30.000Z</time>
      </trkpt>
      <trkpt lat="43.32718" lon="5.68872">
        <ele>794</ele>
        <time>2019-11-29T12:52:31.000Z</time>
      </trkpt>
      <trkpt lat="43.32717" lon="5.68871">
        <ele>794</ele>
        <time>2019-11-29T12:52:32.000Z</time>
      </trkpt>
      <trkpt lat="43.32717" lon="5.68869">
        <ele>794</ele>
        <time>2019-11-29T12:52:33.000Z</time>
      </trkpt>
      <trkpt lat="43.32716" lon="5.68868">
        <ele>794</ele>
        <time>2019-11-29T12:52:34.000Z</time>
      </trkpt>
      <trkpt lat="43.32716" lon="5.68867">
        <ele>794</ele>
        <time>2019-11-29T12:52:35.000Z</time>
      </trkpt>
      <trkpt lat="43.32715" lon="5.68866">
        <ele>795</ele>
        <time>2019-11-29T12:52:36.000Z</time>
      </trkpt>
      <trkpt lat="43.32714" lon="5.68865">
        <ele>795</ele>
        <time>2019-11-29T12:52:37.000Z</time>
      </trkpt>
      <trkpt lat="43.32714" lon="5.68863">
        <ele>795</ele>
        <time>2019-11-29T12:52:38.000Z</time>
      </trkpt>
      <trkpt lat="43.32713" lon="5.68862">
        <ele>795</ele>
        <time>2019-11-29T12:52:39.000Z</time>
      </trkpt>
      <trkpt lat="43.32713" lon="5.68861">
        <ele>795</ele>
        <time>2019-11-29T12:52:40.000Z</time>
      </trkpt>
      <trkpt lat="43.32712" lon="5.68859">
        <ele>795</ele>
        <time>2019-11-29T12:52:41.000Z</time>
      </trkpt>
      <trkpt lat="43.32711" lon="5.68858">
        <ele>795</ele>
        <time>2019-11-29T12:52:42.000Z</time>
      </trkpt>
      <trkpt lat="43.32711" lon="5.68857">
        <ele>795</ele>
        <time>2019-11-29T12:52:43.000Z</time>
      </trkpt>
      <trkpt lat="43.3271" lon="5.68856">
        <ele>795</ele>
        <time>2019-11-29T12:52:44.000Z</time>
      </trkpt>
      <trkpt lat="43.32709" lon="5.68856">
        <ele>795</ele>
        <time>2019-11-29T12:52:45.000Z</time>
      </trkpt>
      <trkpt lat="43.32708" lon="5.68855">
        <ele>795</ele>
        <time>2019-11-29T12:52:46.000Z</time>
      </trkpt>
      <trkpt lat="43.32707" lon="5.68854">
        <ele>795</ele>
        <time>2019-11-29T12:52:47.000Z</time>
      </trkpt>
      <trkpt lat="43.32706" lon="5.68853">
        <ele>795</ele>
        <time>2019-11-29T12:52:48.000Z</time>
      </trkpt>
      <trkpt lat="43.32705" lon="5.68852">
        <ele>795</ele>
        <time>2019-11-29T12:52:49.000Z</time>
      </trkpt>
      <trkpt lat="43.32704" lon="5.68851">
        <ele>795</ele>
        <time>2019-11-29T12:52:50.000Z</time>
      </trkpt>
      <trkpt lat="43.32703" lon="5.6885">
        <ele>795</ele>
        <time>2019-11-29T12:52:51.000Z</time>
      </trkpt>
      <trkpt lat="43.32703" lon="5.68849">
        <ele>795</ele>
        <time>2019-11-29T12:52:52.000Z</time>
      </trkpt>
      <trkpt lat="43.32702" lon="5.68847">
        <ele>795</ele>
        <time>2019-11-29T12:52:53.000Z</time>
      </trkpt>
      <trkpt lat="43.32701" lon="5.68846">
        <ele>795</ele>
        <time>2019-11-29T12:52:54.000Z</time>
      </trkpt>
      <trkpt lat="43.327" lon="5.68845">
        <ele>796</ele>
        <time>2019-11-29T12:52:55.000Z</time>
      </trkpt>
      <trkpt lat="43.32699" lon="5.68844">
        <ele>796</ele>
        <time>2019-11-29T12:52:56.000Z</time>
      </trkpt>
      <trkpt lat="43.32699" lon="5.68843">
        <ele>796</ele>
        <time>2019-11-29T12:52:57.000Z</time>
      </trkpt>
      <trkpt lat="43.32698" lon="5.68841">
        <ele>796</ele>
        <time>2019-11-29T12:52:58.000Z</time>
      </trkpt>
      <trkpt lat="43.32697" lon="5.6884">
        <ele>796</ele>
        <time>2019-11-29T12:52:59.000Z</time>
      </trkpt>
      <trkpt lat="43.32697" lon="5.68839">
        <ele>796</ele>
        <time>2019-11-29T12:53:00.000Z</time>
      </trkpt>
      <trkpt lat="43.32696" lon="5.68838">
        <ele>796</ele>
        <time>2019-11-29T12:53:01.000Z</time>
      </trkpt>
      <trkpt lat="43.32695" lon="5.68837">
        <ele>796</ele>
        <time>2019-11-29T12:53:02.000Z</time>
      </trkpt>
      <trkpt lat="43.32695" lon="5.68836">
        <ele>796</ele>
        <time>2019-11-29T12:53:03.000Z</time>
      </trkpt>
      <trkpt lat="43.32694" lon="5.68835">
        <ele>796</ele>
        <time>2019-11-29T12:53:04.000Z</time>
      </trkpt>
      <trkpt lat="43.32694" lon="5.68834">
        <ele>796</ele>
        <time>2019-11-29T12:53:05.000Z</time>
      </trkpt>
      <trkpt lat="43.32693" lon="5.68833">
        <ele>795</ele>
        <time>2019-11-29T12:53:06.000Z</time>
      </trkpt>
      <trkpt lat="43.32692" lon="5.68832">
        <ele>795</ele>
        <time>2019-11-29T12:53:07.000Z</time>
      </trkpt>
      <trkpt lat="43.32691" lon="5.68831">
        <ele>795</ele>
        <time>2019-11-29T12:53:08.000Z</time>
      </trkpt>
      <trkpt lat="43.3269" lon="5.68829">
        <ele>795</ele>
        <time>2019-11-29T12:53:09.000Z</time>
      </trkpt>
      <trkpt lat="43.32689" lon="5.68828">
        <ele>795</ele>
        <time>2019-11-29T12:53:10.000Z</time>
      </trkpt>
      <trkpt lat="43.32688" lon="5.68828">
        <ele>795</ele>
        <time>2019-11-29T12:53:11.000Z</time>
      </trkpt>
      <trkpt lat="43.32688" lon="5.68827">
        <ele>795</ele>
        <time>2019-11-29T12:53:12.000Z</time>
      </trkpt>
      <trkpt lat="43.32687" lon="5.68825">
        <ele>795</ele>
        <time>2019-11-29T12:53:13.000Z</time>
      </trkpt>
      <trkpt lat="43.32686" lon="5.68824">
        <ele>795</ele>
        <time>2019-11-29T12:53:14.000Z</time>
      </trkpt>
      <trkpt lat="43.32685" lon="5.68823">
        <ele>795</ele>
        <time>2019-11-29T12:53:15.000Z</time>
      </trkpt>
      <trkpt lat="43.32685" lon="5.68822">
        <ele>795</ele>
        <time>2019-11-29T12:53:16.000Z</time>
      </trkpt>
      <trkpt lat="43.32684" lon="5.68821">
        <ele>795</ele>
        <time>2019-11-29T12:53:17.000Z</time>
      </trkpt>
      <trkpt lat="43.32683" lon="5.6882">
        <ele>795</ele>
        <time>2019-11-29T12:53:18.000Z</time>
      </trkpt>
      <trkpt lat="43.32682" lon="5.68818">
        <ele>795</ele>
        <time>2019-11-29T12:53:19.000Z</time>
      </trkpt>
      <trkpt lat="43.32682" lon="5.68817">
        <ele>795</ele>
        <time>2019-11-29T12:53:20.000Z</time>
      </trkpt>
      <trkpt lat="43.32681" lon="5.68815">
        <ele>795</ele>
        <time>2019-11-29T12:53:21.000Z</time>
      </trkpt>
      <trkpt lat="43.3268" lon="5.68814">
        <ele>795</ele>
        <time>2019-11-29T12:53:22.000Z</time>
      </trkpt>
      <trkpt lat="43.3268" lon="5.68813">
        <ele>795</ele>
        <time>2019-11-29T12:53:23.000Z</time>
      </trkpt>
      <trkpt lat="43.32679" lon="5.68812">
        <ele>795</ele>
        <time>2019-11-29T12:53:24.000Z</time>
      </trkpt>
      <trkpt lat="43.32678" lon="5.6881">
        <ele>795</ele>
        <time>2019-11-29T12:53:25.000Z</time>
      </trkpt>
      <trkpt lat="43.32678" lon="5.68809">
        <ele>795</ele>
        <time>2019-11-29T12:53:26.000Z</time>
      </trkpt>
      <trkpt lat="43.32677" lon="5.68807">
        <ele>795</ele>
        <time>2019-11-29T12:53:27.000Z</time>
      </trkpt>
      <trkpt lat="43.32677" lon="5.68806">
        <ele>795</ele>
        <time>2019-11-29T12:53:28.000Z</time>
      </trkpt>
      <trkpt lat="43.32677" lon="5.68804">
        <ele>795</ele>
        <time>2019-11-29T12:53:29.000Z</time>
      </trkpt>
      <trkpt lat="43.32677" lon="5.68803">
        <ele>795</ele>
        <time>2019-11-29T12:53:30.000Z</time>
      </trkpt>
      <trkpt lat="43.32677" lon="5.68802">
        <ele>795</ele>
        <time>2019-11-29T12:53:31.000Z</time>
      </trkpt>
      <trkpt lat="43.32677" lon="5.688">
        <ele>795</ele>
        <time>2019-11-29T12:53:32.000Z</time>
      </trkpt>
      <trkpt lat="43.32677" lon="5.68799">
        <ele>795</ele>
        <time>2019-11-29T12:53:33.000Z</time>
      </trkpt>
      <trkpt lat="43.32677" lon="5.68798">
        <ele>795</ele>
        <time>2019-11-29T12:53:34.000Z</time>
      </trkpt>
      <trkpt lat="43.32676" lon="5.68796">
        <ele>795</ele>
        <time>2019-11-29T12:53:35.000Z</time>
      </trkpt>
      <trkpt lat="43.32676" lon="5.68795">
        <ele>795</ele>
        <time>2019-11-29T12:53:36.000Z</time>
      </trkpt>
      <trkpt lat="43.32676" lon="5.68794">
        <ele>795</ele>
        <time>2019-11-29T12:53:37.000Z</time>
      </trkpt>
      <trkpt lat="43.32675" lon="5.68792">
        <ele>795</ele>
        <time>2019-11-29T12:53:38.000Z</time>
      </trkpt>
      <trkpt lat="43.32675" lon="5.6879">
        <ele>795</ele>
        <time>2019-11-29T12:53:39.000Z</time>
      </trkpt>
      <trkpt lat="43.32675" lon="5.68789">
        <ele>795</ele>
        <time>2019-11-29T12:53:40.000Z</time>
      </trkpt>
      <trkpt lat="43.32675" lon="5.68787">
        <ele>795</ele>
        <time>2019-11-29T12:53:41.000Z</time>
      </trkpt>
      <trkpt lat="43.32675" lon="5.68786">
        <ele>795</ele>
        <time>2019-11-29T12:53:42.000Z</time>
      </trkpt>
      <trkpt lat="43.32674" lon="5.68784">
        <ele>795</ele>
        <time>2019-11-29T12:53:43.000Z</time>
      </trkpt>
      <trkpt lat="43.32674" lon="5.68783">
        <ele>795</ele>
        <time>2019-11-29T12:53:44.000Z</time>
      </trkpt>
      <trkpt lat="43.32674" lon="5.68781">
        <ele>795</ele>
        <time>2019-11-29T12:53:45.000Z</time>
      </trkpt>
      <trkpt lat="43.32673" lon="5.6878">
        <ele>795</ele>
        <time>2019-11-29T12:53:46.000Z</time>
      </trkpt>
      <trkpt lat="43.32673" lon="5.68779">
        <ele>795</ele>
        <time>2019-11-29T12:53:47.000Z</time>
      </trkpt>
      <trkpt lat="43.32672" lon="5.68777">
        <ele>795</ele>
        <time>2019-11-29T12:53:48.000Z</time>
      </trkpt>
      <trkpt lat="43.32672" lon="5.68776">
        <ele>795</ele>
        <time>2019-11-29T12:53:49.000Z</time>
      </trkpt>
      <trkpt lat="43.32671" lon="5.68774">
        <ele>795</ele>
        <time>2019-11-29T12:53:50.000Z</time>
      </trkpt>
      <trkpt lat="43.32671" lon="5.68773">
        <ele>795</ele>
        <time>2019-11-29T12:53:51.000Z</time>
      </trkpt>
      <trkpt lat="43.3267" lon="5.68772">
        <ele>795</ele>
        <time>2019-11-29T12:53:52.000Z</time>
      </trkpt>
      <trkpt lat="43.3267" lon="5.6877">
        <ele>795</ele>
        <time>2019-11-29T12:53:53.000Z</time>
      </trkpt>
      <trkpt lat="43.3267" lon="5.68768">
        <ele>795</ele>
        <time>2019-11-29T12:53:54.000Z</time>
      </trkpt>
      <trkpt lat="43.3267" lon="5.68767">
        <ele>795</ele>
        <time>2019-11-29T12:53:55.000Z</time>
      </trkpt>
      <trkpt lat="43.32669" lon="5.68765">
        <ele>795</ele>
        <time>2019-11-29T12:53:56.000Z</time>
      </trkpt>
      <trkpt lat="43.32669" lon="5.68764">
        <ele>795</ele>
        <time>2019-11-29T12:53:57.000Z</time>
      </trkpt>
      <trkpt lat="43.32668" lon="5.68763">
        <ele>795</ele>
        <time>2019-11-29T12:53:58.000Z</time>
      </trkpt>
      <trkpt lat="43.32668" lon="5.68761">
        <ele>795</ele>
        <time>2019-11-29T12:53:59.000Z</time>
      </trkpt>
      <trkpt lat="43.32667" lon="5.6876">
        <ele>795</ele>
        <time>2019-11-29T12:54:00.000Z</time>
      </trkpt>
      <trkpt lat="43.32667" lon="5.68759">
        <ele>795</ele>
        <time>2019-11-29T12:54:01.000Z</time>
      </trkpt>
      <trkpt lat="43.32666" lon="5.68757">
        <ele>795</ele>
        <time>2019-11-29T12:54:02.000Z</time>
      </trkpt>
      <trkpt lat="43.32665" lon="5.68756">
        <ele>795</ele>
        <time>2019-11-29T12:54:03.000Z</time>
      </trkpt>
      <trkpt lat="43.32665" lon="5.68755">
        <ele>795</ele>
        <time>2019-11-29T12:54:04.000Z</time>
      </trkpt>
      <trkpt lat="43.32665" lon="5.68754">
        <ele>795</ele>
        <time>2019-11-29T12:54:05.000Z</time>
      </trkpt>
      <trkpt lat="43.32664" lon="5.68753">
        <ele>795</ele>
        <time>2019-11-29T12:54:06.000Z</time>
      </trkpt>
      <trkpt lat="43.32663" lon="5.68752">
        <ele>795</ele>
        <time>2019-11-29T12:54:07.000Z</time>
      </trkpt>
      <trkpt lat="43.32663" lon="5.68751">
        <ele>795</ele>
        <time>2019-11-29T12:54:08.000Z</time>
      </trkpt>
      <trkpt lat="43.32662" lon="5.6875">
        <ele>795</ele>
        <time>2019-11-29T12:54:09.000Z</time>
      </trkpt>
      <trkpt lat="43.32661" lon="5.68749">
        <ele>796</ele>
        <time>2019-11-29T12:54:10.000Z</time>
      </trkpt>
      <trkpt lat="43.32661" lon="5.68748">
        <ele>796</ele>
        <time>2019-11-29T12:54:11.000Z</time>
      </trkpt>
      <trkpt lat="43.3266" lon="5.68747">
        <ele>796</ele>
        <time>2019-11-29T12:54:12.000Z</time>
      </trkpt>
      <trkpt lat="43.3266" lon="5.68747">
        <ele>796</ele>
        <time>2019-11-29T12:54:13.000Z</time>
      </trkpt>
      <trkpt lat="43.32659" lon="5.68746">
        <ele>796</ele>
        <time>2019-11-29T12:54:14.000Z</time>
      </trkpt>
      <trkpt lat="43.32658" lon="5.68746">
        <ele>796</ele>
        <time>2019-11-29T12:54:15.000Z</time>
      </trkpt>
      <trkpt lat="43.32658" lon="5.68746">
        <ele>797</ele>
        <time>2019-11-29T12:54:16.000Z</time>
      </trkpt>
      <trkpt lat="43.32657" lon="5.68745">
        <ele>797</ele>
        <time>2019-11-29T12:54:17.000Z</time>
      </trkpt>
      <trkpt lat="43.32656" lon="5.68745">
        <ele>797</ele>
        <time>2019-11-29T12:54:18.000Z</time>
      </trkpt>
      <trkpt lat="43.32656" lon="5.68745">
        <ele>797</ele>
        <time>2019-11-29T12:54:19.000Z</time>
      </trkpt>
      <trkpt lat="43.32655" lon="5.68745">
        <ele>797</ele>
        <time>2019-11-29T12:54:20.000Z</time>
      </trkpt>
      <trkpt lat="43.32655" lon="5.68744">
        <ele>798</ele>
        <time>2019-11-29T12:54:21.000Z</time>
      </trkpt>
      <trkpt lat="43.32654" lon="5.68744">
        <ele>798</ele>
        <time>2019-11-29T12:54:22.000Z</time>
      </trkpt>
      <trkpt lat="43.32654" lon="5.68743">
        <ele>798</ele>
        <time>2019-11-29T12:54:23.000Z</time>
      </trkpt>
      <trkpt lat="43.32653" lon="5.68743">
        <ele>798</ele>
        <time>2019-11-29T12:54:24.000Z</time>
      </trkpt>
      <trkpt lat="43.32653" lon="5.68743">
        <ele>799</ele>
        <time>2019-11-29T12:54:25.000Z</time>
      </trkpt>
      <trkpt lat="43.32653" lon="5.68743">
        <ele>799</ele>
        <time>2019-11-29T12:54:26.000Z</time>
      </trkpt>
      <trkpt lat="43.32652" lon="5.68743">
        <ele>799</ele>
        <time>2019-11-29T12:54:27.000Z</time>
      </trkpt>
      <trkpt lat="43.32651" lon="5.68743">
        <ele>799</ele>
        <time>2019-11-29T12:54:28.000Z</time>
      </trkpt>
      <trkpt lat="43.32651" lon="5.68743">
        <ele>799</ele>
        <time>2019-11-29T12:54:29.000Z</time>
      </trkpt>
      <trkpt lat="43.3265" lon="5.68743">
        <ele>799</ele>
        <time>2019-11-29T12:54:30.000Z</time>
      </trkpt>
      <trkpt lat="43.32649" lon="5.68743">
        <ele>800</ele>
        <time>2019-11-29T12:54:31.000Z</time>
      </trkpt>
      <trkpt lat="43.32648" lon="5.68742">
        <ele>800</ele>
        <time>2019-11-29T12:54:32.000Z</time>
      </trkpt>
      <trkpt lat="43.32647" lon="5.68742">
        <ele>800</ele>
        <time>2019-11-29T12:54:33.000Z</time>
      </trkpt>
      <trkpt lat="43.32647" lon="5.68741">
        <ele>800</ele>
        <time>2019-11-29T12:54:34.000Z</time>
      </trkpt>
      <trkpt lat="43.32646" lon="5.68741">
        <ele>800</ele>
        <time>2019-11-29T12:54:35.000Z</time>
      </trkpt>
      <trkpt lat="43.32645" lon="5.68741">
        <ele>800</ele>
        <time>2019-11-29T12:54:36.000Z</time>
      </trkpt>
      <trkpt lat="43.32645" lon="5.68741">
        <ele>800</ele>
        <time>2019-11-29T12:54:37.000Z</time>
      </trkpt>
      <trkpt lat="43.32644" lon="5.6874">
        <ele>800</ele>
        <time>2019-11-29T12:54:38.000Z</time>
      </trkpt>
      <trkpt lat="43.32643" lon="5.6874">
        <ele>800</ele>
        <time>2019-11-29T12:54:39.000Z</time>
      </trkpt>
      <trkpt lat="43.32642" lon="5.6874">
        <ele>800</ele>
        <time>2019-11-29T12:54:40.000Z</time>
      </trkpt>
      <trkpt lat="43.32642" lon="5.6874">
        <ele>800</ele>
        <time>2019-11-29T12:54:41.000Z</time>
      </trkpt>
      <trkpt lat="43.32641" lon="5.6874">
        <ele>801</ele>
        <time>2019-11-29T12:54:42.000Z</time>
      </trkpt>
      <trkpt lat="43.32641" lon="5.68739">
        <ele>801</ele>
        <time>2019-11-29T12:54:43.000Z</time>
      </trkpt>
      <trkpt lat="43.3264" lon="5.68739">
        <ele>801</ele>
        <time>2019-11-29T12:54:44.000Z</time>
      </trkpt>
      <trkpt lat="43.3264" lon="5.68739">
        <ele>801</ele>
        <time>2019-11-29T12:54:45.000Z</time>
      </trkpt>
      <trkpt lat="43.32639" lon="5.68739">
        <ele>801</ele>
        <time>2019-11-29T12:54:46.000Z</time>
      </trkpt>
      <trkpt lat="43.32638" lon="5.68739">
        <ele>801</ele>
        <time>2019-11-29T12:54:47.000Z</time>
      </trkpt>
      <trkpt lat="43.32637" lon="5.68739">
        <ele>801</ele>
        <time>2019-11-29T12:54:48.000Z</time>
      </trkpt>
      <trkpt lat="43.32636" lon="5.68738">
        <ele>801</ele>
        <time>2019-11-29T12:54:49.000Z</time>
      </trkpt>
      <trkpt lat="43.32635" lon="5.68738">
        <ele>801</ele>
        <time>2019-11-29T12:54:50.000Z</time>
      </trkpt>
      <trkpt lat="43.32634" lon="5.68738">
        <ele>801</ele>
        <time>2019-11-29T12:54:51.000Z</time>
      </trkpt>
      <trkpt lat="43.32633" lon="5.68738">
        <ele>801</ele>
        <time>2019-11-29T12:54:52.000Z</time>
      </trkpt>
      <trkpt lat="43.32632" lon="5.68738">
        <ele>801</ele>
        <time>2019-11-29T12:54:53.000Z</time>
      </trkpt>
      <trkpt lat="43.32631" lon="5.68739">
        <ele>801</ele>
        <time>2019-11-29T12:54:54.000Z</time>
      </trkpt>
      <trkpt lat="43.3263" lon="5.68739">
        <ele>801</ele>
        <time>2019-11-29T12:54:55.000Z</time>
      </trkpt>
      <trkpt lat="43.32629" lon="5.68739">
        <ele>801</ele>
        <time>2019-11-29T12:54:56.000Z</time>
      </trkpt>
      <trkpt lat="43.32628" lon="5.68739">
        <ele>801</ele>
        <time>2019-11-29T12:54:57.000Z</time>
      </trkpt>
      <trkpt lat="43.32626" lon="5.68739">
        <ele>801</ele>
        <time>2019-11-29T12:54:58.000Z</time>
      </trkpt>
      <trkpt lat="43.32625" lon="5.68738">
        <ele>801</ele>
        <time>2019-11-29T12:54:59.000Z</time>
      </trkpt>
      <trkpt lat="43.32624" lon="5.68738">
        <ele>801</ele>
        <time>2019-11-29T12:55:00.000Z</time>
      </trkpt>
      <trkpt lat="43.32623" lon="5.68738">
        <ele>802</ele>
        <time>2019-11-29T12:55:01.000Z</time>
      </trkpt>
      <trkpt lat="43.32622" lon="5.68738">
        <ele>802</ele>
        <time>2019-11-29T12:55:02.000Z</time>
      </trkpt>
      <trkpt lat="43.32622" lon="5.68738">
        <ele>802</ele>
        <time>2019-11-29T12:55:03.000Z</time>
      </trkpt>
      <trkpt lat="43.3262" lon="5.68738">
        <ele>802</ele>
        <time>2019-11-29T12:55:04.000Z</time>
      </trkpt>
      <trkpt lat="43.32619" lon="5.68738">
        <ele>802</ele>
        <time>2019-11-29T12:55:05.000Z</time>
      </trkpt>
      <trkpt lat="43.32619" lon="5.68737">
        <ele>802</ele>
        <time>2019-11-29T12:55:06.000Z</time>
      </trkpt>
      <trkpt lat="43.32618" lon="5.68737">
        <ele>802</ele>
        <time>2019-11-29T12:55:07.000Z</time>
      </trkpt>
      <trkpt lat="43.32617" lon="5.68737">
        <ele>803</ele>
        <time>2019-11-29T12:55:08.000Z</time>
      </trkpt>
      <trkpt lat="43.32616" lon="5.68737">
        <ele>803</ele>
        <time>2019-11-29T12:55:09.000Z</time>
      </trkpt>
      <trkpt lat="43.32616" lon="5.68737">
        <ele>803</ele>
        <time>2019-11-29T12:55:10.000Z</time>
      </trkpt>
      <trkpt lat="43.32615" lon="5.68737">
        <ele>803</ele>
        <time>2019-11-29T12:55:11.000Z</time>
      </trkpt>
      <trkpt lat="43.32614" lon="5.68737">
        <ele>803</ele>
        <time>2019-11-29T12:55:12.000Z</time>
      </trkpt>
      <trkpt lat="43.32613" lon="5.68737">
        <ele>804</ele>
        <time>2019-11-29T12:55:13.000Z</time>
      </trkpt>
      <trkpt lat="43.32613" lon="5.68737">
        <ele>804</ele>
        <time>2019-11-29T12:55:14.000Z</time>
      </trkpt>
      <trkpt lat="43.32612" lon="5.68737">
        <ele>804</ele>
        <time>2019-11-29T12:55:15.000Z</time>
      </trkpt>
      <trkpt lat="43.32612" lon="5.68737">
        <ele>804</ele>
        <time>2019-11-29T12:55:16.000Z</time>
      </trkpt>
      <trkpt lat="43.32611" lon="5.68736">
        <ele>804</ele>
        <time>2019-11-29T12:55:17.000Z</time>
      </trkpt>
      <trkpt lat="43.32611" lon="5.68736">
        <ele>805</ele>
        <time>2019-11-29T12:55:18.000Z</time>
      </trkpt>
      <trkpt lat="43.3261" lon="5.68736">
        <ele>805</ele>
        <time>2019-11-29T12:55:19.000Z</time>
      </trkpt>
      <trkpt lat="43.3261" lon="5.68735">
        <ele>805</ele>
        <time>2019-11-29T12:55:20.000Z</time>
      </trkpt>
      <trkpt lat="43.3261" lon="5.68735">
        <ele>805</ele>
        <time>2019-11-29T12:55:21.000Z</time>
      </trkpt>
      <trkpt lat="43.32609" lon="5.68734">
        <ele>805</ele>
        <time>2019-11-29T12:55:22.000Z</time>
      </trkpt>
      <trkpt lat="43.32609" lon="5.68734">
        <ele>806</ele>
        <time>2019-11-29T12:55:23.000Z</time>
      </trkpt>
      <trkpt lat="43.32609" lon="5.68734">
        <ele>806</ele>
        <time>2019-11-29T12:55:24.000Z</time>
      </trkpt>
      <trkpt lat="43.32608" lon="5.68734">
        <ele>806</ele>
        <time>2019-11-29T12:55:25.000Z</time>
      </trkpt>
      <trkpt lat="43.32608" lon="5.68734">
        <ele>806</ele>
        <time>2019-11-29T12:55:26.000Z</time>
      </trkpt>
      <trkpt lat="43.32607" lon="5.68734">
        <ele>806</ele>
        <time>2019-11-29T12:55:27.000Z</time>
      </trkpt>
      <trkpt lat="43.32607" lon="5.68734">
        <ele>807</ele>
        <time>2019-11-29T12:55:28.000Z</time>
      </trkpt>
      <trkpt lat="43.32606" lon="5.68733">
        <ele>807</ele>
        <time>2019-11-29T12:55:29.000Z</time>
      </trkpt>
      <trkpt lat="43.32605" lon="5.68733">
        <ele>807</ele>
        <time>2019-11-29T12:55:30.000Z</time>
      </trkpt>
      <trkpt lat="43.32604" lon="5.68733">
        <ele>807</ele>
        <time>2019-11-29T12:55:31.000Z</time>
      </trkpt>
      <trkpt lat="43.32604" lon="5.68733">
        <ele>807</ele>
        <time>2019-11-29T12:55:32.000Z</time>
      </trkpt>
      <trkpt lat="43.32603" lon="5.68733">
        <ele>807</ele>
        <time>2019-11-29T12:55:33.000Z</time>
      </trkpt>
      <trkpt lat="43.32603" lon="5.68732">
        <ele>807</ele>
        <time>2019-11-29T12:55:34.000Z</time>
      </trkpt>
      <trkpt lat="43.32602" lon="5.68732">
        <ele>807</ele>
        <time>2019-11-29T12:55:35.000Z</time>
      </trkpt>
      <trkpt lat="43.32601" lon="5.68731">
        <ele>807</ele>
        <time>2019-11-29T12:55:36.000Z</time>
      </trkpt>
      <trkpt lat="43.32601" lon="5.68731">
        <ele>808</ele>
        <time>2019-11-29T12:55:37.000Z</time>
      </trkpt>
      <trkpt lat="43.326" lon="5.68731">
        <ele>808</ele>
        <time>2019-11-29T12:55:38.000Z</time>
      </trkpt>
      <trkpt lat="43.326" lon="5.6873">
        <ele>808</ele>
        <time>2019-11-29T12:55:39.000Z</time>
      </trkpt>
      <trkpt lat="43.326" lon="5.6873">
        <ele>808</ele>
        <time>2019-11-29T12:55:40.000Z</time>
      </trkpt>
      <trkpt lat="43.32599" lon="5.68729">
        <ele>808</ele>
        <time>2019-11-29T12:55:41.000Z</time>
      </trkpt>
      <trkpt lat="43.32599" lon="5.68729">
        <ele>808</ele>
        <time>2019-11-29T12:55:42.000Z</time>
      </trkpt>
      <trkpt lat="43.32598" lon="5.68729">
        <ele>808</ele>
        <time>2019-11-29T12:55:43.000Z</time>
      </trkpt>
      <trkpt lat="43.32598" lon="5.68728">
        <ele>809</ele>
        <time>2019-11-29T12:55:44.000Z</time>
      </trkpt>
      <trkpt lat="43.32597" lon="5.68728">
        <ele>809</ele>
        <time>2019-11-29T12:55:45.000Z</time>
      </trkpt>
      <trkpt lat="43.32597" lon="5.68727">
        <ele>809</ele>
        <time>2019-11-29T12:55:46.000Z</time>
      </trkpt>
      <trkpt lat="43.32597" lon="5.68727">
        <ele>809</ele>
        <time>2019-11-29T12:55:47.000Z</time>
      </trkpt>
      <trkpt lat="43.32596" lon="5.68727">
        <ele>809</ele>
        <time>2019-11-29T12:55:48.000Z</time>
      </trkpt>
      <trkpt lat="43.32596" lon="5.68726">
        <ele>809</ele>
        <time>2019-11-29T12:55:49.000Z</time>
      </trkpt>
      <trkpt lat="43.32595" lon="5.68726">
        <ele>810</ele>
        <time>2019-11-29T12:55:50.000Z</time>
      </trkpt>
      <trkpt lat="43.32595" lon="5.68726">
        <ele>810</ele>
        <time>2019-11-29T12:55:51.000Z</time>
      </trkpt>
      <trkpt lat="43.32594" lon="5.68726">
        <ele>810</ele>
        <time>2019-11-29T12:55:52.000Z</time>
      </trkpt>
      <trkpt lat="43.32593" lon="5.68725">
        <ele>810</ele>
        <time>2019-11-29T12:55:53.000Z</time>
      </trkpt>
      <trkpt lat="43.32593" lon="5.68725">
        <ele>811</ele>
        <time>2019-11-29T12:55:54.000Z</time>
      </trkpt>
      <trkpt lat="43.32592" lon="5.68725">
        <ele>811</ele>
        <time>2019-11-29T12:55:55.000Z</time>
      </trkpt>
      <trkpt lat="43.32591" lon="5.68725">
        <ele>811</ele>
        <time>2019-11-29T12:55:56.000Z</time>
      </trkpt>
      <trkpt lat="43.32591" lon="5.68725">
        <ele>811</ele>
        <time>2019-11-29T12:55:57.000Z</time>
      </trkpt>
      <trkpt lat="43.3259" lon="5.68724">
        <ele>811</ele>
        <time>2019-11-29T12:55:58.000Z</time>
      </trkpt>
      <trkpt lat="43.3259" lon="5.68724">
        <ele>812</ele>
        <time>2019-11-29T12:55:59.000Z</time>
      </trkpt>
      <trkpt lat="43.32589" lon="5.68724">
        <ele>812</ele>
        <time>2019-11-29T12:56:00.000Z</time>
      </trkpt>
      <trkpt lat="43.32588" lon="5.68724">
        <ele>812</ele>
        <time>2019-11-29T12:56:01.000Z</time>
      </trkpt>
      <trkpt lat="43.32588" lon="5.68724">
        <ele>812</ele>
        <time>2019-11-29T12:56:02.000Z</time>
      </trkpt>
      <trkpt lat="43.32587" lon="5.68724">
        <ele>812</ele>
        <time>2019-11-29T12:56:03.000Z</time>
      </trkpt>
      <trkpt lat="43.32586" lon="5.68724">
        <ele>812</ele>
        <time>2019-11-29T12:56:04.000Z</time>
      </trkpt>
      <trkpt lat="43.32585" lon="5.68724">
        <ele>812</ele>
        <time>2019-11-29T12:56:05.000Z</time>
      </trkpt>
      <trkpt lat="43.32585" lon="5.68724">
        <ele>812</ele>
        <time>2019-11-29T12:56:06.000Z</time>
      </trkpt>
      <trkpt lat="43.32584" lon="5.68723">
        <ele>813</ele>
        <time>2019-11-29T12:56:07.000Z</time>
      </trkpt>
      <trkpt lat="43.32583" lon="5.68723">
        <ele>813</ele>
        <time>2019-11-29T12:56:08.000Z</time>
      </trkpt>
      <trkpt lat="43.32582" lon="5.68723">
        <ele>813</ele>
        <time>2019-11-29T12:56:09.000Z</time>
      </trkpt>
      <trkpt lat="43.32582" lon="5.68723">
        <ele>813</ele>
        <time>2019-11-29T12:56:10.000Z</time>
      </trkpt>
      <trkpt lat="43.32581" lon="5.68723">
        <ele>813</ele>
        <time>2019-11-29T12:56:11.000Z</time>
      </trkpt>
      <trkpt lat="43.3258" lon="5.68722">
        <ele>813</ele>
        <time>2019-11-29T12:56:12.000Z</time>
      </trkpt>
      <trkpt lat="43.3258" lon="5.68722">
        <ele>813</ele>
        <time>2019-11-29T12:56:13.000Z</time>
      </trkpt>
      <trkpt lat="43.32579" lon="5.68722">
        <ele>814</ele>
        <time>2019-11-29T12:56:14.000Z</time>
      </trkpt>
      <trkpt lat="43.32579" lon="5.68721">
        <ele>814</ele>
        <time>2019-11-29T12:56:15.000Z</time>
      </trkpt>
      <trkpt lat="43.32578" lon="5.68721">
        <ele>814</ele>
        <time>2019-11-29T12:56:16.000Z</time>
      </trkpt>
      <trkpt lat="43.32578" lon="5.6872">
        <ele>814</ele>
        <time>2019-11-29T12:56:17.000Z</time>
      </trkpt>
      <trkpt lat="43.32577" lon="5.6872">
        <ele>814</ele>
        <time>2019-11-29T12:56:18.000Z</time>
      </trkpt>
      <trkpt lat="43.32577" lon="5.68719">
        <ele>814</ele>
        <time>2019-11-29T12:56:19.000Z</time>
      </trkpt>
      <trkpt lat="43.32576" lon="5.68719">
        <ele>814</ele>
        <time>2019-11-29T12:56:20.000Z</time>
      </trkpt>
      <trkpt lat="43.32576" lon="5.68719">
        <ele>815</ele>
        <time>2019-11-29T12:56:21.000Z</time>
      </trkpt>
      <trkpt lat="43.32575" lon="5.68718">
        <ele>815</ele>
        <time>2019-11-29T12:56:22.000Z</time>
      </trkpt>
      <trkpt lat="43.32575" lon="5.68718">
        <ele>815</ele>
        <time>2019-11-29T12:56:23.000Z</time>
      </trkpt>
      <trkpt lat="43.32574" lon="5.68718">
        <ele>815</ele>
        <time>2019-11-29T12:56:24.000Z</time>
      </trkpt>
      <trkpt lat="43.32574" lon="5.68718">
        <ele>815</ele>
        <time>2019-11-29T12:56:25.000Z</time>
      </trkpt>
      <trkpt lat="43.32573" lon="5.68717">
        <ele>816</ele>
        <time>2019-11-29T12:56:26.000Z</time>
      </trkpt>
      <trkpt lat="43.32572" lon="5.68717">
        <ele>816</ele>
        <time>2019-11-29T12:56:27.000Z</time>
      </trkpt>
      <trkpt lat="43.32572" lon="5.68717">
        <ele>816</ele>
        <time>2019-11-29T12:56:28.000Z</time>
      </trkpt>
      <trkpt lat="43.32571" lon="5.68716">
        <ele>816</ele>
        <time>2019-11-29T12:56:29.000Z</time>
      </trkpt>
      <trkpt lat="43.32571" lon="5.68716">
        <ele>816</ele>
        <time>2019-11-29T12:56:30.000Z</time>
      </trkpt>
      <trkpt lat="43.32571" lon="5.68715">
        <ele>816</ele>
        <time>2019-11-29T12:56:31.000Z</time>
      </trkpt>
      <trkpt lat="43.32571" lon="5.68715">
        <ele>817</ele>
        <time>2019-11-29T12:56:32.000Z</time>
      </trkpt>
      <trkpt lat="43.3257" lon="5.68715">
        <ele>817</ele>
        <time>2019-11-29T12:56:33.000Z</time>
      </trkpt>
      <trkpt lat="43.3257" lon="5.68714">
        <ele>817</ele>
        <time>2019-11-29T12:56:34.000Z</time>
      </trkpt>
      <trkpt lat="43.3257" lon="5.68714">
        <ele>817</ele>
        <time>2019-11-29T12:56:35.000Z</time>
      </trkpt>
      <trkpt lat="43.32569" lon="5.68713">
        <ele>817</ele>
        <time>2019-11-29T12:56:36.000Z</time>
      </trkpt>
      <trkpt lat="43.32569" lon="5.68713">
        <ele>817</ele>
        <time>2019-11-29T12:56:37.000Z</time>
      </trkpt>
      <trkpt lat="43.32568" lon="5.68712">
        <ele>817</ele>
        <time>2019-11-29T12:56:38.000Z</time>
      </trkpt>
      <trkpt lat="43.32568" lon="5.68712">
        <ele>818</ele>
        <time>2019-11-29T12:56:39.000Z</time>
      </trkpt>
      <trkpt lat="43.32569" lon="5.68712">
        <ele>818</ele>
        <time>2019-11-29T12:56:40.000Z</time>
      </trkpt>
      <trkpt lat="43.32569" lon="5.68712">
        <ele>818</ele>
        <time>2019-11-29T12:56:41.000Z</time>
      </trkpt>
      <trkpt lat="43.32569" lon="5.68712">
        <ele>818</ele>
        <time>2019-11-29T12:56:42.000Z</time>
      </trkpt>
      <trkpt lat="43.32569" lon="5.68711">
        <ele>818</ele>
        <time>2019-11-29T12:56:43.000Z</time>
      </trkpt>
      <trkpt lat="43.32569" lon="5.68711">
        <ele>818</ele>
        <time>2019-11-29T12:56:44.000Z</time>
      </trkpt>
      <trkpt lat="43.32569" lon="5.68711">
        <ele>818</ele>
        <time>2019-11-29T12:56:45.000Z</time>
      </trkpt>
      <trkpt lat="43.32569" lon="5.68711">
        <ele>818</ele>
        <time>2019-11-29T12:56:46.000Z</time>
      </trkpt>
      <trkpt lat="43.32569" lon="5.68711">
        <ele>818</ele>
        <time>2019-11-29T12:56:47.000Z</time>
      </trkpt>
      <trkpt lat="43.32568" lon="5.68711">
        <ele>818</ele>
        <time>2019-11-29T12:56:48.000Z</time>
      </trkpt>
      <trkpt lat="43.32569" lon="5.68711">
        <ele>818</ele>
        <time>2019-11-29T12:56:49.000Z</time>
      </trkpt>
      <trkpt lat="43.32569" lon="5.68711">
        <ele>818</ele>
        <time>2019-11-29T12:56:50.000Z</time>
      </trkpt>
      <trkpt lat="43.32568" lon="5.68711">
        <ele>818</ele>
        <time>2019-11-29T12:56:51.000Z</time>
      </trkpt>
      <trkpt lat="43.32568" lon="5.68711">
        <ele>818</ele>
        <time>2019-11-29T12:56:52.000Z</time>
      </trkpt>
      <trkpt lat="43.32568" lon="5.68711">
        <ele>818</ele>
        <time>2019-11-29T12:56:53.000Z</time>
      </trkpt>
      <trkpt lat="43.32568" lon="5.68711">
        <ele>818</ele>
        <time>2019-11-29T12:56:54.000Z</time>
      </trkpt>
      <trkpt lat="43.32568" lon="5.68711">
        <ele>818</ele>
        <time>2019-11-29T12:56:55.000Z</time>
      </trkpt>
      <trkpt lat="43.32568" lon="5.68711">
        <ele>819</ele>
        <time>2019-11-29T12:56:56.000Z</time>
      </trkpt>
      <trkpt lat="43.32568" lon="5.68711">
        <ele>819</ele>
        <time>2019-11-29T12:56:57.000Z</time>
      </trkpt>
      <trkpt lat="43.32568" lon="5.68711">
        <ele>819</ele>
        <time>2019-11-29T12:56:58.000Z</time>
      </trkpt>
      <trkpt lat="43.32568" lon="5.68711">
        <ele>819</ele>
        <time>2019-11-29T12:56:59.000Z</time>
      </trkpt>
      <trkpt lat="43.32567" lon="5.68711">
        <ele>819</ele>
        <time>2019-11-29T12:57:00.000Z</time>
      </trkpt>
      <trkpt lat="43.32567" lon="5.68711">
        <ele>819</ele>
        <time>2019-11-29T12:57:01.000Z</time>
      </trkpt>
      <trkpt lat="43.32567" lon="5.68711">
        <ele>819</ele>
        <time>2019-11-29T12:57:02.000Z</time>
      </trkpt>
      <trkpt lat="43.32567" lon="5.68711">
        <ele>819</ele>
        <time>2019-11-29T12:57:03.000Z</time>
      </trkpt>
      <trkpt lat="43.32567" lon="5.68711">
        <ele>819</ele>
        <time>2019-11-29T12:57:04.000Z</time>
      </trkpt>
      <trkpt lat="43.32567" lon="5.68711">
        <ele>819</ele>
        <time>2019-11-29T12:57:05.000Z</time>
      </trkpt>
      <trkpt lat="43.32567" lon="5.68711">
        <ele>819</ele>
        <time>2019-11-29T12:57:06.000Z</time>
      </trkpt>
      <trkpt lat="43.32567" lon="5.68711">
        <ele>819</ele>
        <time>2019-11-29T12:57:07.000Z</time>
      </trkpt>
      <trkpt lat="43.32567" lon="5.68711">
        <ele>819</ele>
        <time>2019-11-29T12:57:08.000Z</time>
      </trkpt>
      <trkpt lat="43.32567" lon="5.68711">
        <ele>819</ele>
        <time>2019-11-29T12:57:09.000Z</time>
      </trkpt>
      <trkpt lat="43.32567" lon="5.68711">
        <ele>819</ele>
        <time>2019-11-29T12:57:10.000Z</time>
      </trkpt>
      <trkpt lat="43.32567" lon="5.68711">
        <ele>819</ele>
        <time>2019-11-29T12:57:11.000Z</time>
      </trkpt>
      <trkpt lat="43.32567" lon="5.68711">
        <ele>819</ele>
        <time>2019-11-29T12:57:12.000Z</time>
      </trkpt>
      <trkpt lat="43.32567" lon="5.68711">
        <ele>819</ele>
        <time>2019-11-29T12:57:13.000Z</time>
      </trkpt>
      <trkpt lat="43.32567" lon="5.68711">
        <ele>819</ele>
        <time>2019-11-29T12:57:14.000Z</time>
      </trkpt>
      <trkpt lat="43.32566" lon="5.6871">
        <ele>819</ele>
        <time>2019-11-29T12:57:15.000Z</time>
      </trkpt>
      <trkpt lat="43.32566" lon="5.68709">
        <ele>819</ele>
        <time>2019-11-29T12:57:16.000Z</time>
      </trkpt>
      <trkpt lat="43.32566" lon="5.68709">
        <ele>819</ele>
        <time>2019-11-29T12:57:17.000Z</time>
      </trkpt>
      <trkpt lat="43.32565" lon="5.68708">
        <ele>819</ele>
        <time>2019-11-29T12:57:18.000Z</time>
      </trkpt>
      <trkpt lat="43.32565" lon="5.68708">
        <ele>819</ele>
        <time>2019-11-29T12:57:19.000Z</time>
      </trkpt>
      <trkpt lat="43.32564" lon="5.68707">
        <ele>819</ele>
        <time>2019-11-29T12:57:20.000Z</time>
      </trkpt>
      <trkpt lat="43.32564" lon="5.68706">
        <ele>819</ele>
        <time>2019-11-29T12:57:21.000Z</time>
      </trkpt>
      <trkpt lat="43.32563" lon="5.68706">
        <ele>820</ele>
        <time>2019-11-29T12:57:22.000Z</time>
      </trkpt>
      <trkpt lat="43.32563" lon="5.68705">
        <ele>820</ele>
        <time>2019-11-29T12:57:23.000Z</time>
      </trkpt>
      <trkpt lat="43.32562" lon="5.68704">
        <ele>820</ele>
        <time>2019-11-29T12:57:24.000Z</time>
      </trkpt>
      <trkpt lat="43.32562" lon="5.68704">
        <ele>820</ele>
        <time>2019-11-29T12:57:25.000Z</time>
      </trkpt>
      <trkpt lat="43.32561" lon="5.68703">
        <ele>820</ele>
        <time>2019-11-29T12:57:26.000Z</time>
      </trkpt>
      <trkpt lat="43.32561" lon="5.68702">
        <ele>820</ele>
        <time>2019-11-29T12:57:27.000Z</time>
      </trkpt>
      <trkpt lat="43.32561" lon="5.68702">
        <ele>820</ele>
        <time>2019-11-29T12:57:28.000Z</time>
      </trkpt>
      <trkpt lat="43.3256" lon="5.68701">
        <ele>820</ele>
        <time>2019-11-29T12:57:29.000Z</time>
      </trkpt>
      <trkpt lat="43.3256" lon="5.68701">
        <ele>820</ele>
        <time>2019-11-29T12:57:30.000Z</time>
      </trkpt>
      <trkpt lat="43.32559" lon="5.687">
        <ele>820</ele>
        <time>2019-11-29T12:57:31.000Z</time>
      </trkpt>
      <trkpt lat="43.32559" lon="5.68699">
        <ele>821</ele>
        <time>2019-11-29T12:57:32.000Z</time>
      </trkpt>
      <trkpt lat="43.32558" lon="5.68698">
        <ele>821</ele>
        <time>2019-11-29T12:57:33.000Z</time>
      </trkpt>
      <trkpt lat="43.32557" lon="5.68698">
        <ele>821</ele>
        <time>2019-11-29T12:57:34.000Z</time>
      </trkpt>
      <trkpt lat="43.32557" lon="5.68697">
        <ele>821</ele>
        <time>2019-11-29T12:57:35.000Z</time>
      </trkpt>
      <trkpt lat="43.32556" lon="5.68696">
        <ele>821</ele>
        <time>2019-11-29T12:57:36.000Z</time>
      </trkpt>
      <trkpt lat="43.32556" lon="5.68695">
        <ele>821</ele>
        <time>2019-11-29T12:57:37.000Z</time>
      </trkpt>
      <trkpt lat="43.32556" lon="5.68695">
        <ele>821</ele>
        <time>2019-11-29T12:57:38.000Z</time>
      </trkpt>
      <trkpt lat="43.32555" lon="5.68694">
        <ele>821</ele>
        <time>2019-11-29T12:57:39.000Z</time>
      </trkpt>
      <trkpt lat="43.32555" lon="5.68693">
        <ele>821</ele>
        <time>2019-11-29T12:57:40.000Z</time>
      </trkpt>
      <trkpt lat="43.32554" lon="5.68693">
        <ele>822</ele>
        <time>2019-11-29T12:57:41.000Z</time>
      </trkpt>
      <trkpt lat="43.32554" lon="5.68692">
        <ele>822</ele>
        <time>2019-11-29T12:57:42.000Z</time>
      </trkpt>
      <trkpt lat="43.32553" lon="5.68691">
        <ele>822</ele>
        <time>2019-11-29T12:57:43.000Z</time>
      </trkpt>
      <trkpt lat="43.32553" lon="5.68691">
        <ele>822</ele>
        <time>2019-11-29T12:57:44.000Z</time>
      </trkpt>
      <trkpt lat="43.32552" lon="5.6869">
        <ele>822</ele>
        <time>2019-11-29T12:57:45.000Z</time>
      </trkpt>
      <trkpt lat="43.32551" lon="5.6869">
        <ele>822</ele>
        <time>2019-11-29T12:57:46.000Z</time>
      </trkpt>
      <trkpt lat="43.32551" lon="5.6869">
        <ele>822</ele>
        <time>2019-11-29T12:57:47.000Z</time>
      </trkpt>
      <trkpt lat="43.3255" lon="5.68689">
        <ele>822</ele>
        <time>2019-11-29T12:57:48.000Z</time>
      </trkpt>
      <trkpt lat="43.3255" lon="5.68688">
        <ele>822</ele>
        <time>2019-11-29T12:57:49.000Z</time>
      </trkpt>
      <trkpt lat="43.32549" lon="5.68687">
        <ele>822</ele>
        <time>2019-11-29T12:57:50.000Z</time>
      </trkpt>
      <trkpt lat="43.32548" lon="5.68687">
        <ele>822</ele>
        <time>2019-11-29T12:57:51.000Z</time>
      </trkpt>
      <trkpt lat="43.32548" lon="5.68686">
        <ele>822</ele>
        <time>2019-11-29T12:57:52.000Z</time>
      </trkpt>
      <trkpt lat="43.32548" lon="5.68686">
        <ele>823</ele>
        <time>2019-11-29T12:57:53.000Z</time>
      </trkpt>
      <trkpt lat="43.32547" lon="5.68686">
        <ele>823</ele>
        <time>2019-11-29T12:57:54.000Z</time>
      </trkpt>
      <trkpt lat="43.32546" lon="5.68685">
        <ele>823</ele>
        <time>2019-11-29T12:57:55.000Z</time>
      </trkpt>
      <trkpt lat="43.32546" lon="5.68684">
        <ele>823</ele>
        <time>2019-11-29T12:57:56.000Z</time>
      </trkpt>
      <trkpt lat="43.32545" lon="5.68684">
        <ele>823</ele>
        <time>2019-11-29T12:57:57.000Z</time>
      </trkpt>
      <trkpt lat="43.32544" lon="5.68683">
        <ele>824</ele>
        <time>2019-11-29T12:57:58.000Z</time>
      </trkpt>
      <trkpt lat="43.32544" lon="5.68683">
        <ele>824</ele>
        <time>2019-11-29T12:57:59.000Z</time>
      </trkpt>
      <trkpt lat="43.32543" lon="5.68682">
        <ele>824</ele>
        <time>2019-11-29T12:58:00.000Z</time>
      </trkpt>
      <trkpt lat="43.32542" lon="5.68682">
        <ele>824</ele>
        <time>2019-11-29T12:58:01.000Z</time>
      </trkpt>
      <trkpt lat="43.32542" lon="5.68681">
        <ele>824</ele>
        <time>2019-11-29T12:58:02.000Z</time>
      </trkpt>
      <trkpt lat="43.32541" lon="5.68681">
        <ele>824</ele>
        <time>2019-11-29T12:58:03.000Z</time>
      </trkpt>
      <trkpt lat="43.3254" lon="5.68681">
        <ele>824</ele>
        <time>2019-11-29T12:58:04.000Z</time>
      </trkpt>
      <trkpt lat="43.3254" lon="5.6868">
        <ele>825</ele>
        <time>2019-11-29T12:58:05.000Z</time>
      </trkpt>
      <trkpt lat="43.32539" lon="5.6868">
        <ele>825</ele>
        <time>2019-11-29T12:58:06.000Z</time>
      </trkpt>
      <trkpt lat="43.32539" lon="5.68679">
        <ele>825</ele>
        <time>2019-11-29T12:58:07.000Z</time>
      </trkpt>
      <trkpt lat="43.32539" lon="5.68679">
        <ele>825</ele>
        <time>2019-11-29T12:58:08.000Z</time>
      </trkpt>
      <trkpt lat="43.32538" lon="5.68678">
        <ele>825</ele>
        <time>2019-11-29T12:58:09.000Z</time>
      </trkpt>
      <trkpt lat="43.32538" lon="5.68677">
        <ele>825</ele>
        <time>2019-11-29T12:58:10.000Z</time>
      </trkpt>
      <trkpt lat="43.32538" lon="5.68676">
        <ele>825</ele>
        <time>2019-11-29T12:58:11.000Z</time>
      </trkpt>
      <trkpt lat="43.32539" lon="5.68676">
        <ele>826</ele>
        <time>2019-11-29T12:58:12.000Z</time>
      </trkpt>
      <trkpt lat="43.32538" lon="5.68676">
        <ele>826</ele>
        <time>2019-11-29T12:58:13.000Z</time>
      </trkpt>
      <trkpt lat="43.32538" lon="5.68675">
        <ele>826</ele>
        <time>2019-11-29T12:58:14.000Z</time>
      </trkpt>
      <trkpt lat="43.32538" lon="5.68675">
        <ele>826</ele>
        <time>2019-11-29T12:58:15.000Z</time>
      </trkpt>
      <trkpt lat="43.32537" lon="5.68674">
        <ele>826</ele>
        <time>2019-11-29T12:58:16.000Z</time>
      </trkpt>
      <trkpt lat="43.32536" lon="5.68673">
        <ele>827</ele>
        <time>2019-11-29T12:58:17.000Z</time>
      </trkpt>
      <trkpt lat="43.32536" lon="5.68673">
        <ele>827</ele>
        <time>2019-11-29T12:58:18.000Z</time>
      </trkpt>
      <trkpt lat="43.32535" lon="5.68673">
        <ele>827</ele>
        <time>2019-11-29T12:58:19.000Z</time>
      </trkpt>
      <trkpt lat="43.32535" lon="5.68673">
        <ele>827</ele>
        <time>2019-11-29T12:58:20.000Z</time>
      </trkpt>
      <trkpt lat="43.32534" lon="5.68673">
        <ele>827</ele>
        <time>2019-11-29T12:58:21.000Z</time>
      </trkpt>
      <trkpt lat="43.32534" lon="5.68673">
        <ele>828</ele>
        <time>2019-11-29T12:58:22.000Z</time>
      </trkpt>
      <trkpt lat="43.32533" lon="5.68673">
        <ele>828</ele>
        <time>2019-11-29T12:58:23.000Z</time>
      </trkpt>
      <trkpt lat="43.32533" lon="5.68672">
        <ele>828</ele>
        <time>2019-11-29T12:58:24.000Z</time>
      </trkpt>
      <trkpt lat="43.32532" lon="5.68672">
        <ele>828</ele>
        <time>2019-11-29T12:58:25.000Z</time>
      </trkpt>
      <trkpt lat="43.32532" lon="5.68672">
        <ele>828</ele>
        <time>2019-11-29T12:58:26.000Z</time>
      </trkpt>
      <trkpt lat="43.32531" lon="5.68671">
        <ele>829</ele>
        <time>2019-11-29T12:58:27.000Z</time>
      </trkpt>
      <trkpt lat="43.32531" lon="5.68671">
        <ele>829</ele>
        <time>2019-11-29T12:58:28.000Z</time>
      </trkpt>
      <trkpt lat="43.3253" lon="5.6867">
        <ele>829</ele>
        <time>2019-11-29T12:58:29.000Z</time>
      </trkpt>
      <trkpt lat="43.3253" lon="5.6867">
        <ele>829</ele>
        <time>2019-11-29T12:58:30.000Z</time>
      </trkpt>
      <trkpt lat="43.3253" lon="5.6867">
        <ele>829</ele>
        <time>2019-11-29T12:58:31.000Z</time>
      </trkpt>
      <trkpt lat="43.32529" lon="5.68669">
        <ele>829</ele>
        <time>2019-11-29T12:58:32.000Z</time>
      </trkpt>
      <trkpt lat="43.32529" lon="5.68669">
        <ele>829</ele>
        <time>2019-11-29T12:58:33.000Z</time>
      </trkpt>
      <trkpt lat="43.32529" lon="5.68669">
        <ele>830</ele>
        <time>2019-11-29T12:58:34.000Z</time>
      </trkpt>
      <trkpt lat="43.32529" lon="5.68669">
        <ele>830</ele>
        <time>2019-11-29T12:58:35.000Z</time>
      </trkpt>
      <trkpt lat="43.32529" lon="5.68668">
        <ele>830</ele>
        <time>2019-11-29T12:58:36.000Z</time>
      </trkpt>
      <trkpt lat="43.32529" lon="5.68668">
        <ele>830</ele>
        <time>2019-11-29T12:58:37.000Z</time>
      </trkpt>
      <trkpt lat="43.32529" lon="5.68668">
        <ele>830</ele>
        <time>2019-11-29T12:58:38.000Z</time>
      </trkpt>
      <trkpt lat="43.3253" lon="5.68668">
        <ele>830</ele>
        <time>2019-11-29T12:58:39.000Z</time>
      </trkpt>
      <trkpt lat="43.3253" lon="5.68668">
        <ele>830</ele>
        <time>2019-11-29T12:58:40.000Z</time>
      </trkpt>
      <trkpt lat="43.3253" lon="5.68668">
        <ele>830</ele>
        <time>2019-11-29T12:58:41.000Z</time>
      </trkpt>
      <trkpt lat="43.3253" lon="5.68667">
        <ele>830</ele>
        <time>2019-11-29T12:58:42.000Z</time>
      </trkpt>
      <trkpt lat="43.3253" lon="5.68667">
        <ele>830</ele>
        <time>2019-11-29T12:58:43.000Z</time>
      </trkpt>
      <trkpt lat="43.3253" lon="5.68666">
        <ele>830</ele>
        <time>2019-11-29T12:58:44.000Z</time>
      </trkpt>
      <trkpt lat="43.3253" lon="5.68666">
        <ele>830</ele>
        <time>2019-11-29T12:58:45.000Z</time>
      </trkpt>
      <trkpt lat="43.32531" lon="5.68666">
        <ele>830</ele>
        <time>2019-11-29T12:58:46.000Z</time>
      </trkpt>
      <trkpt lat="43.32531" lon="5.68665">
        <ele>830</ele>
        <time>2019-11-29T12:58:47.000Z</time>
      </trkpt>
      <trkpt lat="43.3253" lon="5.68665">
        <ele>831</ele>
        <time>2019-11-29T12:58:48.000Z</time>
      </trkpt>
      <trkpt lat="43.3253" lon="5.68664">
        <ele>831</ele>
        <time>2019-11-29T12:58:49.000Z</time>
      </trkpt>
      <trkpt lat="43.3253" lon="5.68664">
        <ele>831</ele>
        <time>2019-11-29T12:58:50.000Z</time>
      </trkpt>
      <trkpt lat="43.3253" lon="5.68664">
        <ele>831</ele>
        <time>2019-11-29T12:58:51.000Z</time>
      </trkpt>
      <trkpt lat="43.3253" lon="5.68663">
        <ele>831</ele>
        <time>2019-11-29T12:58:52.000Z</time>
      </trkpt>
      <trkpt lat="43.3253" lon="5.68662">
        <ele>831</ele>
        <time>2019-11-29T12:58:53.000Z</time>
      </trkpt>
      <trkpt lat="43.32529" lon="5.68661">
        <ele>831</ele>
        <time>2019-11-29T12:58:54.000Z</time>
      </trkpt>
      <trkpt lat="43.3253" lon="5.6866">
        <ele>831</ele>
        <time>2019-11-29T12:58:55.000Z</time>
      </trkpt>
      <trkpt lat="43.3253" lon="5.6866">
        <ele>832</ele>
        <time>2019-11-29T12:58:56.000Z</time>
      </trkpt>
      <trkpt lat="43.3253" lon="5.68659">
        <ele>832</ele>
        <time>2019-11-29T12:58:57.000Z</time>
      </trkpt>
      <trkpt lat="43.3253" lon="5.68659">
        <ele>832</ele>
        <time>2019-11-29T12:58:58.000Z</time>
      </trkpt>
      <trkpt lat="43.32531" lon="5.68659">
        <ele>832</ele>
        <time>2019-11-29T12:58:59.000Z</time>
      </trkpt>
      <trkpt lat="43.32531" lon="5.68659">
        <ele>832</ele>
        <time>2019-11-29T12:59:00.000Z</time>
      </trkpt>
      <trkpt lat="43.32531" lon="5.68658">
        <ele>832</ele>
        <time>2019-11-29T12:59:01.000Z</time>
      </trkpt>
      <trkpt lat="43.32532" lon="5.68658">
        <ele>832</ele>
        <time>2019-11-29T12:59:02.000Z</time>
      </trkpt>
      <trkpt lat="43.32532" lon="5.68657">
        <ele>832</ele>
        <time>2019-11-29T12:59:03.000Z</time>
      </trkpt>
      <trkpt lat="43.32532" lon="5.68656">
        <ele>832</ele>
        <time>2019-11-29T12:59:04.000Z</time>
      </trkpt>
      <trkpt lat="43.32533" lon="5.68656">
        <ele>832</ele>
        <time>2019-11-29T12:59:05.000Z</time>
      </trkpt>
      <trkpt lat="43.32532" lon="5.68655">
        <ele>832</ele>
        <time>2019-11-29T12:59:06.000Z</time>
      </trkpt>
      <trkpt lat="43.32532" lon="5.68654">
        <ele>832</ele>
        <time>2019-11-29T12:59:07.000Z</time>
      </trkpt>
      <trkpt lat="43.32532" lon="5.68654">
        <ele>833</ele>
        <time>2019-11-29T12:59:08.000Z</time>
      </trkpt>
      <trkpt lat="43.32532" lon="5.68653">
        <ele>833</ele>
        <time>2019-11-29T12:59:09.000Z</time>
      </trkpt>
      <trkpt lat="43.32531" lon="5.68653">
        <ele>833</ele>
        <time>2019-11-29T12:59:10.000Z</time>
      </trkpt>
      <trkpt lat="43.32531" lon="5.68653">
        <ele>833</ele>
        <time>2019-11-29T12:59:11.000Z</time>
      </trkpt>
      <trkpt lat="43.3253" lon="5.68653">
        <ele>833</ele>
        <time>2019-11-29T12:59:12.000Z</time>
      </trkpt>
      <trkpt lat="43.32529" lon="5.68654">
        <ele>833</ele>
        <time>2019-11-29T12:59:13.000Z</time>
      </trkpt>
      <trkpt lat="43.32528" lon="5.68654">
        <ele>833</ele>
        <time>2019-11-29T12:59:14.000Z</time>
      </trkpt>
      <trkpt lat="43.32528" lon="5.68654">
        <ele>833</ele>
        <time>2019-11-29T12:59:15.000Z</time>
      </trkpt>
      <trkpt lat="43.32527" lon="5.68654">
        <ele>834</ele>
        <time>2019-11-29T12:59:16.000Z</time>
      </trkpt>
      <trkpt lat="43.32527" lon="5.68653">
        <ele>834</ele>
        <time>2019-11-29T12:59:17.000Z</time>
      </trkpt>
      <trkpt lat="43.32527" lon="5.68653">
        <ele>834</ele>
        <time>2019-11-29T12:59:18.000Z</time>
      </trkpt>
      <trkpt lat="43.32527" lon="5.68653">
        <ele>834</ele>
        <time>2019-11-29T12:59:19.000Z</time>
      </trkpt>
      <trkpt lat="43.32527" lon="5.68653">
        <ele>834</ele>
        <time>2019-11-29T12:59:20.000Z</time>
      </trkpt>
      <trkpt lat="43.32527" lon="5.68653">
        <ele>834</ele>
        <time>2019-11-29T12:59:21.000Z</time>
      </trkpt>
      <trkpt lat="43.32527" lon="5.68653">
        <ele>834</ele>
        <time>2019-11-29T12:59:22.000Z</time>
      </trkpt>
      <trkpt lat="43.32527" lon="5.68653">
        <ele>834</ele>
        <time>2019-11-29T12:59:23.000Z</time>
      </trkpt>
      <trkpt lat="43.32527" lon="5.68653">
        <ele>834</ele>
        <time>2019-11-29T12:59:24.000Z</time>
      </trkpt>
      <trkpt lat="43.32527" lon="5.68653">
        <ele>834</ele>
        <time>2019-11-29T12:59:25.000Z</time>
      </trkpt>
      <trkpt lat="43.32527" lon="5.68653">
        <ele>834</ele>
        <time>2019-11-29T12:59:26.000Z</time>
      </trkpt>
      <trkpt lat="43.32527" lon="5.68653">
        <ele>834</ele>
        <time>2019-11-29T12:59:27.000Z</time>
      </trkpt>
      <trkpt lat="43.32527" lon="5.68653">
        <ele>834</ele>
        <time>2019-11-29T12:59:28.000Z</time>
      </trkpt>
      <trkpt lat="43.32527" lon="5.68653">
        <ele>834</ele>
        <time>2019-11-29T12:59:29.000Z</time>
      </trkpt>
      <trkpt lat="43.32527" lon="5.68653">
        <ele>834</ele>
        <time>2019-11-29T12:59:30.000Z</time>
      </trkpt>
      <trkpt lat="43.32527" lon="5.68653">
        <ele>834</ele>
        <time>2019-11-29T12:59:31.000Z</time>
      </trkpt>
      <trkpt lat="43.32526" lon="5.68653">
        <ele>834</ele>
        <time>2019-11-29T12:59:32.000Z</time>
      </trkpt>
      <trkpt lat="43.32525" lon="5.68652">
        <ele>835</ele>
        <time>2019-11-29T12:59:33.000Z</time>
      </trkpt>
      <trkpt lat="43.32524" lon="5.68652">
        <ele>835</ele>
        <time>2019-11-29T12:59:34.000Z</time>
      </trkpt>
      <trkpt lat="43.32523" lon="5.68652">
        <ele>835</ele>
        <time>2019-11-29T12:59:35.000Z</time>
      </trkpt>
      <trkpt lat="43.32522" lon="5.68653">
        <ele>835</ele>
        <time>2019-11-29T12:59:36.000Z</time>
      </trkpt>
      <trkpt lat="43.32521" lon="5.68653">
        <ele>835</ele>
        <time>2019-11-29T12:59:37.000Z</time>
      </trkpt>
      <trkpt lat="43.3252" lon="5.68653">
        <ele>835</ele>
        <time>2019-11-29T12:59:38.000Z</time>
      </trkpt>
      <trkpt lat="43.32519" lon="5.68653">
        <ele>835</ele>
        <time>2019-11-29T12:59:39.000Z</time>
      </trkpt>
      <trkpt lat="43.32518" lon="5.68653">
        <ele>835</ele>
        <time>2019-11-29T12:59:40.000Z</time>
      </trkpt>
      <trkpt lat="43.32517" lon="5.68653">
        <ele>835</ele>
        <time>2019-11-29T12:59:41.000Z</time>
      </trkpt>
      <trkpt lat="43.32516" lon="5.68652">
        <ele>835</ele>
        <time>2019-11-29T12:59:42.000Z</time>
      </trkpt>
      <trkpt lat="43.32515" lon="5.68652">
        <ele>835</ele>
        <time>2019-11-29T12:59:43.000Z</time>
      </trkpt>
      <trkpt lat="43.32514" lon="5.68652">
        <ele>835</ele>
        <time>2019-11-29T12:59:44.000Z</time>
      </trkpt>
      <trkpt lat="43.32513" lon="5.68652">
        <ele>835</ele>
        <time>2019-11-29T12:59:45.000Z</time>
      </trkpt>
      <trkpt lat="43.32512" lon="5.68652">
        <ele>835</ele>
        <time>2019-11-29T12:59:46.000Z</time>
      </trkpt>
      <trkpt lat="43.32511" lon="5.68651">
        <ele>835</ele>
        <time>2019-11-29T12:59:47.000Z</time>
      </trkpt>
      <trkpt lat="43.3251" lon="5.6865">
        <ele>835</ele>
        <time>2019-11-29T12:59:48.000Z</time>
      </trkpt>
      <trkpt lat="43.32509" lon="5.6865">
        <ele>835</ele>
        <time>2019-11-29T12:59:49.000Z</time>
      </trkpt>
      <trkpt lat="43.32508" lon="5.68649">
        <ele>835</ele>
        <time>2019-11-29T12:59:50.000Z</time>
      </trkpt>
      <trkpt lat="43.32507" lon="5.68648">
        <ele>835</ele>
        <time>2019-11-29T12:59:51.000Z</time>
      </trkpt>
      <trkpt lat="43.32506" lon="5.68648">
        <ele>835</ele>
        <time>2019-11-29T12:59:52.000Z</time>
      </trkpt>
      <trkpt lat="43.32505" lon="5.68647">
        <ele>835</ele>
        <time>2019-11-29T12:59:53.000Z</time>
      </trkpt>
      <trkpt lat="43.32504" lon="5.68647">
        <ele>835</ele>
        <time>2019-11-29T12:59:54.000Z</time>
      </trkpt>
      <trkpt lat="43.32503" lon="5.68647">
        <ele>835</ele>
        <time>2019-11-29T12:59:55.000Z</time>
      </trkpt>
      <trkpt lat="43.32503" lon="5.68646">
        <ele>835</ele>
        <time>2019-11-29T12:59:56.000Z</time>
      </trkpt>
      <trkpt lat="43.32502" lon="5.68646">
        <ele>835</ele>
        <time>2019-11-29T12:59:57.000Z</time>
      </trkpt>
      <trkpt lat="43.32501" lon="5.68645">
        <ele>835</ele>
        <time>2019-11-29T12:59:58.000Z</time>
      </trkpt>
      <trkpt lat="43.325" lon="5.68645">
        <ele>835</ele>
        <time>2019-11-29T12:59:59.000Z</time>
      </trkpt>
      <trkpt lat="43.32499" lon="5.68645">
        <ele>836</ele>
        <time>2019-11-29T13:00:00.000Z</time>
      </trkpt>
      <trkpt lat="43.32498" lon="5.68645">
        <ele>836</ele>
        <time>2019-11-29T13:00:01.000Z</time>
      </trkpt>
      <trkpt lat="43.32497" lon="5.68644">
        <ele>836</ele>
        <time>2019-11-29T13:00:02.000Z</time>
      </trkpt>
      <trkpt lat="43.32496" lon="5.68644">
        <ele>836</ele>
        <time>2019-11-29T13:00:03.000Z</time>
      </trkpt>
      <trkpt lat="43.32495" lon="5.68644">
        <ele>836</ele>
        <time>2019-11-29T13:00:04.000Z</time>
      </trkpt>
      <trkpt lat="43.32494" lon="5.68644">
        <ele>836</ele>
        <time>2019-11-29T13:00:05.000Z</time>
      </trkpt>
      <trkpt lat="43.32493" lon="5.68644">
        <ele>836</ele>
        <time>2019-11-29T13:00:06.000Z</time>
      </trkpt>
      <trkpt lat="43.32492" lon="5.68644">
        <ele>836</ele>
        <time>2019-11-29T13:00:07.000Z</time>
      </trkpt>
      <trkpt lat="43.32492" lon="5.68644">
        <ele>836</ele>
        <time>2019-11-29T13:00:08.000Z</time>
      </trkpt>
      <trkpt lat="43.32491" lon="5.68643">
        <ele>836</ele>
        <time>2019-11-29T13:00:09.000Z</time>
      </trkpt>
      <trkpt lat="43.3249" lon="5.68643">
        <ele>836</ele>
        <time>2019-11-29T13:00:10.000Z</time>
      </trkpt>
      <trkpt lat="43.32489" lon="5.68643">
        <ele>836</ele>
        <time>2019-11-29T13:00:11.000Z</time>
      </trkpt>
      <trkpt lat="43.32489" lon="5.68643">
        <ele>836</ele>
        <time>2019-11-29T13:00:12.000Z</time>
      </trkpt>
      <trkpt lat="43.32488" lon="5.68643">
        <ele>836</ele>
        <time>2019-11-29T13:00:13.000Z</time>
      </trkpt>
      <trkpt lat="43.32487" lon="5.68643">
        <ele>836</ele>
        <time>2019-11-29T13:00:14.000Z</time>
      </trkpt>
      <trkpt lat="43.32486" lon="5.68643">
        <ele>836</ele>
        <time>2019-11-29T13:00:15.000Z</time>
      </trkpt>
      <trkpt lat="43.32485" lon="5.68642">
        <ele>836</ele>
        <time>2019-11-29T13:00:16.000Z</time>
      </trkpt>
      <trkpt lat="43.32484" lon="5.68642">
        <ele>836</ele>
        <time>2019-11-29T13:00:17.000Z</time>
      </trkpt>
      <trkpt lat="43.32483" lon="5.68642">
        <ele>836</ele>
        <time>2019-11-29T13:00:18.000Z</time>
      </trkpt>
      <trkpt lat="43.32482" lon="5.68642">
        <ele>837</ele>
        <time>2019-11-29T13:00:19.000Z</time>
      </trkpt>
      <trkpt lat="43.32482" lon="5.68642">
        <ele>837</ele>
        <time>2019-11-29T13:00:20.000Z</time>
      </trkpt>
      <trkpt lat="43.32481" lon="5.68641">
        <ele>837</ele>
        <time>2019-11-29T13:00:21.000Z</time>
      </trkpt>
      <trkpt lat="43.3248" lon="5.68641">
        <ele>837</ele>
        <time>2019-11-29T13:00:22.000Z</time>
      </trkpt>
      <trkpt lat="43.32479" lon="5.68641">
        <ele>837</ele>
        <time>2019-11-29T13:00:23.000Z</time>
      </trkpt>
      <trkpt lat="43.32478" lon="5.6864">
        <ele>837</ele>
        <time>2019-11-29T13:00:24.000Z</time>
      </trkpt>
      <trkpt lat="43.32477" lon="5.6864">
        <ele>837</ele>
        <time>2019-11-29T13:00:25.000Z</time>
      </trkpt>
      <trkpt lat="43.32476" lon="5.68639">
        <ele>837</ele>
        <time>2019-11-29T13:00:26.000Z</time>
      </trkpt>
      <trkpt lat="43.32476" lon="5.68639">
        <ele>837</ele>
        <time>2019-11-29T13:00:27.000Z</time>
      </trkpt>
      <trkpt lat="43.32475" lon="5.68639">
        <ele>837</ele>
        <time>2019-11-29T13:00:28.000Z</time>
      </trkpt>
      <trkpt lat="43.32474" lon="5.68638">
        <ele>837</ele>
        <time>2019-11-29T13:00:29.000Z</time>
      </trkpt>
      <trkpt lat="43.32474" lon="5.68638">
        <ele>837</ele>
        <time>2019-11-29T13:00:30.000Z</time>
      </trkpt>
      <trkpt lat="43.32473" lon="5.68638">
        <ele>837</ele>
        <time>2019-11-29T13:00:31.000Z</time>
      </trkpt>
      <trkpt lat="43.32472" lon="5.68637">
        <ele>837</ele>
        <time>2019-11-29T13:00:32.000Z</time>
      </trkpt>
      <trkpt lat="43.32471" lon="5.68637">
        <ele>837</ele>
        <time>2019-11-29T13:00:33.000Z</time>
      </trkpt>
      <trkpt lat="43.3247" lon="5.68636">
        <ele>837</ele>
        <time>2019-11-29T13:00:34.000Z</time>
      </trkpt>
      <trkpt lat="43.32469" lon="5.68636">
        <ele>837</ele>
        <time>2019-11-29T13:00:35.000Z</time>
      </trkpt>
      <trkpt lat="43.32469" lon="5.68635">
        <ele>837</ele>
        <time>2019-11-29T13:00:36.000Z</time>
      </trkpt>
      <trkpt lat="43.32468" lon="5.68635">
        <ele>837</ele>
        <time>2019-11-29T13:00:37.000Z</time>
      </trkpt>
      <trkpt lat="43.32467" lon="5.68634">
        <ele>837</ele>
        <time>2019-11-29T13:00:38.000Z</time>
      </trkpt>
      <trkpt lat="43.32466" lon="5.68634">
        <ele>837</ele>
        <time>2019-11-29T13:00:39.000Z</time>
      </trkpt>
      <trkpt lat="43.32465" lon="5.68633">
        <ele>837</ele>
        <time>2019-11-29T13:00:40.000Z</time>
      </trkpt>
      <trkpt lat="43.32465" lon="5.68633">
        <ele>837</ele>
        <time>2019-11-29T13:00:41.000Z</time>
      </trkpt>
      <trkpt lat="43.32464" lon="5.68632">
        <ele>837</ele>
        <time>2019-11-29T13:00:42.000Z</time>
      </trkpt>
      <trkpt lat="43.32463" lon="5.68632">
        <ele>837</ele>
        <time>2019-11-29T13:00:43.000Z</time>
      </trkpt>
      <trkpt lat="43.32462" lon="5.68631">
        <ele>837</ele>
        <time>2019-11-29T13:00:44.000Z</time>
      </trkpt>
      <trkpt lat="43.32461" lon="5.68631">
        <ele>837</ele>
        <time>2019-11-29T13:00:45.000Z</time>
      </trkpt>
      <trkpt lat="43.3246" lon="5.6863">
        <ele>837</ele>
        <time>2019-11-29T13:00:46.000Z</time>
      </trkpt>
      <trkpt lat="43.32459" lon="5.68629">
        <ele>837</ele>
        <time>2019-11-29T13:00:47.000Z</time>
      </trkpt>
      <trkpt lat="43.32458" lon="5.68629">
        <ele>837</ele>
        <time>2019-11-29T13:00:48.000Z</time>
      </trkpt>
      <trkpt lat="43.32457" lon="5.68628">
        <ele>837</ele>
        <time>2019-11-29T13:00:49.000Z</time>
      </trkpt>
      <trkpt lat="43.32456" lon="5.68627">
        <ele>837</ele>
        <time>2019-11-29T13:00:50.000Z</time>
      </trkpt>
      <trkpt lat="43.32456" lon="5.68626">
        <ele>838</ele>
        <time>2019-11-29T13:00:51.000Z</time>
      </trkpt>
      <trkpt lat="43.32455" lon="5.68626">
        <ele>838</ele>
        <time>2019-11-29T13:00:52.000Z</time>
      </trkpt>
      <trkpt lat="43.32454" lon="5.68625">
        <ele>838</ele>
        <time>2019-11-29T13:00:53.000Z</time>
      </trkpt>
      <trkpt lat="43.32454" lon="5.68625">
        <ele>838</ele>
        <time>2019-11-29T13:00:54.000Z</time>
      </trkpt>
      <trkpt lat="43.32453" lon="5.68624">
        <ele>837</ele>
        <time>2019-11-29T13:00:55.000Z</time>
      </trkpt>
      <trkpt lat="43.32452" lon="5.68624">
        <ele>837</ele>
        <time>2019-11-29T13:00:56.000Z</time>
      </trkpt>
      <trkpt lat="43.32451" lon="5.68623">
        <ele>837</ele>
        <time>2019-11-29T13:00:57.000Z</time>
      </trkpt>
      <trkpt lat="43.3245" lon="5.68623">
        <ele>838</ele>
        <time>2019-11-29T13:00:58.000Z</time>
      </trkpt>
      <trkpt lat="43.32449" lon="5.68623">
        <ele>838</ele>
        <time>2019-11-29T13:00:59.000Z</time>
      </trkpt>
      <trkpt lat="43.32448" lon="5.68622">
        <ele>838</ele>
        <time>2019-11-29T13:01:00.000Z</time>
      </trkpt>
      <trkpt lat="43.32447" lon="5.68622">
        <ele>838</ele>
        <time>2019-11-29T13:01:01.000Z</time>
      </trkpt>
      <trkpt lat="43.32447" lon="5.68621">
        <ele>838</ele>
        <time>2019-11-29T13:01:02.000Z</time>
      </trkpt>
      <trkpt lat="43.32446" lon="5.68621">
        <ele>838</ele>
        <time>2019-11-29T13:01:03.000Z</time>
      </trkpt>
      <trkpt lat="43.32445" lon="5.68621">
        <ele>838</ele>
        <time>2019-11-29T13:01:04.000Z</time>
      </trkpt>
      <trkpt lat="43.32444" lon="5.68621">
        <ele>838</ele>
        <time>2019-11-29T13:01:05.000Z</time>
      </trkpt>
      <trkpt lat="43.32443" lon="5.68621">
        <ele>838</ele>
        <time>2019-11-29T13:01:06.000Z</time>
      </trkpt>
      <trkpt lat="43.32442" lon="5.6862">
        <ele>838</ele>
        <time>2019-11-29T13:01:07.000Z</time>
      </trkpt>
      <trkpt lat="43.32441" lon="5.6862">
        <ele>838</ele>
        <time>2019-11-29T13:01:08.000Z</time>
      </trkpt>
      <trkpt lat="43.3244" lon="5.6862">
        <ele>838</ele>
        <time>2019-11-29T13:01:09.000Z</time>
      </trkpt>
      <trkpt lat="43.3244" lon="5.68619">
        <ele>838</ele>
        <time>2019-11-29T13:01:10.000Z</time>
      </trkpt>
      <trkpt lat="43.32439" lon="5.68619">
        <ele>838</ele>
        <time>2019-11-29T13:01:11.000Z</time>
      </trkpt>
      <trkpt lat="43.32438" lon="5.68619">
        <ele>838</ele>
        <time>2019-11-29T13:01:12.000Z</time>
      </trkpt>
      <trkpt lat="43.32437" lon="5.68618">
        <ele>838</ele>
        <time>2019-11-29T13:01:13.000Z</time>
      </trkpt>
      <trkpt lat="43.32436" lon="5.68618">
        <ele>839</ele>
        <time>2019-11-29T13:01:14.000Z</time>
      </trkpt>
      <trkpt lat="43.32435" lon="5.68618">
        <ele>839</ele>
        <time>2019-11-29T13:01:15.000Z</time>
      </trkpt>
      <trkpt lat="43.32434" lon="5.68618">
        <ele>839</ele>
        <time>2019-11-29T13:01:16.000Z</time>
      </trkpt>
      <trkpt lat="43.32433" lon="5.68618">
        <ele>839</ele>
        <time>2019-11-29T13:01:17.000Z</time>
      </trkpt>
      <trkpt lat="43.32432" lon="5.68617">
        <ele>839</ele>
        <time>2019-11-29T13:01:18.000Z</time>
      </trkpt>
      <trkpt lat="43.32431" lon="5.68617">
        <ele>839</ele>
        <time>2019-11-29T13:01:19.000Z</time>
      </trkpt>
      <trkpt lat="43.3243" lon="5.68617">
        <ele>839</ele>
        <time>2019-11-29T13:01:20.000Z</time>
      </trkpt>
      <trkpt lat="43.32429" lon="5.68616">
        <ele>839</ele>
        <time>2019-11-29T13:01:21.000Z</time>
      </trkpt>
      <trkpt lat="43.32428" lon="5.68616">
        <ele>839</ele>
        <time>2019-11-29T13:01:22.000Z</time>
      </trkpt>
      <trkpt lat="43.32427" lon="5.68615">
        <ele>839</ele>
        <time>2019-11-29T13:01:23.000Z</time>
      </trkpt>
      <trkpt lat="43.32427" lon="5.68615">
        <ele>839</ele>
        <time>2019-11-29T13:01:24.000Z</time>
      </trkpt>
      <trkpt lat="43.32426" lon="5.68615">
        <ele>839</ele>
        <time>2019-11-29T13:01:25.000Z</time>
      </trkpt>
      <trkpt lat="43.32425" lon="5.68615">
        <ele>839</ele>
        <time>2019-11-29T13:01:26.000Z</time>
      </trkpt>
      <trkpt lat="43.32425" lon="5.68615">
        <ele>839</ele>
        <time>2019-11-29T13:01:27.000Z</time>
      </trkpt>
      <trkpt lat="43.32424" lon="5.68615">
        <ele>839</ele>
        <time>2019-11-29T13:01:28.000Z</time>
      </trkpt>
      <trkpt lat="43.32423" lon="5.68615">
        <ele>839</ele>
        <time>2019-11-29T13:01:29.000Z</time>
      </trkpt>
      <trkpt lat="43.32422" lon="5.68614">
        <ele>839</ele>
        <time>2019-11-29T13:01:30.000Z</time>
      </trkpt>
      <trkpt lat="43.32421" lon="5.68614">
        <ele>839</ele>
        <time>2019-11-29T13:01:31.000Z</time>
      </trkpt>
      <trkpt lat="43.3242" lon="5.68614">
        <ele>839</ele>
        <time>2019-11-29T13:01:32.000Z</time>
      </trkpt>
      <trkpt lat="43.32419" lon="5.68613">
        <ele>839</ele>
        <time>2019-11-29T13:01:33.000Z</time>
      </trkpt>
      <trkpt lat="43.32418" lon="5.68613">
        <ele>840</ele>
        <time>2019-11-29T13:01:34.000Z</time>
      </trkpt>
      <trkpt lat="43.32418" lon="5.68613">
        <ele>840</ele>
        <time>2019-11-29T13:01:35.000Z</time>
      </trkpt>
      <trkpt lat="43.32417" lon="5.68612">
        <ele>840</ele>
        <time>2019-11-29T13:01:36.000Z</time>
      </trkpt>
      <trkpt lat="43.32416" lon="5.68612">
        <ele>840</ele>
        <time>2019-11-29T13:01:37.000Z</time>
      </trkpt>
      <trkpt lat="43.32416" lon="5.68612">
        <ele>840</ele>
        <time>2019-11-29T13:01:38.000Z</time>
      </trkpt>
      <trkpt lat="43.32416" lon="5.68611">
        <ele>840</ele>
        <time>2019-11-29T13:01:39.000Z</time>
      </trkpt>
      <trkpt lat="43.32415" lon="5.68611">
        <ele>840</ele>
        <time>2019-11-29T13:01:40.000Z</time>
      </trkpt>
      <trkpt lat="43.32415" lon="5.68611">
        <ele>840</ele>
        <time>2019-11-29T13:01:41.000Z</time>
      </trkpt>
      <trkpt lat="43.32415" lon="5.68611">
        <ele>840</ele>
        <time>2019-11-29T13:01:42.000Z</time>
      </trkpt>
      <trkpt lat="43.32415" lon="5.68611">
        <ele>840</ele>
        <time>2019-11-29T13:01:43.000Z</time>
      </trkpt>
      <trkpt lat="43.32415" lon="5.68611">
        <ele>840</ele>
        <time>2019-11-29T13:01:44.000Z</time>
      </trkpt>
      <trkpt lat="43.32415" lon="5.68611">
        <ele>840</ele>
        <time>2019-11-29T13:01:45.000Z</time>
      </trkpt>
      <trkpt lat="43.32415" lon="5.68611">
        <ele>840</ele>
        <time>2019-11-29T13:01:46.000Z</time>
      </trkpt>
      <trkpt lat="43.32415" lon="5.68611">
        <ele>840</ele>
        <time>2019-11-29T13:01:47.000Z</time>
      </trkpt>
      <trkpt lat="43.32415" lon="5.6861">
        <ele>840</ele>
        <time>2019-11-29T13:01:48.000Z</time>
      </trkpt>
      <trkpt lat="43.32416" lon="5.68609">
        <ele>840</ele>
        <time>2019-11-29T13:01:49.000Z</time>
      </trkpt>
      <trkpt lat="43.32416" lon="5.68608">
        <ele>840</ele>
        <time>2019-11-29T13:01:50.000Z</time>
      </trkpt>
      <trkpt lat="43.32416" lon="5.68607">
        <ele>840</ele>
        <time>2019-11-29T13:01:51.000Z</time>
      </trkpt>
      <trkpt lat="43.32416" lon="5.68606">
        <ele>840</ele>
        <time>2019-11-29T13:01:52.000Z</time>
      </trkpt>
      <trkpt lat="43.32416" lon="5.68605">
        <ele>840</ele>
        <time>2019-11-29T13:01:53.000Z</time>
      </trkpt>
      <trkpt lat="43.32417" lon="5.68605">
        <ele>840</ele>
        <time>2019-11-29T13:01:54.000Z</time>
      </trkpt>
      <trkpt lat="43.32417" lon="5.68604">
        <ele>840</ele>
        <time>2019-11-29T13:01:55.000Z</time>
      </trkpt>
      <trkpt lat="43.32417" lon="5.68604">
        <ele>840</ele>
        <time>2019-11-29T13:01:56.000Z</time>
      </trkpt>
      <trkpt lat="43.32417" lon="5.68604">
        <ele>840</ele>
        <time>2019-11-29T13:01:57.000Z</time>
      </trkpt>
      <trkpt lat="43.32417" lon="5.68604">
        <ele>840</ele>
        <time>2019-11-29T13:01:58.000Z</time>
      </trkpt>
      <trkpt lat="43.32417" lon="5.68604">
        <ele>840</ele>
        <time>2019-11-29T13:01:59.000Z</time>
      </trkpt>
      <trkpt lat="43.32417" lon="5.68604">
        <ele>840</ele>
        <time>2019-11-29T13:02:00.000Z</time>
      </trkpt>
      <trkpt lat="43.32417" lon="5.68604">
        <ele>840</ele>
        <time>2019-11-29T13:02:01.000Z</time>
      </trkpt>
      <trkpt lat="43.32417" lon="5.68605">
        <ele>840</ele>
        <time>2019-11-29T13:02:02.000Z</time>
      </trkpt>
      <trkpt lat="43.32417" lon="5.68605">
        <ele>840</ele>
        <time>2019-11-29T13:02:03.000Z</time>
      </trkpt>
      <trkpt lat="43.32418" lon="5.68605">
        <ele>840</ele>
        <time>2019-11-29T13:02:04.000Z</time>
      </trkpt>
      <trkpt lat="43.32418" lon="5.68605">
        <ele>840</ele>
        <time>2019-11-29T13:02:05.000Z</time>
      </trkpt>
      <trkpt lat="43.32418" lon="5.68605">
        <ele>840</ele>
        <time>2019-11-29T13:02:06.000Z</time>
      </trkpt>
      <trkpt lat="43.32417" lon="5.68604">
        <ele>839</ele>
        <time>2019-11-29T13:02:07.000Z</time>
      </trkpt>
      <trkpt lat="43.32417" lon="5.68604">
        <ele>839</ele>
        <time>2019-11-29T13:02:08.000Z</time>
      </trkpt>
      <trkpt lat="43.32417" lon="5.68604">
        <ele>839</ele>
        <time>2019-11-29T13:02:09.000Z</time>
      </trkpt>
      <trkpt lat="43.32417" lon="5.68604">
        <ele>839</ele>
        <time>2019-11-29T13:02:10.000Z</time>
      </trkpt>
      <trkpt lat="43.32417" lon="5.68604">
        <ele>839</ele>
        <time>2019-11-29T13:02:11.000Z</time>
      </trkpt>
      <trkpt lat="43.32417" lon="5.68604">
        <ele>839</ele>
        <time>2019-11-29T13:02:12.000Z</time>
      </trkpt>
      <trkpt lat="43.32417" lon="5.68604">
        <ele>839</ele>
        <time>2019-11-29T13:02:13.000Z</time>
      </trkpt>
      <trkpt lat="43.32417" lon="5.68604">
        <ele>839</ele>
        <time>2019-11-29T13:02:14.000Z</time>
      </trkpt>
      <trkpt lat="43.32417" lon="5.68604">
        <ele>839</ele>
        <time>2019-11-29T13:02:15.000Z</time>
      </trkpt>
      <trkpt lat="43.32417" lon="5.68604">
        <ele>839</ele>
        <time>2019-11-29T13:02:16.000Z</time>
      </trkpt>
      <trkpt lat="43.32417" lon="5.68604">
        <ele>839</ele>
        <time>2019-11-29T13:02:17.000Z</time>
      </trkpt>
      <trkpt lat="43.32417" lon="5.68604">
        <ele>839</ele>
        <time>2019-11-29T13:02:18.000Z</time>
      </trkpt>
      <trkpt lat="43.32418" lon="5.68604">
        <ele>839</ele>
        <time>2019-11-29T13:02:19.000Z</time>
      </trkpt>
      <trkpt lat="43.32418" lon="5.68604">
        <ele>839</ele>
        <time>2019-11-29T13:02:20.000Z</time>
      </trkpt>
      <trkpt lat="43.32418" lon="5.68604">
        <ele>839</ele>
        <time>2019-11-29T13:02:21.000Z</time>
      </trkpt>
      <trkpt lat="43.32418" lon="5.68604">
        <ele>839</ele>
        <time>2019-11-29T13:02:22.000Z</time>
      </trkpt>
      <trkpt lat="43.32418" lon="5.68604">
        <ele>839</ele>
        <time>2019-11-29T13:02:23.000Z</time>
      </trkpt>
      <trkpt lat="43.32418" lon="5.68604">
        <ele>840</ele>
        <time>2019-11-29T13:02:24.000Z</time>
      </trkpt>
      <trkpt lat="43.32418" lon="5.68604">
        <ele>840</ele>
        <time>2019-11-29T13:02:25.000Z</time>
      </trkpt>
      <trkpt lat="43.32418" lon="5.68604">
        <ele>840</ele>
        <time>2019-11-29T13:02:26.000Z</time>
      </trkpt>
      <trkpt lat="43.32418" lon="5.68603">
        <ele>840</ele>
        <time>2019-11-29T13:02:27.000Z</time>
      </trkpt>
      <trkpt lat="43.32418" lon="5.68603">
        <ele>840</ele>
        <time>2019-11-29T13:02:28.000Z</time>
      </trkpt>
      <trkpt lat="43.32418" lon="5.68603">
        <ele>840</ele>
        <time>2019-11-29T13:02:29.000Z</time>
      </trkpt>
      <trkpt lat="43.32418" lon="5.68603">
        <ele>840</ele>
        <time>2019-11-29T13:02:30.000Z</time>
      </trkpt>
      <trkpt lat="43.32418" lon="5.68603">
        <ele>840</ele>
        <time>2019-11-29T13:02:31.000Z</time>
      </trkpt>
      <trkpt lat="43.32418" lon="5.68603">
        <ele>840</ele>
        <time>2019-11-29T13:02:32.000Z</time>
      </trkpt>
      <trkpt lat="43.32417" lon="5.68603">
        <ele>840</ele>
        <time>2019-11-29T13:02:33.000Z</time>
      </trkpt>
      <trkpt lat="43.32417" lon="5.68604">
        <ele>840</ele>
        <time>2019-11-29T13:02:34.000Z</time>
      </trkpt>
      <trkpt lat="43.32417" lon="5.68603">
        <ele>840</ele>
        <time>2019-11-29T13:02:35.000Z</time>
      </trkpt>
      <trkpt lat="43.32417" lon="5.68603">
        <ele>840</ele>
        <time>2019-11-29T13:02:36.000Z</time>
      </trkpt>
      <trkpt lat="43.32417" lon="5.68603">
        <ele>840</ele>
        <time>2019-11-29T13:02:37.000Z</time>
      </trkpt>
      <trkpt lat="43.32417" lon="5.68603">
        <ele>840</ele>
        <time>2019-11-29T13:02:38.000Z</time>
      </trkpt>
      <trkpt lat="43.32417" lon="5.68603">
        <ele>840</ele>
        <time>2019-11-29T13:02:39.000Z</time>
      </trkpt>
      <trkpt lat="43.32417" lon="5.68603">
        <ele>840</ele>
        <time>2019-11-29T13:02:40.000Z</time>
      </trkpt>
      <trkpt lat="43.32417" lon="5.68603">
        <ele>840</ele>
        <time>2019-11-29T13:02:41.000Z</time>
      </trkpt>
      <trkpt lat="43.32417" lon="5.68603">
        <ele>840</ele>
        <time>2019-11-29T13:02:42.000Z</time>
      </trkpt>
      <trkpt lat="43.32417" lon="5.68603">
        <ele>840</ele>
        <time>2019-11-29T13:02:43.000Z</time>
      </trkpt>
      <trkpt lat="43.32417" lon="5.68603">
        <ele>840</ele>
        <time>2019-11-29T13:02:44.000Z</time>
      </trkpt>
      <trkpt lat="43.32417" lon="5.68603">
        <ele>840</ele>
        <time>2019-11-29T13:02:45.000Z</time>
      </trkpt>
      <trkpt lat="43.32417" lon="5.68603">
        <ele>840</ele>
        <time>2019-11-29T13:02:46.000Z</time>
      </trkpt>
      <trkpt lat="43.32417" lon="5.68603">
        <ele>840</ele>
        <time>2019-11-29T13:02:47.000Z</time>
      </trkpt>
      <trkpt lat="43.32417" lon="5.68603">
        <ele>840</ele>
        <time>2019-11-29T13:02:48.000Z</time>
      </trkpt>
      <trkpt lat="43.32417" lon="5.68603">
        <ele>840</ele>
        <time>2019-11-29T13:02:49.000Z</time>
      </trkpt>
      <trkpt lat="43.32417" lon="5.68603">
        <ele>840</ele>
        <time>2019-11-29T13:02:50.000Z</time>
      </trkpt>
      <trkpt lat="43.32417" lon="5.68603">
        <ele>840</ele>
        <time>2019-11-29T13:02:51.000Z</time>
      </trkpt>
      <trkpt lat="43.32417" lon="5.68603">
        <ele>840</ele>
        <time>2019-11-29T13:02:52.000Z</time>
      </trkpt>
      <trkpt lat="43.32417" lon="5.68603">
        <ele>840</ele>
        <time>2019-11-29T13:02:53.000Z</time>
      </trkpt>
      <trkpt lat="43.32417" lon="5.68603">
        <ele>840</ele>
        <time>2019-11-29T13:02:54.000Z</time>
      </trkpt>
      <trkpt lat="43.32417" lon="5.68603">
        <ele>840</ele>
        <time>2019-11-29T13:02:55.000Z</time>
      </trkpt>
      <trkpt lat="43.32417" lon="5.68603">
        <ele>840</ele>
        <time>2019-11-29T13:02:56.000Z</time>
      </trkpt>
      <trkpt lat="43.32417" lon="5.68603">
        <ele>840</ele>
        <time>2019-11-29T13:02:57.000Z</time>
      </trkpt>
      <trkpt lat="43.32417" lon="5.68603">
        <ele>840</ele>
        <time>2019-11-29T13:02:58.000Z</time>
      </trkpt>
      <trkpt lat="43.32417" lon="5.68603">
        <ele>840</ele>
        <time>2019-11-29T13:02:59.000Z</time>
      </trkpt>
      <trkpt lat="43.32417" lon="5.68603">
        <ele>840</ele>
        <time>2019-11-29T13:03:00.000Z</time>
      </trkpt>
      <trkpt lat="43.32417" lon="5.68603">
        <ele>840</ele>
        <time>2019-11-29T13:03:01.000Z</time>
      </trkpt>
      <trkpt lat="43.32417" lon="5.68603">
        <ele>840</ele>
        <time>2019-11-29T13:03:02.000Z</time>
      </trkpt>
      <trkpt lat="43.32417" lon="5.68603">
        <ele>840</ele>
        <time>2019-11-29T13:03:03.000Z</time>
      </trkpt>
      <trkpt lat="43.32417" lon="5.68603">
        <ele>840</ele>
        <time>2019-11-29T13:03:04.000Z</time>
      </trkpt>
      <trkpt lat="43.32417" lon="5.68603">
        <ele>840</ele>
        <time>2019-11-29T13:03:05.000Z</time>
      </trkpt>
      <trkpt lat="43.32417" lon="5.68603">
        <ele>840</ele>
        <time>2019-11-29T13:03:06.000Z</time>
      </trkpt>
      <trkpt lat="43.32417" lon="5.68603">
        <ele>840</ele>
        <time>2019-11-29T13:03:07.000Z</time>
      </trkpt>
      <trkpt lat="43.32417" lon="5.68603">
        <ele>840</ele>
        <time>2019-11-29T13:03:08.000Z</time>
      </trkpt>
      <trkpt lat="43.32417" lon="5.68603">
        <ele>840</ele>
        <time>2019-11-29T13:03:09.000Z</time>
      </trkpt>
      <trkpt lat="43.32417" lon="5.68603">
        <ele>840</ele>
        <time>2019-11-29T13:03:10.000Z</time>
      </trkpt>
      <trkpt lat="43.32417" lon="5.68603">
        <ele>840</ele>
        <time>2019-11-29T13:03:11.000Z</time>
      </trkpt>
      <trkpt lat="43.32417" lon="5.68603">
        <ele>840</ele>
        <time>2019-11-29T13:03:12.000Z</time>
      </trkpt>
      <trkpt lat="43.32417" lon="5.68603">
        <ele>840</ele>
        <time>2019-11-29T13:03:13.000Z</time>
      </trkpt>
      <trkpt lat="43.32417" lon="5.68603">
        <ele>840</ele>
        <time>2019-11-29T13:03:14.000Z</time>
      </trkpt>
      <trkpt lat="43.32417" lon="5.68603">
        <ele>840</ele>
        <time>2019-11-29T13:03:15.000Z</time>
      </trkpt>
      <trkpt lat="43.32417" lon="5.68603">
        <ele>840</ele>
        <time>2019-11-29T13:03:16.000Z</time>
      </trkpt>
      <trkpt lat="43.32417" lon="5.68603">
        <ele>840</ele>
        <time>2019-11-29T13:03:17.000Z</time>
      </trkpt>
      <trkpt lat="43.32417" lon="5.68603">
        <ele>840</ele>
        <time>2019-11-29T13:03:18.000Z</time>
      </trkpt>
      <trkpt lat="43.32417" lon="5.68603">
        <ele>840</ele>
        <time>2019-11-29T13:03:19.000Z</time>
      </trkpt>
      <trkpt lat="43.32417" lon="5.68603">
        <ele>840</ele>
        <time>2019-11-29T13:03:20.000Z</time>
      </trkpt>
      <trkpt lat="43.32417" lon="5.68603">
        <ele>840</ele>
        <time>2019-11-29T13:03:21.000Z</time>
      </trkpt>
      <trkpt lat="43.32417" lon="5.68603">
        <ele>840</ele>
        <time>2019-11-29T13:03:22.000Z</time>
      </trkpt>
      <trkpt lat="43.32417" lon="5.68603">
        <ele>840</ele>
        <time>2019-11-29T13:03:23.000Z</time>
      </trkpt>
      <trkpt lat="43.32417" lon="5.68603">
        <ele>840</ele>
        <time>2019-11-29T13:03:24.000Z</time>
      </trkpt>
      <trkpt lat="43.32417" lon="5.68603">
        <ele>840</ele>
        <time>2019-11-29T13:03:25.000Z</time>
      </trkpt>
      <trkpt lat="43.32417" lon="5.68603">
        <ele>840</ele>
        <time>2019-11-29T13:03:26.000Z</time>
      </trkpt>
      <trkpt lat="43.32417" lon="5.68603">
        <ele>840</ele>
        <time>2019-11-29T13:03:27.000Z</time>
      </trkpt>
      <trkpt lat="43.32417" lon="5.68603">
        <ele>840</ele>
        <time>2019-11-29T13:03:28.000Z</time>
      </trkpt>
      <trkpt lat="43.32417" lon="5.68603">
        <ele>840</ele>
        <time>2019-11-29T13:03:29.000Z</time>
      </trkpt>
      <trkpt lat="43.32417" lon="5.68603">
        <ele>840</ele>
        <time>2019-11-29T13:03:30.000Z</time>
      </trkpt>
      <trkpt lat="43.32417" lon="5.68603">
        <ele>840</ele>
        <time>2019-11-29T13:03:31.000Z</time>
      </trkpt>
      <trkpt lat="43.32417" lon="5.68603">
        <ele>840</ele>
        <time>2019-11-29T13:03:32.000Z</time>
      </trkpt>
      <trkpt lat="43.32417" lon="5.68603">
        <ele>840</ele>
        <time>2019-11-29T13:03:33.000Z</time>
      </trkpt>
      <trkpt lat="43.32417" lon="5.68603">
        <ele>840</ele>
        <time>2019-11-29T13:03:34.000Z</time>
      </trkpt>
      <trkpt lat="43.32417" lon="5.68603">
        <ele>840</ele>
        <time>2019-11-29T13:03:35.000Z</time>
      </trkpt>
      <trkpt lat="43.32417" lon="5.68603">
        <ele>840</ele>
        <time>2019-11-29T13:03:36.000Z</time>
      </trkpt>
      <trkpt lat="43.32417" lon="5.68603">
        <ele>840</ele>
        <time>2019-11-29T13:03:37.000Z</time>
      </trkpt>
      <trkpt lat="43.32417" lon="5.68603">
        <ele>840</ele>
        <time>2019-11-29T13:03:38.000Z</time>
      </trkpt>
      <trkpt lat="43.32417" lon="5.68603">
        <ele>840</ele>
        <time>2019-11-29T13:03:39.000Z</time>
      </trkpt>
      <trkpt lat="43.32417" lon="5.68603">
        <ele>840</ele>
        <time>2019-11-29T13:03:40.000Z</time>
      </trkpt>
      <trkpt lat="43.32417" lon="5.68603">
        <ele>840</ele>
        <time>2019-11-29T13:03:41.000Z</time>
      </trkpt>
      <trkpt lat="43.32417" lon="5.68603">
        <ele>840</ele>
        <time>2019-11-29T13:03:42.000Z</time>
      </trkpt>
      <trkpt lat="43.32417" lon="5.68603">
        <ele>840</ele>
        <time>2019-11-29T13:03:43.000Z</time>
      </trkpt>
      <trkpt lat="43.32417" lon="5.68603">
        <ele>841</ele>
        <time>2019-11-29T13:03:44.000Z</time>
      </trkpt>
      <trkpt lat="43.32417" lon="5.68603">
        <ele>841</ele>
        <time>2019-11-29T13:03:45.000Z</time>
      </trkpt>
      <trkpt lat="43.32417" lon="5.68603">
        <ele>841</ele>
        <time>2019-11-29T13:03:46.000Z</time>
      </trkpt>
      <trkpt lat="43.32417" lon="5.68603">
        <ele>841</ele>
        <time>2019-11-29T13:03:47.000Z</time>
      </trkpt>
      <trkpt lat="43.32417" lon="5.68603">
        <ele>841</ele>
        <time>2019-11-29T13:03:48.000Z</time>
      </trkpt>
      <trkpt lat="43.32417" lon="5.68603">
        <ele>841</ele>
        <time>2019-11-29T13:03:49.000Z</time>
      </trkpt>
      <trkpt lat="43.32417" lon="5.68603">
        <ele>841</ele>
        <time>2019-11-29T13:03:50.000Z</time>
      </trkpt>
      <trkpt lat="43.32417" lon="5.68603">
        <ele>841</ele>
        <time>2019-11-29T13:03:51.000Z</time>
      </trkpt>
      <trkpt lat="43.32417" lon="5.68603">
        <ele>841</ele>
        <time>2019-11-29T13:03:52.000Z</time>
      </trkpt>
      <trkpt lat="43.32417" lon="5.68603">
        <ele>841</ele>
        <time>2019-11-29T13:03:53.000Z</time>
      </trkpt>
      <trkpt lat="43.32417" lon="5.68603">
        <ele>841</ele>
        <time>2019-11-29T13:03:54.000Z</time>
      </trkpt>
      <trkpt lat="43.32417" lon="5.68603">
        <ele>841</ele>
        <time>2019-11-29T13:03:55.000Z</time>
      </trkpt>
      <trkpt lat="43.32417" lon="5.68603">
        <ele>841</ele>
        <time>2019-11-29T13:03:56.000Z</time>
      </trkpt>
      <trkpt lat="43.32417" lon="5.68603">
        <ele>841</ele>
        <time>2019-11-29T13:03:57.000Z</time>
      </trkpt>
      <trkpt lat="43.32417" lon="5.68603">
        <ele>841</ele>
        <time>2019-11-29T13:03:58.000Z</time>
      </trkpt>
      <trkpt lat="43.32417" lon="5.68603">
        <ele>841</ele>
        <time>2019-11-29T13:03:59.000Z</time>
      </trkpt>
      <trkpt lat="43.32417" lon="5.68603">
        <ele>841</ele>
        <time>2019-11-29T13:04:00.000Z</time>
      </trkpt>
      <trkpt lat="43.32417" lon="5.68603">
        <ele>841</ele>
        <time>2019-11-29T13:04:01.000Z</time>
      </trkpt>
      <trkpt lat="43.32417" lon="5.68603">
        <ele>841</ele>
        <time>2019-11-29T13:04:02.000Z</time>
      </trkpt>
      <trkpt lat="43.32417" lon="5.68603">
        <ele>841</ele>
        <time>2019-11-29T13:04:03.000Z</time>
      </trkpt>
      <trkpt lat="43.32417" lon="5.68603">
        <ele>841</ele>
        <time>2019-11-29T13:04:04.000Z</time>
      </trkpt>
      <trkpt lat="43.32417" lon="5.68603">
        <ele>841</ele>
        <time>2019-11-29T13:04:05.000Z</time>
      </trkpt>
      <trkpt lat="43.32417" lon="5.68603">
        <ele>841</ele>
        <time>2019-11-29T13:04:06.000Z</time>
      </trkpt>
      <trkpt lat="43.32417" lon="5.68603">
        <ele>841</ele>
        <time>2019-11-29T13:04:07.000Z</time>
      </trkpt>
      <trkpt lat="43.32417" lon="5.68603">
        <ele>841</ele>
        <time>2019-11-29T13:04:08.000Z</time>
      </trkpt>
      <trkpt lat="43.32417" lon="5.68604">
        <ele>841</ele>
        <time>2019-11-29T13:04:09.000Z</time>
      </trkpt>
      <trkpt lat="43.32416" lon="5.68604">
        <ele>841</ele>
        <time>2019-11-29T13:04:10.000Z</time>
      </trkpt>
      <trkpt lat="43.32415" lon="5.68605">
        <ele>841</ele>
        <time>2019-11-29T13:04:11.000Z</time>
      </trkpt>
      <trkpt lat="43.32414" lon="5.68606">
        <ele>841</ele>
        <time>2019-11-29T13:04:12.000Z</time>
      </trkpt>
      <trkpt lat="43.32414" lon="5.68606">
        <ele>841</ele>
        <time>2019-11-29T13:04:13.000Z</time>
      </trkpt>
      <trkpt lat="43.32413" lon="5.68608">
        <ele>841</ele>
        <time>2019-11-29T13:04:14.000Z</time>
      </trkpt>
      <trkpt lat="43.32412" lon="5.68608">
        <ele>841</ele>
        <time>2019-11-29T13:04:15.000Z</time>
      </trkpt>
      <trkpt lat="43.32411" lon="5.68609">
        <ele>841</ele>
        <time>2019-11-29T13:04:16.000Z</time>
      </trkpt>
      <trkpt lat="43.3241" lon="5.6861">
        <ele>841</ele>
        <time>2019-11-29T13:04:17.000Z</time>
      </trkpt>
      <trkpt lat="43.3241" lon="5.68611">
        <ele>841</ele>
        <time>2019-11-29T13:04:18.000Z</time>
      </trkpt>
      <trkpt lat="43.32409" lon="5.68611">
        <ele>841</ele>
        <time>2019-11-29T13:04:19.000Z</time>
      </trkpt>
      <trkpt lat="43.32408" lon="5.68611">
        <ele>841</ele>
        <time>2019-11-29T13:04:20.000Z</time>
      </trkpt>
      <trkpt lat="43.32408" lon="5.68612">
        <ele>841</ele>
        <time>2019-11-29T13:04:21.000Z</time>
      </trkpt>
      <trkpt lat="43.32407" lon="5.68612">
        <ele>841</ele>
        <time>2019-11-29T13:04:22.000Z</time>
      </trkpt>
      <trkpt lat="43.32405" lon="5.68612">
        <ele>841</ele>
        <time>2019-11-29T13:04:23.000Z</time>
      </trkpt>
      <trkpt lat="43.32404" lon="5.68612">
        <ele>841</ele>
        <time>2019-11-29T13:04:24.000Z</time>
      </trkpt>
      <trkpt lat="43.32404" lon="5.68612">
        <ele>841</ele>
        <time>2019-11-29T13:04:25.000Z</time>
      </trkpt>
      <trkpt lat="43.32403" lon="5.68612">
        <ele>841</ele>
        <time>2019-11-29T13:04:26.000Z</time>
      </trkpt>
      <trkpt lat="43.32402" lon="5.68612">
        <ele>841</ele>
        <time>2019-11-29T13:04:27.000Z</time>
      </trkpt>
      <trkpt lat="43.32401" lon="5.68612">
        <ele>841</ele>
        <time>2019-11-29T13:04:28.000Z</time>
      </trkpt>
      <trkpt lat="43.324" lon="5.68613">
        <ele>841</ele>
        <time>2019-11-29T13:04:29.000Z</time>
      </trkpt>
      <trkpt lat="43.324" lon="5.68613">
        <ele>841</ele>
        <time>2019-11-29T13:04:30.000Z</time>
      </trkpt>
      <trkpt lat="43.32399" lon="5.68613">
        <ele>841</ele>
        <time>2019-11-29T13:04:31.000Z</time>
      </trkpt>
      <trkpt lat="43.32398" lon="5.68613">
        <ele>841</ele>
        <time>2019-11-29T13:04:32.000Z</time>
      </trkpt>
      <trkpt lat="43.32397" lon="5.68613">
        <ele>841</ele>
        <time>2019-11-29T13:04:33.000Z</time>
      </trkpt>
      <trkpt lat="43.32397" lon="5.68613">
        <ele>841</ele>
        <time>2019-11-29T13:04:34.000Z</time>
      </trkpt>
      <trkpt lat="43.32396" lon="5.68613">
        <ele>841</ele>
        <time>2019-11-29T13:04:35.000Z</time>
      </trkpt>
      <trkpt lat="43.32395" lon="5.68613">
        <ele>841</ele>
        <time>2019-11-29T13:04:36.000Z</time>
      </trkpt>
      <trkpt lat="43.32394" lon="5.68613">
        <ele>841</ele>
        <time>2019-11-29T13:04:37.000Z</time>
      </trkpt>
      <trkpt lat="43.32393" lon="5.68613">
        <ele>842</ele>
        <time>2019-11-29T13:04:38.000Z</time>
      </trkpt>
      <trkpt lat="43.32392" lon="5.68613">
        <ele>842</ele>
        <time>2019-11-29T13:04:39.000Z</time>
      </trkpt>
      <trkpt lat="43.32391" lon="5.68613">
        <ele>842</ele>
        <time>2019-11-29T13:04:40.000Z</time>
      </trkpt>
      <trkpt lat="43.3239" lon="5.68613">
        <ele>842</ele>
        <time>2019-11-29T13:04:41.000Z</time>
      </trkpt>
      <trkpt lat="43.32389" lon="5.68613">
        <ele>842</ele>
        <time>2019-11-29T13:04:42.000Z</time>
      </trkpt>
      <trkpt lat="43.32388" lon="5.68613">
        <ele>842</ele>
        <time>2019-11-29T13:04:43.000Z</time>
      </trkpt>
      <trkpt lat="43.32387" lon="5.68612">
        <ele>842</ele>
        <time>2019-11-29T13:04:44.000Z</time>
      </trkpt>
      <trkpt lat="43.32386" lon="5.68612">
        <ele>842</ele>
        <time>2019-11-29T13:04:45.000Z</time>
      </trkpt>
      <trkpt lat="43.32384" lon="5.68611">
        <ele>842</ele>
        <time>2019-11-29T13:04:46.000Z</time>
      </trkpt>
      <trkpt lat="43.32383" lon="5.68611">
        <ele>842</ele>
        <time>2019-11-29T13:04:47.000Z</time>
      </trkpt>
      <trkpt lat="43.32382" lon="5.68611">
        <ele>842</ele>
        <time>2019-11-29T13:04:48.000Z</time>
      </trkpt>
      <trkpt lat="43.32381" lon="5.6861">
        <ele>842</ele>
        <time>2019-11-29T13:04:49.000Z</time>
      </trkpt>
      <trkpt lat="43.3238" lon="5.6861">
        <ele>842</ele>
        <time>2019-11-29T13:04:50.000Z</time>
      </trkpt>
      <trkpt lat="43.32379" lon="5.68611">
        <ele>842</ele>
        <time>2019-11-29T13:04:51.000Z</time>
      </trkpt>
      <trkpt lat="43.32378" lon="5.68611">
        <ele>842</ele>
        <time>2019-11-29T13:04:52.000Z</time>
      </trkpt>
      <trkpt lat="43.32377" lon="5.68611">
        <ele>842</ele>
        <time>2019-11-29T13:04:53.000Z</time>
      </trkpt>
      <trkpt lat="43.32376" lon="5.68611">
        <ele>842</ele>
        <time>2019-11-29T13:04:54.000Z</time>
      </trkpt>
      <trkpt lat="43.32375" lon="5.68611">
        <ele>842</ele>
        <time>2019-11-29T13:04:55.000Z</time>
      </trkpt>
      <trkpt lat="43.32374" lon="5.68611">
        <ele>842</ele>
        <time>2019-11-29T13:04:56.000Z</time>
      </trkpt>
      <trkpt lat="43.32373" lon="5.68611">
        <ele>842</ele>
        <time>2019-11-29T13:04:57.000Z</time>
      </trkpt>
      <trkpt lat="43.32372" lon="5.68611">
        <ele>842</ele>
        <time>2019-11-29T13:04:58.000Z</time>
      </trkpt>
      <trkpt lat="43.32371" lon="5.6861">
        <ele>843</ele>
        <time>2019-11-29T13:04:59.000Z</time>
      </trkpt>
      <trkpt lat="43.3237" lon="5.6861">
        <ele>842</ele>
        <time>2019-11-29T13:05:00.000Z</time>
      </trkpt>
      <trkpt lat="43.32369" lon="5.6861">
        <ele>842</ele>
        <time>2019-11-29T13:05:01.000Z</time>
      </trkpt>
      <trkpt lat="43.32368" lon="5.68609">
        <ele>842</ele>
        <time>2019-11-29T13:05:02.000Z</time>
      </trkpt>
      <trkpt lat="43.32367" lon="5.68608">
        <ele>842</ele>
        <time>2019-11-29T13:05:03.000Z</time>
      </trkpt>
      <trkpt lat="43.32366" lon="5.68607">
        <ele>843</ele>
        <time>2019-11-29T13:05:04.000Z</time>
      </trkpt>
      <trkpt lat="43.32365" lon="5.68607">
        <ele>843</ele>
        <time>2019-11-29T13:05:05.000Z</time>
      </trkpt>
      <trkpt lat="43.32365" lon="5.68607">
        <ele>843</ele>
        <time>2019-11-29T13:05:06.000Z</time>
      </trkpt>
      <trkpt lat="43.32364" lon="5.68607">
        <ele>843</ele>
        <time>2019-11-29T13:05:07.000Z</time>
      </trkpt>
      <trkpt lat="43.32363" lon="5.68606">
        <ele>843</ele>
        <time>2019-11-29T13:05:08.000Z</time>
      </trkpt>
      <trkpt lat="43.32362" lon="5.68606">
        <ele>843</ele>
        <time>2019-11-29T13:05:09.000Z</time>
      </trkpt>
      <trkpt lat="43.32361" lon="5.68605">
        <ele>843</ele>
        <time>2019-11-29T13:05:10.000Z</time>
      </trkpt>
      <trkpt lat="43.3236" lon="5.68605">
        <ele>843</ele>
        <time>2019-11-29T13:05:11.000Z</time>
      </trkpt>
      <trkpt lat="43.32359" lon="5.68605">
        <ele>843</ele>
        <time>2019-11-29T13:05:12.000Z</time>
      </trkpt>
      <trkpt lat="43.32358" lon="5.68606">
        <ele>843</ele>
        <time>2019-11-29T13:05:13.000Z</time>
      </trkpt>
      <trkpt lat="43.32357" lon="5.68606">
        <ele>843</ele>
        <time>2019-11-29T13:05:14.000Z</time>
      </trkpt>
      <trkpt lat="43.32356" lon="5.68606">
        <ele>843</ele>
        <time>2019-11-29T13:05:15.000Z</time>
      </trkpt>
      <trkpt lat="43.32356" lon="5.68606">
        <ele>843</ele>
        <time>2019-11-29T13:05:16.000Z</time>
      </trkpt>
      <trkpt lat="43.32355" lon="5.68607">
        <ele>843</ele>
        <time>2019-11-29T13:05:17.000Z</time>
      </trkpt>
      <trkpt lat="43.32354" lon="5.68607">
        <ele>843</ele>
        <time>2019-11-29T13:05:18.000Z</time>
      </trkpt>
      <trkpt lat="43.32353" lon="5.68607">
        <ele>843</ele>
        <time>2019-11-29T13:05:19.000Z</time>
      </trkpt>
      <trkpt lat="43.32352" lon="5.68607">
        <ele>844</ele>
        <time>2019-11-29T13:05:20.000Z</time>
      </trkpt>
      <trkpt lat="43.32351" lon="5.68607">
        <ele>844</ele>
        <time>2019-11-29T13:05:21.000Z</time>
      </trkpt>
      <trkpt lat="43.3235" lon="5.68607">
        <ele>844</ele>
        <time>2019-11-29T13:05:22.000Z</time>
      </trkpt>
      <trkpt lat="43.32349" lon="5.68607">
        <ele>844</ele>
        <time>2019-11-29T13:05:23.000Z</time>
      </trkpt>
      <trkpt lat="43.32348" lon="5.68606">
        <ele>844</ele>
        <time>2019-11-29T13:05:24.000Z</time>
      </trkpt>
      <trkpt lat="43.32347" lon="5.68606">
        <ele>844</ele>
        <time>2019-11-29T13:05:25.000Z</time>
      </trkpt>
      <trkpt lat="43.32347" lon="5.68606">
        <ele>844</ele>
        <time>2019-11-29T13:05:26.000Z</time>
      </trkpt>
      <trkpt lat="43.32346" lon="5.68606">
        <ele>844</ele>
        <time>2019-11-29T13:05:27.000Z</time>
      </trkpt>
      <trkpt lat="43.32345" lon="5.68606">
        <ele>844</ele>
        <time>2019-11-29T13:05:28.000Z</time>
      </trkpt>
      <trkpt lat="43.32344" lon="5.68605">
        <ele>844</ele>
        <time>2019-11-29T13:05:29.000Z</time>
      </trkpt>
      <trkpt lat="43.32343" lon="5.68604">
        <ele>844</ele>
        <time>2019-11-29T13:05:30.000Z</time>
      </trkpt>
      <trkpt lat="43.32343" lon="5.68604">
        <ele>844</ele>
        <time>2019-11-29T13:05:31.000Z</time>
      </trkpt>
      <trkpt lat="43.32342" lon="5.68603">
        <ele>844</ele>
        <time>2019-11-29T13:05:32.000Z</time>
      </trkpt>
      <trkpt lat="43.32341" lon="5.68603">
        <ele>844</ele>
        <time>2019-11-29T13:05:33.000Z</time>
      </trkpt>
      <trkpt lat="43.3234" lon="5.68603">
        <ele>844</ele>
        <time>2019-11-29T13:05:34.000Z</time>
      </trkpt>
      <trkpt lat="43.32339" lon="5.68602">
        <ele>844</ele>
        <time>2019-11-29T13:05:35.000Z</time>
      </trkpt>
      <trkpt lat="43.32338" lon="5.68602">
        <ele>845</ele>
        <time>2019-11-29T13:05:36.000Z</time>
      </trkpt>
      <trkpt lat="43.32337" lon="5.68602">
        <ele>845</ele>
        <time>2019-11-29T13:05:37.000Z</time>
      </trkpt>
      <trkpt lat="43.32337" lon="5.68602">
        <ele>845</ele>
        <time>2019-11-29T13:05:38.000Z</time>
      </trkpt>
      <trkpt lat="43.32336" lon="5.68603">
        <ele>845</ele>
        <time>2019-11-29T13:05:39.000Z</time>
      </trkpt>
      <trkpt lat="43.32335" lon="5.68603">
        <ele>845</ele>
        <time>2019-11-29T13:05:40.000Z</time>
      </trkpt>
      <trkpt lat="43.32333" lon="5.68603">
        <ele>845</ele>
        <time>2019-11-29T13:05:41.000Z</time>
      </trkpt>
      <trkpt lat="43.32333" lon="5.68603">
        <ele>845</ele>
        <time>2019-11-29T13:05:42.000Z</time>
      </trkpt>
      <trkpt lat="43.32332" lon="5.68602">
        <ele>845</ele>
        <time>2019-11-29T13:05:43.000Z</time>
      </trkpt>
      <trkpt lat="43.3233" lon="5.68602">
        <ele>845</ele>
        <time>2019-11-29T13:05:44.000Z</time>
      </trkpt>
      <trkpt lat="43.32329" lon="5.68602">
        <ele>845</ele>
        <time>2019-11-29T13:05:45.000Z</time>
      </trkpt>
      <trkpt lat="43.32328" lon="5.68603">
        <ele>845</ele>
        <time>2019-11-29T13:05:46.000Z</time>
      </trkpt>
      <trkpt lat="43.32327" lon="5.68603">
        <ele>845</ele>
        <time>2019-11-29T13:05:47.000Z</time>
      </trkpt>
      <trkpt lat="43.32326" lon="5.68603">
        <ele>845</ele>
        <time>2019-11-29T13:05:48.000Z</time>
      </trkpt>
      <trkpt lat="43.32325" lon="5.68603">
        <ele>845</ele>
        <time>2019-11-29T13:05:49.000Z</time>
      </trkpt>
      <trkpt lat="43.32324" lon="5.68603">
        <ele>845</ele>
        <time>2019-11-29T13:05:50.000Z</time>
      </trkpt>
      <trkpt lat="43.32323" lon="5.68603">
        <ele>845</ele>
        <time>2019-11-29T13:05:51.000Z</time>
      </trkpt>
      <trkpt lat="43.32322" lon="5.68603">
        <ele>845</ele>
        <time>2019-11-29T13:05:52.000Z</time>
      </trkpt>
      <trkpt lat="43.32321" lon="5.68602">
        <ele>845</ele>
        <time>2019-11-29T13:05:53.000Z</time>
      </trkpt>
      <trkpt lat="43.3232" lon="5.68601">
        <ele>845</ele>
        <time>2019-11-29T13:05:54.000Z</time>
      </trkpt>
      <trkpt lat="43.32319" lon="5.68601">
        <ele>845</ele>
        <time>2019-11-29T13:05:55.000Z</time>
      </trkpt>
      <trkpt lat="43.32318" lon="5.686">
        <ele>845</ele>
        <time>2019-11-29T13:05:56.000Z</time>
      </trkpt>
      <trkpt lat="43.32317" lon="5.686">
        <ele>845</ele>
        <time>2019-11-29T13:05:57.000Z</time>
      </trkpt>
      <trkpt lat="43.32316" lon="5.68599">
        <ele>845</ele>
        <time>2019-11-29T13:05:58.000Z</time>
      </trkpt>
      <trkpt lat="43.32316" lon="5.68599">
        <ele>845</ele>
        <time>2019-11-29T13:05:59.000Z</time>
      </trkpt>
      <trkpt lat="43.32315" lon="5.68599">
        <ele>845</ele>
        <time>2019-11-29T13:06:00.000Z</time>
      </trkpt>
      <trkpt lat="43.32314" lon="5.68599">
        <ele>845</ele>
        <time>2019-11-29T13:06:01.000Z</time>
      </trkpt>
      <trkpt lat="43.32314" lon="5.68599">
        <ele>845</ele>
        <time>2019-11-29T13:06:02.000Z</time>
      </trkpt>
      <trkpt lat="43.32313" lon="5.68599">
        <ele>845</ele>
        <time>2019-11-29T13:06:03.000Z</time>
      </trkpt>
      <trkpt lat="43.32312" lon="5.68598">
        <ele>845</ele>
        <time>2019-11-29T13:06:04.000Z</time>
      </trkpt>
      <trkpt lat="43.32311" lon="5.68598">
        <ele>845</ele>
        <time>2019-11-29T13:06:05.000Z</time>
      </trkpt>
      <trkpt lat="43.32311" lon="5.68598">
        <ele>845</ele>
        <time>2019-11-29T13:06:06.000Z</time>
      </trkpt>
      <trkpt lat="43.3231" lon="5.68598">
        <ele>845</ele>
        <time>2019-11-29T13:06:07.000Z</time>
      </trkpt>
      <trkpt lat="43.32309" lon="5.68598">
        <ele>845</ele>
        <time>2019-11-29T13:06:08.000Z</time>
      </trkpt>
      <trkpt lat="43.32309" lon="5.68597">
        <ele>845</ele>
        <time>2019-11-29T13:06:09.000Z</time>
      </trkpt>
      <trkpt lat="43.32308" lon="5.68597">
        <ele>845</ele>
        <time>2019-11-29T13:06:10.000Z</time>
      </trkpt>
      <trkpt lat="43.32307" lon="5.68597">
        <ele>845</ele>
        <time>2019-11-29T13:06:11.000Z</time>
      </trkpt>
      <trkpt lat="43.32306" lon="5.68597">
        <ele>845</ele>
        <time>2019-11-29T13:06:12.000Z</time>
      </trkpt>
      <trkpt lat="43.32305" lon="5.68597">
        <ele>845</ele>
        <time>2019-11-29T13:06:13.000Z</time>
      </trkpt>
      <trkpt lat="43.32304" lon="5.68597">
        <ele>845</ele>
        <time>2019-11-29T13:06:14.000Z</time>
      </trkpt>
      <trkpt lat="43.32303" lon="5.68596">
        <ele>845</ele>
        <time>2019-11-29T13:06:15.000Z</time>
      </trkpt>
      <trkpt lat="43.32302" lon="5.68596">
        <ele>845</ele>
        <time>2019-11-29T13:06:16.000Z</time>
      </trkpt>
      <trkpt lat="43.32301" lon="5.68596">
        <ele>845</ele>
        <time>2019-11-29T13:06:17.000Z</time>
      </trkpt>
      <trkpt lat="43.323" lon="5.68595">
        <ele>845</ele>
        <time>2019-11-29T13:06:18.000Z</time>
      </trkpt>
      <trkpt lat="43.32299" lon="5.68595">
        <ele>845</ele>
        <time>2019-11-29T13:06:19.000Z</time>
      </trkpt>
      <trkpt lat="43.32298" lon="5.68594">
        <ele>845</ele>
        <time>2019-11-29T13:06:20.000Z</time>
      </trkpt>
      <trkpt lat="43.32297" lon="5.68594">
        <ele>845</ele>
        <time>2019-11-29T13:06:21.000Z</time>
      </trkpt>
      <trkpt lat="43.32296" lon="5.68593">
        <ele>845</ele>
        <time>2019-11-29T13:06:22.000Z</time>
      </trkpt>
      <trkpt lat="43.32295" lon="5.68593">
        <ele>845</ele>
        <time>2019-11-29T13:06:23.000Z</time>
      </trkpt>
      <trkpt lat="43.32294" lon="5.68592">
        <ele>845</ele>
        <time>2019-11-29T13:06:24.000Z</time>
      </trkpt>
      <trkpt lat="43.32293" lon="5.68591">
        <ele>844</ele>
        <time>2019-11-29T13:06:25.000Z</time>
      </trkpt>
      <trkpt lat="43.32292" lon="5.6859">
        <ele>844</ele>
        <time>2019-11-29T13:06:26.000Z</time>
      </trkpt>
      <trkpt lat="43.32291" lon="5.6859">
        <ele>844</ele>
        <time>2019-11-29T13:06:27.000Z</time>
      </trkpt>
      <trkpt lat="43.3229" lon="5.68589">
        <ele>844</ele>
        <time>2019-11-29T13:06:28.000Z</time>
      </trkpt>
      <trkpt lat="43.32289" lon="5.68588">
        <ele>844</ele>
        <time>2019-11-29T13:06:29.000Z</time>
      </trkpt>
      <trkpt lat="43.32289" lon="5.68588">
        <ele>844</ele>
        <time>2019-11-29T13:06:30.000Z</time>
      </trkpt>
      <trkpt lat="43.32288" lon="5.68587">
        <ele>844</ele>
        <time>2019-11-29T13:06:31.000Z</time>
      </trkpt>
      <trkpt lat="43.32288" lon="5.68587">
        <ele>844</ele>
        <time>2019-11-29T13:06:32.000Z</time>
      </trkpt>
      <trkpt lat="43.32287" lon="5.68586">
        <ele>844</ele>
        <time>2019-11-29T13:06:33.000Z</time>
      </trkpt>
      <trkpt lat="43.32287" lon="5.68586">
        <ele>843</ele>
        <time>2019-11-29T13:06:34.000Z</time>
      </trkpt>
      <trkpt lat="43.32286" lon="5.68586">
        <ele>843</ele>
        <time>2019-11-29T13:06:35.000Z</time>
      </trkpt>
      <trkpt lat="43.32286" lon="5.68585">
        <ele>843</ele>
        <time>2019-11-29T13:06:36.000Z</time>
      </trkpt>
      <trkpt lat="43.32285" lon="5.68585">
        <ele>843</ele>
        <time>2019-11-29T13:06:37.000Z</time>
      </trkpt>
      <trkpt lat="43.32284" lon="5.68584">
        <ele>843</ele>
        <time>2019-11-29T13:06:38.000Z</time>
      </trkpt>
      <trkpt lat="43.32283" lon="5.68584">
        <ele>843</ele>
        <time>2019-11-29T13:06:39.000Z</time>
      </trkpt>
      <trkpt lat="43.32283" lon="5.68583">
        <ele>843</ele>
        <time>2019-11-29T13:06:40.000Z</time>
      </trkpt>
      <trkpt lat="43.32282" lon="5.68583">
        <ele>843</ele>
        <time>2019-11-29T13:06:41.000Z</time>
      </trkpt>
      <trkpt lat="43.32282" lon="5.68582">
        <ele>843</ele>
        <time>2019-11-29T13:06:42.000Z</time>
      </trkpt>
      <trkpt lat="43.32281" lon="5.68582">
        <ele>843</ele>
        <time>2019-11-29T13:06:43.000Z</time>
      </trkpt>
      <trkpt lat="43.3228" lon="5.68581">
        <ele>843</ele>
        <time>2019-11-29T13:06:44.000Z</time>
      </trkpt>
      <trkpt lat="43.32279" lon="5.6858">
        <ele>843</ele>
        <time>2019-11-29T13:06:45.000Z</time>
      </trkpt>
      <trkpt lat="43.32279" lon="5.6858">
        <ele>843</ele>
        <time>2019-11-29T13:06:46.000Z</time>
      </trkpt>
      <trkpt lat="43.32278" lon="5.68579">
        <ele>843</ele>
        <time>2019-11-29T13:06:47.000Z</time>
      </trkpt>
      <trkpt lat="43.32278" lon="5.68579">
        <ele>843</ele>
        <time>2019-11-29T13:06:48.000Z</time>
      </trkpt>
      <trkpt lat="43.32278" lon="5.68578">
        <ele>843</ele>
        <time>2019-11-29T13:06:49.000Z</time>
      </trkpt>
      <trkpt lat="43.32278" lon="5.68578">
        <ele>843</ele>
        <time>2019-11-29T13:06:50.000Z</time>
      </trkpt>
      <trkpt lat="43.32278" lon="5.68578">
        <ele>843</ele>
        <time>2019-11-29T13:06:51.000Z</time>
      </trkpt>
      <trkpt lat="43.32278" lon="5.68578">
        <ele>843</ele>
        <time>2019-11-29T13:06:52.000Z</time>
      </trkpt>
      <trkpt lat="43.32277" lon="5.68578">
        <ele>843</ele>
        <time>2019-11-29T13:06:53.000Z</time>
      </trkpt>
      <trkpt lat="43.32277" lon="5.68577">
        <ele>843</ele>
        <time>2019-11-29T13:06:54.000Z</time>
      </trkpt>
      <trkpt lat="43.32277" lon="5.68577">
        <ele>842</ele>
        <time>2019-11-29T13:06:55.000Z</time>
      </trkpt>
      <trkpt lat="43.32276" lon="5.68578">
        <ele>842</ele>
        <time>2019-11-29T13:06:56.000Z</time>
      </trkpt>
      <trkpt lat="43.32276" lon="5.68578">
        <ele>842</ele>
        <time>2019-11-29T13:06:57.000Z</time>
      </trkpt>
      <trkpt lat="43.32276" lon="5.68578">
        <ele>842</ele>
        <time>2019-11-29T13:06:58.000Z</time>
      </trkpt>
      <trkpt lat="43.32276" lon="5.68578">
        <ele>842</ele>
        <time>2019-11-29T13:06:59.000Z</time>
      </trkpt>
      <trkpt lat="43.32276" lon="5.68578">
        <ele>842</ele>
        <time>2019-11-29T13:07:00.000Z</time>
      </trkpt>
      <trkpt lat="43.32276" lon="5.68578">
        <ele>842</ele>
        <time>2019-11-29T13:07:01.000Z</time>
      </trkpt>
      <trkpt lat="43.32276" lon="5.68578">
        <ele>842</ele>
        <time>2019-11-29T13:07:02.000Z</time>
      </trkpt>
      <trkpt lat="43.32276" lon="5.68577">
        <ele>842</ele>
        <time>2019-11-29T13:07:03.000Z</time>
      </trkpt>
      <trkpt lat="43.32276" lon="5.68577">
        <ele>842</ele>
        <time>2019-11-29T13:07:04.000Z</time>
      </trkpt>
      <trkpt lat="43.32276" lon="5.68578">
        <ele>842</ele>
        <time>2019-11-29T13:07:05.000Z</time>
      </trkpt>
      <trkpt lat="43.32276" lon="5.68578">
        <ele>842</ele>
        <time>2019-11-29T13:07:06.000Z</time>
      </trkpt>
      <trkpt lat="43.32275" lon="5.68578">
        <ele>842</ele>
        <time>2019-11-29T13:07:07.000Z</time>
      </trkpt>
      <trkpt lat="43.32275" lon="5.68578">
        <ele>842</ele>
        <time>2019-11-29T13:07:08.000Z</time>
      </trkpt>
      <trkpt lat="43.32275" lon="5.68578">
        <ele>842</ele>
        <time>2019-11-29T13:07:09.000Z</time>
      </trkpt>
      <trkpt lat="43.32275" lon="5.68578">
        <ele>842</ele>
        <time>2019-11-29T13:07:10.000Z</time>
      </trkpt>
      <trkpt lat="43.32275" lon="5.68578">
        <ele>842</ele>
        <time>2019-11-29T13:07:11.000Z</time>
      </trkpt>
      <trkpt lat="43.32276" lon="5.68578">
        <ele>842</ele>
        <time>2019-11-29T13:07:12.000Z</time>
      </trkpt>
      <trkpt lat="43.32276" lon="5.68578">
        <ele>842</ele>
        <time>2019-11-29T13:07:13.000Z</time>
      </trkpt>
      <trkpt lat="43.32276" lon="5.68579">
        <ele>842</ele>
        <time>2019-11-29T13:07:14.000Z</time>
      </trkpt>
      <trkpt lat="43.32276" lon="5.68579">
        <ele>842</ele>
        <time>2019-11-29T13:07:15.000Z</time>
      </trkpt>
      <trkpt lat="43.32276" lon="5.68579">
        <ele>842</ele>
        <time>2019-11-29T13:07:16.000Z</time>
      </trkpt>
      <trkpt lat="43.32276" lon="5.6858">
        <ele>842</ele>
        <time>2019-11-29T13:07:17.000Z</time>
      </trkpt>
      <trkpt lat="43.32276" lon="5.6858">
        <ele>842</ele>
        <time>2019-11-29T13:07:18.000Z</time>
      </trkpt>
      <trkpt lat="43.32276" lon="5.6858">
        <ele>842</ele>
        <time>2019-11-29T13:07:19.000Z</time>
      </trkpt>
      <trkpt lat="43.32276" lon="5.68579">
        <ele>842</ele>
        <time>2019-11-29T13:07:20.000Z</time>
      </trkpt>
      <trkpt lat="43.32276" lon="5.68579">
        <ele>842</ele>
        <time>2019-11-29T13:07:21.000Z</time>
      </trkpt>
      <trkpt lat="43.32276" lon="5.68579">
        <ele>842</ele>
        <time>2019-11-29T13:07:22.000Z</time>
      </trkpt>
      <trkpt lat="43.32276" lon="5.68579">
        <ele>842</ele>
        <time>2019-11-29T13:07:23.000Z</time>
      </trkpt>
      <trkpt lat="43.32276" lon="5.68579">
        <ele>842</ele>
        <time>2019-11-29T13:07:24.000Z</time>
      </trkpt>
      <trkpt lat="43.32276" lon="5.68579">
        <ele>842</ele>
        <time>2019-11-29T13:07:25.000Z</time>
      </trkpt>
      <trkpt lat="43.32276" lon="5.68579">
        <ele>842</ele>
        <time>2019-11-29T13:07:26.000Z</time>
      </trkpt>
      <trkpt lat="43.32276" lon="5.68579">
        <ele>842</ele>
        <time>2019-11-29T13:07:27.000Z</time>
      </trkpt>
      <trkpt lat="43.32276" lon="5.68579">
        <ele>842</ele>
        <time>2019-11-29T13:07:28.000Z</time>
      </trkpt>
      <trkpt lat="43.32276" lon="5.68579">
        <ele>842</ele>
        <time>2019-11-29T13:07:29.000Z</time>
      </trkpt>
      <trkpt lat="43.32276" lon="5.68579">
        <ele>842</ele>
        <time>2019-11-29T13:07:30.000Z</time>
      </trkpt>
      <trkpt lat="43.32276" lon="5.6858">
        <ele>842</ele>
        <time>2019-11-29T13:07:31.000Z</time>
      </trkpt>
      <trkpt lat="43.32275" lon="5.6858">
        <ele>842</ele>
        <time>2019-11-29T13:07:32.000Z</time>
      </trkpt>
      <trkpt lat="43.32275" lon="5.68582">
        <ele>842</ele>
        <time>2019-11-29T13:07:33.000Z</time>
      </trkpt>
      <trkpt lat="43.32274" lon="5.68583">
        <ele>842</ele>
        <time>2019-11-29T13:07:34.000Z</time>
      </trkpt>
      <trkpt lat="43.32274" lon="5.68583">
        <ele>842</ele>
        <time>2019-11-29T13:07:35.000Z</time>
      </trkpt>
      <trkpt lat="43.32273" lon="5.68584">
        <ele>842</ele>
        <time>2019-11-29T13:07:36.000Z</time>
      </trkpt>
      <trkpt lat="43.32273" lon="5.68585">
        <ele>842</ele>
        <time>2019-11-29T13:07:37.000Z</time>
      </trkpt>
      <trkpt lat="43.32273" lon="5.68586">
        <ele>842</ele>
        <time>2019-11-29T13:07:38.000Z</time>
      </trkpt>
      <trkpt lat="43.32272" lon="5.68588">
        <ele>842</ele>
        <time>2019-11-29T13:07:39.000Z</time>
      </trkpt>
      <trkpt lat="43.32272" lon="5.68589">
        <ele>842</ele>
        <time>2019-11-29T13:07:40.000Z</time>
      </trkpt>
      <trkpt lat="43.32272" lon="5.6859">
        <ele>842</ele>
        <time>2019-11-29T13:07:41.000Z</time>
      </trkpt>
      <trkpt lat="43.32272" lon="5.68591">
        <ele>842</ele>
        <time>2019-11-29T13:07:42.000Z</time>
      </trkpt>
      <trkpt lat="43.32272" lon="5.68592">
        <ele>842</ele>
        <time>2019-11-29T13:07:43.000Z</time>
      </trkpt>
      <trkpt lat="43.32271" lon="5.68592">
        <ele>842</ele>
        <time>2019-11-29T13:07:44.000Z</time>
      </trkpt>
      <trkpt lat="43.3227" lon="5.68593">
        <ele>842</ele>
        <time>2019-11-29T13:07:45.000Z</time>
      </trkpt>
      <trkpt lat="43.32269" lon="5.68593">
        <ele>842</ele>
        <time>2019-11-29T13:07:46.000Z</time>
      </trkpt>
      <trkpt lat="43.32269" lon="5.68594">
        <ele>842</ele>
        <time>2019-11-29T13:07:47.000Z</time>
      </trkpt>
      <trkpt lat="43.32268" lon="5.68594">
        <ele>842</ele>
        <time>2019-11-29T13:07:48.000Z</time>
      </trkpt>
      <trkpt lat="43.32268" lon="5.68595">
        <ele>842</ele>
        <time>2019-11-29T13:07:49.000Z</time>
      </trkpt>
      <trkpt lat="43.32267" lon="5.68596">
        <ele>842</ele>
        <time>2019-11-29T13:07:50.000Z</time>
      </trkpt>
      <trkpt lat="43.32267" lon="5.68597">
        <ele>842</ele>
        <time>2019-11-29T13:07:51.000Z</time>
      </trkpt>
      <trkpt lat="43.32266" lon="5.68598">
        <ele>842</ele>
        <time>2019-11-29T13:07:52.000Z</time>
      </trkpt>
      <trkpt lat="43.32266" lon="5.68599">
        <ele>842</ele>
        <time>2019-11-29T13:07:53.000Z</time>
      </trkpt>
      <trkpt lat="43.32265" lon="5.68599">
        <ele>842</ele>
        <time>2019-11-29T13:07:54.000Z</time>
      </trkpt>
      <trkpt lat="43.32265" lon="5.686">
        <ele>842</ele>
        <time>2019-11-29T13:07:55.000Z</time>
      </trkpt>
      <trkpt lat="43.32264" lon="5.68601">
        <ele>842</ele>
        <time>2019-11-29T13:07:56.000Z</time>
      </trkpt>
      <trkpt lat="43.32264" lon="5.68602">
        <ele>842</ele>
        <time>2019-11-29T13:07:57.000Z</time>
      </trkpt>
      <trkpt lat="43.32263" lon="5.68603">
        <ele>842</ele>
        <time>2019-11-29T13:07:58.000Z</time>
      </trkpt>
      <trkpt lat="43.32262" lon="5.68604">
        <ele>842</ele>
        <time>2019-11-29T13:07:59.000Z</time>
      </trkpt>
      <trkpt lat="43.32261" lon="5.68604">
        <ele>842</ele>
        <time>2019-11-29T13:08:00.000Z</time>
      </trkpt>
      <trkpt lat="43.3226" lon="5.68605">
        <ele>842</ele>
        <time>2019-11-29T13:08:01.000Z</time>
      </trkpt>
      <trkpt lat="43.32259" lon="5.68606">
        <ele>842</ele>
        <time>2019-11-29T13:08:02.000Z</time>
      </trkpt>
      <trkpt lat="43.32259" lon="5.68607">
        <ele>842</ele>
        <time>2019-11-29T13:08:03.000Z</time>
      </trkpt>
      <trkpt lat="43.32258" lon="5.68608">
        <ele>842</ele>
        <time>2019-11-29T13:08:04.000Z</time>
      </trkpt>
      <trkpt lat="43.32258" lon="5.68609">
        <ele>842</ele>
        <time>2019-11-29T13:08:05.000Z</time>
      </trkpt>
      <trkpt lat="43.32257" lon="5.68609">
        <ele>842</ele>
        <time>2019-11-29T13:08:06.000Z</time>
      </trkpt>
      <trkpt lat="43.32256" lon="5.6861">
        <ele>842</ele>
        <time>2019-11-29T13:08:07.000Z</time>
      </trkpt>
      <trkpt lat="43.32255" lon="5.6861">
        <ele>842</ele>
        <time>2019-11-29T13:08:08.000Z</time>
      </trkpt>
      <trkpt lat="43.32254" lon="5.68611">
        <ele>842</ele>
        <time>2019-11-29T13:08:09.000Z</time>
      </trkpt>
      <trkpt lat="43.32254" lon="5.68611">
        <ele>842</ele>
        <time>2019-11-29T13:08:10.000Z</time>
      </trkpt>
      <trkpt lat="43.32253" lon="5.68612">
        <ele>842</ele>
        <time>2019-11-29T13:08:11.000Z</time>
      </trkpt>
      <trkpt lat="43.32253" lon="5.68612">
        <ele>842</ele>
        <time>2019-11-29T13:08:12.000Z</time>
      </trkpt>
      <trkpt lat="43.32252" lon="5.68612">
        <ele>842</ele>
        <time>2019-11-29T13:08:13.000Z</time>
      </trkpt>
      <trkpt lat="43.32251" lon="5.68613">
        <ele>842</ele>
        <time>2019-11-29T13:08:14.000Z</time>
      </trkpt>
      <trkpt lat="43.32251" lon="5.68613">
        <ele>842</ele>
        <time>2019-11-29T13:08:15.000Z</time>
      </trkpt>
      <trkpt lat="43.3225" lon="5.68614">
        <ele>842</ele>
        <time>2019-11-29T13:08:16.000Z</time>
      </trkpt>
      <trkpt lat="43.32249" lon="5.68614">
        <ele>842</ele>
        <time>2019-11-29T13:08:17.000Z</time>
      </trkpt>
      <trkpt lat="43.32248" lon="5.68615">
        <ele>842</ele>
        <time>2019-11-29T13:08:18.000Z</time>
      </trkpt>
      <trkpt lat="43.32247" lon="5.68615">
        <ele>842</ele>
        <time>2019-11-29T13:08:19.000Z</time>
      </trkpt>
      <trkpt lat="43.32246" lon="5.68615">
        <ele>842</ele>
        <time>2019-11-29T13:08:20.000Z</time>
      </trkpt>
      <trkpt lat="43.32246" lon="5.68616">
        <ele>842</ele>
        <time>2019-11-29T13:08:21.000Z</time>
      </trkpt>
      <trkpt lat="43.32245" lon="5.68616">
        <ele>842</ele>
        <time>2019-11-29T13:08:22.000Z</time>
      </trkpt>
      <trkpt lat="43.32244" lon="5.68617">
        <ele>842</ele>
        <time>2019-11-29T13:08:23.000Z</time>
      </trkpt>
      <trkpt lat="43.32244" lon="5.68617">
        <ele>842</ele>
        <time>2019-11-29T13:08:24.000Z</time>
      </trkpt>
      <trkpt lat="43.32244" lon="5.68618">
        <ele>842</ele>
        <time>2019-11-29T13:08:25.000Z</time>
      </trkpt>
      <trkpt lat="43.32244" lon="5.68618">
        <ele>842</ele>
        <time>2019-11-29T13:08:26.000Z</time>
      </trkpt>
      <trkpt lat="43.32244" lon="5.68618">
        <ele>842</ele>
        <time>2019-11-29T13:08:27.000Z</time>
      </trkpt>
      <trkpt lat="43.32244" lon="5.68619">
        <ele>842</ele>
        <time>2019-11-29T13:08:28.000Z</time>
      </trkpt>
      <trkpt lat="43.32243" lon="5.68619">
        <ele>842</ele>
        <time>2019-11-29T13:08:29.000Z</time>
      </trkpt>
      <trkpt lat="43.32242" lon="5.6862">
        <ele>842</ele>
        <time>2019-11-29T13:08:30.000Z</time>
      </trkpt>
      <trkpt lat="43.32241" lon="5.6862">
        <ele>842</ele>
        <time>2019-11-29T13:08:31.000Z</time>
      </trkpt>
      <trkpt lat="43.32241" lon="5.68621">
        <ele>842</ele>
        <time>2019-11-29T13:08:32.000Z</time>
      </trkpt>
      <trkpt lat="43.3224" lon="5.68621">
        <ele>842</ele>
        <time>2019-11-29T13:08:33.000Z</time>
      </trkpt>
      <trkpt lat="43.3224" lon="5.68622">
        <ele>842</ele>
        <time>2019-11-29T13:08:34.000Z</time>
      </trkpt>
      <trkpt lat="43.3224" lon="5.68623">
        <ele>842</ele>
        <time>2019-11-29T13:08:35.000Z</time>
      </trkpt>
      <trkpt lat="43.32239" lon="5.68624">
        <ele>842</ele>
        <time>2019-11-29T13:08:36.000Z</time>
      </trkpt>
      <trkpt lat="43.32239" lon="5.68625">
        <ele>842</ele>
        <time>2019-11-29T13:08:37.000Z</time>
      </trkpt>
      <trkpt lat="43.32238" lon="5.68626">
        <ele>842</ele>
        <time>2019-11-29T13:08:38.000Z</time>
      </trkpt>
      <trkpt lat="43.32238" lon="5.68627">
        <ele>842</ele>
        <time>2019-11-29T13:08:39.000Z</time>
      </trkpt>
      <trkpt lat="43.32237" lon="5.68628">
        <ele>842</ele>
        <time>2019-11-29T13:08:40.000Z</time>
      </trkpt>
      <trkpt lat="43.32237" lon="5.68629">
        <ele>842</ele>
        <time>2019-11-29T13:08:41.000Z</time>
      </trkpt>
      <trkpt lat="43.32236" lon="5.6863">
        <ele>842</ele>
        <time>2019-11-29T13:08:42.000Z</time>
      </trkpt>
      <trkpt lat="43.32236" lon="5.68631">
        <ele>842</ele>
        <time>2019-11-29T13:08:43.000Z</time>
      </trkpt>
      <trkpt lat="43.32235" lon="5.68631">
        <ele>842</ele>
        <time>2019-11-29T13:08:44.000Z</time>
      </trkpt>
      <trkpt lat="43.32234" lon="5.68632">
        <ele>842</ele>
        <time>2019-11-29T13:08:45.000Z</time>
      </trkpt>
      <trkpt lat="43.32233" lon="5.68632">
        <ele>842</ele>
        <time>2019-11-29T13:08:46.000Z</time>
      </trkpt>
      <trkpt lat="43.32232" lon="5.68632">
        <ele>842</ele>
        <time>2019-11-29T13:08:47.000Z</time>
      </trkpt>
      <trkpt lat="43.3223" lon="5.68632">
        <ele>842</ele>
        <time>2019-11-29T13:08:48.000Z</time>
      </trkpt>
      <trkpt lat="43.32229" lon="5.68632">
        <ele>842</ele>
        <time>2019-11-29T13:08:49.000Z</time>
      </trkpt>
      <trkpt lat="43.32227" lon="5.68632">
        <ele>843</ele>
        <time>2019-11-29T13:08:50.000Z</time>
      </trkpt>
      <trkpt lat="43.32226" lon="5.68632">
        <ele>843</ele>
        <time>2019-11-29T13:08:51.000Z</time>
      </trkpt>
      <trkpt lat="43.32225" lon="5.68631">
        <ele>843</ele>
        <time>2019-11-29T13:08:52.000Z</time>
      </trkpt>
      <trkpt lat="43.32224" lon="5.68631">
        <ele>843</ele>
        <time>2019-11-29T13:08:53.000Z</time>
      </trkpt>
      <trkpt lat="43.32223" lon="5.6863">
        <ele>843</ele>
        <time>2019-11-29T13:08:54.000Z</time>
      </trkpt>
      <trkpt lat="43.32221" lon="5.6863">
        <ele>843</ele>
        <time>2019-11-29T13:08:55.000Z</time>
      </trkpt>
      <trkpt lat="43.3222" lon="5.68629">
        <ele>843</ele>
        <time>2019-11-29T13:08:56.000Z</time>
      </trkpt>
      <trkpt lat="43.32219" lon="5.68629">
        <ele>843</ele>
        <time>2019-11-29T13:08:57.000Z</time>
      </trkpt>
      <trkpt lat="43.32218" lon="5.68628">
        <ele>843</ele>
        <time>2019-11-29T13:08:58.000Z</time>
      </trkpt>
      <trkpt lat="43.32217" lon="5.68627">
        <ele>843</ele>
        <time>2019-11-29T13:08:59.000Z</time>
      </trkpt>
      <trkpt lat="43.32216" lon="5.68626">
        <ele>843</ele>
        <time>2019-11-29T13:09:00.000Z</time>
      </trkpt>
      <trkpt lat="43.32215" lon="5.68625">
        <ele>843</ele>
        <time>2019-11-29T13:09:01.000Z</time>
      </trkpt>
      <trkpt lat="43.32214" lon="5.68624">
        <ele>843</ele>
        <time>2019-11-29T13:09:02.000Z</time>
      </trkpt>
      <trkpt lat="43.32213" lon="5.68623">
        <ele>843</ele>
        <time>2019-11-29T13:09:03.000Z</time>
      </trkpt>
      <trkpt lat="43.32212" lon="5.68622">
        <ele>843</ele>
        <time>2019-11-29T13:09:04.000Z</time>
      </trkpt>
      <trkpt lat="43.32211" lon="5.68622">
        <ele>843</ele>
        <time>2019-11-29T13:09:05.000Z</time>
      </trkpt>
      <trkpt lat="43.3221" lon="5.68621">
        <ele>843</ele>
        <time>2019-11-29T13:09:06.000Z</time>
      </trkpt>
      <trkpt lat="43.32209" lon="5.6862">
        <ele>843</ele>
        <time>2019-11-29T13:09:07.000Z</time>
      </trkpt>
      <trkpt lat="43.32208" lon="5.6862">
        <ele>844</ele>
        <time>2019-11-29T13:09:08.000Z</time>
      </trkpt>
      <trkpt lat="43.32207" lon="5.6862">
        <ele>844</ele>
        <time>2019-11-29T13:09:09.000Z</time>
      </trkpt>
      <trkpt lat="43.32206" lon="5.68619">
        <ele>844</ele>
        <time>2019-11-29T13:09:10.000Z</time>
      </trkpt>
      <trkpt lat="43.32205" lon="5.68619">
        <ele>844</ele>
        <time>2019-11-29T13:09:11.000Z</time>
      </trkpt>
      <trkpt lat="43.32204" lon="5.68619">
        <ele>844</ele>
        <time>2019-11-29T13:09:12.000Z</time>
      </trkpt>
      <trkpt lat="43.32202" lon="5.68618">
        <ele>844</ele>
        <time>2019-11-29T13:09:13.000Z</time>
      </trkpt>
      <trkpt lat="43.32201" lon="5.68618">
        <ele>844</ele>
        <time>2019-11-29T13:09:14.000Z</time>
      </trkpt>
      <trkpt lat="43.322" lon="5.68618">
        <ele>844</ele>
        <time>2019-11-29T13:09:15.000Z</time>
      </trkpt>
      <trkpt lat="43.32199" lon="5.68617">
        <ele>844</ele>
        <time>2019-11-29T13:09:16.000Z</time>
      </trkpt>
      <trkpt lat="43.32198" lon="5.68617">
        <ele>844</ele>
        <time>2019-11-29T13:09:17.000Z</time>
      </trkpt>
      <trkpt lat="43.32197" lon="5.68616">
        <ele>844</ele>
        <time>2019-11-29T13:09:18.000Z</time>
      </trkpt>
      <trkpt lat="43.32196" lon="5.68615">
        <ele>844</ele>
        <time>2019-11-29T13:09:19.000Z</time>
      </trkpt>
      <trkpt lat="43.32195" lon="5.68614">
        <ele>844</ele>
        <time>2019-11-29T13:09:20.000Z</time>
      </trkpt>
      <trkpt lat="43.32195" lon="5.68614">
        <ele>844</ele>
        <time>2019-11-29T13:09:21.000Z</time>
      </trkpt>
      <trkpt lat="43.32194" lon="5.68614">
        <ele>844</ele>
        <time>2019-11-29T13:09:22.000Z</time>
      </trkpt>
      <trkpt lat="43.32192" lon="5.68614">
        <ele>844</ele>
        <time>2019-11-29T13:09:23.000Z</time>
      </trkpt>
      <trkpt lat="43.32191" lon="5.68614">
        <ele>844</ele>
        <time>2019-11-29T13:09:24.000Z</time>
      </trkpt>
      <trkpt lat="43.3219" lon="5.68613">
        <ele>844</ele>
        <time>2019-11-29T13:09:25.000Z</time>
      </trkpt>
      <trkpt lat="43.32189" lon="5.68613">
        <ele>844</ele>
        <time>2019-11-29T13:09:26.000Z</time>
      </trkpt>
      <trkpt lat="43.32188" lon="5.68612">
        <ele>844</ele>
        <time>2019-11-29T13:09:27.000Z</time>
      </trkpt>
      <trkpt lat="43.32187" lon="5.68611">
        <ele>844</ele>
        <time>2019-11-29T13:09:28.000Z</time>
      </trkpt>
      <trkpt lat="43.32186" lon="5.68611">
        <ele>844</ele>
        <time>2019-11-29T13:09:29.000Z</time>
      </trkpt>
      <trkpt lat="43.32185" lon="5.6861">
        <ele>844</ele>
        <time>2019-11-29T13:09:30.000Z</time>
      </trkpt>
      <trkpt lat="43.32184" lon="5.6861">
        <ele>844</ele>
        <time>2019-11-29T13:09:31.000Z</time>
      </trkpt>
      <trkpt lat="43.32183" lon="5.68609">
        <ele>845</ele>
        <time>2019-11-29T13:09:32.000Z</time>
      </trkpt>
      <trkpt lat="43.32182" lon="5.68609">
        <ele>845</ele>
        <time>2019-11-29T13:09:33.000Z</time>
      </trkpt>
      <trkpt lat="43.32181" lon="5.68609">
        <ele>845</ele>
        <time>2019-11-29T13:09:34.000Z</time>
      </trkpt>
      <trkpt lat="43.3218" lon="5.68608">
        <ele>845</ele>
        <time>2019-11-29T13:09:35.000Z</time>
      </trkpt>
      <trkpt lat="43.32179" lon="5.68607">
        <ele>845</ele>
        <time>2019-11-29T13:09:36.000Z</time>
      </trkpt>
      <trkpt lat="43.32178" lon="5.68607">
        <ele>845</ele>
        <time>2019-11-29T13:09:37.000Z</time>
      </trkpt>
      <trkpt lat="43.32177" lon="5.68607">
        <ele>845</ele>
        <time>2019-11-29T13:09:38.000Z</time>
      </trkpt>
      <trkpt lat="43.32176" lon="5.68606">
        <ele>845</ele>
        <time>2019-11-29T13:09:39.000Z</time>
      </trkpt>
      <trkpt lat="43.32175" lon="5.68606">
        <ele>845</ele>
        <time>2019-11-29T13:09:40.000Z</time>
      </trkpt>
      <trkpt lat="43.32174" lon="5.68606">
        <ele>845</ele>
        <time>2019-11-29T13:09:41.000Z</time>
      </trkpt>
      <trkpt lat="43.32173" lon="5.68606">
        <ele>845</ele>
        <time>2019-11-29T13:09:42.000Z</time>
      </trkpt>
      <trkpt lat="43.32171" lon="5.68605">
        <ele>845</ele>
        <time>2019-11-29T13:09:43.000Z</time>
      </trkpt>
      <trkpt lat="43.3217" lon="5.68605">
        <ele>845</ele>
        <time>2019-11-29T13:09:44.000Z</time>
      </trkpt>
      <trkpt lat="43.32169" lon="5.68604">
        <ele>845</ele>
        <time>2019-11-29T13:09:45.000Z</time>
      </trkpt>
      <trkpt lat="43.32168" lon="5.68603">
        <ele>846</ele>
        <time>2019-11-29T13:09:46.000Z</time>
      </trkpt>
      <trkpt lat="43.32168" lon="5.68603">
        <ele>846</ele>
        <time>2019-11-29T13:09:47.000Z</time>
      </trkpt>
      <trkpt lat="43.32167" lon="5.68602">
        <ele>846</ele>
        <time>2019-11-29T13:09:48.000Z</time>
      </trkpt>
      <trkpt lat="43.32166" lon="5.68602">
        <ele>846</ele>
        <time>2019-11-29T13:09:49.000Z</time>
      </trkpt>
      <trkpt lat="43.32165" lon="5.68602">
        <ele>846</ele>
        <time>2019-11-29T13:09:50.000Z</time>
      </trkpt>
      <trkpt lat="43.32163" lon="5.68602">
        <ele>846</ele>
        <time>2019-11-29T13:09:51.000Z</time>
      </trkpt>
      <trkpt lat="43.32162" lon="5.68602">
        <ele>846</ele>
        <time>2019-11-29T13:09:52.000Z</time>
      </trkpt>
      <trkpt lat="43.32161" lon="5.68601">
        <ele>846</ele>
        <time>2019-11-29T13:09:53.000Z</time>
      </trkpt>
      <trkpt lat="43.3216" lon="5.68601">
        <ele>846</ele>
        <time>2019-11-29T13:09:54.000Z</time>
      </trkpt>
      <trkpt lat="43.32159" lon="5.68601">
        <ele>846</ele>
        <time>2019-11-29T13:09:55.000Z</time>
      </trkpt>
      <trkpt lat="43.32159" lon="5.68601">
        <ele>846</ele>
        <time>2019-11-29T13:09:56.000Z</time>
      </trkpt>
      <trkpt lat="43.32158" lon="5.686">
        <ele>846</ele>
        <time>2019-11-29T13:09:57.000Z</time>
      </trkpt>
      <trkpt lat="43.32157" lon="5.686">
        <ele>846</ele>
        <time>2019-11-29T13:09:58.000Z</time>
      </trkpt>
      <trkpt lat="43.32157" lon="5.686">
        <ele>847</ele>
        <time>2019-11-29T13:09:59.000Z</time>
      </trkpt>
      <trkpt lat="43.32156" lon="5.68599">
        <ele>847</ele>
        <time>2019-11-29T13:10:00.000Z</time>
      </trkpt>
      <trkpt lat="43.32155" lon="5.68599">
        <ele>847</ele>
        <time>2019-11-29T13:10:01.000Z</time>
      </trkpt>
      <trkpt lat="43.32154" lon="5.68599">
        <ele>847</ele>
        <time>2019-11-29T13:10:02.000Z</time>
      </trkpt>
      <trkpt lat="43.32154" lon="5.68598">
        <ele>847</ele>
        <time>2019-11-29T13:10:03.000Z</time>
      </trkpt>
      <trkpt lat="43.32153" lon="5.68598">
        <ele>848</ele>
        <time>2019-11-29T13:10:04.000Z</time>
      </trkpt>
      <trkpt lat="43.32152" lon="5.68598">
        <ele>848</ele>
        <time>2019-11-29T13:10:05.000Z</time>
      </trkpt>
      <trkpt lat="43.32151" lon="5.68598">
        <ele>848</ele>
        <time>2019-11-29T13:10:06.000Z</time>
      </trkpt>
      <trkpt lat="43.3215" lon="5.68598">
        <ele>848</ele>
        <time>2019-11-29T13:10:07.000Z</time>
      </trkpt>
      <trkpt lat="43.32149" lon="5.68598">
        <ele>848</ele>
        <time>2019-11-29T13:10:08.000Z</time>
      </trkpt>
      <trkpt lat="43.32148" lon="5.68597">
        <ele>848</ele>
        <time>2019-11-29T13:10:09.000Z</time>
      </trkpt>
      <trkpt lat="43.32146" lon="5.68596">
        <ele>848</ele>
        <time>2019-11-29T13:10:10.000Z</time>
      </trkpt>
      <trkpt lat="43.32146" lon="5.68596">
        <ele>848</ele>
        <time>2019-11-29T13:10:11.000Z</time>
      </trkpt>
      <trkpt lat="43.32145" lon="5.68595">
        <ele>848</ele>
        <time>2019-11-29T13:10:12.000Z</time>
      </trkpt>
      <trkpt lat="43.32144" lon="5.68594">
        <ele>848</ele>
        <time>2019-11-29T13:10:13.000Z</time>
      </trkpt>
      <trkpt lat="43.32143" lon="5.68594">
        <ele>848</ele>
        <time>2019-11-29T13:10:14.000Z</time>
      </trkpt>
      <trkpt lat="43.32142" lon="5.68593">
        <ele>848</ele>
        <time>2019-11-29T13:10:15.000Z</time>
      </trkpt>
      <trkpt lat="43.32141" lon="5.68592">
        <ele>848</ele>
        <time>2019-11-29T13:10:16.000Z</time>
      </trkpt>
      <trkpt lat="43.3214" lon="5.68592">
        <ele>848</ele>
        <time>2019-11-29T13:10:17.000Z</time>
      </trkpt>
      <trkpt lat="43.3214" lon="5.68591">
        <ele>848</ele>
        <time>2019-11-29T13:10:18.000Z</time>
      </trkpt>
      <trkpt lat="43.32139" lon="5.6859">
        <ele>848</ele>
        <time>2019-11-29T13:10:19.000Z</time>
      </trkpt>
      <trkpt lat="43.32139" lon="5.68589">
        <ele>848</ele>
        <time>2019-11-29T13:10:20.000Z</time>
      </trkpt>
      <trkpt lat="43.32138" lon="5.68588">
        <ele>849</ele>
        <time>2019-11-29T13:10:21.000Z</time>
      </trkpt>
      <trkpt lat="43.32137" lon="5.68587">
        <ele>849</ele>
        <time>2019-11-29T13:10:22.000Z</time>
      </trkpt>
      <trkpt lat="43.32137" lon="5.68587">
        <ele>849</ele>
        <time>2019-11-29T13:10:23.000Z</time>
      </trkpt>
      <trkpt lat="43.32137" lon="5.68586">
        <ele>849</ele>
        <time>2019-11-29T13:10:24.000Z</time>
      </trkpt>
      <trkpt lat="43.32136" lon="5.68586">
        <ele>849</ele>
        <time>2019-11-29T13:10:25.000Z</time>
      </trkpt>
      <trkpt lat="43.32135" lon="5.68585">
        <ele>849</ele>
        <time>2019-11-29T13:10:26.000Z</time>
      </trkpt>
      <trkpt lat="43.32134" lon="5.68584">
        <ele>849</ele>
        <time>2019-11-29T13:10:27.000Z</time>
      </trkpt>
      <trkpt lat="43.32133" lon="5.68583">
        <ele>849</ele>
        <time>2019-11-29T13:10:28.000Z</time>
      </trkpt>
      <trkpt lat="43.32132" lon="5.68582">
        <ele>849</ele>
        <time>2019-11-29T13:10:29.000Z</time>
      </trkpt>
      <trkpt lat="43.32132" lon="5.68581">
        <ele>849</ele>
        <time>2019-11-29T13:10:30.000Z</time>
      </trkpt>
      <trkpt lat="43.32132" lon="5.68579">
        <ele>849</ele>
        <time>2019-11-29T13:10:31.000Z</time>
      </trkpt>
      <trkpt lat="43.32131" lon="5.68578">
        <ele>849</ele>
        <time>2019-11-29T13:10:32.000Z</time>
      </trkpt>
      <trkpt lat="43.32131" lon="5.68577">
        <ele>849</ele>
        <time>2019-11-29T13:10:33.000Z</time>
      </trkpt>
      <trkpt lat="43.3213" lon="5.68576">
        <ele>849</ele>
        <time>2019-11-29T13:10:34.000Z</time>
      </trkpt>
      <trkpt lat="43.32129" lon="5.68575">
        <ele>849</ele>
        <time>2019-11-29T13:10:35.000Z</time>
      </trkpt>
      <trkpt lat="43.32129" lon="5.68575">
        <ele>849</ele>
        <time>2019-11-29T13:10:36.000Z</time>
      </trkpt>
      <trkpt lat="43.32128" lon="5.68574">
        <ele>849</ele>
        <time>2019-11-29T13:10:37.000Z</time>
      </trkpt>
      <trkpt lat="43.32127" lon="5.68573">
        <ele>849</ele>
        <time>2019-11-29T13:10:38.000Z</time>
      </trkpt>
      <trkpt lat="43.32127" lon="5.68571">
        <ele>849</ele>
        <time>2019-11-29T13:10:39.000Z</time>
      </trkpt>
      <trkpt lat="43.32126" lon="5.6857">
        <ele>850</ele>
        <time>2019-11-29T13:10:40.000Z</time>
      </trkpt>
      <trkpt lat="43.32126" lon="5.68569">
        <ele>850</ele>
        <time>2019-11-29T13:10:41.000Z</time>
      </trkpt>
      <trkpt lat="43.32125" lon="5.68568">
        <ele>850</ele>
        <time>2019-11-29T13:10:42.000Z</time>
      </trkpt>
      <trkpt lat="43.32125" lon="5.68567">
        <ele>850</ele>
        <time>2019-11-29T13:10:43.000Z</time>
      </trkpt>
      <trkpt lat="43.32124" lon="5.68565">
        <ele>850</ele>
        <time>2019-11-29T13:10:44.000Z</time>
      </trkpt>
      <trkpt lat="43.32124" lon="5.68564">
        <ele>850</ele>
        <time>2019-11-29T13:10:45.000Z</time>
      </trkpt>
      <trkpt lat="43.32123" lon="5.68563">
        <ele>850</ele>
        <time>2019-11-29T13:10:46.000Z</time>
      </trkpt>
      <trkpt lat="43.32123" lon="5.68562">
        <ele>850</ele>
        <time>2019-11-29T13:10:47.000Z</time>
      </trkpt>
      <trkpt lat="43.32122" lon="5.6856">
        <ele>850</ele>
        <time>2019-11-29T13:10:48.000Z</time>
      </trkpt>
      <trkpt lat="43.32122" lon="5.68559">
        <ele>850</ele>
        <time>2019-11-29T13:10:49.000Z</time>
      </trkpt>
      <trkpt lat="43.32122" lon="5.68558">
        <ele>850</ele>
        <time>2019-11-29T13:10:50.000Z</time>
      </trkpt>
      <trkpt lat="43.32122" lon="5.68557">
        <ele>850</ele>
        <time>2019-11-29T13:10:51.000Z</time>
      </trkpt>
      <trkpt lat="43.32121" lon="5.68556">
        <ele>850</ele>
        <time>2019-11-29T13:10:52.000Z</time>
      </trkpt>
      <trkpt lat="43.32121" lon="5.68555">
        <ele>850</ele>
        <time>2019-11-29T13:10:53.000Z</time>
      </trkpt>
      <trkpt lat="43.3212" lon="5.68554">
        <ele>850</ele>
        <time>2019-11-29T13:10:54.000Z</time>
      </trkpt>
      <trkpt lat="43.3212" lon="5.68553">
        <ele>850</ele>
        <time>2019-11-29T13:10:55.000Z</time>
      </trkpt>
      <trkpt lat="43.32119" lon="5.68552">
        <ele>850</ele>
        <time>2019-11-29T13:10:56.000Z</time>
      </trkpt>
      <trkpt lat="43.32118" lon="5.68551">
        <ele>850</ele>
        <time>2019-11-29T13:10:57.000Z</time>
      </trkpt>
      <trkpt lat="43.32117" lon="5.68549">
        <ele>850</ele>
        <time>2019-11-29T13:10:58.000Z</time>
      </trkpt>
      <trkpt lat="43.32117" lon="5.68548">
        <ele>850</ele>
        <time>2019-11-29T13:10:59.000Z</time>
      </trkpt>
      <trkpt lat="43.32117" lon="5.68547">
        <ele>850</ele>
        <time>2019-11-29T13:11:00.000Z</time>
      </trkpt>
      <trkpt lat="43.32116" lon="5.68546">
        <ele>850</ele>
        <time>2019-11-29T13:11:01.000Z</time>
      </trkpt>
      <trkpt lat="43.32116" lon="5.68545">
        <ele>850</ele>
        <time>2019-11-29T13:11:02.000Z</time>
      </trkpt>
      <trkpt lat="43.32116" lon="5.68543">
        <ele>850</ele>
        <time>2019-11-29T13:11:03.000Z</time>
      </trkpt>
      <trkpt lat="43.32115" lon="5.68542">
        <ele>850</ele>
        <time>2019-11-29T13:11:04.000Z</time>
      </trkpt>
      <trkpt lat="43.32114" lon="5.68541">
        <ele>850</ele>
        <time>2019-11-29T13:11:05.000Z</time>
      </trkpt>
      <trkpt lat="43.32113" lon="5.6854">
        <ele>851</ele>
        <time>2019-11-29T13:11:06.000Z</time>
      </trkpt>
      <trkpt lat="43.32112" lon="5.68539">
        <ele>851</ele>
        <time>2019-11-29T13:11:07.000Z</time>
      </trkpt>
      <trkpt lat="43.32112" lon="5.68538">
        <ele>851</ele>
        <time>2019-11-29T13:11:08.000Z</time>
      </trkpt>
      <trkpt lat="43.32111" lon="5.68536">
        <ele>851</ele>
        <time>2019-11-29T13:11:09.000Z</time>
      </trkpt>
      <trkpt lat="43.32111" lon="5.68535">
        <ele>851</ele>
        <time>2019-11-29T13:11:10.000Z</time>
      </trkpt>
      <trkpt lat="43.32111" lon="5.68535">
        <ele>851</ele>
        <time>2019-11-29T13:11:11.000Z</time>
      </trkpt>
      <trkpt lat="43.32111" lon="5.68533">
        <ele>851</ele>
        <time>2019-11-29T13:11:12.000Z</time>
      </trkpt>
      <trkpt lat="43.3211" lon="5.68532">
        <ele>851</ele>
        <time>2019-11-29T13:11:13.000Z</time>
      </trkpt>
      <trkpt lat="43.3211" lon="5.6853">
        <ele>851</ele>
        <time>2019-11-29T13:11:14.000Z</time>
      </trkpt>
      <trkpt lat="43.3211" lon="5.68529">
        <ele>850</ele>
        <time>2019-11-29T13:11:15.000Z</time>
      </trkpt>
      <trkpt lat="43.32109" lon="5.68528">
        <ele>850</ele>
        <time>2019-11-29T13:11:16.000Z</time>
      </trkpt>
      <trkpt lat="43.3211" lon="5.68526">
        <ele>850</ele>
        <time>2019-11-29T13:11:17.000Z</time>
      </trkpt>
      <trkpt lat="43.3211" lon="5.68525">
        <ele>850</ele>
        <time>2019-11-29T13:11:18.000Z</time>
      </trkpt>
      <trkpt lat="43.32109" lon="5.68524">
        <ele>850</ele>
        <time>2019-11-29T13:11:19.000Z</time>
      </trkpt>
      <trkpt lat="43.32109" lon="5.68523">
        <ele>850</ele>
        <time>2019-11-29T13:11:20.000Z</time>
      </trkpt>
      <trkpt lat="43.32109" lon="5.68521">
        <ele>850</ele>
        <time>2019-11-29T13:11:21.000Z</time>
      </trkpt>
      <trkpt lat="43.32109" lon="5.6852">
        <ele>850</ele>
        <time>2019-11-29T13:11:22.000Z</time>
      </trkpt>
      <trkpt lat="43.32108" lon="5.68519">
        <ele>850</ele>
        <time>2019-11-29T13:11:23.000Z</time>
      </trkpt>
      <trkpt lat="43.32108" lon="5.68518">
        <ele>851</ele>
        <time>2019-11-29T13:11:24.000Z</time>
      </trkpt>
      <trkpt lat="43.32107" lon="5.68517">
        <ele>851</ele>
        <time>2019-11-29T13:11:25.000Z</time>
      </trkpt>
      <trkpt lat="43.32106" lon="5.68516">
        <ele>851</ele>
        <time>2019-11-29T13:11:26.000Z</time>
      </trkpt>
      <trkpt lat="43.32105" lon="5.68515">
        <ele>851</ele>
        <time>2019-11-29T13:11:27.000Z</time>
      </trkpt>
      <trkpt lat="43.32105" lon="5.68515">
        <ele>851</ele>
        <time>2019-11-29T13:11:28.000Z</time>
      </trkpt>
      <trkpt lat="43.32104" lon="5.68514">
        <ele>851</ele>
        <time>2019-11-29T13:11:29.000Z</time>
      </trkpt>
      <trkpt lat="43.32103" lon="5.68513">
        <ele>851</ele>
        <time>2019-11-29T13:11:30.000Z</time>
      </trkpt>
      <trkpt lat="43.32102" lon="5.68512">
        <ele>851</ele>
        <time>2019-11-29T13:11:31.000Z</time>
      </trkpt>
      <trkpt lat="43.32102" lon="5.68511">
        <ele>851</ele>
        <time>2019-11-29T13:11:32.000Z</time>
      </trkpt>
      <trkpt lat="43.32101" lon="5.6851">
        <ele>851</ele>
        <time>2019-11-29T13:11:33.000Z</time>
      </trkpt>
      <trkpt lat="43.321" lon="5.68509">
        <ele>851</ele>
        <time>2019-11-29T13:11:34.000Z</time>
      </trkpt>
      <trkpt lat="43.32099" lon="5.68508">
        <ele>851</ele>
        <time>2019-11-29T13:11:35.000Z</time>
      </trkpt>
      <trkpt lat="43.32099" lon="5.68506">
        <ele>851</ele>
        <time>2019-11-29T13:11:36.000Z</time>
      </trkpt>
      <trkpt lat="43.32099" lon="5.68505">
        <ele>852</ele>
        <time>2019-11-29T13:11:37.000Z</time>
      </trkpt>
      <trkpt lat="43.32098" lon="5.68503">
        <ele>851</ele>
        <time>2019-11-29T13:11:38.000Z</time>
      </trkpt>
      <trkpt lat="43.32098" lon="5.68502">
        <ele>852</ele>
        <time>2019-11-29T13:11:39.000Z</time>
      </trkpt>
      <trkpt lat="43.32098" lon="5.685">
        <ele>852</ele>
        <time>2019-11-29T13:11:40.000Z</time>
      </trkpt>
      <trkpt lat="43.32097" lon="5.68499">
        <ele>852</ele>
        <time>2019-11-29T13:11:41.000Z</time>
      </trkpt>
      <trkpt lat="43.32097" lon="5.68497">
        <ele>852</ele>
        <time>2019-11-29T13:11:42.000Z</time>
      </trkpt>
      <trkpt lat="43.32096" lon="5.68496">
        <ele>852</ele>
        <time>2019-11-29T13:11:43.000Z</time>
      </trkpt>
      <trkpt lat="43.32095" lon="5.68495">
        <ele>852</ele>
        <time>2019-11-29T13:11:44.000Z</time>
      </trkpt>
      <trkpt lat="43.32095" lon="5.68494">
        <ele>852</ele>
        <time>2019-11-29T13:11:45.000Z</time>
      </trkpt>
      <trkpt lat="43.32094" lon="5.68493">
        <ele>852</ele>
        <time>2019-11-29T13:11:46.000Z</time>
      </trkpt>
      <trkpt lat="43.32093" lon="5.68493">
        <ele>852</ele>
        <time>2019-11-29T13:11:47.000Z</time>
      </trkpt>
      <trkpt lat="43.32092" lon="5.68492">
        <ele>852</ele>
        <time>2019-11-29T13:11:48.000Z</time>
      </trkpt>
      <trkpt lat="43.32091" lon="5.68491">
        <ele>852</ele>
        <time>2019-11-29T13:11:49.000Z</time>
      </trkpt>
      <trkpt lat="43.32091" lon="5.6849">
        <ele>852</ele>
        <time>2019-11-29T13:11:50.000Z</time>
      </trkpt>
      <trkpt lat="43.3209" lon="5.68489">
        <ele>852</ele>
        <time>2019-11-29T13:11:51.000Z</time>
      </trkpt>
      <trkpt lat="43.32089" lon="5.68487">
        <ele>852</ele>
        <time>2019-11-29T13:11:52.000Z</time>
      </trkpt>
      <trkpt lat="43.32089" lon="5.68486">
        <ele>852</ele>
        <time>2019-11-29T13:11:53.000Z</time>
      </trkpt>
      <trkpt lat="43.32088" lon="5.68485">
        <ele>852</ele>
        <time>2019-11-29T13:11:54.000Z</time>
      </trkpt>
      <trkpt lat="43.32088" lon="5.68484">
        <ele>852</ele>
        <time>2019-11-29T13:11:55.000Z</time>
      </trkpt>
      <trkpt lat="43.32087" lon="5.68483">
        <ele>852</ele>
        <time>2019-11-29T13:11:56.000Z</time>
      </trkpt>
      <trkpt lat="43.32087" lon="5.68481">
        <ele>852</ele>
        <time>2019-11-29T13:11:57.000Z</time>
      </trkpt>
      <trkpt lat="43.32086" lon="5.6848">
        <ele>852</ele>
        <time>2019-11-29T13:11:58.000Z</time>
      </trkpt>
      <trkpt lat="43.32085" lon="5.68479">
        <ele>852</ele>
        <time>2019-11-29T13:11:59.000Z</time>
      </trkpt>
      <trkpt lat="43.32084" lon="5.68478">
        <ele>852</ele>
        <time>2019-11-29T13:12:00.000Z</time>
      </trkpt>
      <trkpt lat="43.32084" lon="5.68476">
        <ele>852</ele>
        <time>2019-11-29T13:12:01.000Z</time>
      </trkpt>
      <trkpt lat="43.32083" lon="5.68475">
        <ele>852</ele>
        <time>2019-11-29T13:12:02.000Z</time>
      </trkpt>
      <trkpt lat="43.32082" lon="5.68474">
        <ele>852</ele>
        <time>2019-11-29T13:12:03.000Z</time>
      </trkpt>
      <trkpt lat="43.32082" lon="5.68473">
        <ele>852</ele>
        <time>2019-11-29T13:12:04.000Z</time>
      </trkpt>
      <trkpt lat="43.32081" lon="5.68472">
        <ele>852</ele>
        <time>2019-11-29T13:12:05.000Z</time>
      </trkpt>
      <trkpt lat="43.3208" lon="5.68472">
        <ele>852</ele>
        <time>2019-11-29T13:12:06.000Z</time>
      </trkpt>
      <trkpt lat="43.3208" lon="5.68471">
        <ele>852</ele>
        <time>2019-11-29T13:12:07.000Z</time>
      </trkpt>
      <trkpt lat="43.32079" lon="5.68471">
        <ele>852</ele>
        <time>2019-11-29T13:12:08.000Z</time>
      </trkpt>
      <trkpt lat="43.32078" lon="5.68471">
        <ele>852</ele>
        <time>2019-11-29T13:12:09.000Z</time>
      </trkpt>
      <trkpt lat="43.32078" lon="5.68471">
        <ele>852</ele>
        <time>2019-11-29T13:12:10.000Z</time>
      </trkpt>
      <trkpt lat="43.32077" lon="5.68471">
        <ele>852</ele>
        <time>2019-11-29T13:12:11.000Z</time>
      </trkpt>
      <trkpt lat="43.32076" lon="5.6847">
        <ele>852</ele>
        <time>2019-11-29T13:12:12.000Z</time>
      </trkpt>
      <trkpt lat="43.32075" lon="5.68468">
        <ele>852</ele>
        <time>2019-11-29T13:12:13.000Z</time>
      </trkpt>
      <trkpt lat="43.32074" lon="5.68467">
        <ele>852</ele>
        <time>2019-11-29T13:12:14.000Z</time>
      </trkpt>
      <trkpt lat="43.32073" lon="5.68466">
        <ele>852</ele>
        <time>2019-11-29T13:12:15.000Z</time>
      </trkpt>
      <trkpt lat="43.32072" lon="5.68466">
        <ele>852</ele>
        <time>2019-11-29T13:12:16.000Z</time>
      </trkpt>
      <trkpt lat="43.32072" lon="5.68465">
        <ele>852</ele>
        <time>2019-11-29T13:12:17.000Z</time>
      </trkpt>
      <trkpt lat="43.32071" lon="5.68465">
        <ele>852</ele>
        <time>2019-11-29T13:12:18.000Z</time>
      </trkpt>
      <trkpt lat="43.3207" lon="5.68464">
        <ele>852</ele>
        <time>2019-11-29T13:12:19.000Z</time>
      </trkpt>
      <trkpt lat="43.32069" lon="5.68464">
        <ele>852</ele>
        <time>2019-11-29T13:12:20.000Z</time>
      </trkpt>
      <trkpt lat="43.32068" lon="5.68464">
        <ele>852</ele>
        <time>2019-11-29T13:12:21.000Z</time>
      </trkpt>
      <trkpt lat="43.32067" lon="5.68463">
        <ele>852</ele>
        <time>2019-11-29T13:12:22.000Z</time>
      </trkpt>
      <trkpt lat="43.32067" lon="5.68462">
        <ele>852</ele>
        <time>2019-11-29T13:12:23.000Z</time>
      </trkpt>
      <trkpt lat="43.32066" lon="5.68461">
        <ele>852</ele>
        <time>2019-11-29T13:12:24.000Z</time>
      </trkpt>
      <trkpt lat="43.32065" lon="5.6846">
        <ele>852</ele>
        <time>2019-11-29T13:12:25.000Z</time>
      </trkpt>
      <trkpt lat="43.32065" lon="5.6846">
        <ele>852</ele>
        <time>2019-11-29T13:12:26.000Z</time>
      </trkpt>
      <trkpt lat="43.32064" lon="5.68459">
        <ele>852</ele>
        <time>2019-11-29T13:12:27.000Z</time>
      </trkpt>
      <trkpt lat="43.32064" lon="5.68458">
        <ele>852</ele>
        <time>2019-11-29T13:12:28.000Z</time>
      </trkpt>
      <trkpt lat="43.32064" lon="5.68458">
        <ele>852</ele>
        <time>2019-11-29T13:12:29.000Z</time>
      </trkpt>
      <trkpt lat="43.32063" lon="5.68458">
        <ele>852</ele>
        <time>2019-11-29T13:12:30.000Z</time>
      </trkpt>
      <trkpt lat="43.32062" lon="5.68457">
        <ele>852</ele>
        <time>2019-11-29T13:12:31.000Z</time>
      </trkpt>
      <trkpt lat="43.32061" lon="5.68456">
        <ele>852</ele>
        <time>2019-11-29T13:12:32.000Z</time>
      </trkpt>
      <trkpt lat="43.32061" lon="5.68455">
        <ele>852</ele>
        <time>2019-11-29T13:12:33.000Z</time>
      </trkpt>
      <trkpt lat="43.3206" lon="5.68455">
        <ele>852</ele>
        <time>2019-11-29T13:12:34.000Z</time>
      </trkpt>
      <trkpt lat="43.32059" lon="5.68453">
        <ele>852</ele>
        <time>2019-11-29T13:12:35.000Z</time>
      </trkpt>
      <trkpt lat="43.32058" lon="5.68453">
        <ele>852</ele>
        <time>2019-11-29T13:12:36.000Z</time>
      </trkpt>
      <trkpt lat="43.32058" lon="5.68451">
        <ele>852</ele>
        <time>2019-11-29T13:12:37.000Z</time>
      </trkpt>
      <trkpt lat="43.32057" lon="5.6845">
        <ele>852</ele>
        <time>2019-11-29T13:12:38.000Z</time>
      </trkpt>
      <trkpt lat="43.32056" lon="5.68449">
        <ele>852</ele>
        <time>2019-11-29T13:12:39.000Z</time>
      </trkpt>
      <trkpt lat="43.32055" lon="5.68448">
        <ele>852</ele>
        <time>2019-11-29T13:12:40.000Z</time>
      </trkpt>
      <trkpt lat="43.32055" lon="5.68447">
        <ele>852</ele>
        <time>2019-11-29T13:12:41.000Z</time>
      </trkpt>
      <trkpt lat="43.32054" lon="5.68446">
        <ele>852</ele>
        <time>2019-11-29T13:12:42.000Z</time>
      </trkpt>
      <trkpt lat="43.32053" lon="5.68446">
        <ele>852</ele>
        <time>2019-11-29T13:12:43.000Z</time>
      </trkpt>
      <trkpt lat="43.32052" lon="5.68445">
        <ele>852</ele>
        <time>2019-11-29T13:12:44.000Z</time>
      </trkpt>
      <trkpt lat="43.32051" lon="5.68444">
        <ele>852</ele>
        <time>2019-11-29T13:12:45.000Z</time>
      </trkpt>
      <trkpt lat="43.3205" lon="5.68443">
        <ele>852</ele>
        <time>2019-11-29T13:12:46.000Z</time>
      </trkpt>
      <trkpt lat="43.32049" lon="5.68443">
        <ele>852</ele>
        <time>2019-11-29T13:12:47.000Z</time>
      </trkpt>
      <trkpt lat="43.32048" lon="5.68442">
        <ele>852</ele>
        <time>2019-11-29T13:12:48.000Z</time>
      </trkpt>
      <trkpt lat="43.32048" lon="5.68441">
        <ele>852</ele>
        <time>2019-11-29T13:12:49.000Z</time>
      </trkpt>
      <trkpt lat="43.32047" lon="5.6844">
        <ele>853</ele>
        <time>2019-11-29T13:12:50.000Z</time>
      </trkpt>
      <trkpt lat="43.32047" lon="5.6844">
        <ele>853</ele>
        <time>2019-11-29T13:12:51.000Z</time>
      </trkpt>
      <trkpt lat="43.32046" lon="5.6844">
        <ele>853</ele>
        <time>2019-11-29T13:12:52.000Z</time>
      </trkpt>
      <trkpt lat="43.32045" lon="5.68439">
        <ele>853</ele>
        <time>2019-11-29T13:12:53.000Z</time>
      </trkpt>
      <trkpt lat="43.32044" lon="5.68439">
        <ele>853</ele>
        <time>2019-11-29T13:12:54.000Z</time>
      </trkpt>
      <trkpt lat="43.32043" lon="5.68438">
        <ele>853</ele>
        <time>2019-11-29T13:12:55.000Z</time>
      </trkpt>
      <trkpt lat="43.32042" lon="5.68438">
        <ele>853</ele>
        <time>2019-11-29T13:12:56.000Z</time>
      </trkpt>
      <trkpt lat="43.32041" lon="5.68437">
        <ele>853</ele>
        <time>2019-11-29T13:12:57.000Z</time>
      </trkpt>
      <trkpt lat="43.3204" lon="5.68437">
        <ele>853</ele>
        <time>2019-11-29T13:12:58.000Z</time>
      </trkpt>
      <trkpt lat="43.32039" lon="5.68436">
        <ele>853</ele>
        <time>2019-11-29T13:12:59.000Z</time>
      </trkpt>
      <trkpt lat="43.32038" lon="5.68436">
        <ele>853</ele>
        <time>2019-11-29T13:13:00.000Z</time>
      </trkpt>
      <trkpt lat="43.32037" lon="5.68436">
        <ele>853</ele>
        <time>2019-11-29T13:13:01.000Z</time>
      </trkpt>
      <trkpt lat="43.32036" lon="5.68435">
        <ele>853</ele>
        <time>2019-11-29T13:13:02.000Z</time>
      </trkpt>
      <trkpt lat="43.32035" lon="5.68435">
        <ele>853</ele>
        <time>2019-11-29T13:13:03.000Z</time>
      </trkpt>
      <trkpt lat="43.32034" lon="5.68434">
        <ele>853</ele>
        <time>2019-11-29T13:13:04.000Z</time>
      </trkpt>
      <trkpt lat="43.32033" lon="5.68433">
        <ele>853</ele>
        <time>2019-11-29T13:13:05.000Z</time>
      </trkpt>
      <trkpt lat="43.32032" lon="5.68432">
        <ele>853</ele>
        <time>2019-11-29T13:13:06.000Z</time>
      </trkpt>
      <trkpt lat="43.32031" lon="5.68431">
        <ele>853</ele>
        <time>2019-11-29T13:13:07.000Z</time>
      </trkpt>
      <trkpt lat="43.3203" lon="5.6843">
        <ele>853</ele>
        <time>2019-11-29T13:13:08.000Z</time>
      </trkpt>
      <trkpt lat="43.32029" lon="5.6843">
        <ele>853</ele>
        <time>2019-11-29T13:13:09.000Z</time>
      </trkpt>
      <trkpt lat="43.32028" lon="5.68428">
        <ele>854</ele>
        <time>2019-11-29T13:13:10.000Z</time>
      </trkpt>
      <trkpt lat="43.32028" lon="5.68427">
        <ele>854</ele>
        <time>2019-11-29T13:13:11.000Z</time>
      </trkpt>
      <trkpt lat="43.32027" lon="5.68426">
        <ele>854</ele>
        <time>2019-11-29T13:13:12.000Z</time>
      </trkpt>
      <trkpt lat="43.32027" lon="5.68425">
        <ele>854</ele>
        <time>2019-11-29T13:13:13.000Z</time>
      </trkpt>
      <trkpt lat="43.32026" lon="5.68424">
        <ele>854</ele>
        <time>2019-11-29T13:13:14.000Z</time>
      </trkpt>
      <trkpt lat="43.32025" lon="5.68423">
        <ele>854</ele>
        <time>2019-11-29T13:13:15.000Z</time>
      </trkpt>
      <trkpt lat="43.32025" lon="5.68422">
        <ele>854</ele>
        <time>2019-11-29T13:13:16.000Z</time>
      </trkpt>
      <trkpt lat="43.32024" lon="5.68421">
        <ele>854</ele>
        <time>2019-11-29T13:13:17.000Z</time>
      </trkpt>
      <trkpt lat="43.32024" lon="5.68419">
        <ele>854</ele>
        <time>2019-11-29T13:13:18.000Z</time>
      </trkpt>
      <trkpt lat="43.32024" lon="5.68418">
        <ele>854</ele>
        <time>2019-11-29T13:13:19.000Z</time>
      </trkpt>
      <trkpt lat="43.32023" lon="5.68417">
        <ele>854</ele>
        <time>2019-11-29T13:13:20.000Z</time>
      </trkpt>
      <trkpt lat="43.32023" lon="5.68416">
        <ele>855</ele>
        <time>2019-11-29T13:13:21.000Z</time>
      </trkpt>
      <trkpt lat="43.32022" lon="5.68415">
        <ele>855</ele>
        <time>2019-11-29T13:13:22.000Z</time>
      </trkpt>
      <trkpt lat="43.32022" lon="5.68414">
        <ele>855</ele>
        <time>2019-11-29T13:13:23.000Z</time>
      </trkpt>
      <trkpt lat="43.32021" lon="5.68414">
        <ele>855</ele>
        <time>2019-11-29T13:13:24.000Z</time>
      </trkpt>
      <trkpt lat="43.3202" lon="5.68413">
        <ele>855</ele>
        <time>2019-11-29T13:13:25.000Z</time>
      </trkpt>
      <trkpt lat="43.32019" lon="5.68413">
        <ele>855</ele>
        <time>2019-11-29T13:13:26.000Z</time>
      </trkpt>
      <trkpt lat="43.32018" lon="5.68412">
        <ele>855</ele>
        <time>2019-11-29T13:13:27.000Z</time>
      </trkpt>
      <trkpt lat="43.32017" lon="5.68411">
        <ele>855</ele>
        <time>2019-11-29T13:13:28.000Z</time>
      </trkpt>
      <trkpt lat="43.32016" lon="5.68411">
        <ele>855</ele>
        <time>2019-11-29T13:13:29.000Z</time>
      </trkpt>
      <trkpt lat="43.32016" lon="5.6841">
        <ele>855</ele>
        <time>2019-11-29T13:13:30.000Z</time>
      </trkpt>
      <trkpt lat="43.32015" lon="5.68409">
        <ele>855</ele>
        <time>2019-11-29T13:13:31.000Z</time>
      </trkpt>
      <trkpt lat="43.32014" lon="5.68408">
        <ele>856</ele>
        <time>2019-11-29T13:13:32.000Z</time>
      </trkpt>
      <trkpt lat="43.32014" lon="5.68407">
        <ele>856</ele>
        <time>2019-11-29T13:13:33.000Z</time>
      </trkpt>
      <trkpt lat="43.32013" lon="5.68406">
        <ele>856</ele>
        <time>2019-11-29T13:13:34.000Z</time>
      </trkpt>
      <trkpt lat="43.32012" lon="5.68404">
        <ele>856</ele>
        <time>2019-11-29T13:13:35.000Z</time>
      </trkpt>
      <trkpt lat="43.32012" lon="5.68404">
        <ele>856</ele>
        <time>2019-11-29T13:13:36.000Z</time>
      </trkpt>
      <trkpt lat="43.32011" lon="5.68403">
        <ele>856</ele>
        <time>2019-11-29T13:13:37.000Z</time>
      </trkpt>
      <trkpt lat="43.3201" lon="5.68402">
        <ele>856</ele>
        <time>2019-11-29T13:13:38.000Z</time>
      </trkpt>
      <trkpt lat="43.3201" lon="5.684">
        <ele>856</ele>
        <time>2019-11-29T13:13:39.000Z</time>
      </trkpt>
      <trkpt lat="43.32009" lon="5.684">
        <ele>856</ele>
        <time>2019-11-29T13:13:40.000Z</time>
      </trkpt>
      <trkpt lat="43.32009" lon="5.68399">
        <ele>856</ele>
        <time>2019-11-29T13:13:41.000Z</time>
      </trkpt>
      <trkpt lat="43.32008" lon="5.68399">
        <ele>856</ele>
        <time>2019-11-29T13:13:42.000Z</time>
      </trkpt>
      <trkpt lat="43.32007" lon="5.68398">
        <ele>856</ele>
        <time>2019-11-29T13:13:43.000Z</time>
      </trkpt>
      <trkpt lat="43.32007" lon="5.68398">
        <ele>856</ele>
        <time>2019-11-29T13:13:44.000Z</time>
      </trkpt>
      <trkpt lat="43.32006" lon="5.68397">
        <ele>856</ele>
        <time>2019-11-29T13:13:45.000Z</time>
      </trkpt>
      <trkpt lat="43.32005" lon="5.68396">
        <ele>856</ele>
        <time>2019-11-29T13:13:46.000Z</time>
      </trkpt>
      <trkpt lat="43.32004" lon="5.68396">
        <ele>856</ele>
        <time>2019-11-29T13:13:47.000Z</time>
      </trkpt>
      <trkpt lat="43.32003" lon="5.68395">
        <ele>856</ele>
        <time>2019-11-29T13:13:48.000Z</time>
      </trkpt>
      <trkpt lat="43.32003" lon="5.68394">
        <ele>856</ele>
        <time>2019-11-29T13:13:49.000Z</time>
      </trkpt>
      <trkpt lat="43.32002" lon="5.68393">
        <ele>856</ele>
        <time>2019-11-29T13:13:50.000Z</time>
      </trkpt>
      <trkpt lat="43.32001" lon="5.68393">
        <ele>856</ele>
        <time>2019-11-29T13:13:51.000Z</time>
      </trkpt>
      <trkpt lat="43.32" lon="5.68392">
        <ele>856</ele>
        <time>2019-11-29T13:13:52.000Z</time>
      </trkpt>
      <trkpt lat="43.32" lon="5.68391">
        <ele>856</ele>
        <time>2019-11-29T13:13:53.000Z</time>
      </trkpt>
      <trkpt lat="43.31999" lon="5.6839">
        <ele>856</ele>
        <time>2019-11-29T13:13:54.000Z</time>
      </trkpt>
      <trkpt lat="43.31998" lon="5.68389">
        <ele>856</ele>
        <time>2019-11-29T13:13:55.000Z</time>
      </trkpt>
      <trkpt lat="43.31997" lon="5.68387">
        <ele>856</ele>
        <time>2019-11-29T13:13:56.000Z</time>
      </trkpt>
      <trkpt lat="43.31996" lon="5.68387">
        <ele>856</ele>
        <time>2019-11-29T13:13:57.000Z</time>
      </trkpt>
      <trkpt lat="43.31996" lon="5.68386">
        <ele>856</ele>
        <time>2019-11-29T13:13:58.000Z</time>
      </trkpt>
      <trkpt lat="43.31995" lon="5.68385">
        <ele>856</ele>
        <time>2019-11-29T13:13:59.000Z</time>
      </trkpt>
      <trkpt lat="43.31994" lon="5.68385">
        <ele>856</ele>
        <time>2019-11-29T13:14:00.000Z</time>
      </trkpt>
      <trkpt lat="43.31993" lon="5.68385">
        <ele>856</ele>
        <time>2019-11-29T13:14:01.000Z</time>
      </trkpt>
      <trkpt lat="43.31992" lon="5.68386">
        <ele>856</ele>
        <time>2019-11-29T13:14:02.000Z</time>
      </trkpt>
      <trkpt lat="43.31991" lon="5.68386">
        <ele>856</ele>
        <time>2019-11-29T13:14:03.000Z</time>
      </trkpt>
      <trkpt lat="43.3199" lon="5.68386">
        <ele>856</ele>
        <time>2019-11-29T13:14:04.000Z</time>
      </trkpt>
      <trkpt lat="43.31989" lon="5.68386">
        <ele>856</ele>
        <time>2019-11-29T13:14:05.000Z</time>
      </trkpt>
      <trkpt lat="43.31988" lon="5.68386">
        <ele>856</ele>
        <time>2019-11-29T13:14:06.000Z</time>
      </trkpt>
      <trkpt lat="43.31987" lon="5.68386">
        <ele>856</ele>
        <time>2019-11-29T13:14:07.000Z</time>
      </trkpt>
      <trkpt lat="43.31986" lon="5.68386">
        <ele>856</ele>
        <time>2019-11-29T13:14:08.000Z</time>
      </trkpt>
      <trkpt lat="43.31985" lon="5.68386">
        <ele>855</ele>
        <time>2019-11-29T13:14:09.000Z</time>
      </trkpt>
      <trkpt lat="43.31984" lon="5.68386">
        <ele>855</ele>
        <time>2019-11-29T13:14:10.000Z</time>
      </trkpt>
      <trkpt lat="43.31983" lon="5.68385">
        <ele>855</ele>
        <time>2019-11-29T13:14:11.000Z</time>
      </trkpt>
      <trkpt lat="43.31982" lon="5.68385">
        <ele>855</ele>
        <time>2019-11-29T13:14:12.000Z</time>
      </trkpt>
      <trkpt lat="43.31981" lon="5.68384">
        <ele>855</ele>
        <time>2019-11-29T13:14:13.000Z</time>
      </trkpt>
      <trkpt lat="43.3198" lon="5.68383">
        <ele>855</ele>
        <time>2019-11-29T13:14:14.000Z</time>
      </trkpt>
      <trkpt lat="43.31979" lon="5.68383">
        <ele>855</ele>
        <time>2019-11-29T13:14:15.000Z</time>
      </trkpt>
      <trkpt lat="43.31978" lon="5.68383">
        <ele>855</ele>
        <time>2019-11-29T13:14:16.000Z</time>
      </trkpt>
      <trkpt lat="43.31978" lon="5.68383">
        <ele>855</ele>
        <time>2019-11-29T13:14:17.000Z</time>
      </trkpt>
      <trkpt lat="43.31977" lon="5.68383">
        <ele>855</ele>
        <time>2019-11-29T13:14:18.000Z</time>
      </trkpt>
      <trkpt lat="43.31976" lon="5.68384">
        <ele>855</ele>
        <time>2019-11-29T13:14:19.000Z</time>
      </trkpt>
      <trkpt lat="43.31976" lon="5.68384">
        <ele>855</ele>
        <time>2019-11-29T13:14:20.000Z</time>
      </trkpt>
      <trkpt lat="43.31975" lon="5.68385">
        <ele>855</ele>
        <time>2019-11-29T13:14:21.000Z</time>
      </trkpt>
      <trkpt lat="43.31975" lon="5.68386">
        <ele>856</ele>
        <time>2019-11-29T13:14:22.000Z</time>
      </trkpt>
      <trkpt lat="43.31974" lon="5.68386">
        <ele>856</ele>
        <time>2019-11-29T13:14:23.000Z</time>
      </trkpt>
      <trkpt lat="43.31973" lon="5.68387">
        <ele>856</ele>
        <time>2019-11-29T13:14:24.000Z</time>
      </trkpt>
      <trkpt lat="43.31972" lon="5.68388">
        <ele>856</ele>
        <time>2019-11-29T13:14:25.000Z</time>
      </trkpt>
      <trkpt lat="43.31971" lon="5.68389">
        <ele>856</ele>
        <time>2019-11-29T13:14:26.000Z</time>
      </trkpt>
      <trkpt lat="43.3197" lon="5.6839">
        <ele>856</ele>
        <time>2019-11-29T13:14:27.000Z</time>
      </trkpt>
      <trkpt lat="43.31969" lon="5.6839">
        <ele>856</ele>
        <time>2019-11-29T13:14:28.000Z</time>
      </trkpt>
      <trkpt lat="43.31968" lon="5.68391">
        <ele>856</ele>
        <time>2019-11-29T13:14:29.000Z</time>
      </trkpt>
      <trkpt lat="43.31967" lon="5.68391">
        <ele>856</ele>
        <time>2019-11-29T13:14:30.000Z</time>
      </trkpt>
      <trkpt lat="43.31966" lon="5.68392">
        <ele>856</ele>
        <time>2019-11-29T13:14:31.000Z</time>
      </trkpt>
      <trkpt lat="43.31965" lon="5.68392">
        <ele>856</ele>
        <time>2019-11-29T13:14:32.000Z</time>
      </trkpt>
      <trkpt lat="43.31964" lon="5.68392">
        <ele>856</ele>
        <time>2019-11-29T13:14:33.000Z</time>
      </trkpt>
      <trkpt lat="43.31963" lon="5.68392">
        <ele>856</ele>
        <time>2019-11-29T13:14:34.000Z</time>
      </trkpt>
      <trkpt lat="43.31962" lon="5.68392">
        <ele>856</ele>
        <time>2019-11-29T13:14:35.000Z</time>
      </trkpt>
      <trkpt lat="43.31961" lon="5.68392">
        <ele>856</ele>
        <time>2019-11-29T13:14:36.000Z</time>
      </trkpt>
      <trkpt lat="43.3196" lon="5.68392">
        <ele>856</ele>
        <time>2019-11-29T13:14:37.000Z</time>
      </trkpt>
      <trkpt lat="43.31959" lon="5.68392">
        <ele>856</ele>
        <time>2019-11-29T13:14:38.000Z</time>
      </trkpt>
      <trkpt lat="43.31958" lon="5.68392">
        <ele>856</ele>
        <time>2019-11-29T13:14:39.000Z</time>
      </trkpt>
      <trkpt lat="43.31957" lon="5.68391">
        <ele>856</ele>
        <time>2019-11-29T13:14:40.000Z</time>
      </trkpt>
      <trkpt lat="43.31957" lon="5.68391">
        <ele>856</ele>
        <time>2019-11-29T13:14:41.000Z</time>
      </trkpt>
      <trkpt lat="43.31956" lon="5.6839">
        <ele>856</ele>
        <time>2019-11-29T13:14:42.000Z</time>
      </trkpt>
      <trkpt lat="43.31955" lon="5.68389">
        <ele>857</ele>
        <time>2019-11-29T13:14:43.000Z</time>
      </trkpt>
      <trkpt lat="43.31955" lon="5.68388">
        <ele>857</ele>
        <time>2019-11-29T13:14:44.000Z</time>
      </trkpt>
      <trkpt lat="43.31954" lon="5.68386">
        <ele>857</ele>
        <time>2019-11-29T13:14:45.000Z</time>
      </trkpt>
      <trkpt lat="43.31954" lon="5.68386">
        <ele>857</ele>
        <time>2019-11-29T13:14:46.000Z</time>
      </trkpt>
      <trkpt lat="43.31953" lon="5.68385">
        <ele>857</ele>
        <time>2019-11-29T13:14:47.000Z</time>
      </trkpt>
      <trkpt lat="43.31953" lon="5.68384">
        <ele>857</ele>
        <time>2019-11-29T13:14:48.000Z</time>
      </trkpt>
      <trkpt lat="43.31952" lon="5.68383">
        <ele>857</ele>
        <time>2019-11-29T13:14:49.000Z</time>
      </trkpt>
      <trkpt lat="43.31951" lon="5.68383">
        <ele>858</ele>
        <time>2019-11-29T13:14:50.000Z</time>
      </trkpt>
      <trkpt lat="43.3195" lon="5.68383">
        <ele>858</ele>
        <time>2019-11-29T13:14:51.000Z</time>
      </trkpt>
      <trkpt lat="43.31949" lon="5.68382">
        <ele>858</ele>
        <time>2019-11-29T13:14:52.000Z</time>
      </trkpt>
      <trkpt lat="43.31948" lon="5.68381">
        <ele>858</ele>
        <time>2019-11-29T13:14:53.000Z</time>
      </trkpt>
      <trkpt lat="43.31948" lon="5.68381">
        <ele>858</ele>
        <time>2019-11-29T13:14:54.000Z</time>
      </trkpt>
      <trkpt lat="43.31947" lon="5.68381">
        <ele>859</ele>
        <time>2019-11-29T13:14:55.000Z</time>
      </trkpt>
      <trkpt lat="43.31946" lon="5.6838">
        <ele>859</ele>
        <time>2019-11-29T13:14:56.000Z</time>
      </trkpt>
      <trkpt lat="43.31946" lon="5.6838">
        <ele>859</ele>
        <time>2019-11-29T13:14:57.000Z</time>
      </trkpt>
      <trkpt lat="43.31945" lon="5.68379">
        <ele>859</ele>
        <time>2019-11-29T13:14:58.000Z</time>
      </trkpt>
      <trkpt lat="43.31944" lon="5.68378">
        <ele>859</ele>
        <time>2019-11-29T13:14:59.000Z</time>
      </trkpt>
      <trkpt lat="43.31944" lon="5.68378">
        <ele>859</ele>
        <time>2019-11-29T13:15:00.000Z</time>
      </trkpt>
      <trkpt lat="43.31943" lon="5.68377">
        <ele>859</ele>
        <time>2019-11-29T13:15:01.000Z</time>
      </trkpt>
      <trkpt lat="43.31942" lon="5.68376">
        <ele>859</ele>
        <time>2019-11-29T13:15:02.000Z</time>
      </trkpt>
      <trkpt lat="43.31941" lon="5.68375">
        <ele>859</ele>
        <time>2019-11-29T13:15:03.000Z</time>
      </trkpt>
      <trkpt lat="43.3194" lon="5.68375">
        <ele>859</ele>
        <time>2019-11-29T13:15:04.000Z</time>
      </trkpt>
      <trkpt lat="43.3194" lon="5.68375">
        <ele>860</ele>
        <time>2019-11-29T13:15:05.000Z</time>
      </trkpt>
      <trkpt lat="43.31939" lon="5.68374">
        <ele>860</ele>
        <time>2019-11-29T13:15:06.000Z</time>
      </trkpt>
      <trkpt lat="43.31938" lon="5.68374">
        <ele>860</ele>
        <time>2019-11-29T13:15:07.000Z</time>
      </trkpt>
      <trkpt lat="43.31937" lon="5.68373">
        <ele>860</ele>
        <time>2019-11-29T13:15:08.000Z</time>
      </trkpt>
      <trkpt lat="43.31936" lon="5.68373">
        <ele>860</ele>
        <time>2019-11-29T13:15:09.000Z</time>
      </trkpt>
      <trkpt lat="43.31935" lon="5.68372">
        <ele>860</ele>
        <time>2019-11-29T13:15:10.000Z</time>
      </trkpt>
      <trkpt lat="43.31935" lon="5.68372">
        <ele>860</ele>
        <time>2019-11-29T13:15:11.000Z</time>
      </trkpt>
      <trkpt lat="43.31934" lon="5.68372">
        <ele>860</ele>
        <time>2019-11-29T13:15:12.000Z</time>
      </trkpt>
      <trkpt lat="43.31933" lon="5.68372">
        <ele>860</ele>
        <time>2019-11-29T13:15:13.000Z</time>
      </trkpt>
      <trkpt lat="43.31932" lon="5.68372">
        <ele>860</ele>
        <time>2019-11-29T13:15:14.000Z</time>
      </trkpt>
      <trkpt lat="43.31931" lon="5.68372">
        <ele>860</ele>
        <time>2019-11-29T13:15:15.000Z</time>
      </trkpt>
      <trkpt lat="43.3193" lon="5.68372">
        <ele>859</ele>
        <time>2019-11-29T13:15:16.000Z</time>
      </trkpt>
      <trkpt lat="43.3193" lon="5.68372">
        <ele>859</ele>
        <time>2019-11-29T13:15:17.000Z</time>
      </trkpt>
      <trkpt lat="43.31929" lon="5.68372">
        <ele>859</ele>
        <time>2019-11-29T13:15:18.000Z</time>
      </trkpt>
      <trkpt lat="43.31928" lon="5.68372">
        <ele>859</ele>
        <time>2019-11-29T13:15:19.000Z</time>
      </trkpt>
      <trkpt lat="43.31927" lon="5.68373">
        <ele>859</ele>
        <time>2019-11-29T13:15:20.000Z</time>
      </trkpt>
      <trkpt lat="43.31927" lon="5.68373">
        <ele>859</ele>
        <time>2019-11-29T13:15:21.000Z</time>
      </trkpt>
      <trkpt lat="43.31927" lon="5.68373">
        <ele>859</ele>
        <time>2019-11-29T13:15:22.000Z</time>
      </trkpt>
      <trkpt lat="43.31926" lon="5.68374">
        <ele>859</ele>
        <time>2019-11-29T13:15:23.000Z</time>
      </trkpt>
      <trkpt lat="43.31925" lon="5.68374">
        <ele>859</ele>
        <time>2019-11-29T13:15:24.000Z</time>
      </trkpt>
      <trkpt lat="43.31924" lon="5.68374">
        <ele>859</ele>
        <time>2019-11-29T13:15:25.000Z</time>
      </trkpt>
      <trkpt lat="43.31923" lon="5.68375">
        <ele>859</ele>
        <time>2019-11-29T13:15:26.000Z</time>
      </trkpt>
      <trkpt lat="43.31922" lon="5.68375">
        <ele>859</ele>
        <time>2019-11-29T13:15:27.000Z</time>
      </trkpt>
      <trkpt lat="43.31921" lon="5.68375">
        <ele>859</ele>
        <time>2019-11-29T13:15:28.000Z</time>
      </trkpt>
      <trkpt lat="43.3192" lon="5.68375">
        <ele>860</ele>
        <time>2019-11-29T13:15:29.000Z</time>
      </trkpt>
      <trkpt lat="43.31919" lon="5.68374">
        <ele>860</ele>
        <time>2019-11-29T13:15:30.000Z</time>
      </trkpt>
      <trkpt lat="43.31918" lon="5.68374">
        <ele>860</ele>
        <time>2019-11-29T13:15:31.000Z</time>
      </trkpt>
      <trkpt lat="43.31917" lon="5.68374">
        <ele>860</ele>
        <time>2019-11-29T13:15:32.000Z</time>
      </trkpt>
      <trkpt lat="43.31916" lon="5.68374">
        <ele>860</ele>
        <time>2019-11-29T13:15:33.000Z</time>
      </trkpt>
      <trkpt lat="43.31915" lon="5.68374">
        <ele>860</ele>
        <time>2019-11-29T13:15:34.000Z</time>
      </trkpt>
      <trkpt lat="43.31914" lon="5.68374">
        <ele>860</ele>
        <time>2019-11-29T13:15:35.000Z</time>
      </trkpt>
      <trkpt lat="43.31913" lon="5.68373">
        <ele>861</ele>
        <time>2019-11-29T13:15:36.000Z</time>
      </trkpt>
      <trkpt lat="43.31912" lon="5.68373">
        <ele>861</ele>
        <time>2019-11-29T13:15:37.000Z</time>
      </trkpt>
      <trkpt lat="43.31911" lon="5.68373">
        <ele>861</ele>
        <time>2019-11-29T13:15:38.000Z</time>
      </trkpt>
      <trkpt lat="43.3191" lon="5.68373">
        <ele>861</ele>
        <time>2019-11-29T13:15:39.000Z</time>
      </trkpt>
      <trkpt lat="43.3191" lon="5.68372">
        <ele>861</ele>
        <time>2019-11-29T13:15:40.000Z</time>
      </trkpt>
      <trkpt lat="43.31909" lon="5.68372">
        <ele>861</ele>
        <time>2019-11-29T13:15:41.000Z</time>
      </trkpt>
      <trkpt lat="43.31908" lon="5.68372">
        <ele>861</ele>
        <time>2019-11-29T13:15:42.000Z</time>
      </trkpt>
      <trkpt lat="43.31907" lon="5.68372">
        <ele>861</ele>
        <time>2019-11-29T13:15:43.000Z</time>
      </trkpt>
      <trkpt lat="43.31906" lon="5.68372">
        <ele>861</ele>
        <time>2019-11-29T13:15:44.000Z</time>
      </trkpt>
      <trkpt lat="43.31905" lon="5.68371">
        <ele>862</ele>
        <time>2019-11-29T13:15:45.000Z</time>
      </trkpt>
      <trkpt lat="43.31905" lon="5.68371">
        <ele>862</ele>
        <time>2019-11-29T13:15:46.000Z</time>
      </trkpt>
      <trkpt lat="43.31904" lon="5.68371">
        <ele>862</ele>
        <time>2019-11-29T13:15:47.000Z</time>
      </trkpt>
      <trkpt lat="43.31904" lon="5.68371">
        <ele>862</ele>
        <time>2019-11-29T13:15:48.000Z</time>
      </trkpt>
      <trkpt lat="43.31903" lon="5.68371">
        <ele>863</ele>
        <time>2019-11-29T13:15:49.000Z</time>
      </trkpt>
      <trkpt lat="43.31902" lon="5.6837">
        <ele>863</ele>
        <time>2019-11-29T13:15:50.000Z</time>
      </trkpt>
      <trkpt lat="43.31901" lon="5.6837">
        <ele>863</ele>
        <time>2019-11-29T13:15:51.000Z</time>
      </trkpt>
      <trkpt lat="43.319" lon="5.6837">
        <ele>863</ele>
        <time>2019-11-29T13:15:52.000Z</time>
      </trkpt>
      <trkpt lat="43.31899" lon="5.68369">
        <ele>863</ele>
        <time>2019-11-29T13:15:53.000Z</time>
      </trkpt>
      <trkpt lat="43.31899" lon="5.68369">
        <ele>864</ele>
        <time>2019-11-29T13:15:54.000Z</time>
      </trkpt>
      <trkpt lat="43.31898" lon="5.68368">
        <ele>864</ele>
        <time>2019-11-29T13:15:55.000Z</time>
      </trkpt>
      <trkpt lat="43.31897" lon="5.68368">
        <ele>864</ele>
        <time>2019-11-29T13:15:56.000Z</time>
      </trkpt>
      <trkpt lat="43.31896" lon="5.68368">
        <ele>864</ele>
        <time>2019-11-29T13:15:57.000Z</time>
      </trkpt>
      <trkpt lat="43.31895" lon="5.68368">
        <ele>864</ele>
        <time>2019-11-29T13:15:58.000Z</time>
      </trkpt>
      <trkpt lat="43.31894" lon="5.68367">
        <ele>864</ele>
        <time>2019-11-29T13:15:59.000Z</time>
      </trkpt>
      <trkpt lat="43.31893" lon="5.68367">
        <ele>864</ele>
        <time>2019-11-29T13:16:00.000Z</time>
      </trkpt>
      <trkpt lat="43.31892" lon="5.68367">
        <ele>864</ele>
        <time>2019-11-29T13:16:01.000Z</time>
      </trkpt>
      <trkpt lat="43.31891" lon="5.68367">
        <ele>864</ele>
        <time>2019-11-29T13:16:02.000Z</time>
      </trkpt>
      <trkpt lat="43.3189" lon="5.68366">
        <ele>864</ele>
        <time>2019-11-29T13:16:03.000Z</time>
      </trkpt>
      <trkpt lat="43.3189" lon="5.68366">
        <ele>864</ele>
        <time>2019-11-29T13:16:04.000Z</time>
      </trkpt>
      <trkpt lat="43.31889" lon="5.68365">
        <ele>864</ele>
        <time>2019-11-29T13:16:05.000Z</time>
      </trkpt>
      <trkpt lat="43.31888" lon="5.68364">
        <ele>864</ele>
        <time>2019-11-29T13:16:06.000Z</time>
      </trkpt>
      <trkpt lat="43.31887" lon="5.68364">
        <ele>865</ele>
        <time>2019-11-29T13:16:07.000Z</time>
      </trkpt>
      <trkpt lat="43.31886" lon="5.68363">
        <ele>865</ele>
        <time>2019-11-29T13:16:08.000Z</time>
      </trkpt>
      <trkpt lat="43.31885" lon="5.68362">
        <ele>865</ele>
        <time>2019-11-29T13:16:09.000Z</time>
      </trkpt>
      <trkpt lat="43.31884" lon="5.68362">
        <ele>865</ele>
        <time>2019-11-29T13:16:10.000Z</time>
      </trkpt>
      <trkpt lat="43.31883" lon="5.68361">
        <ele>865</ele>
        <time>2019-11-29T13:16:11.000Z</time>
      </trkpt>
      <trkpt lat="43.31882" lon="5.68361">
        <ele>865</ele>
        <time>2019-11-29T13:16:12.000Z</time>
      </trkpt>
      <trkpt lat="43.31881" lon="5.6836">
        <ele>865</ele>
        <time>2019-11-29T13:16:13.000Z</time>
      </trkpt>
      <trkpt lat="43.3188" lon="5.6836">
        <ele>865</ele>
        <time>2019-11-29T13:16:14.000Z</time>
      </trkpt>
      <trkpt lat="43.3188" lon="5.68359">
        <ele>865</ele>
        <time>2019-11-29T13:16:15.000Z</time>
      </trkpt>
      <trkpt lat="43.31879" lon="5.68358">
        <ele>865</ele>
        <time>2019-11-29T13:16:16.000Z</time>
      </trkpt>
      <trkpt lat="43.31878" lon="5.68357">
        <ele>865</ele>
        <time>2019-11-29T13:16:17.000Z</time>
      </trkpt>
      <trkpt lat="43.31878" lon="5.68357">
        <ele>865</ele>
        <time>2019-11-29T13:16:18.000Z</time>
      </trkpt>
      <trkpt lat="43.31877" lon="5.68356">
        <ele>866</ele>
        <time>2019-11-29T13:16:19.000Z</time>
      </trkpt>
      <trkpt lat="43.31877" lon="5.68356">
        <ele>866</ele>
        <time>2019-11-29T13:16:20.000Z</time>
      </trkpt>
      <trkpt lat="43.31877" lon="5.68356">
        <ele>866</ele>
        <time>2019-11-29T13:16:21.000Z</time>
      </trkpt>
      <trkpt lat="43.31877" lon="5.68356">
        <ele>866</ele>
        <time>2019-11-29T13:16:22.000Z</time>
      </trkpt>
      <trkpt lat="43.31877" lon="5.68356">
        <ele>866</ele>
        <time>2019-11-29T13:16:23.000Z</time>
      </trkpt>
      <trkpt lat="43.31877" lon="5.68356">
        <ele>866</ele>
        <time>2019-11-29T13:16:24.000Z</time>
      </trkpt>
      <trkpt lat="43.31876" lon="5.68355">
        <ele>866</ele>
        <time>2019-11-29T13:16:25.000Z</time>
      </trkpt>
      <trkpt lat="43.31876" lon="5.68355">
        <ele>866</ele>
        <time>2019-11-29T13:16:26.000Z</time>
      </trkpt>
      <trkpt lat="43.31876" lon="5.68354">
        <ele>866</ele>
        <time>2019-11-29T13:16:27.000Z</time>
      </trkpt>
      <trkpt lat="43.31876" lon="5.68354">
        <ele>866</ele>
        <time>2019-11-29T13:16:28.000Z</time>
      </trkpt>
      <trkpt lat="43.31876" lon="5.68353">
        <ele>866</ele>
        <time>2019-11-29T13:16:29.000Z</time>
      </trkpt>
      <trkpt lat="43.31876" lon="5.68353">
        <ele>866</ele>
        <time>2019-11-29T13:16:30.000Z</time>
      </trkpt>
      <trkpt lat="43.31876" lon="5.68353">
        <ele>866</ele>
        <time>2019-11-29T13:16:31.000Z</time>
      </trkpt>
      <trkpt lat="43.31876" lon="5.68353">
        <ele>866</ele>
        <time>2019-11-29T13:16:32.000Z</time>
      </trkpt>
      <trkpt lat="43.31876" lon="5.68353">
        <ele>866</ele>
        <time>2019-11-29T13:16:33.000Z</time>
      </trkpt>
      <trkpt lat="43.31876" lon="5.68352">
        <ele>866</ele>
        <time>2019-11-29T13:16:34.000Z</time>
      </trkpt>
      <trkpt lat="43.31876" lon="5.68352">
        <ele>866</ele>
        <time>2019-11-29T13:16:35.000Z</time>
      </trkpt>
      <trkpt lat="43.31876" lon="5.68352">
        <ele>867</ele>
        <time>2019-11-29T13:16:36.000Z</time>
      </trkpt>
      <trkpt lat="43.31876" lon="5.68352">
        <ele>867</ele>
        <time>2019-11-29T13:16:37.000Z</time>
      </trkpt>
      <trkpt lat="43.31876" lon="5.68351">
        <ele>867</ele>
        <time>2019-11-29T13:16:38.000Z</time>
      </trkpt>
      <trkpt lat="43.31876" lon="5.68352">
        <ele>867</ele>
        <time>2019-11-29T13:16:39.000Z</time>
      </trkpt>
      <trkpt lat="43.31876" lon="5.68351">
        <ele>866</ele>
        <time>2019-11-29T13:16:40.000Z</time>
      </trkpt>
      <trkpt lat="43.31876" lon="5.68352">
        <ele>866</ele>
        <time>2019-11-29T13:16:41.000Z</time>
      </trkpt>
      <trkpt lat="43.31876" lon="5.68351">
        <ele>867</ele>
        <time>2019-11-29T13:16:42.000Z</time>
      </trkpt>
      <trkpt lat="43.31876" lon="5.68351">
        <ele>867</ele>
        <time>2019-11-29T13:16:43.000Z</time>
      </trkpt>
      <trkpt lat="43.31876" lon="5.68351">
        <ele>867</ele>
        <time>2019-11-29T13:16:44.000Z</time>
      </trkpt>
      <trkpt lat="43.31876" lon="5.68351">
        <ele>867</ele>
        <time>2019-11-29T13:16:45.000Z</time>
      </trkpt>
      <trkpt lat="43.31876" lon="5.68351">
        <ele>867</ele>
        <time>2019-11-29T13:16:46.000Z</time>
      </trkpt>
      <trkpt lat="43.31876" lon="5.68351">
        <ele>867</ele>
        <time>2019-11-29T13:16:47.000Z</time>
      </trkpt>
      <trkpt lat="43.31876" lon="5.68351">
        <ele>867</ele>
        <time>2019-11-29T13:16:48.000Z</time>
      </trkpt>
      <trkpt lat="43.31876" lon="5.68351">
        <ele>867</ele>
        <time>2019-11-29T13:16:49.000Z</time>
      </trkpt>
      <trkpt lat="43.31876" lon="5.68351">
        <ele>867</ele>
        <time>2019-11-29T13:16:50.000Z</time>
      </trkpt>
      <trkpt lat="43.31876" lon="5.68351">
        <ele>867</ele>
        <time>2019-11-29T13:16:51.000Z</time>
      </trkpt>
      <trkpt lat="43.31876" lon="5.68351">
        <ele>867</ele>
        <time>2019-11-29T13:16:52.000Z</time>
      </trkpt>
      <trkpt lat="43.31876" lon="5.68351">
        <ele>867</ele>
        <time>2019-11-29T13:16:53.000Z</time>
      </trkpt>
      <trkpt lat="43.31876" lon="5.68351">
        <ele>867</ele>
        <time>2019-11-29T13:16:54.000Z</time>
      </trkpt>
      <trkpt lat="43.31876" lon="5.68351">
        <ele>867</ele>
        <time>2019-11-29T13:16:55.000Z</time>
      </trkpt>
      <trkpt lat="43.31876" lon="5.6835">
        <ele>867</ele>
        <time>2019-11-29T13:16:56.000Z</time>
      </trkpt>
      <trkpt lat="43.31876" lon="5.68349">
        <ele>867</ele>
        <time>2019-11-29T13:16:57.000Z</time>
      </trkpt>
      <trkpt lat="43.31877" lon="5.68349">
        <ele>867</ele>
        <time>2019-11-29T13:16:58.000Z</time>
      </trkpt>
      <trkpt lat="43.31877" lon="5.68348">
        <ele>867</ele>
        <time>2019-11-29T13:16:59.000Z</time>
      </trkpt>
      <trkpt lat="43.31878" lon="5.68347">
        <ele>867</ele>
        <time>2019-11-29T13:17:00.000Z</time>
      </trkpt>
      <trkpt lat="43.31878" lon="5.68346">
        <ele>867</ele>
        <time>2019-11-29T13:17:01.000Z</time>
      </trkpt>
      <trkpt lat="43.31879" lon="5.68346">
        <ele>867</ele>
        <time>2019-11-29T13:17:02.000Z</time>
      </trkpt>
      <trkpt lat="43.31879" lon="5.68345">
        <ele>867</ele>
        <time>2019-11-29T13:17:03.000Z</time>
      </trkpt>
      <trkpt lat="43.3188" lon="5.68345">
        <ele>867</ele>
        <time>2019-11-29T13:17:04.000Z</time>
      </trkpt>
      <trkpt lat="43.31881" lon="5.68344">
        <ele>867</ele>
        <time>2019-11-29T13:17:05.000Z</time>
      </trkpt>
      <trkpt lat="43.31881" lon="5.68343">
        <ele>867</ele>
        <time>2019-11-29T13:17:06.000Z</time>
      </trkpt>
      <trkpt lat="43.31882" lon="5.68342">
        <ele>867</ele>
        <time>2019-11-29T13:17:07.000Z</time>
      </trkpt>
      <trkpt lat="43.31883" lon="5.68341">
        <ele>867</ele>
        <time>2019-11-29T13:17:08.000Z</time>
      </trkpt>
      <trkpt lat="43.31883" lon="5.68341">
        <ele>866</ele>
        <time>2019-11-29T13:17:09.000Z</time>
      </trkpt>
      <trkpt lat="43.31884" lon="5.68339">
        <ele>866</ele>
        <time>2019-11-29T13:17:10.000Z</time>
      </trkpt>
      <trkpt lat="43.31885" lon="5.68338">
        <ele>866</ele>
        <time>2019-11-29T13:17:11.000Z</time>
      </trkpt>
      <trkpt lat="43.31885" lon="5.68337">
        <ele>866</ele>
        <time>2019-11-29T13:17:12.000Z</time>
      </trkpt>
      <trkpt lat="43.31886" lon="5.68336">
        <ele>866</ele>
        <time>2019-11-29T13:17:13.000Z</time>
      </trkpt>
      <trkpt lat="43.31887" lon="5.68335">
        <ele>866</ele>
        <time>2019-11-29T13:17:14.000Z</time>
      </trkpt>
      <trkpt lat="43.31888" lon="5.68334">
        <ele>866</ele>
        <time>2019-11-29T13:17:15.000Z</time>
      </trkpt>
      <trkpt lat="43.31888" lon="5.68334">
        <ele>866</ele>
        <time>2019-11-29T13:17:16.000Z</time>
      </trkpt>
      <trkpt lat="43.31889" lon="5.68332">
        <ele>866</ele>
        <time>2019-11-29T13:17:17.000Z</time>
      </trkpt>
      <trkpt lat="43.3189" lon="5.68331">
        <ele>866</ele>
        <time>2019-11-29T13:17:18.000Z</time>
      </trkpt>
      <trkpt lat="43.3189" lon="5.6833">
        <ele>866</ele>
        <time>2019-11-29T13:17:19.000Z</time>
      </trkpt>
      <trkpt lat="43.31891" lon="5.68329">
        <ele>866</ele>
        <time>2019-11-29T13:17:20.000Z</time>
      </trkpt>
      <trkpt lat="43.31891" lon="5.68328">
        <ele>866</ele>
        <time>2019-11-29T13:17:21.000Z</time>
      </trkpt>
      <trkpt lat="43.31891" lon="5.68327">
        <ele>866</ele>
        <time>2019-11-29T13:17:22.000Z</time>
      </trkpt>
      <trkpt lat="43.31891" lon="5.68326">
        <ele>866</ele>
        <time>2019-11-29T13:17:23.000Z</time>
      </trkpt>
      <trkpt lat="43.31892" lon="5.68325">
        <ele>866</ele>
        <time>2019-11-29T13:17:24.000Z</time>
      </trkpt>
      <trkpt lat="43.31892" lon="5.68324">
        <ele>866</ele>
        <time>2019-11-29T13:17:25.000Z</time>
      </trkpt>
      <trkpt lat="43.31893" lon="5.68323">
        <ele>866</ele>
        <time>2019-11-29T13:17:26.000Z</time>
      </trkpt>
      <trkpt lat="43.31893" lon="5.68321">
        <ele>866</ele>
        <time>2019-11-29T13:17:27.000Z</time>
      </trkpt>
      <trkpt lat="43.31893" lon="5.6832">
        <ele>866</ele>
        <time>2019-11-29T13:17:28.000Z</time>
      </trkpt>
      <trkpt lat="43.31894" lon="5.68319">
        <ele>866</ele>
        <time>2019-11-29T13:17:29.000Z</time>
      </trkpt>
      <trkpt lat="43.31894" lon="5.68318">
        <ele>866</ele>
        <time>2019-11-29T13:17:30.000Z</time>
      </trkpt>
      <trkpt lat="43.31895" lon="5.68317">
        <ele>866</ele>
        <time>2019-11-29T13:17:31.000Z</time>
      </trkpt>
      <trkpt lat="43.31895" lon="5.68317">
        <ele>866</ele>
        <time>2019-11-29T13:17:32.000Z</time>
      </trkpt>
      <trkpt lat="43.31896" lon="5.68316">
        <ele>866</ele>
        <time>2019-11-29T13:17:33.000Z</time>
      </trkpt>
      <trkpt lat="43.31896" lon="5.68315">
        <ele>866</ele>
        <time>2019-11-29T13:17:34.000Z</time>
      </trkpt>
      <trkpt lat="43.31896" lon="5.68315">
        <ele>866</ele>
        <time>2019-11-29T13:17:35.000Z</time>
      </trkpt>
      <trkpt lat="43.31897" lon="5.68314">
        <ele>866</ele>
        <time>2019-11-29T13:17:36.000Z</time>
      </trkpt>
      <trkpt lat="43.31897" lon="5.68313">
        <ele>866</ele>
        <time>2019-11-29T13:17:37.000Z</time>
      </trkpt>
      <trkpt lat="43.31897" lon="5.68312">
        <ele>866</ele>
        <time>2019-11-29T13:17:38.000Z</time>
      </trkpt>
      <trkpt lat="43.31898" lon="5.68311">
        <ele>866</ele>
        <time>2019-11-29T13:17:39.000Z</time>
      </trkpt>
      <trkpt lat="43.31898" lon="5.6831">
        <ele>866</ele>
        <time>2019-11-29T13:17:40.000Z</time>
      </trkpt>
      <trkpt lat="43.31899" lon="5.68309">
        <ele>866</ele>
        <time>2019-11-29T13:17:41.000Z</time>
      </trkpt>
      <trkpt lat="43.31899" lon="5.68308">
        <ele>866</ele>
        <time>2019-11-29T13:17:42.000Z</time>
      </trkpt>
      <trkpt lat="43.319" lon="5.68307">
        <ele>866</ele>
        <time>2019-11-29T13:17:43.000Z</time>
      </trkpt>
      <trkpt lat="43.319" lon="5.68306">
        <ele>866</ele>
        <time>2019-11-29T13:17:44.000Z</time>
      </trkpt>
      <trkpt lat="43.31901" lon="5.68305">
        <ele>866</ele>
        <time>2019-11-29T13:17:45.000Z</time>
      </trkpt>
      <trkpt lat="43.31901" lon="5.68303">
        <ele>866</ele>
        <time>2019-11-29T13:17:46.000Z</time>
      </trkpt>
      <trkpt lat="43.31902" lon="5.68302">
        <ele>865</ele>
        <time>2019-11-29T13:17:47.000Z</time>
      </trkpt>
      <trkpt lat="43.31902" lon="5.68301">
        <ele>865</ele>
        <time>2019-11-29T13:17:48.000Z</time>
      </trkpt>
      <trkpt lat="43.31902" lon="5.68299">
        <ele>865</ele>
        <time>2019-11-29T13:17:49.000Z</time>
      </trkpt>
      <trkpt lat="43.31902" lon="5.68298">
        <ele>865</ele>
        <time>2019-11-29T13:17:50.000Z</time>
      </trkpt>
      <trkpt lat="43.31902" lon="5.68297">
        <ele>865</ele>
        <time>2019-11-29T13:17:51.000Z</time>
      </trkpt>
      <trkpt lat="43.31902" lon="5.68295">
        <ele>865</ele>
        <time>2019-11-29T13:17:52.000Z</time>
      </trkpt>
      <trkpt lat="43.31902" lon="5.68294">
        <ele>865</ele>
        <time>2019-11-29T13:17:53.000Z</time>
      </trkpt>
      <trkpt lat="43.31903" lon="5.68293">
        <ele>865</ele>
        <time>2019-11-29T13:17:54.000Z</time>
      </trkpt>
      <trkpt lat="43.31903" lon="5.68292">
        <ele>865</ele>
        <time>2019-11-29T13:17:55.000Z</time>
      </trkpt>
      <trkpt lat="43.31904" lon="5.68291">
        <ele>865</ele>
        <time>2019-11-29T13:17:56.000Z</time>
      </trkpt>
      <trkpt lat="43.31904" lon="5.6829">
        <ele>865</ele>
        <time>2019-11-29T13:17:57.000Z</time>
      </trkpt>
      <trkpt lat="43.31904" lon="5.68289">
        <ele>865</ele>
        <time>2019-11-29T13:17:58.000Z</time>
      </trkpt>
      <trkpt lat="43.31904" lon="5.68288">
        <ele>865</ele>
        <time>2019-11-29T13:17:59.000Z</time>
      </trkpt>
      <trkpt lat="43.31903" lon="5.68287">
        <ele>865</ele>
        <time>2019-11-29T13:18:00.000Z</time>
      </trkpt>
      <trkpt lat="43.31903" lon="5.68285">
        <ele>865</ele>
        <time>2019-11-29T13:18:01.000Z</time>
      </trkpt>
      <trkpt lat="43.31903" lon="5.68284">
        <ele>865</ele>
        <time>2019-11-29T13:18:02.000Z</time>
      </trkpt>
      <trkpt lat="43.31902" lon="5.68283">
        <ele>866</ele>
        <time>2019-11-29T13:18:03.000Z</time>
      </trkpt>
      <trkpt lat="43.31902" lon="5.68281">
        <ele>866</ele>
        <time>2019-11-29T13:18:04.000Z</time>
      </trkpt>
      <trkpt lat="43.31903" lon="5.6828">
        <ele>866</ele>
        <time>2019-11-29T13:18:05.000Z</time>
      </trkpt>
      <trkpt lat="43.31903" lon="5.68279">
        <ele>866</ele>
        <time>2019-11-29T13:18:06.000Z</time>
      </trkpt>
      <trkpt lat="43.31903" lon="5.68278">
        <ele>865</ele>
        <time>2019-11-29T13:18:07.000Z</time>
      </trkpt>
      <trkpt lat="43.31903" lon="5.68276">
        <ele>866</ele>
        <time>2019-11-29T13:18:08.000Z</time>
      </trkpt>
      <trkpt lat="43.31903" lon="5.68275">
        <ele>866</ele>
        <time>2019-11-29T13:18:09.000Z</time>
      </trkpt>
      <trkpt lat="43.31903" lon="5.68274">
        <ele>866</ele>
        <time>2019-11-29T13:18:10.000Z</time>
      </trkpt>
      <trkpt lat="43.31903" lon="5.68273">
        <ele>866</ele>
        <time>2019-11-29T13:18:11.000Z</time>
      </trkpt>
      <trkpt lat="43.31903" lon="5.68272">
        <ele>866</ele>
        <time>2019-11-29T13:18:12.000Z</time>
      </trkpt>
      <trkpt lat="43.31904" lon="5.68271">
        <ele>866</ele>
        <time>2019-11-29T13:18:13.000Z</time>
      </trkpt>
      <trkpt lat="43.31904" lon="5.6827">
        <ele>865</ele>
        <time>2019-11-29T13:18:14.000Z</time>
      </trkpt>
      <trkpt lat="43.31904" lon="5.68269">
        <ele>865</ele>
        <time>2019-11-29T13:18:15.000Z</time>
      </trkpt>
      <trkpt lat="43.31904" lon="5.68268">
        <ele>865</ele>
        <time>2019-11-29T13:18:16.000Z</time>
      </trkpt>
      <trkpt lat="43.31905" lon="5.68267">
        <ele>865</ele>
        <time>2019-11-29T13:18:17.000Z</time>
      </trkpt>
      <trkpt lat="43.31905" lon="5.68265">
        <ele>865</ele>
        <time>2019-11-29T13:18:18.000Z</time>
      </trkpt>
      <trkpt lat="43.31905" lon="5.68265">
        <ele>865</ele>
        <time>2019-11-29T13:18:19.000Z</time>
      </trkpt>
      <trkpt lat="43.31905" lon="5.68264">
        <ele>865</ele>
        <time>2019-11-29T13:18:20.000Z</time>
      </trkpt>
      <trkpt lat="43.31905" lon="5.68263">
        <ele>865</ele>
        <time>2019-11-29T13:18:21.000Z</time>
      </trkpt>
      <trkpt lat="43.31905" lon="5.68262">
        <ele>866</ele>
        <time>2019-11-29T13:18:22.000Z</time>
      </trkpt>
      <trkpt lat="43.31905" lon="5.68261">
        <ele>866</ele>
        <time>2019-11-29T13:18:23.000Z</time>
      </trkpt>
      <trkpt lat="43.31905" lon="5.6826">
        <ele>866</ele>
        <time>2019-11-29T13:18:24.000Z</time>
      </trkpt>
      <trkpt lat="43.31905" lon="5.68259">
        <ele>866</ele>
        <time>2019-11-29T13:18:25.000Z</time>
      </trkpt>
      <trkpt lat="43.31906" lon="5.68258">
        <ele>866</ele>
        <time>2019-11-29T13:18:26.000Z</time>
      </trkpt>
      <trkpt lat="43.31905" lon="5.68257">
        <ele>866</ele>
        <time>2019-11-29T13:18:27.000Z</time>
      </trkpt>
      <trkpt lat="43.31905" lon="5.68256">
        <ele>866</ele>
        <time>2019-11-29T13:18:28.000Z</time>
      </trkpt>
      <trkpt lat="43.31905" lon="5.68255">
        <ele>866</ele>
        <time>2019-11-29T13:18:29.000Z</time>
      </trkpt>
      <trkpt lat="43.31905" lon="5.68254">
        <ele>866</ele>
        <time>2019-11-29T13:18:30.000Z</time>
      </trkpt>
      <trkpt lat="43.31905" lon="5.68253">
        <ele>866</ele>
        <time>2019-11-29T13:18:31.000Z</time>
      </trkpt>
      <trkpt lat="43.31906" lon="5.68253">
        <ele>866</ele>
        <time>2019-11-29T13:18:32.000Z</time>
      </trkpt>
      <trkpt lat="43.31906" lon="5.68252">
        <ele>866</ele>
        <time>2019-11-29T13:18:33.000Z</time>
      </trkpt>
      <trkpt lat="43.31906" lon="5.68251">
        <ele>866</ele>
        <time>2019-11-29T13:18:34.000Z</time>
      </trkpt>
      <trkpt lat="43.31907" lon="5.6825">
        <ele>866</ele>
        <time>2019-11-29T13:18:35.000Z</time>
      </trkpt>
      <trkpt lat="43.31907" lon="5.68249">
        <ele>866</ele>
        <time>2019-11-29T13:18:36.000Z</time>
      </trkpt>
      <trkpt lat="43.31908" lon="5.68247">
        <ele>866</ele>
        <time>2019-11-29T13:18:37.000Z</time>
      </trkpt>
      <trkpt lat="43.31908" lon="5.68246">
        <ele>866</ele>
        <time>2019-11-29T13:18:38.000Z</time>
      </trkpt>
      <trkpt lat="43.31908" lon="5.68245">
        <ele>866</ele>
        <time>2019-11-29T13:18:39.000Z</time>
      </trkpt>
      <trkpt lat="43.31908" lon="5.68244">
        <ele>866</ele>
        <time>2019-11-29T13:18:40.000Z</time>
      </trkpt>
      <trkpt lat="43.31908" lon="5.68243">
        <ele>866</ele>
        <time>2019-11-29T13:18:41.000Z</time>
      </trkpt>
      <trkpt lat="43.31908" lon="5.68242">
        <ele>866</ele>
        <time>2019-11-29T13:18:42.000Z</time>
      </trkpt>
      <trkpt lat="43.31907" lon="5.68241">
        <ele>866</ele>
        <time>2019-11-29T13:18:43.000Z</time>
      </trkpt>
      <trkpt lat="43.31907" lon="5.6824">
        <ele>866</ele>
        <time>2019-11-29T13:18:44.000Z</time>
      </trkpt>
      <trkpt lat="43.31907" lon="5.68239">
        <ele>866</ele>
        <time>2019-11-29T13:18:45.000Z</time>
      </trkpt>
      <trkpt lat="43.31906" lon="5.68238">
        <ele>866</ele>
        <time>2019-11-29T13:18:46.000Z</time>
      </trkpt>
      <trkpt lat="43.31906" lon="5.68237">
        <ele>866</ele>
        <time>2019-11-29T13:18:47.000Z</time>
      </trkpt>
      <trkpt lat="43.31906" lon="5.68236">
        <ele>866</ele>
        <time>2019-11-29T13:18:48.000Z</time>
      </trkpt>
      <trkpt lat="43.31907" lon="5.68236">
        <ele>866</ele>
        <time>2019-11-29T13:18:49.000Z</time>
      </trkpt>
      <trkpt lat="43.31907" lon="5.68235">
        <ele>866</ele>
        <time>2019-11-29T13:18:50.000Z</time>
      </trkpt>
      <trkpt lat="43.31907" lon="5.68235">
        <ele>866</ele>
        <time>2019-11-29T13:18:51.000Z</time>
      </trkpt>
      <trkpt lat="43.31907" lon="5.68234">
        <ele>866</ele>
        <time>2019-11-29T13:18:52.000Z</time>
      </trkpt>
      <trkpt lat="43.31907" lon="5.68233">
        <ele>866</ele>
        <time>2019-11-29T13:18:53.000Z</time>
      </trkpt>
      <trkpt lat="43.31906" lon="5.68232">
        <ele>866</ele>
        <time>2019-11-29T13:18:54.000Z</time>
      </trkpt>
      <trkpt lat="43.31906" lon="5.6823">
        <ele>866</ele>
        <time>2019-11-29T13:18:55.000Z</time>
      </trkpt>
      <trkpt lat="43.31906" lon="5.68229">
        <ele>866</ele>
        <time>2019-11-29T13:18:56.000Z</time>
      </trkpt>
      <trkpt lat="43.31906" lon="5.68228">
        <ele>866</ele>
        <time>2019-11-29T13:18:57.000Z</time>
      </trkpt>
      <trkpt lat="43.31906" lon="5.68227">
        <ele>866</ele>
        <time>2019-11-29T13:18:58.000Z</time>
      </trkpt>
      <trkpt lat="43.31906" lon="5.68226">
        <ele>866</ele>
        <time>2019-11-29T13:18:59.000Z</time>
      </trkpt>
      <trkpt lat="43.31906" lon="5.68225">
        <ele>866</ele>
        <time>2019-11-29T13:19:00.000Z</time>
      </trkpt>
      <trkpt lat="43.31905" lon="5.68224">
        <ele>866</ele>
        <time>2019-11-29T13:19:01.000Z</time>
      </trkpt>
      <trkpt lat="43.31905" lon="5.68222">
        <ele>866</ele>
        <time>2019-11-29T13:19:02.000Z</time>
      </trkpt>
      <trkpt lat="43.31905" lon="5.68221">
        <ele>866</ele>
        <time>2019-11-29T13:19:03.000Z</time>
      </trkpt>
      <trkpt lat="43.31905" lon="5.6822">
        <ele>866</ele>
        <time>2019-11-29T13:19:04.000Z</time>
      </trkpt>
      <trkpt lat="43.31904" lon="5.68218">
        <ele>866</ele>
        <time>2019-11-29T13:19:05.000Z</time>
      </trkpt>
      <trkpt lat="43.31904" lon="5.68217">
        <ele>866</ele>
        <time>2019-11-29T13:19:06.000Z</time>
      </trkpt>
      <trkpt lat="43.31904" lon="5.68216">
        <ele>865</ele>
        <time>2019-11-29T13:19:07.000Z</time>
      </trkpt>
      <trkpt lat="43.31904" lon="5.68215">
        <ele>865</ele>
        <time>2019-11-29T13:19:08.000Z</time>
      </trkpt>
      <trkpt lat="43.31904" lon="5.68214">
        <ele>865</ele>
        <time>2019-11-29T13:19:09.000Z</time>
      </trkpt>
      <trkpt lat="43.31905" lon="5.68213">
        <ele>865</ele>
        <time>2019-11-29T13:19:10.000Z</time>
      </trkpt>
      <trkpt lat="43.31906" lon="5.68213">
        <ele>865</ele>
        <time>2019-11-29T13:19:11.000Z</time>
      </trkpt>
      <trkpt lat="43.31906" lon="5.68212">
        <ele>865</ele>
        <time>2019-11-29T13:19:12.000Z</time>
      </trkpt>
      <trkpt lat="43.31907" lon="5.68212">
        <ele>865</ele>
        <time>2019-11-29T13:19:13.000Z</time>
      </trkpt>
      <trkpt lat="43.31907" lon="5.68211">
        <ele>865</ele>
        <time>2019-11-29T13:19:14.000Z</time>
      </trkpt>
      <trkpt lat="43.31908" lon="5.68211">
        <ele>865</ele>
        <time>2019-11-29T13:19:15.000Z</time>
      </trkpt>
      <trkpt lat="43.31909" lon="5.68211">
        <ele>865</ele>
        <time>2019-11-29T13:19:16.000Z</time>
      </trkpt>
      <trkpt lat="43.3191" lon="5.68212">
        <ele>865</ele>
        <time>2019-11-29T13:19:17.000Z</time>
      </trkpt>
      <trkpt lat="43.3191" lon="5.68213">
        <ele>865</ele>
        <time>2019-11-29T13:19:18.000Z</time>
      </trkpt>
      <trkpt lat="43.31911" lon="5.68213">
        <ele>865</ele>
        <time>2019-11-29T13:19:19.000Z</time>
      </trkpt>
      <trkpt lat="43.31911" lon="5.68214">
        <ele>865</ele>
        <time>2019-11-29T13:19:20.000Z</time>
      </trkpt>
      <trkpt lat="43.31912" lon="5.68214">
        <ele>865</ele>
        <time>2019-11-29T13:19:21.000Z</time>
      </trkpt>
      <trkpt lat="43.31912" lon="5.68215">
        <ele>865</ele>
        <time>2019-11-29T13:19:22.000Z</time>
      </trkpt>
      <trkpt lat="43.31913" lon="5.68215">
        <ele>865</ele>
        <time>2019-11-29T13:19:23.000Z</time>
      </trkpt>
      <trkpt lat="43.31914" lon="5.68215">
        <ele>865</ele>
        <time>2019-11-29T13:19:24.000Z</time>
      </trkpt>
      <trkpt lat="43.31915" lon="5.68215">
        <ele>865</ele>
        <time>2019-11-29T13:19:25.000Z</time>
      </trkpt>
      <trkpt lat="43.31916" lon="5.68215">
        <ele>865</ele>
        <time>2019-11-29T13:19:26.000Z</time>
      </trkpt>
      <trkpt lat="43.31917" lon="5.68215">
        <ele>865</ele>
        <time>2019-11-29T13:19:27.000Z</time>
      </trkpt>
      <trkpt lat="43.31917" lon="5.68215">
        <ele>865</ele>
        <time>2019-11-29T13:19:28.000Z</time>
      </trkpt>
      <trkpt lat="43.31918" lon="5.68215">
        <ele>865</ele>
        <time>2019-11-29T13:19:29.000Z</time>
      </trkpt>
      <trkpt lat="43.31918" lon="5.68216">
        <ele>865</ele>
        <time>2019-11-29T13:19:30.000Z</time>
      </trkpt>
      <trkpt lat="43.31918" lon="5.68216">
        <ele>865</ele>
        <time>2019-11-29T13:19:31.000Z</time>
      </trkpt>
      <trkpt lat="43.31918" lon="5.68216">
        <ele>865</ele>
        <time>2019-11-29T13:19:32.000Z</time>
      </trkpt>
      <trkpt lat="43.31918" lon="5.68217">
        <ele>865</ele>
        <time>2019-11-29T13:19:33.000Z</time>
      </trkpt>
      <trkpt lat="43.31918" lon="5.68218">
        <ele>864</ele>
        <time>2019-11-29T13:19:34.000Z</time>
      </trkpt>
      <trkpt lat="43.31919" lon="5.68219">
        <ele>865</ele>
        <time>2019-11-29T13:19:35.000Z</time>
      </trkpt>
      <trkpt lat="43.31919" lon="5.68219">
        <ele>865</ele>
        <time>2019-11-29T13:19:36.000Z</time>
      </trkpt>
      <trkpt lat="43.31919" lon="5.68219">
        <ele>865</ele>
        <time>2019-11-29T13:19:37.000Z</time>
      </trkpt>
      <trkpt lat="43.31919" lon="5.68219">
        <ele>865</ele>
        <time>2019-11-29T13:19:38.000Z</time>
      </trkpt>
      <trkpt lat="43.31919" lon="5.68219">
        <ele>865</ele>
        <time>2019-11-29T13:19:39.000Z</time>
      </trkpt>
      <trkpt lat="43.31919" lon="5.68219">
        <ele>864</ele>
        <time>2019-11-29T13:19:40.000Z</time>
      </trkpt>
      <trkpt lat="43.31919" lon="5.68219">
        <ele>864</ele>
        <time>2019-11-29T13:19:41.000Z</time>
      </trkpt>
      <trkpt lat="43.31919" lon="5.68219">
        <ele>864</ele>
        <time>2019-11-29T13:19:42.000Z</time>
      </trkpt>
      <trkpt lat="43.31919" lon="5.68219">
        <ele>864</ele>
        <time>2019-11-29T13:19:43.000Z</time>
      </trkpt>
      <trkpt lat="43.31919" lon="5.68219">
        <ele>864</ele>
        <time>2019-11-29T13:19:44.000Z</time>
      </trkpt>
      <trkpt lat="43.31919" lon="5.68219">
        <ele>864</ele>
        <time>2019-11-29T13:19:45.000Z</time>
      </trkpt>
      <trkpt lat="43.31919" lon="5.68219">
        <ele>864</ele>
        <time>2019-11-29T13:19:46.000Z</time>
      </trkpt>
      <trkpt lat="43.31919" lon="5.68219">
        <ele>864</ele>
        <time>2019-11-29T13:19:47.000Z</time>
      </trkpt>
      <trkpt lat="43.31919" lon="5.68219">
        <ele>864</ele>
        <time>2019-11-29T13:19:48.000Z</time>
      </trkpt>
      <trkpt lat="43.31919" lon="5.68218">
        <ele>864</ele>
        <time>2019-11-29T13:19:49.000Z</time>
      </trkpt>
      <trkpt lat="43.31919" lon="5.68219">
        <ele>864</ele>
        <time>2019-11-29T13:19:50.000Z</time>
      </trkpt>
      <trkpt lat="43.31919" lon="5.68218">
        <ele>864</ele>
        <time>2019-11-29T13:19:51.000Z</time>
      </trkpt>
      <trkpt lat="43.31919" lon="5.68218">
        <ele>864</ele>
        <time>2019-11-29T13:19:52.000Z</time>
      </trkpt>
      <trkpt lat="43.31919" lon="5.68218">
        <ele>864</ele>
        <time>2019-11-29T13:19:53.000Z</time>
      </trkpt>
      <trkpt lat="43.31919" lon="5.68218">
        <ele>864</ele>
        <time>2019-11-29T13:19:54.000Z</time>
      </trkpt>
      <trkpt lat="43.31919" lon="5.68218">
        <ele>864</ele>
        <time>2019-11-29T13:19:55.000Z</time>
      </trkpt>
      <trkpt lat="43.31919" lon="5.68218">
        <ele>864</ele>
        <time>2019-11-29T13:19:56.000Z</time>
      </trkpt>
      <trkpt lat="43.31919" lon="5.68218">
        <ele>864</ele>
        <time>2019-11-29T13:19:57.000Z</time>
      </trkpt>
      <trkpt lat="43.31919" lon="5.68218">
        <ele>864</ele>
        <time>2019-11-29T13:19:58.000Z</time>
      </trkpt>
      <trkpt lat="43.31919" lon="5.68218">
        <ele>864</ele>
        <time>2019-11-29T13:19:59.000Z</time>
      </trkpt>
      <trkpt lat="43.31919" lon="5.68218">
        <ele>864</ele>
        <time>2019-11-29T13:20:00.000Z</time>
      </trkpt>
      <trkpt lat="43.31919" lon="5.68219">
        <ele>864</ele>
        <time>2019-11-29T13:20:01.000Z</time>
      </trkpt>
      <trkpt lat="43.31919" lon="5.68219">
        <ele>864</ele>
        <time>2019-11-29T13:20:02.000Z</time>
      </trkpt>
      <trkpt lat="43.31919" lon="5.6822">
        <ele>864</ele>
        <time>2019-11-29T13:20:03.000Z</time>
      </trkpt>
      <trkpt lat="43.3192" lon="5.68221">
        <ele>864</ele>
        <time>2019-11-29T13:20:04.000Z</time>
      </trkpt>
      <trkpt lat="43.3192" lon="5.68222">
        <ele>864</ele>
        <time>2019-11-29T13:20:05.000Z</time>
      </trkpt>
      <trkpt lat="43.31921" lon="5.68222">
        <ele>864</ele>
        <time>2019-11-29T13:20:06.000Z</time>
      </trkpt>
      <trkpt lat="43.31922" lon="5.68222">
        <ele>864</ele>
        <time>2019-11-29T13:20:07.000Z</time>
      </trkpt>
      <trkpt lat="43.31922" lon="5.68221">
        <ele>864</ele>
        <time>2019-11-29T13:20:08.000Z</time>
      </trkpt>
      <trkpt lat="43.31923" lon="5.68221">
        <ele>864</ele>
        <time>2019-11-29T13:20:09.000Z</time>
      </trkpt>
      <trkpt lat="43.31924" lon="5.68221">
        <ele>864</ele>
        <time>2019-11-29T13:20:10.000Z</time>
      </trkpt>
      <trkpt lat="43.31925" lon="5.6822">
        <ele>864</ele>
        <time>2019-11-29T13:20:11.000Z</time>
      </trkpt>
      <trkpt lat="43.31925" lon="5.6822">
        <ele>864</ele>
        <time>2019-11-29T13:20:12.000Z</time>
      </trkpt>
      <trkpt lat="43.31925" lon="5.6822">
        <ele>864</ele>
        <time>2019-11-29T13:20:13.000Z</time>
      </trkpt>
      <trkpt lat="43.31925" lon="5.68219">
        <ele>864</ele>
        <time>2019-11-29T13:20:14.000Z</time>
      </trkpt>
      <trkpt lat="43.31926" lon="5.68219">
        <ele>864</ele>
        <time>2019-11-29T13:20:15.000Z</time>
      </trkpt>
      <trkpt lat="43.31926" lon="5.68219">
        <ele>864</ele>
        <time>2019-11-29T13:20:16.000Z</time>
      </trkpt>
      <trkpt lat="43.31927" lon="5.68219">
        <ele>864</ele>
        <time>2019-11-29T13:20:17.000Z</time>
      </trkpt>
      <trkpt lat="43.31927" lon="5.68218">
        <ele>865</ele>
        <time>2019-11-29T13:20:18.000Z</time>
      </trkpt>
      <trkpt lat="43.31927" lon="5.68217">
        <ele>865</ele>
        <time>2019-11-29T13:20:19.000Z</time>
      </trkpt>
      <trkpt lat="43.31927" lon="5.68217">
        <ele>865</ele>
        <time>2019-11-29T13:20:20.000Z</time>
      </trkpt>
      <trkpt lat="43.31927" lon="5.68216">
        <ele>865</ele>
        <time>2019-11-29T13:20:21.000Z</time>
      </trkpt>
      <trkpt lat="43.31927" lon="5.68216">
        <ele>865</ele>
        <time>2019-11-29T13:20:22.000Z</time>
      </trkpt>
      <trkpt lat="43.31927" lon="5.68216">
        <ele>865</ele>
        <time>2019-11-29T13:20:23.000Z</time>
      </trkpt>
      <trkpt lat="43.31927" lon="5.68216">
        <ele>865</ele>
        <time>2019-11-29T13:20:24.000Z</time>
      </trkpt>
      <trkpt lat="43.31927" lon="5.68215">
        <ele>865</ele>
        <time>2019-11-29T13:20:25.000Z</time>
      </trkpt>
      <trkpt lat="43.31927" lon="5.68215">
        <ele>865</ele>
        <time>2019-11-29T13:20:26.000Z</time>
      </trkpt>
      <trkpt lat="43.31927" lon="5.68215">
        <ele>865</ele>
        <time>2019-11-29T13:20:27.000Z</time>
      </trkpt>
      <trkpt lat="43.31927" lon="5.68215">
        <ele>865</ele>
        <time>2019-11-29T13:20:28.000Z</time>
      </trkpt>
      <trkpt lat="43.31927" lon="5.68215">
        <ele>865</ele>
        <time>2019-11-29T13:20:29.000Z</time>
      </trkpt>
      <trkpt lat="43.31927" lon="5.68215">
        <ele>865</ele>
        <time>2019-11-29T13:20:30.000Z</time>
      </trkpt>
      <trkpt lat="43.31927" lon="5.68215">
        <ele>865</ele>
        <time>2019-11-29T13:20:31.000Z</time>
      </trkpt>
      <trkpt lat="43.31927" lon="5.68215">
        <ele>865</ele>
        <time>2019-11-29T13:20:32.000Z</time>
      </trkpt>
      <trkpt lat="43.31927" lon="5.68215">
        <ele>865</ele>
        <time>2019-11-29T13:20:33.000Z</time>
      </trkpt>
      <trkpt lat="43.31927" lon="5.68215">
        <ele>865</ele>
        <time>2019-11-29T13:20:34.000Z</time>
      </trkpt>
      <trkpt lat="43.31927" lon="5.68215">
        <ele>865</ele>
        <time>2019-11-29T13:20:35.000Z</time>
      </trkpt>
      <trkpt lat="43.31927" lon="5.68215">
        <ele>865</ele>
        <time>2019-11-29T13:20:36.000Z</time>
      </trkpt>
      <trkpt lat="43.31927" lon="5.68215">
        <ele>865</ele>
        <time>2019-11-29T13:20:37.000Z</time>
      </trkpt>
      <trkpt lat="43.31927" lon="5.68215">
        <ele>865</ele>
        <time>2019-11-29T13:20:38.000Z</time>
      </trkpt>
      <trkpt lat="43.31927" lon="5.68215">
        <ele>865</ele>
        <time>2019-11-29T13:20:39.000Z</time>
      </trkpt>
      <trkpt lat="43.31927" lon="5.68215">
        <ele>865</ele>
        <time>2019-11-29T13:20:40.000Z</time>
      </trkpt>
      <trkpt lat="43.31927" lon="5.68215">
        <ele>865</ele>
        <time>2019-11-29T13:20:41.000Z</time>
      </trkpt>
      <trkpt lat="43.31927" lon="5.68215">
        <ele>865</ele>
        <time>2019-11-29T13:20:42.000Z</time>
      </trkpt>
      <trkpt lat="43.31927" lon="5.68215">
        <ele>865</ele>
        <time>2019-11-29T13:20:43.000Z</time>
      </trkpt>
      <trkpt lat="43.31927" lon="5.68215">
        <ele>865</ele>
        <time>2019-11-29T13:20:44.000Z</time>
      </trkpt>
      <trkpt lat="43.31927" lon="5.68215">
        <ele>865</ele>
        <time>2019-11-29T13:20:45.000Z</time>
      </trkpt>
      <trkpt lat="43.31927" lon="5.68215">
        <ele>865</ele>
        <time>2019-11-29T13:20:46.000Z</time>
      </trkpt>
      <trkpt lat="43.31927" lon="5.68215">
        <ele>865</ele>
        <time>2019-11-29T13:20:47.000Z</time>
      </trkpt>
      <trkpt lat="43.31927" lon="5.68215">
        <ele>865</ele>
        <time>2019-11-29T13:20:48.000Z</time>
      </trkpt>
      <trkpt lat="43.31927" lon="5.68215">
        <ele>865</ele>
        <time>2019-11-29T13:20:49.000Z</time>
      </trkpt>
      <trkpt lat="43.31927" lon="5.68215">
        <ele>865</ele>
        <time>2019-11-29T13:20:50.000Z</time>
      </trkpt>
      <trkpt lat="43.31927" lon="5.68215">
        <ele>865</ele>
        <time>2019-11-29T13:20:51.000Z</time>
      </trkpt>
      <trkpt lat="43.31927" lon="5.68215">
        <ele>865</ele>
        <time>2019-11-29T13:20:52.000Z</time>
      </trkpt>
      <trkpt lat="43.31927" lon="5.68215">
        <ele>865</ele>
        <time>2019-11-29T13:20:53.000Z</time>
      </trkpt>
      <trkpt lat="43.31927" lon="5.68215">
        <ele>865</ele>
        <time>2019-11-29T13:20:54.000Z</time>
      </trkpt>
      <trkpt lat="43.31927" lon="5.68215">
        <ele>865</ele>
        <time>2019-11-29T13:20:55.000Z</time>
      </trkpt>
      <trkpt lat="43.31927" lon="5.68215">
        <ele>865</ele>
        <time>2019-11-29T13:20:56.000Z</time>
      </trkpt>
      <trkpt lat="43.31927" lon="5.68215">
        <ele>865</ele>
        <time>2019-11-29T13:20:57.000Z</time>
      </trkpt>
      <trkpt lat="43.31927" lon="5.68215">
        <ele>865</ele>
        <time>2019-11-29T13:20:58.000Z</time>
      </trkpt>
      <trkpt lat="43.31927" lon="5.68215">
        <ele>865</ele>
        <time>2019-11-29T13:20:59.000Z</time>
      </trkpt>
      <trkpt lat="43.31927" lon="5.68215">
        <ele>865</ele>
        <time>2019-11-29T13:21:00.000Z</time>
      </trkpt>
      <trkpt lat="43.31927" lon="5.68215">
        <ele>865</ele>
        <time>2019-11-29T13:21:01.000Z</time>
      </trkpt>
      <trkpt lat="43.31927" lon="5.68215">
        <ele>865</ele>
        <time>2019-11-29T13:21:02.000Z</time>
      </trkpt>
      <trkpt lat="43.31927" lon="5.68215">
        <ele>865</ele>
        <time>2019-11-29T13:21:03.000Z</time>
      </trkpt>
      <trkpt lat="43.31927" lon="5.68215">
        <ele>865</ele>
        <time>2019-11-29T13:21:04.000Z</time>
      </trkpt>
      <trkpt lat="43.31927" lon="5.68215">
        <ele>865</ele>
        <time>2019-11-29T13:21:05.000Z</time>
      </trkpt>
      <trkpt lat="43.31927" lon="5.68216">
        <ele>865</ele>
        <time>2019-11-29T13:21:06.000Z</time>
      </trkpt>
      <trkpt lat="43.31927" lon="5.68216">
        <ele>865</ele>
        <time>2019-11-29T13:21:07.000Z</time>
      </trkpt>
      <trkpt lat="43.31927" lon="5.68216">
        <ele>865</ele>
        <time>2019-11-29T13:21:08.000Z</time>
      </trkpt>
      <trkpt lat="43.31927" lon="5.68216">
        <ele>865</ele>
        <time>2019-11-29T13:21:09.000Z</time>
      </trkpt>
      <trkpt lat="43.31927" lon="5.68216">
        <ele>865</ele>
        <time>2019-11-29T13:21:10.000Z</time>
      </trkpt>
      <trkpt lat="43.31927" lon="5.68215">
        <ele>865</ele>
        <time>2019-11-29T13:21:11.000Z</time>
      </trkpt>
      <trkpt lat="43.31927" lon="5.68215">
        <ele>865</ele>
        <time>2019-11-29T13:21:12.000Z</time>
      </trkpt>
      <trkpt lat="43.31927" lon="5.68215">
        <ele>865</ele>
        <time>2019-11-29T13:21:13.000Z</time>
      </trkpt>
      <trkpt lat="43.31927" lon="5.68216">
        <ele>865</ele>
        <time>2019-11-29T13:21:14.000Z</time>
      </trkpt>
      <trkpt lat="43.31927" lon="5.68216">
        <ele>865</ele>
        <time>2019-11-29T13:21:15.000Z</time>
      </trkpt>
      <trkpt lat="43.31927" lon="5.68216">
        <ele>865</ele>
        <time>2019-11-29T13:21:16.000Z</time>
      </trkpt>
      <trkpt lat="43.31927" lon="5.68215">
        <ele>865</ele>
        <time>2019-11-29T13:21:17.000Z</time>
      </trkpt>
      <trkpt lat="43.31927" lon="5.68216">
        <ele>865</ele>
        <time>2019-11-29T13:21:18.000Z</time>
      </trkpt>
      <trkpt lat="43.31927" lon="5.68216">
        <ele>865</ele>
        <time>2019-11-29T13:21:19.000Z</time>
      </trkpt>
      <trkpt lat="43.31928" lon="5.68216">
        <ele>865</ele>
        <time>2019-11-29T13:21:20.000Z</time>
      </trkpt>
      <trkpt lat="43.31928" lon="5.68216">
        <ele>865</ele>
        <time>2019-11-29T13:21:21.000Z</time>
      </trkpt>
      <trkpt lat="43.31928" lon="5.68217">
        <ele>865</ele>
        <time>2019-11-29T13:21:22.000Z</time>
      </trkpt>
      <trkpt lat="43.31928" lon="5.68218">
        <ele>865</ele>
        <time>2019-11-29T13:21:23.000Z</time>
      </trkpt>
      <trkpt lat="43.31928" lon="5.68219">
        <ele>865</ele>
        <time>2019-11-29T13:21:24.000Z</time>
      </trkpt>
      <trkpt lat="43.31928" lon="5.68219">
        <ele>865</ele>
        <time>2019-11-29T13:21:25.000Z</time>
      </trkpt>
      <trkpt lat="43.31928" lon="5.68219">
        <ele>865</ele>
        <time>2019-11-29T13:21:26.000Z</time>
      </trkpt>
      <trkpt lat="43.31928" lon="5.68219">
        <ele>865</ele>
        <time>2019-11-29T13:21:27.000Z</time>
      </trkpt>
      <trkpt lat="43.31928" lon="5.68219">
        <ele>866</ele>
        <time>2019-11-29T13:21:28.000Z</time>
      </trkpt>
      <trkpt lat="43.31927" lon="5.6822">
        <ele>866</ele>
        <time>2019-11-29T13:21:29.000Z</time>
      </trkpt>
      <trkpt lat="43.31928" lon="5.6822">
        <ele>866</ele>
        <time>2019-11-29T13:21:30.000Z</time>
      </trkpt>
      <trkpt lat="43.31928" lon="5.6822">
        <ele>866</ele>
        <time>2019-11-29T13:21:31.000Z</time>
      </trkpt>
      <trkpt lat="43.31928" lon="5.6822">
        <ele>866</ele>
        <time>2019-11-29T13:21:32.000Z</time>
      </trkpt>
      <trkpt lat="43.31927" lon="5.6822">
        <ele>866</ele>
        <time>2019-11-29T13:21:33.000Z</time>
      </trkpt>
      <trkpt lat="43.31927" lon="5.6822">
        <ele>866</ele>
        <time>2019-11-29T13:21:34.000Z</time>
      </trkpt>
      <trkpt lat="43.31927" lon="5.6822">
        <ele>866</ele>
        <time>2019-11-29T13:21:35.000Z</time>
      </trkpt>
      <trkpt lat="43.31927" lon="5.6822">
        <ele>866</ele>
        <time>2019-11-29T13:21:36.000Z</time>
      </trkpt>
      <trkpt lat="43.31927" lon="5.6822">
        <ele>866</ele>
        <time>2019-11-29T13:21:37.000Z</time>
      </trkpt>
      <trkpt lat="43.31927" lon="5.6822">
        <ele>866</ele>
        <time>2019-11-29T13:21:38.000Z</time>
      </trkpt>
      <trkpt lat="43.31927" lon="5.68221">
        <ele>866</ele>
        <time>2019-11-29T13:21:39.000Z</time>
      </trkpt>
      <trkpt lat="43.31926" lon="5.68221">
        <ele>866</ele>
        <time>2019-11-29T13:21:40.000Z</time>
      </trkpt>
      <trkpt lat="43.31925" lon="5.68222">
        <ele>865</ele>
        <time>2019-11-29T13:21:41.000Z</time>
      </trkpt>
      <trkpt lat="43.31924" lon="5.68222">
        <ele>865</ele>
        <time>2019-11-29T13:21:42.000Z</time>
      </trkpt>
      <trkpt lat="43.31923" lon="5.68223">
        <ele>865</ele>
        <time>2019-11-29T13:21:43.000Z</time>
      </trkpt>
      <trkpt lat="43.31922" lon="5.68223">
        <ele>865</ele>
        <time>2019-11-29T13:21:44.000Z</time>
      </trkpt>
      <trkpt lat="43.31921" lon="5.68223">
        <ele>865</ele>
        <time>2019-11-29T13:21:45.000Z</time>
      </trkpt>
      <trkpt lat="43.3192" lon="5.68223">
        <ele>865</ele>
        <time>2019-11-29T13:21:46.000Z</time>
      </trkpt>
      <trkpt lat="43.31919" lon="5.68222">
        <ele>865</ele>
        <time>2019-11-29T13:21:47.000Z</time>
      </trkpt>
      <trkpt lat="43.31918" lon="5.68222">
        <ele>865</ele>
        <time>2019-11-29T13:21:48.000Z</time>
      </trkpt>
      <trkpt lat="43.31918" lon="5.68221">
        <ele>865</ele>
        <time>2019-11-29T13:21:49.000Z</time>
      </trkpt>
      <trkpt lat="43.31918" lon="5.68219">
        <ele>865</ele>
        <time>2019-11-29T13:21:50.000Z</time>
      </trkpt>
      <trkpt lat="43.31918" lon="5.68218">
        <ele>865</ele>
        <time>2019-11-29T13:21:51.000Z</time>
      </trkpt>
      <trkpt lat="43.31918" lon="5.68217">
        <ele>865</ele>
        <time>2019-11-29T13:21:52.000Z</time>
      </trkpt>
      <trkpt lat="43.31918" lon="5.68217">
        <ele>865</ele>
        <time>2019-11-29T13:21:53.000Z</time>
      </trkpt>
      <trkpt lat="43.31918" lon="5.68217">
        <ele>865</ele>
        <time>2019-11-29T13:21:54.000Z</time>
      </trkpt>
      <trkpt lat="43.31918" lon="5.68217">
        <ele>865</ele>
        <time>2019-11-29T13:21:55.000Z</time>
      </trkpt>
      <trkpt lat="43.31918" lon="5.68216">
        <ele>865</ele>
        <time>2019-11-29T13:21:56.000Z</time>
      </trkpt>
      <trkpt lat="43.31918" lon="5.68216">
        <ele>865</ele>
        <time>2019-11-29T13:21:57.000Z</time>
      </trkpt>
      <trkpt lat="43.31918" lon="5.68216">
        <ele>865</ele>
        <time>2019-11-29T13:21:58.000Z</time>
      </trkpt>
      <trkpt lat="43.31918" lon="5.68216">
        <ele>865</ele>
        <time>2019-11-29T13:21:59.000Z</time>
      </trkpt>
      <trkpt lat="43.31918" lon="5.68216">
        <ele>865</ele>
        <time>2019-11-29T13:22:00.000Z</time>
      </trkpt>
      <trkpt lat="43.31918" lon="5.68216">
        <ele>865</ele>
        <time>2019-11-29T13:22:01.000Z</time>
      </trkpt>
      <trkpt lat="43.31918" lon="5.68216">
        <ele>865</ele>
        <time>2019-11-29T13:22:02.000Z</time>
      </trkpt>
      <trkpt lat="43.31918" lon="5.68216">
        <ele>865</ele>
        <time>2019-11-29T13:22:03.000Z</time>
      </trkpt>
      <trkpt lat="43.31918" lon="5.68215">
        <ele>865</ele>
        <time>2019-11-29T13:22:04.000Z</time>
      </trkpt>
      <trkpt lat="43.31918" lon="5.68214">
        <ele>865</ele>
        <time>2019-11-29T13:22:05.000Z</time>
      </trkpt>
      <trkpt lat="43.31918" lon="5.68213">
        <ele>865</ele>
        <time>2019-11-29T13:22:06.000Z</time>
      </trkpt>
      <trkpt lat="43.31918" lon="5.68212">
        <ele>865</ele>
        <time>2019-11-29T13:22:07.000Z</time>
      </trkpt>
      <trkpt lat="43.31918" lon="5.68211">
        <ele>864</ele>
        <time>2019-11-29T13:22:08.000Z</time>
      </trkpt>
      <trkpt lat="43.31919" lon="5.6821">
        <ele>864</ele>
        <time>2019-11-29T13:22:09.000Z</time>
      </trkpt>
      <trkpt lat="43.31919" lon="5.6821">
        <ele>864</ele>
        <time>2019-11-29T13:22:10.000Z</time>
      </trkpt>
      <trkpt lat="43.3192" lon="5.6821">
        <ele>864</ele>
        <time>2019-11-29T13:22:11.000Z</time>
      </trkpt>
      <trkpt lat="43.3192" lon="5.6821">
        <ele>864</ele>
        <time>2019-11-29T13:22:12.000Z</time>
      </trkpt>
      <trkpt lat="43.3192" lon="5.68209">
        <ele>864</ele>
        <time>2019-11-29T13:22:13.000Z</time>
      </trkpt>
      <trkpt lat="43.3192" lon="5.68209">
        <ele>864</ele>
        <time>2019-11-29T13:22:14.000Z</time>
      </trkpt>
      <trkpt lat="43.3192" lon="5.68209">
        <ele>864</ele>
        <time>2019-11-29T13:22:15.000Z</time>
      </trkpt>
      <trkpt lat="43.3192" lon="5.68209">
        <ele>864</ele>
        <time>2019-11-29T13:22:16.000Z</time>
      </trkpt>
      <trkpt lat="43.3192" lon="5.68209">
        <ele>864</ele>
        <time>2019-11-29T13:22:17.000Z</time>
      </trkpt>
      <trkpt lat="43.3192" lon="5.68209">
        <ele>864</ele>
        <time>2019-11-29T13:22:18.000Z</time>
      </trkpt>
      <trkpt lat="43.31921" lon="5.6821">
        <ele>864</ele>
        <time>2019-11-29T13:22:19.000Z</time>
      </trkpt>
      <trkpt lat="43.31921" lon="5.6821">
        <ele>864</ele>
        <time>2019-11-29T13:22:20.000Z</time>
      </trkpt>
      <trkpt lat="43.31921" lon="5.68211">
        <ele>864</ele>
        <time>2019-11-29T13:22:21.000Z</time>
      </trkpt>
      <trkpt lat="43.31921" lon="5.68211">
        <ele>864</ele>
        <time>2019-11-29T13:22:22.000Z</time>
      </trkpt>
      <trkpt lat="43.3192" lon="5.68212">
        <ele>864</ele>
        <time>2019-11-29T13:22:23.000Z</time>
      </trkpt>
      <trkpt lat="43.3192" lon="5.68212">
        <ele>864</ele>
        <time>2019-11-29T13:22:24.000Z</time>
      </trkpt>
      <trkpt lat="43.3192" lon="5.68212">
        <ele>864</ele>
        <time>2019-11-29T13:22:25.000Z</time>
      </trkpt>
      <trkpt lat="43.3192" lon="5.68212">
        <ele>864</ele>
        <time>2019-11-29T13:22:26.000Z</time>
      </trkpt>
      <trkpt lat="43.3192" lon="5.68212">
        <ele>864</ele>
        <time>2019-11-29T13:22:27.000Z</time>
      </trkpt>
      <trkpt lat="43.3192" lon="5.68212">
        <ele>864</ele>
        <time>2019-11-29T13:22:28.000Z</time>
      </trkpt>
      <trkpt lat="43.3192" lon="5.68212">
        <ele>864</ele>
        <time>2019-11-29T13:22:29.000Z</time>
      </trkpt>
      <trkpt lat="43.3192" lon="5.68212">
        <ele>864</ele>
        <time>2019-11-29T13:22:30.000Z</time>
      </trkpt>
      <trkpt lat="43.3192" lon="5.68212">
        <ele>864</ele>
        <time>2019-11-29T13:22:31.000Z</time>
      </trkpt>
      <trkpt lat="43.3192" lon="5.68212">
        <ele>864</ele>
        <time>2019-11-29T13:22:32.000Z</time>
      </trkpt>
      <trkpt lat="43.3192" lon="5.68212">
        <ele>864</ele>
        <time>2019-11-29T13:22:33.000Z</time>
      </trkpt>
      <trkpt lat="43.3192" lon="5.68212">
        <ele>864</ele>
        <time>2019-11-29T13:22:34.000Z</time>
      </trkpt>
      <trkpt lat="43.3192" lon="5.68212">
        <ele>864</ele>
        <time>2019-11-29T13:22:35.000Z</time>
      </trkpt>
      <trkpt lat="43.3192" lon="5.68212">
        <ele>864</ele>
        <time>2019-11-29T13:22:36.000Z</time>
      </trkpt>
      <trkpt lat="43.3192" lon="5.68212">
        <ele>864</ele>
        <time>2019-11-29T13:22:37.000Z</time>
      </trkpt>
      <trkpt lat="43.31921" lon="5.68211">
        <ele>864</ele>
        <time>2019-11-29T13:22:38.000Z</time>
      </trkpt>
      <trkpt lat="43.31921" lon="5.68211">
        <ele>864</ele>
        <time>2019-11-29T13:22:39.000Z</time>
      </trkpt>
      <trkpt lat="43.31921" lon="5.68211">
        <ele>864</ele>
        <time>2019-11-29T13:22:40.000Z</time>
      </trkpt>
      <trkpt lat="43.31921" lon="5.68211">
        <ele>864</ele>
        <time>2019-11-29T13:22:41.000Z</time>
      </trkpt>
      <trkpt lat="43.31921" lon="5.68211">
        <ele>864</ele>
        <time>2019-11-29T13:22:42.000Z</time>
      </trkpt>
      <trkpt lat="43.31921" lon="5.68211">
        <ele>864</ele>
        <time>2019-11-29T13:22:43.000Z</time>
      </trkpt>
      <trkpt lat="43.31921" lon="5.68211">
        <ele>864</ele>
        <time>2019-11-29T13:22:44.000Z</time>
      </trkpt>
      <trkpt lat="43.31921" lon="5.68211">
        <ele>864</ele>
        <time>2019-11-29T13:22:45.000Z</time>
      </trkpt>
      <trkpt lat="43.3192" lon="5.68211">
        <ele>864</ele>
        <time>2019-11-29T13:22:46.000Z</time>
      </trkpt>
      <trkpt lat="43.3192" lon="5.68211">
        <ele>864</ele>
        <time>2019-11-29T13:22:47.000Z</time>
      </trkpt>
      <trkpt lat="43.3192" lon="5.68211">
        <ele>864</ele>
        <time>2019-11-29T13:22:48.000Z</time>
      </trkpt>
      <trkpt lat="43.3192" lon="5.68211">
        <ele>864</ele>
        <time>2019-11-29T13:22:49.000Z</time>
      </trkpt>
      <trkpt lat="43.3192" lon="5.68212">
        <ele>864</ele>
        <time>2019-11-29T13:22:50.000Z</time>
      </trkpt>
      <trkpt lat="43.31921" lon="5.68212">
        <ele>864</ele>
        <time>2019-11-29T13:22:51.000Z</time>
      </trkpt>
      <trkpt lat="43.31921" lon="5.68212">
        <ele>864</ele>
        <time>2019-11-29T13:22:52.000Z</time>
      </trkpt>
      <trkpt lat="43.31921" lon="5.68212">
        <ele>864</ele>
        <time>2019-11-29T13:22:53.000Z</time>
      </trkpt>
      <trkpt lat="43.31921" lon="5.68211">
        <ele>864</ele>
        <time>2019-11-29T13:22:54.000Z</time>
      </trkpt>
      <trkpt lat="43.31921" lon="5.68211">
        <ele>864</ele>
        <time>2019-11-29T13:22:55.000Z</time>
      </trkpt>
      <trkpt lat="43.31921" lon="5.68211">
        <ele>864</ele>
        <time>2019-11-29T13:22:56.000Z</time>
      </trkpt>
      <trkpt lat="43.31921" lon="5.68211">
        <ele>864</ele>
        <time>2019-11-29T13:22:57.000Z</time>
      </trkpt>
      <trkpt lat="43.31921" lon="5.68211">
        <ele>864</ele>
        <time>2019-11-29T13:22:58.000Z</time>
      </trkpt>
      <trkpt lat="43.31921" lon="5.68211">
        <ele>864</ele>
        <time>2019-11-29T13:22:59.000Z</time>
      </trkpt>
      <trkpt lat="43.31921" lon="5.68211">
        <ele>864</ele>
        <time>2019-11-29T13:23:00.000Z</time>
      </trkpt>
      <trkpt lat="43.31921" lon="5.68211">
        <ele>864</ele>
        <time>2019-11-29T13:23:01.000Z</time>
      </trkpt>
      <trkpt lat="43.31921" lon="5.68211">
        <ele>864</ele>
        <time>2019-11-29T13:23:02.000Z</time>
      </trkpt>
      <trkpt lat="43.31921" lon="5.68211">
        <ele>864</ele>
        <time>2019-11-29T13:23:03.000Z</time>
      </trkpt>
      <trkpt lat="43.31921" lon="5.68211">
        <ele>864</ele>
        <time>2019-11-29T13:23:04.000Z</time>
      </trkpt>
      <trkpt lat="43.31921" lon="5.68211">
        <ele>864</ele>
        <time>2019-11-29T13:23:05.000Z</time>
      </trkpt>
      <trkpt lat="43.31921" lon="5.68211">
        <ele>864</ele>
        <time>2019-11-29T13:23:06.000Z</time>
      </trkpt>
      <trkpt lat="43.31921" lon="5.68211">
        <ele>864</ele>
        <time>2019-11-29T13:23:07.000Z</time>
      </trkpt>
      <trkpt lat="43.31921" lon="5.68211">
        <ele>864</ele>
        <time>2019-11-29T13:23:08.000Z</time>
      </trkpt>
      <trkpt lat="43.31921" lon="5.68211">
        <ele>864</ele>
        <time>2019-11-29T13:23:09.000Z</time>
      </trkpt>
      <trkpt lat="43.31921" lon="5.68211">
        <ele>864</ele>
        <time>2019-11-29T13:23:10.000Z</time>
      </trkpt>
      <trkpt lat="43.31921" lon="5.68211">
        <ele>864</ele>
        <time>2019-11-29T13:23:11.000Z</time>
      </trkpt>
      <trkpt lat="43.31921" lon="5.68211">
        <ele>864</ele>
        <time>2019-11-29T13:23:12.000Z</time>
      </trkpt>
      <trkpt lat="43.31921" lon="5.68211">
        <ele>864</ele>
        <time>2019-11-29T13:23:13.000Z</time>
      </trkpt>
      <trkpt lat="43.31921" lon="5.68211">
        <ele>864</ele>
        <time>2019-11-29T13:23:14.000Z</time>
      </trkpt>
      <trkpt lat="43.31921" lon="5.68211">
        <ele>864</ele>
        <time>2019-11-29T13:23:15.000Z</time>
      </trkpt>
      <trkpt lat="43.31921" lon="5.68211">
        <ele>864</ele>
        <time>2019-11-29T13:23:16.000Z</time>
      </trkpt>
      <trkpt lat="43.31921" lon="5.68211">
        <ele>864</ele>
        <time>2019-11-29T13:23:17.000Z</time>
      </trkpt>
      <trkpt lat="43.31921" lon="5.68211">
        <ele>864</ele>
        <time>2019-11-29T13:23:18.000Z</time>
      </trkpt>
      <trkpt lat="43.31921" lon="5.68211">
        <ele>864</ele>
        <time>2019-11-29T13:23:19.000Z</time>
      </trkpt>
      <trkpt lat="43.31921" lon="5.68211">
        <ele>864</ele>
        <time>2019-11-29T13:23:20.000Z</time>
      </trkpt>
      <trkpt lat="43.31921" lon="5.68211">
        <ele>864</ele>
        <time>2019-11-29T13:23:21.000Z</time>
      </trkpt>
      <trkpt lat="43.3192" lon="5.68211">
        <ele>864</ele>
        <time>2019-11-29T13:23:22.000Z</time>
      </trkpt>
      <trkpt lat="43.3192" lon="5.68211">
        <ele>864</ele>
        <time>2019-11-29T13:23:23.000Z</time>
      </trkpt>
      <trkpt lat="43.3192" lon="5.68211">
        <ele>864</ele>
        <time>2019-11-29T13:23:24.000Z</time>
      </trkpt>
      <trkpt lat="43.3192" lon="5.68211">
        <ele>864</ele>
        <time>2019-11-29T13:23:25.000Z</time>
      </trkpt>
      <trkpt lat="43.3192" lon="5.68211">
        <ele>864</ele>
        <time>2019-11-29T13:23:26.000Z</time>
      </trkpt>
      <trkpt lat="43.3192" lon="5.68211">
        <ele>864</ele>
        <time>2019-11-29T13:23:27.000Z</time>
      </trkpt>
      <trkpt lat="43.3192" lon="5.68211">
        <ele>864</ele>
        <time>2019-11-29T13:23:28.000Z</time>
      </trkpt>
      <trkpt lat="43.3192" lon="5.68211">
        <ele>864</ele>
        <time>2019-11-29T13:23:29.000Z</time>
      </trkpt>
      <trkpt lat="43.3192" lon="5.68211">
        <ele>864</ele>
        <time>2019-11-29T13:23:30.000Z</time>
      </trkpt>
      <trkpt lat="43.3192" lon="5.68211">
        <ele>864</ele>
        <time>2019-11-29T13:23:31.000Z</time>
      </trkpt>
      <trkpt lat="43.31921" lon="5.68211">
        <ele>864</ele>
        <time>2019-11-29T13:23:32.000Z</time>
      </trkpt>
      <trkpt lat="43.3192" lon="5.6821">
        <ele>864</ele>
        <time>2019-11-29T13:23:33.000Z</time>
      </trkpt>
      <trkpt lat="43.3192" lon="5.68209">
        <ele>864</ele>
        <time>2019-11-29T13:23:34.000Z</time>
      </trkpt>
      <trkpt lat="43.3192" lon="5.68209">
        <ele>864</ele>
        <time>2019-11-29T13:23:35.000Z</time>
      </trkpt>
      <trkpt lat="43.31919" lon="5.68209">
        <ele>864</ele>
        <time>2019-11-29T13:23:36.000Z</time>
      </trkpt>
      <trkpt lat="43.31919" lon="5.68209">
        <ele>864</ele>
        <time>2019-11-29T13:23:37.000Z</time>
      </trkpt>
      <trkpt lat="43.31919" lon="5.68209">
        <ele>864</ele>
        <time>2019-11-29T13:23:38.000Z</time>
      </trkpt>
      <trkpt lat="43.31919" lon="5.68209">
        <ele>864</ele>
        <time>2019-11-29T13:23:39.000Z</time>
      </trkpt>
      <trkpt lat="43.3192" lon="5.68209">
        <ele>864</ele>
        <time>2019-11-29T13:23:40.000Z</time>
      </trkpt>
      <trkpt lat="43.3192" lon="5.68209">
        <ele>864</ele>
        <time>2019-11-29T13:23:41.000Z</time>
      </trkpt>
      <trkpt lat="43.3192" lon="5.68209">
        <ele>864</ele>
        <time>2019-11-29T13:23:42.000Z</time>
      </trkpt>
      <trkpt lat="43.3192" lon="5.68208">
        <ele>864</ele>
        <time>2019-11-29T13:23:43.000Z</time>
      </trkpt>
      <trkpt lat="43.3192" lon="5.68208">
        <ele>864</ele>
        <time>2019-11-29T13:23:44.000Z</time>
      </trkpt>
      <trkpt lat="43.3192" lon="5.68208">
        <ele>864</ele>
        <time>2019-11-29T13:23:45.000Z</time>
      </trkpt>
      <trkpt lat="43.3192" lon="5.68208">
        <ele>864</ele>
        <time>2019-11-29T13:23:46.000Z</time>
      </trkpt>
      <trkpt lat="43.3192" lon="5.68208">
        <ele>864</ele>
        <time>2019-11-29T13:23:47.000Z</time>
      </trkpt>
      <trkpt lat="43.3192" lon="5.68208">
        <ele>864</ele>
        <time>2019-11-29T13:23:48.000Z</time>
      </trkpt>
      <trkpt lat="43.3192" lon="5.68208">
        <ele>864</ele>
        <time>2019-11-29T13:23:49.000Z</time>
      </trkpt>
      <trkpt lat="43.3192" lon="5.68208">
        <ele>864</ele>
        <time>2019-11-29T13:23:50.000Z</time>
      </trkpt>
      <trkpt lat="43.3192" lon="5.68208">
        <ele>864</ele>
        <time>2019-11-29T13:23:51.000Z</time>
      </trkpt>
      <trkpt lat="43.31919" lon="5.68209">
        <ele>864</ele>
        <time>2019-11-29T13:23:52.000Z</time>
      </trkpt>
      <trkpt lat="43.31919" lon="5.68209">
        <ele>864</ele>
        <time>2019-11-29T13:23:53.000Z</time>
      </trkpt>
      <trkpt lat="43.31919" lon="5.68209">
        <ele>864</ele>
        <time>2019-11-29T13:23:54.000Z</time>
      </trkpt>
      <trkpt lat="43.31919" lon="5.68208">
        <ele>864</ele>
        <time>2019-11-29T13:23:55.000Z</time>
      </trkpt>
      <trkpt lat="43.31919" lon="5.68207">
        <ele>864</ele>
        <time>2019-11-29T13:23:56.000Z</time>
      </trkpt>
      <trkpt lat="43.31919" lon="5.68207">
        <ele>864</ele>
        <time>2019-11-29T13:23:57.000Z</time>
      </trkpt>
      <trkpt lat="43.31919" lon="5.68206">
        <ele>864</ele>
        <time>2019-11-29T13:23:58.000Z</time>
      </trkpt>
      <trkpt lat="43.3192" lon="5.68205">
        <ele>864</ele>
        <time>2019-11-29T13:23:59.000Z</time>
      </trkpt>
      <trkpt lat="43.3192" lon="5.68205">
        <ele>864</ele>
        <time>2019-11-29T13:24:00.000Z</time>
      </trkpt>
      <trkpt lat="43.3192" lon="5.68205">
        <ele>864</ele>
        <time>2019-11-29T13:24:01.000Z</time>
      </trkpt>
      <trkpt lat="43.3192" lon="5.68205">
        <ele>864</ele>
        <time>2019-11-29T13:24:02.000Z</time>
      </trkpt>
      <trkpt lat="43.3192" lon="5.68205">
        <ele>864</ele>
        <time>2019-11-29T13:24:03.000Z</time>
      </trkpt>
      <trkpt lat="43.3192" lon="5.68205">
        <ele>864</ele>
        <time>2019-11-29T13:24:04.000Z</time>
      </trkpt>
      <trkpt lat="43.3192" lon="5.68205">
        <ele>864</ele>
        <time>2019-11-29T13:24:05.000Z</time>
      </trkpt>
      <trkpt lat="43.31919" lon="5.68206">
        <ele>864</ele>
        <time>2019-11-29T13:24:06.000Z</time>
      </trkpt>
      <trkpt lat="43.31919" lon="5.68206">
        <ele>864</ele>
        <time>2019-11-29T13:24:07.000Z</time>
      </trkpt>
      <trkpt lat="43.31919" lon="5.68207">
        <ele>864</ele>
        <time>2019-11-29T13:24:08.000Z</time>
      </trkpt>
      <trkpt lat="43.31919" lon="5.68207">
        <ele>864</ele>
        <time>2019-11-29T13:24:09.000Z</time>
      </trkpt>
      <trkpt lat="43.31919" lon="5.68207">
        <ele>864</ele>
        <time>2019-11-29T13:24:10.000Z</time>
      </trkpt>
      <trkpt lat="43.31919" lon="5.68206">
        <ele>864</ele>
        <time>2019-11-29T13:24:11.000Z</time>
      </trkpt>
      <trkpt lat="43.31919" lon="5.68206">
        <ele>864</ele>
        <time>2019-11-29T13:24:12.000Z</time>
      </trkpt>
      <trkpt lat="43.31919" lon="5.68206">
        <ele>864</ele>
        <time>2019-11-29T13:24:13.000Z</time>
      </trkpt>
      <trkpt lat="43.31919" lon="5.68206">
        <ele>864</ele>
        <time>2019-11-29T13:24:14.000Z</time>
      </trkpt>
      <trkpt lat="43.3192" lon="5.68206">
        <ele>864</ele>
        <time>2019-11-29T13:24:15.000Z</time>
      </trkpt>
      <trkpt lat="43.3192" lon="5.68206">
        <ele>864</ele>
        <time>2019-11-29T13:24:16.000Z</time>
      </trkpt>
      <trkpt lat="43.3192" lon="5.68206">
        <ele>864</ele>
        <time>2019-11-29T13:24:17.000Z</time>
      </trkpt>
      <trkpt lat="43.3192" lon="5.68206">
        <ele>864</ele>
        <time>2019-11-29T13:24:18.000Z</time>
      </trkpt>
      <trkpt lat="43.3192" lon="5.68206">
        <ele>864</ele>
        <time>2019-11-29T13:24:19.000Z</time>
      </trkpt>
      <trkpt lat="43.3192" lon="5.68206">
        <ele>864</ele>
        <time>2019-11-29T13:24:20.000Z</time>
      </trkpt>
      <trkpt lat="43.3192" lon="5.68206">
        <ele>864</ele>
        <time>2019-11-29T13:24:21.000Z</time>
      </trkpt>
      <trkpt lat="43.3192" lon="5.68206">
        <ele>864</ele>
        <time>2019-11-29T13:24:22.000Z</time>
      </trkpt>
      <trkpt lat="43.3192" lon="5.68206">
        <ele>864</ele>
        <time>2019-11-29T13:24:23.000Z</time>
      </trkpt>
      <trkpt lat="43.3192" lon="5.68206">
        <ele>864</ele>
        <time>2019-11-29T13:24:24.000Z</time>
      </trkpt>
      <trkpt lat="43.3192" lon="5.68206">
        <ele>864</ele>
        <time>2019-11-29T13:24:25.000Z</time>
      </trkpt>
      <trkpt lat="43.3192" lon="5.68206">
        <ele>864</ele>
        <time>2019-11-29T13:24:26.000Z</time>
      </trkpt>
      <trkpt lat="43.3192" lon="5.68206">
        <ele>864</ele>
        <time>2019-11-29T13:24:27.000Z</time>
      </trkpt>
      <trkpt lat="43.3192" lon="5.68206">
        <ele>864</ele>
        <time>2019-11-29T13:24:28.000Z</time>
      </trkpt>
      <trkpt lat="43.3192" lon="5.68206">
        <ele>864</ele>
        <time>2019-11-29T13:24:29.000Z</time>
      </trkpt>
      <trkpt lat="43.3192" lon="5.68206">
        <ele>864</ele>
        <time>2019-11-29T13:24:30.000Z</time>
      </trkpt>
      <trkpt lat="43.3192" lon="5.68206">
        <ele>864</ele>
        <time>2019-11-29T13:24:31.000Z</time>
      </trkpt>
      <trkpt lat="43.3192" lon="5.68206">
        <ele>864</ele>
        <time>2019-11-29T13:24:32.000Z</time>
      </trkpt>
      <trkpt lat="43.3192" lon="5.68206">
        <ele>864</ele>
        <time>2019-11-29T13:24:33.000Z</time>
      </trkpt>
      <trkpt lat="43.3192" lon="5.68206">
        <ele>864</ele>
        <time>2019-11-29T13:24:34.000Z</time>
      </trkpt>
      <trkpt lat="43.3192" lon="5.68206">
        <ele>864</ele>
        <time>2019-11-29T13:24:35.000Z</time>
      </trkpt>
      <trkpt lat="43.31919" lon="5.68207">
        <ele>864</ele>
        <time>2019-11-29T13:24:36.000Z</time>
      </trkpt>
      <trkpt lat="43.31919" lon="5.68207">
        <ele>864</ele>
        <time>2019-11-29T13:24:37.000Z</time>
      </trkpt>
      <trkpt lat="43.31918" lon="5.68208">
        <ele>864</ele>
        <time>2019-11-29T13:24:38.000Z</time>
      </trkpt>
      <trkpt lat="43.31917" lon="5.68207">
        <ele>864</ele>
        <time>2019-11-29T13:24:39.000Z</time>
      </trkpt>
      <trkpt lat="43.31917" lon="5.68207">
        <ele>864</ele>
        <time>2019-11-29T13:24:40.000Z</time>
      </trkpt>
      <trkpt lat="43.31916" lon="5.68206">
        <ele>864</ele>
        <time>2019-11-29T13:24:41.000Z</time>
      </trkpt>
      <trkpt lat="43.31916" lon="5.68206">
        <ele>864</ele>
        <time>2019-11-29T13:24:42.000Z</time>
      </trkpt>
      <trkpt lat="43.31916" lon="5.68206">
        <ele>864</ele>
        <time>2019-11-29T13:24:43.000Z</time>
      </trkpt>
      <trkpt lat="43.31915" lon="5.68206">
        <ele>864</ele>
        <time>2019-11-29T13:24:44.000Z</time>
      </trkpt>
      <trkpt lat="43.31914" lon="5.68206">
        <ele>864</ele>
        <time>2019-11-29T13:24:45.000Z</time>
      </trkpt>
      <trkpt lat="43.31913" lon="5.68206">
        <ele>864</ele>
        <time>2019-11-29T13:24:46.000Z</time>
      </trkpt>
      <trkpt lat="43.31912" lon="5.68206">
        <ele>864</ele>
        <time>2019-11-29T13:24:47.000Z</time>
      </trkpt>
      <trkpt lat="43.31912" lon="5.68206">
        <ele>864</ele>
        <time>2019-11-29T13:24:48.000Z</time>
      </trkpt>
      <trkpt lat="43.31911" lon="5.68206">
        <ele>864</ele>
        <time>2019-11-29T13:24:49.000Z</time>
      </trkpt>
      <trkpt lat="43.3191" lon="5.68205">
        <ele>865</ele>
        <time>2019-11-29T13:24:50.000Z</time>
      </trkpt>
      <trkpt lat="43.3191" lon="5.68206">
        <ele>865</ele>
        <time>2019-11-29T13:24:51.000Z</time>
      </trkpt>
      <trkpt lat="43.31909" lon="5.68206">
        <ele>865</ele>
        <time>2019-11-29T13:24:52.000Z</time>
      </trkpt>
      <trkpt lat="43.31908" lon="5.68206">
        <ele>865</ele>
        <time>2019-11-29T13:24:53.000Z</time>
      </trkpt>
      <trkpt lat="43.31907" lon="5.68206">
        <ele>865</ele>
        <time>2019-11-29T13:24:54.000Z</time>
      </trkpt>
      <trkpt lat="43.31906" lon="5.68205">
        <ele>865</ele>
        <time>2019-11-29T13:24:55.000Z</time>
      </trkpt>
      <trkpt lat="43.31905" lon="5.68204">
        <ele>865</ele>
        <time>2019-11-29T13:24:56.000Z</time>
      </trkpt>
      <trkpt lat="43.31904" lon="5.68203">
        <ele>865</ele>
        <time>2019-11-29T13:24:57.000Z</time>
      </trkpt>
      <trkpt lat="43.31904" lon="5.68202">
        <ele>865</ele>
        <time>2019-11-29T13:24:58.000Z</time>
      </trkpt>
      <trkpt lat="43.31903" lon="5.682">
        <ele>865</ele>
        <time>2019-11-29T13:24:59.000Z</time>
      </trkpt>
      <trkpt lat="43.31903" lon="5.68199">
        <ele>865</ele>
        <time>2019-11-29T13:25:00.000Z</time>
      </trkpt>
      <trkpt lat="43.31903" lon="5.68198">
        <ele>865</ele>
        <time>2019-11-29T13:25:01.000Z</time>
      </trkpt>
      <trkpt lat="43.31902" lon="5.68197">
        <ele>865</ele>
        <time>2019-11-29T13:25:02.000Z</time>
      </trkpt>
      <trkpt lat="43.31903" lon="5.68196">
        <ele>865</ele>
        <time>2019-11-29T13:25:03.000Z</time>
      </trkpt>
      <trkpt lat="43.31903" lon="5.68195">
        <ele>865</ele>
        <time>2019-11-29T13:25:04.000Z</time>
      </trkpt>
      <trkpt lat="43.31902" lon="5.68194">
        <ele>865</ele>
        <time>2019-11-29T13:25:05.000Z</time>
      </trkpt>
      <trkpt lat="43.31902" lon="5.68192">
        <ele>865</ele>
        <time>2019-11-29T13:25:06.000Z</time>
      </trkpt>
      <trkpt lat="43.31902" lon="5.68191">
        <ele>865</ele>
        <time>2019-11-29T13:25:07.000Z</time>
      </trkpt>
      <trkpt lat="43.31902" lon="5.6819">
        <ele>865</ele>
        <time>2019-11-29T13:25:08.000Z</time>
      </trkpt>
      <trkpt lat="43.31902" lon="5.68189">
        <ele>865</ele>
        <time>2019-11-29T13:25:09.000Z</time>
      </trkpt>
      <trkpt lat="43.31902" lon="5.68188">
        <ele>865</ele>
        <time>2019-11-29T13:25:10.000Z</time>
      </trkpt>
      <trkpt lat="43.31902" lon="5.68187">
        <ele>865</ele>
        <time>2019-11-29T13:25:11.000Z</time>
      </trkpt>
      <trkpt lat="43.31902" lon="5.68185">
        <ele>865</ele>
        <time>2019-11-29T13:25:12.000Z</time>
      </trkpt>
      <trkpt lat="43.31902" lon="5.68184">
        <ele>865</ele>
        <time>2019-11-29T13:25:13.000Z</time>
      </trkpt>
      <trkpt lat="43.31902" lon="5.68183">
        <ele>865</ele>
        <time>2019-11-29T13:25:14.000Z</time>
      </trkpt>
      <trkpt lat="43.31903" lon="5.68181">
        <ele>865</ele>
        <time>2019-11-29T13:25:15.000Z</time>
      </trkpt>
      <trkpt lat="43.31902" lon="5.6818">
        <ele>865</ele>
        <time>2019-11-29T13:25:16.000Z</time>
      </trkpt>
      <trkpt lat="43.31902" lon="5.68179">
        <ele>865</ele>
        <time>2019-11-29T13:25:17.000Z</time>
      </trkpt>
      <trkpt lat="43.31902" lon="5.68178">
        <ele>866</ele>
        <time>2019-11-29T13:25:18.000Z</time>
      </trkpt>
      <trkpt lat="43.31902" lon="5.68177">
        <ele>866</ele>
        <time>2019-11-29T13:25:19.000Z</time>
      </trkpt>
      <trkpt lat="43.31902" lon="5.68176">
        <ele>866</ele>
        <time>2019-11-29T13:25:20.000Z</time>
      </trkpt>
      <trkpt lat="43.31902" lon="5.68174">
        <ele>866</ele>
        <time>2019-11-29T13:25:21.000Z</time>
      </trkpt>
      <trkpt lat="43.31902" lon="5.68173">
        <ele>866</ele>
        <time>2019-11-29T13:25:22.000Z</time>
      </trkpt>
      <trkpt lat="43.31902" lon="5.68172">
        <ele>866</ele>
        <time>2019-11-29T13:25:23.000Z</time>
      </trkpt>
      <trkpt lat="43.31903" lon="5.6817">
        <ele>866</ele>
        <time>2019-11-29T13:25:24.000Z</time>
      </trkpt>
      <trkpt lat="43.31903" lon="5.68169">
        <ele>866</ele>
        <time>2019-11-29T13:25:25.000Z</time>
      </trkpt>
      <trkpt lat="43.31903" lon="5.68168">
        <ele>866</ele>
        <time>2019-11-29T13:25:26.000Z</time>
      </trkpt>
      <trkpt lat="43.31903" lon="5.68166">
        <ele>866</ele>
        <time>2019-11-29T13:25:27.000Z</time>
      </trkpt>
      <trkpt lat="43.31904" lon="5.68164">
        <ele>866</ele>
        <time>2019-11-29T13:25:28.000Z</time>
      </trkpt>
      <trkpt lat="43.31904" lon="5.68163">
        <ele>867</ele>
        <time>2019-11-29T13:25:29.000Z</time>
      </trkpt>
      <trkpt lat="43.31904" lon="5.68162">
        <ele>867</ele>
        <time>2019-11-29T13:25:30.000Z</time>
      </trkpt>
      <trkpt lat="43.31905" lon="5.6816">
        <ele>867</ele>
        <time>2019-11-29T13:25:31.000Z</time>
      </trkpt>
      <trkpt lat="43.31905" lon="5.68159">
        <ele>867</ele>
        <time>2019-11-29T13:25:32.000Z</time>
      </trkpt>
      <trkpt lat="43.31906" lon="5.68157">
        <ele>867</ele>
        <time>2019-11-29T13:25:33.000Z</time>
      </trkpt>
      <trkpt lat="43.31906" lon="5.68156">
        <ele>867</ele>
        <time>2019-11-29T13:25:34.000Z</time>
      </trkpt>
      <trkpt lat="43.31907" lon="5.68155">
        <ele>867</ele>
        <time>2019-11-29T13:25:35.000Z</time>
      </trkpt>
      <trkpt lat="43.31908" lon="5.68154">
        <ele>867</ele>
        <time>2019-11-29T13:25:36.000Z</time>
      </trkpt>
      <trkpt lat="43.31908" lon="5.68153">
        <ele>867</ele>
        <time>2019-11-29T13:25:37.000Z</time>
      </trkpt>
      <trkpt lat="43.31909" lon="5.68152">
        <ele>867</ele>
        <time>2019-11-29T13:25:38.000Z</time>
      </trkpt>
      <trkpt lat="43.31909" lon="5.68151">
        <ele>867</ele>
        <time>2019-11-29T13:25:39.000Z</time>
      </trkpt>
      <trkpt lat="43.3191" lon="5.6815">
        <ele>867</ele>
        <time>2019-11-29T13:25:40.000Z</time>
      </trkpt>
      <trkpt lat="43.3191" lon="5.68149">
        <ele>867</ele>
        <time>2019-11-29T13:25:41.000Z</time>
      </trkpt>
      <trkpt lat="43.31911" lon="5.68147">
        <ele>867</ele>
        <time>2019-11-29T13:25:42.000Z</time>
      </trkpt>
      <trkpt lat="43.31911" lon="5.68146">
        <ele>867</ele>
        <time>2019-11-29T13:25:43.000Z</time>
      </trkpt>
      <trkpt lat="43.31912" lon="5.68145">
        <ele>867</ele>
        <time>2019-11-29T13:25:44.000Z</time>
      </trkpt>
      <trkpt lat="43.31912" lon="5.68143">
        <ele>867</ele>
        <time>2019-11-29T13:25:45.000Z</time>
      </trkpt>
      <trkpt lat="43.31912" lon="5.68142">
        <ele>867</ele>
        <time>2019-11-29T13:25:46.000Z</time>
      </trkpt>
      <trkpt lat="43.31913" lon="5.68141">
        <ele>867</ele>
        <time>2019-11-29T13:25:47.000Z</time>
      </trkpt>
      <trkpt lat="43.31913" lon="5.6814">
        <ele>867</ele>
        <time>2019-11-29T13:25:48.000Z</time>
      </trkpt>
      <trkpt lat="43.31913" lon="5.68138">
        <ele>867</ele>
        <time>2019-11-29T13:25:49.000Z</time>
      </trkpt>
      <trkpt lat="43.31913" lon="5.68137">
        <ele>867</ele>
        <time>2019-11-29T13:25:50.000Z</time>
      </trkpt>
      <trkpt lat="43.31913" lon="5.68135">
        <ele>866</ele>
        <time>2019-11-29T13:25:51.000Z</time>
      </trkpt>
      <trkpt lat="43.31913" lon="5.68134">
        <ele>866</ele>
        <time>2019-11-29T13:25:52.000Z</time>
      </trkpt>
      <trkpt lat="43.31913" lon="5.68133">
        <ele>866</ele>
        <time>2019-11-29T13:25:53.000Z</time>
      </trkpt>
      <trkpt lat="43.31914" lon="5.68131">
        <ele>866</ele>
        <time>2019-11-29T13:25:54.000Z</time>
      </trkpt>
      <trkpt lat="43.31914" lon="5.68129">
        <ele>866</ele>
        <time>2019-11-29T13:25:55.000Z</time>
      </trkpt>
      <trkpt lat="43.31914" lon="5.68128">
        <ele>866</ele>
        <time>2019-11-29T13:25:56.000Z</time>
      </trkpt>
      <trkpt lat="43.31914" lon="5.68126">
        <ele>866</ele>
        <time>2019-11-29T13:25:57.000Z</time>
      </trkpt>
      <trkpt lat="43.31914" lon="5.68125">
        <ele>866</ele>
        <time>2019-11-29T13:25:58.000Z</time>
      </trkpt>
      <trkpt lat="43.31914" lon="5.68123">
        <ele>866</ele>
        <time>2019-11-29T13:25:59.000Z</time>
      </trkpt>
      <trkpt lat="43.31914" lon="5.68122">
        <ele>866</ele>
        <time>2019-11-29T13:26:00.000Z</time>
      </trkpt>
      <trkpt lat="43.31915" lon="5.6812">
        <ele>866</ele>
        <time>2019-11-29T13:26:01.000Z</time>
      </trkpt>
      <trkpt lat="43.31915" lon="5.68119">
        <ele>866</ele>
        <time>2019-11-29T13:26:02.000Z</time>
      </trkpt>
      <trkpt lat="43.31916" lon="5.68118">
        <ele>866</ele>
        <time>2019-11-29T13:26:03.000Z</time>
      </trkpt>
      <trkpt lat="43.31916" lon="5.68117">
        <ele>866</ele>
        <time>2019-11-29T13:26:04.000Z</time>
      </trkpt>
      <trkpt lat="43.31916" lon="5.68115">
        <ele>866</ele>
        <time>2019-11-29T13:26:05.000Z</time>
      </trkpt>
      <trkpt lat="43.31917" lon="5.68114">
        <ele>866</ele>
        <time>2019-11-29T13:26:06.000Z</time>
      </trkpt>
      <trkpt lat="43.31917" lon="5.68113">
        <ele>866</ele>
        <time>2019-11-29T13:26:07.000Z</time>
      </trkpt>
      <trkpt lat="43.31918" lon="5.68111">
        <ele>866</ele>
        <time>2019-11-29T13:26:08.000Z</time>
      </trkpt>
      <trkpt lat="43.31918" lon="5.6811">
        <ele>866</ele>
        <time>2019-11-29T13:26:09.000Z</time>
      </trkpt>
      <trkpt lat="43.31918" lon="5.68109">
        <ele>866</ele>
        <time>2019-11-29T13:26:10.000Z</time>
      </trkpt>
      <trkpt lat="43.31918" lon="5.68108">
        <ele>866</ele>
        <time>2019-11-29T13:26:11.000Z</time>
      </trkpt>
      <trkpt lat="43.31918" lon="5.68106">
        <ele>867</ele>
        <time>2019-11-29T13:26:12.000Z</time>
      </trkpt>
      <trkpt lat="43.31918" lon="5.68104">
        <ele>867</ele>
        <time>2019-11-29T13:26:13.000Z</time>
      </trkpt>
      <trkpt lat="43.31919" lon="5.68103">
        <ele>867</ele>
        <time>2019-11-29T13:26:14.000Z</time>
      </trkpt>
      <trkpt lat="43.31919" lon="5.68102">
        <ele>867</ele>
        <time>2019-11-29T13:26:15.000Z</time>
      </trkpt>
      <trkpt lat="43.31919" lon="5.68102">
        <ele>867</ele>
        <time>2019-11-29T13:26:16.000Z</time>
      </trkpt>
      <trkpt lat="43.31919" lon="5.68102">
        <ele>867</ele>
        <time>2019-11-29T13:26:17.000Z</time>
      </trkpt>
      <trkpt lat="43.31919" lon="5.68102">
        <ele>867</ele>
        <time>2019-11-29T13:26:18.000Z</time>
      </trkpt>
      <trkpt lat="43.31919" lon="5.68102">
        <ele>867</ele>
        <time>2019-11-29T13:26:19.000Z</time>
      </trkpt>
      <trkpt lat="43.3192" lon="5.68102">
        <ele>867</ele>
        <time>2019-11-29T13:26:20.000Z</time>
      </trkpt>
      <trkpt lat="43.3192" lon="5.68101">
        <ele>867</ele>
        <time>2019-11-29T13:26:21.000Z</time>
      </trkpt>
      <trkpt lat="43.3192" lon="5.681">
        <ele>867</ele>
        <time>2019-11-29T13:26:22.000Z</time>
      </trkpt>
      <trkpt lat="43.3192" lon="5.68099">
        <ele>867</ele>
        <time>2019-11-29T13:26:23.000Z</time>
      </trkpt>
      <trkpt lat="43.3192" lon="5.68098">
        <ele>867</ele>
        <time>2019-11-29T13:26:24.000Z</time>
      </trkpt>
      <trkpt lat="43.3192" lon="5.68096">
        <ele>867</ele>
        <time>2019-11-29T13:26:25.000Z</time>
      </trkpt>
      <trkpt lat="43.3192" lon="5.68095">
        <ele>867</ele>
        <time>2019-11-29T13:26:26.000Z</time>
      </trkpt>
      <trkpt lat="43.31921" lon="5.68094">
        <ele>867</ele>
        <time>2019-11-29T13:26:27.000Z</time>
      </trkpt>
      <trkpt lat="43.31921" lon="5.68093">
        <ele>867</ele>
        <time>2019-11-29T13:26:28.000Z</time>
      </trkpt>
      <trkpt lat="43.31921" lon="5.68091">
        <ele>867</ele>
        <time>2019-11-29T13:26:29.000Z</time>
      </trkpt>
      <trkpt lat="43.31921" lon="5.6809">
        <ele>867</ele>
        <time>2019-11-29T13:26:30.000Z</time>
      </trkpt>
      <trkpt lat="43.31922" lon="5.68089">
        <ele>867</ele>
        <time>2019-11-29T13:26:31.000Z</time>
      </trkpt>
      <trkpt lat="43.31922" lon="5.68088">
        <ele>867</ele>
        <time>2019-11-29T13:26:32.000Z</time>
      </trkpt>
      <trkpt lat="43.31922" lon="5.68087">
        <ele>867</ele>
        <time>2019-11-29T13:26:33.000Z</time>
      </trkpt>
      <trkpt lat="43.31923" lon="5.68085">
        <ele>867</ele>
        <time>2019-11-29T13:26:34.000Z</time>
      </trkpt>
      <trkpt lat="43.31923" lon="5.68084">
        <ele>867</ele>
        <time>2019-11-29T13:26:35.000Z</time>
      </trkpt>
      <trkpt lat="43.31923" lon="5.68083">
        <ele>867</ele>
        <time>2019-11-29T13:26:36.000Z</time>
      </trkpt>
      <trkpt lat="43.31924" lon="5.68082">
        <ele>867</ele>
        <time>2019-11-29T13:26:37.000Z</time>
      </trkpt>
      <trkpt lat="43.31924" lon="5.68081">
        <ele>867</ele>
        <time>2019-11-29T13:26:38.000Z</time>
      </trkpt>
      <trkpt lat="43.31925" lon="5.68079">
        <ele>867</ele>
        <time>2019-11-29T13:26:39.000Z</time>
      </trkpt>
      <trkpt lat="43.31926" lon="5.68078">
        <ele>867</ele>
        <time>2019-11-29T13:26:40.000Z</time>
      </trkpt>
      <trkpt lat="43.31926" lon="5.68077">
        <ele>867</ele>
        <time>2019-11-29T13:26:41.000Z</time>
      </trkpt>
      <trkpt lat="43.31927" lon="5.68076">
        <ele>866</ele>
        <time>2019-11-29T13:26:42.000Z</time>
      </trkpt>
      <trkpt lat="43.31928" lon="5.68075">
        <ele>866</ele>
        <time>2019-11-29T13:26:43.000Z</time>
      </trkpt>
      <trkpt lat="43.31929" lon="5.68074">
        <ele>866</ele>
        <time>2019-11-29T13:26:44.000Z</time>
      </trkpt>
      <trkpt lat="43.31929" lon="5.68073">
        <ele>866</ele>
        <time>2019-11-29T13:26:45.000Z</time>
      </trkpt>
      <trkpt lat="43.3193" lon="5.68072">
        <ele>867</ele>
        <time>2019-11-29T13:26:46.000Z</time>
      </trkpt>
      <trkpt lat="43.31931" lon="5.68071">
        <ele>867</ele>
        <time>2019-11-29T13:26:47.000Z</time>
      </trkpt>
      <trkpt lat="43.31932" lon="5.6807">
        <ele>867</ele>
        <time>2019-11-29T13:26:48.000Z</time>
      </trkpt>
      <trkpt lat="43.31932" lon="5.68068">
        <ele>866</ele>
        <time>2019-11-29T13:26:49.000Z</time>
      </trkpt>
      <trkpt lat="43.31933" lon="5.68067">
        <ele>866</ele>
        <time>2019-11-29T13:26:50.000Z</time>
      </trkpt>
      <trkpt lat="43.31933" lon="5.68066">
        <ele>866</ele>
        <time>2019-11-29T13:26:51.000Z</time>
      </trkpt>
      <trkpt lat="43.31934" lon="5.68065">
        <ele>866</ele>
        <time>2019-11-29T13:26:52.000Z</time>
      </trkpt>
      <trkpt lat="43.31934" lon="5.68063">
        <ele>866</ele>
        <time>2019-11-29T13:26:53.000Z</time>
      </trkpt>
      <trkpt lat="43.31934" lon="5.68062">
        <ele>866</ele>
        <time>2019-11-29T13:26:54.000Z</time>
      </trkpt>
      <trkpt lat="43.31935" lon="5.68061">
        <ele>866</ele>
        <time>2019-11-29T13:26:55.000Z</time>
      </trkpt>
      <trkpt lat="43.31935" lon="5.68059">
        <ele>866</ele>
        <time>2019-11-29T13:26:56.000Z</time>
      </trkpt>
      <trkpt lat="43.31935" lon="5.68057">
        <ele>866</ele>
        <time>2019-11-29T13:26:57.000Z</time>
      </trkpt>
      <trkpt lat="43.31935" lon="5.68056">
        <ele>866</ele>
        <time>2019-11-29T13:26:58.000Z</time>
      </trkpt>
      <trkpt lat="43.31935" lon="5.68054">
        <ele>866</ele>
        <time>2019-11-29T13:26:59.000Z</time>
      </trkpt>
      <trkpt lat="43.31935" lon="5.68053">
        <ele>867</ele>
        <time>2019-11-29T13:27:00.000Z</time>
      </trkpt>
      <trkpt lat="43.31935" lon="5.68051">
        <ele>867</ele>
        <time>2019-11-29T13:27:01.000Z</time>
      </trkpt>
      <trkpt lat="43.31935" lon="5.6805">
        <ele>867</ele>
        <time>2019-11-29T13:27:02.000Z</time>
      </trkpt>
      <trkpt lat="43.31934" lon="5.68049">
        <ele>867</ele>
        <time>2019-11-29T13:27:03.000Z</time>
      </trkpt>
      <trkpt lat="43.31933" lon="5.68048">
        <ele>867</ele>
        <time>2019-11-29T13:27:04.000Z</time>
      </trkpt>
      <trkpt lat="43.31932" lon="5.68046">
        <ele>867</ele>
        <time>2019-11-29T13:27:05.000Z</time>
      </trkpt>
      <trkpt lat="43.31932" lon="5.68044">
        <ele>867</ele>
        <time>2019-11-29T13:27:06.000Z</time>
      </trkpt>
      <trkpt lat="43.31931" lon="5.68043">
        <ele>867</ele>
        <time>2019-11-29T13:27:07.000Z</time>
      </trkpt>
      <trkpt lat="43.3193" lon="5.68041">
        <ele>867</ele>
        <time>2019-11-29T13:27:08.000Z</time>
      </trkpt>
      <trkpt lat="43.3193" lon="5.68039">
        <ele>867</ele>
        <time>2019-11-29T13:27:09.000Z</time>
      </trkpt>
      <trkpt lat="43.31929" lon="5.68037">
        <ele>867</ele>
        <time>2019-11-29T13:27:10.000Z</time>
      </trkpt>
      <trkpt lat="43.31929" lon="5.68036">
        <ele>867</ele>
        <time>2019-11-29T13:27:11.000Z</time>
      </trkpt>
      <trkpt lat="43.31929" lon="5.68034">
        <ele>867</ele>
        <time>2019-11-29T13:27:12.000Z</time>
      </trkpt>
      <trkpt lat="43.31929" lon="5.68033">
        <ele>867</ele>
        <time>2019-11-29T13:27:13.000Z</time>
      </trkpt>
      <trkpt lat="43.31929" lon="5.68031">
        <ele>867</ele>
        <time>2019-11-29T13:27:14.000Z</time>
      </trkpt>
      <trkpt lat="43.31929" lon="5.68029">
        <ele>867</ele>
        <time>2019-11-29T13:27:15.000Z</time>
      </trkpt>
      <trkpt lat="43.31928" lon="5.68027">
        <ele>867</ele>
        <time>2019-11-29T13:27:16.000Z</time>
      </trkpt>
      <trkpt lat="43.31929" lon="5.68026">
        <ele>867</ele>
        <time>2019-11-29T13:27:17.000Z</time>
      </trkpt>
      <trkpt lat="43.31929" lon="5.68024">
        <ele>867</ele>
        <time>2019-11-29T13:27:18.000Z</time>
      </trkpt>
      <trkpt lat="43.3193" lon="5.68023">
        <ele>867</ele>
        <time>2019-11-29T13:27:19.000Z</time>
      </trkpt>
      <trkpt lat="43.3193" lon="5.68021">
        <ele>867</ele>
        <time>2019-11-29T13:27:20.000Z</time>
      </trkpt>
      <trkpt lat="43.3193" lon="5.6802">
        <ele>867</ele>
        <time>2019-11-29T13:27:21.000Z</time>
      </trkpt>
      <trkpt lat="43.3193" lon="5.68018">
        <ele>867</ele>
        <time>2019-11-29T13:27:22.000Z</time>
      </trkpt>
      <trkpt lat="43.31931" lon="5.68017">
        <ele>867</ele>
        <time>2019-11-29T13:27:23.000Z</time>
      </trkpt>
      <trkpt lat="43.3193" lon="5.68015">
        <ele>867</ele>
        <time>2019-11-29T13:27:24.000Z</time>
      </trkpt>
      <trkpt lat="43.3193" lon="5.68014">
        <ele>867</ele>
        <time>2019-11-29T13:27:25.000Z</time>
      </trkpt>
      <trkpt lat="43.3193" lon="5.68012">
        <ele>867</ele>
        <time>2019-11-29T13:27:26.000Z</time>
      </trkpt>
      <trkpt lat="43.3193" lon="5.6801">
        <ele>867</ele>
        <time>2019-11-29T13:27:27.000Z</time>
      </trkpt>
      <trkpt lat="43.3193" lon="5.68009">
        <ele>867</ele>
        <time>2019-11-29T13:27:28.000Z</time>
      </trkpt>
      <trkpt lat="43.3193" lon="5.68007">
        <ele>867</ele>
        <time>2019-11-29T13:27:29.000Z</time>
      </trkpt>
      <trkpt lat="43.3193" lon="5.68006">
        <ele>867</ele>
        <time>2019-11-29T13:27:30.000Z</time>
      </trkpt>
      <trkpt lat="43.3193" lon="5.68004">
        <ele>867</ele>
        <time>2019-11-29T13:27:31.000Z</time>
      </trkpt>
      <trkpt lat="43.3193" lon="5.68002">
        <ele>867</ele>
        <time>2019-11-29T13:27:32.000Z</time>
      </trkpt>
      <trkpt lat="43.3193" lon="5.68001">
        <ele>867</ele>
        <time>2019-11-29T13:27:33.000Z</time>
      </trkpt>
      <trkpt lat="43.3193" lon="5.68">
        <ele>867</ele>
        <time>2019-11-29T13:27:34.000Z</time>
      </trkpt>
      <trkpt lat="43.31929" lon="5.67998">
        <ele>867</ele>
        <time>2019-11-29T13:27:35.000Z</time>
      </trkpt>
      <trkpt lat="43.31929" lon="5.67996">
        <ele>867</ele>
        <time>2019-11-29T13:27:36.000Z</time>
      </trkpt>
      <trkpt lat="43.31929" lon="5.67995">
        <ele>867</ele>
        <time>2019-11-29T13:27:37.000Z</time>
      </trkpt>
      <trkpt lat="43.31929" lon="5.67993">
        <ele>867</ele>
        <time>2019-11-29T13:27:38.000Z</time>
      </trkpt>
      <trkpt lat="43.31929" lon="5.67992">
        <ele>867</ele>
        <time>2019-11-29T13:27:39.000Z</time>
      </trkpt>
      <trkpt lat="43.3193" lon="5.6799">
        <ele>867</ele>
        <time>2019-11-29T13:27:40.000Z</time>
      </trkpt>
      <trkpt lat="43.3193" lon="5.67989">
        <ele>867</ele>
        <time>2019-11-29T13:27:41.000Z</time>
      </trkpt>
      <trkpt lat="43.3193" lon="5.67987">
        <ele>867</ele>
        <time>2019-11-29T13:27:42.000Z</time>
      </trkpt>
      <trkpt lat="43.31931" lon="5.67986">
        <ele>867</ele>
        <time>2019-11-29T13:27:43.000Z</time>
      </trkpt>
      <trkpt lat="43.31931" lon="5.67985">
        <ele>867</ele>
        <time>2019-11-29T13:27:44.000Z</time>
      </trkpt>
      <trkpt lat="43.31931" lon="5.67983">
        <ele>867</ele>
        <time>2019-11-29T13:27:45.000Z</time>
      </trkpt>
      <trkpt lat="43.31931" lon="5.67981">
        <ele>868</ele>
        <time>2019-11-29T13:27:46.000Z</time>
      </trkpt>
      <trkpt lat="43.31931" lon="5.6798">
        <ele>868</ele>
        <time>2019-11-29T13:27:47.000Z</time>
      </trkpt>
      <trkpt lat="43.31932" lon="5.67978">
        <ele>868</ele>
        <time>2019-11-29T13:27:48.000Z</time>
      </trkpt>
      <trkpt lat="43.31932" lon="5.67977">
        <ele>868</ele>
        <time>2019-11-29T13:27:49.000Z</time>
      </trkpt>
      <trkpt lat="43.31932" lon="5.67975">
        <ele>868</ele>
        <time>2019-11-29T13:27:50.000Z</time>
      </trkpt>
      <trkpt lat="43.31933" lon="5.67973">
        <ele>868</ele>
        <time>2019-11-29T13:27:51.000Z</time>
      </trkpt>
      <trkpt lat="43.31933" lon="5.67972">
        <ele>868</ele>
        <time>2019-11-29T13:27:52.000Z</time>
      </trkpt>
      <trkpt lat="43.31934" lon="5.67971">
        <ele>868</ele>
        <time>2019-11-29T13:27:53.000Z</time>
      </trkpt>
      <trkpt lat="43.31934" lon="5.6797">
        <ele>868</ele>
        <time>2019-11-29T13:27:54.000Z</time>
      </trkpt>
      <trkpt lat="43.31935" lon="5.67968">
        <ele>868</ele>
        <time>2019-11-29T13:27:55.000Z</time>
      </trkpt>
      <trkpt lat="43.31936" lon="5.67967">
        <ele>868</ele>
        <time>2019-11-29T13:27:56.000Z</time>
      </trkpt>
      <trkpt lat="43.31937" lon="5.67966">
        <ele>868</ele>
        <time>2019-11-29T13:27:57.000Z</time>
      </trkpt>
      <trkpt lat="43.31937" lon="5.67965">
        <ele>868</ele>
        <time>2019-11-29T13:27:58.000Z</time>
      </trkpt>
      <trkpt lat="43.31937" lon="5.67964">
        <ele>868</ele>
        <time>2019-11-29T13:27:59.000Z</time>
      </trkpt>
      <trkpt lat="43.31937" lon="5.67962">
        <ele>868</ele>
        <time>2019-11-29T13:28:00.000Z</time>
      </trkpt>
      <trkpt lat="43.31937" lon="5.67961">
        <ele>868</ele>
        <time>2019-11-29T13:28:01.000Z</time>
      </trkpt>
      <trkpt lat="43.31938" lon="5.67959">
        <ele>868</ele>
        <time>2019-11-29T13:28:02.000Z</time>
      </trkpt>
      <trkpt lat="43.31938" lon="5.67958">
        <ele>868</ele>
        <time>2019-11-29T13:28:03.000Z</time>
      </trkpt>
      <trkpt lat="43.31938" lon="5.67956">
        <ele>868</ele>
        <time>2019-11-29T13:28:04.000Z</time>
      </trkpt>
      <trkpt lat="43.31938" lon="5.67955">
        <ele>868</ele>
        <time>2019-11-29T13:28:05.000Z</time>
      </trkpt>
      <trkpt lat="43.31939" lon="5.67953">
        <ele>868</ele>
        <time>2019-11-29T13:28:06.000Z</time>
      </trkpt>
      <trkpt lat="43.31939" lon="5.67952">
        <ele>868</ele>
        <time>2019-11-29T13:28:07.000Z</time>
      </trkpt>
      <trkpt lat="43.31939" lon="5.6795">
        <ele>868</ele>
        <time>2019-11-29T13:28:08.000Z</time>
      </trkpt>
      <trkpt lat="43.3194" lon="5.67949">
        <ele>868</ele>
        <time>2019-11-29T13:28:09.000Z</time>
      </trkpt>
      <trkpt lat="43.3194" lon="5.67947">
        <ele>868</ele>
        <time>2019-11-29T13:28:10.000Z</time>
      </trkpt>
      <trkpt lat="43.3194" lon="5.67946">
        <ele>868</ele>
        <time>2019-11-29T13:28:11.000Z</time>
      </trkpt>
      <trkpt lat="43.3194" lon="5.67944">
        <ele>868</ele>
        <time>2019-11-29T13:28:12.000Z</time>
      </trkpt>
      <trkpt lat="43.3194" lon="5.67944">
        <ele>868</ele>
        <time>2019-11-29T13:28:13.000Z</time>
      </trkpt>
      <trkpt lat="43.3194" lon="5.67943">
        <ele>868</ele>
        <time>2019-11-29T13:28:14.000Z</time>
      </trkpt>
      <trkpt lat="43.31941" lon="5.67942">
        <ele>868</ele>
        <time>2019-11-29T13:28:15.000Z</time>
      </trkpt>
      <trkpt lat="43.31941" lon="5.67942">
        <ele>868</ele>
        <time>2019-11-29T13:28:16.000Z</time>
      </trkpt>
      <trkpt lat="43.31941" lon="5.67942">
        <ele>868</ele>
        <time>2019-11-29T13:28:17.000Z</time>
      </trkpt>
      <trkpt lat="43.31941" lon="5.67941">
        <ele>868</ele>
        <time>2019-11-29T13:28:18.000Z</time>
      </trkpt>
      <trkpt lat="43.31941" lon="5.67941">
        <ele>868</ele>
        <time>2019-11-29T13:28:19.000Z</time>
      </trkpt>
      <trkpt lat="43.31941" lon="5.67941">
        <ele>868</ele>
        <time>2019-11-29T13:28:20.000Z</time>
      </trkpt>
      <trkpt lat="43.31941" lon="5.67941">
        <ele>868</ele>
        <time>2019-11-29T13:28:21.000Z</time>
      </trkpt>
      <trkpt lat="43.31942" lon="5.6794">
        <ele>868</ele>
        <time>2019-11-29T13:28:22.000Z</time>
      </trkpt>
      <trkpt lat="43.31942" lon="5.67939">
        <ele>868</ele>
        <time>2019-11-29T13:28:23.000Z</time>
      </trkpt>
      <trkpt lat="43.31943" lon="5.67938">
        <ele>868</ele>
        <time>2019-11-29T13:28:24.000Z</time>
      </trkpt>
      <trkpt lat="43.31943" lon="5.67937">
        <ele>868</ele>
        <time>2019-11-29T13:28:25.000Z</time>
      </trkpt>
      <trkpt lat="43.31944" lon="5.67936">
        <ele>868</ele>
        <time>2019-11-29T13:28:26.000Z</time>
      </trkpt>
      <trkpt lat="43.31944" lon="5.67935">
        <ele>868</ele>
        <time>2019-11-29T13:28:27.000Z</time>
      </trkpt>
      <trkpt lat="43.31945" lon="5.67933">
        <ele>868</ele>
        <time>2019-11-29T13:28:28.000Z</time>
      </trkpt>
      <trkpt lat="43.31945" lon="5.67932">
        <ele>868</ele>
        <time>2019-11-29T13:28:29.000Z</time>
      </trkpt>
      <trkpt lat="43.31946" lon="5.67931">
        <ele>868</ele>
        <time>2019-11-29T13:28:30.000Z</time>
      </trkpt>
      <trkpt lat="43.31946" lon="5.6793">
        <ele>868</ele>
        <time>2019-11-29T13:28:31.000Z</time>
      </trkpt>
      <trkpt lat="43.31947" lon="5.67928">
        <ele>868</ele>
        <time>2019-11-29T13:28:32.000Z</time>
      </trkpt>
      <trkpt lat="43.31947" lon="5.67927">
        <ele>868</ele>
        <time>2019-11-29T13:28:33.000Z</time>
      </trkpt>
      <trkpt lat="43.31948" lon="5.67926">
        <ele>868</ele>
        <time>2019-11-29T13:28:34.000Z</time>
      </trkpt>
      <trkpt lat="43.31948" lon="5.67925">
        <ele>868</ele>
        <time>2019-11-29T13:28:35.000Z</time>
      </trkpt>
      <trkpt lat="43.31949" lon="5.67923">
        <ele>868</ele>
        <time>2019-11-29T13:28:36.000Z</time>
      </trkpt>
      <trkpt lat="43.31949" lon="5.67922">
        <ele>868</ele>
        <time>2019-11-29T13:28:37.000Z</time>
      </trkpt>
      <trkpt lat="43.31949" lon="5.6792">
        <ele>868</ele>
        <time>2019-11-29T13:28:38.000Z</time>
      </trkpt>
      <trkpt lat="43.31949" lon="5.67919">
        <ele>868</ele>
        <time>2019-11-29T13:28:39.000Z</time>
      </trkpt>
      <trkpt lat="43.31948" lon="5.67918">
        <ele>868</ele>
        <time>2019-11-29T13:28:40.000Z</time>
      </trkpt>
      <trkpt lat="43.31947" lon="5.67916">
        <ele>869</ele>
        <time>2019-11-29T13:28:41.000Z</time>
      </trkpt>
      <trkpt lat="43.31947" lon="5.67915">
        <ele>869</ele>
        <time>2019-11-29T13:28:42.000Z</time>
      </trkpt>
      <trkpt lat="43.31946" lon="5.67914">
        <ele>869</ele>
        <time>2019-11-29T13:28:43.000Z</time>
      </trkpt>
      <trkpt lat="43.31946" lon="5.67912">
        <ele>869</ele>
        <time>2019-11-29T13:28:44.000Z</time>
      </trkpt>
      <trkpt lat="43.31945" lon="5.67911">
        <ele>869</ele>
        <time>2019-11-29T13:28:45.000Z</time>
      </trkpt>
      <trkpt lat="43.31945" lon="5.67909">
        <ele>869</ele>
        <time>2019-11-29T13:28:46.000Z</time>
      </trkpt>
      <trkpt lat="43.31945" lon="5.67908">
        <ele>869</ele>
        <time>2019-11-29T13:28:47.000Z</time>
      </trkpt>
      <trkpt lat="43.31945" lon="5.67906">
        <ele>869</ele>
        <time>2019-11-29T13:28:48.000Z</time>
      </trkpt>
      <trkpt lat="43.31945" lon="5.67905">
        <ele>869</ele>
        <time>2019-11-29T13:28:49.000Z</time>
      </trkpt>
      <trkpt lat="43.31944" lon="5.67903">
        <ele>869</ele>
        <time>2019-11-29T13:28:50.000Z</time>
      </trkpt>
      <trkpt lat="43.31944" lon="5.67902">
        <ele>869</ele>
        <time>2019-11-29T13:28:51.000Z</time>
      </trkpt>
      <trkpt lat="43.31944" lon="5.679">
        <ele>869</ele>
        <time>2019-11-29T13:28:52.000Z</time>
      </trkpt>
      <trkpt lat="43.31943" lon="5.67899">
        <ele>869</ele>
        <time>2019-11-29T13:28:53.000Z</time>
      </trkpt>
      <trkpt lat="43.31943" lon="5.67898">
        <ele>869</ele>
        <time>2019-11-29T13:28:54.000Z</time>
      </trkpt>
      <trkpt lat="43.31942" lon="5.67896">
        <ele>869</ele>
        <time>2019-11-29T13:28:55.000Z</time>
      </trkpt>
      <trkpt lat="43.31942" lon="5.67895">
        <ele>869</ele>
        <time>2019-11-29T13:28:56.000Z</time>
      </trkpt>
      <trkpt lat="43.31942" lon="5.67893">
        <ele>869</ele>
        <time>2019-11-29T13:28:57.000Z</time>
      </trkpt>
      <trkpt lat="43.31942" lon="5.67892">
        <ele>869</ele>
        <time>2019-11-29T13:28:58.000Z</time>
      </trkpt>
      <trkpt lat="43.31941" lon="5.6789">
        <ele>869</ele>
        <time>2019-11-29T13:28:59.000Z</time>
      </trkpt>
      <trkpt lat="43.31941" lon="5.67889">
        <ele>868</ele>
        <time>2019-11-29T13:29:00.000Z</time>
      </trkpt>
      <trkpt lat="43.31941" lon="5.67887">
        <ele>868</ele>
        <time>2019-11-29T13:29:01.000Z</time>
      </trkpt>
      <trkpt lat="43.31941" lon="5.67886">
        <ele>868</ele>
        <time>2019-11-29T13:29:02.000Z</time>
      </trkpt>
      <trkpt lat="43.31941" lon="5.67884">
        <ele>868</ele>
        <time>2019-11-29T13:29:03.000Z</time>
      </trkpt>
      <trkpt lat="43.31941" lon="5.67883">
        <ele>868</ele>
        <time>2019-11-29T13:29:04.000Z</time>
      </trkpt>
      <trkpt lat="43.31941" lon="5.67882">
        <ele>868</ele>
        <time>2019-11-29T13:29:05.000Z</time>
      </trkpt>
      <trkpt lat="43.31941" lon="5.6788">
        <ele>868</ele>
        <time>2019-11-29T13:29:06.000Z</time>
      </trkpt>
      <trkpt lat="43.31941" lon="5.67879">
        <ele>868</ele>
        <time>2019-11-29T13:29:07.000Z</time>
      </trkpt>
      <trkpt lat="43.31941" lon="5.67877">
        <ele>868</ele>
        <time>2019-11-29T13:29:08.000Z</time>
      </trkpt>
      <trkpt lat="43.31941" lon="5.67876">
        <ele>868</ele>
        <time>2019-11-29T13:29:09.000Z</time>
      </trkpt>
      <trkpt lat="43.31941" lon="5.67874">
        <ele>868</ele>
        <time>2019-11-29T13:29:10.000Z</time>
      </trkpt>
      <trkpt lat="43.31942" lon="5.67872">
        <ele>868</ele>
        <time>2019-11-29T13:29:11.000Z</time>
      </trkpt>
      <trkpt lat="43.31942" lon="5.67871">
        <ele>868</ele>
        <time>2019-11-29T13:29:12.000Z</time>
      </trkpt>
      <trkpt lat="43.31942" lon="5.6787">
        <ele>868</ele>
        <time>2019-11-29T13:29:13.000Z</time>
      </trkpt>
      <trkpt lat="43.31942" lon="5.67868">
        <ele>868</ele>
        <time>2019-11-29T13:29:14.000Z</time>
      </trkpt>
      <trkpt lat="43.31942" lon="5.67867">
        <ele>868</ele>
        <time>2019-11-29T13:29:15.000Z</time>
      </trkpt>
      <trkpt lat="43.31941" lon="5.67865">
        <ele>868</ele>
        <time>2019-11-29T13:29:16.000Z</time>
      </trkpt>
      <trkpt lat="43.31941" lon="5.67864">
        <ele>868</ele>
        <time>2019-11-29T13:29:17.000Z</time>
      </trkpt>
      <trkpt lat="43.31941" lon="5.67862">
        <ele>868</ele>
        <time>2019-11-29T13:29:18.000Z</time>
      </trkpt>
      <trkpt lat="43.31941" lon="5.67861">
        <ele>868</ele>
        <time>2019-11-29T13:29:19.000Z</time>
      </trkpt>
      <trkpt lat="43.31941" lon="5.6786">
        <ele>868</ele>
        <time>2019-11-29T13:29:20.000Z</time>
      </trkpt>
      <trkpt lat="43.3194" lon="5.67859">
        <ele>868</ele>
        <time>2019-11-29T13:29:21.000Z</time>
      </trkpt>
      <trkpt lat="43.3194" lon="5.67857">
        <ele>868</ele>
        <time>2019-11-29T13:29:22.000Z</time>
      </trkpt>
      <trkpt lat="43.31939" lon="5.67856">
        <ele>868</ele>
        <time>2019-11-29T13:29:23.000Z</time>
      </trkpt>
      <trkpt lat="43.31939" lon="5.67854">
        <ele>869</ele>
        <time>2019-11-29T13:29:24.000Z</time>
      </trkpt>
      <trkpt lat="43.31939" lon="5.67853">
        <ele>869</ele>
        <time>2019-11-29T13:29:25.000Z</time>
      </trkpt>
      <trkpt lat="43.31938" lon="5.67852">
        <ele>869</ele>
        <time>2019-11-29T13:29:26.000Z</time>
      </trkpt>
      <trkpt lat="43.31938" lon="5.67851">
        <ele>869</ele>
        <time>2019-11-29T13:29:27.000Z</time>
      </trkpt>
      <trkpt lat="43.31937" lon="5.6785">
        <ele>869</ele>
        <time>2019-11-29T13:29:28.000Z</time>
      </trkpt>
      <trkpt lat="43.31937" lon="5.67849">
        <ele>869</ele>
        <time>2019-11-29T13:29:29.000Z</time>
      </trkpt>
      <trkpt lat="43.31937" lon="5.67848">
        <ele>869</ele>
        <time>2019-11-29T13:29:30.000Z</time>
      </trkpt>
      <trkpt lat="43.31937" lon="5.67847">
        <ele>869</ele>
        <time>2019-11-29T13:29:31.000Z</time>
      </trkpt>
      <trkpt lat="43.31936" lon="5.67845">
        <ele>869</ele>
        <time>2019-11-29T13:29:32.000Z</time>
      </trkpt>
      <trkpt lat="43.31936" lon="5.67845">
        <ele>869</ele>
        <time>2019-11-29T13:29:33.000Z</time>
      </trkpt>
      <trkpt lat="43.31936" lon="5.67843">
        <ele>869</ele>
        <time>2019-11-29T13:29:34.000Z</time>
      </trkpt>
      <trkpt lat="43.31936" lon="5.67842">
        <ele>869</ele>
        <time>2019-11-29T13:29:35.000Z</time>
      </trkpt>
      <trkpt lat="43.31936" lon="5.67841">
        <ele>869</ele>
        <time>2019-11-29T13:29:36.000Z</time>
      </trkpt>
      <trkpt lat="43.31935" lon="5.67839">
        <ele>869</ele>
        <time>2019-11-29T13:29:37.000Z</time>
      </trkpt>
      <trkpt lat="43.31935" lon="5.67838">
        <ele>870</ele>
        <time>2019-11-29T13:29:38.000Z</time>
      </trkpt>
      <trkpt lat="43.31934" lon="5.67837">
        <ele>870</ele>
        <time>2019-11-29T13:29:39.000Z</time>
      </trkpt>
      <trkpt lat="43.31934" lon="5.67835">
        <ele>870</ele>
        <time>2019-11-29T13:29:40.000Z</time>
      </trkpt>
      <trkpt lat="43.31933" lon="5.67834">
        <ele>870</ele>
        <time>2019-11-29T13:29:41.000Z</time>
      </trkpt>
      <trkpt lat="43.31933" lon="5.67832">
        <ele>870</ele>
        <time>2019-11-29T13:29:42.000Z</time>
      </trkpt>
      <trkpt lat="43.31933" lon="5.67831">
        <ele>870</ele>
        <time>2019-11-29T13:29:43.000Z</time>
      </trkpt>
      <trkpt lat="43.31933" lon="5.6783">
        <ele>870</ele>
        <time>2019-11-29T13:29:44.000Z</time>
      </trkpt>
      <trkpt lat="43.31933" lon="5.67829">
        <ele>870</ele>
        <time>2019-11-29T13:29:45.000Z</time>
      </trkpt>
      <trkpt lat="43.31933" lon="5.67828">
        <ele>870</ele>
        <time>2019-11-29T13:29:46.000Z</time>
      </trkpt>
      <trkpt lat="43.31933" lon="5.67827">
        <ele>870</ele>
        <time>2019-11-29T13:29:47.000Z</time>
      </trkpt>
      <trkpt lat="43.31932" lon="5.67825">
        <ele>870</ele>
        <time>2019-11-29T13:29:48.000Z</time>
      </trkpt>
      <trkpt lat="43.31932" lon="5.67824">
        <ele>870</ele>
        <time>2019-11-29T13:29:49.000Z</time>
      </trkpt>
      <trkpt lat="43.31931" lon="5.67823">
        <ele>871</ele>
        <time>2019-11-29T13:29:50.000Z</time>
      </trkpt>
      <trkpt lat="43.31931" lon="5.67822">
        <ele>871</ele>
        <time>2019-11-29T13:29:51.000Z</time>
      </trkpt>
      <trkpt lat="43.31931" lon="5.67822">
        <ele>871</ele>
        <time>2019-11-29T13:29:52.000Z</time>
      </trkpt>
      <trkpt lat="43.3193" lon="5.67821">
        <ele>871</ele>
        <time>2019-11-29T13:29:53.000Z</time>
      </trkpt>
      <trkpt lat="43.3193" lon="5.67819">
        <ele>871</ele>
        <time>2019-11-29T13:29:54.000Z</time>
      </trkpt>
      <trkpt lat="43.31931" lon="5.67818">
        <ele>871</ele>
        <time>2019-11-29T13:29:55.000Z</time>
      </trkpt>
      <trkpt lat="43.31931" lon="5.67817">
        <ele>871</ele>
        <time>2019-11-29T13:29:56.000Z</time>
      </trkpt>
      <trkpt lat="43.31932" lon="5.67815">
        <ele>871</ele>
        <time>2019-11-29T13:29:57.000Z</time>
      </trkpt>
      <trkpt lat="43.31932" lon="5.67814">
        <ele>872</ele>
        <time>2019-11-29T13:29:58.000Z</time>
      </trkpt>
      <trkpt lat="43.31932" lon="5.67813">
        <ele>872</ele>
        <time>2019-11-29T13:29:59.000Z</time>
      </trkpt>
      <trkpt lat="43.31932" lon="5.67812">
        <ele>872</ele>
        <time>2019-11-29T13:30:00.000Z</time>
      </trkpt>
      <trkpt lat="43.31932" lon="5.6781">
        <ele>872</ele>
        <time>2019-11-29T13:30:01.000Z</time>
      </trkpt>
      <trkpt lat="43.31932" lon="5.67809">
        <ele>872</ele>
        <time>2019-11-29T13:30:02.000Z</time>
      </trkpt>
      <trkpt lat="43.31932" lon="5.67808">
        <ele>872</ele>
        <time>2019-11-29T13:30:03.000Z</time>
      </trkpt>
      <trkpt lat="43.31932" lon="5.67806">
        <ele>872</ele>
        <time>2019-11-29T13:30:04.000Z</time>
      </trkpt>
      <trkpt lat="43.31932" lon="5.67805">
        <ele>873</ele>
        <time>2019-11-29T13:30:05.000Z</time>
      </trkpt>
      <trkpt lat="43.31932" lon="5.67803">
        <ele>873</ele>
        <time>2019-11-29T13:30:06.000Z</time>
      </trkpt>
      <trkpt lat="43.31933" lon="5.67802">
        <ele>873</ele>
        <time>2019-11-29T13:30:07.000Z</time>
      </trkpt>
      <trkpt lat="43.31933" lon="5.67801">
        <ele>873</ele>
        <time>2019-11-29T13:30:08.000Z</time>
      </trkpt>
      <trkpt lat="43.31933" lon="5.678">
        <ele>873</ele>
        <time>2019-11-29T13:30:09.000Z</time>
      </trkpt>
      <trkpt lat="43.31932" lon="5.67799">
        <ele>873</ele>
        <time>2019-11-29T13:30:10.000Z</time>
      </trkpt>
      <trkpt lat="43.31932" lon="5.67798">
        <ele>873</ele>
        <time>2019-11-29T13:30:11.000Z</time>
      </trkpt>
      <trkpt lat="43.31932" lon="5.67797">
        <ele>873</ele>
        <time>2019-11-29T13:30:12.000Z</time>
      </trkpt>
      <trkpt lat="43.31931" lon="5.67795">
        <ele>873</ele>
        <time>2019-11-29T13:30:13.000Z</time>
      </trkpt>
      <trkpt lat="43.31931" lon="5.67794">
        <ele>873</ele>
        <time>2019-11-29T13:30:14.000Z</time>
      </trkpt>
      <trkpt lat="43.31931" lon="5.67792">
        <ele>874</ele>
        <time>2019-11-29T13:30:15.000Z</time>
      </trkpt>
      <trkpt lat="43.31931" lon="5.67791">
        <ele>874</ele>
        <time>2019-11-29T13:30:16.000Z</time>
      </trkpt>
      <trkpt lat="43.31931" lon="5.67789">
        <ele>874</ele>
        <time>2019-11-29T13:30:17.000Z</time>
      </trkpt>
      <trkpt lat="43.31932" lon="5.67788">
        <ele>874</ele>
        <time>2019-11-29T13:30:18.000Z</time>
      </trkpt>
      <trkpt lat="43.31932" lon="5.67787">
        <ele>874</ele>
        <time>2019-11-29T13:30:19.000Z</time>
      </trkpt>
      <trkpt lat="43.31932" lon="5.67786">
        <ele>874</ele>
        <time>2019-11-29T13:30:20.000Z</time>
      </trkpt>
      <trkpt lat="43.31933" lon="5.67784">
        <ele>874</ele>
        <time>2019-11-29T13:30:21.000Z</time>
      </trkpt>
      <trkpt lat="43.31933" lon="5.67783">
        <ele>874</ele>
        <time>2019-11-29T13:30:22.000Z</time>
      </trkpt>
      <trkpt lat="43.31933" lon="5.67782">
        <ele>875</ele>
        <time>2019-11-29T13:30:23.000Z</time>
      </trkpt>
      <trkpt lat="43.31933" lon="5.6778">
        <ele>875</ele>
        <time>2019-11-29T13:30:24.000Z</time>
      </trkpt>
      <trkpt lat="43.31933" lon="5.67779">
        <ele>875</ele>
        <time>2019-11-29T13:30:25.000Z</time>
      </trkpt>
      <trkpt lat="43.31933" lon="5.67778">
        <ele>875</ele>
        <time>2019-11-29T13:30:26.000Z</time>
      </trkpt>
      <trkpt lat="43.31932" lon="5.67776">
        <ele>875</ele>
        <time>2019-11-29T13:30:27.000Z</time>
      </trkpt>
      <trkpt lat="43.31932" lon="5.67775">
        <ele>875</ele>
        <time>2019-11-29T13:30:28.000Z</time>
      </trkpt>
      <trkpt lat="43.31933" lon="5.67774">
        <ele>875</ele>
        <time>2019-11-29T13:30:29.000Z</time>
      </trkpt>
      <trkpt lat="43.31933" lon="5.67773">
        <ele>875</ele>
        <time>2019-11-29T13:30:30.000Z</time>
      </trkpt>
      <trkpt lat="43.31932" lon="5.67772">
        <ele>875</ele>
        <time>2019-11-29T13:30:31.000Z</time>
      </trkpt>
      <trkpt lat="43.31932" lon="5.67772">
        <ele>875</ele>
        <time>2019-11-29T13:30:32.000Z</time>
      </trkpt>
      <trkpt lat="43.31932" lon="5.6777">
        <ele>875</ele>
        <time>2019-11-29T13:30:33.000Z</time>
      </trkpt>
      <trkpt lat="43.31932" lon="5.6777">
        <ele>876</ele>
        <time>2019-11-29T13:30:34.000Z</time>
      </trkpt>
      <trkpt lat="43.31932" lon="5.67769">
        <ele>876</ele>
        <time>2019-11-29T13:30:35.000Z</time>
      </trkpt>
      <trkpt lat="43.31932" lon="5.67767">
        <ele>876</ele>
        <time>2019-11-29T13:30:36.000Z</time>
      </trkpt>
      <trkpt lat="43.31932" lon="5.67766">
        <ele>876</ele>
        <time>2019-11-29T13:30:37.000Z</time>
      </trkpt>
      <trkpt lat="43.31932" lon="5.67765">
        <ele>876</ele>
        <time>2019-11-29T13:30:38.000Z</time>
      </trkpt>
      <trkpt lat="43.31932" lon="5.67764">
        <ele>876</ele>
        <time>2019-11-29T13:30:39.000Z</time>
      </trkpt>
      <trkpt lat="43.31931" lon="5.67763">
        <ele>876</ele>
        <time>2019-11-29T13:30:40.000Z</time>
      </trkpt>
      <trkpt lat="43.31932" lon="5.67762">
        <ele>876</ele>
        <time>2019-11-29T13:30:41.000Z</time>
      </trkpt>
      <trkpt lat="43.31932" lon="5.67761">
        <ele>876</ele>
        <time>2019-11-29T13:30:42.000Z</time>
      </trkpt>
      <trkpt lat="43.31932" lon="5.67759">
        <ele>876</ele>
        <time>2019-11-29T13:30:43.000Z</time>
      </trkpt>
      <trkpt lat="43.31932" lon="5.67758">
        <ele>877</ele>
        <time>2019-11-29T13:30:44.000Z</time>
      </trkpt>
      <trkpt lat="43.31932" lon="5.67757">
        <ele>877</ele>
        <time>2019-11-29T13:30:45.000Z</time>
      </trkpt>
      <trkpt lat="43.31931" lon="5.67756">
        <ele>877</ele>
        <time>2019-11-29T13:30:46.000Z</time>
      </trkpt>
      <trkpt lat="43.31931" lon="5.67755">
        <ele>877</ele>
        <time>2019-11-29T13:30:47.000Z</time>
      </trkpt>
      <trkpt lat="43.31931" lon="5.67754">
        <ele>877</ele>
        <time>2019-11-29T13:30:48.000Z</time>
      </trkpt>
      <trkpt lat="43.3193" lon="5.67753">
        <ele>877</ele>
        <time>2019-11-29T13:30:49.000Z</time>
      </trkpt>
      <trkpt lat="43.3193" lon="5.67752">
        <ele>878</ele>
        <time>2019-11-29T13:30:50.000Z</time>
      </trkpt>
      <trkpt lat="43.31929" lon="5.67751">
        <ele>878</ele>
        <time>2019-11-29T13:30:51.000Z</time>
      </trkpt>
      <trkpt lat="43.31929" lon="5.67749">
        <ele>878</ele>
        <time>2019-11-29T13:30:52.000Z</time>
      </trkpt>
      <trkpt lat="43.31929" lon="5.67748">
        <ele>878</ele>
        <time>2019-11-29T13:30:53.000Z</time>
      </trkpt>
      <trkpt lat="43.31929" lon="5.67747">
        <ele>878</ele>
        <time>2019-11-29T13:30:54.000Z</time>
      </trkpt>
      <trkpt lat="43.31929" lon="5.67746">
        <ele>878</ele>
        <time>2019-11-29T13:30:55.000Z</time>
      </trkpt>
      <trkpt lat="43.31928" lon="5.67744">
        <ele>878</ele>
        <time>2019-11-29T13:30:56.000Z</time>
      </trkpt>
      <trkpt lat="43.31929" lon="5.67743">
        <ele>878</ele>
        <time>2019-11-29T13:30:57.000Z</time>
      </trkpt>
      <trkpt lat="43.31929" lon="5.67742">
        <ele>879</ele>
        <time>2019-11-29T13:30:58.000Z</time>
      </trkpt>
      <trkpt lat="43.31929" lon="5.67741">
        <ele>879</ele>
        <time>2019-11-29T13:30:59.000Z</time>
      </trkpt>
      <trkpt lat="43.3193" lon="5.6774">
        <ele>879</ele>
        <time>2019-11-29T13:31:00.000Z</time>
      </trkpt>
      <trkpt lat="43.3193" lon="5.67739">
        <ele>879</ele>
        <time>2019-11-29T13:31:01.000Z</time>
      </trkpt>
      <trkpt lat="43.3193" lon="5.67737">
        <ele>879</ele>
        <time>2019-11-29T13:31:02.000Z</time>
      </trkpt>
      <trkpt lat="43.31931" lon="5.67736">
        <ele>879</ele>
        <time>2019-11-29T13:31:03.000Z</time>
      </trkpt>
      <trkpt lat="43.31931" lon="5.67735">
        <ele>879</ele>
        <time>2019-11-29T13:31:04.000Z</time>
      </trkpt>
      <trkpt lat="43.31931" lon="5.67734">
        <ele>879</ele>
        <time>2019-11-29T13:31:05.000Z</time>
      </trkpt>
      <trkpt lat="43.31932" lon="5.67733">
        <ele>879</ele>
        <time>2019-11-29T13:31:06.000Z</time>
      </trkpt>
      <trkpt lat="43.31932" lon="5.67732">
        <ele>880</ele>
        <time>2019-11-29T13:31:07.000Z</time>
      </trkpt>
      <trkpt lat="43.31933" lon="5.67731">
        <ele>880</ele>
        <time>2019-11-29T13:31:08.000Z</time>
      </trkpt>
      <trkpt lat="43.31933" lon="5.6773">
        <ele>880</ele>
        <time>2019-11-29T13:31:09.000Z</time>
      </trkpt>
      <trkpt lat="43.31933" lon="5.67729">
        <ele>880</ele>
        <time>2019-11-29T13:31:10.000Z</time>
      </trkpt>
      <trkpt lat="43.31933" lon="5.67728">
        <ele>880</ele>
        <time>2019-11-29T13:31:11.000Z</time>
      </trkpt>
      <trkpt lat="43.31933" lon="5.67727">
        <ele>880</ele>
        <time>2019-11-29T13:31:12.000Z</time>
      </trkpt>
      <trkpt lat="43.31933" lon="5.67727">
        <ele>880</ele>
        <time>2019-11-29T13:31:13.000Z</time>
      </trkpt>
      <trkpt lat="43.31933" lon="5.67727">
        <ele>880</ele>
        <time>2019-11-29T13:31:14.000Z</time>
      </trkpt>
      <trkpt lat="43.31932" lon="5.67727">
        <ele>880</ele>
        <time>2019-11-29T13:31:15.000Z</time>
      </trkpt>
      <trkpt lat="43.31932" lon="5.67727">
        <ele>880</ele>
        <time>2019-11-29T13:31:16.000Z</time>
      </trkpt>
      <trkpt lat="43.31932" lon="5.67726">
        <ele>880</ele>
        <time>2019-11-29T13:31:17.000Z</time>
      </trkpt>
      <trkpt lat="43.31932" lon="5.67725">
        <ele>880</ele>
        <time>2019-11-29T13:31:18.000Z</time>
      </trkpt>
      <trkpt lat="43.31932" lon="5.67724">
        <ele>880</ele>
        <time>2019-11-29T13:31:19.000Z</time>
      </trkpt>
      <trkpt lat="43.31932" lon="5.67723">
        <ele>880</ele>
        <time>2019-11-29T13:31:20.000Z</time>
      </trkpt>
      <trkpt lat="43.31933" lon="5.67722">
        <ele>881</ele>
        <time>2019-11-29T13:31:21.000Z</time>
      </trkpt>
      <trkpt lat="43.31933" lon="5.67721">
        <ele>881</ele>
        <time>2019-11-29T13:31:22.000Z</time>
      </trkpt>
      <trkpt lat="43.31933" lon="5.6772">
        <ele>881</ele>
        <time>2019-11-29T13:31:23.000Z</time>
      </trkpt>
      <trkpt lat="43.31933" lon="5.67719">
        <ele>881</ele>
        <time>2019-11-29T13:31:24.000Z</time>
      </trkpt>
      <trkpt lat="43.31932" lon="5.67718">
        <ele>881</ele>
        <time>2019-11-29T13:31:25.000Z</time>
      </trkpt>
      <trkpt lat="43.31932" lon="5.67717">
        <ele>881</ele>
        <time>2019-11-29T13:31:26.000Z</time>
      </trkpt>
      <trkpt lat="43.31932" lon="5.67716">
        <ele>881</ele>
        <time>2019-11-29T13:31:27.000Z</time>
      </trkpt>
      <trkpt lat="43.31932" lon="5.67715">
        <ele>881</ele>
        <time>2019-11-29T13:31:28.000Z</time>
      </trkpt>
      <trkpt lat="43.31932" lon="5.67713">
        <ele>882</ele>
        <time>2019-11-29T13:31:29.000Z</time>
      </trkpt>
      <trkpt lat="43.31932" lon="5.67712">
        <ele>882</ele>
        <time>2019-11-29T13:31:30.000Z</time>
      </trkpt>
      <trkpt lat="43.31932" lon="5.67711">
        <ele>882</ele>
        <time>2019-11-29T13:31:31.000Z</time>
      </trkpt>
      <trkpt lat="43.31932" lon="5.6771">
        <ele>882</ele>
        <time>2019-11-29T13:31:32.000Z</time>
      </trkpt>
      <trkpt lat="43.31932" lon="5.67708">
        <ele>882</ele>
        <time>2019-11-29T13:31:33.000Z</time>
      </trkpt>
      <trkpt lat="43.31933" lon="5.67707">
        <ele>882</ele>
        <time>2019-11-29T13:31:34.000Z</time>
      </trkpt>
      <trkpt lat="43.31933" lon="5.67706">
        <ele>882</ele>
        <time>2019-11-29T13:31:35.000Z</time>
      </trkpt>
      <trkpt lat="43.31933" lon="5.67705">
        <ele>882</ele>
        <time>2019-11-29T13:31:36.000Z</time>
      </trkpt>
      <trkpt lat="43.31934" lon="5.67705">
        <ele>882</ele>
        <time>2019-11-29T13:31:37.000Z</time>
      </trkpt>
      <trkpt lat="43.31933" lon="5.67704">
        <ele>882</ele>
        <time>2019-11-29T13:31:38.000Z</time>
      </trkpt>
      <trkpt lat="43.31933" lon="5.67702">
        <ele>882</ele>
        <time>2019-11-29T13:31:39.000Z</time>
      </trkpt>
      <trkpt lat="43.31933" lon="5.67702">
        <ele>883</ele>
        <time>2019-11-29T13:31:40.000Z</time>
      </trkpt>
      <trkpt lat="43.31933" lon="5.67701">
        <ele>883</ele>
        <time>2019-11-29T13:31:41.000Z</time>
      </trkpt>
      <trkpt lat="43.31933" lon="5.67699">
        <ele>883</ele>
        <time>2019-11-29T13:31:42.000Z</time>
      </trkpt>
      <trkpt lat="43.31933" lon="5.67698">
        <ele>883</ele>
        <time>2019-11-29T13:31:43.000Z</time>
      </trkpt>
      <trkpt lat="43.31933" lon="5.67697">
        <ele>883</ele>
        <time>2019-11-29T13:31:44.000Z</time>
      </trkpt>
      <trkpt lat="43.31933" lon="5.67696">
        <ele>883</ele>
        <time>2019-11-29T13:31:45.000Z</time>
      </trkpt>
      <trkpt lat="43.31933" lon="5.67695">
        <ele>883</ele>
        <time>2019-11-29T13:31:46.000Z</time>
      </trkpt>
      <trkpt lat="43.31933" lon="5.67694">
        <ele>883</ele>
        <time>2019-11-29T13:31:47.000Z</time>
      </trkpt>
      <trkpt lat="43.31933" lon="5.67693">
        <ele>883</ele>
        <time>2019-11-29T13:31:48.000Z</time>
      </trkpt>
      <trkpt lat="43.31933" lon="5.67692">
        <ele>883</ele>
        <time>2019-11-29T13:31:49.000Z</time>
      </trkpt>
      <trkpt lat="43.31933" lon="5.67691">
        <ele>883</ele>
        <time>2019-11-29T13:31:50.000Z</time>
      </trkpt>
      <trkpt lat="43.31934" lon="5.67691">
        <ele>883</ele>
        <time>2019-11-29T13:31:51.000Z</time>
      </trkpt>
      <trkpt lat="43.31934" lon="5.6769">
        <ele>883</ele>
        <time>2019-11-29T13:31:52.000Z</time>
      </trkpt>
      <trkpt lat="43.31934" lon="5.67689">
        <ele>884</ele>
        <time>2019-11-29T13:31:53.000Z</time>
      </trkpt>
      <trkpt lat="43.31934" lon="5.67689">
        <ele>884</ele>
        <time>2019-11-29T13:31:54.000Z</time>
      </trkpt>
      <trkpt lat="43.31935" lon="5.67688">
        <ele>884</ele>
        <time>2019-11-29T13:31:55.000Z</time>
      </trkpt>
      <trkpt lat="43.31935" lon="5.67688">
        <ele>884</ele>
        <time>2019-11-29T13:31:56.000Z</time>
      </trkpt>
      <trkpt lat="43.31936" lon="5.67687">
        <ele>884</ele>
        <time>2019-11-29T13:31:57.000Z</time>
      </trkpt>
      <trkpt lat="43.31937" lon="5.67686">
        <ele>884</ele>
        <time>2019-11-29T13:31:58.000Z</time>
      </trkpt>
      <trkpt lat="43.31937" lon="5.67686">
        <ele>884</ele>
        <time>2019-11-29T13:31:59.000Z</time>
      </trkpt>
      <trkpt lat="43.31937" lon="5.67685">
        <ele>884</ele>
        <time>2019-11-29T13:32:00.000Z</time>
      </trkpt>
      <trkpt lat="43.31938" lon="5.67685">
        <ele>884</ele>
        <time>2019-11-29T13:32:01.000Z</time>
      </trkpt>
      <trkpt lat="43.31938" lon="5.67684">
        <ele>884</ele>
        <time>2019-11-29T13:32:02.000Z</time>
      </trkpt>
      <trkpt lat="43.31939" lon="5.67684">
        <ele>884</ele>
        <time>2019-11-29T13:32:03.000Z</time>
      </trkpt>
      <trkpt lat="43.31939" lon="5.67684">
        <ele>884</ele>
        <time>2019-11-29T13:32:04.000Z</time>
      </trkpt>
      <trkpt lat="43.31939" lon="5.67684">
        <ele>884</ele>
        <time>2019-11-29T13:32:05.000Z</time>
      </trkpt>
      <trkpt lat="43.31939" lon="5.67684">
        <ele>884</ele>
        <time>2019-11-29T13:32:06.000Z</time>
      </trkpt>
      <trkpt lat="43.31939" lon="5.67684">
        <ele>884</ele>
        <time>2019-11-29T13:32:07.000Z</time>
      </trkpt>
      <trkpt lat="43.31939" lon="5.67684">
        <ele>884</ele>
        <time>2019-11-29T13:32:08.000Z</time>
      </trkpt>
      <trkpt lat="43.31939" lon="5.67684">
        <ele>884</ele>
        <time>2019-11-29T13:32:09.000Z</time>
      </trkpt>
      <trkpt lat="43.31939" lon="5.67684">
        <ele>884</ele>
        <time>2019-11-29T13:32:10.000Z</time>
      </trkpt>
      <trkpt lat="43.31939" lon="5.67684">
        <ele>884</ele>
        <time>2019-11-29T13:32:11.000Z</time>
      </trkpt>
      <trkpt lat="43.31939" lon="5.67684">
        <ele>884</ele>
        <time>2019-11-29T13:32:12.000Z</time>
      </trkpt>
      <trkpt lat="43.31939" lon="5.67684">
        <ele>884</ele>
        <time>2019-11-29T13:32:13.000Z</time>
      </trkpt>
      <trkpt lat="43.31939" lon="5.67684">
        <ele>884</ele>
        <time>2019-11-29T13:32:14.000Z</time>
      </trkpt>
      <trkpt lat="43.31939" lon="5.67683">
        <ele>884</ele>
        <time>2019-11-29T13:32:15.000Z</time>
      </trkpt>
      <trkpt lat="43.31939" lon="5.67683">
        <ele>884</ele>
        <time>2019-11-29T13:32:16.000Z</time>
      </trkpt>
      <trkpt lat="43.31939" lon="5.67682">
        <ele>884</ele>
        <time>2019-11-29T13:32:17.000Z</time>
      </trkpt>
      <trkpt lat="43.31938" lon="5.67681">
        <ele>884</ele>
        <time>2019-11-29T13:32:18.000Z</time>
      </trkpt>
      <trkpt lat="43.31938" lon="5.6768">
        <ele>885</ele>
        <time>2019-11-29T13:32:19.000Z</time>
      </trkpt>
      <trkpt lat="43.31937" lon="5.67679">
        <ele>885</ele>
        <time>2019-11-29T13:32:20.000Z</time>
      </trkpt>
      <trkpt lat="43.31937" lon="5.67679">
        <ele>885</ele>
        <time>2019-11-29T13:32:21.000Z</time>
      </trkpt>
      <trkpt lat="43.31936" lon="5.67678">
        <ele>885</ele>
        <time>2019-11-29T13:32:22.000Z</time>
      </trkpt>
      <trkpt lat="43.31936" lon="5.67678">
        <ele>885</ele>
        <time>2019-11-29T13:32:23.000Z</time>
      </trkpt>
      <trkpt lat="43.31935" lon="5.67677">
        <ele>885</ele>
        <time>2019-11-29T13:32:24.000Z</time>
      </trkpt>
      <trkpt lat="43.31935" lon="5.67676">
        <ele>885</ele>
        <time>2019-11-29T13:32:25.000Z</time>
      </trkpt>
      <trkpt lat="43.31935" lon="5.67675">
        <ele>886</ele>
        <time>2019-11-29T13:32:26.000Z</time>
      </trkpt>
      <trkpt lat="43.31934" lon="5.67675">
        <ele>886</ele>
        <time>2019-11-29T13:32:27.000Z</time>
      </trkpt>
      <trkpt lat="43.31934" lon="5.67674">
        <ele>886</ele>
        <time>2019-11-29T13:32:28.000Z</time>
      </trkpt>
      <trkpt lat="43.31933" lon="5.67674">
        <ele>886</ele>
        <time>2019-11-29T13:32:29.000Z</time>
      </trkpt>
      <trkpt lat="43.31932" lon="5.67673">
        <ele>886</ele>
        <time>2019-11-29T13:32:30.000Z</time>
      </trkpt>
      <trkpt lat="43.31932" lon="5.67672">
        <ele>887</ele>
        <time>2019-11-29T13:32:31.000Z</time>
      </trkpt>
      <trkpt lat="43.31932" lon="5.67671">
        <ele>887</ele>
        <time>2019-11-29T13:32:32.000Z</time>
      </trkpt>
      <trkpt lat="43.31932" lon="5.6767">
        <ele>887</ele>
        <time>2019-11-29T13:32:33.000Z</time>
      </trkpt>
      <trkpt lat="43.31932" lon="5.6767">
        <ele>887</ele>
        <time>2019-11-29T13:32:34.000Z</time>
      </trkpt>
      <trkpt lat="43.31932" lon="5.67669">
        <ele>887</ele>
        <time>2019-11-29T13:32:35.000Z</time>
      </trkpt>
      <trkpt lat="43.31933" lon="5.67668">
        <ele>887</ele>
        <time>2019-11-29T13:32:36.000Z</time>
      </trkpt>
      <trkpt lat="43.31933" lon="5.67668">
        <ele>887</ele>
        <time>2019-11-29T13:32:37.000Z</time>
      </trkpt>
      <trkpt lat="43.31933" lon="5.67667">
        <ele>888</ele>
        <time>2019-11-29T13:32:38.000Z</time>
      </trkpt>
      <trkpt lat="43.31933" lon="5.67666">
        <ele>888</ele>
        <time>2019-11-29T13:32:39.000Z</time>
      </trkpt>
      <trkpt lat="43.31934" lon="5.67666">
        <ele>888</ele>
        <time>2019-11-29T13:32:40.000Z</time>
      </trkpt>
      <trkpt lat="43.31934" lon="5.67665">
        <ele>888</ele>
        <time>2019-11-29T13:32:41.000Z</time>
      </trkpt>
      <trkpt lat="43.31935" lon="5.67664">
        <ele>888</ele>
        <time>2019-11-29T13:32:42.000Z</time>
      </trkpt>
      <trkpt lat="43.31935" lon="5.67664">
        <ele>888</ele>
        <time>2019-11-29T13:32:43.000Z</time>
      </trkpt>
      <trkpt lat="43.31935" lon="5.67663">
        <ele>889</ele>
        <time>2019-11-29T13:32:44.000Z</time>
      </trkpt>
      <trkpt lat="43.31935" lon="5.67662">
        <ele>889</ele>
        <time>2019-11-29T13:32:45.000Z</time>
      </trkpt>
      <trkpt lat="43.31935" lon="5.67661">
        <ele>889</ele>
        <time>2019-11-29T13:32:46.000Z</time>
      </trkpt>
      <trkpt lat="43.31935" lon="5.6766">
        <ele>889</ele>
        <time>2019-11-29T13:32:47.000Z</time>
      </trkpt>
      <trkpt lat="43.31935" lon="5.67659">
        <ele>890</ele>
        <time>2019-11-29T13:32:48.000Z</time>
      </trkpt>
      <trkpt lat="43.31935" lon="5.67659">
        <ele>890</ele>
        <time>2019-11-29T13:32:49.000Z</time>
      </trkpt>
      <trkpt lat="43.31935" lon="5.67658">
        <ele>890</ele>
        <time>2019-11-29T13:32:50.000Z</time>
      </trkpt>
      <trkpt lat="43.31935" lon="5.67658">
        <ele>890</ele>
        <time>2019-11-29T13:32:51.000Z</time>
      </trkpt>
      <trkpt lat="43.31934" lon="5.67657">
        <ele>890</ele>
        <time>2019-11-29T13:32:52.000Z</time>
      </trkpt>
      <trkpt lat="43.31934" lon="5.67656">
        <ele>891</ele>
        <time>2019-11-29T13:32:53.000Z</time>
      </trkpt>
      <trkpt lat="43.31934" lon="5.67655">
        <ele>891</ele>
        <time>2019-11-29T13:32:54.000Z</time>
      </trkpt>
      <trkpt lat="43.31934" lon="5.67654">
        <ele>891</ele>
        <time>2019-11-29T13:32:55.000Z</time>
      </trkpt>
      <trkpt lat="43.31934" lon="5.67653">
        <ele>891</ele>
        <time>2019-11-29T13:32:56.000Z</time>
      </trkpt>
      <trkpt lat="43.31934" lon="5.67653">
        <ele>891</ele>
        <time>2019-11-29T13:32:57.000Z</time>
      </trkpt>
      <trkpt lat="43.31934" lon="5.67652">
        <ele>891</ele>
        <time>2019-11-29T13:32:58.000Z</time>
      </trkpt>
      <trkpt lat="43.31934" lon="5.67652">
        <ele>892</ele>
        <time>2019-11-29T13:32:59.000Z</time>
      </trkpt>
      <trkpt lat="43.31934" lon="5.67652">
        <ele>892</ele>
        <time>2019-11-29T13:33:00.000Z</time>
      </trkpt>
      <trkpt lat="43.31934" lon="5.67652">
        <ele>892</ele>
        <time>2019-11-29T13:33:01.000Z</time>
      </trkpt>
      <trkpt lat="43.31934" lon="5.67652">
        <ele>892</ele>
        <time>2019-11-29T13:33:02.000Z</time>
      </trkpt>
      <trkpt lat="43.31934" lon="5.67652">
        <ele>892</ele>
        <time>2019-11-29T13:33:03.000Z</time>
      </trkpt>
      <trkpt lat="43.31934" lon="5.67652">
        <ele>892</ele>
        <time>2019-11-29T13:33:04.000Z</time>
      </trkpt>
      <trkpt lat="43.31934" lon="5.67652">
        <ele>892</ele>
        <time>2019-11-29T13:33:05.000Z</time>
      </trkpt>
      <trkpt lat="43.31934" lon="5.67652">
        <ele>892</ele>
        <time>2019-11-29T13:33:06.000Z</time>
      </trkpt>
      <trkpt lat="43.31934" lon="5.67652">
        <ele>892</ele>
        <time>2019-11-29T13:33:07.000Z</time>
      </trkpt>
      <trkpt lat="43.31934" lon="5.67652">
        <ele>892</ele>
        <time>2019-11-29T13:33:08.000Z</time>
      </trkpt>
      <trkpt lat="43.31934" lon="5.67652">
        <ele>892</ele>
        <time>2019-11-29T13:33:09.000Z</time>
      </trkpt>
      <trkpt lat="43.31934" lon="5.67652">
        <ele>892</ele>
        <time>2019-11-29T13:33:10.000Z</time>
      </trkpt>
      <trkpt lat="43.31934" lon="5.67652">
        <ele>892</ele>
        <time>2019-11-29T13:33:11.000Z</time>
      </trkpt>
      <trkpt lat="43.31934" lon="5.67652">
        <ele>892</ele>
        <time>2019-11-29T13:33:12.000Z</time>
      </trkpt>
      <trkpt lat="43.31934" lon="5.67652">
        <ele>892</ele>
        <time>2019-11-29T13:33:13.000Z</time>
      </trkpt>
      <trkpt lat="43.31934" lon="5.67652">
        <ele>893</ele>
        <time>2019-11-29T13:33:14.000Z</time>
      </trkpt>
      <trkpt lat="43.31934" lon="5.67651">
        <ele>893</ele>
        <time>2019-11-29T13:33:15.000Z</time>
      </trkpt>
      <trkpt lat="43.31934" lon="5.6765">
        <ele>893</ele>
        <time>2019-11-29T13:33:16.000Z</time>
      </trkpt>
      <trkpt lat="43.31934" lon="5.67649">
        <ele>893</ele>
        <time>2019-11-29T13:33:17.000Z</time>
      </trkpt>
      <trkpt lat="43.31934" lon="5.67648">
        <ele>893</ele>
        <time>2019-11-29T13:33:18.000Z</time>
      </trkpt>
      <trkpt lat="43.31935" lon="5.67647">
        <ele>893</ele>
        <time>2019-11-29T13:33:19.000Z</time>
      </trkpt>
      <trkpt lat="43.31935" lon="5.67646">
        <ele>893</ele>
        <time>2019-11-29T13:33:20.000Z</time>
      </trkpt>
      <trkpt lat="43.31935" lon="5.67645">
        <ele>893</ele>
        <time>2019-11-29T13:33:21.000Z</time>
      </trkpt>
      <trkpt lat="43.31935" lon="5.67644">
        <ele>893</ele>
        <time>2019-11-29T13:33:22.000Z</time>
      </trkpt>
      <trkpt lat="43.31935" lon="5.67643">
        <ele>893</ele>
        <time>2019-11-29T13:33:23.000Z</time>
      </trkpt>
      <trkpt lat="43.31934" lon="5.67642">
        <ele>893</ele>
        <time>2019-11-29T13:33:24.000Z</time>
      </trkpt>
      <trkpt lat="43.31934" lon="5.67641">
        <ele>894</ele>
        <time>2019-11-29T13:33:25.000Z</time>
      </trkpt>
      <trkpt lat="43.31934" lon="5.6764">
        <ele>894</ele>
        <time>2019-11-29T13:33:26.000Z</time>
      </trkpt>
      <trkpt lat="43.31934" lon="5.67639">
        <ele>894</ele>
        <time>2019-11-29T13:33:27.000Z</time>
      </trkpt>
      <trkpt lat="43.31934" lon="5.67639">
        <ele>894</ele>
        <time>2019-11-29T13:33:28.000Z</time>
      </trkpt>
      <trkpt lat="43.31933" lon="5.67637">
        <ele>894</ele>
        <time>2019-11-29T13:33:29.000Z</time>
      </trkpt>
      <trkpt lat="43.31933" lon="5.67636">
        <ele>894</ele>
        <time>2019-11-29T13:33:30.000Z</time>
      </trkpt>
      <trkpt lat="43.31933" lon="5.67636">
        <ele>895</ele>
        <time>2019-11-29T13:33:31.000Z</time>
      </trkpt>
      <trkpt lat="43.31933" lon="5.67635">
        <ele>895</ele>
        <time>2019-11-29T13:33:32.000Z</time>
      </trkpt>
      <trkpt lat="43.31933" lon="5.67634">
        <ele>895</ele>
        <time>2019-11-29T13:33:33.000Z</time>
      </trkpt>
      <trkpt lat="43.31932" lon="5.67633">
        <ele>895</ele>
        <time>2019-11-29T13:33:34.000Z</time>
      </trkpt>
      <trkpt lat="43.31932" lon="5.67632">
        <ele>895</ele>
        <time>2019-11-29T13:33:35.000Z</time>
      </trkpt>
      <trkpt lat="43.31932" lon="5.67631">
        <ele>895</ele>
        <time>2019-11-29T13:33:36.000Z</time>
      </trkpt>
      <trkpt lat="43.31933" lon="5.6763">
        <ele>895</ele>
        <time>2019-11-29T13:33:37.000Z</time>
      </trkpt>
      <trkpt lat="43.31933" lon="5.6763">
        <ele>895</ele>
        <time>2019-11-29T13:33:38.000Z</time>
      </trkpt>
      <trkpt lat="43.31933" lon="5.67629">
        <ele>896</ele>
        <time>2019-11-29T13:33:39.000Z</time>
      </trkpt>
      <trkpt lat="43.31933" lon="5.67628">
        <ele>896</ele>
        <time>2019-11-29T13:33:40.000Z</time>
      </trkpt>
      <trkpt lat="43.31933" lon="5.67628">
        <ele>896</ele>
        <time>2019-11-29T13:33:41.000Z</time>
      </trkpt>
      <trkpt lat="43.31932" lon="5.67627">
        <ele>896</ele>
        <time>2019-11-29T13:33:42.000Z</time>
      </trkpt>
      <trkpt lat="43.31932" lon="5.67626">
        <ele>896</ele>
        <time>2019-11-29T13:33:43.000Z</time>
      </trkpt>
      <trkpt lat="43.31932" lon="5.67625">
        <ele>896</ele>
        <time>2019-11-29T13:33:44.000Z</time>
      </trkpt>
      <trkpt lat="43.31932" lon="5.67625">
        <ele>897</ele>
        <time>2019-11-29T13:33:45.000Z</time>
      </trkpt>
      <trkpt lat="43.31933" lon="5.67623">
        <ele>897</ele>
        <time>2019-11-29T13:33:46.000Z</time>
      </trkpt>
      <trkpt lat="43.31933" lon="5.67623">
        <ele>897</ele>
        <time>2019-11-29T13:33:47.000Z</time>
      </trkpt>
      <trkpt lat="43.31933" lon="5.67622">
        <ele>897</ele>
        <time>2019-11-29T13:33:48.000Z</time>
      </trkpt>
      <trkpt lat="43.31933" lon="5.67621">
        <ele>898</ele>
        <time>2019-11-29T13:33:49.000Z</time>
      </trkpt>
      <trkpt lat="43.31933" lon="5.6762">
        <ele>898</ele>
        <time>2019-11-29T13:33:50.000Z</time>
      </trkpt>
      <trkpt lat="43.31933" lon="5.67619">
        <ele>898</ele>
        <time>2019-11-29T13:33:51.000Z</time>
      </trkpt>
      <trkpt lat="43.31933" lon="5.67619">
        <ele>898</ele>
        <time>2019-11-29T13:33:52.000Z</time>
      </trkpt>
      <trkpt lat="43.31934" lon="5.67618">
        <ele>899</ele>
        <time>2019-11-29T13:33:53.000Z</time>
      </trkpt>
      <trkpt lat="43.31934" lon="5.67617">
        <ele>899</ele>
        <time>2019-11-29T13:33:54.000Z</time>
      </trkpt>
      <trkpt lat="43.31934" lon="5.67616">
        <ele>899</ele>
        <time>2019-11-29T13:33:55.000Z</time>
      </trkpt>
      <trkpt lat="43.31935" lon="5.67615">
        <ele>899</ele>
        <time>2019-11-29T13:33:56.000Z</time>
      </trkpt>
      <trkpt lat="43.31935" lon="5.67614">
        <ele>899</ele>
        <time>2019-11-29T13:33:57.000Z</time>
      </trkpt>
      <trkpt lat="43.31935" lon="5.67614">
        <ele>899</ele>
        <time>2019-11-29T13:33:58.000Z</time>
      </trkpt>
      <trkpt lat="43.31935" lon="5.67613">
        <ele>899</ele>
        <time>2019-11-29T13:33:59.000Z</time>
      </trkpt>
      <trkpt lat="43.31936" lon="5.67612">
        <ele>899</ele>
        <time>2019-11-29T13:34:00.000Z</time>
      </trkpt>
      <trkpt lat="43.31936" lon="5.67612">
        <ele>900</ele>
        <time>2019-11-29T13:34:01.000Z</time>
      </trkpt>
      <trkpt lat="43.31936" lon="5.67612">
        <ele>900</ele>
        <time>2019-11-29T13:34:02.000Z</time>
      </trkpt>
      <trkpt lat="43.31935" lon="5.67612">
        <ele>900</ele>
        <time>2019-11-29T13:34:03.000Z</time>
      </trkpt>
      <trkpt lat="43.31935" lon="5.67612">
        <ele>900</ele>
        <time>2019-11-29T13:34:04.000Z</time>
      </trkpt>
      <trkpt lat="43.31935" lon="5.67612">
        <ele>900</ele>
        <time>2019-11-29T13:34:05.000Z</time>
      </trkpt>
      <trkpt lat="43.31935" lon="5.67611">
        <ele>900</ele>
        <time>2019-11-29T13:34:06.000Z</time>
      </trkpt>
      <trkpt lat="43.31935" lon="5.67611">
        <ele>900</ele>
        <time>2019-11-29T13:34:07.000Z</time>
      </trkpt>
      <trkpt lat="43.31935" lon="5.67611">
        <ele>900</ele>
        <time>2019-11-29T13:34:08.000Z</time>
      </trkpt>
      <trkpt lat="43.31936" lon="5.67611">
        <ele>900</ele>
        <time>2019-11-29T13:34:09.000Z</time>
      </trkpt>
      <trkpt lat="43.31936" lon="5.6761">
        <ele>900</ele>
        <time>2019-11-29T13:34:10.000Z</time>
      </trkpt>
      <trkpt lat="43.31936" lon="5.67609">
        <ele>900</ele>
        <time>2019-11-29T13:34:11.000Z</time>
      </trkpt>
      <trkpt lat="43.31937" lon="5.67609">
        <ele>900</ele>
        <time>2019-11-29T13:34:12.000Z</time>
      </trkpt>
      <trkpt lat="43.31937" lon="5.67608">
        <ele>900</ele>
        <time>2019-11-29T13:34:13.000Z</time>
      </trkpt>
      <trkpt lat="43.31937" lon="5.67607">
        <ele>901</ele>
        <time>2019-11-29T13:34:14.000Z</time>
      </trkpt>
      <trkpt lat="43.31938" lon="5.67607">
        <ele>901</ele>
        <time>2019-11-29T13:34:15.000Z</time>
      </trkpt>
      <trkpt lat="43.31939" lon="5.67606">
        <ele>901</ele>
        <time>2019-11-29T13:34:16.000Z</time>
      </trkpt>
      <trkpt lat="43.31939" lon="5.67605">
        <ele>901</ele>
        <time>2019-11-29T13:34:17.000Z</time>
      </trkpt>
      <trkpt lat="43.31939" lon="5.67604">
        <ele>902</ele>
        <time>2019-11-29T13:34:18.000Z</time>
      </trkpt>
      <trkpt lat="43.31939" lon="5.67604">
        <ele>902</ele>
        <time>2019-11-29T13:34:19.000Z</time>
      </trkpt>
      <trkpt lat="43.31938" lon="5.67604">
        <ele>902</ele>
        <time>2019-11-29T13:34:20.000Z</time>
      </trkpt>
      <trkpt lat="43.31938" lon="5.67604">
        <ele>902</ele>
        <time>2019-11-29T13:34:21.000Z</time>
      </trkpt>
      <trkpt lat="43.31938" lon="5.67603">
        <ele>902</ele>
        <time>2019-11-29T13:34:22.000Z</time>
      </trkpt>
      <trkpt lat="43.31937" lon="5.67602">
        <ele>901</ele>
        <time>2019-11-29T13:34:23.000Z</time>
      </trkpt>
      <trkpt lat="43.31936" lon="5.67602">
        <ele>901</ele>
        <time>2019-11-29T13:34:24.000Z</time>
      </trkpt>
      <trkpt lat="43.31936" lon="5.67601">
        <ele>902</ele>
        <time>2019-11-29T13:34:25.000Z</time>
      </trkpt>
      <trkpt lat="43.31935" lon="5.676">
        <ele>902</ele>
        <time>2019-11-29T13:34:26.000Z</time>
      </trkpt>
      <trkpt lat="43.31935" lon="5.67599">
        <ele>902</ele>
        <time>2019-11-29T13:34:27.000Z</time>
      </trkpt>
      <trkpt lat="43.31935" lon="5.67598">
        <ele>902</ele>
        <time>2019-11-29T13:34:28.000Z</time>
      </trkpt>
      <trkpt lat="43.31934" lon="5.67597">
        <ele>902</ele>
        <time>2019-11-29T13:34:29.000Z</time>
      </trkpt>
      <trkpt lat="43.31934" lon="5.67596">
        <ele>902</ele>
        <time>2019-11-29T13:34:30.000Z</time>
      </trkpt>
      <trkpt lat="43.31934" lon="5.67595">
        <ele>902</ele>
        <time>2019-11-29T13:34:31.000Z</time>
      </trkpt>
      <trkpt lat="43.31934" lon="5.67594">
        <ele>902</ele>
        <time>2019-11-29T13:34:32.000Z</time>
      </trkpt>
      <trkpt lat="43.31934" lon="5.67593">
        <ele>902</ele>
        <time>2019-11-29T13:34:33.000Z</time>
      </trkpt>
      <trkpt lat="43.31934" lon="5.67592">
        <ele>902</ele>
        <time>2019-11-29T13:34:34.000Z</time>
      </trkpt>
      <trkpt lat="43.31934" lon="5.67591">
        <ele>903</ele>
        <time>2019-11-29T13:34:35.000Z</time>
      </trkpt>
      <trkpt lat="43.31934" lon="5.6759">
        <ele>903</ele>
        <time>2019-11-29T13:34:36.000Z</time>
      </trkpt>
      <trkpt lat="43.31934" lon="5.67589">
        <ele>903</ele>
        <time>2019-11-29T13:34:37.000Z</time>
      </trkpt>
      <trkpt lat="43.31934" lon="5.67588">
        <ele>903</ele>
        <time>2019-11-29T13:34:38.000Z</time>
      </trkpt>
      <trkpt lat="43.31935" lon="5.67588">
        <ele>903</ele>
        <time>2019-11-29T13:34:39.000Z</time>
      </trkpt>
      <trkpt lat="43.31935" lon="5.67588">
        <ele>903</ele>
        <time>2019-11-29T13:34:40.000Z</time>
      </trkpt>
      <trkpt lat="43.31935" lon="5.67588">
        <ele>903</ele>
        <time>2019-11-29T13:34:41.000Z</time>
      </trkpt>
      <trkpt lat="43.31935" lon="5.67588">
        <ele>903</ele>
        <time>2019-11-29T13:34:42.000Z</time>
      </trkpt>
      <trkpt lat="43.31935" lon="5.67588">
        <ele>903</ele>
        <time>2019-11-29T13:34:43.000Z</time>
      </trkpt>
      <trkpt lat="43.31936" lon="5.67588">
        <ele>903</ele>
        <time>2019-11-29T13:34:44.000Z</time>
      </trkpt>
      <trkpt lat="43.31936" lon="5.67588">
        <ele>903</ele>
        <time>2019-11-29T13:34:45.000Z</time>
      </trkpt>
      <trkpt lat="43.31936" lon="5.67589">
        <ele>903</ele>
        <time>2019-11-29T13:34:46.000Z</time>
      </trkpt>
      <trkpt lat="43.31936" lon="5.67589">
        <ele>904</ele>
        <time>2019-11-29T13:34:47.000Z</time>
      </trkpt>
      <trkpt lat="43.31936" lon="5.67589">
        <ele>904</ele>
        <time>2019-11-29T13:34:48.000Z</time>
      </trkpt>
      <trkpt lat="43.31937" lon="5.67589">
        <ele>904</ele>
        <time>2019-11-29T13:34:49.000Z</time>
      </trkpt>
      <trkpt lat="43.31937" lon="5.67589">
        <ele>904</ele>
        <time>2019-11-29T13:34:50.000Z</time>
      </trkpt>
      <trkpt lat="43.31937" lon="5.67589">
        <ele>904</ele>
        <time>2019-11-29T13:34:51.000Z</time>
      </trkpt>
      <trkpt lat="43.31937" lon="5.67589">
        <ele>904</ele>
        <time>2019-11-29T13:34:52.000Z</time>
      </trkpt>
      <trkpt lat="43.31936" lon="5.67589">
        <ele>904</ele>
        <time>2019-11-29T13:34:53.000Z</time>
      </trkpt>
      <trkpt lat="43.31936" lon="5.67589">
        <ele>904</ele>
        <time>2019-11-29T13:34:54.000Z</time>
      </trkpt>
      <trkpt lat="43.31936" lon="5.67589">
        <ele>904</ele>
        <time>2019-11-29T13:34:55.000Z</time>
      </trkpt>
      <trkpt lat="43.31936" lon="5.67589">
        <ele>904</ele>
        <time>2019-11-29T13:34:56.000Z</time>
      </trkpt>
      <trkpt lat="43.31936" lon="5.67589">
        <ele>904</ele>
        <time>2019-11-29T13:34:57.000Z</time>
      </trkpt>
      <trkpt lat="43.31936" lon="5.67589">
        <ele>904</ele>
        <time>2019-11-29T13:34:58.000Z</time>
      </trkpt>
      <trkpt lat="43.31936" lon="5.67589">
        <ele>904</ele>
        <time>2019-11-29T13:34:59.000Z</time>
      </trkpt>
      <trkpt lat="43.31936" lon="5.67589">
        <ele>904</ele>
        <time>2019-11-29T13:35:00.000Z</time>
      </trkpt>
      <trkpt lat="43.31936" lon="5.67589">
        <ele>904</ele>
        <time>2019-11-29T13:35:01.000Z</time>
      </trkpt>
      <trkpt lat="43.31936" lon="5.67589">
        <ele>904</ele>
        <time>2019-11-29T13:35:02.000Z</time>
      </trkpt>
      <trkpt lat="43.31936" lon="5.67589">
        <ele>904</ele>
        <time>2019-11-29T13:35:03.000Z</time>
      </trkpt>
      <trkpt lat="43.31936" lon="5.67589">
        <ele>904</ele>
        <time>2019-11-29T13:35:04.000Z</time>
      </trkpt>
      <trkpt lat="43.31936" lon="5.67589">
        <ele>904</ele>
        <time>2019-11-29T13:35:05.000Z</time>
      </trkpt>
      <trkpt lat="43.31936" lon="5.67589">
        <ele>904</ele>
        <time>2019-11-29T13:35:06.000Z</time>
      </trkpt>
      <trkpt lat="43.31936" lon="5.67589">
        <ele>904</ele>
        <time>2019-11-29T13:35:07.000Z</time>
      </trkpt>
      <trkpt lat="43.31936" lon="5.67589">
        <ele>904</ele>
        <time>2019-11-29T13:35:08.000Z</time>
      </trkpt>
      <trkpt lat="43.31936" lon="5.67589">
        <ele>904</ele>
        <time>2019-11-29T13:35:09.000Z</time>
      </trkpt>
      <trkpt lat="43.31936" lon="5.67589">
        <ele>904</ele>
        <time>2019-11-29T13:35:10.000Z</time>
      </trkpt>
      <trkpt lat="43.31936" lon="5.67589">
        <ele>904</ele>
        <time>2019-11-29T13:35:11.000Z</time>
      </trkpt>
      <trkpt lat="43.31935" lon="5.67589">
        <ele>904</ele>
        <time>2019-11-29T13:35:12.000Z</time>
      </trkpt>
      <trkpt lat="43.31935" lon="5.67589">
        <ele>904</ele>
        <time>2019-11-29T13:35:13.000Z</time>
      </trkpt>
      <trkpt lat="43.31935" lon="5.67589">
        <ele>904</ele>
        <time>2019-11-29T13:35:14.000Z</time>
      </trkpt>
      <trkpt lat="43.31935" lon="5.67589">
        <ele>904</ele>
        <time>2019-11-29T13:35:15.000Z</time>
      </trkpt>
      <trkpt lat="43.31935" lon="5.67589">
        <ele>904</ele>
        <time>2019-11-29T13:35:16.000Z</time>
      </trkpt>
      <trkpt lat="43.31935" lon="5.67589">
        <ele>904</ele>
        <time>2019-11-29T13:35:17.000Z</time>
      </trkpt>
      <trkpt lat="43.31935" lon="5.67589">
        <ele>904</ele>
        <time>2019-11-29T13:35:18.000Z</time>
      </trkpt>
      <trkpt lat="43.31935" lon="5.67589">
        <ele>904</ele>
        <time>2019-11-29T13:35:19.000Z</time>
      </trkpt>
      <trkpt lat="43.31935" lon="5.67589">
        <ele>904</ele>
        <time>2019-11-29T13:35:20.000Z</time>
      </trkpt>
      <trkpt lat="43.31935" lon="5.67588">
        <ele>904</ele>
        <time>2019-11-29T13:35:21.000Z</time>
      </trkpt>
      <trkpt lat="43.31935" lon="5.67588">
        <ele>904</ele>
        <time>2019-11-29T13:35:22.000Z</time>
      </trkpt>
      <trkpt lat="43.31935" lon="5.67588">
        <ele>904</ele>
        <time>2019-11-29T13:35:23.000Z</time>
      </trkpt>
      <trkpt lat="43.31935" lon="5.67589">
        <ele>904</ele>
        <time>2019-11-29T13:35:24.000Z</time>
      </trkpt>
      <trkpt lat="43.31935" lon="5.67588">
        <ele>904</ele>
        <time>2019-11-29T13:35:25.000Z</time>
      </trkpt>
      <trkpt lat="43.31935" lon="5.67588">
        <ele>904</ele>
        <time>2019-11-29T13:35:26.000Z</time>
      </trkpt>
      <trkpt lat="43.31935" lon="5.67588">
        <ele>904</ele>
        <time>2019-11-29T13:35:27.000Z</time>
      </trkpt>
      <trkpt lat="43.31935" lon="5.67588">
        <ele>904</ele>
        <time>2019-11-29T13:35:28.000Z</time>
      </trkpt>
      <trkpt lat="43.31935" lon="5.67588">
        <ele>904</ele>
        <time>2019-11-29T13:35:29.000Z</time>
      </trkpt>
      <trkpt lat="43.31935" lon="5.67588">
        <ele>904</ele>
        <time>2019-11-29T13:35:30.000Z</time>
      </trkpt>
      <trkpt lat="43.31935" lon="5.67589">
        <ele>904</ele>
        <time>2019-11-29T13:35:31.000Z</time>
      </trkpt>
      <trkpt lat="43.31935" lon="5.67588">
        <ele>904</ele>
        <time>2019-11-29T13:35:32.000Z</time>
      </trkpt>
      <trkpt lat="43.31935" lon="5.67588">
        <ele>904</ele>
        <time>2019-11-29T13:35:33.000Z</time>
      </trkpt>
      <trkpt lat="43.31935" lon="5.67588">
        <ele>904</ele>
        <time>2019-11-29T13:35:34.000Z</time>
      </trkpt>
      <trkpt lat="43.31935" lon="5.67588">
        <ele>904</ele>
        <time>2019-11-29T13:35:35.000Z</time>
      </trkpt>
      <trkpt lat="43.31935" lon="5.67588">
        <ele>904</ele>
        <time>2019-11-29T13:35:36.000Z</time>
      </trkpt>
      <trkpt lat="43.31935" lon="5.67588">
        <ele>904</ele>
        <time>2019-11-29T13:35:37.000Z</time>
      </trkpt>
      <trkpt lat="43.31935" lon="5.67588">
        <ele>904</ele>
        <time>2019-11-29T13:35:38.000Z</time>
      </trkpt>
      <trkpt lat="43.31935" lon="5.67588">
        <ele>904</ele>
        <time>2019-11-29T13:35:39.000Z</time>
      </trkpt>
      <trkpt lat="43.31935" lon="5.67588">
        <ele>904</ele>
        <time>2019-11-29T13:35:40.000Z</time>
      </trkpt>
      <trkpt lat="43.31935" lon="5.67588">
        <ele>904</ele>
        <time>2019-11-29T13:35:41.000Z</time>
      </trkpt>
      <trkpt lat="43.31935" lon="5.67588">
        <ele>904</ele>
        <time>2019-11-29T13:35:42.000Z</time>
      </trkpt>
      <trkpt lat="43.31935" lon="5.67588">
        <ele>904</ele>
        <time>2019-11-29T13:35:43.000Z</time>
      </trkpt>
      <trkpt lat="43.31935" lon="5.67588">
        <ele>904</ele>
        <time>2019-11-29T13:35:44.000Z</time>
      </trkpt>
      <trkpt lat="43.31935" lon="5.67588">
        <ele>904</ele>
        <time>2019-11-29T13:35:45.000Z</time>
      </trkpt>
      <trkpt lat="43.31935" lon="5.67588">
        <ele>904</ele>
        <time>2019-11-29T13:35:46.000Z</time>
      </trkpt>
      <trkpt lat="43.31935" lon="5.67588">
        <ele>904</ele>
        <time>2019-11-29T13:35:47.000Z</time>
      </trkpt>
      <trkpt lat="43.31935" lon="5.67588">
        <ele>904</ele>
        <time>2019-11-29T13:35:48.000Z</time>
      </trkpt>
      <trkpt lat="43.31935" lon="5.67588">
        <ele>904</ele>
        <time>2019-11-29T13:35:49.000Z</time>
      </trkpt>
      <trkpt lat="43.31935" lon="5.67588">
        <ele>904</ele>
        <time>2019-11-29T13:35:50.000Z</time>
      </trkpt>
      <trkpt lat="43.31935" lon="5.67588">
        <ele>904</ele>
        <time>2019-11-29T13:35:51.000Z</time>
      </trkpt>
      <trkpt lat="43.31935" lon="5.67588">
        <ele>904</ele>
        <time>2019-11-29T13:35:52.000Z</time>
      </trkpt>
      <trkpt lat="43.31935" lon="5.67588">
        <ele>904</ele>
        <time>2019-11-29T13:35:53.000Z</time>
      </trkpt>
      <trkpt lat="43.31935" lon="5.67588">
        <ele>904</ele>
        <time>2019-11-29T13:35:54.000Z</time>
      </trkpt>
      <trkpt lat="43.31935" lon="5.67588">
        <ele>904</ele>
        <time>2019-11-29T13:35:55.000Z</time>
      </trkpt>
      <trkpt lat="43.31935" lon="5.67588">
        <ele>904</ele>
        <time>2019-11-29T13:35:56.000Z</time>
      </trkpt>
      <trkpt lat="43.31935" lon="5.67588">
        <ele>904</ele>
        <time>2019-11-29T13:35:57.000Z</time>
      </trkpt>
      <trkpt lat="43.31935" lon="5.67588">
        <ele>904</ele>
        <time>2019-11-29T13:35:58.000Z</time>
      </trkpt>
      <trkpt lat="43.31935" lon="5.67588">
        <ele>904</ele>
        <time>2019-11-29T13:35:59.000Z</time>
      </trkpt>
      <trkpt lat="43.31935" lon="5.67588">
        <ele>904</ele>
        <time>2019-11-29T13:36:00.000Z</time>
      </trkpt>
      <trkpt lat="43.31935" lon="5.67588">
        <ele>904</ele>
        <time>2019-11-29T13:36:01.000Z</time>
      </trkpt>
      <trkpt lat="43.31935" lon="5.67588">
        <ele>904</ele>
        <time>2019-11-29T13:36:02.000Z</time>
      </trkpt>
      <trkpt lat="43.31935" lon="5.67588">
        <ele>904</ele>
        <time>2019-11-29T13:36:03.000Z</time>
      </trkpt>
      <trkpt lat="43.31935" lon="5.67588">
        <ele>904</ele>
        <time>2019-11-29T13:36:04.000Z</time>
      </trkpt>
      <trkpt lat="43.31935" lon="5.67588">
        <ele>904</ele>
        <time>2019-11-29T13:36:05.000Z</time>
      </trkpt>
      <trkpt lat="43.31935" lon="5.67588">
        <ele>904</ele>
        <time>2019-11-29T13:36:06.000Z</time>
      </trkpt>
      <trkpt lat="43.31935" lon="5.67588">
        <ele>904</ele>
        <time>2019-11-29T13:36:07.000Z</time>
      </trkpt>
      <trkpt lat="43.31935" lon="5.67588">
        <ele>904</ele>
        <time>2019-11-29T13:36:08.000Z</time>
      </trkpt>
      <trkpt lat="43.31934" lon="5.67588">
        <ele>904</ele>
        <time>2019-11-29T13:36:09.000Z</time>
      </trkpt>
      <trkpt lat="43.31934" lon="5.67588">
        <ele>904</ele>
        <time>2019-11-29T13:36:10.000Z</time>
      </trkpt>
      <trkpt lat="43.31934" lon="5.67588">
        <ele>904</ele>
        <time>2019-11-29T13:36:11.000Z</time>
      </trkpt>
      <trkpt lat="43.31934" lon="5.67589">
        <ele>904</ele>
        <time>2019-11-29T13:36:12.000Z</time>
      </trkpt>
      <trkpt lat="43.31934" lon="5.67589">
        <ele>904</ele>
        <time>2019-11-29T13:36:13.000Z</time>
      </trkpt>
      <trkpt lat="43.31934" lon="5.67589">
        <ele>904</ele>
        <time>2019-11-29T13:36:14.000Z</time>
      </trkpt>
      <trkpt lat="43.31934" lon="5.67589">
        <ele>904</ele>
        <time>2019-11-29T13:36:15.000Z</time>
      </trkpt>
      <trkpt lat="43.31934" lon="5.67589">
        <ele>904</ele>
        <time>2019-11-29T13:36:16.000Z</time>
      </trkpt>
      <trkpt lat="43.31934" lon="5.67589">
        <ele>904</ele>
        <time>2019-11-29T13:36:17.000Z</time>
      </trkpt>
      <trkpt lat="43.31934" lon="5.67589">
        <ele>904</ele>
        <time>2019-11-29T13:36:18.000Z</time>
      </trkpt>
      <trkpt lat="43.31934" lon="5.67589">
        <ele>904</ele>
        <time>2019-11-29T13:36:19.000Z</time>
      </trkpt>
      <trkpt lat="43.31934" lon="5.67589">
        <ele>904</ele>
        <time>2019-11-29T13:36:20.000Z</time>
      </trkpt>
      <trkpt lat="43.31934" lon="5.67589">
        <ele>904</ele>
        <time>2019-11-29T13:36:21.000Z</time>
      </trkpt>
      <trkpt lat="43.31934" lon="5.67589">
        <ele>904</ele>
        <time>2019-11-29T13:36:22.000Z</time>
      </trkpt>
      <trkpt lat="43.31934" lon="5.67589">
        <ele>904</ele>
        <time>2019-11-29T13:36:23.000Z</time>
      </trkpt>
      <trkpt lat="43.31934" lon="5.67589">
        <ele>904</ele>
        <time>2019-11-29T13:36:24.000Z</time>
      </trkpt>
      <trkpt lat="43.31934" lon="5.67589">
        <ele>904</ele>
        <time>2019-11-29T13:36:25.000Z</time>
      </trkpt>
      <trkpt lat="43.31934" lon="5.67589">
        <ele>904</ele>
        <time>2019-11-29T13:36:26.000Z</time>
      </trkpt>
      <trkpt lat="43.31934" lon="5.67589">
        <ele>904</ele>
        <time>2019-11-29T13:36:27.000Z</time>
      </trkpt>
      <trkpt lat="43.31934" lon="5.67589">
        <ele>904</ele>
        <time>2019-11-29T13:36:28.000Z</time>
      </trkpt>
      <trkpt lat="43.31934" lon="5.67589">
        <ele>904</ele>
        <time>2019-11-29T13:36:29.000Z</time>
      </trkpt>
      <trkpt lat="43.31934" lon="5.67589">
        <ele>904</ele>
        <time>2019-11-29T13:36:30.000Z</time>
      </trkpt>
      <trkpt lat="43.31934" lon="5.67589">
        <ele>904</ele>
        <time>2019-11-29T13:36:31.000Z</time>
      </trkpt>
      <trkpt lat="43.31934" lon="5.67589">
        <ele>904</ele>
        <time>2019-11-29T13:36:32.000Z</time>
      </trkpt>
      <trkpt lat="43.31934" lon="5.67589">
        <ele>904</ele>
        <time>2019-11-29T13:36:33.000Z</time>
      </trkpt>
      <trkpt lat="43.31934" lon="5.67589">
        <ele>904</ele>
        <time>2019-11-29T13:36:34.000Z</time>
      </trkpt>
      <trkpt lat="43.31934" lon="5.67589">
        <ele>904</ele>
        <time>2019-11-29T13:36:35.000Z</time>
      </trkpt>
      <trkpt lat="43.31934" lon="5.67589">
        <ele>904</ele>
        <time>2019-11-29T13:36:36.000Z</time>
      </trkpt>
      <trkpt lat="43.31934" lon="5.67589">
        <ele>905</ele>
        <time>2019-11-29T13:36:37.000Z</time>
      </trkpt>
      <trkpt lat="43.31934" lon="5.67589">
        <ele>905</ele>
        <time>2019-11-29T13:36:38.000Z</time>
      </trkpt>
      <trkpt lat="43.31934" lon="5.67589">
        <ele>905</ele>
        <time>2019-11-29T13:36:39.000Z</time>
      </trkpt>
      <trkpt lat="43.31934" lon="5.67589">
        <ele>905</ele>
        <time>2019-11-29T13:36:40.000Z</time>
      </trkpt>
      <trkpt lat="43.31934" lon="5.67589">
        <ele>905</ele>
        <time>2019-11-29T13:36:41.000Z</time>
      </trkpt>
      <trkpt lat="43.31934" lon="5.67589">
        <ele>905</ele>
        <time>2019-11-29T13:36:42.000Z</time>
      </trkpt>
      <trkpt lat="43.31934" lon="5.67589">
        <ele>904</ele>
        <time>2019-11-29T13:36:43.000Z</time>
      </trkpt>
      <trkpt lat="43.31934" lon="5.67589">
        <ele>904</ele>
        <time>2019-11-29T13:36:44.000Z</time>
      </trkpt>
      <trkpt lat="43.31934" lon="5.67589">
        <ele>904</ele>
        <time>2019-11-29T13:36:45.000Z</time>
      </trkpt>
      <trkpt lat="43.31934" lon="5.67589">
        <ele>904</ele>
        <time>2019-11-29T13:36:46.000Z</time>
      </trkpt>
      <trkpt lat="43.31934" lon="5.67589">
        <ele>904</ele>
        <time>2019-11-29T13:36:47.000Z</time>
      </trkpt>
      <trkpt lat="43.31934" lon="5.67589">
        <ele>904</ele>
        <time>2019-11-29T13:36:48.000Z</time>
      </trkpt>
      <trkpt lat="43.31934" lon="5.67589">
        <ele>904</ele>
        <time>2019-11-29T13:36:49.000Z</time>
      </trkpt>
      <trkpt lat="43.31934" lon="5.67589">
        <ele>904</ele>
        <time>2019-11-29T13:36:50.000Z</time>
      </trkpt>
      <trkpt lat="43.31934" lon="5.67589">
        <ele>904</ele>
        <time>2019-11-29T13:36:51.000Z</time>
      </trkpt>
      <trkpt lat="43.31934" lon="5.67589">
        <ele>904</ele>
        <time>2019-11-29T13:36:52.000Z</time>
      </trkpt>
      <trkpt lat="43.31934" lon="5.67589">
        <ele>904</ele>
        <time>2019-11-29T13:36:53.000Z</time>
      </trkpt>
      <trkpt lat="43.31934" lon="5.67589">
        <ele>904</ele>
        <time>2019-11-29T13:36:54.000Z</time>
      </trkpt>
      <trkpt lat="43.31934" lon="5.67589">
        <ele>905</ele>
        <time>2019-11-29T13:36:55.000Z</time>
      </trkpt>
      <trkpt lat="43.31934" lon="5.67589">
        <ele>905</ele>
        <time>2019-11-29T13:36:56.000Z</time>
      </trkpt>
      <trkpt lat="43.31934" lon="5.67589">
        <ele>905</ele>
        <time>2019-11-29T13:36:57.000Z</time>
      </trkpt>
      <trkpt lat="43.31934" lon="5.67588">
        <ele>905</ele>
        <time>2019-11-29T13:36:58.000Z</time>
      </trkpt>
      <trkpt lat="43.31934" lon="5.67588">
        <ele>905</ele>
        <time>2019-11-29T13:36:59.000Z</time>
      </trkpt>
      <trkpt lat="43.31934" lon="5.67588">
        <ele>905</ele>
        <time>2019-11-29T13:37:00.000Z</time>
      </trkpt>
      <trkpt lat="43.31934" lon="5.67588">
        <ele>905</ele>
        <time>2019-11-29T13:37:01.000Z</time>
      </trkpt>
      <trkpt lat="43.31934" lon="5.67588">
        <ele>905</ele>
        <time>2019-11-29T13:37:02.000Z</time>
      </trkpt>
      <trkpt lat="43.31934" lon="5.67588">
        <ele>905</ele>
        <time>2019-11-29T13:37:03.000Z</time>
      </trkpt>
      <trkpt lat="43.31934" lon="5.67588">
        <ele>905</ele>
        <time>2019-11-29T13:37:04.000Z</time>
      </trkpt>
      <trkpt lat="43.31934" lon="5.67588">
        <ele>905</ele>
        <time>2019-11-29T13:37:05.000Z</time>
      </trkpt>
      <trkpt lat="43.31934" lon="5.67588">
        <ele>905</ele>
        <time>2019-11-29T13:37:06.000Z</time>
      </trkpt>
      <trkpt lat="43.31934" lon="5.67589">
        <ele>905</ele>
        <time>2019-11-29T13:37:07.000Z</time>
      </trkpt>
      <trkpt lat="43.31934" lon="5.67588">
        <ele>905</ele>
        <time>2019-11-29T13:37:08.000Z</time>
      </trkpt>
      <trkpt lat="43.31934" lon="5.67588">
        <ele>905</ele>
        <time>2019-11-29T13:37:09.000Z</time>
      </trkpt>
      <trkpt lat="43.31934" lon="5.67588">
        <ele>905</ele>
        <time>2019-11-29T13:37:10.000Z</time>
      </trkpt>
      <trkpt lat="43.31934" lon="5.67589">
        <ele>905</ele>
        <time>2019-11-29T13:37:11.000Z</time>
      </trkpt>
      <trkpt lat="43.31934" lon="5.67589">
        <ele>905</ele>
        <time>2019-11-29T13:37:12.000Z</time>
      </trkpt>
      <trkpt lat="43.31934" lon="5.67588">
        <ele>905</ele>
        <time>2019-11-29T13:37:13.000Z</time>
      </trkpt>
      <trkpt lat="43.31934" lon="5.67589">
        <ele>905</ele>
        <time>2019-11-29T13:37:14.000Z</time>
      </trkpt>
      <trkpt lat="43.31934" lon="5.67589">
        <ele>905</ele>
        <time>2019-11-29T13:37:15.000Z</time>
      </trkpt>
      <trkpt lat="43.31934" lon="5.67589">
        <ele>905</ele>
        <time>2019-11-29T13:37:16.000Z</time>
      </trkpt>
      <trkpt lat="43.31934" lon="5.67589">
        <ele>905</ele>
        <time>2019-11-29T13:37:17.000Z</time>
      </trkpt>
      <trkpt lat="43.31934" lon="5.67589">
        <ele>905</ele>
        <time>2019-11-29T13:37:18.000Z</time>
      </trkpt>
      <trkpt lat="43.31934" lon="5.67589">
        <ele>905</ele>
        <time>2019-11-29T13:37:19.000Z</time>
      </trkpt>
      <trkpt lat="43.31934" lon="5.67589">
        <ele>905</ele>
        <time>2019-11-29T13:37:20.000Z</time>
      </trkpt>
      <trkpt lat="43.31934" lon="5.67589">
        <ele>905</ele>
        <time>2019-11-29T13:37:21.000Z</time>
      </trkpt>
      <trkpt lat="43.31934" lon="5.67589">
        <ele>905</ele>
        <time>2019-11-29T13:37:22.000Z</time>
      </trkpt>
      <trkpt lat="43.31934" lon="5.67589">
        <ele>905</ele>
        <time>2019-11-29T13:37:23.000Z</time>
      </trkpt>
      <trkpt lat="43.31934" lon="5.67589">
        <ele>905</ele>
        <time>2019-11-29T13:37:24.000Z</time>
      </trkpt>
      <trkpt lat="43.31934" lon="5.67589">
        <ele>905</ele>
        <time>2019-11-29T13:37:25.000Z</time>
      </trkpt>
      <trkpt lat="43.31934" lon="5.67589">
        <ele>905</ele>
        <time>2019-11-29T13:37:26.000Z</time>
      </trkpt>
      <trkpt lat="43.31934" lon="5.67589">
        <ele>905</ele>
        <time>2019-11-29T13:37:27.000Z</time>
      </trkpt>
      <trkpt lat="43.31934" lon="5.67589">
        <ele>905</ele>
        <time>2019-11-29T13:37:28.000Z</time>
      </trkpt>
      <trkpt lat="43.31934" lon="5.67589">
        <ele>905</ele>
        <time>2019-11-29T13:37:29.000Z</time>
      </trkpt>
      <trkpt lat="43.31934" lon="5.67589">
        <ele>905</ele>
        <time>2019-11-29T13:37:30.000Z</time>
      </trkpt>
      <trkpt lat="43.31934" lon="5.67589">
        <ele>904</ele>
        <time>2019-11-29T13:37:31.000Z</time>
      </trkpt>
      <trkpt lat="43.31934" lon="5.67589">
        <ele>904</ele>
        <time>2019-11-29T13:37:32.000Z</time>
      </trkpt>
      <trkpt lat="43.31934" lon="5.67589">
        <ele>904</ele>
        <time>2019-11-29T13:37:33.000Z</time>
      </trkpt>
      <trkpt lat="43.31934" lon="5.67589">
        <ele>904</ele>
        <time>2019-11-29T13:37:34.000Z</time>
      </trkpt>
      <trkpt lat="43.31934" lon="5.67589">
        <ele>904</ele>
        <time>2019-11-29T13:37:35.000Z</time>
      </trkpt>
      <trkpt lat="43.31934" lon="5.67589">
        <ele>904</ele>
        <time>2019-11-29T13:37:36.000Z</time>
      </trkpt>
      <trkpt lat="43.31934" lon="5.67589">
        <ele>904</ele>
        <time>2019-11-29T13:37:37.000Z</time>
      </trkpt>
      <trkpt lat="43.31934" lon="5.67588">
        <ele>904</ele>
        <time>2019-11-29T13:37:38.000Z</time>
      </trkpt>
      <trkpt lat="43.31934" lon="5.67588">
        <ele>904</ele>
        <time>2019-11-29T13:37:39.000Z</time>
      </trkpt>
      <trkpt lat="43.31934" lon="5.67588">
        <ele>904</ele>
        <time>2019-11-29T13:37:40.000Z</time>
      </trkpt>
      <trkpt lat="43.31934" lon="5.67588">
        <ele>904</ele>
        <time>2019-11-29T13:37:41.000Z</time>
      </trkpt>
      <trkpt lat="43.31934" lon="5.67588">
        <ele>904</ele>
        <time>2019-11-29T13:37:42.000Z</time>
      </trkpt>
      <trkpt lat="43.31934" lon="5.67588">
        <ele>905</ele>
        <time>2019-11-29T13:37:43.000Z</time>
      </trkpt>
      <trkpt lat="43.31934" lon="5.67588">
        <ele>905</ele>
        <time>2019-11-29T13:37:44.000Z</time>
      </trkpt>
      <trkpt lat="43.31934" lon="5.67588">
        <ele>905</ele>
        <time>2019-11-29T13:37:45.000Z</time>
      </trkpt>
      <trkpt lat="43.31934" lon="5.67588">
        <ele>905</ele>
        <time>2019-11-29T13:37:46.000Z</time>
      </trkpt>
      <trkpt lat="43.31934" lon="5.67588">
        <ele>905</ele>
        <time>2019-11-29T13:37:47.000Z</time>
      </trkpt>
      <trkpt lat="43.31934" lon="5.67588">
        <ele>905</ele>
        <time>2019-11-29T13:37:48.000Z</time>
      </trkpt>
      <trkpt lat="43.31934" lon="5.67588">
        <ele>905</ele>
        <time>2019-11-29T13:37:49.000Z</time>
      </trkpt>
      <trkpt lat="43.31934" lon="5.67588">
        <ele>905</ele>
        <time>2019-11-29T13:37:50.000Z</time>
      </trkpt>
      <trkpt lat="43.31934" lon="5.67588">
        <ele>905</ele>
        <time>2019-11-29T13:37:51.000Z</time>
      </trkpt>
      <trkpt lat="43.31934" lon="5.67588">
        <ele>905</ele>
        <time>2019-11-29T13:37:52.000Z</time>
      </trkpt>
      <trkpt lat="43.31934" lon="5.67588">
        <ele>905</ele>
        <time>2019-11-29T13:37:53.000Z</time>
      </trkpt>
      <trkpt lat="43.31934" lon="5.67588">
        <ele>905</ele>
        <time>2019-11-29T13:37:54.000Z</time>
      </trkpt>
      <trkpt lat="43.31934" lon="5.67588">
        <ele>905</ele>
        <time>2019-11-29T13:37:55.000Z</time>
      </trkpt>
      <trkpt lat="43.31934" lon="5.67588">
        <ele>904</ele>
        <time>2019-11-29T13:37:56.000Z</time>
      </trkpt>
      <trkpt lat="43.31934" lon="5.67588">
        <ele>904</ele>
        <time>2019-11-29T13:37:57.000Z</time>
      </trkpt>
      <trkpt lat="43.31934" lon="5.67588">
        <ele>904</ele>
        <time>2019-11-29T13:37:58.000Z</time>
      </trkpt>
      <trkpt lat="43.31934" lon="5.67588">
        <ele>904</ele>
        <time>2019-11-29T13:37:59.000Z</time>
      </trkpt>
      <trkpt lat="43.31934" lon="5.67588">
        <ele>904</ele>
        <time>2019-11-29T13:38:00.000Z</time>
      </trkpt>
      <trkpt lat="43.31934" lon="5.67588">
        <ele>904</ele>
        <time>2019-11-29T13:38:01.000Z</time>
      </trkpt>
      <trkpt lat="43.31935" lon="5.67588">
        <ele>904</ele>
        <time>2019-11-29T13:38:02.000Z</time>
      </trkpt>
      <trkpt lat="43.31935" lon="5.67588">
        <ele>904</ele>
        <time>2019-11-29T13:38:03.000Z</time>
      </trkpt>
      <trkpt lat="43.31935" lon="5.67588">
        <ele>904</ele>
        <time>2019-11-29T13:38:04.000Z</time>
      </trkpt>
      <trkpt lat="43.31934" lon="5.67587">
        <ele>905</ele>
        <time>2019-11-29T13:38:05.000Z</time>
      </trkpt>
      <trkpt lat="43.31934" lon="5.67587">
        <ele>905</ele>
        <time>2019-11-29T13:38:06.000Z</time>
      </trkpt>
      <trkpt lat="43.31934" lon="5.67586">
        <ele>905</ele>
        <time>2019-11-29T13:38:07.000Z</time>
      </trkpt>
      <trkpt lat="43.31934" lon="5.67585">
        <ele>905</ele>
        <time>2019-11-29T13:38:08.000Z</time>
      </trkpt>
      <trkpt lat="43.31934" lon="5.67585">
        <ele>905</ele>
        <time>2019-11-29T13:38:09.000Z</time>
      </trkpt>
      <trkpt lat="43.31934" lon="5.67584">
        <ele>905</ele>
        <time>2019-11-29T13:38:10.000Z</time>
      </trkpt>
      <trkpt lat="43.31934" lon="5.67583">
        <ele>905</ele>
        <time>2019-11-29T13:38:11.000Z</time>
      </trkpt>
      <trkpt lat="43.31934" lon="5.67582">
        <ele>905</ele>
        <time>2019-11-29T13:38:12.000Z</time>
      </trkpt>
      <trkpt lat="43.31934" lon="5.67581">
        <ele>905</ele>
        <time>2019-11-29T13:38:13.000Z</time>
      </trkpt>
      <trkpt lat="43.31934" lon="5.6758">
        <ele>906</ele>
        <time>2019-11-29T13:38:14.000Z</time>
      </trkpt>
      <trkpt lat="43.31934" lon="5.67579">
        <ele>906</ele>
        <time>2019-11-29T13:38:15.000Z</time>
      </trkpt>
      <trkpt lat="43.31934" lon="5.67578">
        <ele>906</ele>
        <time>2019-11-29T13:38:16.000Z</time>
      </trkpt>
      <trkpt lat="43.31934" lon="5.67577">
        <ele>906</ele>
        <time>2019-11-29T13:38:17.000Z</time>
      </trkpt>
      <trkpt lat="43.31935" lon="5.67576">
        <ele>906</ele>
        <time>2019-11-29T13:38:18.000Z</time>
      </trkpt>
      <trkpt lat="43.31935" lon="5.67575">
        <ele>906</ele>
        <time>2019-11-29T13:38:19.000Z</time>
      </trkpt>
      <trkpt lat="43.31934" lon="5.67574">
        <ele>906</ele>
        <time>2019-11-29T13:38:20.000Z</time>
      </trkpt>
      <trkpt lat="43.31934" lon="5.67573">
        <ele>906</ele>
        <time>2019-11-29T13:38:21.000Z</time>
      </trkpt>
      <trkpt lat="43.31934" lon="5.67571">
        <ele>906</ele>
        <time>2019-11-29T13:38:22.000Z</time>
      </trkpt>
      <trkpt lat="43.31934" lon="5.6757">
        <ele>906</ele>
        <time>2019-11-29T13:38:23.000Z</time>
      </trkpt>
      <trkpt lat="43.31934" lon="5.67569">
        <ele>907</ele>
        <time>2019-11-29T13:38:24.000Z</time>
      </trkpt>
      <trkpt lat="43.31934" lon="5.67568">
        <ele>907</ele>
        <time>2019-11-29T13:38:25.000Z</time>
      </trkpt>
      <trkpt lat="43.31934" lon="5.67567">
        <ele>907</ele>
        <time>2019-11-29T13:38:26.000Z</time>
      </trkpt>
      <trkpt lat="43.31934" lon="5.67565">
        <ele>907</ele>
        <time>2019-11-29T13:38:27.000Z</time>
      </trkpt>
      <trkpt lat="43.31934" lon="5.67564">
        <ele>907</ele>
        <time>2019-11-29T13:38:28.000Z</time>
      </trkpt>
      <trkpt lat="43.31934" lon="5.67563">
        <ele>907</ele>
        <time>2019-11-29T13:38:29.000Z</time>
      </trkpt>
      <trkpt lat="43.31935" lon="5.67562">
        <ele>908</ele>
        <time>2019-11-29T13:38:30.000Z</time>
      </trkpt>
      <trkpt lat="43.31935" lon="5.67561">
        <ele>908</ele>
        <time>2019-11-29T13:38:31.000Z</time>
      </trkpt>
      <trkpt lat="43.31935" lon="5.6756">
        <ele>908</ele>
        <time>2019-11-29T13:38:32.000Z</time>
      </trkpt>
      <trkpt lat="43.31935" lon="5.67559">
        <ele>908</ele>
        <time>2019-11-29T13:38:33.000Z</time>
      </trkpt>
      <trkpt lat="43.31935" lon="5.67557">
        <ele>908</ele>
        <time>2019-11-29T13:38:34.000Z</time>
      </trkpt>
      <trkpt lat="43.31935" lon="5.67556">
        <ele>908</ele>
        <time>2019-11-29T13:38:35.000Z</time>
      </trkpt>
      <trkpt lat="43.31935" lon="5.67555">
        <ele>908</ele>
        <time>2019-11-29T13:38:36.000Z</time>
      </trkpt>
      <trkpt lat="43.31935" lon="5.67554">
        <ele>908</ele>
        <time>2019-11-29T13:38:37.000Z</time>
      </trkpt>
      <trkpt lat="43.31935" lon="5.67553">
        <ele>909</ele>
        <time>2019-11-29T13:38:38.000Z</time>
      </trkpt>
      <trkpt lat="43.31936" lon="5.67552">
        <ele>909</ele>
        <time>2019-11-29T13:38:39.000Z</time>
      </trkpt>
      <trkpt lat="43.31936" lon="5.67551">
        <ele>909</ele>
        <time>2019-11-29T13:38:40.000Z</time>
      </trkpt>
      <trkpt lat="43.31936" lon="5.6755">
        <ele>909</ele>
        <time>2019-11-29T13:38:41.000Z</time>
      </trkpt>
      <trkpt lat="43.31936" lon="5.67549">
        <ele>909</ele>
        <time>2019-11-29T13:38:42.000Z</time>
      </trkpt>
      <trkpt lat="43.31936" lon="5.67548">
        <ele>909</ele>
        <time>2019-11-29T13:38:43.000Z</time>
      </trkpt>
      <trkpt lat="43.31936" lon="5.67547">
        <ele>909</ele>
        <time>2019-11-29T13:38:44.000Z</time>
      </trkpt>
      <trkpt lat="43.31936" lon="5.67546">
        <ele>909</ele>
        <time>2019-11-29T13:38:45.000Z</time>
      </trkpt>
      <trkpt lat="43.31936" lon="5.67544">
        <ele>910</ele>
        <time>2019-11-29T13:38:46.000Z</time>
      </trkpt>
      <trkpt lat="43.31936" lon="5.67543">
        <ele>910</ele>
        <time>2019-11-29T13:38:47.000Z</time>
      </trkpt>
      <trkpt lat="43.31936" lon="5.67542">
        <ele>910</ele>
        <time>2019-11-29T13:38:48.000Z</time>
      </trkpt>
      <trkpt lat="43.31936" lon="5.67541">
        <ele>910</ele>
        <time>2019-11-29T13:38:49.000Z</time>
      </trkpt>
      <trkpt lat="43.31936" lon="5.6754">
        <ele>910</ele>
        <time>2019-11-29T13:38:50.000Z</time>
      </trkpt>
      <trkpt lat="43.31936" lon="5.67539">
        <ele>910</ele>
        <time>2019-11-29T13:38:51.000Z</time>
      </trkpt>
      <trkpt lat="43.31936" lon="5.67538">
        <ele>911</ele>
        <time>2019-11-29T13:38:52.000Z</time>
      </trkpt>
      <trkpt lat="43.31937" lon="5.67537">
        <ele>911</ele>
        <time>2019-11-29T13:38:53.000Z</time>
      </trkpt>
      <trkpt lat="43.31937" lon="5.67536">
        <ele>911</ele>
        <time>2019-11-29T13:38:54.000Z</time>
      </trkpt>
      <trkpt lat="43.31937" lon="5.67535">
        <ele>911</ele>
        <time>2019-11-29T13:38:55.000Z</time>
      </trkpt>
      <trkpt lat="43.31938" lon="5.67534">
        <ele>911</ele>
        <time>2019-11-29T13:38:56.000Z</time>
      </trkpt>
      <trkpt lat="43.31938" lon="5.67534">
        <ele>911</ele>
        <time>2019-11-29T13:38:57.000Z</time>
      </trkpt>
      <trkpt lat="43.31939" lon="5.67533">
        <ele>911</ele>
        <time>2019-11-29T13:38:58.000Z</time>
      </trkpt>
      <trkpt lat="43.31939" lon="5.67532">
        <ele>911</ele>
        <time>2019-11-29T13:38:59.000Z</time>
      </trkpt>
      <trkpt lat="43.31939" lon="5.67531">
        <ele>912</ele>
        <time>2019-11-29T13:39:00.000Z</time>
      </trkpt>
      <trkpt lat="43.3194" lon="5.6753">
        <ele>912</ele>
        <time>2019-11-29T13:39:01.000Z</time>
      </trkpt>
      <trkpt lat="43.3194" lon="5.67529">
        <ele>912</ele>
        <time>2019-11-29T13:39:02.000Z</time>
      </trkpt>
      <trkpt lat="43.3194" lon="5.67528">
        <ele>912</ele>
        <time>2019-11-29T13:39:03.000Z</time>
      </trkpt>
      <trkpt lat="43.3194" lon="5.67528">
        <ele>912</ele>
        <time>2019-11-29T13:39:04.000Z</time>
      </trkpt>
      <trkpt lat="43.3194" lon="5.67527">
        <ele>912</ele>
        <time>2019-11-29T13:39:05.000Z</time>
      </trkpt>
      <trkpt lat="43.3194" lon="5.67526">
        <ele>912</ele>
        <time>2019-11-29T13:39:06.000Z</time>
      </trkpt>
      <trkpt lat="43.31939" lon="5.67525">
        <ele>912</ele>
        <time>2019-11-29T13:39:07.000Z</time>
      </trkpt>
      <trkpt lat="43.31939" lon="5.67524">
        <ele>913</ele>
        <time>2019-11-29T13:39:08.000Z</time>
      </trkpt>
      <trkpt lat="43.31939" lon="5.67523">
        <ele>913</ele>
        <time>2019-11-29T13:39:09.000Z</time>
      </trkpt>
      <trkpt lat="43.31939" lon="5.67522">
        <ele>913</ele>
        <time>2019-11-29T13:39:10.000Z</time>
      </trkpt>
      <trkpt lat="43.31939" lon="5.67521">
        <ele>913</ele>
        <time>2019-11-29T13:39:11.000Z</time>
      </trkpt>
      <trkpt lat="43.31939" lon="5.6752">
        <ele>913</ele>
        <time>2019-11-29T13:39:12.000Z</time>
      </trkpt>
      <trkpt lat="43.3194" lon="5.67519">
        <ele>913</ele>
        <time>2019-11-29T13:39:13.000Z</time>
      </trkpt>
      <trkpt lat="43.3194" lon="5.67519">
        <ele>913</ele>
        <time>2019-11-29T13:39:14.000Z</time>
      </trkpt>
      <trkpt lat="43.3194" lon="5.67518">
        <ele>914</ele>
        <time>2019-11-29T13:39:15.000Z</time>
      </trkpt>
      <trkpt lat="43.3194" lon="5.67517">
        <ele>914</ele>
        <time>2019-11-29T13:39:16.000Z</time>
      </trkpt>
      <trkpt lat="43.3194" lon="5.67516">
        <ele>914</ele>
        <time>2019-11-29T13:39:17.000Z</time>
      </trkpt>
      <trkpt lat="43.3194" lon="5.67515">
        <ele>914</ele>
        <time>2019-11-29T13:39:18.000Z</time>
      </trkpt>
      <trkpt lat="43.3194" lon="5.67514">
        <ele>914</ele>
        <time>2019-11-29T13:39:19.000Z</time>
      </trkpt>
      <trkpt lat="43.31941" lon="5.67513">
        <ele>914</ele>
        <time>2019-11-29T13:39:20.000Z</time>
      </trkpt>
      <trkpt lat="43.31941" lon="5.67512">
        <ele>914</ele>
        <time>2019-11-29T13:39:21.000Z</time>
      </trkpt>
      <trkpt lat="43.31942" lon="5.67512">
        <ele>914</ele>
        <time>2019-11-29T13:39:22.000Z</time>
      </trkpt>
      <trkpt lat="43.31942" lon="5.67511">
        <ele>915</ele>
        <time>2019-11-29T13:39:23.000Z</time>
      </trkpt>
      <trkpt lat="43.31943" lon="5.6751">
        <ele>915</ele>
        <time>2019-11-29T13:39:24.000Z</time>
      </trkpt>
      <trkpt lat="43.31943" lon="5.6751">
        <ele>915</ele>
        <time>2019-11-29T13:39:25.000Z</time>
      </trkpt>
      <trkpt lat="43.31944" lon="5.67509">
        <ele>915</ele>
        <time>2019-11-29T13:39:26.000Z</time>
      </trkpt>
      <trkpt lat="43.31944" lon="5.67508">
        <ele>915</ele>
        <time>2019-11-29T13:39:27.000Z</time>
      </trkpt>
      <trkpt lat="43.31944" lon="5.67507">
        <ele>915</ele>
        <time>2019-11-29T13:39:28.000Z</time>
      </trkpt>
      <trkpt lat="43.31945" lon="5.67507">
        <ele>915</ele>
        <time>2019-11-29T13:39:29.000Z</time>
      </trkpt>
      <trkpt lat="43.31945" lon="5.67506">
        <ele>915</ele>
        <time>2019-11-29T13:39:30.000Z</time>
      </trkpt>
      <trkpt lat="43.31945" lon="5.67505">
        <ele>915</ele>
        <time>2019-11-29T13:39:31.000Z</time>
      </trkpt>
      <trkpt lat="43.31946" lon="5.67505">
        <ele>915</ele>
        <time>2019-11-29T13:39:32.000Z</time>
      </trkpt>
      <trkpt lat="43.31946" lon="5.67504">
        <ele>916</ele>
        <time>2019-11-29T13:39:33.000Z</time>
      </trkpt>
      <trkpt lat="43.31946" lon="5.67504">
        <ele>916</ele>
        <time>2019-11-29T13:39:34.000Z</time>
      </trkpt>
      <trkpt lat="43.31946" lon="5.67503">
        <ele>916</ele>
        <time>2019-11-29T13:39:35.000Z</time>
      </trkpt>
      <trkpt lat="43.31947" lon="5.67503">
        <ele>916</ele>
        <time>2019-11-29T13:39:36.000Z</time>
      </trkpt>
      <trkpt lat="43.31947" lon="5.67503">
        <ele>916</ele>
        <time>2019-11-29T13:39:37.000Z</time>
      </trkpt>
      <trkpt lat="43.31948" lon="5.67503">
        <ele>916</ele>
        <time>2019-11-29T13:39:38.000Z</time>
      </trkpt>
      <trkpt lat="43.31948" lon="5.67503">
        <ele>916</ele>
        <time>2019-11-29T13:39:39.000Z</time>
      </trkpt>
      <trkpt lat="43.31948" lon="5.67503">
        <ele>917</ele>
        <time>2019-11-29T13:39:40.000Z</time>
      </trkpt>
      <trkpt lat="43.31948" lon="5.67502">
        <ele>917</ele>
        <time>2019-11-29T13:39:41.000Z</time>
      </trkpt>
      <trkpt lat="43.31949" lon="5.67502">
        <ele>917</ele>
        <time>2019-11-29T13:39:42.000Z</time>
      </trkpt>
      <trkpt lat="43.31949" lon="5.67502">
        <ele>917</ele>
        <time>2019-11-29T13:39:43.000Z</time>
      </trkpt>
      <trkpt lat="43.31949" lon="5.67502">
        <ele>917</ele>
        <time>2019-11-29T13:39:44.000Z</time>
      </trkpt>
      <trkpt lat="43.31949" lon="5.67502">
        <ele>917</ele>
        <time>2019-11-29T13:39:45.000Z</time>
      </trkpt>
      <trkpt lat="43.31949" lon="5.67502">
        <ele>917</ele>
        <time>2019-11-29T13:39:46.000Z</time>
      </trkpt>
      <trkpt lat="43.31949" lon="5.67502">
        <ele>917</ele>
        <time>2019-11-29T13:39:47.000Z</time>
      </trkpt>
      <trkpt lat="43.31949" lon="5.67502">
        <ele>917</ele>
        <time>2019-11-29T13:39:48.000Z</time>
      </trkpt>
      <trkpt lat="43.31949" lon="5.67502">
        <ele>917</ele>
        <time>2019-11-29T13:39:49.000Z</time>
      </trkpt>
      <trkpt lat="43.31949" lon="5.67501">
        <ele>917</ele>
        <time>2019-11-29T13:39:50.000Z</time>
      </trkpt>
      <trkpt lat="43.31949" lon="5.67501">
        <ele>917</ele>
        <time>2019-11-29T13:39:51.000Z</time>
      </trkpt>
      <trkpt lat="43.31949" lon="5.67501">
        <ele>917</ele>
        <time>2019-11-29T13:39:52.000Z</time>
      </trkpt>
      <trkpt lat="43.31949" lon="5.675">
        <ele>917</ele>
        <time>2019-11-29T13:39:53.000Z</time>
      </trkpt>
      <trkpt lat="43.31949" lon="5.675">
        <ele>917</ele>
        <time>2019-11-29T13:39:54.000Z</time>
      </trkpt>
      <trkpt lat="43.31949" lon="5.67499">
        <ele>917</ele>
        <time>2019-11-29T13:39:55.000Z</time>
      </trkpt>
      <trkpt lat="43.31949" lon="5.67498">
        <ele>917</ele>
        <time>2019-11-29T13:39:56.000Z</time>
      </trkpt>
      <trkpt lat="43.31949" lon="5.67498">
        <ele>917</ele>
        <time>2019-11-29T13:39:57.000Z</time>
      </trkpt>
      <trkpt lat="43.31949" lon="5.67498">
        <ele>917</ele>
        <time>2019-11-29T13:39:58.000Z</time>
      </trkpt>
      <trkpt lat="43.31949" lon="5.67497">
        <ele>918</ele>
        <time>2019-11-29T13:39:59.000Z</time>
      </trkpt>
      <trkpt lat="43.31949" lon="5.67497">
        <ele>918</ele>
        <time>2019-11-29T13:40:00.000Z</time>
      </trkpt>
      <trkpt lat="43.31949" lon="5.67496">
        <ele>918</ele>
        <time>2019-11-29T13:40:01.000Z</time>
      </trkpt>
      <trkpt lat="43.31949" lon="5.67495">
        <ele>918</ele>
        <time>2019-11-29T13:40:02.000Z</time>
      </trkpt>
      <trkpt lat="43.31949" lon="5.67494">
        <ele>918</ele>
        <time>2019-11-29T13:40:03.000Z</time>
      </trkpt>
      <trkpt lat="43.31949" lon="5.67494">
        <ele>918</ele>
        <time>2019-11-29T13:40:04.000Z</time>
      </trkpt>
      <trkpt lat="43.31949" lon="5.67493">
        <ele>918</ele>
        <time>2019-11-29T13:40:05.000Z</time>
      </trkpt>
      <trkpt lat="43.31949" lon="5.67492">
        <ele>918</ele>
        <time>2019-11-29T13:40:06.000Z</time>
      </trkpt>
      <trkpt lat="43.31949" lon="5.67492">
        <ele>918</ele>
        <time>2019-11-29T13:40:07.000Z</time>
      </trkpt>
      <trkpt lat="43.31949" lon="5.67491">
        <ele>918</ele>
        <time>2019-11-29T13:40:08.000Z</time>
      </trkpt>
      <trkpt lat="43.31949" lon="5.6749">
        <ele>919</ele>
        <time>2019-11-29T13:40:09.000Z</time>
      </trkpt>
      <trkpt lat="43.31949" lon="5.6749">
        <ele>919</ele>
        <time>2019-11-29T13:40:10.000Z</time>
      </trkpt>
      <trkpt lat="43.31949" lon="5.67489">
        <ele>919</ele>
        <time>2019-11-29T13:40:11.000Z</time>
      </trkpt>
      <trkpt lat="43.31949" lon="5.67488">
        <ele>919</ele>
        <time>2019-11-29T13:40:12.000Z</time>
      </trkpt>
      <trkpt lat="43.31949" lon="5.67487">
        <ele>919</ele>
        <time>2019-11-29T13:40:13.000Z</time>
      </trkpt>
      <trkpt lat="43.31949" lon="5.67486">
        <ele>919</ele>
        <time>2019-11-29T13:40:14.000Z</time>
      </trkpt>
      <trkpt lat="43.31949" lon="5.67485">
        <ele>919</ele>
        <time>2019-11-29T13:40:15.000Z</time>
      </trkpt>
      <trkpt lat="43.31949" lon="5.67485">
        <ele>919</ele>
        <time>2019-11-29T13:40:16.000Z</time>
      </trkpt>
      <trkpt lat="43.31949" lon="5.67484">
        <ele>919</ele>
        <time>2019-11-29T13:40:17.000Z</time>
      </trkpt>
      <trkpt lat="43.3195" lon="5.67484">
        <ele>919</ele>
        <time>2019-11-29T13:40:18.000Z</time>
      </trkpt>
      <trkpt lat="43.3195" lon="5.67483">
        <ele>919</ele>
        <time>2019-11-29T13:40:19.000Z</time>
      </trkpt>
      <trkpt lat="43.3195" lon="5.67482">
        <ele>919</ele>
        <time>2019-11-29T13:40:20.000Z</time>
      </trkpt>
      <trkpt lat="43.3195" lon="5.67481">
        <ele>919</ele>
        <time>2019-11-29T13:40:21.000Z</time>
      </trkpt>
      <trkpt lat="43.3195" lon="5.6748">
        <ele>920</ele>
        <time>2019-11-29T13:40:22.000Z</time>
      </trkpt>
      <trkpt lat="43.3195" lon="5.67479">
        <ele>920</ele>
        <time>2019-11-29T13:40:23.000Z</time>
      </trkpt>
      <trkpt lat="43.3195" lon="5.67478">
        <ele>920</ele>
        <time>2019-11-29T13:40:24.000Z</time>
      </trkpt>
      <trkpt lat="43.31949" lon="5.67478">
        <ele>920</ele>
        <time>2019-11-29T13:40:25.000Z</time>
      </trkpt>
      <trkpt lat="43.31949" lon="5.67476">
        <ele>921</ele>
        <time>2019-11-29T13:40:26.000Z</time>
      </trkpt>
      <trkpt lat="43.31949" lon="5.67475">
        <ele>921</ele>
        <time>2019-11-29T13:40:27.000Z</time>
      </trkpt>
      <trkpt lat="43.31949" lon="5.67475">
        <ele>921</ele>
        <time>2019-11-29T13:40:28.000Z</time>
      </trkpt>
      <trkpt lat="43.31949" lon="5.67474">
        <ele>921</ele>
        <time>2019-11-29T13:40:29.000Z</time>
      </trkpt>
      <trkpt lat="43.31949" lon="5.67473">
        <ele>921</ele>
        <time>2019-11-29T13:40:30.000Z</time>
      </trkpt>
      <trkpt lat="43.31948" lon="5.67472">
        <ele>921</ele>
        <time>2019-11-29T13:40:31.000Z</time>
      </trkpt>
      <trkpt lat="43.31948" lon="5.67471">
        <ele>922</ele>
        <time>2019-11-29T13:40:32.000Z</time>
      </trkpt>
      <trkpt lat="43.31948" lon="5.6747">
        <ele>922</ele>
        <time>2019-11-29T13:40:33.000Z</time>
      </trkpt>
      <trkpt lat="43.31948" lon="5.67469">
        <ele>922</ele>
        <time>2019-11-29T13:40:34.000Z</time>
      </trkpt>
      <trkpt lat="43.31948" lon="5.67468">
        <ele>922</ele>
        <time>2019-11-29T13:40:35.000Z</time>
      </trkpt>
      <trkpt lat="43.31948" lon="5.67467">
        <ele>922</ele>
        <time>2019-11-29T13:40:36.000Z</time>
      </trkpt>
      <trkpt lat="43.31947" lon="5.67465">
        <ele>922</ele>
        <time>2019-11-29T13:40:37.000Z</time>
      </trkpt>
      <trkpt lat="43.31947" lon="5.67464">
        <ele>922</ele>
        <time>2019-11-29T13:40:38.000Z</time>
      </trkpt>
      <trkpt lat="43.31947" lon="5.67463">
        <ele>922</ele>
        <time>2019-11-29T13:40:39.000Z</time>
      </trkpt>
      <trkpt lat="43.31947" lon="5.67461">
        <ele>922</ele>
        <time>2019-11-29T13:40:40.000Z</time>
      </trkpt>
      <trkpt lat="43.31947" lon="5.6746">
        <ele>922</ele>
        <time>2019-11-29T13:40:41.000Z</time>
      </trkpt>
      <trkpt lat="43.31947" lon="5.67459">
        <ele>923</ele>
        <time>2019-11-29T13:40:42.000Z</time>
      </trkpt>
      <trkpt lat="43.31947" lon="5.67458">
        <ele>923</ele>
        <time>2019-11-29T13:40:43.000Z</time>
      </trkpt>
      <trkpt lat="43.31948" lon="5.67457">
        <ele>923</ele>
        <time>2019-11-29T13:40:44.000Z</time>
      </trkpt>
      <trkpt lat="43.31948" lon="5.67456">
        <ele>923</ele>
        <time>2019-11-29T13:40:45.000Z</time>
      </trkpt>
      <trkpt lat="43.31948" lon="5.67455">
        <ele>923</ele>
        <time>2019-11-29T13:40:46.000Z</time>
      </trkpt>
      <trkpt lat="43.31949" lon="5.67454">
        <ele>923</ele>
        <time>2019-11-29T13:40:47.000Z</time>
      </trkpt>
      <trkpt lat="43.3195" lon="5.67454">
        <ele>923</ele>
        <time>2019-11-29T13:40:48.000Z</time>
      </trkpt>
      <trkpt lat="43.3195" lon="5.67454">
        <ele>923</ele>
        <time>2019-11-29T13:40:49.000Z</time>
      </trkpt>
      <trkpt lat="43.31951" lon="5.67453">
        <ele>923</ele>
        <time>2019-11-29T13:40:50.000Z</time>
      </trkpt>
      <trkpt lat="43.31951" lon="5.67452">
        <ele>923</ele>
        <time>2019-11-29T13:40:51.000Z</time>
      </trkpt>
      <trkpt lat="43.31951" lon="5.67451">
        <ele>923</ele>
        <time>2019-11-29T13:40:52.000Z</time>
      </trkpt>
      <trkpt lat="43.31951" lon="5.67451">
        <ele>923</ele>
        <time>2019-11-29T13:40:53.000Z</time>
      </trkpt>
      <trkpt lat="43.31952" lon="5.6745">
        <ele>923</ele>
        <time>2019-11-29T13:40:54.000Z</time>
      </trkpt>
      <trkpt lat="43.31952" lon="5.67449">
        <ele>923</ele>
        <time>2019-11-29T13:40:55.000Z</time>
      </trkpt>
      <trkpt lat="43.31952" lon="5.67448">
        <ele>923</ele>
        <time>2019-11-29T13:40:56.000Z</time>
      </trkpt>
      <trkpt lat="43.31953" lon="5.67447">
        <ele>923</ele>
        <time>2019-11-29T13:40:57.000Z</time>
      </trkpt>
      <trkpt lat="43.31953" lon="5.67446">
        <ele>923</ele>
        <time>2019-11-29T13:40:58.000Z</time>
      </trkpt>
      <trkpt lat="43.31953" lon="5.67444">
        <ele>923</ele>
        <time>2019-11-29T13:40:59.000Z</time>
      </trkpt>
      <trkpt lat="43.31953" lon="5.67443">
        <ele>923</ele>
        <time>2019-11-29T13:41:00.000Z</time>
      </trkpt>
      <trkpt lat="43.31953" lon="5.67442">
        <ele>924</ele>
        <time>2019-11-29T13:41:01.000Z</time>
      </trkpt>
      <trkpt lat="43.31953" lon="5.67441">
        <ele>924</ele>
        <time>2019-11-29T13:41:02.000Z</time>
      </trkpt>
      <trkpt lat="43.31954" lon="5.6744">
        <ele>923</ele>
        <time>2019-11-29T13:41:03.000Z</time>
      </trkpt>
      <trkpt lat="43.31954" lon="5.67439">
        <ele>923</ele>
        <time>2019-11-29T13:41:04.000Z</time>
      </trkpt>
      <trkpt lat="43.31954" lon="5.67438">
        <ele>923</ele>
        <time>2019-11-29T13:41:05.000Z</time>
      </trkpt>
      <trkpt lat="43.31954" lon="5.67437">
        <ele>923</ele>
        <time>2019-11-29T13:41:06.000Z</time>
      </trkpt>
      <trkpt lat="43.31953" lon="5.67435">
        <ele>923</ele>
        <time>2019-11-29T13:41:07.000Z</time>
      </trkpt>
      <trkpt lat="43.31953" lon="5.67434">
        <ele>923</ele>
        <time>2019-11-29T13:41:08.000Z</time>
      </trkpt>
      <trkpt lat="43.31952" lon="5.67433">
        <ele>923</ele>
        <time>2019-11-29T13:41:09.000Z</time>
      </trkpt>
      <trkpt lat="43.31952" lon="5.67432">
        <ele>923</ele>
        <time>2019-11-29T13:41:10.000Z</time>
      </trkpt>
      <trkpt lat="43.31952" lon="5.67431">
        <ele>923</ele>
        <time>2019-11-29T13:41:11.000Z</time>
      </trkpt>
      <trkpt lat="43.31951" lon="5.6743">
        <ele>923</ele>
        <time>2019-11-29T13:41:12.000Z</time>
      </trkpt>
      <trkpt lat="43.31951" lon="5.67429">
        <ele>923</ele>
        <time>2019-11-29T13:41:13.000Z</time>
      </trkpt>
      <trkpt lat="43.31951" lon="5.67428">
        <ele>923</ele>
        <time>2019-11-29T13:41:14.000Z</time>
      </trkpt>
      <trkpt lat="43.31951" lon="5.67427">
        <ele>923</ele>
        <time>2019-11-29T13:41:15.000Z</time>
      </trkpt>
      <trkpt lat="43.3195" lon="5.67426">
        <ele>923</ele>
        <time>2019-11-29T13:41:16.000Z</time>
      </trkpt>
      <trkpt lat="43.3195" lon="5.67424">
        <ele>923</ele>
        <time>2019-11-29T13:41:17.000Z</time>
      </trkpt>
      <trkpt lat="43.31949" lon="5.67423">
        <ele>923</ele>
        <time>2019-11-29T13:41:18.000Z</time>
      </trkpt>
      <trkpt lat="43.31949" lon="5.67422">
        <ele>923</ele>
        <time>2019-11-29T13:41:19.000Z</time>
      </trkpt>
      <trkpt lat="43.31949" lon="5.67421">
        <ele>924</ele>
        <time>2019-11-29T13:41:20.000Z</time>
      </trkpt>
      <trkpt lat="43.31948" lon="5.6742">
        <ele>924</ele>
        <time>2019-11-29T13:41:21.000Z</time>
      </trkpt>
      <trkpt lat="43.31948" lon="5.67419">
        <ele>924</ele>
        <time>2019-11-29T13:41:22.000Z</time>
      </trkpt>
      <trkpt lat="43.31948" lon="5.67418">
        <ele>924</ele>
        <time>2019-11-29T13:41:23.000Z</time>
      </trkpt>
      <trkpt lat="43.31947" lon="5.67417">
        <ele>924</ele>
        <time>2019-11-29T13:41:24.000Z</time>
      </trkpt>
      <trkpt lat="43.31947" lon="5.67416">
        <ele>924</ele>
        <time>2019-11-29T13:41:25.000Z</time>
      </trkpt>
      <trkpt lat="43.31946" lon="5.67414">
        <ele>924</ele>
        <time>2019-11-29T13:41:26.000Z</time>
      </trkpt>
      <trkpt lat="43.31946" lon="5.67413">
        <ele>924</ele>
        <time>2019-11-29T13:41:27.000Z</time>
      </trkpt>
      <trkpt lat="43.31946" lon="5.67412">
        <ele>924</ele>
        <time>2019-11-29T13:41:28.000Z</time>
      </trkpt>
      <trkpt lat="43.31946" lon="5.67411">
        <ele>924</ele>
        <time>2019-11-29T13:41:29.000Z</time>
      </trkpt>
      <trkpt lat="43.31945" lon="5.6741">
        <ele>924</ele>
        <time>2019-11-29T13:41:30.000Z</time>
      </trkpt>
      <trkpt lat="43.31945" lon="5.67409">
        <ele>924</ele>
        <time>2019-11-29T13:41:31.000Z</time>
      </trkpt>
      <trkpt lat="43.31945" lon="5.67408">
        <ele>924</ele>
        <time>2019-11-29T13:41:32.000Z</time>
      </trkpt>
      <trkpt lat="43.31944" lon="5.67407">
        <ele>924</ele>
        <time>2019-11-29T13:41:33.000Z</time>
      </trkpt>
      <trkpt lat="43.31944" lon="5.67406">
        <ele>924</ele>
        <time>2019-11-29T13:41:34.000Z</time>
      </trkpt>
      <trkpt lat="43.31944" lon="5.67405">
        <ele>924</ele>
        <time>2019-11-29T13:41:35.000Z</time>
      </trkpt>
      <trkpt lat="43.31943" lon="5.67403">
        <ele>924</ele>
        <time>2019-11-29T13:41:36.000Z</time>
      </trkpt>
      <trkpt lat="43.31943" lon="5.67402">
        <ele>924</ele>
        <time>2019-11-29T13:41:37.000Z</time>
      </trkpt>
      <trkpt lat="43.31943" lon="5.67401">
        <ele>924</ele>
        <time>2019-11-29T13:41:38.000Z</time>
      </trkpt>
      <trkpt lat="43.31943" lon="5.674">
        <ele>924</ele>
        <time>2019-11-29T13:41:39.000Z</time>
      </trkpt>
      <trkpt lat="43.31942" lon="5.67399">
        <ele>924</ele>
        <time>2019-11-29T13:41:40.000Z</time>
      </trkpt>
      <trkpt lat="43.31942" lon="5.67398">
        <ele>924</ele>
        <time>2019-11-29T13:41:41.000Z</time>
      </trkpt>
      <trkpt lat="43.31942" lon="5.67397">
        <ele>924</ele>
        <time>2019-11-29T13:41:42.000Z</time>
      </trkpt>
      <trkpt lat="43.31941" lon="5.67396">
        <ele>924</ele>
        <time>2019-11-29T13:41:43.000Z</time>
      </trkpt>
      <trkpt lat="43.31941" lon="5.67395">
        <ele>925</ele>
        <time>2019-11-29T13:41:44.000Z</time>
      </trkpt>
      <trkpt lat="43.31941" lon="5.67394">
        <ele>925</ele>
        <time>2019-11-29T13:41:45.000Z</time>
      </trkpt>
      <trkpt lat="43.31941" lon="5.67393">
        <ele>925</ele>
        <time>2019-11-29T13:41:46.000Z</time>
      </trkpt>
      <trkpt lat="43.31941" lon="5.67392">
        <ele>925</ele>
        <time>2019-11-29T13:41:47.000Z</time>
      </trkpt>
      <trkpt lat="43.3194" lon="5.67391">
        <ele>925</ele>
        <time>2019-11-29T13:41:48.000Z</time>
      </trkpt>
      <trkpt lat="43.3194" lon="5.67391">
        <ele>925</ele>
        <time>2019-11-29T13:41:49.000Z</time>
      </trkpt>
      <trkpt lat="43.31939" lon="5.67391">
        <ele>925</ele>
        <time>2019-11-29T13:41:50.000Z</time>
      </trkpt>
      <trkpt lat="43.31938" lon="5.6739">
        <ele>925</ele>
        <time>2019-11-29T13:41:51.000Z</time>
      </trkpt>
      <trkpt lat="43.31938" lon="5.67388">
        <ele>925</ele>
        <time>2019-11-29T13:41:52.000Z</time>
      </trkpt>
      <trkpt lat="43.31937" lon="5.67387">
        <ele>925</ele>
        <time>2019-11-29T13:41:53.000Z</time>
      </trkpt>
      <trkpt lat="43.31937" lon="5.67385">
        <ele>925</ele>
        <time>2019-11-29T13:41:54.000Z</time>
      </trkpt>
      <trkpt lat="43.31937" lon="5.67384">
        <ele>925</ele>
        <time>2019-11-29T13:41:55.000Z</time>
      </trkpt>
      <trkpt lat="43.31936" lon="5.67383">
        <ele>925</ele>
        <time>2019-11-29T13:41:56.000Z</time>
      </trkpt>
      <trkpt lat="43.31936" lon="5.67382">
        <ele>925</ele>
        <time>2019-11-29T13:41:57.000Z</time>
      </trkpt>
      <trkpt lat="43.31935" lon="5.67381">
        <ele>925</ele>
        <time>2019-11-29T13:41:58.000Z</time>
      </trkpt>
      <trkpt lat="43.31934" lon="5.6738">
        <ele>924</ele>
        <time>2019-11-29T13:41:59.000Z</time>
      </trkpt>
      <trkpt lat="43.31934" lon="5.67379">
        <ele>924</ele>
        <time>2019-11-29T13:42:00.000Z</time>
      </trkpt>
      <trkpt lat="43.31934" lon="5.67377">
        <ele>924</ele>
        <time>2019-11-29T13:42:01.000Z</time>
      </trkpt>
      <trkpt lat="43.31933" lon="5.67376">
        <ele>924</ele>
        <time>2019-11-29T13:42:02.000Z</time>
      </trkpt>
      <trkpt lat="43.31933" lon="5.67375">
        <ele>924</ele>
        <time>2019-11-29T13:42:03.000Z</time>
      </trkpt>
      <trkpt lat="43.31933" lon="5.67374">
        <ele>924</ele>
        <time>2019-11-29T13:42:04.000Z</time>
      </trkpt>
      <trkpt lat="43.31932" lon="5.67372">
        <ele>924</ele>
        <time>2019-11-29T13:42:05.000Z</time>
      </trkpt>
      <trkpt lat="43.31932" lon="5.6737">
        <ele>924</ele>
        <time>2019-11-29T13:42:06.000Z</time>
      </trkpt>
      <trkpt lat="43.31932" lon="5.67369">
        <ele>924</ele>
        <time>2019-11-29T13:42:07.000Z</time>
      </trkpt>
      <trkpt lat="43.31932" lon="5.67368">
        <ele>924</ele>
        <time>2019-11-29T13:42:08.000Z</time>
      </trkpt>
      <trkpt lat="43.31932" lon="5.67367">
        <ele>924</ele>
        <time>2019-11-29T13:42:09.000Z</time>
      </trkpt>
      <trkpt lat="43.31932" lon="5.67366">
        <ele>924</ele>
        <time>2019-11-29T13:42:10.000Z</time>
      </trkpt>
      <trkpt lat="43.31932" lon="5.67366">
        <ele>925</ele>
        <time>2019-11-29T13:42:11.000Z</time>
      </trkpt>
      <trkpt lat="43.31932" lon="5.67366">
        <ele>925</ele>
        <time>2019-11-29T13:42:12.000Z</time>
      </trkpt>
      <trkpt lat="43.31932" lon="5.67366">
        <ele>925</ele>
        <time>2019-11-29T13:42:13.000Z</time>
      </trkpt>
      <trkpt lat="43.31932" lon="5.67365">
        <ele>925</ele>
        <time>2019-11-29T13:42:14.000Z</time>
      </trkpt>
      <trkpt lat="43.31932" lon="5.67365">
        <ele>924</ele>
        <time>2019-11-29T13:42:15.000Z</time>
      </trkpt>
      <trkpt lat="43.31932" lon="5.67364">
        <ele>924</ele>
        <time>2019-11-29T13:42:16.000Z</time>
      </trkpt>
      <trkpt lat="43.31932" lon="5.67363">
        <ele>924</ele>
        <time>2019-11-29T13:42:17.000Z</time>
      </trkpt>
      <trkpt lat="43.31932" lon="5.67362">
        <ele>924</ele>
        <time>2019-11-29T13:42:18.000Z</time>
      </trkpt>
      <trkpt lat="43.31932" lon="5.67361">
        <ele>924</ele>
        <time>2019-11-29T13:42:19.000Z</time>
      </trkpt>
      <trkpt lat="43.31932" lon="5.6736">
        <ele>924</ele>
        <time>2019-11-29T13:42:20.000Z</time>
      </trkpt>
      <trkpt lat="43.31932" lon="5.67359">
        <ele>924</ele>
        <time>2019-11-29T13:42:21.000Z</time>
      </trkpt>
      <trkpt lat="43.31932" lon="5.67358">
        <ele>924</ele>
        <time>2019-11-29T13:42:22.000Z</time>
      </trkpt>
      <trkpt lat="43.31932" lon="5.67357">
        <ele>924</ele>
        <time>2019-11-29T13:42:23.000Z</time>
      </trkpt>
      <trkpt lat="43.31931" lon="5.67356">
        <ele>924</ele>
        <time>2019-11-29T13:42:24.000Z</time>
      </trkpt>
      <trkpt lat="43.31931" lon="5.67355">
        <ele>924</ele>
        <time>2019-11-29T13:42:25.000Z</time>
      </trkpt>
      <trkpt lat="43.31931" lon="5.67354">
        <ele>924</ele>
        <time>2019-11-29T13:42:26.000Z</time>
      </trkpt>
      <trkpt lat="43.3193" lon="5.67352">
        <ele>924</ele>
        <time>2019-11-29T13:42:27.000Z</time>
      </trkpt>
      <trkpt lat="43.3193" lon="5.67351">
        <ele>924</ele>
        <time>2019-11-29T13:42:28.000Z</time>
      </trkpt>
      <trkpt lat="43.3193" lon="5.6735">
        <ele>924</ele>
        <time>2019-11-29T13:42:29.000Z</time>
      </trkpt>
      <trkpt lat="43.31929" lon="5.6735">
        <ele>924</ele>
        <time>2019-11-29T13:42:30.000Z</time>
      </trkpt>
      <trkpt lat="43.31929" lon="5.67349">
        <ele>924</ele>
        <time>2019-11-29T13:42:31.000Z</time>
      </trkpt>
      <trkpt lat="43.31929" lon="5.67348">
        <ele>924</ele>
        <time>2019-11-29T13:42:32.000Z</time>
      </trkpt>
      <trkpt lat="43.31928" lon="5.67347">
        <ele>924</ele>
        <time>2019-11-29T13:42:33.000Z</time>
      </trkpt>
      <trkpt lat="43.31928" lon="5.67346">
        <ele>924</ele>
        <time>2019-11-29T13:42:34.000Z</time>
      </trkpt>
      <trkpt lat="43.31927" lon="5.67345">
        <ele>924</ele>
        <time>2019-11-29T13:42:35.000Z</time>
      </trkpt>
      <trkpt lat="43.31926" lon="5.67344">
        <ele>924</ele>
        <time>2019-11-29T13:42:36.000Z</time>
      </trkpt>
      <trkpt lat="43.31926" lon="5.67343">
        <ele>924</ele>
        <time>2019-11-29T13:42:37.000Z</time>
      </trkpt>
      <trkpt lat="43.31926" lon="5.67342">
        <ele>924</ele>
        <time>2019-11-29T13:42:38.000Z</time>
      </trkpt>
      <trkpt lat="43.31925" lon="5.67341">
        <ele>924</ele>
        <time>2019-11-29T13:42:39.000Z</time>
      </trkpt>
      <trkpt lat="43.31925" lon="5.6734">
        <ele>924</ele>
        <time>2019-11-29T13:42:40.000Z</time>
      </trkpt>
      <trkpt lat="43.31924" lon="5.67339">
        <ele>924</ele>
        <time>2019-11-29T13:42:41.000Z</time>
      </trkpt>
      <trkpt lat="43.31924" lon="5.67338">
        <ele>924</ele>
        <time>2019-11-29T13:42:42.000Z</time>
      </trkpt>
      <trkpt lat="43.31924" lon="5.67336">
        <ele>924</ele>
        <time>2019-11-29T13:42:43.000Z</time>
      </trkpt>
      <trkpt lat="43.31923" lon="5.67335">
        <ele>924</ele>
        <time>2019-11-29T13:42:44.000Z</time>
      </trkpt>
      <trkpt lat="43.31923" lon="5.67334">
        <ele>924</ele>
        <time>2019-11-29T13:42:45.000Z</time>
      </trkpt>
      <trkpt lat="43.31922" lon="5.67333">
        <ele>924</ele>
        <time>2019-11-29T13:42:46.000Z</time>
      </trkpt>
      <trkpt lat="43.31922" lon="5.67332">
        <ele>924</ele>
        <time>2019-11-29T13:42:47.000Z</time>
      </trkpt>
      <trkpt lat="43.31921" lon="5.67331">
        <ele>924</ele>
        <time>2019-11-29T13:42:48.000Z</time>
      </trkpt>
      <trkpt lat="43.31921" lon="5.67329">
        <ele>924</ele>
        <time>2019-11-29T13:42:49.000Z</time>
      </trkpt>
      <trkpt lat="43.31921" lon="5.67329">
        <ele>924</ele>
        <time>2019-11-29T13:42:50.000Z</time>
      </trkpt>
      <trkpt lat="43.31921" lon="5.67327">
        <ele>924</ele>
        <time>2019-11-29T13:42:51.000Z</time>
      </trkpt>
      <trkpt lat="43.3192" lon="5.67326">
        <ele>924</ele>
        <time>2019-11-29T13:42:52.000Z</time>
      </trkpt>
      <trkpt lat="43.3192" lon="5.67325">
        <ele>924</ele>
        <time>2019-11-29T13:42:53.000Z</time>
      </trkpt>
      <trkpt lat="43.3192" lon="5.67324">
        <ele>924</ele>
        <time>2019-11-29T13:42:54.000Z</time>
      </trkpt>
      <trkpt lat="43.31919" lon="5.67323">
        <ele>924</ele>
        <time>2019-11-29T13:42:55.000Z</time>
      </trkpt>
      <trkpt lat="43.31919" lon="5.67323">
        <ele>924</ele>
        <time>2019-11-29T13:42:56.000Z</time>
      </trkpt>
      <trkpt lat="43.31919" lon="5.67322">
        <ele>924</ele>
        <time>2019-11-29T13:42:57.000Z</time>
      </trkpt>
      <trkpt lat="43.31918" lon="5.67321">
        <ele>924</ele>
        <time>2019-11-29T13:42:58.000Z</time>
      </trkpt>
      <trkpt lat="43.31917" lon="5.6732">
        <ele>924</ele>
        <time>2019-11-29T13:42:59.000Z</time>
      </trkpt>
      <trkpt lat="43.31918" lon="5.67319">
        <ele>924</ele>
        <time>2019-11-29T13:43:00.000Z</time>
      </trkpt>
      <trkpt lat="43.31917" lon="5.67319">
        <ele>924</ele>
        <time>2019-11-29T13:43:01.000Z</time>
      </trkpt>
      <trkpt lat="43.31917" lon="5.67319">
        <ele>924</ele>
        <time>2019-11-29T13:43:02.000Z</time>
      </trkpt>
      <trkpt lat="43.31917" lon="5.67319">
        <ele>924</ele>
        <time>2019-11-29T13:43:03.000Z</time>
      </trkpt>
      <trkpt lat="43.31917" lon="5.67319">
        <ele>924</ele>
        <time>2019-11-29T13:43:04.000Z</time>
      </trkpt>
      <trkpt lat="43.31917" lon="5.67319">
        <ele>924</ele>
        <time>2019-11-29T13:43:05.000Z</time>
      </trkpt>
      <trkpt lat="43.31917" lon="5.67319">
        <ele>924</ele>
        <time>2019-11-29T13:43:06.000Z</time>
      </trkpt>
      <trkpt lat="43.31917" lon="5.67319">
        <ele>924</ele>
        <time>2019-11-29T13:43:07.000Z</time>
      </trkpt>
      <trkpt lat="43.31917" lon="5.67319">
        <ele>924</ele>
        <time>2019-11-29T13:43:08.000Z</time>
      </trkpt>
      <trkpt lat="43.31917" lon="5.67319">
        <ele>924</ele>
        <time>2019-11-29T13:43:09.000Z</time>
      </trkpt>
      <trkpt lat="43.31917" lon="5.67319">
        <ele>924</ele>
        <time>2019-11-29T13:43:10.000Z</time>
      </trkpt>
      <trkpt lat="43.31917" lon="5.67319">
        <ele>924</ele>
        <time>2019-11-29T13:43:11.000Z</time>
      </trkpt>
      <trkpt lat="43.31917" lon="5.67319">
        <ele>924</ele>
        <time>2019-11-29T13:43:12.000Z</time>
      </trkpt>
      <trkpt lat="43.31917" lon="5.67319">
        <ele>924</ele>
        <time>2019-11-29T13:43:13.000Z</time>
      </trkpt>
      <trkpt lat="43.31917" lon="5.67319">
        <ele>924</ele>
        <time>2019-11-29T13:43:14.000Z</time>
      </trkpt>
      <trkpt lat="43.31917" lon="5.67319">
        <ele>924</ele>
        <time>2019-11-29T13:43:15.000Z</time>
      </trkpt>
      <trkpt lat="43.31917" lon="5.67319">
        <ele>924</ele>
        <time>2019-11-29T13:43:16.000Z</time>
      </trkpt>
      <trkpt lat="43.31917" lon="5.67319">
        <ele>924</ele>
        <time>2019-11-29T13:43:17.000Z</time>
      </trkpt>
      <trkpt lat="43.31917" lon="5.67319">
        <ele>924</ele>
        <time>2019-11-29T13:43:18.000Z</time>
      </trkpt>
      <trkpt lat="43.31917" lon="5.67319">
        <ele>924</ele>
        <time>2019-11-29T13:43:19.000Z</time>
      </trkpt>
      <trkpt lat="43.31917" lon="5.67319">
        <ele>924</ele>
        <time>2019-11-29T13:43:20.000Z</time>
      </trkpt>
      <trkpt lat="43.31917" lon="5.67319">
        <ele>924</ele>
        <time>2019-11-29T13:43:21.000Z</time>
      </trkpt>
      <trkpt lat="43.31917" lon="5.67318">
        <ele>924</ele>
        <time>2019-11-29T13:43:22.000Z</time>
      </trkpt>
      <trkpt lat="43.31917" lon="5.67318">
        <ele>924</ele>
        <time>2019-11-29T13:43:23.000Z</time>
      </trkpt>
      <trkpt lat="43.31917" lon="5.67318">
        <ele>924</ele>
        <time>2019-11-29T13:43:24.000Z</time>
      </trkpt>
      <trkpt lat="43.31917" lon="5.67318">
        <ele>924</ele>
        <time>2019-11-29T13:43:25.000Z</time>
      </trkpt>
      <trkpt lat="43.31917" lon="5.67318">
        <ele>924</ele>
        <time>2019-11-29T13:43:26.000Z</time>
      </trkpt>
      <trkpt lat="43.31917" lon="5.67318">
        <ele>924</ele>
        <time>2019-11-29T13:43:27.000Z</time>
      </trkpt>
      <trkpt lat="43.31917" lon="5.67317">
        <ele>924</ele>
        <time>2019-11-29T13:43:28.000Z</time>
      </trkpt>
      <trkpt lat="43.31917" lon="5.67317">
        <ele>924</ele>
        <time>2019-11-29T13:43:29.000Z</time>
      </trkpt>
      <trkpt lat="43.31917" lon="5.67316">
        <ele>924</ele>
        <time>2019-11-29T13:43:30.000Z</time>
      </trkpt>
      <trkpt lat="43.31916" lon="5.67315">
        <ele>924</ele>
        <time>2019-11-29T13:43:31.000Z</time>
      </trkpt>
      <trkpt lat="43.31916" lon="5.67314">
        <ele>924</ele>
        <time>2019-11-29T13:43:32.000Z</time>
      </trkpt>
      <trkpt lat="43.31916" lon="5.67314">
        <ele>924</ele>
        <time>2019-11-29T13:43:33.000Z</time>
      </trkpt>
      <trkpt lat="43.31916" lon="5.67313">
        <ele>924</ele>
        <time>2019-11-29T13:43:34.000Z</time>
      </trkpt>
      <trkpt lat="43.31916" lon="5.67312">
        <ele>924</ele>
        <time>2019-11-29T13:43:35.000Z</time>
      </trkpt>
      <trkpt lat="43.31915" lon="5.67311">
        <ele>924</ele>
        <time>2019-11-29T13:43:36.000Z</time>
      </trkpt>
      <trkpt lat="43.31915" lon="5.67309">
        <ele>924</ele>
        <time>2019-11-29T13:43:37.000Z</time>
      </trkpt>
      <trkpt lat="43.31914" lon="5.67308">
        <ele>924</ele>
        <time>2019-11-29T13:43:38.000Z</time>
      </trkpt>
      <trkpt lat="43.31914" lon="5.67307">
        <ele>924</ele>
        <time>2019-11-29T13:43:39.000Z</time>
      </trkpt>
      <trkpt lat="43.31913" lon="5.67306">
        <ele>924</ele>
        <time>2019-11-29T13:43:40.000Z</time>
      </trkpt>
      <trkpt lat="43.31913" lon="5.67304">
        <ele>924</ele>
        <time>2019-11-29T13:43:41.000Z</time>
      </trkpt>
      <trkpt lat="43.31912" lon="5.67303">
        <ele>924</ele>
        <time>2019-11-29T13:43:42.000Z</time>
      </trkpt>
      <trkpt lat="43.31912" lon="5.67301">
        <ele>924</ele>
        <time>2019-11-29T13:43:43.000Z</time>
      </trkpt>
      <trkpt lat="43.31912" lon="5.673">
        <ele>924</ele>
        <time>2019-11-29T13:43:44.000Z</time>
      </trkpt>
      <trkpt lat="43.31912" lon="5.67299">
        <ele>924</ele>
        <time>2019-11-29T13:43:45.000Z</time>
      </trkpt>
      <trkpt lat="43.31912" lon="5.67297">
        <ele>924</ele>
        <time>2019-11-29T13:43:46.000Z</time>
      </trkpt>
      <trkpt lat="43.31911" lon="5.67296">
        <ele>924</ele>
        <time>2019-11-29T13:43:47.000Z</time>
      </trkpt>
      <trkpt lat="43.31911" lon="5.67295">
        <ele>924</ele>
        <time>2019-11-29T13:43:48.000Z</time>
      </trkpt>
      <trkpt lat="43.3191" lon="5.67293">
        <ele>924</ele>
        <time>2019-11-29T13:43:49.000Z</time>
      </trkpt>
      <trkpt lat="43.3191" lon="5.67292">
        <ele>924</ele>
        <time>2019-11-29T13:43:50.000Z</time>
      </trkpt>
      <trkpt lat="43.3191" lon="5.67291">
        <ele>924</ele>
        <time>2019-11-29T13:43:51.000Z</time>
      </trkpt>
      <trkpt lat="43.31909" lon="5.67289">
        <ele>924</ele>
        <time>2019-11-29T13:43:52.000Z</time>
      </trkpt>
      <trkpt lat="43.31909" lon="5.67288">
        <ele>924</ele>
        <time>2019-11-29T13:43:53.000Z</time>
      </trkpt>
      <trkpt lat="43.31909" lon="5.67287">
        <ele>924</ele>
        <time>2019-11-29T13:43:54.000Z</time>
      </trkpt>
      <trkpt lat="43.31909" lon="5.67286">
        <ele>924</ele>
        <time>2019-11-29T13:43:55.000Z</time>
      </trkpt>
      <trkpt lat="43.31909" lon="5.67284">
        <ele>924</ele>
        <time>2019-11-29T13:43:56.000Z</time>
      </trkpt>
      <trkpt lat="43.31908" lon="5.67282">
        <ele>924</ele>
        <time>2019-11-29T13:43:57.000Z</time>
      </trkpt>
      <trkpt lat="43.31908" lon="5.67281">
        <ele>924</ele>
        <time>2019-11-29T13:43:58.000Z</time>
      </trkpt>
      <trkpt lat="43.31908" lon="5.6728">
        <ele>924</ele>
        <time>2019-11-29T13:43:59.000Z</time>
      </trkpt>
      <trkpt lat="43.31907" lon="5.67279">
        <ele>924</ele>
        <time>2019-11-29T13:44:00.000Z</time>
      </trkpt>
      <trkpt lat="43.31907" lon="5.67277">
        <ele>924</ele>
        <time>2019-11-29T13:44:01.000Z</time>
      </trkpt>
      <trkpt lat="43.31907" lon="5.67276">
        <ele>924</ele>
        <time>2019-11-29T13:44:02.000Z</time>
      </trkpt>
      <trkpt lat="43.31906" lon="5.67275">
        <ele>924</ele>
        <time>2019-11-29T13:44:03.000Z</time>
      </trkpt>
      <trkpt lat="43.31906" lon="5.67274">
        <ele>924</ele>
        <time>2019-11-29T13:44:04.000Z</time>
      </trkpt>
      <trkpt lat="43.31905" lon="5.67273">
        <ele>924</ele>
        <time>2019-11-29T13:44:05.000Z</time>
      </trkpt>
      <trkpt lat="43.31905" lon="5.67271">
        <ele>924</ele>
        <time>2019-11-29T13:44:06.000Z</time>
      </trkpt>
      <trkpt lat="43.31905" lon="5.6727">
        <ele>924</ele>
        <time>2019-11-29T13:44:07.000Z</time>
      </trkpt>
      <trkpt lat="43.31905" lon="5.67269">
        <ele>924</ele>
        <time>2019-11-29T13:44:08.000Z</time>
      </trkpt>
      <trkpt lat="43.31904" lon="5.67268">
        <ele>924</ele>
        <time>2019-11-29T13:44:09.000Z</time>
      </trkpt>
      <trkpt lat="43.31904" lon="5.67267">
        <ele>924</ele>
        <time>2019-11-29T13:44:10.000Z</time>
      </trkpt>
      <trkpt lat="43.31904" lon="5.67265">
        <ele>924</ele>
        <time>2019-11-29T13:44:11.000Z</time>
      </trkpt>
      <trkpt lat="43.31904" lon="5.67264">
        <ele>924</ele>
        <time>2019-11-29T13:44:12.000Z</time>
      </trkpt>
      <trkpt lat="43.31903" lon="5.67263">
        <ele>924</ele>
        <time>2019-11-29T13:44:13.000Z</time>
      </trkpt>
      <trkpt lat="43.31903" lon="5.67262">
        <ele>924</ele>
        <time>2019-11-29T13:44:14.000Z</time>
      </trkpt>
      <trkpt lat="43.31903" lon="5.6726">
        <ele>924</ele>
        <time>2019-11-29T13:44:15.000Z</time>
      </trkpt>
      <trkpt lat="43.31903" lon="5.67259">
        <ele>924</ele>
        <time>2019-11-29T13:44:16.000Z</time>
      </trkpt>
      <trkpt lat="43.31903" lon="5.67257">
        <ele>924</ele>
        <time>2019-11-29T13:44:17.000Z</time>
      </trkpt>
      <trkpt lat="43.31902" lon="5.67256">
        <ele>924</ele>
        <time>2019-11-29T13:44:18.000Z</time>
      </trkpt>
      <trkpt lat="43.31902" lon="5.67255">
        <ele>924</ele>
        <time>2019-11-29T13:44:19.000Z</time>
      </trkpt>
      <trkpt lat="43.31902" lon="5.67253">
        <ele>924</ele>
        <time>2019-11-29T13:44:20.000Z</time>
      </trkpt>
      <trkpt lat="43.31902" lon="5.67252">
        <ele>924</ele>
        <time>2019-11-29T13:44:21.000Z</time>
      </trkpt>
      <trkpt lat="43.31902" lon="5.67251">
        <ele>924</ele>
        <time>2019-11-29T13:44:22.000Z</time>
      </trkpt>
      <trkpt lat="43.31902" lon="5.6725">
        <ele>924</ele>
        <time>2019-11-29T13:44:23.000Z</time>
      </trkpt>
      <trkpt lat="43.31902" lon="5.67249">
        <ele>924</ele>
        <time>2019-11-29T13:44:24.000Z</time>
      </trkpt>
      <trkpt lat="43.31901" lon="5.67247">
        <ele>924</ele>
        <time>2019-11-29T13:44:25.000Z</time>
      </trkpt>
      <trkpt lat="43.31901" lon="5.67246">
        <ele>924</ele>
        <time>2019-11-29T13:44:26.000Z</time>
      </trkpt>
      <trkpt lat="43.319" lon="5.67245">
        <ele>924</ele>
        <time>2019-11-29T13:44:27.000Z</time>
      </trkpt>
      <trkpt lat="43.319" lon="5.67243">
        <ele>924</ele>
        <time>2019-11-29T13:44:28.000Z</time>
      </trkpt>
      <trkpt lat="43.319" lon="5.67242">
        <ele>924</ele>
        <time>2019-11-29T13:44:29.000Z</time>
      </trkpt>
      <trkpt lat="43.319" lon="5.6724">
        <ele>924</ele>
        <time>2019-11-29T13:44:30.000Z</time>
      </trkpt>
      <trkpt lat="43.31899" lon="5.67239">
        <ele>924</ele>
        <time>2019-11-29T13:44:31.000Z</time>
      </trkpt>
      <trkpt lat="43.31899" lon="5.67238">
        <ele>924</ele>
        <time>2019-11-29T13:44:32.000Z</time>
      </trkpt>
      <trkpt lat="43.31899" lon="5.67236">
        <ele>924</ele>
        <time>2019-11-29T13:44:33.000Z</time>
      </trkpt>
      <trkpt lat="43.31899" lon="5.67235">
        <ele>924</ele>
        <time>2019-11-29T13:44:34.000Z</time>
      </trkpt>
      <trkpt lat="43.31899" lon="5.67233">
        <ele>924</ele>
        <time>2019-11-29T13:44:35.000Z</time>
      </trkpt>
      <trkpt lat="43.31898" lon="5.67232">
        <ele>924</ele>
        <time>2019-11-29T13:44:36.000Z</time>
      </trkpt>
      <trkpt lat="43.31898" lon="5.6723">
        <ele>924</ele>
        <time>2019-11-29T13:44:37.000Z</time>
      </trkpt>
      <trkpt lat="43.31897" lon="5.67229">
        <ele>924</ele>
        <time>2019-11-29T13:44:38.000Z</time>
      </trkpt>
      <trkpt lat="43.31897" lon="5.67228">
        <ele>924</ele>
        <time>2019-11-29T13:44:39.000Z</time>
      </trkpt>
      <trkpt lat="43.31897" lon="5.67226">
        <ele>924</ele>
        <time>2019-11-29T13:44:40.000Z</time>
      </trkpt>
      <trkpt lat="43.31898" lon="5.67225">
        <ele>924</ele>
        <time>2019-11-29T13:44:41.000Z</time>
      </trkpt>
      <trkpt lat="43.31897" lon="5.67224">
        <ele>924</ele>
        <time>2019-11-29T13:44:42.000Z</time>
      </trkpt>
      <trkpt lat="43.31897" lon="5.67223">
        <ele>924</ele>
        <time>2019-11-29T13:44:43.000Z</time>
      </trkpt>
      <trkpt lat="43.31897" lon="5.67222">
        <ele>924</ele>
        <time>2019-11-29T13:44:44.000Z</time>
      </trkpt>
      <trkpt lat="43.31896" lon="5.67221">
        <ele>925</ele>
        <time>2019-11-29T13:44:45.000Z</time>
      </trkpt>
      <trkpt lat="43.31896" lon="5.6722">
        <ele>925</ele>
        <time>2019-11-29T13:44:46.000Z</time>
      </trkpt>
      <trkpt lat="43.31895" lon="5.67219">
        <ele>925</ele>
        <time>2019-11-29T13:44:47.000Z</time>
      </trkpt>
      <trkpt lat="43.31895" lon="5.67218">
        <ele>925</ele>
        <time>2019-11-29T13:44:48.000Z</time>
      </trkpt>
      <trkpt lat="43.31894" lon="5.67217">
        <ele>925</ele>
        <time>2019-11-29T13:44:49.000Z</time>
      </trkpt>
      <trkpt lat="43.31894" lon="5.67215">
        <ele>925</ele>
        <time>2019-11-29T13:44:50.000Z</time>
      </trkpt>
      <trkpt lat="43.31893" lon="5.67213">
        <ele>925</ele>
        <time>2019-11-29T13:44:51.000Z</time>
      </trkpt>
      <trkpt lat="43.31893" lon="5.67212">
        <ele>925</ele>
        <time>2019-11-29T13:44:52.000Z</time>
      </trkpt>
      <trkpt lat="43.31892" lon="5.67211">
        <ele>925</ele>
        <time>2019-11-29T13:44:53.000Z</time>
      </trkpt>
      <trkpt lat="43.31892" lon="5.6721">
        <ele>926</ele>
        <time>2019-11-29T13:44:54.000Z</time>
      </trkpt>
      <trkpt lat="43.31892" lon="5.67209">
        <ele>926</ele>
        <time>2019-11-29T13:44:55.000Z</time>
      </trkpt>
      <trkpt lat="43.31892" lon="5.67208">
        <ele>926</ele>
        <time>2019-11-29T13:44:56.000Z</time>
      </trkpt>
      <trkpt lat="43.31891" lon="5.67207">
        <ele>926</ele>
        <time>2019-11-29T13:44:57.000Z</time>
      </trkpt>
      <trkpt lat="43.31891" lon="5.67205">
        <ele>926</ele>
        <time>2019-11-29T13:44:58.000Z</time>
      </trkpt>
      <trkpt lat="43.3189" lon="5.67204">
        <ele>926</ele>
        <time>2019-11-29T13:44:59.000Z</time>
      </trkpt>
      <trkpt lat="43.3189" lon="5.67203">
        <ele>926</ele>
        <time>2019-11-29T13:45:00.000Z</time>
      </trkpt>
      <trkpt lat="43.3189" lon="5.67201">
        <ele>926</ele>
        <time>2019-11-29T13:45:01.000Z</time>
      </trkpt>
      <trkpt lat="43.3189" lon="5.672">
        <ele>926</ele>
        <time>2019-11-29T13:45:02.000Z</time>
      </trkpt>
      <trkpt lat="43.3189" lon="5.67198">
        <ele>926</ele>
        <time>2019-11-29T13:45:03.000Z</time>
      </trkpt>
      <trkpt lat="43.3189" lon="5.67197">
        <ele>926</ele>
        <time>2019-11-29T13:45:04.000Z</time>
      </trkpt>
      <trkpt lat="43.3189" lon="5.67196">
        <ele>926</ele>
        <time>2019-11-29T13:45:05.000Z</time>
      </trkpt>
      <trkpt lat="43.31889" lon="5.67194">
        <ele>927</ele>
        <time>2019-11-29T13:45:06.000Z</time>
      </trkpt>
      <trkpt lat="43.31889" lon="5.67193">
        <ele>927</ele>
        <time>2019-11-29T13:45:07.000Z</time>
      </trkpt>
      <trkpt lat="43.31889" lon="5.67191">
        <ele>927</ele>
        <time>2019-11-29T13:45:08.000Z</time>
      </trkpt>
      <trkpt lat="43.31888" lon="5.6719">
        <ele>927</ele>
        <time>2019-11-29T13:45:09.000Z</time>
      </trkpt>
      <trkpt lat="43.31888" lon="5.67188">
        <ele>927</ele>
        <time>2019-11-29T13:45:10.000Z</time>
      </trkpt>
      <trkpt lat="43.31888" lon="5.67187">
        <ele>927</ele>
        <time>2019-11-29T13:45:11.000Z</time>
      </trkpt>
      <trkpt lat="43.31887" lon="5.67186">
        <ele>927</ele>
        <time>2019-11-29T13:45:12.000Z</time>
      </trkpt>
      <trkpt lat="43.31887" lon="5.67184">
        <ele>927</ele>
        <time>2019-11-29T13:45:13.000Z</time>
      </trkpt>
      <trkpt lat="43.31887" lon="5.67183">
        <ele>927</ele>
        <time>2019-11-29T13:45:14.000Z</time>
      </trkpt>
      <trkpt lat="43.31887" lon="5.67181">
        <ele>927</ele>
        <time>2019-11-29T13:45:15.000Z</time>
      </trkpt>
      <trkpt lat="43.31887" lon="5.6718">
        <ele>927</ele>
        <time>2019-11-29T13:45:16.000Z</time>
      </trkpt>
      <trkpt lat="43.31887" lon="5.67179">
        <ele>928</ele>
        <time>2019-11-29T13:45:17.000Z</time>
      </trkpt>
      <trkpt lat="43.31887" lon="5.67177">
        <ele>928</ele>
        <time>2019-11-29T13:45:18.000Z</time>
      </trkpt>
      <trkpt lat="43.31887" lon="5.67176">
        <ele>928</ele>
        <time>2019-11-29T13:45:19.000Z</time>
      </trkpt>
      <trkpt lat="43.31887" lon="5.67175">
        <ele>928</ele>
        <time>2019-11-29T13:45:20.000Z</time>
      </trkpt>
      <trkpt lat="43.31887" lon="5.67173">
        <ele>928</ele>
        <time>2019-11-29T13:45:21.000Z</time>
      </trkpt>
      <trkpt lat="43.31887" lon="5.67172">
        <ele>928</ele>
        <time>2019-11-29T13:45:22.000Z</time>
      </trkpt>
      <trkpt lat="43.31887" lon="5.6717">
        <ele>928</ele>
        <time>2019-11-29T13:45:23.000Z</time>
      </trkpt>
      <trkpt lat="43.31887" lon="5.67168">
        <ele>928</ele>
        <time>2019-11-29T13:45:24.000Z</time>
      </trkpt>
      <trkpt lat="43.31887" lon="5.67167">
        <ele>928</ele>
        <time>2019-11-29T13:45:25.000Z</time>
      </trkpt>
      <trkpt lat="43.31887" lon="5.67166">
        <ele>929</ele>
        <time>2019-11-29T13:45:26.000Z</time>
      </trkpt>
      <trkpt lat="43.31886" lon="5.67164">
        <ele>929</ele>
        <time>2019-11-29T13:45:27.000Z</time>
      </trkpt>
      <trkpt lat="43.31886" lon="5.67162">
        <ele>929</ele>
        <time>2019-11-29T13:45:28.000Z</time>
      </trkpt>
      <trkpt lat="43.31886" lon="5.67161">
        <ele>929</ele>
        <time>2019-11-29T13:45:29.000Z</time>
      </trkpt>
      <trkpt lat="43.31886" lon="5.67159">
        <ele>929</ele>
        <time>2019-11-29T13:45:30.000Z</time>
      </trkpt>
      <trkpt lat="43.31886" lon="5.67158">
        <ele>929</ele>
        <time>2019-11-29T13:45:31.000Z</time>
      </trkpt>
      <trkpt lat="43.31886" lon="5.67156">
        <ele>929</ele>
        <time>2019-11-29T13:45:32.000Z</time>
      </trkpt>
      <trkpt lat="43.31886" lon="5.67155">
        <ele>929</ele>
        <time>2019-11-29T13:45:33.000Z</time>
      </trkpt>
      <trkpt lat="43.31886" lon="5.67153">
        <ele>929</ele>
        <time>2019-11-29T13:45:34.000Z</time>
      </trkpt>
      <trkpt lat="43.31886" lon="5.67151">
        <ele>929</ele>
        <time>2019-11-29T13:45:35.000Z</time>
      </trkpt>
      <trkpt lat="43.31886" lon="5.6715">
        <ele>929</ele>
        <time>2019-11-29T13:45:36.000Z</time>
      </trkpt>
      <trkpt lat="43.31886" lon="5.67148">
        <ele>929</ele>
        <time>2019-11-29T13:45:37.000Z</time>
      </trkpt>
      <trkpt lat="43.31886" lon="5.67147">
        <ele>929</ele>
        <time>2019-11-29T13:45:38.000Z</time>
      </trkpt>
      <trkpt lat="43.31886" lon="5.67146">
        <ele>929</ele>
        <time>2019-11-29T13:45:39.000Z</time>
      </trkpt>
      <trkpt lat="43.31886" lon="5.67144">
        <ele>929</ele>
        <time>2019-11-29T13:45:40.000Z</time>
      </trkpt>
      <trkpt lat="43.31886" lon="5.67143">
        <ele>929</ele>
        <time>2019-11-29T13:45:41.000Z</time>
      </trkpt>
      <trkpt lat="43.31886" lon="5.67141">
        <ele>929</ele>
        <time>2019-11-29T13:45:42.000Z</time>
      </trkpt>
      <trkpt lat="43.31886" lon="5.6714">
        <ele>929</ele>
        <time>2019-11-29T13:45:43.000Z</time>
      </trkpt>
      <trkpt lat="43.31886" lon="5.67139">
        <ele>929</ele>
        <time>2019-11-29T13:45:44.000Z</time>
      </trkpt>
      <trkpt lat="43.31886" lon="5.67137">
        <ele>929</ele>
        <time>2019-11-29T13:45:45.000Z</time>
      </trkpt>
      <trkpt lat="43.31885" lon="5.67136">
        <ele>930</ele>
        <time>2019-11-29T13:45:46.000Z</time>
      </trkpt>
      <trkpt lat="43.31885" lon="5.67135">
        <ele>930</ele>
        <time>2019-11-29T13:45:47.000Z</time>
      </trkpt>
      <trkpt lat="43.31885" lon="5.67133">
        <ele>930</ele>
        <time>2019-11-29T13:45:48.000Z</time>
      </trkpt>
      <trkpt lat="43.31885" lon="5.67132">
        <ele>930</ele>
        <time>2019-11-29T13:45:49.000Z</time>
      </trkpt>
      <trkpt lat="43.31885" lon="5.67131">
        <ele>930</ele>
        <time>2019-11-29T13:45:50.000Z</time>
      </trkpt>
      <trkpt lat="43.31885" lon="5.67129">
        <ele>931</ele>
        <time>2019-11-29T13:45:51.000Z</time>
      </trkpt>
      <trkpt lat="43.31885" lon="5.67128">
        <ele>931</ele>
        <time>2019-11-29T13:45:52.000Z</time>
      </trkpt>
      <trkpt lat="43.31885" lon="5.67126">
        <ele>931</ele>
        <time>2019-11-29T13:45:53.000Z</time>
      </trkpt>
      <trkpt lat="43.31885" lon="5.67125">
        <ele>931</ele>
        <time>2019-11-29T13:45:54.000Z</time>
      </trkpt>
      <trkpt lat="43.31885" lon="5.67123">
        <ele>931</ele>
        <time>2019-11-29T13:45:55.000Z</time>
      </trkpt>
      <trkpt lat="43.31885" lon="5.67122">
        <ele>931</ele>
        <time>2019-11-29T13:45:56.000Z</time>
      </trkpt>
      <trkpt lat="43.31885" lon="5.6712">
        <ele>931</ele>
        <time>2019-11-29T13:45:57.000Z</time>
      </trkpt>
      <trkpt lat="43.31885" lon="5.67118">
        <ele>931</ele>
        <time>2019-11-29T13:45:58.000Z</time>
      </trkpt>
      <trkpt lat="43.31885" lon="5.67117">
        <ele>932</ele>
        <time>2019-11-29T13:45:59.000Z</time>
      </trkpt>
      <trkpt lat="43.31885" lon="5.67115">
        <ele>932</ele>
        <time>2019-11-29T13:46:00.000Z</time>
      </trkpt>
      <trkpt lat="43.31885" lon="5.67114">
        <ele>932</ele>
        <time>2019-11-29T13:46:01.000Z</time>
      </trkpt>
      <trkpt lat="43.31885" lon="5.67112">
        <ele>932</ele>
        <time>2019-11-29T13:46:02.000Z</time>
      </trkpt>
      <trkpt lat="43.31885" lon="5.67111">
        <ele>932</ele>
        <time>2019-11-29T13:46:03.000Z</time>
      </trkpt>
      <trkpt lat="43.31885" lon="5.67109">
        <ele>932</ele>
        <time>2019-11-29T13:46:04.000Z</time>
      </trkpt>
      <trkpt lat="43.31886" lon="5.67108">
        <ele>932</ele>
        <time>2019-11-29T13:46:05.000Z</time>
      </trkpt>
      <trkpt lat="43.31886" lon="5.67107">
        <ele>932</ele>
        <time>2019-11-29T13:46:06.000Z</time>
      </trkpt>
      <trkpt lat="43.31886" lon="5.67105">
        <ele>932</ele>
        <time>2019-11-29T13:46:07.000Z</time>
      </trkpt>
      <trkpt lat="43.31885" lon="5.67104">
        <ele>932</ele>
        <time>2019-11-29T13:46:08.000Z</time>
      </trkpt>
      <trkpt lat="43.31886" lon="5.67102">
        <ele>932</ele>
        <time>2019-11-29T13:46:09.000Z</time>
      </trkpt>
      <trkpt lat="43.31885" lon="5.67101">
        <ele>933</ele>
        <time>2019-11-29T13:46:10.000Z</time>
      </trkpt>
      <trkpt lat="43.31885" lon="5.671">
        <ele>933</ele>
        <time>2019-11-29T13:46:11.000Z</time>
      </trkpt>
      <trkpt lat="43.31886" lon="5.67099">
        <ele>933</ele>
        <time>2019-11-29T13:46:12.000Z</time>
      </trkpt>
      <trkpt lat="43.31886" lon="5.67097">
        <ele>933</ele>
        <time>2019-11-29T13:46:13.000Z</time>
      </trkpt>
      <trkpt lat="43.31886" lon="5.67096">
        <ele>933</ele>
        <time>2019-11-29T13:46:14.000Z</time>
      </trkpt>
      <trkpt lat="43.31887" lon="5.67094">
        <ele>933</ele>
        <time>2019-11-29T13:46:15.000Z</time>
      </trkpt>
      <trkpt lat="43.31887" lon="5.67093">
        <ele>933</ele>
        <time>2019-11-29T13:46:16.000Z</time>
      </trkpt>
      <trkpt lat="43.31887" lon="5.67091">
        <ele>933</ele>
        <time>2019-11-29T13:46:17.000Z</time>
      </trkpt>
      <trkpt lat="43.31888" lon="5.6709">
        <ele>933</ele>
        <time>2019-11-29T13:46:18.000Z</time>
      </trkpt>
      <trkpt lat="43.31888" lon="5.67089">
        <ele>933</ele>
        <time>2019-11-29T13:46:19.000Z</time>
      </trkpt>
      <trkpt lat="43.31888" lon="5.67088">
        <ele>933</ele>
        <time>2019-11-29T13:46:20.000Z</time>
      </trkpt>
      <trkpt lat="43.31889" lon="5.67087">
        <ele>933</ele>
        <time>2019-11-29T13:46:21.000Z</time>
      </trkpt>
      <trkpt lat="43.31889" lon="5.67086">
        <ele>934</ele>
        <time>2019-11-29T13:46:22.000Z</time>
      </trkpt>
      <trkpt lat="43.3189" lon="5.67085">
        <ele>934</ele>
        <time>2019-11-29T13:46:23.000Z</time>
      </trkpt>
      <trkpt lat="43.3189" lon="5.67084">
        <ele>934</ele>
        <time>2019-11-29T13:46:24.000Z</time>
      </trkpt>
      <trkpt lat="43.3189" lon="5.67082">
        <ele>934</ele>
        <time>2019-11-29T13:46:25.000Z</time>
      </trkpt>
      <trkpt lat="43.3189" lon="5.67081">
        <ele>934</ele>
        <time>2019-11-29T13:46:26.000Z</time>
      </trkpt>
      <trkpt lat="43.31891" lon="5.6708">
        <ele>934</ele>
        <time>2019-11-29T13:46:27.000Z</time>
      </trkpt>
      <trkpt lat="43.31891" lon="5.67078">
        <ele>934</ele>
        <time>2019-11-29T13:46:28.000Z</time>
      </trkpt>
      <trkpt lat="43.31891" lon="5.67077">
        <ele>934</ele>
        <time>2019-11-29T13:46:29.000Z</time>
      </trkpt>
      <trkpt lat="43.31892" lon="5.67076">
        <ele>934</ele>
        <time>2019-11-29T13:46:30.000Z</time>
      </trkpt>
      <trkpt lat="43.31892" lon="5.67075">
        <ele>934</ele>
        <time>2019-11-29T13:46:31.000Z</time>
      </trkpt>
      <trkpt lat="43.31892" lon="5.67074">
        <ele>934</ele>
        <time>2019-11-29T13:46:32.000Z</time>
      </trkpt>
      <trkpt lat="43.31892" lon="5.67072">
        <ele>934</ele>
        <time>2019-11-29T13:46:33.000Z</time>
      </trkpt>
      <trkpt lat="43.31892" lon="5.67071">
        <ele>934</ele>
        <time>2019-11-29T13:46:34.000Z</time>
      </trkpt>
      <trkpt lat="43.31892" lon="5.6707">
        <ele>934</ele>
        <time>2019-11-29T13:46:35.000Z</time>
      </trkpt>
      <trkpt lat="43.31893" lon="5.67068">
        <ele>935</ele>
        <time>2019-11-29T13:46:36.000Z</time>
      </trkpt>
      <trkpt lat="43.31893" lon="5.67067">
        <ele>935</ele>
        <time>2019-11-29T13:46:37.000Z</time>
      </trkpt>
      <trkpt lat="43.31893" lon="5.67066">
        <ele>935</ele>
        <time>2019-11-29T13:46:38.000Z</time>
      </trkpt>
      <trkpt lat="43.31893" lon="5.67065">
        <ele>935</ele>
        <time>2019-11-29T13:46:39.000Z</time>
      </trkpt>
      <trkpt lat="43.31893" lon="5.67063">
        <ele>935</ele>
        <time>2019-11-29T13:46:40.000Z</time>
      </trkpt>
      <trkpt lat="43.31893" lon="5.67061">
        <ele>935</ele>
        <time>2019-11-29T13:46:41.000Z</time>
      </trkpt>
      <trkpt lat="43.31893" lon="5.6706">
        <ele>935</ele>
        <time>2019-11-29T13:46:42.000Z</time>
      </trkpt>
      <trkpt lat="43.31894" lon="5.67059">
        <ele>935</ele>
        <time>2019-11-29T13:46:43.000Z</time>
      </trkpt>
      <trkpt lat="43.31894" lon="5.67058">
        <ele>935</ele>
        <time>2019-11-29T13:46:44.000Z</time>
      </trkpt>
      <trkpt lat="43.31895" lon="5.67056">
        <ele>935</ele>
        <time>2019-11-29T13:46:45.000Z</time>
      </trkpt>
      <trkpt lat="43.31895" lon="5.67055">
        <ele>935</ele>
        <time>2019-11-29T13:46:46.000Z</time>
      </trkpt>
      <trkpt lat="43.31896" lon="5.67054">
        <ele>935</ele>
        <time>2019-11-29T13:46:47.000Z</time>
      </trkpt>
      <trkpt lat="43.31896" lon="5.67053">
        <ele>935</ele>
        <time>2019-11-29T13:46:48.000Z</time>
      </trkpt>
      <trkpt lat="43.31896" lon="5.67051">
        <ele>935</ele>
        <time>2019-11-29T13:46:49.000Z</time>
      </trkpt>
      <trkpt lat="43.31897" lon="5.67049">
        <ele>935</ele>
        <time>2019-11-29T13:46:50.000Z</time>
      </trkpt>
      <trkpt lat="43.31897" lon="5.67048">
        <ele>935</ele>
        <time>2019-11-29T13:46:51.000Z</time>
      </trkpt>
      <trkpt lat="43.31897" lon="5.67047">
        <ele>935</ele>
        <time>2019-11-29T13:46:52.000Z</time>
      </trkpt>
      <trkpt lat="43.31897" lon="5.67045">
        <ele>935</ele>
        <time>2019-11-29T13:46:53.000Z</time>
      </trkpt>
      <trkpt lat="43.31897" lon="5.67044">
        <ele>935</ele>
        <time>2019-11-29T13:46:54.000Z</time>
      </trkpt>
      <trkpt lat="43.31897" lon="5.67042">
        <ele>935</ele>
        <time>2019-11-29T13:46:55.000Z</time>
      </trkpt>
      <trkpt lat="43.31897" lon="5.67041">
        <ele>935</ele>
        <time>2019-11-29T13:46:56.000Z</time>
      </trkpt>
      <trkpt lat="43.31897" lon="5.67039">
        <ele>935</ele>
        <time>2019-11-29T13:46:57.000Z</time>
      </trkpt>
      <trkpt lat="43.31896" lon="5.67038">
        <ele>934</ele>
        <time>2019-11-29T13:46:58.000Z</time>
      </trkpt>
      <trkpt lat="43.31896" lon="5.67037">
        <ele>934</ele>
        <time>2019-11-29T13:46:59.000Z</time>
      </trkpt>
      <trkpt lat="43.31896" lon="5.67036">
        <ele>934</ele>
        <time>2019-11-29T13:47:00.000Z</time>
      </trkpt>
      <trkpt lat="43.31896" lon="5.67034">
        <ele>934</ele>
        <time>2019-11-29T13:47:01.000Z</time>
      </trkpt>
      <trkpt lat="43.31896" lon="5.67033">
        <ele>934</ele>
        <time>2019-11-29T13:47:02.000Z</time>
      </trkpt>
      <trkpt lat="43.31896" lon="5.67032">
        <ele>934</ele>
        <time>2019-11-29T13:47:03.000Z</time>
      </trkpt>
      <trkpt lat="43.31896" lon="5.67031">
        <ele>934</ele>
        <time>2019-11-29T13:47:04.000Z</time>
      </trkpt>
      <trkpt lat="43.31896" lon="5.67029">
        <ele>934</ele>
        <time>2019-11-29T13:47:05.000Z</time>
      </trkpt>
      <trkpt lat="43.31896" lon="5.67028">
        <ele>934</ele>
        <time>2019-11-29T13:47:06.000Z</time>
      </trkpt>
      <trkpt lat="43.31896" lon="5.67027">
        <ele>934</ele>
        <time>2019-11-29T13:47:07.000Z</time>
      </trkpt>
      <trkpt lat="43.31896" lon="5.67026">
        <ele>934</ele>
        <time>2019-11-29T13:47:08.000Z</time>
      </trkpt>
      <trkpt lat="43.31897" lon="5.67024">
        <ele>934</ele>
        <time>2019-11-29T13:47:09.000Z</time>
      </trkpt>
      <trkpt lat="43.31897" lon="5.67022">
        <ele>934</ele>
        <time>2019-11-29T13:47:10.000Z</time>
      </trkpt>
      <trkpt lat="43.31897" lon="5.67021">
        <ele>934</ele>
        <time>2019-11-29T13:47:11.000Z</time>
      </trkpt>
      <trkpt lat="43.31898" lon="5.6702">
        <ele>934</ele>
        <time>2019-11-29T13:47:12.000Z</time>
      </trkpt>
      <trkpt lat="43.31898" lon="5.67018">
        <ele>934</ele>
        <time>2019-11-29T13:47:13.000Z</time>
      </trkpt>
      <trkpt lat="43.31898" lon="5.67017">
        <ele>934</ele>
        <time>2019-11-29T13:47:14.000Z</time>
      </trkpt>
      <trkpt lat="43.31898" lon="5.67015">
        <ele>934</ele>
        <time>2019-11-29T13:47:15.000Z</time>
      </trkpt>
      <trkpt lat="43.31898" lon="5.67014">
        <ele>934</ele>
        <time>2019-11-29T13:47:16.000Z</time>
      </trkpt>
      <trkpt lat="43.31898" lon="5.67012">
        <ele>934</ele>
        <time>2019-11-29T13:47:17.000Z</time>
      </trkpt>
      <trkpt lat="43.31899" lon="5.67011">
        <ele>934</ele>
        <time>2019-11-29T13:47:18.000Z</time>
      </trkpt>
      <trkpt lat="43.31899" lon="5.67009">
        <ele>934</ele>
        <time>2019-11-29T13:47:19.000Z</time>
      </trkpt>
      <trkpt lat="43.31899" lon="5.67008">
        <ele>934</ele>
        <time>2019-11-29T13:47:20.000Z</time>
      </trkpt>
      <trkpt lat="43.31899" lon="5.67007">
        <ele>934</ele>
        <time>2019-11-29T13:47:21.000Z</time>
      </trkpt>
      <trkpt lat="43.31899" lon="5.67005">
        <ele>934</ele>
        <time>2019-11-29T13:47:22.000Z</time>
      </trkpt>
      <trkpt lat="43.31899" lon="5.67004">
        <ele>934</ele>
        <time>2019-11-29T13:47:23.000Z</time>
      </trkpt>
      <trkpt lat="43.31899" lon="5.67002">
        <ele>934</ele>
        <time>2019-11-29T13:47:24.000Z</time>
      </trkpt>
      <trkpt lat="43.31898" lon="5.67001">
        <ele>934</ele>
        <time>2019-11-29T13:47:25.000Z</time>
      </trkpt>
      <trkpt lat="43.31898" lon="5.67">
        <ele>934</ele>
        <time>2019-11-29T13:47:26.000Z</time>
      </trkpt>
      <trkpt lat="43.31898" lon="5.66999">
        <ele>934</ele>
        <time>2019-11-29T13:47:27.000Z</time>
      </trkpt>
      <trkpt lat="43.31898" lon="5.66998">
        <ele>934</ele>
        <time>2019-11-29T13:47:28.000Z</time>
      </trkpt>
      <trkpt lat="43.31898" lon="5.66997">
        <ele>934</ele>
        <time>2019-11-29T13:47:29.000Z</time>
      </trkpt>
      <trkpt lat="43.31898" lon="5.66996">
        <ele>934</ele>
        <time>2019-11-29T13:47:30.000Z</time>
      </trkpt>
      <trkpt lat="43.31898" lon="5.66995">
        <ele>934</ele>
        <time>2019-11-29T13:47:31.000Z</time>
      </trkpt>
      <trkpt lat="43.31897" lon="5.66995">
        <ele>934</ele>
        <time>2019-11-29T13:47:32.000Z</time>
      </trkpt>
      <trkpt lat="43.31897" lon="5.66994">
        <ele>934</ele>
        <time>2019-11-29T13:47:33.000Z</time>
      </trkpt>
      <trkpt lat="43.31897" lon="5.66993">
        <ele>934</ele>
        <time>2019-11-29T13:47:34.000Z</time>
      </trkpt>
      <trkpt lat="43.31897" lon="5.66992">
        <ele>934</ele>
        <time>2019-11-29T13:47:35.000Z</time>
      </trkpt>
      <trkpt lat="43.31896" lon="5.66991">
        <ele>934</ele>
        <time>2019-11-29T13:47:36.000Z</time>
      </trkpt>
      <trkpt lat="43.31896" lon="5.66991">
        <ele>934</ele>
        <time>2019-11-29T13:47:37.000Z</time>
      </trkpt>
      <trkpt lat="43.31896" lon="5.66991">
        <ele>934</ele>
        <time>2019-11-29T13:47:38.000Z</time>
      </trkpt>
      <trkpt lat="43.31896" lon="5.66991">
        <ele>934</ele>
        <time>2019-11-29T13:47:39.000Z</time>
      </trkpt>
      <trkpt lat="43.31895" lon="5.66991">
        <ele>934</ele>
        <time>2019-11-29T13:47:40.000Z</time>
      </trkpt>
      <trkpt lat="43.31894" lon="5.66991">
        <ele>934</ele>
        <time>2019-11-29T13:47:41.000Z</time>
      </trkpt>
      <trkpt lat="43.31894" lon="5.6699">
        <ele>934</ele>
        <time>2019-11-29T13:47:42.000Z</time>
      </trkpt>
      <trkpt lat="43.31893" lon="5.6699">
        <ele>934</ele>
        <time>2019-11-29T13:47:43.000Z</time>
      </trkpt>
      <trkpt lat="43.31892" lon="5.6699">
        <ele>934</ele>
        <time>2019-11-29T13:47:44.000Z</time>
      </trkpt>
      <trkpt lat="43.31891" lon="5.66989">
        <ele>934</ele>
        <time>2019-11-29T13:47:45.000Z</time>
      </trkpt>
      <trkpt lat="43.3189" lon="5.66989">
        <ele>934</ele>
        <time>2019-11-29T13:47:46.000Z</time>
      </trkpt>
      <trkpt lat="43.3189" lon="5.66988">
        <ele>934</ele>
        <time>2019-11-29T13:47:47.000Z</time>
      </trkpt>
      <trkpt lat="43.31889" lon="5.66987">
        <ele>934</ele>
        <time>2019-11-29T13:47:48.000Z</time>
      </trkpt>
      <trkpt lat="43.31889" lon="5.66987">
        <ele>934</ele>
        <time>2019-11-29T13:47:49.000Z</time>
      </trkpt>
      <trkpt lat="43.31888" lon="5.66986">
        <ele>934</ele>
        <time>2019-11-29T13:47:50.000Z</time>
      </trkpt>
      <trkpt lat="43.31888" lon="5.66985">
        <ele>934</ele>
        <time>2019-11-29T13:47:51.000Z</time>
      </trkpt>
      <trkpt lat="43.31887" lon="5.66985">
        <ele>935</ele>
        <time>2019-11-29T13:47:52.000Z</time>
      </trkpt>
      <trkpt lat="43.31887" lon="5.66984">
        <ele>935</ele>
        <time>2019-11-29T13:47:53.000Z</time>
      </trkpt>
      <trkpt lat="43.31887" lon="5.66983">
        <ele>935</ele>
        <time>2019-11-29T13:47:54.000Z</time>
      </trkpt>
      <trkpt lat="43.31887" lon="5.66982">
        <ele>935</ele>
        <time>2019-11-29T13:47:55.000Z</time>
      </trkpt>
      <trkpt lat="43.31886" lon="5.66981">
        <ele>935</ele>
        <time>2019-11-29T13:47:56.000Z</time>
      </trkpt>
      <trkpt lat="43.31886" lon="5.6698">
        <ele>935</ele>
        <time>2019-11-29T13:47:57.000Z</time>
      </trkpt>
      <trkpt lat="43.31885" lon="5.6698">
        <ele>935</ele>
        <time>2019-11-29T13:47:58.000Z</time>
      </trkpt>
      <trkpt lat="43.31885" lon="5.66979">
        <ele>935</ele>
        <time>2019-11-29T13:47:59.000Z</time>
      </trkpt>
      <trkpt lat="43.31884" lon="5.66978">
        <ele>935</ele>
        <time>2019-11-29T13:48:00.000Z</time>
      </trkpt>
      <trkpt lat="43.31884" lon="5.66977">
        <ele>935</ele>
        <time>2019-11-29T13:48:01.000Z</time>
      </trkpt>
      <trkpt lat="43.31884" lon="5.66977">
        <ele>935</ele>
        <time>2019-11-29T13:48:02.000Z</time>
      </trkpt>
      <trkpt lat="43.31883" lon="5.66976">
        <ele>935</ele>
        <time>2019-11-29T13:48:03.000Z</time>
      </trkpt>
      <trkpt lat="43.31882" lon="5.66976">
        <ele>935</ele>
        <time>2019-11-29T13:48:04.000Z</time>
      </trkpt>
      <trkpt lat="43.31882" lon="5.66975">
        <ele>935</ele>
        <time>2019-11-29T13:48:05.000Z</time>
      </trkpt>
      <trkpt lat="43.31882" lon="5.66974">
        <ele>935</ele>
        <time>2019-11-29T13:48:06.000Z</time>
      </trkpt>
      <trkpt lat="43.31881" lon="5.66973">
        <ele>935</ele>
        <time>2019-11-29T13:48:07.000Z</time>
      </trkpt>
      <trkpt lat="43.31881" lon="5.66973">
        <ele>935</ele>
        <time>2019-11-29T13:48:08.000Z</time>
      </trkpt>
      <trkpt lat="43.31881" lon="5.66973">
        <ele>935</ele>
        <time>2019-11-29T13:48:09.000Z</time>
      </trkpt>
      <trkpt lat="43.31881" lon="5.66973">
        <ele>934</ele>
        <time>2019-11-29T13:48:10.000Z</time>
      </trkpt>
      <trkpt lat="43.31881" lon="5.66973">
        <ele>934</ele>
        <time>2019-11-29T13:48:11.000Z</time>
      </trkpt>
      <trkpt lat="43.31881" lon="5.66973">
        <ele>934</ele>
        <time>2019-11-29T13:48:12.000Z</time>
      </trkpt>
      <trkpt lat="43.31881" lon="5.66973">
        <ele>934</ele>
        <time>2019-11-29T13:48:13.000Z</time>
      </trkpt>
      <trkpt lat="43.31881" lon="5.66972">
        <ele>934</ele>
        <time>2019-11-29T13:48:14.000Z</time>
      </trkpt>
      <trkpt lat="43.31881" lon="5.66972">
        <ele>934</ele>
        <time>2019-11-29T13:48:15.000Z</time>
      </trkpt>
      <trkpt lat="43.3188" lon="5.66972">
        <ele>934</ele>
        <time>2019-11-29T13:48:16.000Z</time>
      </trkpt>
      <trkpt lat="43.3188" lon="5.66972">
        <ele>934</ele>
        <time>2019-11-29T13:48:17.000Z</time>
      </trkpt>
      <trkpt lat="43.3188" lon="5.66972">
        <ele>934</ele>
        <time>2019-11-29T13:48:18.000Z</time>
      </trkpt>
      <trkpt lat="43.3188" lon="5.66971">
        <ele>934</ele>
        <time>2019-11-29T13:48:19.000Z</time>
      </trkpt>
      <trkpt lat="43.3188" lon="5.66971">
        <ele>934</ele>
        <time>2019-11-29T13:48:20.000Z</time>
      </trkpt>
      <trkpt lat="43.3188" lon="5.6697">
        <ele>934</ele>
        <time>2019-11-29T13:48:21.000Z</time>
      </trkpt>
      <trkpt lat="43.3188" lon="5.66969">
        <ele>934</ele>
        <time>2019-11-29T13:48:22.000Z</time>
      </trkpt>
      <trkpt lat="43.3188" lon="5.66968">
        <ele>934</ele>
        <time>2019-11-29T13:48:23.000Z</time>
      </trkpt>
      <trkpt lat="43.3188" lon="5.66968">
        <ele>934</ele>
        <time>2019-11-29T13:48:24.000Z</time>
      </trkpt>
      <trkpt lat="43.31879" lon="5.66967">
        <ele>934</ele>
        <time>2019-11-29T13:48:25.000Z</time>
      </trkpt>
      <trkpt lat="43.31879" lon="5.66967">
        <ele>934</ele>
        <time>2019-11-29T13:48:26.000Z</time>
      </trkpt>
      <trkpt lat="43.31879" lon="5.66967">
        <ele>934</ele>
        <time>2019-11-29T13:48:27.000Z</time>
      </trkpt>
      <trkpt lat="43.31879" lon="5.66967">
        <ele>934</ele>
        <time>2019-11-29T13:48:28.000Z</time>
      </trkpt>
      <trkpt lat="43.31879" lon="5.66967">
        <ele>934</ele>
        <time>2019-11-29T13:48:29.000Z</time>
      </trkpt>
      <trkpt lat="43.31879" lon="5.66967">
        <ele>934</ele>
        <time>2019-11-29T13:48:30.000Z</time>
      </trkpt>
      <trkpt lat="43.31879" lon="5.66967">
        <ele>934</ele>
        <time>2019-11-29T13:48:31.000Z</time>
      </trkpt>
      <trkpt lat="43.31879" lon="5.66967">
        <ele>934</ele>
        <time>2019-11-29T13:48:32.000Z</time>
      </trkpt>
      <trkpt lat="43.31879" lon="5.66967">
        <ele>934</ele>
        <time>2019-11-29T13:48:33.000Z</time>
      </trkpt>
      <trkpt lat="43.31879" lon="5.66967">
        <ele>934</ele>
        <time>2019-11-29T13:48:34.000Z</time>
      </trkpt>
      <trkpt lat="43.3188" lon="5.66967">
        <ele>933</ele>
        <time>2019-11-29T13:48:35.000Z</time>
      </trkpt>
      <trkpt lat="43.3188" lon="5.66967">
        <ele>933</ele>
        <time>2019-11-29T13:48:36.000Z</time>
      </trkpt>
      <trkpt lat="43.3188" lon="5.66967">
        <ele>933</ele>
        <time>2019-11-29T13:48:37.000Z</time>
      </trkpt>
      <trkpt lat="43.3188" lon="5.66967">
        <ele>933</ele>
        <time>2019-11-29T13:48:38.000Z</time>
      </trkpt>
      <trkpt lat="43.3188" lon="5.66967">
        <ele>933</ele>
        <time>2019-11-29T13:48:39.000Z</time>
      </trkpt>
      <trkpt lat="43.3188" lon="5.66967">
        <ele>933</ele>
        <time>2019-11-29T13:48:40.000Z</time>
      </trkpt>
      <trkpt lat="43.3188" lon="5.66967">
        <ele>933</ele>
        <time>2019-11-29T13:48:41.000Z</time>
      </trkpt>
      <trkpt lat="43.3188" lon="5.66967">
        <ele>933</ele>
        <time>2019-11-29T13:48:42.000Z</time>
      </trkpt>
      <trkpt lat="43.3188" lon="5.66967">
        <ele>933</ele>
        <time>2019-11-29T13:48:43.000Z</time>
      </trkpt>
      <trkpt lat="43.3188" lon="5.66967">
        <ele>933</ele>
        <time>2019-11-29T13:48:44.000Z</time>
      </trkpt>
      <trkpt lat="43.3188" lon="5.66967">
        <ele>933</ele>
        <time>2019-11-29T13:48:45.000Z</time>
      </trkpt>
      <trkpt lat="43.3188" lon="5.66967">
        <ele>933</ele>
        <time>2019-11-29T13:48:46.000Z</time>
      </trkpt>
      <trkpt lat="43.3188" lon="5.66967">
        <ele>933</ele>
        <time>2019-11-29T13:48:47.000Z</time>
      </trkpt>
      <trkpt lat="43.3188" lon="5.66967">
        <ele>933</ele>
        <time>2019-11-29T13:48:48.000Z</time>
      </trkpt>
      <trkpt lat="43.3188" lon="5.66967">
        <ele>933</ele>
        <time>2019-11-29T13:48:49.000Z</time>
      </trkpt>
      <trkpt lat="43.3188" lon="5.66967">
        <ele>933</ele>
        <time>2019-11-29T13:48:50.000Z</time>
      </trkpt>
      <trkpt lat="43.3188" lon="5.66967">
        <ele>933</ele>
        <time>2019-11-29T13:48:51.000Z</time>
      </trkpt>
      <trkpt lat="43.3188" lon="5.66967">
        <ele>933</ele>
        <time>2019-11-29T13:48:52.000Z</time>
      </trkpt>
      <trkpt lat="43.3188" lon="5.66967">
        <ele>933</ele>
        <time>2019-11-29T13:48:53.000Z</time>
      </trkpt>
      <trkpt lat="43.3188" lon="5.66967">
        <ele>933</ele>
        <time>2019-11-29T13:48:54.000Z</time>
      </trkpt>
      <trkpt lat="43.3188" lon="5.66967">
        <ele>933</ele>
        <time>2019-11-29T13:48:55.000Z</time>
      </trkpt>
      <trkpt lat="43.3188" lon="5.66967">
        <ele>933</ele>
        <time>2019-11-29T13:48:56.000Z</time>
      </trkpt>
      <trkpt lat="43.3188" lon="5.66967">
        <ele>933</ele>
        <time>2019-11-29T13:48:57.000Z</time>
      </trkpt>
      <trkpt lat="43.3188" lon="5.66967">
        <ele>933</ele>
        <time>2019-11-29T13:48:58.000Z</time>
      </trkpt>
      <trkpt lat="43.3188" lon="5.66967">
        <ele>933</ele>
        <time>2019-11-29T13:48:59.000Z</time>
      </trkpt>
      <trkpt lat="43.3188" lon="5.66967">
        <ele>933</ele>
        <time>2019-11-29T13:49:00.000Z</time>
      </trkpt>
      <trkpt lat="43.3188" lon="5.66967">
        <ele>933</ele>
        <time>2019-11-29T13:49:01.000Z</time>
      </trkpt>
      <trkpt lat="43.3188" lon="5.66967">
        <ele>933</ele>
        <time>2019-11-29T13:49:02.000Z</time>
      </trkpt>
      <trkpt lat="43.3188" lon="5.66967">
        <ele>933</ele>
        <time>2019-11-29T13:49:03.000Z</time>
      </trkpt>
      <trkpt lat="43.3188" lon="5.66967">
        <ele>933</ele>
        <time>2019-11-29T13:49:04.000Z</time>
      </trkpt>
      <trkpt lat="43.3188" lon="5.66967">
        <ele>933</ele>
        <time>2019-11-29T13:49:05.000Z</time>
      </trkpt>
      <trkpt lat="43.3188" lon="5.66967">
        <ele>933</ele>
        <time>2019-11-29T13:49:06.000Z</time>
      </trkpt>
      <trkpt lat="43.3188" lon="5.66967">
        <ele>933</ele>
        <time>2019-11-29T13:49:07.000Z</time>
      </trkpt>
      <trkpt lat="43.3188" lon="5.66967">
        <ele>933</ele>
        <time>2019-11-29T13:49:08.000Z</time>
      </trkpt>
      <trkpt lat="43.3188" lon="5.66967">
        <ele>933</ele>
        <time>2019-11-29T13:49:09.000Z</time>
      </trkpt>
      <trkpt lat="43.3188" lon="5.66967">
        <ele>933</ele>
        <time>2019-11-29T13:49:10.000Z</time>
      </trkpt>
      <trkpt lat="43.3188" lon="5.66967">
        <ele>933</ele>
        <time>2019-11-29T13:49:11.000Z</time>
      </trkpt>
      <trkpt lat="43.3188" lon="5.66967">
        <ele>933</ele>
        <time>2019-11-29T13:49:12.000Z</time>
      </trkpt>
      <trkpt lat="43.3188" lon="5.66967">
        <ele>933</ele>
        <time>2019-11-29T13:49:13.000Z</time>
      </trkpt>
      <trkpt lat="43.3188" lon="5.66967">
        <ele>933</ele>
        <time>2019-11-29T13:49:14.000Z</time>
      </trkpt>
      <trkpt lat="43.3188" lon="5.66967">
        <ele>933</ele>
        <time>2019-11-29T13:49:15.000Z</time>
      </trkpt>
      <trkpt lat="43.3188" lon="5.66967">
        <ele>933</ele>
        <time>2019-11-29T13:49:16.000Z</time>
      </trkpt>
      <trkpt lat="43.3188" lon="5.66967">
        <ele>933</ele>
        <time>2019-11-29T13:49:17.000Z</time>
      </trkpt>
      <trkpt lat="43.3188" lon="5.66967">
        <ele>933</ele>
        <time>2019-11-29T13:49:18.000Z</time>
      </trkpt>
      <trkpt lat="43.3188" lon="5.66967">
        <ele>933</ele>
        <time>2019-11-29T13:49:19.000Z</time>
      </trkpt>
      <trkpt lat="43.3188" lon="5.66967">
        <ele>933</ele>
        <time>2019-11-29T13:49:20.000Z</time>
      </trkpt>
      <trkpt lat="43.3188" lon="5.66967">
        <ele>933</ele>
        <time>2019-11-29T13:49:21.000Z</time>
      </trkpt>
      <trkpt lat="43.3188" lon="5.66967">
        <ele>933</ele>
        <time>2019-11-29T13:49:22.000Z</time>
      </trkpt>
      <trkpt lat="43.3188" lon="5.66967">
        <ele>933</ele>
        <time>2019-11-29T13:49:23.000Z</time>
      </trkpt>
      <trkpt lat="43.3188" lon="5.66967">
        <ele>933</ele>
        <time>2019-11-29T13:49:24.000Z</time>
      </trkpt>
      <trkpt lat="43.3188" lon="5.66967">
        <ele>933</ele>
        <time>2019-11-29T13:49:25.000Z</time>
      </trkpt>
      <trkpt lat="43.3188" lon="5.66967">
        <ele>933</ele>
        <time>2019-11-29T13:49:26.000Z</time>
      </trkpt>
      <trkpt lat="43.3188" lon="5.66967">
        <ele>933</ele>
        <time>2019-11-29T13:49:27.000Z</time>
      </trkpt>
      <trkpt lat="43.3188" lon="5.66967">
        <ele>933</ele>
        <time>2019-11-29T13:49:28.000Z</time>
      </trkpt>
      <trkpt lat="43.3188" lon="5.66967">
        <ele>933</ele>
        <time>2019-11-29T13:49:29.000Z</time>
      </trkpt>
      <trkpt lat="43.3188" lon="5.66967">
        <ele>933</ele>
        <time>2019-11-29T13:49:30.000Z</time>
      </trkpt>
      <trkpt lat="43.3188" lon="5.66967">
        <ele>933</ele>
        <time>2019-11-29T13:49:31.000Z</time>
      </trkpt>
      <trkpt lat="43.3188" lon="5.66967">
        <ele>933</ele>
        <time>2019-11-29T13:49:32.000Z</time>
      </trkpt>
      <trkpt lat="43.3188" lon="5.66967">
        <ele>933</ele>
        <time>2019-11-29T13:49:33.000Z</time>
      </trkpt>
      <trkpt lat="43.3188" lon="5.66967">
        <ele>933</ele>
        <time>2019-11-29T13:49:34.000Z</time>
      </trkpt>
      <trkpt lat="43.3188" lon="5.66967">
        <ele>933</ele>
        <time>2019-11-29T13:49:35.000Z</time>
      </trkpt>
      <trkpt lat="43.3188" lon="5.66967">
        <ele>933</ele>
        <time>2019-11-29T13:49:36.000Z</time>
      </trkpt>
      <trkpt lat="43.3188" lon="5.66966">
        <ele>933</ele>
        <time>2019-11-29T13:49:37.000Z</time>
      </trkpt>
      <trkpt lat="43.31881" lon="5.66966">
        <ele>933</ele>
        <time>2019-11-29T13:49:38.000Z</time>
      </trkpt>
      <trkpt lat="43.31882" lon="5.66966">
        <ele>932</ele>
        <time>2019-11-29T13:49:39.000Z</time>
      </trkpt>
      <trkpt lat="43.31883" lon="5.66966">
        <ele>932</ele>
        <time>2019-11-29T13:49:40.000Z</time>
      </trkpt>
      <trkpt lat="43.31885" lon="5.66965">
        <ele>932</ele>
        <time>2019-11-29T13:49:41.000Z</time>
      </trkpt>
      <trkpt lat="43.31886" lon="5.66965">
        <ele>932</ele>
        <time>2019-11-29T13:49:42.000Z</time>
      </trkpt>
      <trkpt lat="43.31887" lon="5.66965">
        <ele>932</ele>
        <time>2019-11-29T13:49:43.000Z</time>
      </trkpt>
      <trkpt lat="43.31888" lon="5.66965">
        <ele>932</ele>
        <time>2019-11-29T13:49:44.000Z</time>
      </trkpt>
      <trkpt lat="43.31889" lon="5.66964">
        <ele>932</ele>
        <time>2019-11-29T13:49:45.000Z</time>
      </trkpt>
      <trkpt lat="43.3189" lon="5.66964">
        <ele>932</ele>
        <time>2019-11-29T13:49:46.000Z</time>
      </trkpt>
      <trkpt lat="43.3189" lon="5.66963">
        <ele>932</ele>
        <time>2019-11-29T13:49:47.000Z</time>
      </trkpt>
      <trkpt lat="43.31891" lon="5.66963">
        <ele>932</ele>
        <time>2019-11-29T13:49:48.000Z</time>
      </trkpt>
      <trkpt lat="43.31892" lon="5.66962">
        <ele>932</ele>
        <time>2019-11-29T13:49:49.000Z</time>
      </trkpt>
      <trkpt lat="43.31893" lon="5.66961">
        <ele>931</ele>
        <time>2019-11-29T13:49:50.000Z</time>
      </trkpt>
      <trkpt lat="43.31894" lon="5.6696">
        <ele>931</ele>
        <time>2019-11-29T13:49:51.000Z</time>
      </trkpt>
      <trkpt lat="43.31895" lon="5.6696">
        <ele>931</ele>
        <time>2019-11-29T13:49:52.000Z</time>
      </trkpt>
      <trkpt lat="43.31895" lon="5.6696">
        <ele>931</ele>
        <time>2019-11-29T13:49:53.000Z</time>
      </trkpt>
      <trkpt lat="43.31896" lon="5.66959">
        <ele>931</ele>
        <time>2019-11-29T13:49:54.000Z</time>
      </trkpt>
      <trkpt lat="43.31897" lon="5.66959">
        <ele>930</ele>
        <time>2019-11-29T13:49:55.000Z</time>
      </trkpt>
      <trkpt lat="43.31899" lon="5.66959">
        <ele>930</ele>
        <time>2019-11-29T13:49:56.000Z</time>
      </trkpt>
      <trkpt lat="43.319" lon="5.66958">
        <ele>930</ele>
        <time>2019-11-29T13:49:57.000Z</time>
      </trkpt>
      <trkpt lat="43.31902" lon="5.66958">
        <ele>930</ele>
        <time>2019-11-29T13:49:58.000Z</time>
      </trkpt>
      <trkpt lat="43.31903" lon="5.66957">
        <ele>930</ele>
        <time>2019-11-29T13:49:59.000Z</time>
      </trkpt>
      <trkpt lat="43.31904" lon="5.66956">
        <ele>930</ele>
        <time>2019-11-29T13:50:00.000Z</time>
      </trkpt>
      <trkpt lat="43.31905" lon="5.66956">
        <ele>930</ele>
        <time>2019-11-29T13:50:01.000Z</time>
      </trkpt>
      <trkpt lat="43.31907" lon="5.66956">
        <ele>929</ele>
        <time>2019-11-29T13:50:02.000Z</time>
      </trkpt>
      <trkpt lat="43.31907" lon="5.66956">
        <ele>929</ele>
        <time>2019-11-29T13:50:03.000Z</time>
      </trkpt>
      <trkpt lat="43.31908" lon="5.66956">
        <ele>929</ele>
        <time>2019-11-29T13:50:04.000Z</time>
      </trkpt>
      <trkpt lat="43.31909" lon="5.66956">
        <ele>929</ele>
        <time>2019-11-29T13:50:05.000Z</time>
      </trkpt>
      <trkpt lat="43.31911" lon="5.66956">
        <ele>929</ele>
        <time>2019-11-29T13:50:06.000Z</time>
      </trkpt>
      <trkpt lat="43.31912" lon="5.66955">
        <ele>929</ele>
        <time>2019-11-29T13:50:07.000Z</time>
      </trkpt>
      <trkpt lat="43.31913" lon="5.66955">
        <ele>929</ele>
        <time>2019-11-29T13:50:08.000Z</time>
      </trkpt>
      <trkpt lat="43.31914" lon="5.66955">
        <ele>929</ele>
        <time>2019-11-29T13:50:09.000Z</time>
      </trkpt>
      <trkpt lat="43.31915" lon="5.66955">
        <ele>928</ele>
        <time>2019-11-29T13:50:10.000Z</time>
      </trkpt>
      <trkpt lat="43.31916" lon="5.66955">
        <ele>928</ele>
        <time>2019-11-29T13:50:11.000Z</time>
      </trkpt>
      <trkpt lat="43.31917" lon="5.66954">
        <ele>928</ele>
        <time>2019-11-29T13:50:12.000Z</time>
      </trkpt>
      <trkpt lat="43.31918" lon="5.66954">
        <ele>928</ele>
        <time>2019-11-29T13:50:13.000Z</time>
      </trkpt>
      <trkpt lat="43.31919" lon="5.66955">
        <ele>928</ele>
        <time>2019-11-29T13:50:14.000Z</time>
      </trkpt>
      <trkpt lat="43.3192" lon="5.66955">
        <ele>928</ele>
        <time>2019-11-29T13:50:15.000Z</time>
      </trkpt>
      <trkpt lat="43.31921" lon="5.66956">
        <ele>928</ele>
        <time>2019-11-29T13:50:16.000Z</time>
      </trkpt>
      <trkpt lat="43.31922" lon="5.66957">
        <ele>928</ele>
        <time>2019-11-29T13:50:17.000Z</time>
      </trkpt>
      <trkpt lat="43.31922" lon="5.66958">
        <ele>928</ele>
        <time>2019-11-29T13:50:18.000Z</time>
      </trkpt>
      <trkpt lat="43.31923" lon="5.66959">
        <ele>928</ele>
        <time>2019-11-29T13:50:19.000Z</time>
      </trkpt>
      <trkpt lat="43.31923" lon="5.66959">
        <ele>928</ele>
        <time>2019-11-29T13:50:20.000Z</time>
      </trkpt>
      <trkpt lat="43.31924" lon="5.66959">
        <ele>928</ele>
        <time>2019-11-29T13:50:21.000Z</time>
      </trkpt>
      <trkpt lat="43.31925" lon="5.66959">
        <ele>928</ele>
        <time>2019-11-29T13:50:22.000Z</time>
      </trkpt>
      <trkpt lat="43.31926" lon="5.66959">
        <ele>928</ele>
        <time>2019-11-29T13:50:23.000Z</time>
      </trkpt>
      <trkpt lat="43.31927" lon="5.6696">
        <ele>928</ele>
        <time>2019-11-29T13:50:24.000Z</time>
      </trkpt>
      <trkpt lat="43.31928" lon="5.66961">
        <ele>928</ele>
        <time>2019-11-29T13:50:25.000Z</time>
      </trkpt>
      <trkpt lat="43.31929" lon="5.66961">
        <ele>928</ele>
        <time>2019-11-29T13:50:26.000Z</time>
      </trkpt>
      <trkpt lat="43.3193" lon="5.66962">
        <ele>928</ele>
        <time>2019-11-29T13:50:27.000Z</time>
      </trkpt>
      <trkpt lat="43.31931" lon="5.66962">
        <ele>928</ele>
        <time>2019-11-29T13:50:28.000Z</time>
      </trkpt>
      <trkpt lat="43.31931" lon="5.66963">
        <ele>928</ele>
        <time>2019-11-29T13:50:29.000Z</time>
      </trkpt>
      <trkpt lat="43.31932" lon="5.66963">
        <ele>928</ele>
        <time>2019-11-29T13:50:30.000Z</time>
      </trkpt>
      <trkpt lat="43.31933" lon="5.66963">
        <ele>928</ele>
        <time>2019-11-29T13:50:31.000Z</time>
      </trkpt>
      <trkpt lat="43.31934" lon="5.66963">
        <ele>928</ele>
        <time>2019-11-29T13:50:32.000Z</time>
      </trkpt>
      <trkpt lat="43.31935" lon="5.66963">
        <ele>928</ele>
        <time>2019-11-29T13:50:33.000Z</time>
      </trkpt>
      <trkpt lat="43.31936" lon="5.66963">
        <ele>928</ele>
        <time>2019-11-29T13:50:34.000Z</time>
      </trkpt>
      <trkpt lat="43.31936" lon="5.66963">
        <ele>928</ele>
        <time>2019-11-29T13:50:35.000Z</time>
      </trkpt>
      <trkpt lat="43.31937" lon="5.66963">
        <ele>928</ele>
        <time>2019-11-29T13:50:36.000Z</time>
      </trkpt>
      <trkpt lat="43.31938" lon="5.66962">
        <ele>928</ele>
        <time>2019-11-29T13:50:37.000Z</time>
      </trkpt>
      <trkpt lat="43.31939" lon="5.66962">
        <ele>928</ele>
        <time>2019-11-29T13:50:38.000Z</time>
      </trkpt>
      <trkpt lat="43.31939" lon="5.66962">
        <ele>928</ele>
        <time>2019-11-29T13:50:39.000Z</time>
      </trkpt>
      <trkpt lat="43.31939" lon="5.66962">
        <ele>928</ele>
        <time>2019-11-29T13:50:40.000Z</time>
      </trkpt>
      <trkpt lat="43.3194" lon="5.66962">
        <ele>928</ele>
        <time>2019-11-29T13:50:41.000Z</time>
      </trkpt>
      <trkpt lat="43.3194" lon="5.66962">
        <ele>928</ele>
        <time>2019-11-29T13:50:42.000Z</time>
      </trkpt>
      <trkpt lat="43.31941" lon="5.66962">
        <ele>928</ele>
        <time>2019-11-29T13:50:43.000Z</time>
      </trkpt>
      <trkpt lat="43.31942" lon="5.66962">
        <ele>928</ele>
        <time>2019-11-29T13:50:44.000Z</time>
      </trkpt>
      <trkpt lat="43.31942" lon="5.66961">
        <ele>927</ele>
        <time>2019-11-29T13:50:45.000Z</time>
      </trkpt>
      <trkpt lat="43.31943" lon="5.66961">
        <ele>927</ele>
        <time>2019-11-29T13:50:46.000Z</time>
      </trkpt>
      <trkpt lat="43.31944" lon="5.6696">
        <ele>927</ele>
        <time>2019-11-29T13:50:47.000Z</time>
      </trkpt>
      <trkpt lat="43.31944" lon="5.66959">
        <ele>927</ele>
        <time>2019-11-29T13:50:48.000Z</time>
      </trkpt>
      <trkpt lat="43.31945" lon="5.66958">
        <ele>927</ele>
        <time>2019-11-29T13:50:49.000Z</time>
      </trkpt>
      <trkpt lat="43.31945" lon="5.66957">
        <ele>927</ele>
        <time>2019-11-29T13:50:50.000Z</time>
      </trkpt>
      <trkpt lat="43.31946" lon="5.66956">
        <ele>927</ele>
        <time>2019-11-29T13:50:51.000Z</time>
      </trkpt>
      <trkpt lat="43.31946" lon="5.66955">
        <ele>927</ele>
        <time>2019-11-29T13:50:52.000Z</time>
      </trkpt>
      <trkpt lat="43.31946" lon="5.66954">
        <ele>927</ele>
        <time>2019-11-29T13:50:53.000Z</time>
      </trkpt>
      <trkpt lat="43.31947" lon="5.66954">
        <ele>927</ele>
        <time>2019-11-29T13:50:54.000Z</time>
      </trkpt>
      <trkpt lat="43.31947" lon="5.66953">
        <ele>926</ele>
        <time>2019-11-29T13:50:55.000Z</time>
      </trkpt>
      <trkpt lat="43.31947" lon="5.66953">
        <ele>926</ele>
        <time>2019-11-29T13:50:56.000Z</time>
      </trkpt>
      <trkpt lat="43.31947" lon="5.66952">
        <ele>926</ele>
        <time>2019-11-29T13:50:57.000Z</time>
      </trkpt>
      <trkpt lat="43.31947" lon="5.66951">
        <ele>926</ele>
        <time>2019-11-29T13:50:58.000Z</time>
      </trkpt>
      <trkpt lat="43.31948" lon="5.66951">
        <ele>926</ele>
        <time>2019-11-29T13:50:59.000Z</time>
      </trkpt>
      <trkpt lat="43.31949" lon="5.66951">
        <ele>926</ele>
        <time>2019-11-29T13:51:00.000Z</time>
      </trkpt>
      <trkpt lat="43.31949" lon="5.66951">
        <ele>926</ele>
        <time>2019-11-29T13:51:01.000Z</time>
      </trkpt>
      <trkpt lat="43.3195" lon="5.66951">
        <ele>926</ele>
        <time>2019-11-29T13:51:02.000Z</time>
      </trkpt>
      <trkpt lat="43.3195" lon="5.66951">
        <ele>925</ele>
        <time>2019-11-29T13:51:03.000Z</time>
      </trkpt>
      <trkpt lat="43.31951" lon="5.66951">
        <ele>925</ele>
        <time>2019-11-29T13:51:04.000Z</time>
      </trkpt>
      <trkpt lat="43.31951" lon="5.6695">
        <ele>925</ele>
        <time>2019-11-29T13:51:05.000Z</time>
      </trkpt>
      <trkpt lat="43.31952" lon="5.6695">
        <ele>925</ele>
        <time>2019-11-29T13:51:06.000Z</time>
      </trkpt>
      <trkpt lat="43.31952" lon="5.6695">
        <ele>924</ele>
        <time>2019-11-29T13:51:07.000Z</time>
      </trkpt>
      <trkpt lat="43.31953" lon="5.6695">
        <ele>924</ele>
        <time>2019-11-29T13:51:08.000Z</time>
      </trkpt>
      <trkpt lat="43.31953" lon="5.66949">
        <ele>924</ele>
        <time>2019-11-29T13:51:09.000Z</time>
      </trkpt>
      <trkpt lat="43.31954" lon="5.66948">
        <ele>924</ele>
        <time>2019-11-29T13:51:10.000Z</time>
      </trkpt>
      <trkpt lat="43.31955" lon="5.66947">
        <ele>923</ele>
        <time>2019-11-29T13:51:11.000Z</time>
      </trkpt>
      <trkpt lat="43.31956" lon="5.66946">
        <ele>923</ele>
        <time>2019-11-29T13:51:12.000Z</time>
      </trkpt>
      <trkpt lat="43.31957" lon="5.66945">
        <ele>923</ele>
        <time>2019-11-29T13:51:13.000Z</time>
      </trkpt>
      <trkpt lat="43.31958" lon="5.66945">
        <ele>923</ele>
        <time>2019-11-29T13:51:14.000Z</time>
      </trkpt>
      <trkpt lat="43.31959" lon="5.66945">
        <ele>923</ele>
        <time>2019-11-29T13:51:15.000Z</time>
      </trkpt>
      <trkpt lat="43.3196" lon="5.66944">
        <ele>923</ele>
        <time>2019-11-29T13:51:16.000Z</time>
      </trkpt>
      <trkpt lat="43.3196" lon="5.66944">
        <ele>922</ele>
        <time>2019-11-29T13:51:17.000Z</time>
      </trkpt>
      <trkpt lat="43.31961" lon="5.66943">
        <ele>922</ele>
        <time>2019-11-29T13:51:18.000Z</time>
      </trkpt>
      <trkpt lat="43.31961" lon="5.66943">
        <ele>922</ele>
        <time>2019-11-29T13:51:19.000Z</time>
      </trkpt>
      <trkpt lat="43.31961" lon="5.66943">
        <ele>922</ele>
        <time>2019-11-29T13:51:20.000Z</time>
      </trkpt>
      <trkpt lat="43.31962" lon="5.66942">
        <ele>922</ele>
        <time>2019-11-29T13:51:21.000Z</time>
      </trkpt>
      <trkpt lat="43.31962" lon="5.66941">
        <ele>921</ele>
        <time>2019-11-29T13:51:22.000Z</time>
      </trkpt>
      <trkpt lat="43.31963" lon="5.66941">
        <ele>921</ele>
        <time>2019-11-29T13:51:23.000Z</time>
      </trkpt>
      <trkpt lat="43.31963" lon="5.66941">
        <ele>921</ele>
        <time>2019-11-29T13:51:24.000Z</time>
      </trkpt>
      <trkpt lat="43.31963" lon="5.6694">
        <ele>921</ele>
        <time>2019-11-29T13:51:25.000Z</time>
      </trkpt>
      <trkpt lat="43.31963" lon="5.6694">
        <ele>921</ele>
        <time>2019-11-29T13:51:26.000Z</time>
      </trkpt>
      <trkpt lat="43.31963" lon="5.6694">
        <ele>921</ele>
        <time>2019-11-29T13:51:27.000Z</time>
      </trkpt>
      <trkpt lat="43.31963" lon="5.6694">
        <ele>921</ele>
        <time>2019-11-29T13:51:28.000Z</time>
      </trkpt>
      <trkpt lat="43.31963" lon="5.6694">
        <ele>920</ele>
        <time>2019-11-29T13:51:29.000Z</time>
      </trkpt>
      <trkpt lat="43.31963" lon="5.6694">
        <ele>920</ele>
        <time>2019-11-29T13:51:30.000Z</time>
      </trkpt>
      <trkpt lat="43.31963" lon="5.6694">
        <ele>920</ele>
        <time>2019-11-29T13:51:31.000Z</time>
      </trkpt>
      <trkpt lat="43.31963" lon="5.6694">
        <ele>920</ele>
        <time>2019-11-29T13:51:32.000Z</time>
      </trkpt>
      <trkpt lat="43.31963" lon="5.6694">
        <ele>920</ele>
        <time>2019-11-29T13:51:33.000Z</time>
      </trkpt>
      <trkpt lat="43.31963" lon="5.6694">
        <ele>920</ele>
        <time>2019-11-29T13:51:34.000Z</time>
      </trkpt>
      <trkpt lat="43.31963" lon="5.6694">
        <ele>920</ele>
        <time>2019-11-29T13:51:35.000Z</time>
      </trkpt>
      <trkpt lat="43.31963" lon="5.6694">
        <ele>920</ele>
        <time>2019-11-29T13:51:36.000Z</time>
      </trkpt>
      <trkpt lat="43.31963" lon="5.6694">
        <ele>920</ele>
        <time>2019-11-29T13:51:37.000Z</time>
      </trkpt>
      <trkpt lat="43.31963" lon="5.6694">
        <ele>920</ele>
        <time>2019-11-29T13:51:38.000Z</time>
      </trkpt>
      <trkpt lat="43.31963" lon="5.6694">
        <ele>920</ele>
        <time>2019-11-29T13:51:39.000Z</time>
      </trkpt>
      <trkpt lat="43.31963" lon="5.6694">
        <ele>920</ele>
        <time>2019-11-29T13:51:40.000Z</time>
      </trkpt>
      <trkpt lat="43.31963" lon="5.6694">
        <ele>920</ele>
        <time>2019-11-29T13:51:41.000Z</time>
      </trkpt>
      <trkpt lat="43.31963" lon="5.6694">
        <ele>920</ele>
        <time>2019-11-29T13:51:42.000Z</time>
      </trkpt>
      <trkpt lat="43.31963" lon="5.6694">
        <ele>920</ele>
        <time>2019-11-29T13:51:43.000Z</time>
      </trkpt>
      <trkpt lat="43.31963" lon="5.6694">
        <ele>920</ele>
        <time>2019-11-29T13:51:44.000Z</time>
      </trkpt>
      <trkpt lat="43.31963" lon="5.6694">
        <ele>920</ele>
        <time>2019-11-29T13:51:45.000Z</time>
      </trkpt>
      <trkpt lat="43.31963" lon="5.6694">
        <ele>920</ele>
        <time>2019-11-29T13:51:46.000Z</time>
      </trkpt>
      <trkpt lat="43.31963" lon="5.6694">
        <ele>920</ele>
        <time>2019-11-29T13:51:47.000Z</time>
      </trkpt>
      <trkpt lat="43.31963" lon="5.6694">
        <ele>920</ele>
        <time>2019-11-29T13:51:48.000Z</time>
      </trkpt>
      <trkpt lat="43.31963" lon="5.6694">
        <ele>920</ele>
        <time>2019-11-29T13:51:49.000Z</time>
      </trkpt>
      <trkpt lat="43.31963" lon="5.6694">
        <ele>920</ele>
        <time>2019-11-29T13:51:50.000Z</time>
      </trkpt>
      <trkpt lat="43.31963" lon="5.66939">
        <ele>920</ele>
        <time>2019-11-29T13:51:51.000Z</time>
      </trkpt>
      <trkpt lat="43.31962" lon="5.66939">
        <ele>920</ele>
        <time>2019-11-29T13:51:52.000Z</time>
      </trkpt>
      <trkpt lat="43.31963" lon="5.66939">
        <ele>920</ele>
        <time>2019-11-29T13:51:53.000Z</time>
      </trkpt>
      <trkpt lat="43.31963" lon="5.66939">
        <ele>920</ele>
        <time>2019-11-29T13:51:54.000Z</time>
      </trkpt>
      <trkpt lat="43.31963" lon="5.66939">
        <ele>920</ele>
        <time>2019-11-29T13:51:55.000Z</time>
      </trkpt>
      <trkpt lat="43.31963" lon="5.66939">
        <ele>920</ele>
        <time>2019-11-29T13:51:56.000Z</time>
      </trkpt>
      <trkpt lat="43.31964" lon="5.66939">
        <ele>920</ele>
        <time>2019-11-29T13:51:57.000Z</time>
      </trkpt>
      <trkpt lat="43.31964" lon="5.6694">
        <ele>920</ele>
        <time>2019-11-29T13:51:58.000Z</time>
      </trkpt>
      <trkpt lat="43.31965" lon="5.6694">
        <ele>920</ele>
        <time>2019-11-29T13:51:59.000Z</time>
      </trkpt>
      <trkpt lat="43.31965" lon="5.66941">
        <ele>920</ele>
        <time>2019-11-29T13:52:00.000Z</time>
      </trkpt>
      <trkpt lat="43.31965" lon="5.66942">
        <ele>920</ele>
        <time>2019-11-29T13:52:01.000Z</time>
      </trkpt>
      <trkpt lat="43.31965" lon="5.66942">
        <ele>920</ele>
        <time>2019-11-29T13:52:02.000Z</time>
      </trkpt>
      <trkpt lat="43.31964" lon="5.66941">
        <ele>920</ele>
        <time>2019-11-29T13:52:03.000Z</time>
      </trkpt>
      <trkpt lat="43.31964" lon="5.66939">
        <ele>920</ele>
        <time>2019-11-29T13:52:04.000Z</time>
      </trkpt>
      <trkpt lat="43.31964" lon="5.66939">
        <ele>920</ele>
        <time>2019-11-29T13:52:05.000Z</time>
      </trkpt>
      <trkpt lat="43.31963" lon="5.66938">
        <ele>920</ele>
        <time>2019-11-29T13:52:06.000Z</time>
      </trkpt>
      <trkpt lat="43.31963" lon="5.66938">
        <ele>920</ele>
        <time>2019-11-29T13:52:07.000Z</time>
      </trkpt>
      <trkpt lat="43.31963" lon="5.66937">
        <ele>920</ele>
        <time>2019-11-29T13:52:08.000Z</time>
      </trkpt>
      <trkpt lat="43.31963" lon="5.66937">
        <ele>920</ele>
        <time>2019-11-29T13:52:09.000Z</time>
      </trkpt>
      <trkpt lat="43.31963" lon="5.66937">
        <ele>920</ele>
        <time>2019-11-29T13:52:10.000Z</time>
      </trkpt>
      <trkpt lat="43.31962" lon="5.66937">
        <ele>920</ele>
        <time>2019-11-29T13:52:11.000Z</time>
      </trkpt>
      <trkpt lat="43.31962" lon="5.66937">
        <ele>920</ele>
        <time>2019-11-29T13:52:12.000Z</time>
      </trkpt>
      <trkpt lat="43.31962" lon="5.66936">
        <ele>919</ele>
        <time>2019-11-29T13:52:13.000Z</time>
      </trkpt>
      <trkpt lat="43.31961" lon="5.66936">
        <ele>919</ele>
        <time>2019-11-29T13:52:14.000Z</time>
      </trkpt>
      <trkpt lat="43.31961" lon="5.66936">
        <ele>919</ele>
        <time>2019-11-29T13:52:15.000Z</time>
      </trkpt>
      <trkpt lat="43.31962" lon="5.66936">
        <ele>919</ele>
        <time>2019-11-29T13:52:16.000Z</time>
      </trkpt>
      <trkpt lat="43.31962" lon="5.66936">
        <ele>919</ele>
        <time>2019-11-29T13:52:17.000Z</time>
      </trkpt>
      <trkpt lat="43.31962" lon="5.66937">
        <ele>919</ele>
        <time>2019-11-29T13:52:18.000Z</time>
      </trkpt>
      <trkpt lat="43.31962" lon="5.66937">
        <ele>919</ele>
        <time>2019-11-29T13:52:19.000Z</time>
      </trkpt>
      <trkpt lat="43.31962" lon="5.66937">
        <ele>919</ele>
        <time>2019-11-29T13:52:20.000Z</time>
      </trkpt>
      <trkpt lat="43.31961" lon="5.66937">
        <ele>919</ele>
        <time>2019-11-29T13:52:21.000Z</time>
      </trkpt>
      <trkpt lat="43.31961" lon="5.66937">
        <ele>919</ele>
        <time>2019-11-29T13:52:22.000Z</time>
      </trkpt>
      <trkpt lat="43.31961" lon="5.66936">
        <ele>919</ele>
        <time>2019-11-29T13:52:23.000Z</time>
      </trkpt>
      <trkpt lat="43.31961" lon="5.66936">
        <ele>919</ele>
        <time>2019-11-29T13:52:24.000Z</time>
      </trkpt>
      <trkpt lat="43.31961" lon="5.66936">
        <ele>919</ele>
        <time>2019-11-29T13:52:25.000Z</time>
      </trkpt>
      <trkpt lat="43.31961" lon="5.66936">
        <ele>919</ele>
        <time>2019-11-29T13:52:26.000Z</time>
      </trkpt>
      <trkpt lat="43.31961" lon="5.66936">
        <ele>919</ele>
        <time>2019-11-29T13:52:27.000Z</time>
      </trkpt>
      <trkpt lat="43.3196" lon="5.66935">
        <ele>919</ele>
        <time>2019-11-29T13:52:28.000Z</time>
      </trkpt>
      <trkpt lat="43.3196" lon="5.66935">
        <ele>919</ele>
        <time>2019-11-29T13:52:29.000Z</time>
      </trkpt>
      <trkpt lat="43.3196" lon="5.66935">
        <ele>919</ele>
        <time>2019-11-29T13:52:30.000Z</time>
      </trkpt>
      <trkpt lat="43.3196" lon="5.66935">
        <ele>919</ele>
        <time>2019-11-29T13:52:31.000Z</time>
      </trkpt>
      <trkpt lat="43.3196" lon="5.66935">
        <ele>919</ele>
        <time>2019-11-29T13:52:32.000Z</time>
      </trkpt>
      <trkpt lat="43.3196" lon="5.66935">
        <ele>919</ele>
        <time>2019-11-29T13:52:33.000Z</time>
      </trkpt>
      <trkpt lat="43.3196" lon="5.66935">
        <ele>919</ele>
        <time>2019-11-29T13:52:34.000Z</time>
      </trkpt>
      <trkpt lat="43.3196" lon="5.66934">
        <ele>919</ele>
        <time>2019-11-29T13:52:35.000Z</time>
      </trkpt>
      <trkpt lat="43.3196" lon="5.66933">
        <ele>919</ele>
        <time>2019-11-29T13:52:36.000Z</time>
      </trkpt>
      <trkpt lat="43.3196" lon="5.66933">
        <ele>918</ele>
        <time>2019-11-29T13:52:37.000Z</time>
      </trkpt>
      <trkpt lat="43.31961" lon="5.66933">
        <ele>918</ele>
        <time>2019-11-29T13:52:38.000Z</time>
      </trkpt>
      <trkpt lat="43.31961" lon="5.66933">
        <ele>918</ele>
        <time>2019-11-29T13:52:39.000Z</time>
      </trkpt>
      <trkpt lat="43.31961" lon="5.66934">
        <ele>918</ele>
        <time>2019-11-29T13:52:40.000Z</time>
      </trkpt>
      <trkpt lat="43.31961" lon="5.66934">
        <ele>918</ele>
        <time>2019-11-29T13:52:41.000Z</time>
      </trkpt>
      <trkpt lat="43.31961" lon="5.66934">
        <ele>918</ele>
        <time>2019-11-29T13:52:42.000Z</time>
      </trkpt>
      <trkpt lat="43.31961" lon="5.66934">
        <ele>918</ele>
        <time>2019-11-29T13:52:43.000Z</time>
      </trkpt>
      <trkpt lat="43.31961" lon="5.66933">
        <ele>918</ele>
        <time>2019-11-29T13:52:44.000Z</time>
      </trkpt>
      <trkpt lat="43.31961" lon="5.66933">
        <ele>918</ele>
        <time>2019-11-29T13:52:45.000Z</time>
      </trkpt>
      <trkpt lat="43.31961" lon="5.66933">
        <ele>918</ele>
        <time>2019-11-29T13:52:46.000Z</time>
      </trkpt>
      <trkpt lat="43.31961" lon="5.66933">
        <ele>918</ele>
        <time>2019-11-29T13:52:47.000Z</time>
      </trkpt>
      <trkpt lat="43.31961" lon="5.66933">
        <ele>918</ele>
        <time>2019-11-29T13:52:48.000Z</time>
      </trkpt>
      <trkpt lat="43.31962" lon="5.66934">
        <ele>918</ele>
        <time>2019-11-29T13:52:49.000Z</time>
      </trkpt>
      <trkpt lat="43.31962" lon="5.66934">
        <ele>918</ele>
        <time>2019-11-29T13:52:50.000Z</time>
      </trkpt>
      <trkpt lat="43.31963" lon="5.66935">
        <ele>918</ele>
        <time>2019-11-29T13:52:51.000Z</time>
      </trkpt>
      <trkpt lat="43.31963" lon="5.66935">
        <ele>918</ele>
        <time>2019-11-29T13:52:52.000Z</time>
      </trkpt>
      <trkpt lat="43.31964" lon="5.66936">
        <ele>919</ele>
        <time>2019-11-29T13:52:53.000Z</time>
      </trkpt>
      <trkpt lat="43.31964" lon="5.66936">
        <ele>919</ele>
        <time>2019-11-29T13:52:54.000Z</time>
      </trkpt>
      <trkpt lat="43.31965" lon="5.66936">
        <ele>919</ele>
        <time>2019-11-29T13:52:55.000Z</time>
      </trkpt>
      <trkpt lat="43.31966" lon="5.66936">
        <ele>919</ele>
        <time>2019-11-29T13:52:56.000Z</time>
      </trkpt>
      <trkpt lat="43.31967" lon="5.66936">
        <ele>919</ele>
        <time>2019-11-29T13:52:57.000Z</time>
      </trkpt>
      <trkpt lat="43.31967" lon="5.66936">
        <ele>919</ele>
        <time>2019-11-29T13:52:58.000Z</time>
      </trkpt>
      <trkpt lat="43.31968" lon="5.66936">
        <ele>919</ele>
        <time>2019-11-29T13:52:59.000Z</time>
      </trkpt>
      <trkpt lat="43.31969" lon="5.66936">
        <ele>919</ele>
        <time>2019-11-29T13:53:00.000Z</time>
      </trkpt>
      <trkpt lat="43.3197" lon="5.66936">
        <ele>919</ele>
        <time>2019-11-29T13:53:01.000Z</time>
      </trkpt>
      <trkpt lat="43.3197" lon="5.66936">
        <ele>919</ele>
        <time>2019-11-29T13:53:02.000Z</time>
      </trkpt>
      <trkpt lat="43.31971" lon="5.66937">
        <ele>919</ele>
        <time>2019-11-29T13:53:03.000Z</time>
      </trkpt>
      <trkpt lat="43.31971" lon="5.66937">
        <ele>919</ele>
        <time>2019-11-29T13:53:04.000Z</time>
      </trkpt>
      <trkpt lat="43.31972" lon="5.66938">
        <ele>919</ele>
        <time>2019-11-29T13:53:05.000Z</time>
      </trkpt>
      <trkpt lat="43.31972" lon="5.66938">
        <ele>919</ele>
        <time>2019-11-29T13:53:06.000Z</time>
      </trkpt>
      <trkpt lat="43.31973" lon="5.66938">
        <ele>919</ele>
        <time>2019-11-29T13:53:07.000Z</time>
      </trkpt>
      <trkpt lat="43.31973" lon="5.66938">
        <ele>918</ele>
        <time>2019-11-29T13:53:08.000Z</time>
      </trkpt>
      <trkpt lat="43.31974" lon="5.66937">
        <ele>918</ele>
        <time>2019-11-29T13:53:09.000Z</time>
      </trkpt>
      <trkpt lat="43.31974" lon="5.66937">
        <ele>918</ele>
        <time>2019-11-29T13:53:10.000Z</time>
      </trkpt>
      <trkpt lat="43.31975" lon="5.66936">
        <ele>918</ele>
        <time>2019-11-29T13:53:11.000Z</time>
      </trkpt>
      <trkpt lat="43.31975" lon="5.66936">
        <ele>918</ele>
        <time>2019-11-29T13:53:12.000Z</time>
      </trkpt>
      <trkpt lat="43.31976" lon="5.66936">
        <ele>918</ele>
        <time>2019-11-29T13:53:13.000Z</time>
      </trkpt>
      <trkpt lat="43.31976" lon="5.66935">
        <ele>918</ele>
        <time>2019-11-29T13:53:14.000Z</time>
      </trkpt>
      <trkpt lat="43.31976" lon="5.66935">
        <ele>918</ele>
        <time>2019-11-29T13:53:15.000Z</time>
      </trkpt>
      <trkpt lat="43.31976" lon="5.66934">
        <ele>918</ele>
        <time>2019-11-29T13:53:16.000Z</time>
      </trkpt>
      <trkpt lat="43.31976" lon="5.66934">
        <ele>918</ele>
        <time>2019-11-29T13:53:17.000Z</time>
      </trkpt>
      <trkpt lat="43.31977" lon="5.66934">
        <ele>917</ele>
        <time>2019-11-29T13:53:18.000Z</time>
      </trkpt>
      <trkpt lat="43.31977" lon="5.66933">
        <ele>917</ele>
        <time>2019-11-29T13:53:19.000Z</time>
      </trkpt>
      <trkpt lat="43.31977" lon="5.66933">
        <ele>917</ele>
        <time>2019-11-29T13:53:20.000Z</time>
      </trkpt>
      <trkpt lat="43.31978" lon="5.66933">
        <ele>917</ele>
        <time>2019-11-29T13:53:21.000Z</time>
      </trkpt>
      <trkpt lat="43.31978" lon="5.66933">
        <ele>917</ele>
        <time>2019-11-29T13:53:22.000Z</time>
      </trkpt>
      <trkpt lat="43.31978" lon="5.66933">
        <ele>916</ele>
        <time>2019-11-29T13:53:23.000Z</time>
      </trkpt>
      <trkpt lat="43.31979" lon="5.66933">
        <ele>916</ele>
        <time>2019-11-29T13:53:24.000Z</time>
      </trkpt>
      <trkpt lat="43.31979" lon="5.66933">
        <ele>916</ele>
        <time>2019-11-29T13:53:25.000Z</time>
      </trkpt>
      <trkpt lat="43.31979" lon="5.66933">
        <ele>916</ele>
        <time>2019-11-29T13:53:26.000Z</time>
      </trkpt>
      <trkpt lat="43.31979" lon="5.66934">
        <ele>916</ele>
        <time>2019-11-29T13:53:27.000Z</time>
      </trkpt>
      <trkpt lat="43.3198" lon="5.66934">
        <ele>915</ele>
        <time>2019-11-29T13:53:28.000Z</time>
      </trkpt>
      <trkpt lat="43.3198" lon="5.66934">
        <ele>915</ele>
        <time>2019-11-29T13:53:29.000Z</time>
      </trkpt>
      <trkpt lat="43.3198" lon="5.66934">
        <ele>915</ele>
        <time>2019-11-29T13:53:30.000Z</time>
      </trkpt>
      <trkpt lat="43.31981" lon="5.66934">
        <ele>915</ele>
        <time>2019-11-29T13:53:31.000Z</time>
      </trkpt>
      <trkpt lat="43.31981" lon="5.66934">
        <ele>915</ele>
        <time>2019-11-29T13:53:32.000Z</time>
      </trkpt>
      <trkpt lat="43.31981" lon="5.66933">
        <ele>915</ele>
        <time>2019-11-29T13:53:33.000Z</time>
      </trkpt>
      <trkpt lat="43.31982" lon="5.66933">
        <ele>914</ele>
        <time>2019-11-29T13:53:34.000Z</time>
      </trkpt>
      <trkpt lat="43.31982" lon="5.66933">
        <ele>914</ele>
        <time>2019-11-29T13:53:35.000Z</time>
      </trkpt>
      <trkpt lat="43.31983" lon="5.66933">
        <ele>914</ele>
        <time>2019-11-29T13:53:36.000Z</time>
      </trkpt>
      <trkpt lat="43.31983" lon="5.66933">
        <ele>914</ele>
        <time>2019-11-29T13:53:37.000Z</time>
      </trkpt>
      <trkpt lat="43.31983" lon="5.66933">
        <ele>914</ele>
        <time>2019-11-29T13:53:38.000Z</time>
      </trkpt>
      <trkpt lat="43.31984" lon="5.66934">
        <ele>913</ele>
        <time>2019-11-29T13:53:39.000Z</time>
      </trkpt>
      <trkpt lat="43.31983" lon="5.66935">
        <ele>913</ele>
        <time>2019-11-29T13:53:40.000Z</time>
      </trkpt>
      <trkpt lat="43.31983" lon="5.66936">
        <ele>913</ele>
        <time>2019-11-29T13:53:41.000Z</time>
      </trkpt>
      <trkpt lat="43.31983" lon="5.66937">
        <ele>913</ele>
        <time>2019-11-29T13:53:42.000Z</time>
      </trkpt>
      <trkpt lat="43.31983" lon="5.66938">
        <ele>913</ele>
        <time>2019-11-29T13:53:43.000Z</time>
      </trkpt>
      <trkpt lat="43.31983" lon="5.66938">
        <ele>913</ele>
        <time>2019-11-29T13:53:44.000Z</time>
      </trkpt>
      <trkpt lat="43.31983" lon="5.66939">
        <ele>912</ele>
        <time>2019-11-29T13:53:45.000Z</time>
      </trkpt>
      <trkpt lat="43.31984" lon="5.66939">
        <ele>912</ele>
        <time>2019-11-29T13:53:46.000Z</time>
      </trkpt>
      <trkpt lat="43.31984" lon="5.6694">
        <ele>912</ele>
        <time>2019-11-29T13:53:47.000Z</time>
      </trkpt>
      <trkpt lat="43.31984" lon="5.66941">
        <ele>912</ele>
        <time>2019-11-29T13:53:48.000Z</time>
      </trkpt>
      <trkpt lat="43.31984" lon="5.66942">
        <ele>911</ele>
        <time>2019-11-29T13:53:49.000Z</time>
      </trkpt>
      <trkpt lat="43.31984" lon="5.66942">
        <ele>911</ele>
        <time>2019-11-29T13:53:50.000Z</time>
      </trkpt>
      <trkpt lat="43.31985" lon="5.66943">
        <ele>911</ele>
        <time>2019-11-29T13:53:51.000Z</time>
      </trkpt>
      <trkpt lat="43.31985" lon="5.66943">
        <ele>911</ele>
        <time>2019-11-29T13:53:52.000Z</time>
      </trkpt>
      <trkpt lat="43.31985" lon="5.66942">
        <ele>911</ele>
        <time>2019-11-29T13:53:53.000Z</time>
      </trkpt>
      <trkpt lat="43.31986" lon="5.66942">
        <ele>911</ele>
        <time>2019-11-29T13:53:54.000Z</time>
      </trkpt>
      <trkpt lat="43.31987" lon="5.66941">
        <ele>910</ele>
        <time>2019-11-29T13:53:55.000Z</time>
      </trkpt>
      <trkpt lat="43.31987" lon="5.66941">
        <ele>910</ele>
        <time>2019-11-29T13:53:56.000Z</time>
      </trkpt>
      <trkpt lat="43.31988" lon="5.6694">
        <ele>910</ele>
        <time>2019-11-29T13:53:57.000Z</time>
      </trkpt>
      <trkpt lat="43.31989" lon="5.6694">
        <ele>910</ele>
        <time>2019-11-29T13:53:58.000Z</time>
      </trkpt>
      <trkpt lat="43.31989" lon="5.6694">
        <ele>909</ele>
        <time>2019-11-29T13:53:59.000Z</time>
      </trkpt>
      <trkpt lat="43.3199" lon="5.66939">
        <ele>909</ele>
        <time>2019-11-29T13:54:00.000Z</time>
      </trkpt>
      <trkpt lat="43.31991" lon="5.6694">
        <ele>909</ele>
        <time>2019-11-29T13:54:01.000Z</time>
      </trkpt>
      <trkpt lat="43.31992" lon="5.6694">
        <ele>909</ele>
        <time>2019-11-29T13:54:02.000Z</time>
      </trkpt>
      <trkpt lat="43.31992" lon="5.6694">
        <ele>908</ele>
        <time>2019-11-29T13:54:03.000Z</time>
      </trkpt>
      <trkpt lat="43.31993" lon="5.6694">
        <ele>908</ele>
        <time>2019-11-29T13:54:04.000Z</time>
      </trkpt>
      <trkpt lat="43.31994" lon="5.66941">
        <ele>908</ele>
        <time>2019-11-29T13:54:05.000Z</time>
      </trkpt>
      <trkpt lat="43.31994" lon="5.66942">
        <ele>908</ele>
        <time>2019-11-29T13:54:06.000Z</time>
      </trkpt>
      <trkpt lat="43.31994" lon="5.66943">
        <ele>908</ele>
        <time>2019-11-29T13:54:07.000Z</time>
      </trkpt>
      <trkpt lat="43.31993" lon="5.66944">
        <ele>907</ele>
        <time>2019-11-29T13:54:08.000Z</time>
      </trkpt>
      <trkpt lat="43.31993" lon="5.66945">
        <ele>907</ele>
        <time>2019-11-29T13:54:09.000Z</time>
      </trkpt>
      <trkpt lat="43.31993" lon="5.66946">
        <ele>907</ele>
        <time>2019-11-29T13:54:10.000Z</time>
      </trkpt>
      <trkpt lat="43.31993" lon="5.66947">
        <ele>907</ele>
        <time>2019-11-29T13:54:11.000Z</time>
      </trkpt>
      <trkpt lat="43.31993" lon="5.66947">
        <ele>907</ele>
        <time>2019-11-29T13:54:12.000Z</time>
      </trkpt>
      <trkpt lat="43.31992" lon="5.66948">
        <ele>907</ele>
        <time>2019-11-29T13:54:13.000Z</time>
      </trkpt>
      <trkpt lat="43.31992" lon="5.66949">
        <ele>907</ele>
        <time>2019-11-29T13:54:14.000Z</time>
      </trkpt>
      <trkpt lat="43.31992" lon="5.66949">
        <ele>907</ele>
        <time>2019-11-29T13:54:15.000Z</time>
      </trkpt>
      <trkpt lat="43.31991" lon="5.6695">
        <ele>907</ele>
        <time>2019-11-29T13:54:16.000Z</time>
      </trkpt>
      <trkpt lat="43.31991" lon="5.66951">
        <ele>906</ele>
        <time>2019-11-29T13:54:17.000Z</time>
      </trkpt>
      <trkpt lat="43.31991" lon="5.66951">
        <ele>906</ele>
        <time>2019-11-29T13:54:18.000Z</time>
      </trkpt>
      <trkpt lat="43.3199" lon="5.66952">
        <ele>906</ele>
        <time>2019-11-29T13:54:19.000Z</time>
      </trkpt>
      <trkpt lat="43.3199" lon="5.66952">
        <ele>906</ele>
        <time>2019-11-29T13:54:20.000Z</time>
      </trkpt>
      <trkpt lat="43.3199" lon="5.66953">
        <ele>906</ele>
        <time>2019-11-29T13:54:21.000Z</time>
      </trkpt>
      <trkpt lat="43.3199" lon="5.66954">
        <ele>906</ele>
        <time>2019-11-29T13:54:22.000Z</time>
      </trkpt>
      <trkpt lat="43.31989" lon="5.66954">
        <ele>905</ele>
        <time>2019-11-29T13:54:23.000Z</time>
      </trkpt>
      <trkpt lat="43.31989" lon="5.66955">
        <ele>905</ele>
        <time>2019-11-29T13:54:24.000Z</time>
      </trkpt>
      <trkpt lat="43.31989" lon="5.66956">
        <ele>905</ele>
        <time>2019-11-29T13:54:25.000Z</time>
      </trkpt>
      <trkpt lat="43.31988" lon="5.66956">
        <ele>905</ele>
        <time>2019-11-29T13:54:26.000Z</time>
      </trkpt>
      <trkpt lat="43.31988" lon="5.66956">
        <ele>905</ele>
        <time>2019-11-29T13:54:27.000Z</time>
      </trkpt>
      <trkpt lat="43.31988" lon="5.66956">
        <ele>905</ele>
        <time>2019-11-29T13:54:28.000Z</time>
      </trkpt>
      <trkpt lat="43.31988" lon="5.66956">
        <ele>905</ele>
        <time>2019-11-29T13:54:29.000Z</time>
      </trkpt>
      <trkpt lat="43.31988" lon="5.66956">
        <ele>904</ele>
        <time>2019-11-29T13:54:30.000Z</time>
      </trkpt>
      <trkpt lat="43.31988" lon="5.66956">
        <ele>904</ele>
        <time>2019-11-29T13:54:31.000Z</time>
      </trkpt>
      <trkpt lat="43.31988" lon="5.66956">
        <ele>904</ele>
        <time>2019-11-29T13:54:32.000Z</time>
      </trkpt>
      <trkpt lat="43.31988" lon="5.66956">
        <ele>904</ele>
        <time>2019-11-29T13:54:33.000Z</time>
      </trkpt>
      <trkpt lat="43.31988" lon="5.66956">
        <ele>904</ele>
        <time>2019-11-29T13:54:34.000Z</time>
      </trkpt>
      <trkpt lat="43.31988" lon="5.66956">
        <ele>904</ele>
        <time>2019-11-29T13:54:35.000Z</time>
      </trkpt>
      <trkpt lat="43.31988" lon="5.66956">
        <ele>904</ele>
        <time>2019-11-29T13:54:36.000Z</time>
      </trkpt>
      <trkpt lat="43.31988" lon="5.66956">
        <ele>904</ele>
        <time>2019-11-29T13:54:37.000Z</time>
      </trkpt>
      <trkpt lat="43.31988" lon="5.66956">
        <ele>904</ele>
        <time>2019-11-29T13:54:38.000Z</time>
      </trkpt>
      <trkpt lat="43.31988" lon="5.66956">
        <ele>904</ele>
        <time>2019-11-29T13:54:39.000Z</time>
      </trkpt>
      <trkpt lat="43.31988" lon="5.66956">
        <ele>904</ele>
        <time>2019-11-29T13:54:40.000Z</time>
      </trkpt>
      <trkpt lat="43.31988" lon="5.66956">
        <ele>904</ele>
        <time>2019-11-29T13:54:41.000Z</time>
      </trkpt>
      <trkpt lat="43.31988" lon="5.66956">
        <ele>904</ele>
        <time>2019-11-29T13:54:42.000Z</time>
      </trkpt>
      <trkpt lat="43.31988" lon="5.66956">
        <ele>904</ele>
        <time>2019-11-29T13:54:43.000Z</time>
      </trkpt>
      <trkpt lat="43.31989" lon="5.66955">
        <ele>904</ele>
        <time>2019-11-29T13:54:44.000Z</time>
      </trkpt>
      <trkpt lat="43.31989" lon="5.66955">
        <ele>904</ele>
        <time>2019-11-29T13:54:45.000Z</time>
      </trkpt>
      <trkpt lat="43.3199" lon="5.66954">
        <ele>904</ele>
        <time>2019-11-29T13:54:46.000Z</time>
      </trkpt>
      <trkpt lat="43.31991" lon="5.66953">
        <ele>904</ele>
        <time>2019-11-29T13:54:47.000Z</time>
      </trkpt>
      <trkpt lat="43.31992" lon="5.66953">
        <ele>904</ele>
        <time>2019-11-29T13:54:48.000Z</time>
      </trkpt>
      <trkpt lat="43.31993" lon="5.66952">
        <ele>904</ele>
        <time>2019-11-29T13:54:49.000Z</time>
      </trkpt>
      <trkpt lat="43.31994" lon="5.66952">
        <ele>904</ele>
        <time>2019-11-29T13:54:50.000Z</time>
      </trkpt>
      <trkpt lat="43.31995" lon="5.66952">
        <ele>904</ele>
        <time>2019-11-29T13:54:51.000Z</time>
      </trkpt>
      <trkpt lat="43.31996" lon="5.66952">
        <ele>904</ele>
        <time>2019-11-29T13:54:52.000Z</time>
      </trkpt>
      <trkpt lat="43.31997" lon="5.66952">
        <ele>904</ele>
        <time>2019-11-29T13:54:53.000Z</time>
      </trkpt>
      <trkpt lat="43.31997" lon="5.66952">
        <ele>904</ele>
        <time>2019-11-29T13:54:54.000Z</time>
      </trkpt>
      <trkpt lat="43.31998" lon="5.66952">
        <ele>904</ele>
        <time>2019-11-29T13:54:55.000Z</time>
      </trkpt>
      <trkpt lat="43.31999" lon="5.66952">
        <ele>904</ele>
        <time>2019-11-29T13:54:56.000Z</time>
      </trkpt>
      <trkpt lat="43.32" lon="5.66952">
        <ele>904</ele>
        <time>2019-11-29T13:54:57.000Z</time>
      </trkpt>
      <trkpt lat="43.32" lon="5.66952">
        <ele>904</ele>
        <time>2019-11-29T13:54:58.000Z</time>
      </trkpt>
      <trkpt lat="43.32001" lon="5.66951">
        <ele>904</ele>
        <time>2019-11-29T13:54:59.000Z</time>
      </trkpt>
      <trkpt lat="43.32002" lon="5.6695">
        <ele>904</ele>
        <time>2019-11-29T13:55:00.000Z</time>
      </trkpt>
      <trkpt lat="43.32003" lon="5.6695">
        <ele>904</ele>
        <time>2019-11-29T13:55:01.000Z</time>
      </trkpt>
      <trkpt lat="43.32004" lon="5.6695">
        <ele>904</ele>
        <time>2019-11-29T13:55:02.000Z</time>
      </trkpt>
      <trkpt lat="43.32004" lon="5.66949">
        <ele>904</ele>
        <time>2019-11-29T13:55:03.000Z</time>
      </trkpt>
      <trkpt lat="43.32005" lon="5.66949">
        <ele>904</ele>
        <time>2019-11-29T13:55:04.000Z</time>
      </trkpt>
      <trkpt lat="43.32005" lon="5.66949">
        <ele>904</ele>
        <time>2019-11-29T13:55:05.000Z</time>
      </trkpt>
      <trkpt lat="43.32006" lon="5.66948">
        <ele>904</ele>
        <time>2019-11-29T13:55:06.000Z</time>
      </trkpt>
      <trkpt lat="43.32006" lon="5.66948">
        <ele>904</ele>
        <time>2019-11-29T13:55:07.000Z</time>
      </trkpt>
      <trkpt lat="43.32006" lon="5.66948">
        <ele>904</ele>
        <time>2019-11-29T13:55:08.000Z</time>
      </trkpt>
      <trkpt lat="43.32006" lon="5.66949">
        <ele>904</ele>
        <time>2019-11-29T13:55:09.000Z</time>
      </trkpt>
      <trkpt lat="43.32006" lon="5.66949">
        <ele>904</ele>
        <time>2019-11-29T13:55:10.000Z</time>
      </trkpt>
      <trkpt lat="43.32005" lon="5.6695">
        <ele>904</ele>
        <time>2019-11-29T13:55:11.000Z</time>
      </trkpt>
      <trkpt lat="43.32005" lon="5.6695">
        <ele>904</ele>
        <time>2019-11-29T13:55:12.000Z</time>
      </trkpt>
      <trkpt lat="43.32004" lon="5.6695">
        <ele>904</ele>
        <time>2019-11-29T13:55:13.000Z</time>
      </trkpt>
      <trkpt lat="43.32004" lon="5.6695">
        <ele>904</ele>
        <time>2019-11-29T13:55:14.000Z</time>
      </trkpt>
      <trkpt lat="43.32004" lon="5.6695">
        <ele>904</ele>
        <time>2019-11-29T13:55:15.000Z</time>
      </trkpt>
      <trkpt lat="43.32004" lon="5.6695">
        <ele>904</ele>
        <time>2019-11-29T13:55:16.000Z</time>
      </trkpt>
      <trkpt lat="43.32004" lon="5.6695">
        <ele>904</ele>
        <time>2019-11-29T13:55:17.000Z</time>
      </trkpt>
      <trkpt lat="43.32004" lon="5.6695">
        <ele>904</ele>
        <time>2019-11-29T13:55:18.000Z</time>
      </trkpt>
      <trkpt lat="43.32004" lon="5.6695">
        <ele>904</ele>
        <time>2019-11-29T13:55:19.000Z</time>
      </trkpt>
      <trkpt lat="43.32004" lon="5.6695">
        <ele>904</ele>
        <time>2019-11-29T13:55:20.000Z</time>
      </trkpt>
      <trkpt lat="43.32004" lon="5.6695">
        <ele>904</ele>
        <time>2019-11-29T13:55:21.000Z</time>
      </trkpt>
      <trkpt lat="43.32003" lon="5.6695">
        <ele>904</ele>
        <time>2019-11-29T13:55:22.000Z</time>
      </trkpt>
      <trkpt lat="43.32003" lon="5.66951">
        <ele>904</ele>
        <time>2019-11-29T13:55:23.000Z</time>
      </trkpt>
      <trkpt lat="43.32002" lon="5.6695">
        <ele>904</ele>
        <time>2019-11-29T13:55:24.000Z</time>
      </trkpt>
      <trkpt lat="43.32001" lon="5.6695">
        <ele>904</ele>
        <time>2019-11-29T13:55:25.000Z</time>
      </trkpt>
      <trkpt lat="43.32" lon="5.6695">
        <ele>904</ele>
        <time>2019-11-29T13:55:26.000Z</time>
      </trkpt>
      <trkpt lat="43.31999" lon="5.6695">
        <ele>904</ele>
        <time>2019-11-29T13:55:27.000Z</time>
      </trkpt>
      <trkpt lat="43.31999" lon="5.6695">
        <ele>904</ele>
        <time>2019-11-29T13:55:28.000Z</time>
      </trkpt>
      <trkpt lat="43.31998" lon="5.66949">
        <ele>904</ele>
        <time>2019-11-29T13:55:29.000Z</time>
      </trkpt>
      <trkpt lat="43.31997" lon="5.6695">
        <ele>904</ele>
        <time>2019-11-29T13:55:30.000Z</time>
      </trkpt>
      <trkpt lat="43.31997" lon="5.6695">
        <ele>904</ele>
        <time>2019-11-29T13:55:31.000Z</time>
      </trkpt>
      <trkpt lat="43.31996" lon="5.6695">
        <ele>904</ele>
        <time>2019-11-29T13:55:32.000Z</time>
      </trkpt>
      <trkpt lat="43.31996" lon="5.6695">
        <ele>904</ele>
        <time>2019-11-29T13:55:33.000Z</time>
      </trkpt>
      <trkpt lat="43.31996" lon="5.6695">
        <ele>903</ele>
        <time>2019-11-29T13:55:34.000Z</time>
      </trkpt>
      <trkpt lat="43.31996" lon="5.6695">
        <ele>903</ele>
        <time>2019-11-29T13:55:35.000Z</time>
      </trkpt>
      <trkpt lat="43.31997" lon="5.66951">
        <ele>903</ele>
        <time>2019-11-29T13:55:36.000Z</time>
      </trkpt>
      <trkpt lat="43.31997" lon="5.66951">
        <ele>903</ele>
        <time>2019-11-29T13:55:37.000Z</time>
      </trkpt>
      <trkpt lat="43.31997" lon="5.66952">
        <ele>903</ele>
        <time>2019-11-29T13:55:38.000Z</time>
      </trkpt>
      <trkpt lat="43.31996" lon="5.66953">
        <ele>903</ele>
        <time>2019-11-29T13:55:39.000Z</time>
      </trkpt>
      <trkpt lat="43.31995" lon="5.66954">
        <ele>903</ele>
        <time>2019-11-29T13:55:40.000Z</time>
      </trkpt>
      <trkpt lat="43.31995" lon="5.66955">
        <ele>903</ele>
        <time>2019-11-29T13:55:41.000Z</time>
      </trkpt>
      <trkpt lat="43.31994" lon="5.66955">
        <ele>903</ele>
        <time>2019-11-29T13:55:42.000Z</time>
      </trkpt>
      <trkpt lat="43.31993" lon="5.66956">
        <ele>903</ele>
        <time>2019-11-29T13:55:43.000Z</time>
      </trkpt>
      <trkpt lat="43.31992" lon="5.66956">
        <ele>903</ele>
        <time>2019-11-29T13:55:44.000Z</time>
      </trkpt>
      <trkpt lat="43.3199" lon="5.66956">
        <ele>903</ele>
        <time>2019-11-29T13:55:45.000Z</time>
      </trkpt>
      <trkpt lat="43.3199" lon="5.66957">
        <ele>903</ele>
        <time>2019-11-29T13:55:46.000Z</time>
      </trkpt>
      <trkpt lat="43.31989" lon="5.66957">
        <ele>903</ele>
        <time>2019-11-29T13:55:47.000Z</time>
      </trkpt>
      <trkpt lat="43.31988" lon="5.66958">
        <ele>903</ele>
        <time>2019-11-29T13:55:48.000Z</time>
      </trkpt>
      <trkpt lat="43.31988" lon="5.66958">
        <ele>903</ele>
        <time>2019-11-29T13:55:49.000Z</time>
      </trkpt>
      <trkpt lat="43.31988" lon="5.66959">
        <ele>903</ele>
        <time>2019-11-29T13:55:50.000Z</time>
      </trkpt>
      <trkpt lat="43.31987" lon="5.66959">
        <ele>903</ele>
        <time>2019-11-29T13:55:51.000Z</time>
      </trkpt>
      <trkpt lat="43.31987" lon="5.66959">
        <ele>903</ele>
        <time>2019-11-29T13:55:52.000Z</time>
      </trkpt>
      <trkpt lat="43.31987" lon="5.66959">
        <ele>903</ele>
        <time>2019-11-29T13:55:53.000Z</time>
      </trkpt>
      <trkpt lat="43.31987" lon="5.66959">
        <ele>903</ele>
        <time>2019-11-29T13:55:54.000Z</time>
      </trkpt>
      <trkpt lat="43.31986" lon="5.6696">
        <ele>903</ele>
        <time>2019-11-29T13:55:55.000Z</time>
      </trkpt>
      <trkpt lat="43.31986" lon="5.6696">
        <ele>903</ele>
        <time>2019-11-29T13:55:56.000Z</time>
      </trkpt>
      <trkpt lat="43.31986" lon="5.66959">
        <ele>903</ele>
        <time>2019-11-29T13:55:57.000Z</time>
      </trkpt>
      <trkpt lat="43.31986" lon="5.66959">
        <ele>903</ele>
        <time>2019-11-29T13:55:58.000Z</time>
      </trkpt>
      <trkpt lat="43.31986" lon="5.66959">
        <ele>903</ele>
        <time>2019-11-29T13:55:59.000Z</time>
      </trkpt>
      <trkpt lat="43.31986" lon="5.66959">
        <ele>903</ele>
        <time>2019-11-29T13:56:00.000Z</time>
      </trkpt>
      <trkpt lat="43.31986" lon="5.6696">
        <ele>903</ele>
        <time>2019-11-29T13:56:01.000Z</time>
      </trkpt>
      <trkpt lat="43.31985" lon="5.6696">
        <ele>903</ele>
        <time>2019-11-29T13:56:02.000Z</time>
      </trkpt>
      <trkpt lat="43.31985" lon="5.6696">
        <ele>903</ele>
        <time>2019-11-29T13:56:03.000Z</time>
      </trkpt>
      <trkpt lat="43.31984" lon="5.66961">
        <ele>903</ele>
        <time>2019-11-29T13:56:04.000Z</time>
      </trkpt>
      <trkpt lat="43.31984" lon="5.66961">
        <ele>903</ele>
        <time>2019-11-29T13:56:05.000Z</time>
      </trkpt>
      <trkpt lat="43.31983" lon="5.66962">
        <ele>903</ele>
        <time>2019-11-29T13:56:06.000Z</time>
      </trkpt>
      <trkpt lat="43.31983" lon="5.66962">
        <ele>903</ele>
        <time>2019-11-29T13:56:07.000Z</time>
      </trkpt>
      <trkpt lat="43.31982" lon="5.66962">
        <ele>902</ele>
        <time>2019-11-29T13:56:08.000Z</time>
      </trkpt>
      <trkpt lat="43.31982" lon="5.66963">
        <ele>902</ele>
        <time>2019-11-29T13:56:09.000Z</time>
      </trkpt>
      <trkpt lat="43.31981" lon="5.66963">
        <ele>902</ele>
        <time>2019-11-29T13:56:10.000Z</time>
      </trkpt>
      <trkpt lat="43.31981" lon="5.66964">
        <ele>902</ele>
        <time>2019-11-29T13:56:11.000Z</time>
      </trkpt>
      <trkpt lat="43.31981" lon="5.66964">
        <ele>902</ele>
        <time>2019-11-29T13:56:12.000Z</time>
      </trkpt>
      <trkpt lat="43.31981" lon="5.66964">
        <ele>902</ele>
        <time>2019-11-29T13:56:13.000Z</time>
      </trkpt>
      <trkpt lat="43.3198" lon="5.66964">
        <ele>902</ele>
        <time>2019-11-29T13:56:14.000Z</time>
      </trkpt>
      <trkpt lat="43.3198" lon="5.66964">
        <ele>902</ele>
        <time>2019-11-29T13:56:15.000Z</time>
      </trkpt>
      <trkpt lat="43.3198" lon="5.66964">
        <ele>902</ele>
        <time>2019-11-29T13:56:16.000Z</time>
      </trkpt>
      <trkpt lat="43.31981" lon="5.66963">
        <ele>902</ele>
        <time>2019-11-29T13:56:17.000Z</time>
      </trkpt>
      <trkpt lat="43.3198" lon="5.66963">
        <ele>902</ele>
        <time>2019-11-29T13:56:18.000Z</time>
      </trkpt>
      <trkpt lat="43.3198" lon="5.66963">
        <ele>902</ele>
        <time>2019-11-29T13:56:19.000Z</time>
      </trkpt>
      <trkpt lat="43.3198" lon="5.66963">
        <ele>902</ele>
        <time>2019-11-29T13:56:20.000Z</time>
      </trkpt>
      <trkpt lat="43.3198" lon="5.66964">
        <ele>902</ele>
        <time>2019-11-29T13:56:21.000Z</time>
      </trkpt>
      <trkpt lat="43.3198" lon="5.66964">
        <ele>902</ele>
        <time>2019-11-29T13:56:22.000Z</time>
      </trkpt>
      <trkpt lat="43.3198" lon="5.66964">
        <ele>902</ele>
        <time>2019-11-29T13:56:23.000Z</time>
      </trkpt>
      <trkpt lat="43.3198" lon="5.66964">
        <ele>902</ele>
        <time>2019-11-29T13:56:24.000Z</time>
      </trkpt>
      <trkpt lat="43.3198" lon="5.66964">
        <ele>902</ele>
        <time>2019-11-29T13:56:25.000Z</time>
      </trkpt>
      <trkpt lat="43.3198" lon="5.66964">
        <ele>902</ele>
        <time>2019-11-29T13:56:26.000Z</time>
      </trkpt>
      <trkpt lat="43.3198" lon="5.66964">
        <ele>902</ele>
        <time>2019-11-29T13:56:27.000Z</time>
      </trkpt>
      <trkpt lat="43.3198" lon="5.66964">
        <ele>902</ele>
        <time>2019-11-29T13:56:28.000Z</time>
      </trkpt>
      <trkpt lat="43.3198" lon="5.66964">
        <ele>902</ele>
        <time>2019-11-29T13:56:29.000Z</time>
      </trkpt>
      <trkpt lat="43.3198" lon="5.66964">
        <ele>902</ele>
        <time>2019-11-29T13:56:30.000Z</time>
      </trkpt>
      <trkpt lat="43.3198" lon="5.66964">
        <ele>902</ele>
        <time>2019-11-29T13:56:31.000Z</time>
      </trkpt>
      <trkpt lat="43.3198" lon="5.66964">
        <ele>902</ele>
        <time>2019-11-29T13:56:32.000Z</time>
      </trkpt>
      <trkpt lat="43.3198" lon="5.66964">
        <ele>902</ele>
        <time>2019-11-29T13:56:33.000Z</time>
      </trkpt>
      <trkpt lat="43.3198" lon="5.66964">
        <ele>902</ele>
        <time>2019-11-29T13:56:34.000Z</time>
      </trkpt>
      <trkpt lat="43.31979" lon="5.66965">
        <ele>902</ele>
        <time>2019-11-29T13:56:35.000Z</time>
      </trkpt>
      <trkpt lat="43.31979" lon="5.66965">
        <ele>902</ele>
        <time>2019-11-29T13:56:36.000Z</time>
      </trkpt>
      <trkpt lat="43.31979" lon="5.66965">
        <ele>902</ele>
        <time>2019-11-29T13:56:37.000Z</time>
      </trkpt>
      <trkpt lat="43.31979" lon="5.66965">
        <ele>902</ele>
        <time>2019-11-29T13:56:38.000Z</time>
      </trkpt>
      <trkpt lat="43.31979" lon="5.66965">
        <ele>902</ele>
        <time>2019-11-29T13:56:39.000Z</time>
      </trkpt>
      <trkpt lat="43.31979" lon="5.66965">
        <ele>902</ele>
        <time>2019-11-29T13:56:40.000Z</time>
      </trkpt>
      <trkpt lat="43.31979" lon="5.66965">
        <ele>902</ele>
        <time>2019-11-29T13:56:41.000Z</time>
      </trkpt>
      <trkpt lat="43.31979" lon="5.66965">
        <ele>902</ele>
        <time>2019-11-29T13:56:42.000Z</time>
      </trkpt>
      <trkpt lat="43.31979" lon="5.66965">
        <ele>902</ele>
        <time>2019-11-29T13:56:43.000Z</time>
      </trkpt>
      <trkpt lat="43.31979" lon="5.66965">
        <ele>902</ele>
        <time>2019-11-29T13:56:44.000Z</time>
      </trkpt>
      <trkpt lat="43.31979" lon="5.66965">
        <ele>902</ele>
        <time>2019-11-29T13:56:45.000Z</time>
      </trkpt>
      <trkpt lat="43.31979" lon="5.66965">
        <ele>902</ele>
        <time>2019-11-29T13:56:46.000Z</time>
      </trkpt>
      <trkpt lat="43.31979" lon="5.66965">
        <ele>902</ele>
        <time>2019-11-29T13:56:47.000Z</time>
      </trkpt>
      <trkpt lat="43.31979" lon="5.66965">
        <ele>902</ele>
        <time>2019-11-29T13:56:48.000Z</time>
      </trkpt>
      <trkpt lat="43.31979" lon="5.66965">
        <ele>902</ele>
        <time>2019-11-29T13:56:49.000Z</time>
      </trkpt>
      <trkpt lat="43.31979" lon="5.66965">
        <ele>902</ele>
        <time>2019-11-29T13:56:50.000Z</time>
      </trkpt>
      <trkpt lat="43.31979" lon="5.66965">
        <ele>902</ele>
        <time>2019-11-29T13:56:51.000Z</time>
      </trkpt>
      <trkpt lat="43.31979" lon="5.66965">
        <ele>902</ele>
        <time>2019-11-29T13:56:52.000Z</time>
      </trkpt>
      <trkpt lat="43.31979" lon="5.66965">
        <ele>902</ele>
        <time>2019-11-29T13:56:53.000Z</time>
      </trkpt>
      <trkpt lat="43.31979" lon="5.66965">
        <ele>902</ele>
        <time>2019-11-29T13:56:54.000Z</time>
      </trkpt>
      <trkpt lat="43.31979" lon="5.66965">
        <ele>902</ele>
        <time>2019-11-29T13:56:55.000Z</time>
      </trkpt>
      <trkpt lat="43.31979" lon="5.66965">
        <ele>902</ele>
        <time>2019-11-29T13:56:56.000Z</time>
      </trkpt>
      <trkpt lat="43.31979" lon="5.66965">
        <ele>902</ele>
        <time>2019-11-29T13:56:57.000Z</time>
      </trkpt>
      <trkpt lat="43.31979" lon="5.66965">
        <ele>902</ele>
        <time>2019-11-29T13:56:58.000Z</time>
      </trkpt>
      <trkpt lat="43.31979" lon="5.66965">
        <ele>902</ele>
        <time>2019-11-29T13:56:59.000Z</time>
      </trkpt>
      <trkpt lat="43.31979" lon="5.66965">
        <ele>902</ele>
        <time>2019-11-29T13:57:00.000Z</time>
      </trkpt>
      <trkpt lat="43.31979" lon="5.66965">
        <ele>902</ele>
        <time>2019-11-29T13:57:01.000Z</time>
      </trkpt>
      <trkpt lat="43.31979" lon="5.66965">
        <ele>902</ele>
        <time>2019-11-29T13:57:02.000Z</time>
      </trkpt>
      <trkpt lat="43.31979" lon="5.66965">
        <ele>902</ele>
        <time>2019-11-29T13:57:03.000Z</time>
      </trkpt>
      <trkpt lat="43.31979" lon="5.66964">
        <ele>902</ele>
        <time>2019-11-29T13:57:04.000Z</time>
      </trkpt>
      <trkpt lat="43.3198" lon="5.66965">
        <ele>902</ele>
        <time>2019-11-29T13:57:05.000Z</time>
      </trkpt>
      <trkpt lat="43.3198" lon="5.66965">
        <ele>902</ele>
        <time>2019-11-29T13:57:06.000Z</time>
      </trkpt>
      <trkpt lat="43.3198" lon="5.66965">
        <ele>902</ele>
        <time>2019-11-29T13:57:07.000Z</time>
      </trkpt>
      <trkpt lat="43.3198" lon="5.66965">
        <ele>902</ele>
        <time>2019-11-29T13:57:08.000Z</time>
      </trkpt>
      <trkpt lat="43.3198" lon="5.66965">
        <ele>901</ele>
        <time>2019-11-29T13:57:09.000Z</time>
      </trkpt>
      <trkpt lat="43.3198" lon="5.66965">
        <ele>901</ele>
        <time>2019-11-29T13:57:10.000Z</time>
      </trkpt>
      <trkpt lat="43.3198" lon="5.66965">
        <ele>901</ele>
        <time>2019-11-29T13:57:11.000Z</time>
      </trkpt>
      <trkpt lat="43.3198" lon="5.66965">
        <ele>901</ele>
        <time>2019-11-29T13:57:12.000Z</time>
      </trkpt>
      <trkpt lat="43.3198" lon="5.66965">
        <ele>901</ele>
        <time>2019-11-29T13:57:13.000Z</time>
      </trkpt>
      <trkpt lat="43.3198" lon="5.66965">
        <ele>901</ele>
        <time>2019-11-29T13:57:14.000Z</time>
      </trkpt>
      <trkpt lat="43.3198" lon="5.66965">
        <ele>901</ele>
        <time>2019-11-29T13:57:15.000Z</time>
      </trkpt>
      <trkpt lat="43.3198" lon="5.66965">
        <ele>901</ele>
        <time>2019-11-29T13:57:16.000Z</time>
      </trkpt>
      <trkpt lat="43.3198" lon="5.66965">
        <ele>901</ele>
        <time>2019-11-29T13:57:17.000Z</time>
      </trkpt>
      <trkpt lat="43.3198" lon="5.66965">
        <ele>901</ele>
        <time>2019-11-29T13:57:18.000Z</time>
      </trkpt>
      <trkpt lat="43.3198" lon="5.66965">
        <ele>901</ele>
        <time>2019-11-29T13:57:19.000Z</time>
      </trkpt>
      <trkpt lat="43.3198" lon="5.66965">
        <ele>901</ele>
        <time>2019-11-29T13:57:20.000Z</time>
      </trkpt>
      <trkpt lat="43.3198" lon="5.66965">
        <ele>901</ele>
        <time>2019-11-29T13:57:21.000Z</time>
      </trkpt>
      <trkpt lat="43.3198" lon="5.66965">
        <ele>901</ele>
        <time>2019-11-29T13:57:22.000Z</time>
      </trkpt>
      <trkpt lat="43.3198" lon="5.66965">
        <ele>901</ele>
        <time>2019-11-29T13:57:23.000Z</time>
      </trkpt>
      <trkpt lat="43.3198" lon="5.66965">
        <ele>901</ele>
        <time>2019-11-29T13:57:24.000Z</time>
      </trkpt>
      <trkpt lat="43.3198" lon="5.66965">
        <ele>901</ele>
        <time>2019-11-29T13:57:25.000Z</time>
      </trkpt>
      <trkpt lat="43.3198" lon="5.66965">
        <ele>901</ele>
        <time>2019-11-29T13:57:26.000Z</time>
      </trkpt>
      <trkpt lat="43.3198" lon="5.66965">
        <ele>901</ele>
        <time>2019-11-29T13:57:27.000Z</time>
      </trkpt>
      <trkpt lat="43.3198" lon="5.66965">
        <ele>901</ele>
        <time>2019-11-29T13:57:28.000Z</time>
      </trkpt>
      <trkpt lat="43.3198" lon="5.66965">
        <ele>901</ele>
        <time>2019-11-29T13:57:29.000Z</time>
      </trkpt>
      <trkpt lat="43.3198" lon="5.66965">
        <ele>901</ele>
        <time>2019-11-29T13:57:30.000Z</time>
      </trkpt>
      <trkpt lat="43.3198" lon="5.66965">
        <ele>901</ele>
        <time>2019-11-29T13:57:31.000Z</time>
      </trkpt>
      <trkpt lat="43.3198" lon="5.66965">
        <ele>901</ele>
        <time>2019-11-29T13:57:32.000Z</time>
      </trkpt>
      <trkpt lat="43.3198" lon="5.66965">
        <ele>901</ele>
        <time>2019-11-29T13:57:33.000Z</time>
      </trkpt>
      <trkpt lat="43.3198" lon="5.66965">
        <ele>901</ele>
        <time>2019-11-29T13:57:34.000Z</time>
      </trkpt>
      <trkpt lat="43.3198" lon="5.66965">
        <ele>901</ele>
        <time>2019-11-29T13:57:35.000Z</time>
      </trkpt>
      <trkpt lat="43.3198" lon="5.66965">
        <ele>901</ele>
        <time>2019-11-29T13:57:36.000Z</time>
      </trkpt>
      <trkpt lat="43.3198" lon="5.66965">
        <ele>901</ele>
        <time>2019-11-29T13:57:37.000Z</time>
      </trkpt>
      <trkpt lat="43.3198" lon="5.66965">
        <ele>901</ele>
        <time>2019-11-29T13:57:38.000Z</time>
      </trkpt>
      <trkpt lat="43.3198" lon="5.66965">
        <ele>901</ele>
        <time>2019-11-29T13:57:39.000Z</time>
      </trkpt>
      <trkpt lat="43.3198" lon="5.66965">
        <ele>901</ele>
        <time>2019-11-29T13:57:40.000Z</time>
      </trkpt>
      <trkpt lat="43.3198" lon="5.66965">
        <ele>901</ele>
        <time>2019-11-29T13:57:41.000Z</time>
      </trkpt>
      <trkpt lat="43.3198" lon="5.66965">
        <ele>901</ele>
        <time>2019-11-29T13:57:42.000Z</time>
      </trkpt>
      <trkpt lat="43.3198" lon="5.66965">
        <ele>901</ele>
        <time>2019-11-29T13:57:43.000Z</time>
      </trkpt>
      <trkpt lat="43.3198" lon="5.66965">
        <ele>901</ele>
        <time>2019-11-29T13:57:44.000Z</time>
      </trkpt>
      <trkpt lat="43.3198" lon="5.66965">
        <ele>901</ele>
        <time>2019-11-29T13:57:45.000Z</time>
      </trkpt>
      <trkpt lat="43.3198" lon="5.66965">
        <ele>901</ele>
        <time>2019-11-29T13:57:46.000Z</time>
      </trkpt>
      <trkpt lat="43.3198" lon="5.66965">
        <ele>900</ele>
        <time>2019-11-29T13:57:47.000Z</time>
      </trkpt>
      <trkpt lat="43.3198" lon="5.66965">
        <ele>900</ele>
        <time>2019-11-29T13:57:48.000Z</time>
      </trkpt>
      <trkpt lat="43.3198" lon="5.66965">
        <ele>900</ele>
        <time>2019-11-29T13:57:49.000Z</time>
      </trkpt>
      <trkpt lat="43.3198" lon="5.66965">
        <ele>900</ele>
        <time>2019-11-29T13:57:50.000Z</time>
      </trkpt>
      <trkpt lat="43.3198" lon="5.66965">
        <ele>900</ele>
        <time>2019-11-29T13:57:51.000Z</time>
      </trkpt>
      <trkpt lat="43.3198" lon="5.66965">
        <ele>900</ele>
        <time>2019-11-29T13:57:52.000Z</time>
      </trkpt>
      <trkpt lat="43.3198" lon="5.66965">
        <ele>900</ele>
        <time>2019-11-29T13:57:53.000Z</time>
      </trkpt>
      <trkpt lat="43.3198" lon="5.66965">
        <ele>900</ele>
        <time>2019-11-29T13:57:54.000Z</time>
      </trkpt>
      <trkpt lat="43.3198" lon="5.66964">
        <ele>900</ele>
        <time>2019-11-29T13:57:55.000Z</time>
      </trkpt>
      <trkpt lat="43.3198" lon="5.66964">
        <ele>900</ele>
        <time>2019-11-29T13:57:56.000Z</time>
      </trkpt>
      <trkpt lat="43.31981" lon="5.66963">
        <ele>900</ele>
        <time>2019-11-29T13:57:57.000Z</time>
      </trkpt>
      <trkpt lat="43.31981" lon="5.66963">
        <ele>900</ele>
        <time>2019-11-29T13:57:58.000Z</time>
      </trkpt>
      <trkpt lat="43.31982" lon="5.66962">
        <ele>900</ele>
        <time>2019-11-29T13:57:59.000Z</time>
      </trkpt>
      <trkpt lat="43.31982" lon="5.66962">
        <ele>900</ele>
        <time>2019-11-29T13:58:00.000Z</time>
      </trkpt>
      <trkpt lat="43.31983" lon="5.66961">
        <ele>900</ele>
        <time>2019-11-29T13:58:01.000Z</time>
      </trkpt>
      <trkpt lat="43.31984" lon="5.6696">
        <ele>900</ele>
        <time>2019-11-29T13:58:02.000Z</time>
      </trkpt>
      <trkpt lat="43.31984" lon="5.66959">
        <ele>900</ele>
        <time>2019-11-29T13:58:03.000Z</time>
      </trkpt>
      <trkpt lat="43.31985" lon="5.66959">
        <ele>900</ele>
        <time>2019-11-29T13:58:04.000Z</time>
      </trkpt>
      <trkpt lat="43.31985" lon="5.66958">
        <ele>900</ele>
        <time>2019-11-29T13:58:05.000Z</time>
      </trkpt>
      <trkpt lat="43.31986" lon="5.66957">
        <ele>900</ele>
        <time>2019-11-29T13:58:06.000Z</time>
      </trkpt>
      <trkpt lat="43.31987" lon="5.66957">
        <ele>900</ele>
        <time>2019-11-29T13:58:07.000Z</time>
      </trkpt>
      <trkpt lat="43.31988" lon="5.66957">
        <ele>900</ele>
        <time>2019-11-29T13:58:08.000Z</time>
      </trkpt>
      <trkpt lat="43.31988" lon="5.66956">
        <ele>900</ele>
        <time>2019-11-29T13:58:09.000Z</time>
      </trkpt>
      <trkpt lat="43.31989" lon="5.66956">
        <ele>900</ele>
        <time>2019-11-29T13:58:10.000Z</time>
      </trkpt>
      <trkpt lat="43.3199" lon="5.66956">
        <ele>900</ele>
        <time>2019-11-29T13:58:11.000Z</time>
      </trkpt>
      <trkpt lat="43.31991" lon="5.66955">
        <ele>900</ele>
        <time>2019-11-29T13:58:12.000Z</time>
      </trkpt>
      <trkpt lat="43.31991" lon="5.66955">
        <ele>900</ele>
        <time>2019-11-29T13:58:13.000Z</time>
      </trkpt>
      <trkpt lat="43.31992" lon="5.66955">
        <ele>900</ele>
        <time>2019-11-29T13:58:14.000Z</time>
      </trkpt>
      <trkpt lat="43.31992" lon="5.66955">
        <ele>900</ele>
        <time>2019-11-29T13:58:15.000Z</time>
      </trkpt>
      <trkpt lat="43.31993" lon="5.66955">
        <ele>900</ele>
        <time>2019-11-29T13:58:16.000Z</time>
      </trkpt>
      <trkpt lat="43.31993" lon="5.66955">
        <ele>900</ele>
        <time>2019-11-29T13:58:17.000Z</time>
      </trkpt>
      <trkpt lat="43.31993" lon="5.66955">
        <ele>900</ele>
        <time>2019-11-29T13:58:18.000Z</time>
      </trkpt>
      <trkpt lat="43.31993" lon="5.66955">
        <ele>900</ele>
        <time>2019-11-29T13:58:19.000Z</time>
      </trkpt>
      <trkpt lat="43.31993" lon="5.66956">
        <ele>900</ele>
        <time>2019-11-29T13:58:20.000Z</time>
      </trkpt>
      <trkpt lat="43.31993" lon="5.66956">
        <ele>900</ele>
        <time>2019-11-29T13:58:21.000Z</time>
      </trkpt>
      <trkpt lat="43.31994" lon="5.66956">
        <ele>900</ele>
        <time>2019-11-29T13:58:22.000Z</time>
      </trkpt>
      <trkpt lat="43.31994" lon="5.66956">
        <ele>900</ele>
        <time>2019-11-29T13:58:23.000Z</time>
      </trkpt>
      <trkpt lat="43.31994" lon="5.66956">
        <ele>900</ele>
        <time>2019-11-29T13:58:24.000Z</time>
      </trkpt>
      <trkpt lat="43.31994" lon="5.66956">
        <ele>900</ele>
        <time>2019-11-29T13:58:25.000Z</time>
      </trkpt>
      <trkpt lat="43.31995" lon="5.66956">
        <ele>900</ele>
        <time>2019-11-29T13:58:26.000Z</time>
      </trkpt>
      <trkpt lat="43.31995" lon="5.66957">
        <ele>900</ele>
        <time>2019-11-29T13:58:27.000Z</time>
      </trkpt>
      <trkpt lat="43.31996" lon="5.66958">
        <ele>900</ele>
        <time>2019-11-29T13:58:28.000Z</time>
      </trkpt>
      <trkpt lat="43.31996" lon="5.66958">
        <ele>900</ele>
        <time>2019-11-29T13:58:29.000Z</time>
      </trkpt>
      <trkpt lat="43.31996" lon="5.66958">
        <ele>900</ele>
        <time>2019-11-29T13:58:30.000Z</time>
      </trkpt>
      <trkpt lat="43.31996" lon="5.66958">
        <ele>900</ele>
        <time>2019-11-29T13:58:31.000Z</time>
      </trkpt>
      <trkpt lat="43.31996" lon="5.66958">
        <ele>900</ele>
        <time>2019-11-29T13:58:32.000Z</time>
      </trkpt>
      <trkpt lat="43.31996" lon="5.66958">
        <ele>900</ele>
        <time>2019-11-29T13:58:33.000Z</time>
      </trkpt>
      <trkpt lat="43.31996" lon="5.66958">
        <ele>900</ele>
        <time>2019-11-29T13:58:34.000Z</time>
      </trkpt>
      <trkpt lat="43.31996" lon="5.66958">
        <ele>900</ele>
        <time>2019-11-29T13:58:35.000Z</time>
      </trkpt>
      <trkpt lat="43.31996" lon="5.66958">
        <ele>900</ele>
        <time>2019-11-29T13:58:36.000Z</time>
      </trkpt>
      <trkpt lat="43.31996" lon="5.66958">
        <ele>900</ele>
        <time>2019-11-29T13:58:37.000Z</time>
      </trkpt>
      <trkpt lat="43.31996" lon="5.66958">
        <ele>900</ele>
        <time>2019-11-29T13:58:38.000Z</time>
      </trkpt>
      <trkpt lat="43.31996" lon="5.66958">
        <ele>900</ele>
        <time>2019-11-29T13:58:39.000Z</time>
      </trkpt>
      <trkpt lat="43.31996" lon="5.66958">
        <ele>900</ele>
        <time>2019-11-29T13:58:40.000Z</time>
      </trkpt>
      <trkpt lat="43.31997" lon="5.66958">
        <ele>900</ele>
        <time>2019-11-29T13:58:41.000Z</time>
      </trkpt>
      <trkpt lat="43.31997" lon="5.66958">
        <ele>900</ele>
        <time>2019-11-29T13:58:42.000Z</time>
      </trkpt>
      <trkpt lat="43.31997" lon="5.66958">
        <ele>900</ele>
        <time>2019-11-29T13:58:43.000Z</time>
      </trkpt>
      <trkpt lat="43.31997" lon="5.66958">
        <ele>900</ele>
        <time>2019-11-29T13:58:44.000Z</time>
      </trkpt>
      <trkpt lat="43.31997" lon="5.66958">
        <ele>900</ele>
        <time>2019-11-29T13:58:45.000Z</time>
      </trkpt>
      <trkpt lat="43.31997" lon="5.66958">
        <ele>900</ele>
        <time>2019-11-29T13:58:46.000Z</time>
      </trkpt>
      <trkpt lat="43.31997" lon="5.66959">
        <ele>900</ele>
        <time>2019-11-29T13:58:47.000Z</time>
      </trkpt>
      <trkpt lat="43.31997" lon="5.66959">
        <ele>900</ele>
        <time>2019-11-29T13:58:48.000Z</time>
      </trkpt>
      <trkpt lat="43.31997" lon="5.66959">
        <ele>900</ele>
        <time>2019-11-29T13:58:49.000Z</time>
      </trkpt>
      <trkpt lat="43.31997" lon="5.66959">
        <ele>900</ele>
        <time>2019-11-29T13:58:50.000Z</time>
      </trkpt>
      <trkpt lat="43.31997" lon="5.6696">
        <ele>900</ele>
        <time>2019-11-29T13:58:51.000Z</time>
      </trkpt>
      <trkpt lat="43.31997" lon="5.6696">
        <ele>900</ele>
        <time>2019-11-29T13:58:52.000Z</time>
      </trkpt>
      <trkpt lat="43.31997" lon="5.66961">
        <ele>900</ele>
        <time>2019-11-29T13:58:53.000Z</time>
      </trkpt>
      <trkpt lat="43.31997" lon="5.66962">
        <ele>900</ele>
        <time>2019-11-29T13:58:54.000Z</time>
      </trkpt>
      <trkpt lat="43.31997" lon="5.66962">
        <ele>900</ele>
        <time>2019-11-29T13:58:55.000Z</time>
      </trkpt>
      <trkpt lat="43.31997" lon="5.66963">
        <ele>900</ele>
        <time>2019-11-29T13:58:56.000Z</time>
      </trkpt>
      <trkpt lat="43.31997" lon="5.66963">
        <ele>900</ele>
        <time>2019-11-29T13:58:57.000Z</time>
      </trkpt>
      <trkpt lat="43.31997" lon="5.66963">
        <ele>900</ele>
        <time>2019-11-29T13:58:58.000Z</time>
      </trkpt>
      <trkpt lat="43.31997" lon="5.66964">
        <ele>900</ele>
        <time>2019-11-29T13:58:59.000Z</time>
      </trkpt>
      <trkpt lat="43.31997" lon="5.66964">
        <ele>900</ele>
        <time>2019-11-29T13:59:00.000Z</time>
      </trkpt>
      <trkpt lat="43.31996" lon="5.66964">
        <ele>900</ele>
        <time>2019-11-29T13:59:01.000Z</time>
      </trkpt>
      <trkpt lat="43.31996" lon="5.66963">
        <ele>900</ele>
        <time>2019-11-29T13:59:02.000Z</time>
      </trkpt>
      <trkpt lat="43.31996" lon="5.66963">
        <ele>900</ele>
        <time>2019-11-29T13:59:03.000Z</time>
      </trkpt>
      <trkpt lat="43.31995" lon="5.66964">
        <ele>900</ele>
        <time>2019-11-29T13:59:04.000Z</time>
      </trkpt>
      <trkpt lat="43.31995" lon="5.66964">
        <ele>900</ele>
        <time>2019-11-29T13:59:05.000Z</time>
      </trkpt>
      <trkpt lat="43.31995" lon="5.66964">
        <ele>900</ele>
        <time>2019-11-29T13:59:06.000Z</time>
      </trkpt>
      <trkpt lat="43.31995" lon="5.66964">
        <ele>900</ele>
        <time>2019-11-29T13:59:07.000Z</time>
      </trkpt>
      <trkpt lat="43.31995" lon="5.66964">
        <ele>900</ele>
        <time>2019-11-29T13:59:08.000Z</time>
      </trkpt>
      <trkpt lat="43.31995" lon="5.66964">
        <ele>900</ele>
        <time>2019-11-29T13:59:09.000Z</time>
      </trkpt>
      <trkpt lat="43.31995" lon="5.66964">
        <ele>900</ele>
        <time>2019-11-29T13:59:10.000Z</time>
      </trkpt>
      <trkpt lat="43.31995" lon="5.66964">
        <ele>900</ele>
        <time>2019-11-29T13:59:11.000Z</time>
      </trkpt>
      <trkpt lat="43.31995" lon="5.66964">
        <ele>900</ele>
        <time>2019-11-29T13:59:12.000Z</time>
      </trkpt>
      <trkpt lat="43.31995" lon="5.66964">
        <ele>900</ele>
        <time>2019-11-29T13:59:13.000Z</time>
      </trkpt>
      <trkpt lat="43.31995" lon="5.66964">
        <ele>900</ele>
        <time>2019-11-29T13:59:14.000Z</time>
      </trkpt>
      <trkpt lat="43.31995" lon="5.66964">
        <ele>900</ele>
        <time>2019-11-29T13:59:15.000Z</time>
      </trkpt>
      <trkpt lat="43.31995" lon="5.66964">
        <ele>900</ele>
        <time>2019-11-29T13:59:16.000Z</time>
      </trkpt>
      <trkpt lat="43.31995" lon="5.66964">
        <ele>900</ele>
        <time>2019-11-29T13:59:17.000Z</time>
      </trkpt>
      <trkpt lat="43.31995" lon="5.66964">
        <ele>900</ele>
        <time>2019-11-29T13:59:18.000Z</time>
      </trkpt>
      <trkpt lat="43.31995" lon="5.66964">
        <ele>900</ele>
        <time>2019-11-29T13:59:19.000Z</time>
      </trkpt>
      <trkpt lat="43.31995" lon="5.66965">
        <ele>900</ele>
        <time>2019-11-29T13:59:20.000Z</time>
      </trkpt>
      <trkpt lat="43.31995" lon="5.66965">
        <ele>900</ele>
        <time>2019-11-29T13:59:21.000Z</time>
      </trkpt>
      <trkpt lat="43.31995" lon="5.66965">
        <ele>900</ele>
        <time>2019-11-29T13:59:22.000Z</time>
      </trkpt>
      <trkpt lat="43.31995" lon="5.66965">
        <ele>899</ele>
        <time>2019-11-29T13:59:23.000Z</time>
      </trkpt>
      <trkpt lat="43.31995" lon="5.66965">
        <ele>899</ele>
        <time>2019-11-29T13:59:24.000Z</time>
      </trkpt>
      <trkpt lat="43.31995" lon="5.66965">
        <ele>899</ele>
        <time>2019-11-29T13:59:25.000Z</time>
      </trkpt>
      <trkpt lat="43.31995" lon="5.66965">
        <ele>899</ele>
        <time>2019-11-29T13:59:26.000Z</time>
      </trkpt>
      <trkpt lat="43.31995" lon="5.66965">
        <ele>899</ele>
        <time>2019-11-29T13:59:27.000Z</time>
      </trkpt>
      <trkpt lat="43.31995" lon="5.66965">
        <ele>899</ele>
        <time>2019-11-29T13:59:28.000Z</time>
      </trkpt>
      <trkpt lat="43.31995" lon="5.66965">
        <ele>899</ele>
        <time>2019-11-29T13:59:29.000Z</time>
      </trkpt>
      <trkpt lat="43.31995" lon="5.66965">
        <ele>899</ele>
        <time>2019-11-29T13:59:30.000Z</time>
      </trkpt>
      <trkpt lat="43.31995" lon="5.66965">
        <ele>899</ele>
        <time>2019-11-29T13:59:31.000Z</time>
      </trkpt>
      <trkpt lat="43.31995" lon="5.66965">
        <ele>899</ele>
        <time>2019-11-29T13:59:32.000Z</time>
      </trkpt>
      <trkpt lat="43.31995" lon="5.66965">
        <ele>899</ele>
        <time>2019-11-29T13:59:33.000Z</time>
      </trkpt>
      <trkpt lat="43.31995" lon="5.66965">
        <ele>899</ele>
        <time>2019-11-29T13:59:34.000Z</time>
      </trkpt>
      <trkpt lat="43.31995" lon="5.66965">
        <ele>899</ele>
        <time>2019-11-29T13:59:35.000Z</time>
      </trkpt>
      <trkpt lat="43.31995" lon="5.66965">
        <ele>899</ele>
        <time>2019-11-29T13:59:36.000Z</time>
      </trkpt>
      <trkpt lat="43.31995" lon="5.66965">
        <ele>899</ele>
        <time>2019-11-29T13:59:37.000Z</time>
      </trkpt>
      <trkpt lat="43.31995" lon="5.66965">
        <ele>899</ele>
        <time>2019-11-29T13:59:38.000Z</time>
      </trkpt>
      <trkpt lat="43.31995" lon="5.66966">
        <ele>899</ele>
        <time>2019-11-29T13:59:39.000Z</time>
      </trkpt>
      <trkpt lat="43.31995" lon="5.66966">
        <ele>899</ele>
        <time>2019-11-29T13:59:40.000Z</time>
      </trkpt>
      <trkpt lat="43.31995" lon="5.66966">
        <ele>899</ele>
        <time>2019-11-29T13:59:41.000Z</time>
      </trkpt>
      <trkpt lat="43.31995" lon="5.66966">
        <ele>899</ele>
        <time>2019-11-29T13:59:42.000Z</time>
      </trkpt>
      <trkpt lat="43.31994" lon="5.66966">
        <ele>899</ele>
        <time>2019-11-29T13:59:43.000Z</time>
      </trkpt>
      <trkpt lat="43.31994" lon="5.66966">
        <ele>899</ele>
        <time>2019-11-29T13:59:44.000Z</time>
      </trkpt>
      <trkpt lat="43.31994" lon="5.66967">
        <ele>899</ele>
        <time>2019-11-29T13:59:45.000Z</time>
      </trkpt>
      <trkpt lat="43.31994" lon="5.66967">
        <ele>899</ele>
        <time>2019-11-29T13:59:46.000Z</time>
      </trkpt>
      <trkpt lat="43.31994" lon="5.66967">
        <ele>899</ele>
        <time>2019-11-29T13:59:47.000Z</time>
      </trkpt>
      <trkpt lat="43.31994" lon="5.66967">
        <ele>899</ele>
        <time>2019-11-29T13:59:48.000Z</time>
      </trkpt>
      <trkpt lat="43.31994" lon="5.66967">
        <ele>898</ele>
        <time>2019-11-29T13:59:49.000Z</time>
      </trkpt>
      <trkpt lat="43.31994" lon="5.66967">
        <ele>898</ele>
        <time>2019-11-29T13:59:50.000Z</time>
      </trkpt>
      <trkpt lat="43.31994" lon="5.66967">
        <ele>898</ele>
        <time>2019-11-29T13:59:51.000Z</time>
      </trkpt>
      <trkpt lat="43.31995" lon="5.66967">
        <ele>898</ele>
        <time>2019-11-29T13:59:52.000Z</time>
      </trkpt>
      <trkpt lat="43.31995" lon="5.66967">
        <ele>898</ele>
        <time>2019-11-29T13:59:53.000Z</time>
      </trkpt>
      <trkpt lat="43.31995" lon="5.66967">
        <ele>898</ele>
        <time>2019-11-29T13:59:54.000Z</time>
      </trkpt>
      <trkpt lat="43.31995" lon="5.66967">
        <ele>898</ele>
        <time>2019-11-29T13:59:55.000Z</time>
      </trkpt>
      <trkpt lat="43.31995" lon="5.66968">
        <ele>898</ele>
        <time>2019-11-29T13:59:56.000Z</time>
      </trkpt>
      <trkpt lat="43.31995" lon="5.66968">
        <ele>898</ele>
        <time>2019-11-29T13:59:57.000Z</time>
      </trkpt>
      <trkpt lat="43.31995" lon="5.66968">
        <ele>898</ele>
        <time>2019-11-29T13:59:58.000Z</time>
      </trkpt>
      <trkpt lat="43.31995" lon="5.66968">
        <ele>898</ele>
        <time>2019-11-29T13:59:59.000Z</time>
      </trkpt>
      <trkpt lat="43.31995" lon="5.66968">
        <ele>898</ele>
        <time>2019-11-29T14:00:00.000Z</time>
      </trkpt>
      <trkpt lat="43.31995" lon="5.66968">
        <ele>898</ele>
        <time>2019-11-29T14:00:01.000Z</time>
      </trkpt>
      <trkpt lat="43.31995" lon="5.66968">
        <ele>898</ele>
        <time>2019-11-29T14:00:02.000Z</time>
      </trkpt>
      <trkpt lat="43.31995" lon="5.66968">
        <ele>898</ele>
        <time>2019-11-29T14:00:03.000Z</time>
      </trkpt>
      <trkpt lat="43.31995" lon="5.66968">
        <ele>898</ele>
        <time>2019-11-29T14:00:04.000Z</time>
      </trkpt>
      <trkpt lat="43.31995" lon="5.66968">
        <ele>898</ele>
        <time>2019-11-29T14:00:05.000Z</time>
      </trkpt>
      <trkpt lat="43.31995" lon="5.66968">
        <ele>898</ele>
        <time>2019-11-29T14:00:06.000Z</time>
      </trkpt>
      <trkpt lat="43.31996" lon="5.66968">
        <ele>898</ele>
        <time>2019-11-29T14:00:07.000Z</time>
      </trkpt>
      <trkpt lat="43.31996" lon="5.66968">
        <ele>898</ele>
        <time>2019-11-29T14:00:08.000Z</time>
      </trkpt>
      <trkpt lat="43.31996" lon="5.66968">
        <ele>898</ele>
        <time>2019-11-29T14:00:09.000Z</time>
      </trkpt>
      <trkpt lat="43.31996" lon="5.66968">
        <ele>898</ele>
        <time>2019-11-29T14:00:10.000Z</time>
      </trkpt>
      <trkpt lat="43.31996" lon="5.66968">
        <ele>898</ele>
        <time>2019-11-29T14:00:11.000Z</time>
      </trkpt>
      <trkpt lat="43.31996" lon="5.66968">
        <ele>898</ele>
        <time>2019-11-29T14:00:12.000Z</time>
      </trkpt>
      <trkpt lat="43.31995" lon="5.66969">
        <ele>898</ele>
        <time>2019-11-29T14:00:13.000Z</time>
      </trkpt>
      <trkpt lat="43.31995" lon="5.66969">
        <ele>897</ele>
        <time>2019-11-29T14:00:14.000Z</time>
      </trkpt>
      <trkpt lat="43.31995" lon="5.66969">
        <ele>897</ele>
        <time>2019-11-29T14:00:15.000Z</time>
      </trkpt>
      <trkpt lat="43.31995" lon="5.66969">
        <ele>897</ele>
        <time>2019-11-29T14:00:16.000Z</time>
      </trkpt>
      <trkpt lat="43.31995" lon="5.66969">
        <ele>897</ele>
        <time>2019-11-29T14:00:17.000Z</time>
      </trkpt>
      <trkpt lat="43.31995" lon="5.66969">
        <ele>897</ele>
        <time>2019-11-29T14:00:18.000Z</time>
      </trkpt>
      <trkpt lat="43.31995" lon="5.66969">
        <ele>897</ele>
        <time>2019-11-29T14:00:19.000Z</time>
      </trkpt>
      <trkpt lat="43.31995" lon="5.66969">
        <ele>897</ele>
        <time>2019-11-29T14:00:20.000Z</time>
      </trkpt>
      <trkpt lat="43.31995" lon="5.66969">
        <ele>897</ele>
        <time>2019-11-29T14:00:21.000Z</time>
      </trkpt>
      <trkpt lat="43.31995" lon="5.66969">
        <ele>897</ele>
        <time>2019-11-29T14:00:22.000Z</time>
      </trkpt>
      <trkpt lat="43.31995" lon="5.66969">
        <ele>897</ele>
        <time>2019-11-29T14:00:23.000Z</time>
      </trkpt>
      <trkpt lat="43.31995" lon="5.66969">
        <ele>897</ele>
        <time>2019-11-29T14:00:24.000Z</time>
      </trkpt>
      <trkpt lat="43.31994" lon="5.66969">
        <ele>896</ele>
        <time>2019-11-29T14:00:25.000Z</time>
      </trkpt>
      <trkpt lat="43.31995" lon="5.6697">
        <ele>896</ele>
        <time>2019-11-29T14:00:26.000Z</time>
      </trkpt>
      <trkpt lat="43.31994" lon="5.6697">
        <ele>896</ele>
        <time>2019-11-29T14:00:27.000Z</time>
      </trkpt>
      <trkpt lat="43.31994" lon="5.66971">
        <ele>896</ele>
        <time>2019-11-29T14:00:28.000Z</time>
      </trkpt>
      <trkpt lat="43.31994" lon="5.66972">
        <ele>896</ele>
        <time>2019-11-29T14:00:29.000Z</time>
      </trkpt>
      <trkpt lat="43.31993" lon="5.66972">
        <ele>896</ele>
        <time>2019-11-29T14:00:30.000Z</time>
      </trkpt>
      <trkpt lat="43.31993" lon="5.66973">
        <ele>895</ele>
        <time>2019-11-29T14:00:31.000Z</time>
      </trkpt>
      <trkpt lat="43.31993" lon="5.66973">
        <ele>895</ele>
        <time>2019-11-29T14:00:32.000Z</time>
      </trkpt>
      <trkpt lat="43.31993" lon="5.66973">
        <ele>895</ele>
        <time>2019-11-29T14:00:33.000Z</time>
      </trkpt>
      <trkpt lat="43.31993" lon="5.66973">
        <ele>895</ele>
        <time>2019-11-29T14:00:34.000Z</time>
      </trkpt>
      <trkpt lat="43.31993" lon="5.66973">
        <ele>895</ele>
        <time>2019-11-29T14:00:35.000Z</time>
      </trkpt>
      <trkpt lat="43.31992" lon="5.66973">
        <ele>895</ele>
        <time>2019-11-29T14:00:36.000Z</time>
      </trkpt>
      <trkpt lat="43.31992" lon="5.66973">
        <ele>895</ele>
        <time>2019-11-29T14:00:37.000Z</time>
      </trkpt>
      <trkpt lat="43.31992" lon="5.66973">
        <ele>895</ele>
        <time>2019-11-29T14:00:38.000Z</time>
      </trkpt>
      <trkpt lat="43.31992" lon="5.66973">
        <ele>895</ele>
        <time>2019-11-29T14:00:39.000Z</time>
      </trkpt>
      <trkpt lat="43.31992" lon="5.66973">
        <ele>895</ele>
        <time>2019-11-29T14:00:40.000Z</time>
      </trkpt>
      <trkpt lat="43.31992" lon="5.66973">
        <ele>894</ele>
        <time>2019-11-29T14:00:41.000Z</time>
      </trkpt>
      <trkpt lat="43.31992" lon="5.66974">
        <ele>894</ele>
        <time>2019-11-29T14:00:42.000Z</time>
      </trkpt>
      <trkpt lat="43.31992" lon="5.66974">
        <ele>894</ele>
        <time>2019-11-29T14:00:43.000Z</time>
      </trkpt>
      <trkpt lat="43.31991" lon="5.66973">
        <ele>894</ele>
        <time>2019-11-29T14:00:44.000Z</time>
      </trkpt>
      <trkpt lat="43.3199" lon="5.66973">
        <ele>894</ele>
        <time>2019-11-29T14:00:45.000Z</time>
      </trkpt>
      <trkpt lat="43.3199" lon="5.66973">
        <ele>894</ele>
        <time>2019-11-29T14:00:46.000Z</time>
      </trkpt>
      <trkpt lat="43.3199" lon="5.66973">
        <ele>894</ele>
        <time>2019-11-29T14:00:47.000Z</time>
      </trkpt>
      <trkpt lat="43.3199" lon="5.66973">
        <ele>894</ele>
        <time>2019-11-29T14:00:48.000Z</time>
      </trkpt>
      <trkpt lat="43.3199" lon="5.66973">
        <ele>894</ele>
        <time>2019-11-29T14:00:49.000Z</time>
      </trkpt>
      <trkpt lat="43.3199" lon="5.66973">
        <ele>894</ele>
        <time>2019-11-29T14:00:50.000Z</time>
      </trkpt>
      <trkpt lat="43.3199" lon="5.66973">
        <ele>894</ele>
        <time>2019-11-29T14:00:51.000Z</time>
      </trkpt>
      <trkpt lat="43.3199" lon="5.66973">
        <ele>894</ele>
        <time>2019-11-29T14:00:52.000Z</time>
      </trkpt>
      <trkpt lat="43.3199" lon="5.66973">
        <ele>894</ele>
        <time>2019-11-29T14:00:53.000Z</time>
      </trkpt>
      <trkpt lat="43.3199" lon="5.66973">
        <ele>894</ele>
        <time>2019-11-29T14:00:54.000Z</time>
      </trkpt>
      <trkpt lat="43.3199" lon="5.66973">
        <ele>894</ele>
        <time>2019-11-29T14:00:55.000Z</time>
      </trkpt>
      <trkpt lat="43.3199" lon="5.66973">
        <ele>894</ele>
        <time>2019-11-29T14:00:56.000Z</time>
      </trkpt>
      <trkpt lat="43.3199" lon="5.66973">
        <ele>894</ele>
        <time>2019-11-29T14:00:57.000Z</time>
      </trkpt>
      <trkpt lat="43.3199" lon="5.66972">
        <ele>894</ele>
        <time>2019-11-29T14:00:58.000Z</time>
      </trkpt>
      <trkpt lat="43.3199" lon="5.66972">
        <ele>894</ele>
        <time>2019-11-29T14:00:59.000Z</time>
      </trkpt>
      <trkpt lat="43.3199" lon="5.66972">
        <ele>894</ele>
        <time>2019-11-29T14:01:00.000Z</time>
      </trkpt>
      <trkpt lat="43.3199" lon="5.66972">
        <ele>894</ele>
        <time>2019-11-29T14:01:01.000Z</time>
      </trkpt>
      <trkpt lat="43.3199" lon="5.66972">
        <ele>894</ele>
        <time>2019-11-29T14:01:02.000Z</time>
      </trkpt>
      <trkpt lat="43.3199" lon="5.66973">
        <ele>894</ele>
        <time>2019-11-29T14:01:03.000Z</time>
      </trkpt>
      <trkpt lat="43.3199" lon="5.66973">
        <ele>894</ele>
        <time>2019-11-29T14:01:04.000Z</time>
      </trkpt>
      <trkpt lat="43.3199" lon="5.66973">
        <ele>894</ele>
        <time>2019-11-29T14:01:05.000Z</time>
      </trkpt>
      <trkpt lat="43.31991" lon="5.66973">
        <ele>894</ele>
        <time>2019-11-29T14:01:06.000Z</time>
      </trkpt>
      <trkpt lat="43.31991" lon="5.66973">
        <ele>894</ele>
        <time>2019-11-29T14:01:07.000Z</time>
      </trkpt>
      <trkpt lat="43.31991" lon="5.66973">
        <ele>894</ele>
        <time>2019-11-29T14:01:08.000Z</time>
      </trkpt>
      <trkpt lat="43.31991" lon="5.66972">
        <ele>894</ele>
        <time>2019-11-29T14:01:09.000Z</time>
      </trkpt>
      <trkpt lat="43.31991" lon="5.66972">
        <ele>894</ele>
        <time>2019-11-29T14:01:10.000Z</time>
      </trkpt>
      <trkpt lat="43.31991" lon="5.66972">
        <ele>894</ele>
        <time>2019-11-29T14:01:11.000Z</time>
      </trkpt>
      <trkpt lat="43.31991" lon="5.66973">
        <ele>894</ele>
        <time>2019-11-29T14:01:12.000Z</time>
      </trkpt>
      <trkpt lat="43.31991" lon="5.66972">
        <ele>894</ele>
        <time>2019-11-29T14:01:13.000Z</time>
      </trkpt>
      <trkpt lat="43.31991" lon="5.66972">
        <ele>894</ele>
        <time>2019-11-29T14:01:14.000Z</time>
      </trkpt>
      <trkpt lat="43.31991" lon="5.66972">
        <ele>894</ele>
        <time>2019-11-29T14:01:15.000Z</time>
      </trkpt>
      <trkpt lat="43.31991" lon="5.66972">
        <ele>894</ele>
        <time>2019-11-29T14:01:16.000Z</time>
      </trkpt>
      <trkpt lat="43.31991" lon="5.66972">
        <ele>894</ele>
        <time>2019-11-29T14:01:17.000Z</time>
      </trkpt>
      <trkpt lat="43.31991" lon="5.66972">
        <ele>894</ele>
        <time>2019-11-29T14:01:18.000Z</time>
      </trkpt>
      <trkpt lat="43.31991" lon="5.66972">
        <ele>894</ele>
        <time>2019-11-29T14:01:19.000Z</time>
      </trkpt>
      <trkpt lat="43.31991" lon="5.66972">
        <ele>894</ele>
        <time>2019-11-29T14:01:20.000Z</time>
      </trkpt>
      <trkpt lat="43.31991" lon="5.66972">
        <ele>894</ele>
        <time>2019-11-29T14:01:21.000Z</time>
      </trkpt>
      <trkpt lat="43.31991" lon="5.66972">
        <ele>894</ele>
        <time>2019-11-29T14:01:22.000Z</time>
      </trkpt>
      <trkpt lat="43.31991" lon="5.66972">
        <ele>894</ele>
        <time>2019-11-29T14:01:23.000Z</time>
      </trkpt>
      <trkpt lat="43.31991" lon="5.66972">
        <ele>894</ele>
        <time>2019-11-29T14:01:24.000Z</time>
      </trkpt>
      <trkpt lat="43.3199" lon="5.66972">
        <ele>894</ele>
        <time>2019-11-29T14:01:25.000Z</time>
      </trkpt>
      <trkpt lat="43.3199" lon="5.66973">
        <ele>894</ele>
        <time>2019-11-29T14:01:26.000Z</time>
      </trkpt>
      <trkpt lat="43.3199" lon="5.66972">
        <ele>894</ele>
        <time>2019-11-29T14:01:27.000Z</time>
      </trkpt>
      <trkpt lat="43.3199" lon="5.66972">
        <ele>894</ele>
        <time>2019-11-29T14:01:28.000Z</time>
      </trkpt>
      <trkpt lat="43.3199" lon="5.66972">
        <ele>894</ele>
        <time>2019-11-29T14:01:29.000Z</time>
      </trkpt>
      <trkpt lat="43.3199" lon="5.66972">
        <ele>894</ele>
        <time>2019-11-29T14:01:30.000Z</time>
      </trkpt>
      <trkpt lat="43.3199" lon="5.66972">
        <ele>894</ele>
        <time>2019-11-29T14:01:31.000Z</time>
      </trkpt>
      <trkpt lat="43.3199" lon="5.66972">
        <ele>894</ele>
        <time>2019-11-29T14:01:32.000Z</time>
      </trkpt>
      <trkpt lat="43.3199" lon="5.66972">
        <ele>894</ele>
        <time>2019-11-29T14:01:33.000Z</time>
      </trkpt>
      <trkpt lat="43.3199" lon="5.66972">
        <ele>894</ele>
        <time>2019-11-29T14:01:34.000Z</time>
      </trkpt>
      <trkpt lat="43.3199" lon="5.66972">
        <ele>894</ele>
        <time>2019-11-29T14:01:35.000Z</time>
      </trkpt>
      <trkpt lat="43.3199" lon="5.66972">
        <ele>894</ele>
        <time>2019-11-29T14:01:36.000Z</time>
      </trkpt>
      <trkpt lat="43.3199" lon="5.66972">
        <ele>894</ele>
        <time>2019-11-29T14:01:37.000Z</time>
      </trkpt>
      <trkpt lat="43.3199" lon="5.66972">
        <ele>894</ele>
        <time>2019-11-29T14:01:38.000Z</time>
      </trkpt>
      <trkpt lat="43.3199" lon="5.66972">
        <ele>894</ele>
        <time>2019-11-29T14:01:39.000Z</time>
      </trkpt>
      <trkpt lat="43.3199" lon="5.66972">
        <ele>894</ele>
        <time>2019-11-29T14:01:40.000Z</time>
      </trkpt>
      <trkpt lat="43.3199" lon="5.66972">
        <ele>894</ele>
        <time>2019-11-29T14:01:41.000Z</time>
      </trkpt>
      <trkpt lat="43.3199" lon="5.66972">
        <ele>894</ele>
        <time>2019-11-29T14:01:42.000Z</time>
      </trkpt>
      <trkpt lat="43.3199" lon="5.66972">
        <ele>894</ele>
        <time>2019-11-29T14:01:43.000Z</time>
      </trkpt>
      <trkpt lat="43.3199" lon="5.66972">
        <ele>894</ele>
        <time>2019-11-29T14:01:44.000Z</time>
      </trkpt>
      <trkpt lat="43.3199" lon="5.66972">
        <ele>894</ele>
        <time>2019-11-29T14:01:45.000Z</time>
      </trkpt>
      <trkpt lat="43.3199" lon="5.66972">
        <ele>894</ele>
        <time>2019-11-29T14:01:46.000Z</time>
      </trkpt>
      <trkpt lat="43.3199" lon="5.66972">
        <ele>894</ele>
        <time>2019-11-29T14:01:47.000Z</time>
      </trkpt>
      <trkpt lat="43.3199" lon="5.66972">
        <ele>894</ele>
        <time>2019-11-29T14:01:48.000Z</time>
      </trkpt>
      <trkpt lat="43.3199" lon="5.66972">
        <ele>894</ele>
        <time>2019-11-29T14:01:49.000Z</time>
      </trkpt>
      <trkpt lat="43.3199" lon="5.66972">
        <ele>894</ele>
        <time>2019-11-29T14:01:50.000Z</time>
      </trkpt>
      <trkpt lat="43.3199" lon="5.66972">
        <ele>894</ele>
        <time>2019-11-29T14:01:51.000Z</time>
      </trkpt>
      <trkpt lat="43.3199" lon="5.66972">
        <ele>894</ele>
        <time>2019-11-29T14:01:52.000Z</time>
      </trkpt>
      <trkpt lat="43.3199" lon="5.66972">
        <ele>894</ele>
        <time>2019-11-29T14:01:53.000Z</time>
      </trkpt>
      <trkpt lat="43.3199" lon="5.66972">
        <ele>894</ele>
        <time>2019-11-29T14:01:54.000Z</time>
      </trkpt>
      <trkpt lat="43.3199" lon="5.66972">
        <ele>894</ele>
        <time>2019-11-29T14:01:55.000Z</time>
      </trkpt>
      <trkpt lat="43.3199" lon="5.66972">
        <ele>894</ele>
        <time>2019-11-29T14:01:56.000Z</time>
      </trkpt>
      <trkpt lat="43.3199" lon="5.66972">
        <ele>894</ele>
        <time>2019-11-29T14:01:57.000Z</time>
      </trkpt>
      <trkpt lat="43.3199" lon="5.66972">
        <ele>894</ele>
        <time>2019-11-29T14:01:58.000Z</time>
      </trkpt>
      <trkpt lat="43.3199" lon="5.66972">
        <ele>894</ele>
        <time>2019-11-29T14:01:59.000Z</time>
      </trkpt>
      <trkpt lat="43.3199" lon="5.66972">
        <ele>894</ele>
        <time>2019-11-29T14:02:00.000Z</time>
      </trkpt>
      <trkpt lat="43.3199" lon="5.66972">
        <ele>894</ele>
        <time>2019-11-29T14:02:01.000Z</time>
      </trkpt>
      <trkpt lat="43.3199" lon="5.66972">
        <ele>894</ele>
        <time>2019-11-29T14:02:02.000Z</time>
      </trkpt>
      <trkpt lat="43.3199" lon="5.66972">
        <ele>894</ele>
        <time>2019-11-29T14:02:03.000Z</time>
      </trkpt>
      <trkpt lat="43.3199" lon="5.66972">
        <ele>894</ele>
        <time>2019-11-29T14:02:04.000Z</time>
      </trkpt>
      <trkpt lat="43.3199" lon="5.66972">
        <ele>894</ele>
        <time>2019-11-29T14:02:05.000Z</time>
      </trkpt>
      <trkpt lat="43.3199" lon="5.66971">
        <ele>894</ele>
        <time>2019-11-29T14:02:06.000Z</time>
      </trkpt>
      <trkpt lat="43.3199" lon="5.66971">
        <ele>894</ele>
        <time>2019-11-29T14:02:07.000Z</time>
      </trkpt>
      <trkpt lat="43.3199" lon="5.66971">
        <ele>894</ele>
        <time>2019-11-29T14:02:08.000Z</time>
      </trkpt>
      <trkpt lat="43.31989" lon="5.66971">
        <ele>894</ele>
        <time>2019-11-29T14:02:09.000Z</time>
      </trkpt>
      <trkpt lat="43.31989" lon="5.66971">
        <ele>894</ele>
        <time>2019-11-29T14:02:10.000Z</time>
      </trkpt>
      <trkpt lat="43.31989" lon="5.66971">
        <ele>894</ele>
        <time>2019-11-29T14:02:11.000Z</time>
      </trkpt>
      <trkpt lat="43.31989" lon="5.66971">
        <ele>894</ele>
        <time>2019-11-29T14:02:12.000Z</time>
      </trkpt>
      <trkpt lat="43.31989" lon="5.66971">
        <ele>894</ele>
        <time>2019-11-29T14:02:13.000Z</time>
      </trkpt>
      <trkpt lat="43.31989" lon="5.66971">
        <ele>894</ele>
        <time>2019-11-29T14:02:14.000Z</time>
      </trkpt>
      <trkpt lat="43.31989" lon="5.66972">
        <ele>894</ele>
        <time>2019-11-29T14:02:15.000Z</time>
      </trkpt>
      <trkpt lat="43.31989" lon="5.66972">
        <ele>894</ele>
        <time>2019-11-29T14:02:16.000Z</time>
      </trkpt>
      <trkpt lat="43.31989" lon="5.66972">
        <ele>894</ele>
        <time>2019-11-29T14:02:17.000Z</time>
      </trkpt>
      <trkpt lat="43.31989" lon="5.66972">
        <ele>894</ele>
        <time>2019-11-29T14:02:18.000Z</time>
      </trkpt>
      <trkpt lat="43.31989" lon="5.66972">
        <ele>894</ele>
        <time>2019-11-29T14:02:19.000Z</time>
      </trkpt>
      <trkpt lat="43.31989" lon="5.66972">
        <ele>894</ele>
        <time>2019-11-29T14:02:20.000Z</time>
      </trkpt>
      <trkpt lat="43.31989" lon="5.66972">
        <ele>894</ele>
        <time>2019-11-29T14:02:21.000Z</time>
      </trkpt>
      <trkpt lat="43.31989" lon="5.66972">
        <ele>894</ele>
        <time>2019-11-29T14:02:22.000Z</time>
      </trkpt>
      <trkpt lat="43.31989" lon="5.66972">
        <ele>894</ele>
        <time>2019-11-29T14:02:23.000Z</time>
      </trkpt>
      <trkpt lat="43.31989" lon="5.66972">
        <ele>894</ele>
        <time>2019-11-29T14:02:24.000Z</time>
      </trkpt>
      <trkpt lat="43.31989" lon="5.66972">
        <ele>894</ele>
        <time>2019-11-29T14:02:25.000Z</time>
      </trkpt>
      <trkpt lat="43.31989" lon="5.66972">
        <ele>894</ele>
        <time>2019-11-29T14:02:26.000Z</time>
      </trkpt>
      <trkpt lat="43.31989" lon="5.66972">
        <ele>894</ele>
        <time>2019-11-29T14:02:27.000Z</time>
      </trkpt>
      <trkpt lat="43.31989" lon="5.66972">
        <ele>894</ele>
        <time>2019-11-29T14:02:28.000Z</time>
      </trkpt>
      <trkpt lat="43.31988" lon="5.66972">
        <ele>894</ele>
        <time>2019-11-29T14:02:29.000Z</time>
      </trkpt>
      <trkpt lat="43.31988" lon="5.66972">
        <ele>894</ele>
        <time>2019-11-29T14:02:30.000Z</time>
      </trkpt>
      <trkpt lat="43.31988" lon="5.66972">
        <ele>894</ele>
        <time>2019-11-29T14:02:31.000Z</time>
      </trkpt>
      <trkpt lat="43.31988" lon="5.66972">
        <ele>894</ele>
        <time>2019-11-29T14:02:32.000Z</time>
      </trkpt>
      <trkpt lat="43.31988" lon="5.66972">
        <ele>894</ele>
        <time>2019-11-29T14:02:33.000Z</time>
      </trkpt>
      <trkpt lat="43.31988" lon="5.66972">
        <ele>894</ele>
        <time>2019-11-29T14:02:34.000Z</time>
      </trkpt>
      <trkpt lat="43.31988" lon="5.66972">
        <ele>894</ele>
        <time>2019-11-29T14:02:35.000Z</time>
      </trkpt>
      <trkpt lat="43.31988" lon="5.66972">
        <ele>894</ele>
        <time>2019-11-29T14:02:36.000Z</time>
      </trkpt>
      <trkpt lat="43.31988" lon="5.66972">
        <ele>894</ele>
        <time>2019-11-29T14:02:37.000Z</time>
      </trkpt>
      <trkpt lat="43.31988" lon="5.66972">
        <ele>894</ele>
        <time>2019-11-29T14:02:38.000Z</time>
      </trkpt>
      <trkpt lat="43.31988" lon="5.66972">
        <ele>894</ele>
        <time>2019-11-29T14:02:39.000Z</time>
      </trkpt>
      <trkpt lat="43.31988" lon="5.66972">
        <ele>894</ele>
        <time>2019-11-29T14:02:40.000Z</time>
      </trkpt>
      <trkpt lat="43.31988" lon="5.66972">
        <ele>894</ele>
        <time>2019-11-29T14:02:41.000Z</time>
      </trkpt>
      <trkpt lat="43.31988" lon="5.66972">
        <ele>894</ele>
        <time>2019-11-29T14:02:42.000Z</time>
      </trkpt>
      <trkpt lat="43.31988" lon="5.66972">
        <ele>894</ele>
        <time>2019-11-29T14:02:43.000Z</time>
      </trkpt>
      <trkpt lat="43.31988" lon="5.66972">
        <ele>894</ele>
        <time>2019-11-29T14:02:44.000Z</time>
      </trkpt>
      <trkpt lat="43.31988" lon="5.66972">
        <ele>894</ele>
        <time>2019-11-29T14:02:45.000Z</time>
      </trkpt>
      <trkpt lat="43.31988" lon="5.66972">
        <ele>894</ele>
        <time>2019-11-29T14:02:46.000Z</time>
      </trkpt>
      <trkpt lat="43.31988" lon="5.66972">
        <ele>894</ele>
        <time>2019-11-29T14:02:47.000Z</time>
      </trkpt>
      <trkpt lat="43.31988" lon="5.66972">
        <ele>894</ele>
        <time>2019-11-29T14:02:48.000Z</time>
      </trkpt>
      <trkpt lat="43.31988" lon="5.66972">
        <ele>894</ele>
        <time>2019-11-29T14:02:49.000Z</time>
      </trkpt>
      <trkpt lat="43.31988" lon="5.66972">
        <ele>894</ele>
        <time>2019-11-29T14:02:50.000Z</time>
      </trkpt>
      <trkpt lat="43.31988" lon="5.66972">
        <ele>894</ele>
        <time>2019-11-29T14:02:51.000Z</time>
      </trkpt>
      <trkpt lat="43.31988" lon="5.66972">
        <ele>894</ele>
        <time>2019-11-29T14:02:52.000Z</time>
      </trkpt>
      <trkpt lat="43.31988" lon="5.66972">
        <ele>894</ele>
        <time>2019-11-29T14:02:53.000Z</time>
      </trkpt>
      <trkpt lat="43.31988" lon="5.66972">
        <ele>894</ele>
        <time>2019-11-29T14:02:54.000Z</time>
      </trkpt>
      <trkpt lat="43.31988" lon="5.66972">
        <ele>894</ele>
        <time>2019-11-29T14:02:55.000Z</time>
      </trkpt>
      <trkpt lat="43.31988" lon="5.66972">
        <ele>894</ele>
        <time>2019-11-29T14:02:56.000Z</time>
      </trkpt>
      <trkpt lat="43.31988" lon="5.66972">
        <ele>894</ele>
        <time>2019-11-29T14:02:57.000Z</time>
      </trkpt>
      <trkpt lat="43.31988" lon="5.66972">
        <ele>894</ele>
        <time>2019-11-29T14:02:58.000Z</time>
      </trkpt>
      <trkpt lat="43.31988" lon="5.66972">
        <ele>894</ele>
        <time>2019-11-29T14:02:59.000Z</time>
      </trkpt>
      <trkpt lat="43.31988" lon="5.66972">
        <ele>894</ele>
        <time>2019-11-29T14:03:00.000Z</time>
      </trkpt>
      <trkpt lat="43.31988" lon="5.66972">
        <ele>894</ele>
        <time>2019-11-29T14:03:01.000Z</time>
      </trkpt>
      <trkpt lat="43.31988" lon="5.66972">
        <ele>894</ele>
        <time>2019-11-29T14:03:02.000Z</time>
      </trkpt>
      <trkpt lat="43.31988" lon="5.66972">
        <ele>894</ele>
        <time>2019-11-29T14:03:03.000Z</time>
      </trkpt>
      <trkpt lat="43.31988" lon="5.66972">
        <ele>894</ele>
        <time>2019-11-29T14:03:04.000Z</time>
      </trkpt>
      <trkpt lat="43.31988" lon="5.66972">
        <ele>894</ele>
        <time>2019-11-29T14:03:05.000Z</time>
      </trkpt>
      <trkpt lat="43.31988" lon="5.66972">
        <ele>894</ele>
        <time>2019-11-29T14:03:06.000Z</time>
      </trkpt>
      <trkpt lat="43.31988" lon="5.66972">
        <ele>894</ele>
        <time>2019-11-29T14:03:07.000Z</time>
      </trkpt>
      <trkpt lat="43.31988" lon="5.66972">
        <ele>894</ele>
        <time>2019-11-29T14:03:08.000Z</time>
      </trkpt>
      <trkpt lat="43.31988" lon="5.66972">
        <ele>894</ele>
        <time>2019-11-29T14:03:09.000Z</time>
      </trkpt>
      <trkpt lat="43.31988" lon="5.66972">
        <ele>894</ele>
        <time>2019-11-29T14:03:10.000Z</time>
      </trkpt>
      <trkpt lat="43.31988" lon="5.66973">
        <ele>894</ele>
        <time>2019-11-29T14:03:11.000Z</time>
      </trkpt>
      <trkpt lat="43.31988" lon="5.66973">
        <ele>894</ele>
        <time>2019-11-29T14:03:12.000Z</time>
      </trkpt>
      <trkpt lat="43.31988" lon="5.66972">
        <ele>894</ele>
        <time>2019-11-29T14:03:13.000Z</time>
      </trkpt>
      <trkpt lat="43.31988" lon="5.66972">
        <ele>894</ele>
        <time>2019-11-29T14:03:14.000Z</time>
      </trkpt>
      <trkpt lat="43.31988" lon="5.66972">
        <ele>894</ele>
        <time>2019-11-29T14:03:15.000Z</time>
      </trkpt>
      <trkpt lat="43.31988" lon="5.66972">
        <ele>894</ele>
        <time>2019-11-29T14:03:16.000Z</time>
      </trkpt>
      <trkpt lat="43.31988" lon="5.66972">
        <ele>894</ele>
        <time>2019-11-29T14:03:17.000Z</time>
      </trkpt>
      <trkpt lat="43.31988" lon="5.66972">
        <ele>894</ele>
        <time>2019-11-29T14:03:18.000Z</time>
      </trkpt>
      <trkpt lat="43.31988" lon="5.66972">
        <ele>894</ele>
        <time>2019-11-29T14:03:19.000Z</time>
      </trkpt>
      <trkpt lat="43.31988" lon="5.66972">
        <ele>894</ele>
        <time>2019-11-29T14:03:20.000Z</time>
      </trkpt>
      <trkpt lat="43.31988" lon="5.66973">
        <ele>894</ele>
        <time>2019-11-29T14:03:21.000Z</time>
      </trkpt>
      <trkpt lat="43.31988" lon="5.66973">
        <ele>894</ele>
        <time>2019-11-29T14:03:22.000Z</time>
      </trkpt>
      <trkpt lat="43.31988" lon="5.66973">
        <ele>894</ele>
        <time>2019-11-29T14:03:23.000Z</time>
      </trkpt>
      <trkpt lat="43.31988" lon="5.66973">
        <ele>894</ele>
        <time>2019-11-29T14:03:24.000Z</time>
      </trkpt>
      <trkpt lat="43.31988" lon="5.66973">
        <ele>894</ele>
        <time>2019-11-29T14:03:25.000Z</time>
      </trkpt>
      <trkpt lat="43.31988" lon="5.66973">
        <ele>894</ele>
        <time>2019-11-29T14:03:26.000Z</time>
      </trkpt>
      <trkpt lat="43.31988" lon="5.66973">
        <ele>894</ele>
        <time>2019-11-29T14:03:27.000Z</time>
      </trkpt>
      <trkpt lat="43.31988" lon="5.66973">
        <ele>894</ele>
        <time>2019-11-29T14:03:28.000Z</time>
      </trkpt>
      <trkpt lat="43.31988" lon="5.66973">
        <ele>894</ele>
        <time>2019-11-29T14:03:29.000Z</time>
      </trkpt>
      <trkpt lat="43.31988" lon="5.66973">
        <ele>894</ele>
        <time>2019-11-29T14:03:30.000Z</time>
      </trkpt>
      <trkpt lat="43.31988" lon="5.66973">
        <ele>894</ele>
        <time>2019-11-29T14:03:31.000Z</time>
      </trkpt>
      <trkpt lat="43.31988" lon="5.66973">
        <ele>894</ele>
        <time>2019-11-29T14:03:32.000Z</time>
      </trkpt>
      <trkpt lat="43.31988" lon="5.66973">
        <ele>894</ele>
        <time>2019-11-29T14:03:33.000Z</time>
      </trkpt>
      <trkpt lat="43.31988" lon="5.66973">
        <ele>894</ele>
        <time>2019-11-29T14:03:34.000Z</time>
      </trkpt>
      <trkpt lat="43.31988" lon="5.66973">
        <ele>894</ele>
        <time>2019-11-29T14:03:35.000Z</time>
      </trkpt>
      <trkpt lat="43.31988" lon="5.66973">
        <ele>894</ele>
        <time>2019-11-29T14:03:36.000Z</time>
      </trkpt>
      <trkpt lat="43.31988" lon="5.66973">
        <ele>894</ele>
        <time>2019-11-29T14:03:37.000Z</time>
      </trkpt>
      <trkpt lat="43.31988" lon="5.66973">
        <ele>894</ele>
        <time>2019-11-29T14:03:38.000Z</time>
      </trkpt>
      <trkpt lat="43.31988" lon="5.66973">
        <ele>894</ele>
        <time>2019-11-29T14:03:39.000Z</time>
      </trkpt>
      <trkpt lat="43.31988" lon="5.66973">
        <ele>894</ele>
        <time>2019-11-29T14:03:40.000Z</time>
      </trkpt>
      <trkpt lat="43.31988" lon="5.66973">
        <ele>894</ele>
        <time>2019-11-29T14:03:41.000Z</time>
      </trkpt>
      <trkpt lat="43.31988" lon="5.66973">
        <ele>894</ele>
        <time>2019-11-29T14:03:42.000Z</time>
      </trkpt>
      <trkpt lat="43.31988" lon="5.66973">
        <ele>894</ele>
        <time>2019-11-29T14:03:43.000Z</time>
      </trkpt>
      <trkpt lat="43.31987" lon="5.66974">
        <ele>894</ele>
        <time>2019-11-29T14:03:44.000Z</time>
      </trkpt>
      <trkpt lat="43.31987" lon="5.66974">
        <ele>894</ele>
        <time>2019-11-29T14:03:45.000Z</time>
      </trkpt>
      <trkpt lat="43.31987" lon="5.66974">
        <ele>894</ele>
        <time>2019-11-29T14:03:46.000Z</time>
      </trkpt>
      <trkpt lat="43.31987" lon="5.66974">
        <ele>894</ele>
        <time>2019-11-29T14:03:47.000Z</time>
      </trkpt>
      <trkpt lat="43.31987" lon="5.66974">
        <ele>894</ele>
        <time>2019-11-29T14:03:48.000Z</time>
      </trkpt>
      <trkpt lat="43.31987" lon="5.66974">
        <ele>894</ele>
        <time>2019-11-29T14:03:49.000Z</time>
      </trkpt>
      <trkpt lat="43.31987" lon="5.66974">
        <ele>894</ele>
        <time>2019-11-29T14:03:50.000Z</time>
      </trkpt>
      <trkpt lat="43.31987" lon="5.66974">
        <ele>894</ele>
        <time>2019-11-29T14:03:51.000Z</time>
      </trkpt>
      <trkpt lat="43.31987" lon="5.66974">
        <ele>894</ele>
        <time>2019-11-29T14:03:52.000Z</time>
      </trkpt>
      <trkpt lat="43.31987" lon="5.66974">
        <ele>894</ele>
        <time>2019-11-29T14:03:53.000Z</time>
      </trkpt>
      <trkpt lat="43.31987" lon="5.66974">
        <ele>894</ele>
        <time>2019-11-29T14:03:54.000Z</time>
      </trkpt>
      <trkpt lat="43.31987" lon="5.66974">
        <ele>894</ele>
        <time>2019-11-29T14:03:55.000Z</time>
      </trkpt>
      <trkpt lat="43.31987" lon="5.66974">
        <ele>894</ele>
        <time>2019-11-29T14:03:56.000Z</time>
      </trkpt>
      <trkpt lat="43.31987" lon="5.66975">
        <ele>894</ele>
        <time>2019-11-29T14:03:57.000Z</time>
      </trkpt>
      <trkpt lat="43.31987" lon="5.66975">
        <ele>894</ele>
        <time>2019-11-29T14:03:58.000Z</time>
      </trkpt>
      <trkpt lat="43.31987" lon="5.66975">
        <ele>894</ele>
        <time>2019-11-29T14:03:59.000Z</time>
      </trkpt>
      <trkpt lat="43.31987" lon="5.66975">
        <ele>894</ele>
        <time>2019-11-29T14:04:00.000Z</time>
      </trkpt>
      <trkpt lat="43.31987" lon="5.66975">
        <ele>894</ele>
        <time>2019-11-29T14:04:01.000Z</time>
      </trkpt>
      <trkpt lat="43.31987" lon="5.66975">
        <ele>894</ele>
        <time>2019-11-29T14:04:02.000Z</time>
      </trkpt>
      <trkpt lat="43.31987" lon="5.66975">
        <ele>894</ele>
        <time>2019-11-29T14:04:03.000Z</time>
      </trkpt>
      <trkpt lat="43.31987" lon="5.66975">
        <ele>894</ele>
        <time>2019-11-29T14:04:04.000Z</time>
      </trkpt>
      <trkpt lat="43.31987" lon="5.66975">
        <ele>894</ele>
        <time>2019-11-29T14:04:05.000Z</time>
      </trkpt>
      <trkpt lat="43.31987" lon="5.66975">
        <ele>894</ele>
        <time>2019-11-29T14:04:06.000Z</time>
      </trkpt>
      <trkpt lat="43.31987" lon="5.66975">
        <ele>894</ele>
        <time>2019-11-29T14:04:07.000Z</time>
      </trkpt>
      <trkpt lat="43.31987" lon="5.66975">
        <ele>894</ele>
        <time>2019-11-29T14:04:08.000Z</time>
      </trkpt>
      <trkpt lat="43.31987" lon="5.66975">
        <ele>894</ele>
        <time>2019-11-29T14:04:09.000Z</time>
      </trkpt>
      <trkpt lat="43.31987" lon="5.66975">
        <ele>894</ele>
        <time>2019-11-29T14:04:10.000Z</time>
      </trkpt>
      <trkpt lat="43.31987" lon="5.66975">
        <ele>894</ele>
        <time>2019-11-29T14:04:11.000Z</time>
      </trkpt>
      <trkpt lat="43.31987" lon="5.66975">
        <ele>894</ele>
        <time>2019-11-29T14:04:12.000Z</time>
      </trkpt>
      <trkpt lat="43.31987" lon="5.66975">
        <ele>894</ele>
        <time>2019-11-29T14:04:13.000Z</time>
      </trkpt>
      <trkpt lat="43.31987" lon="5.66975">
        <ele>894</ele>
        <time>2019-11-29T14:04:14.000Z</time>
      </trkpt>
      <trkpt lat="43.31987" lon="5.66975">
        <ele>894</ele>
        <time>2019-11-29T14:04:15.000Z</time>
      </trkpt>
      <trkpt lat="43.31987" lon="5.66975">
        <ele>894</ele>
        <time>2019-11-29T14:04:16.000Z</time>
      </trkpt>
      <trkpt lat="43.31987" lon="5.66975">
        <ele>894</ele>
        <time>2019-11-29T14:04:17.000Z</time>
      </trkpt>
      <trkpt lat="43.31988" lon="5.66975">
        <ele>894</ele>
        <time>2019-11-29T14:04:18.000Z</time>
      </trkpt>
      <trkpt lat="43.31988" lon="5.66975">
        <ele>894</ele>
        <time>2019-11-29T14:04:19.000Z</time>
      </trkpt>
      <trkpt lat="43.31988" lon="5.66975">
        <ele>894</ele>
        <time>2019-11-29T14:04:20.000Z</time>
      </trkpt>
      <trkpt lat="43.31988" lon="5.66975">
        <ele>894</ele>
        <time>2019-11-29T14:04:21.000Z</time>
      </trkpt>
      <trkpt lat="43.31988" lon="5.66975">
        <ele>894</ele>
        <time>2019-11-29T14:04:22.000Z</time>
      </trkpt>
      <trkpt lat="43.31988" lon="5.66976">
        <ele>894</ele>
        <time>2019-11-29T14:04:23.000Z</time>
      </trkpt>
      <trkpt lat="43.31988" lon="5.66976">
        <ele>894</ele>
        <time>2019-11-29T14:04:24.000Z</time>
      </trkpt>
      <trkpt lat="43.31988" lon="5.66976">
        <ele>894</ele>
        <time>2019-11-29T14:04:25.000Z</time>
      </trkpt>
      <trkpt lat="43.31988" lon="5.66976">
        <ele>894</ele>
        <time>2019-11-29T14:04:26.000Z</time>
      </trkpt>
      <trkpt lat="43.31988" lon="5.66976">
        <ele>894</ele>
        <time>2019-11-29T14:04:27.000Z</time>
      </trkpt>
      <trkpt lat="43.31988" lon="5.66976">
        <ele>894</ele>
        <time>2019-11-29T14:04:28.000Z</time>
      </trkpt>
      <trkpt lat="43.31988" lon="5.66976">
        <ele>894</ele>
        <time>2019-11-29T14:04:29.000Z</time>
      </trkpt>
      <trkpt lat="43.31988" lon="5.66976">
        <ele>894</ele>
        <time>2019-11-29T14:04:30.000Z</time>
      </trkpt>
      <trkpt lat="43.31988" lon="5.66976">
        <ele>894</ele>
        <time>2019-11-29T14:04:31.000Z</time>
      </trkpt>
      <trkpt lat="43.31988" lon="5.66976">
        <ele>894</ele>
        <time>2019-11-29T14:04:32.000Z</time>
      </trkpt>
      <trkpt lat="43.31988" lon="5.66976">
        <ele>894</ele>
        <time>2019-11-29T14:04:33.000Z</time>
      </trkpt>
      <trkpt lat="43.31988" lon="5.66976">
        <ele>894</ele>
        <time>2019-11-29T14:04:34.000Z</time>
      </trkpt>
      <trkpt lat="43.31989" lon="5.66975">
        <ele>894</ele>
        <time>2019-11-29T14:04:35.000Z</time>
      </trkpt>
      <trkpt lat="43.31989" lon="5.66976">
        <ele>893</ele>
        <time>2019-11-29T14:04:36.000Z</time>
      </trkpt>
      <trkpt lat="43.31989" lon="5.66976">
        <ele>893</ele>
        <time>2019-11-29T14:04:37.000Z</time>
      </trkpt>
      <trkpt lat="43.31989" lon="5.66976">
        <ele>893</ele>
        <time>2019-11-29T14:04:38.000Z</time>
      </trkpt>
      <trkpt lat="43.31989" lon="5.66976">
        <ele>893</ele>
        <time>2019-11-29T14:04:39.000Z</time>
      </trkpt>
      <trkpt lat="43.31989" lon="5.66976">
        <ele>893</ele>
        <time>2019-11-29T14:04:40.000Z</time>
      </trkpt>
      <trkpt lat="43.31989" lon="5.66976">
        <ele>893</ele>
        <time>2019-11-29T14:04:41.000Z</time>
      </trkpt>
      <trkpt lat="43.31989" lon="5.66976">
        <ele>893</ele>
        <time>2019-11-29T14:04:42.000Z</time>
      </trkpt>
      <trkpt lat="43.3199" lon="5.66977">
        <ele>893</ele>
        <time>2019-11-29T14:04:43.000Z</time>
      </trkpt>
      <trkpt lat="43.3199" lon="5.66977">
        <ele>893</ele>
        <time>2019-11-29T14:04:44.000Z</time>
      </trkpt>
      <trkpt lat="43.3199" lon="5.66977">
        <ele>893</ele>
        <time>2019-11-29T14:04:45.000Z</time>
      </trkpt>
      <trkpt lat="43.3199" lon="5.66977">
        <ele>893</ele>
        <time>2019-11-29T14:04:46.000Z</time>
      </trkpt>
      <trkpt lat="43.3199" lon="5.66977">
        <ele>893</ele>
        <time>2019-11-29T14:04:47.000Z</time>
      </trkpt>
      <trkpt lat="43.3199" lon="5.66977">
        <ele>893</ele>
        <time>2019-11-29T14:04:48.000Z</time>
      </trkpt>
      <trkpt lat="43.3199" lon="5.66977">
        <ele>893</ele>
        <time>2019-11-29T14:04:49.000Z</time>
      </trkpt>
      <trkpt lat="43.31989" lon="5.66977">
        <ele>893</ele>
        <time>2019-11-29T14:04:50.000Z</time>
      </trkpt>
      <trkpt lat="43.31989" lon="5.66977">
        <ele>893</ele>
        <time>2019-11-29T14:04:51.000Z</time>
      </trkpt>
      <trkpt lat="43.31989" lon="5.66977">
        <ele>893</ele>
        <time>2019-11-29T14:04:52.000Z</time>
      </trkpt>
      <trkpt lat="43.31989" lon="5.66977">
        <ele>893</ele>
        <time>2019-11-29T14:04:53.000Z</time>
      </trkpt>
      <trkpt lat="43.31989" lon="5.66977">
        <ele>893</ele>
        <time>2019-11-29T14:04:54.000Z</time>
      </trkpt>
      <trkpt lat="43.31989" lon="5.66977">
        <ele>893</ele>
        <time>2019-11-29T14:04:55.000Z</time>
      </trkpt>
      <trkpt lat="43.31989" lon="5.66977">
        <ele>893</ele>
        <time>2019-11-29T14:04:56.000Z</time>
      </trkpt>
      <trkpt lat="43.31989" lon="5.66977">
        <ele>893</ele>
        <time>2019-11-29T14:04:57.000Z</time>
      </trkpt>
      <trkpt lat="43.31989" lon="5.66976">
        <ele>893</ele>
        <time>2019-11-29T14:04:58.000Z</time>
      </trkpt>
      <trkpt lat="43.31989" lon="5.66976">
        <ele>893</ele>
        <time>2019-11-29T14:04:59.000Z</time>
      </trkpt>
      <trkpt lat="43.31989" lon="5.66976">
        <ele>893</ele>
        <time>2019-11-29T14:05:00.000Z</time>
      </trkpt>
      <trkpt lat="43.31989" lon="5.66976">
        <ele>893</ele>
        <time>2019-11-29T14:05:01.000Z</time>
      </trkpt>
      <trkpt lat="43.31988" lon="5.66976">
        <ele>893</ele>
        <time>2019-11-29T14:05:02.000Z</time>
      </trkpt>
      <trkpt lat="43.31988" lon="5.66976">
        <ele>893</ele>
        <time>2019-11-29T14:05:03.000Z</time>
      </trkpt>
      <trkpt lat="43.31988" lon="5.66976">
        <ele>893</ele>
        <time>2019-11-29T14:05:04.000Z</time>
      </trkpt>
      <trkpt lat="43.31988" lon="5.66976">
        <ele>893</ele>
        <time>2019-11-29T14:05:05.000Z</time>
      </trkpt>
      <trkpt lat="43.31988" lon="5.66976">
        <ele>893</ele>
        <time>2019-11-29T14:05:06.000Z</time>
      </trkpt>
      <trkpt lat="43.31988" lon="5.66976">
        <ele>892</ele>
        <time>2019-11-29T14:05:07.000Z</time>
      </trkpt>
      <trkpt lat="43.31988" lon="5.66976">
        <ele>892</ele>
        <time>2019-11-29T14:05:08.000Z</time>
      </trkpt>
      <trkpt lat="43.31988" lon="5.66976">
        <ele>892</ele>
        <time>2019-11-29T14:05:09.000Z</time>
      </trkpt>
      <trkpt lat="43.31988" lon="5.66976">
        <ele>892</ele>
        <time>2019-11-29T14:05:10.000Z</time>
      </trkpt>
      <trkpt lat="43.31988" lon="5.66976">
        <ele>892</ele>
        <time>2019-11-29T14:05:11.000Z</time>
      </trkpt>
      <trkpt lat="43.31987" lon="5.66976">
        <ele>892</ele>
        <time>2019-11-29T14:05:12.000Z</time>
      </trkpt>
      <trkpt lat="43.31988" lon="5.66977">
        <ele>892</ele>
        <time>2019-11-29T14:05:13.000Z</time>
      </trkpt>
      <trkpt lat="43.31988" lon="5.66977">
        <ele>892</ele>
        <time>2019-11-29T14:05:14.000Z</time>
      </trkpt>
      <trkpt lat="43.31988" lon="5.66977">
        <ele>892</ele>
        <time>2019-11-29T14:05:15.000Z</time>
      </trkpt>
      <trkpt lat="43.31988" lon="5.66977">
        <ele>892</ele>
        <time>2019-11-29T14:05:16.000Z</time>
      </trkpt>
      <trkpt lat="43.31987" lon="5.66978">
        <ele>892</ele>
        <time>2019-11-29T14:05:17.000Z</time>
      </trkpt>
      <trkpt lat="43.31987" lon="5.66978">
        <ele>892</ele>
        <time>2019-11-29T14:05:18.000Z</time>
      </trkpt>
      <trkpt lat="43.31987" lon="5.66978">
        <ele>892</ele>
        <time>2019-11-29T14:05:19.000Z</time>
      </trkpt>
      <trkpt lat="43.31987" lon="5.66978">
        <ele>892</ele>
        <time>2019-11-29T14:05:20.000Z</time>
      </trkpt>
      <trkpt lat="43.31986" lon="5.66979">
        <ele>892</ele>
        <time>2019-11-29T14:05:21.000Z</time>
      </trkpt>
      <trkpt lat="43.31986" lon="5.66979">
        <ele>892</ele>
        <time>2019-11-29T14:05:22.000Z</time>
      </trkpt>
      <trkpt lat="43.31987" lon="5.66979">
        <ele>892</ele>
        <time>2019-11-29T14:05:23.000Z</time>
      </trkpt>
      <trkpt lat="43.31987" lon="5.66979">
        <ele>892</ele>
        <time>2019-11-29T14:05:24.000Z</time>
      </trkpt>
      <trkpt lat="43.31986" lon="5.6698">
        <ele>892</ele>
        <time>2019-11-29T14:05:25.000Z</time>
      </trkpt>
      <trkpt lat="43.31986" lon="5.6698">
        <ele>891</ele>
        <time>2019-11-29T14:05:26.000Z</time>
      </trkpt>
      <trkpt lat="43.31986" lon="5.6698">
        <ele>891</ele>
        <time>2019-11-29T14:05:27.000Z</time>
      </trkpt>
      <trkpt lat="43.31986" lon="5.66981">
        <ele>891</ele>
        <time>2019-11-29T14:05:28.000Z</time>
      </trkpt>
      <trkpt lat="43.31986" lon="5.66981">
        <ele>891</ele>
        <time>2019-11-29T14:05:29.000Z</time>
      </trkpt>
      <trkpt lat="43.31986" lon="5.66981">
        <ele>891</ele>
        <time>2019-11-29T14:05:30.000Z</time>
      </trkpt>
      <trkpt lat="43.31987" lon="5.66982">
        <ele>891</ele>
        <time>2019-11-29T14:05:31.000Z</time>
      </trkpt>
      <trkpt lat="43.31987" lon="5.66982">
        <ele>891</ele>
        <time>2019-11-29T14:05:32.000Z</time>
      </trkpt>
      <trkpt lat="43.31988" lon="5.66983">
        <ele>891</ele>
        <time>2019-11-29T14:05:33.000Z</time>
      </trkpt>
      <trkpt lat="43.31988" lon="5.66983">
        <ele>891</ele>
        <time>2019-11-29T14:05:34.000Z</time>
      </trkpt>
      <trkpt lat="43.31988" lon="5.66984">
        <ele>891</ele>
        <time>2019-11-29T14:05:35.000Z</time>
      </trkpt>
      <trkpt lat="43.31988" lon="5.66984">
        <ele>891</ele>
        <time>2019-11-29T14:05:36.000Z</time>
      </trkpt>
      <trkpt lat="43.31988" lon="5.66985">
        <ele>891</ele>
        <time>2019-11-29T14:05:37.000Z</time>
      </trkpt>
      <trkpt lat="43.31989" lon="5.66985">
        <ele>891</ele>
        <time>2019-11-29T14:05:38.000Z</time>
      </trkpt>
      <trkpt lat="43.31989" lon="5.66985">
        <ele>891</ele>
        <time>2019-11-29T14:05:39.000Z</time>
      </trkpt>
      <trkpt lat="43.31989" lon="5.66985">
        <ele>890</ele>
        <time>2019-11-29T14:05:40.000Z</time>
      </trkpt>
      <trkpt lat="43.3199" lon="5.66985">
        <ele>890</ele>
        <time>2019-11-29T14:05:41.000Z</time>
      </trkpt>
      <trkpt lat="43.3199" lon="5.66986">
        <ele>890</ele>
        <time>2019-11-29T14:05:42.000Z</time>
      </trkpt>
      <trkpt lat="43.31991" lon="5.66986">
        <ele>890</ele>
        <time>2019-11-29T14:05:43.000Z</time>
      </trkpt>
      <trkpt lat="43.31991" lon="5.66986">
        <ele>890</ele>
        <time>2019-11-29T14:05:44.000Z</time>
      </trkpt>
      <trkpt lat="43.31992" lon="5.66986">
        <ele>890</ele>
        <time>2019-11-29T14:05:45.000Z</time>
      </trkpt>
      <trkpt lat="43.31992" lon="5.66986">
        <ele>890</ele>
        <time>2019-11-29T14:05:46.000Z</time>
      </trkpt>
      <trkpt lat="43.31993" lon="5.66985">
        <ele>890</ele>
        <time>2019-11-29T14:05:47.000Z</time>
      </trkpt>
      <trkpt lat="43.31993" lon="5.66985">
        <ele>890</ele>
        <time>2019-11-29T14:05:48.000Z</time>
      </trkpt>
      <trkpt lat="43.31994" lon="5.66985">
        <ele>890</ele>
        <time>2019-11-29T14:05:49.000Z</time>
      </trkpt>
      <trkpt lat="43.31995" lon="5.66986">
        <ele>890</ele>
        <time>2019-11-29T14:05:50.000Z</time>
      </trkpt>
      <trkpt lat="43.31995" lon="5.66986">
        <ele>890</ele>
        <time>2019-11-29T14:05:51.000Z</time>
      </trkpt>
      <trkpt lat="43.31995" lon="5.66986">
        <ele>890</ele>
        <time>2019-11-29T14:05:52.000Z</time>
      </trkpt>
      <trkpt lat="43.31995" lon="5.66986">
        <ele>890</ele>
        <time>2019-11-29T14:05:53.000Z</time>
      </trkpt>
      <trkpt lat="43.31995" lon="5.66986">
        <ele>889</ele>
        <time>2019-11-29T14:05:54.000Z</time>
      </trkpt>
      <trkpt lat="43.31996" lon="5.66987">
        <ele>889</ele>
        <time>2019-11-29T14:05:55.000Z</time>
      </trkpt>
      <trkpt lat="43.31996" lon="5.66987">
        <ele>889</ele>
        <time>2019-11-29T14:05:56.000Z</time>
      </trkpt>
      <trkpt lat="43.31997" lon="5.66987">
        <ele>889</ele>
        <time>2019-11-29T14:05:57.000Z</time>
      </trkpt>
      <trkpt lat="43.31997" lon="5.66987">
        <ele>889</ele>
        <time>2019-11-29T14:05:58.000Z</time>
      </trkpt>
      <trkpt lat="43.31997" lon="5.66987">
        <ele>888</ele>
        <time>2019-11-29T14:05:59.000Z</time>
      </trkpt>
      <trkpt lat="43.31997" lon="5.66987">
        <ele>888</ele>
        <time>2019-11-29T14:06:00.000Z</time>
      </trkpt>
      <trkpt lat="43.31997" lon="5.66987">
        <ele>888</ele>
        <time>2019-11-29T14:06:01.000Z</time>
      </trkpt>
      <trkpt lat="43.31997" lon="5.66987">
        <ele>888</ele>
        <time>2019-11-29T14:06:02.000Z</time>
      </trkpt>
      <trkpt lat="43.31998" lon="5.66987">
        <ele>888</ele>
        <time>2019-11-29T14:06:03.000Z</time>
      </trkpt>
      <trkpt lat="43.31998" lon="5.66987">
        <ele>888</ele>
        <time>2019-11-29T14:06:04.000Z</time>
      </trkpt>
      <trkpt lat="43.31999" lon="5.66987">
        <ele>887</ele>
        <time>2019-11-29T14:06:05.000Z</time>
      </trkpt>
      <trkpt lat="43.31999" lon="5.66987">
        <ele>887</ele>
        <time>2019-11-29T14:06:06.000Z</time>
      </trkpt>
      <trkpt lat="43.32" lon="5.66987">
        <ele>887</ele>
        <time>2019-11-29T14:06:07.000Z</time>
      </trkpt>
      <trkpt lat="43.32" lon="5.66987">
        <ele>887</ele>
        <time>2019-11-29T14:06:08.000Z</time>
      </trkpt>
      <trkpt lat="43.32001" lon="5.66986">
        <ele>887</ele>
        <time>2019-11-29T14:06:09.000Z</time>
      </trkpt>
      <trkpt lat="43.32001" lon="5.66986">
        <ele>886</ele>
        <time>2019-11-29T14:06:10.000Z</time>
      </trkpt>
      <trkpt lat="43.32002" lon="5.66986">
        <ele>886</ele>
        <time>2019-11-29T14:06:11.000Z</time>
      </trkpt>
      <trkpt lat="43.32003" lon="5.66985">
        <ele>886</ele>
        <time>2019-11-29T14:06:12.000Z</time>
      </trkpt>
      <trkpt lat="43.32004" lon="5.66985">
        <ele>886</ele>
        <time>2019-11-29T14:06:13.000Z</time>
      </trkpt>
      <trkpt lat="43.32005" lon="5.66985">
        <ele>886</ele>
        <time>2019-11-29T14:06:14.000Z</time>
      </trkpt>
      <trkpt lat="43.32006" lon="5.66986">
        <ele>886</ele>
        <time>2019-11-29T14:06:15.000Z</time>
      </trkpt>
      <trkpt lat="43.32007" lon="5.66985">
        <ele>885</ele>
        <time>2019-11-29T14:06:16.000Z</time>
      </trkpt>
      <trkpt lat="43.32007" lon="5.66986">
        <ele>885</ele>
        <time>2019-11-29T14:06:17.000Z</time>
      </trkpt>
      <trkpt lat="43.32008" lon="5.66986">
        <ele>885</ele>
        <time>2019-11-29T14:06:18.000Z</time>
      </trkpt>
      <trkpt lat="43.32009" lon="5.66986">
        <ele>884</ele>
        <time>2019-11-29T14:06:19.000Z</time>
      </trkpt>
      <trkpt lat="43.32009" lon="5.66986">
        <ele>884</ele>
        <time>2019-11-29T14:06:20.000Z</time>
      </trkpt>
      <trkpt lat="43.3201" lon="5.66986">
        <ele>884</ele>
        <time>2019-11-29T14:06:21.000Z</time>
      </trkpt>
      <trkpt lat="43.3201" lon="5.66987">
        <ele>883</ele>
        <time>2019-11-29T14:06:22.000Z</time>
      </trkpt>
      <trkpt lat="43.32011" lon="5.66987">
        <ele>883</ele>
        <time>2019-11-29T14:06:23.000Z</time>
      </trkpt>
      <trkpt lat="43.32011" lon="5.66987">
        <ele>883</ele>
        <time>2019-11-29T14:06:24.000Z</time>
      </trkpt>
      <trkpt lat="43.32012" lon="5.66988">
        <ele>882</ele>
        <time>2019-11-29T14:06:25.000Z</time>
      </trkpt>
      <trkpt lat="43.32012" lon="5.66988">
        <ele>882</ele>
        <time>2019-11-29T14:06:26.000Z</time>
      </trkpt>
      <trkpt lat="43.32013" lon="5.66988">
        <ele>882</ele>
        <time>2019-11-29T14:06:27.000Z</time>
      </trkpt>
      <trkpt lat="43.32013" lon="5.66988">
        <ele>882</ele>
        <time>2019-11-29T14:06:28.000Z</time>
      </trkpt>
      <trkpt lat="43.32013" lon="5.66988">
        <ele>882</ele>
        <time>2019-11-29T14:06:29.000Z</time>
      </trkpt>
      <trkpt lat="43.32013" lon="5.66988">
        <ele>881</ele>
        <time>2019-11-29T14:06:30.000Z</time>
      </trkpt>
      <trkpt lat="43.32014" lon="5.66988">
        <ele>881</ele>
        <time>2019-11-29T14:06:31.000Z</time>
      </trkpt>
      <trkpt lat="43.32014" lon="5.66989">
        <ele>881</ele>
        <time>2019-11-29T14:06:32.000Z</time>
      </trkpt>
      <trkpt lat="43.32015" lon="5.66989">
        <ele>881</ele>
        <time>2019-11-29T14:06:33.000Z</time>
      </trkpt>
      <trkpt lat="43.32015" lon="5.66989">
        <ele>881</ele>
        <time>2019-11-29T14:06:34.000Z</time>
      </trkpt>
      <trkpt lat="43.32016" lon="5.6699">
        <ele>881</ele>
        <time>2019-11-29T14:06:35.000Z</time>
      </trkpt>
      <trkpt lat="43.32017" lon="5.6699">
        <ele>880</ele>
        <time>2019-11-29T14:06:36.000Z</time>
      </trkpt>
      <trkpt lat="43.32017" lon="5.6699">
        <ele>880</ele>
        <time>2019-11-29T14:06:37.000Z</time>
      </trkpt>
      <trkpt lat="43.32018" lon="5.6699">
        <ele>880</ele>
        <time>2019-11-29T14:06:38.000Z</time>
      </trkpt>
      <trkpt lat="43.32018" lon="5.6699">
        <ele>880</ele>
        <time>2019-11-29T14:06:39.000Z</time>
      </trkpt>
      <trkpt lat="43.32018" lon="5.6699">
        <ele>880</ele>
        <time>2019-11-29T14:06:40.000Z</time>
      </trkpt>
      <trkpt lat="43.32018" lon="5.6699">
        <ele>880</ele>
        <time>2019-11-29T14:06:41.000Z</time>
      </trkpt>
      <trkpt lat="43.32018" lon="5.66989">
        <ele>880</ele>
        <time>2019-11-29T14:06:42.000Z</time>
      </trkpt>
      <trkpt lat="43.32018" lon="5.66989">
        <ele>880</ele>
        <time>2019-11-29T14:06:43.000Z</time>
      </trkpt>
      <trkpt lat="43.32018" lon="5.66989">
        <ele>879</ele>
        <time>2019-11-29T14:06:44.000Z</time>
      </trkpt>
      <trkpt lat="43.32018" lon="5.66989">
        <ele>879</ele>
        <time>2019-11-29T14:06:45.000Z</time>
      </trkpt>
      <trkpt lat="43.32018" lon="5.66989">
        <ele>879</ele>
        <time>2019-11-29T14:06:46.000Z</time>
      </trkpt>
      <trkpt lat="43.32018" lon="5.66989">
        <ele>879</ele>
        <time>2019-11-29T14:06:47.000Z</time>
      </trkpt>
      <trkpt lat="43.32018" lon="5.66989">
        <ele>879</ele>
        <time>2019-11-29T14:06:48.000Z</time>
      </trkpt>
      <trkpt lat="43.32019" lon="5.66989">
        <ele>879</ele>
        <time>2019-11-29T14:06:49.000Z</time>
      </trkpt>
      <trkpt lat="43.32019" lon="5.66988">
        <ele>879</ele>
        <time>2019-11-29T14:06:50.000Z</time>
      </trkpt>
      <trkpt lat="43.32019" lon="5.66988">
        <ele>879</ele>
        <time>2019-11-29T14:06:51.000Z</time>
      </trkpt>
      <trkpt lat="43.32019" lon="5.66988">
        <ele>878</ele>
        <time>2019-11-29T14:06:52.000Z</time>
      </trkpt>
      <trkpt lat="43.32019" lon="5.66988">
        <ele>878</ele>
        <time>2019-11-29T14:06:53.000Z</time>
      </trkpt>
      <trkpt lat="43.32019" lon="5.66988">
        <ele>878</ele>
        <time>2019-11-29T14:06:54.000Z</time>
      </trkpt>
      <trkpt lat="43.32019" lon="5.66988">
        <ele>878</ele>
        <time>2019-11-29T14:06:55.000Z</time>
      </trkpt>
      <trkpt lat="43.32019" lon="5.66988">
        <ele>878</ele>
        <time>2019-11-29T14:06:56.000Z</time>
      </trkpt>
      <trkpt lat="43.32019" lon="5.66988">
        <ele>878</ele>
        <time>2019-11-29T14:06:57.000Z</time>
      </trkpt>
      <trkpt lat="43.32019" lon="5.66988">
        <ele>878</ele>
        <time>2019-11-29T14:06:58.000Z</time>
      </trkpt>
      <trkpt lat="43.32019" lon="5.66988">
        <ele>878</ele>
        <time>2019-11-29T14:06:59.000Z</time>
      </trkpt>
      <trkpt lat="43.32019" lon="5.66988">
        <ele>877</ele>
        <time>2019-11-29T14:07:00.000Z</time>
      </trkpt>
      <trkpt lat="43.32019" lon="5.66988">
        <ele>877</ele>
        <time>2019-11-29T14:07:01.000Z</time>
      </trkpt>
      <trkpt lat="43.32019" lon="5.66989">
        <ele>877</ele>
        <time>2019-11-29T14:07:02.000Z</time>
      </trkpt>
      <trkpt lat="43.32019" lon="5.66989">
        <ele>877</ele>
        <time>2019-11-29T14:07:03.000Z</time>
      </trkpt>
      <trkpt lat="43.3202" lon="5.66989">
        <ele>877</ele>
        <time>2019-11-29T14:07:04.000Z</time>
      </trkpt>
      <trkpt lat="43.3202" lon="5.66989">
        <ele>877</ele>
        <time>2019-11-29T14:07:05.000Z</time>
      </trkpt>
      <trkpt lat="43.32021" lon="5.66989">
        <ele>877</ele>
        <time>2019-11-29T14:07:06.000Z</time>
      </trkpt>
      <trkpt lat="43.32021" lon="5.66989">
        <ele>877</ele>
        <time>2019-11-29T14:07:07.000Z</time>
      </trkpt>
      <trkpt lat="43.32022" lon="5.66989">
        <ele>877</ele>
        <time>2019-11-29T14:07:08.000Z</time>
      </trkpt>
      <trkpt lat="43.32022" lon="5.66989">
        <ele>877</ele>
        <time>2019-11-29T14:07:09.000Z</time>
      </trkpt>
      <trkpt lat="43.32023" lon="5.66989">
        <ele>877</ele>
        <time>2019-11-29T14:07:10.000Z</time>
      </trkpt>
      <trkpt lat="43.32023" lon="5.66989">
        <ele>877</ele>
        <time>2019-11-29T14:07:11.000Z</time>
      </trkpt>
      <trkpt lat="43.32024" lon="5.66989">
        <ele>877</ele>
        <time>2019-11-29T14:07:12.000Z</time>
      </trkpt>
      <trkpt lat="43.32025" lon="5.66989">
        <ele>877</ele>
        <time>2019-11-29T14:07:13.000Z</time>
      </trkpt>
      <trkpt lat="43.32026" lon="5.66989">
        <ele>877</ele>
        <time>2019-11-29T14:07:14.000Z</time>
      </trkpt>
      <trkpt lat="43.32027" lon="5.66989">
        <ele>877</ele>
        <time>2019-11-29T14:07:15.000Z</time>
      </trkpt>
      <trkpt lat="43.32028" lon="5.66988">
        <ele>877</ele>
        <time>2019-11-29T14:07:16.000Z</time>
      </trkpt>
      <trkpt lat="43.32029" lon="5.66987">
        <ele>877</ele>
        <time>2019-11-29T14:07:17.000Z</time>
      </trkpt>
      <trkpt lat="43.3203" lon="5.66986">
        <ele>877</ele>
        <time>2019-11-29T14:07:18.000Z</time>
      </trkpt>
      <trkpt lat="43.32031" lon="5.66985">
        <ele>877</ele>
        <time>2019-11-29T14:07:19.000Z</time>
      </trkpt>
      <trkpt lat="43.32032" lon="5.66984">
        <ele>877</ele>
        <time>2019-11-29T14:07:20.000Z</time>
      </trkpt>
      <trkpt lat="43.32034" lon="5.66984">
        <ele>876</ele>
        <time>2019-11-29T14:07:21.000Z</time>
      </trkpt>
      <trkpt lat="43.32034" lon="5.66983">
        <ele>876</ele>
        <time>2019-11-29T14:07:22.000Z</time>
      </trkpt>
      <trkpt lat="43.32035" lon="5.66982">
        <ele>876</ele>
        <time>2019-11-29T14:07:23.000Z</time>
      </trkpt>
      <trkpt lat="43.32036" lon="5.66981">
        <ele>876</ele>
        <time>2019-11-29T14:07:24.000Z</time>
      </trkpt>
      <trkpt lat="43.32036" lon="5.6698">
        <ele>876</ele>
        <time>2019-11-29T14:07:25.000Z</time>
      </trkpt>
      <trkpt lat="43.32037" lon="5.66979">
        <ele>876</ele>
        <time>2019-11-29T14:07:26.000Z</time>
      </trkpt>
      <trkpt lat="43.32038" lon="5.66978">
        <ele>875</ele>
        <time>2019-11-29T14:07:27.000Z</time>
      </trkpt>
      <trkpt lat="43.32038" lon="5.66977">
        <ele>875</ele>
        <time>2019-11-29T14:07:28.000Z</time>
      </trkpt>
      <trkpt lat="43.32038" lon="5.66976">
        <ele>875</ele>
        <time>2019-11-29T14:07:29.000Z</time>
      </trkpt>
      <trkpt lat="43.32039" lon="5.66975">
        <ele>875</ele>
        <time>2019-11-29T14:07:30.000Z</time>
      </trkpt>
      <trkpt lat="43.32039" lon="5.66974">
        <ele>874</ele>
        <time>2019-11-29T14:07:31.000Z</time>
      </trkpt>
      <trkpt lat="43.32039" lon="5.66973">
        <ele>874</ele>
        <time>2019-11-29T14:07:32.000Z</time>
      </trkpt>
      <trkpt lat="43.3204" lon="5.66971">
        <ele>874</ele>
        <time>2019-11-29T14:07:33.000Z</time>
      </trkpt>
      <trkpt lat="43.3204" lon="5.6697">
        <ele>874</ele>
        <time>2019-11-29T14:07:34.000Z</time>
      </trkpt>
      <trkpt lat="43.3204" lon="5.6697">
        <ele>874</ele>
        <time>2019-11-29T14:07:35.000Z</time>
      </trkpt>
      <trkpt lat="43.3204" lon="5.66968">
        <ele>874</ele>
        <time>2019-11-29T14:07:36.000Z</time>
      </trkpt>
      <trkpt lat="43.3204" lon="5.66967">
        <ele>873</ele>
        <time>2019-11-29T14:07:37.000Z</time>
      </trkpt>
      <trkpt lat="43.3204" lon="5.66966">
        <ele>873</ele>
        <time>2019-11-29T14:07:38.000Z</time>
      </trkpt>
      <trkpt lat="43.32041" lon="5.66966">
        <ele>873</ele>
        <time>2019-11-29T14:07:39.000Z</time>
      </trkpt>
      <trkpt lat="43.32041" lon="5.66965">
        <ele>873</ele>
        <time>2019-11-29T14:07:40.000Z</time>
      </trkpt>
      <trkpt lat="43.32042" lon="5.66964">
        <ele>873</ele>
        <time>2019-11-29T14:07:41.000Z</time>
      </trkpt>
      <trkpt lat="43.32042" lon="5.66964">
        <ele>873</ele>
        <time>2019-11-29T14:07:42.000Z</time>
      </trkpt>
      <trkpt lat="43.32041" lon="5.66963">
        <ele>873</ele>
        <time>2019-11-29T14:07:43.000Z</time>
      </trkpt>
      <trkpt lat="43.32041" lon="5.66962">
        <ele>873</ele>
        <time>2019-11-29T14:07:44.000Z</time>
      </trkpt>
      <trkpt lat="43.32041" lon="5.66961">
        <ele>873</ele>
        <time>2019-11-29T14:07:45.000Z</time>
      </trkpt>
      <trkpt lat="43.32041" lon="5.66961">
        <ele>873</ele>
        <time>2019-11-29T14:07:46.000Z</time>
      </trkpt>
      <trkpt lat="43.32041" lon="5.66961">
        <ele>873</ele>
        <time>2019-11-29T14:07:47.000Z</time>
      </trkpt>
      <trkpt lat="43.32042" lon="5.66961">
        <ele>873</ele>
        <time>2019-11-29T14:07:48.000Z</time>
      </trkpt>
      <trkpt lat="43.32042" lon="5.66961">
        <ele>873</ele>
        <time>2019-11-29T14:07:49.000Z</time>
      </trkpt>
      <trkpt lat="43.32042" lon="5.66961">
        <ele>873</ele>
        <time>2019-11-29T14:07:50.000Z</time>
      </trkpt>
      <trkpt lat="43.32042" lon="5.66961">
        <ele>873</ele>
        <time>2019-11-29T14:07:51.000Z</time>
      </trkpt>
      <trkpt lat="43.32043" lon="5.66962">
        <ele>872</ele>
        <time>2019-11-29T14:07:52.000Z</time>
      </trkpt>
      <trkpt lat="43.32043" lon="5.66962">
        <ele>872</ele>
        <time>2019-11-29T14:07:53.000Z</time>
      </trkpt>
      <trkpt lat="43.32043" lon="5.66962">
        <ele>872</ele>
        <time>2019-11-29T14:07:54.000Z</time>
      </trkpt>
      <trkpt lat="43.32043" lon="5.66962">
        <ele>872</ele>
        <time>2019-11-29T14:07:55.000Z</time>
      </trkpt>
      <trkpt lat="43.32043" lon="5.66962">
        <ele>872</ele>
        <time>2019-11-29T14:07:56.000Z</time>
      </trkpt>
      <trkpt lat="43.32043" lon="5.66962">
        <ele>872</ele>
        <time>2019-11-29T14:07:57.000Z</time>
      </trkpt>
      <trkpt lat="43.32043" lon="5.66962">
        <ele>872</ele>
        <time>2019-11-29T14:07:58.000Z</time>
      </trkpt>
      <trkpt lat="43.32043" lon="5.66962">
        <ele>872</ele>
        <time>2019-11-29T14:07:59.000Z</time>
      </trkpt>
      <trkpt lat="43.32043" lon="5.66962">
        <ele>872</ele>
        <time>2019-11-29T14:08:00.000Z</time>
      </trkpt>
      <trkpt lat="43.32043" lon="5.66962">
        <ele>872</ele>
        <time>2019-11-29T14:08:01.000Z</time>
      </trkpt>
      <trkpt lat="43.32043" lon="5.66962">
        <ele>872</ele>
        <time>2019-11-29T14:08:02.000Z</time>
      </trkpt>
      <trkpt lat="43.32044" lon="5.66962">
        <ele>872</ele>
        <time>2019-11-29T14:08:03.000Z</time>
      </trkpt>
      <trkpt lat="43.32043" lon="5.66962">
        <ele>872</ele>
        <time>2019-11-29T14:08:04.000Z</time>
      </trkpt>
      <trkpt lat="43.32044" lon="5.66962">
        <ele>872</ele>
        <time>2019-11-29T14:08:05.000Z</time>
      </trkpt>
      <trkpt lat="43.32044" lon="5.66962">
        <ele>872</ele>
        <time>2019-11-29T14:08:06.000Z</time>
      </trkpt>
      <trkpt lat="43.32044" lon="5.66962">
        <ele>872</ele>
        <time>2019-11-29T14:08:07.000Z</time>
      </trkpt>
      <trkpt lat="43.32044" lon="5.66962">
        <ele>872</ele>
        <time>2019-11-29T14:08:08.000Z</time>
      </trkpt>
      <trkpt lat="43.32044" lon="5.66962">
        <ele>872</ele>
        <time>2019-11-29T14:08:09.000Z</time>
      </trkpt>
      <trkpt lat="43.32044" lon="5.66962">
        <ele>872</ele>
        <time>2019-11-29T14:08:10.000Z</time>
      </trkpt>
      <trkpt lat="43.32044" lon="5.66962">
        <ele>872</ele>
        <time>2019-11-29T14:08:11.000Z</time>
      </trkpt>
      <trkpt lat="43.32044" lon="5.66962">
        <ele>872</ele>
        <time>2019-11-29T14:08:12.000Z</time>
      </trkpt>
      <trkpt lat="43.32044" lon="5.66962">
        <ele>872</ele>
        <time>2019-11-29T14:08:13.000Z</time>
      </trkpt>
      <trkpt lat="43.32044" lon="5.66962">
        <ele>872</ele>
        <time>2019-11-29T14:08:14.000Z</time>
      </trkpt>
      <trkpt lat="43.32044" lon="5.66962">
        <ele>872</ele>
        <time>2019-11-29T14:08:15.000Z</time>
      </trkpt>
      <trkpt lat="43.32043" lon="5.66962">
        <ele>872</ele>
        <time>2019-11-29T14:08:16.000Z</time>
      </trkpt>
      <trkpt lat="43.32043" lon="5.66962">
        <ele>872</ele>
        <time>2019-11-29T14:08:17.000Z</time>
      </trkpt>
      <trkpt lat="43.32042" lon="5.66961">
        <ele>872</ele>
        <time>2019-11-29T14:08:18.000Z</time>
      </trkpt>
      <trkpt lat="43.32042" lon="5.66961">
        <ele>872</ele>
        <time>2019-11-29T14:08:19.000Z</time>
      </trkpt>
      <trkpt lat="43.32041" lon="5.66959">
        <ele>872</ele>
        <time>2019-11-29T14:08:20.000Z</time>
      </trkpt>
      <trkpt lat="43.3204" lon="5.66958">
        <ele>872</ele>
        <time>2019-11-29T14:08:21.000Z</time>
      </trkpt>
      <trkpt lat="43.32039" lon="5.66957">
        <ele>872</ele>
        <time>2019-11-29T14:08:22.000Z</time>
      </trkpt>
      <trkpt lat="43.32038" lon="5.66956">
        <ele>872</ele>
        <time>2019-11-29T14:08:23.000Z</time>
      </trkpt>
      <trkpt lat="43.32037" lon="5.66955">
        <ele>872</ele>
        <time>2019-11-29T14:08:24.000Z</time>
      </trkpt>
      <trkpt lat="43.32036" lon="5.66955">
        <ele>872</ele>
        <time>2019-11-29T14:08:25.000Z</time>
      </trkpt>
      <trkpt lat="43.32035" lon="5.66954">
        <ele>872</ele>
        <time>2019-11-29T14:08:26.000Z</time>
      </trkpt>
      <trkpt lat="43.32034" lon="5.66954">
        <ele>872</ele>
        <time>2019-11-29T14:08:27.000Z</time>
      </trkpt>
      <trkpt lat="43.32034" lon="5.66954">
        <ele>872</ele>
        <time>2019-11-29T14:08:28.000Z</time>
      </trkpt>
      <trkpt lat="43.32034" lon="5.66954">
        <ele>872</ele>
        <time>2019-11-29T14:08:29.000Z</time>
      </trkpt>
      <trkpt lat="43.32033" lon="5.66954">
        <ele>872</ele>
        <time>2019-11-29T14:08:30.000Z</time>
      </trkpt>
      <trkpt lat="43.32033" lon="5.66954">
        <ele>872</ele>
        <time>2019-11-29T14:08:31.000Z</time>
      </trkpt>
      <trkpt lat="43.32032" lon="5.66954">
        <ele>872</ele>
        <time>2019-11-29T14:08:32.000Z</time>
      </trkpt>
      <trkpt lat="43.32031" lon="5.66953">
        <ele>872</ele>
        <time>2019-11-29T14:08:33.000Z</time>
      </trkpt>
      <trkpt lat="43.3203" lon="5.66952">
        <ele>872</ele>
        <time>2019-11-29T14:08:34.000Z</time>
      </trkpt>
      <trkpt lat="43.3203" lon="5.66951">
        <ele>872</ele>
        <time>2019-11-29T14:08:35.000Z</time>
      </trkpt>
      <trkpt lat="43.32029" lon="5.6695">
        <ele>872</ele>
        <time>2019-11-29T14:08:36.000Z</time>
      </trkpt>
      <trkpt lat="43.32028" lon="5.6695">
        <ele>872</ele>
        <time>2019-11-29T14:08:37.000Z</time>
      </trkpt>
      <trkpt lat="43.32028" lon="5.66949">
        <ele>872</ele>
        <time>2019-11-29T14:08:38.000Z</time>
      </trkpt>
      <trkpt lat="43.32027" lon="5.66948">
        <ele>872</ele>
        <time>2019-11-29T14:08:39.000Z</time>
      </trkpt>
      <trkpt lat="43.32026" lon="5.66947">
        <ele>872</ele>
        <time>2019-11-29T14:08:40.000Z</time>
      </trkpt>
      <trkpt lat="43.32026" lon="5.66946">
        <ele>872</ele>
        <time>2019-11-29T14:08:41.000Z</time>
      </trkpt>
      <trkpt lat="43.32025" lon="5.66945">
        <ele>872</ele>
        <time>2019-11-29T14:08:42.000Z</time>
      </trkpt>
      <trkpt lat="43.32024" lon="5.66945">
        <ele>872</ele>
        <time>2019-11-29T14:08:43.000Z</time>
      </trkpt>
      <trkpt lat="43.32024" lon="5.66944">
        <ele>872</ele>
        <time>2019-11-29T14:08:44.000Z</time>
      </trkpt>
      <trkpt lat="43.32023" lon="5.66943">
        <ele>872</ele>
        <time>2019-11-29T14:08:45.000Z</time>
      </trkpt>
      <trkpt lat="43.32023" lon="5.66943">
        <ele>872</ele>
        <time>2019-11-29T14:08:46.000Z</time>
      </trkpt>
      <trkpt lat="43.32022" lon="5.66942">
        <ele>872</ele>
        <time>2019-11-29T14:08:47.000Z</time>
      </trkpt>
      <trkpt lat="43.32021" lon="5.66942">
        <ele>872</ele>
        <time>2019-11-29T14:08:48.000Z</time>
      </trkpt>
      <trkpt lat="43.3202" lon="5.66941">
        <ele>871</ele>
        <time>2019-11-29T14:08:49.000Z</time>
      </trkpt>
      <trkpt lat="43.3202" lon="5.66941">
        <ele>871</ele>
        <time>2019-11-29T14:08:50.000Z</time>
      </trkpt>
      <trkpt lat="43.32019" lon="5.6694">
        <ele>871</ele>
        <time>2019-11-29T14:08:51.000Z</time>
      </trkpt>
      <trkpt lat="43.32018" lon="5.66939">
        <ele>871</ele>
        <time>2019-11-29T14:08:52.000Z</time>
      </trkpt>
      <trkpt lat="43.32017" lon="5.66939">
        <ele>871</ele>
        <time>2019-11-29T14:08:53.000Z</time>
      </trkpt>
      <trkpt lat="43.32016" lon="5.66938">
        <ele>871</ele>
        <time>2019-11-29T14:08:54.000Z</time>
      </trkpt>
      <trkpt lat="43.32015" lon="5.66937">
        <ele>871</ele>
        <time>2019-11-29T14:08:55.000Z</time>
      </trkpt>
      <trkpt lat="43.32015" lon="5.66937">
        <ele>871</ele>
        <time>2019-11-29T14:08:56.000Z</time>
      </trkpt>
      <trkpt lat="43.32014" lon="5.66936">
        <ele>872</ele>
        <time>2019-11-29T14:08:57.000Z</time>
      </trkpt>
      <trkpt lat="43.32013" lon="5.66935">
        <ele>872</ele>
        <time>2019-11-29T14:08:58.000Z</time>
      </trkpt>
      <trkpt lat="43.32013" lon="5.66935">
        <ele>872</ele>
        <time>2019-11-29T14:08:59.000Z</time>
      </trkpt>
      <trkpt lat="43.32012" lon="5.66934">
        <ele>872</ele>
        <time>2019-11-29T14:09:00.000Z</time>
      </trkpt>
      <trkpt lat="43.32012" lon="5.66933">
        <ele>872</ele>
        <time>2019-11-29T14:09:01.000Z</time>
      </trkpt>
      <trkpt lat="43.32011" lon="5.66933">
        <ele>872</ele>
        <time>2019-11-29T14:09:02.000Z</time>
      </trkpt>
      <trkpt lat="43.3201" lon="5.66932">
        <ele>872</ele>
        <time>2019-11-29T14:09:03.000Z</time>
      </trkpt>
      <trkpt lat="43.3201" lon="5.66932">
        <ele>872</ele>
        <time>2019-11-29T14:09:04.000Z</time>
      </trkpt>
      <trkpt lat="43.32009" lon="5.66932">
        <ele>872</ele>
        <time>2019-11-29T14:09:05.000Z</time>
      </trkpt>
      <trkpt lat="43.32009" lon="5.66932">
        <ele>872</ele>
        <time>2019-11-29T14:09:06.000Z</time>
      </trkpt>
      <trkpt lat="43.32009" lon="5.66932">
        <ele>871</ele>
        <time>2019-11-29T14:09:07.000Z</time>
      </trkpt>
      <trkpt lat="43.32009" lon="5.66932">
        <ele>871</ele>
        <time>2019-11-29T14:09:08.000Z</time>
      </trkpt>
      <trkpt lat="43.32009" lon="5.66932">
        <ele>871</ele>
        <time>2019-11-29T14:09:09.000Z</time>
      </trkpt>
      <trkpt lat="43.32009" lon="5.66932">
        <ele>871</ele>
        <time>2019-11-29T14:09:10.000Z</time>
      </trkpt>
      <trkpt lat="43.32009" lon="5.66932">
        <ele>871</ele>
        <time>2019-11-29T14:09:11.000Z</time>
      </trkpt>
      <trkpt lat="43.32008" lon="5.66932">
        <ele>871</ele>
        <time>2019-11-29T14:09:12.000Z</time>
      </trkpt>
      <trkpt lat="43.32008" lon="5.66932">
        <ele>871</ele>
        <time>2019-11-29T14:09:13.000Z</time>
      </trkpt>
      <trkpt lat="43.32008" lon="5.66932">
        <ele>871</ele>
        <time>2019-11-29T14:09:14.000Z</time>
      </trkpt>
      <trkpt lat="43.32007" lon="5.66932">
        <ele>871</ele>
        <time>2019-11-29T14:09:15.000Z</time>
      </trkpt>
      <trkpt lat="43.32007" lon="5.66931">
        <ele>871</ele>
        <time>2019-11-29T14:09:16.000Z</time>
      </trkpt>
      <trkpt lat="43.32006" lon="5.66931">
        <ele>870</ele>
        <time>2019-11-29T14:09:17.000Z</time>
      </trkpt>
      <trkpt lat="43.32006" lon="5.6693">
        <ele>870</ele>
        <time>2019-11-29T14:09:18.000Z</time>
      </trkpt>
      <trkpt lat="43.32005" lon="5.6693">
        <ele>870</ele>
        <time>2019-11-29T14:09:19.000Z</time>
      </trkpt>
      <trkpt lat="43.32004" lon="5.66929">
        <ele>870</ele>
        <time>2019-11-29T14:09:20.000Z</time>
      </trkpt>
      <trkpt lat="43.32004" lon="5.66929">
        <ele>870</ele>
        <time>2019-11-29T14:09:21.000Z</time>
      </trkpt>
      <trkpt lat="43.32003" lon="5.66928">
        <ele>870</ele>
        <time>2019-11-29T14:09:22.000Z</time>
      </trkpt>
      <trkpt lat="43.32002" lon="5.66928">
        <ele>870</ele>
        <time>2019-11-29T14:09:23.000Z</time>
      </trkpt>
      <trkpt lat="43.32001" lon="5.66927">
        <ele>870</ele>
        <time>2019-11-29T14:09:24.000Z</time>
      </trkpt>
      <trkpt lat="43.32" lon="5.66927">
        <ele>869</ele>
        <time>2019-11-29T14:09:25.000Z</time>
      </trkpt>
      <trkpt lat="43.31999" lon="5.66926">
        <ele>869</ele>
        <time>2019-11-29T14:09:26.000Z</time>
      </trkpt>
      <trkpt lat="43.31997" lon="5.66925">
        <ele>869</ele>
        <time>2019-11-29T14:09:27.000Z</time>
      </trkpt>
      <trkpt lat="43.31996" lon="5.66925">
        <ele>869</ele>
        <time>2019-11-29T14:09:28.000Z</time>
      </trkpt>
      <trkpt lat="43.31995" lon="5.66924">
        <ele>869</ele>
        <time>2019-11-29T14:09:29.000Z</time>
      </trkpt>
      <trkpt lat="43.31995" lon="5.66924">
        <ele>869</ele>
        <time>2019-11-29T14:09:30.000Z</time>
      </trkpt>
      <trkpt lat="43.31993" lon="5.66923">
        <ele>869</ele>
        <time>2019-11-29T14:09:31.000Z</time>
      </trkpt>
      <trkpt lat="43.31992" lon="5.66923">
        <ele>869</ele>
        <time>2019-11-29T14:09:32.000Z</time>
      </trkpt>
      <trkpt lat="43.31991" lon="5.66922">
        <ele>869</ele>
        <time>2019-11-29T14:09:33.000Z</time>
      </trkpt>
      <trkpt lat="43.3199" lon="5.66922">
        <ele>869</ele>
        <time>2019-11-29T14:09:34.000Z</time>
      </trkpt>
      <trkpt lat="43.3199" lon="5.66921">
        <ele>869</ele>
        <time>2019-11-29T14:09:35.000Z</time>
      </trkpt>
      <trkpt lat="43.31989" lon="5.6692">
        <ele>869</ele>
        <time>2019-11-29T14:09:36.000Z</time>
      </trkpt>
      <trkpt lat="43.31989" lon="5.6692">
        <ele>869</ele>
        <time>2019-11-29T14:09:37.000Z</time>
      </trkpt>
      <trkpt lat="43.31988" lon="5.66919">
        <ele>869</ele>
        <time>2019-11-29T14:09:38.000Z</time>
      </trkpt>
      <trkpt lat="43.31987" lon="5.66919">
        <ele>869</ele>
        <time>2019-11-29T14:09:39.000Z</time>
      </trkpt>
      <trkpt lat="43.31987" lon="5.66919">
        <ele>869</ele>
        <time>2019-11-29T14:09:40.000Z</time>
      </trkpt>
      <trkpt lat="43.31987" lon="5.66919">
        <ele>869</ele>
        <time>2019-11-29T14:09:41.000Z</time>
      </trkpt>
      <trkpt lat="43.31987" lon="5.66919">
        <ele>869</ele>
        <time>2019-11-29T14:09:42.000Z</time>
      </trkpt>
      <trkpt lat="43.31987" lon="5.66919">
        <ele>869</ele>
        <time>2019-11-29T14:09:43.000Z</time>
      </trkpt>
      <trkpt lat="43.31986" lon="5.66919">
        <ele>869</ele>
        <time>2019-11-29T14:09:44.000Z</time>
      </trkpt>
      <trkpt lat="43.31986" lon="5.66918">
        <ele>869</ele>
        <time>2019-11-29T14:09:45.000Z</time>
      </trkpt>
      <trkpt lat="43.31985" lon="5.66917">
        <ele>869</ele>
        <time>2019-11-29T14:09:46.000Z</time>
      </trkpt>
      <trkpt lat="43.31984" lon="5.66917">
        <ele>869</ele>
        <time>2019-11-29T14:09:47.000Z</time>
      </trkpt>
      <trkpt lat="43.31984" lon="5.66916">
        <ele>869</ele>
        <time>2019-11-29T14:09:48.000Z</time>
      </trkpt>
      <trkpt lat="43.31983" lon="5.66915">
        <ele>869</ele>
        <time>2019-11-29T14:09:49.000Z</time>
      </trkpt>
      <trkpt lat="43.31982" lon="5.66915">
        <ele>869</ele>
        <time>2019-11-29T14:09:50.000Z</time>
      </trkpt>
      <trkpt lat="43.31981" lon="5.66914">
        <ele>869</ele>
        <time>2019-11-29T14:09:51.000Z</time>
      </trkpt>
      <trkpt lat="43.31981" lon="5.66913">
        <ele>869</ele>
        <time>2019-11-29T14:09:52.000Z</time>
      </trkpt>
      <trkpt lat="43.3198" lon="5.66912">
        <ele>869</ele>
        <time>2019-11-29T14:09:53.000Z</time>
      </trkpt>
      <trkpt lat="43.3198" lon="5.66912">
        <ele>869</ele>
        <time>2019-11-29T14:09:54.000Z</time>
      </trkpt>
      <trkpt lat="43.31979" lon="5.66911">
        <ele>869</ele>
        <time>2019-11-29T14:09:55.000Z</time>
      </trkpt>
      <trkpt lat="43.31979" lon="5.66911">
        <ele>869</ele>
        <time>2019-11-29T14:09:56.000Z</time>
      </trkpt>
      <trkpt lat="43.31978" lon="5.6691">
        <ele>869</ele>
        <time>2019-11-29T14:09:57.000Z</time>
      </trkpt>
      <trkpt lat="43.31978" lon="5.6691">
        <ele>869</ele>
        <time>2019-11-29T14:09:58.000Z</time>
      </trkpt>
      <trkpt lat="43.31977" lon="5.6691">
        <ele>869</ele>
        <time>2019-11-29T14:09:59.000Z</time>
      </trkpt>
      <trkpt lat="43.31977" lon="5.6691">
        <ele>869</ele>
        <time>2019-11-29T14:10:00.000Z</time>
      </trkpt>
      <trkpt lat="43.31977" lon="5.6691">
        <ele>869</ele>
        <time>2019-11-29T14:10:01.000Z</time>
      </trkpt>
      <trkpt lat="43.31977" lon="5.6691">
        <ele>869</ele>
        <time>2019-11-29T14:10:02.000Z</time>
      </trkpt>
      <trkpt lat="43.31977" lon="5.6691">
        <ele>869</ele>
        <time>2019-11-29T14:10:03.000Z</time>
      </trkpt>
      <trkpt lat="43.31977" lon="5.66911">
        <ele>869</ele>
        <time>2019-11-29T14:10:04.000Z</time>
      </trkpt>
      <trkpt lat="43.31977" lon="5.66911">
        <ele>869</ele>
        <time>2019-11-29T14:10:05.000Z</time>
      </trkpt>
      <trkpt lat="43.31977" lon="5.6691">
        <ele>869</ele>
        <time>2019-11-29T14:10:06.000Z</time>
      </trkpt>
      <trkpt lat="43.31976" lon="5.6691">
        <ele>868</ele>
        <time>2019-11-29T14:10:07.000Z</time>
      </trkpt>
      <trkpt lat="43.31976" lon="5.66909">
        <ele>868</ele>
        <time>2019-11-29T14:10:08.000Z</time>
      </trkpt>
      <trkpt lat="43.31975" lon="5.66908">
        <ele>868</ele>
        <time>2019-11-29T14:10:09.000Z</time>
      </trkpt>
      <trkpt lat="43.31975" lon="5.66908">
        <ele>868</ele>
        <time>2019-11-29T14:10:10.000Z</time>
      </trkpt>
      <trkpt lat="43.31975" lon="5.66907">
        <ele>868</ele>
        <time>2019-11-29T14:10:11.000Z</time>
      </trkpt>
      <trkpt lat="43.31974" lon="5.66907">
        <ele>868</ele>
        <time>2019-11-29T14:10:12.000Z</time>
      </trkpt>
      <trkpt lat="43.31974" lon="5.66907">
        <ele>868</ele>
        <time>2019-11-29T14:10:13.000Z</time>
      </trkpt>
      <trkpt lat="43.31974" lon="5.66906">
        <ele>868</ele>
        <time>2019-11-29T14:10:14.000Z</time>
      </trkpt>
      <trkpt lat="43.31973" lon="5.66906">
        <ele>867</ele>
        <time>2019-11-29T14:10:15.000Z</time>
      </trkpt>
      <trkpt lat="43.31972" lon="5.66905">
        <ele>867</ele>
        <time>2019-11-29T14:10:16.000Z</time>
      </trkpt>
      <trkpt lat="43.31972" lon="5.66904">
        <ele>867</ele>
        <time>2019-11-29T14:10:17.000Z</time>
      </trkpt>
      <trkpt lat="43.31971" lon="5.66903">
        <ele>867</ele>
        <time>2019-11-29T14:10:18.000Z</time>
      </trkpt>
      <trkpt lat="43.3197" lon="5.66902">
        <ele>867</ele>
        <time>2019-11-29T14:10:19.000Z</time>
      </trkpt>
      <trkpt lat="43.31969" lon="5.66901">
        <ele>867</ele>
        <time>2019-11-29T14:10:20.000Z</time>
      </trkpt>
      <trkpt lat="43.31968" lon="5.66901">
        <ele>867</ele>
        <time>2019-11-29T14:10:21.000Z</time>
      </trkpt>
      <trkpt lat="43.31967" lon="5.669">
        <ele>867</ele>
        <time>2019-11-29T14:10:22.000Z</time>
      </trkpt>
      <trkpt lat="43.31966" lon="5.669">
        <ele>866</ele>
        <time>2019-11-29T14:10:23.000Z</time>
      </trkpt>
      <trkpt lat="43.31965" lon="5.669">
        <ele>866</ele>
        <time>2019-11-29T14:10:24.000Z</time>
      </trkpt>
      <trkpt lat="43.31964" lon="5.66899">
        <ele>866</ele>
        <time>2019-11-29T14:10:25.000Z</time>
      </trkpt>
      <trkpt lat="43.31963" lon="5.66899">
        <ele>866</ele>
        <time>2019-11-29T14:10:26.000Z</time>
      </trkpt>
      <trkpt lat="43.31962" lon="5.66899">
        <ele>866</ele>
        <time>2019-11-29T14:10:27.000Z</time>
      </trkpt>
      <trkpt lat="43.31961" lon="5.66899">
        <ele>866</ele>
        <time>2019-11-29T14:10:28.000Z</time>
      </trkpt>
      <trkpt lat="43.3196" lon="5.66899">
        <ele>866</ele>
        <time>2019-11-29T14:10:29.000Z</time>
      </trkpt>
      <trkpt lat="43.31959" lon="5.66899">
        <ele>865</ele>
        <time>2019-11-29T14:10:30.000Z</time>
      </trkpt>
      <trkpt lat="43.31958" lon="5.66899">
        <ele>865</ele>
        <time>2019-11-29T14:10:31.000Z</time>
      </trkpt>
      <trkpt lat="43.31958" lon="5.66899">
        <ele>865</ele>
        <time>2019-11-29T14:10:32.000Z</time>
      </trkpt>
      <trkpt lat="43.31957" lon="5.66898">
        <ele>865</ele>
        <time>2019-11-29T14:10:33.000Z</time>
      </trkpt>
      <trkpt lat="43.31957" lon="5.66898">
        <ele>864</ele>
        <time>2019-11-29T14:10:34.000Z</time>
      </trkpt>
      <trkpt lat="43.31956" lon="5.66898">
        <ele>864</ele>
        <time>2019-11-29T14:10:35.000Z</time>
      </trkpt>
      <trkpt lat="43.31955" lon="5.66897">
        <ele>864</ele>
        <time>2019-11-29T14:10:36.000Z</time>
      </trkpt>
      <trkpt lat="43.31954" lon="5.66897">
        <ele>863</ele>
        <time>2019-11-29T14:10:37.000Z</time>
      </trkpt>
      <trkpt lat="43.31954" lon="5.66897">
        <ele>863</ele>
        <time>2019-11-29T14:10:38.000Z</time>
      </trkpt>
      <trkpt lat="43.31953" lon="5.66897">
        <ele>863</ele>
        <time>2019-11-29T14:10:39.000Z</time>
      </trkpt>
      <trkpt lat="43.31952" lon="5.66896">
        <ele>863</ele>
        <time>2019-11-29T14:10:40.000Z</time>
      </trkpt>
      <trkpt lat="43.31952" lon="5.66896">
        <ele>863</ele>
        <time>2019-11-29T14:10:41.000Z</time>
      </trkpt>
      <trkpt lat="43.31951" lon="5.66895">
        <ele>863</ele>
        <time>2019-11-29T14:10:42.000Z</time>
      </trkpt>
      <trkpt lat="43.3195" lon="5.66895">
        <ele>862</ele>
        <time>2019-11-29T14:10:43.000Z</time>
      </trkpt>
      <trkpt lat="43.31949" lon="5.66894">
        <ele>862</ele>
        <time>2019-11-29T14:10:44.000Z</time>
      </trkpt>
      <trkpt lat="43.31948" lon="5.66894">
        <ele>862</ele>
        <time>2019-11-29T14:10:45.000Z</time>
      </trkpt>
      <trkpt lat="43.31948" lon="5.66894">
        <ele>862</ele>
        <time>2019-11-29T14:10:46.000Z</time>
      </trkpt>
      <trkpt lat="43.31947" lon="5.66894">
        <ele>862</ele>
        <time>2019-11-29T14:10:47.000Z</time>
      </trkpt>
      <trkpt lat="43.31946" lon="5.66894">
        <ele>862</ele>
        <time>2019-11-29T14:10:48.000Z</time>
      </trkpt>
      <trkpt lat="43.31945" lon="5.66894">
        <ele>862</ele>
        <time>2019-11-29T14:10:49.000Z</time>
      </trkpt>
      <trkpt lat="43.31944" lon="5.66893">
        <ele>862</ele>
        <time>2019-11-29T14:10:50.000Z</time>
      </trkpt>
      <trkpt lat="43.31943" lon="5.66893">
        <ele>862</ele>
        <time>2019-11-29T14:10:51.000Z</time>
      </trkpt>
      <trkpt lat="43.31942" lon="5.66893">
        <ele>862</ele>
        <time>2019-11-29T14:10:52.000Z</time>
      </trkpt>
      <trkpt lat="43.31941" lon="5.66892">
        <ele>862</ele>
        <time>2019-11-29T14:10:53.000Z</time>
      </trkpt>
      <trkpt lat="43.3194" lon="5.66892">
        <ele>862</ele>
        <time>2019-11-29T14:10:54.000Z</time>
      </trkpt>
      <trkpt lat="43.3194" lon="5.66891">
        <ele>861</ele>
        <time>2019-11-29T14:10:55.000Z</time>
      </trkpt>
      <trkpt lat="43.3194" lon="5.66891">
        <ele>861</ele>
        <time>2019-11-29T14:10:56.000Z</time>
      </trkpt>
      <trkpt lat="43.31939" lon="5.66891">
        <ele>862</ele>
        <time>2019-11-29T14:10:57.000Z</time>
      </trkpt>
      <trkpt lat="43.31939" lon="5.6689">
        <ele>862</ele>
        <time>2019-11-29T14:10:58.000Z</time>
      </trkpt>
      <trkpt lat="43.31938" lon="5.66889">
        <ele>862</ele>
        <time>2019-11-29T14:10:59.000Z</time>
      </trkpt>
      <trkpt lat="43.31938" lon="5.66887">
        <ele>862</ele>
        <time>2019-11-29T14:11:00.000Z</time>
      </trkpt>
      <trkpt lat="43.31937" lon="5.66885">
        <ele>862</ele>
        <time>2019-11-29T14:11:01.000Z</time>
      </trkpt>
      <trkpt lat="43.31936" lon="5.66884">
        <ele>862</ele>
        <time>2019-11-29T14:11:02.000Z</time>
      </trkpt>
      <trkpt lat="43.31935" lon="5.66883">
        <ele>862</ele>
        <time>2019-11-29T14:11:03.000Z</time>
      </trkpt>
      <trkpt lat="43.31934" lon="5.66882">
        <ele>862</ele>
        <time>2019-11-29T14:11:04.000Z</time>
      </trkpt>
      <trkpt lat="43.31933" lon="5.6688">
        <ele>862</ele>
        <time>2019-11-29T14:11:05.000Z</time>
      </trkpt>
      <trkpt lat="43.31933" lon="5.66879">
        <ele>862</ele>
        <time>2019-11-29T14:11:06.000Z</time>
      </trkpt>
      <trkpt lat="43.31932" lon="5.66878">
        <ele>862</ele>
        <time>2019-11-29T14:11:07.000Z</time>
      </trkpt>
      <trkpt lat="43.31931" lon="5.66877">
        <ele>862</ele>
        <time>2019-11-29T14:11:08.000Z</time>
      </trkpt>
      <trkpt lat="43.31931" lon="5.66876">
        <ele>862</ele>
        <time>2019-11-29T14:11:09.000Z</time>
      </trkpt>
      <trkpt lat="43.3193" lon="5.66875">
        <ele>862</ele>
        <time>2019-11-29T14:11:10.000Z</time>
      </trkpt>
      <trkpt lat="43.3193" lon="5.66874">
        <ele>862</ele>
        <time>2019-11-29T14:11:11.000Z</time>
      </trkpt>
      <trkpt lat="43.31929" lon="5.66873">
        <ele>862</ele>
        <time>2019-11-29T14:11:12.000Z</time>
      </trkpt>
      <trkpt lat="43.31929" lon="5.66873">
        <ele>862</ele>
        <time>2019-11-29T14:11:13.000Z</time>
      </trkpt>
      <trkpt lat="43.31928" lon="5.66872">
        <ele>862</ele>
        <time>2019-11-29T14:11:14.000Z</time>
      </trkpt>
      <trkpt lat="43.31927" lon="5.66872">
        <ele>862</ele>
        <time>2019-11-29T14:11:15.000Z</time>
      </trkpt>
      <trkpt lat="43.31927" lon="5.66872">
        <ele>862</ele>
        <time>2019-11-29T14:11:16.000Z</time>
      </trkpt>
      <trkpt lat="43.31926" lon="5.66872">
        <ele>862</ele>
        <time>2019-11-29T14:11:17.000Z</time>
      </trkpt>
      <trkpt lat="43.31926" lon="5.66871">
        <ele>862</ele>
        <time>2019-11-29T14:11:18.000Z</time>
      </trkpt>
      <trkpt lat="43.31925" lon="5.66871">
        <ele>862</ele>
        <time>2019-11-29T14:11:19.000Z</time>
      </trkpt>
      <trkpt lat="43.31925" lon="5.66871">
        <ele>862</ele>
        <time>2019-11-29T14:11:20.000Z</time>
      </trkpt>
      <trkpt lat="43.31924" lon="5.6687">
        <ele>862</ele>
        <time>2019-11-29T14:11:21.000Z</time>
      </trkpt>
      <trkpt lat="43.31924" lon="5.6687">
        <ele>862</ele>
        <time>2019-11-29T14:11:22.000Z</time>
      </trkpt>
      <trkpt lat="43.31923" lon="5.6687">
        <ele>861</ele>
        <time>2019-11-29T14:11:23.000Z</time>
      </trkpt>
      <trkpt lat="43.31923" lon="5.6687">
        <ele>861</ele>
        <time>2019-11-29T14:11:24.000Z</time>
      </trkpt>
      <trkpt lat="43.31923" lon="5.6687">
        <ele>861</ele>
        <time>2019-11-29T14:11:25.000Z</time>
      </trkpt>
      <trkpt lat="43.31923" lon="5.66869">
        <ele>861</ele>
        <time>2019-11-29T14:11:26.000Z</time>
      </trkpt>
      <trkpt lat="43.31922" lon="5.66868">
        <ele>861</ele>
        <time>2019-11-29T14:11:27.000Z</time>
      </trkpt>
      <trkpt lat="43.31922" lon="5.66868">
        <ele>861</ele>
        <time>2019-11-29T14:11:28.000Z</time>
      </trkpt>
      <trkpt lat="43.31921" lon="5.66867">
        <ele>861</ele>
        <time>2019-11-29T14:11:29.000Z</time>
      </trkpt>
      <trkpt lat="43.31921" lon="5.66866">
        <ele>860</ele>
        <time>2019-11-29T14:11:30.000Z</time>
      </trkpt>
      <trkpt lat="43.3192" lon="5.66865">
        <ele>860</ele>
        <time>2019-11-29T14:11:31.000Z</time>
      </trkpt>
      <trkpt lat="43.3192" lon="5.66865">
        <ele>860</ele>
        <time>2019-11-29T14:11:32.000Z</time>
      </trkpt>
      <trkpt lat="43.31919" lon="5.66864">
        <ele>860</ele>
        <time>2019-11-29T14:11:33.000Z</time>
      </trkpt>
      <trkpt lat="43.31918" lon="5.66863">
        <ele>860</ele>
        <time>2019-11-29T14:11:34.000Z</time>
      </trkpt>
      <trkpt lat="43.31918" lon="5.66862">
        <ele>860</ele>
        <time>2019-11-29T14:11:35.000Z</time>
      </trkpt>
      <trkpt lat="43.31917" lon="5.66861">
        <ele>859</ele>
        <time>2019-11-29T14:11:36.000Z</time>
      </trkpt>
      <trkpt lat="43.31916" lon="5.6686">
        <ele>859</ele>
        <time>2019-11-29T14:11:37.000Z</time>
      </trkpt>
      <trkpt lat="43.31916" lon="5.66859">
        <ele>859</ele>
        <time>2019-11-29T14:11:38.000Z</time>
      </trkpt>
      <trkpt lat="43.31915" lon="5.66858">
        <ele>859</ele>
        <time>2019-11-29T14:11:39.000Z</time>
      </trkpt>
      <trkpt lat="43.31914" lon="5.66858">
        <ele>859</ele>
        <time>2019-11-29T14:11:40.000Z</time>
      </trkpt>
      <trkpt lat="43.31913" lon="5.66857">
        <ele>859</ele>
        <time>2019-11-29T14:11:41.000Z</time>
      </trkpt>
      <trkpt lat="43.31912" lon="5.66857">
        <ele>858</ele>
        <time>2019-11-29T14:11:42.000Z</time>
      </trkpt>
      <trkpt lat="43.31912" lon="5.66856">
        <ele>858</ele>
        <time>2019-11-29T14:11:43.000Z</time>
      </trkpt>
      <trkpt lat="43.31911" lon="5.66856">
        <ele>858</ele>
        <time>2019-11-29T14:11:44.000Z</time>
      </trkpt>
      <trkpt lat="43.31911" lon="5.66855">
        <ele>858</ele>
        <time>2019-11-29T14:11:45.000Z</time>
      </trkpt>
      <trkpt lat="43.31911" lon="5.66855">
        <ele>858</ele>
        <time>2019-11-29T14:11:46.000Z</time>
      </trkpt>
      <trkpt lat="43.31911" lon="5.66854">
        <ele>857</ele>
        <time>2019-11-29T14:11:47.000Z</time>
      </trkpt>
      <trkpt lat="43.31911" lon="5.66853">
        <ele>857</ele>
        <time>2019-11-29T14:11:48.000Z</time>
      </trkpt>
      <trkpt lat="43.3191" lon="5.66853">
        <ele>857</ele>
        <time>2019-11-29T14:11:49.000Z</time>
      </trkpt>
      <trkpt lat="43.3191" lon="5.66852">
        <ele>857</ele>
        <time>2019-11-29T14:11:50.000Z</time>
      </trkpt>
      <trkpt lat="43.31909" lon="5.66851">
        <ele>857</ele>
        <time>2019-11-29T14:11:51.000Z</time>
      </trkpt>
      <trkpt lat="43.31909" lon="5.66851">
        <ele>856</ele>
        <time>2019-11-29T14:11:52.000Z</time>
      </trkpt>
      <trkpt lat="43.31908" lon="5.6685">
        <ele>856</ele>
        <time>2019-11-29T14:11:53.000Z</time>
      </trkpt>
      <trkpt lat="43.31908" lon="5.6685">
        <ele>856</ele>
        <time>2019-11-29T14:11:54.000Z</time>
      </trkpt>
      <trkpt lat="43.31907" lon="5.66849">
        <ele>856</ele>
        <time>2019-11-29T14:11:55.000Z</time>
      </trkpt>
      <trkpt lat="43.31907" lon="5.66849">
        <ele>856</ele>
        <time>2019-11-29T14:11:56.000Z</time>
      </trkpt>
      <trkpt lat="43.31907" lon="5.66849">
        <ele>856</ele>
        <time>2019-11-29T14:11:57.000Z</time>
      </trkpt>
      <trkpt lat="43.31907" lon="5.66849">
        <ele>856</ele>
        <time>2019-11-29T14:11:58.000Z</time>
      </trkpt>
      <trkpt lat="43.31907" lon="5.66849">
        <ele>856</ele>
        <time>2019-11-29T14:11:59.000Z</time>
      </trkpt>
      <trkpt lat="43.31907" lon="5.66849">
        <ele>855</ele>
        <time>2019-11-29T14:12:00.000Z</time>
      </trkpt>
      <trkpt lat="43.31906" lon="5.66849">
        <ele>855</ele>
        <time>2019-11-29T14:12:01.000Z</time>
      </trkpt>
      <trkpt lat="43.31906" lon="5.66849">
        <ele>855</ele>
        <time>2019-11-29T14:12:02.000Z</time>
      </trkpt>
      <trkpt lat="43.31906" lon="5.66849">
        <ele>855</ele>
        <time>2019-11-29T14:12:03.000Z</time>
      </trkpt>
      <trkpt lat="43.31906" lon="5.66849">
        <ele>855</ele>
        <time>2019-11-29T14:12:04.000Z</time>
      </trkpt>
      <trkpt lat="43.31906" lon="5.66849">
        <ele>855</ele>
        <time>2019-11-29T14:12:05.000Z</time>
      </trkpt>
      <trkpt lat="43.31906" lon="5.66849">
        <ele>855</ele>
        <time>2019-11-29T14:12:06.000Z</time>
      </trkpt>
      <trkpt lat="43.31906" lon="5.66849">
        <ele>855</ele>
        <time>2019-11-29T14:12:07.000Z</time>
      </trkpt>
      <trkpt lat="43.31906" lon="5.66849">
        <ele>855</ele>
        <time>2019-11-29T14:12:08.000Z</time>
      </trkpt>
      <trkpt lat="43.31906" lon="5.66849">
        <ele>855</ele>
        <time>2019-11-29T14:12:09.000Z</time>
      </trkpt>
      <trkpt lat="43.31906" lon="5.66849">
        <ele>855</ele>
        <time>2019-11-29T14:12:10.000Z</time>
      </trkpt>
      <trkpt lat="43.31906" lon="5.66849">
        <ele>855</ele>
        <time>2019-11-29T14:12:11.000Z</time>
      </trkpt>
      <trkpt lat="43.31906" lon="5.66848">
        <ele>854</ele>
        <time>2019-11-29T14:12:12.000Z</time>
      </trkpt>
      <trkpt lat="43.31906" lon="5.66848">
        <ele>854</ele>
        <time>2019-11-29T14:12:13.000Z</time>
      </trkpt>
      <trkpt lat="43.31906" lon="5.66848">
        <ele>854</ele>
        <time>2019-11-29T14:12:14.000Z</time>
      </trkpt>
      <trkpt lat="43.31906" lon="5.66848">
        <ele>854</ele>
        <time>2019-11-29T14:12:15.000Z</time>
      </trkpt>
      <trkpt lat="43.31906" lon="5.66848">
        <ele>854</ele>
        <time>2019-11-29T14:12:16.000Z</time>
      </trkpt>
      <trkpt lat="43.31906" lon="5.66849">
        <ele>854</ele>
        <time>2019-11-29T14:12:17.000Z</time>
      </trkpt>
      <trkpt lat="43.31906" lon="5.66849">
        <ele>854</ele>
        <time>2019-11-29T14:12:18.000Z</time>
      </trkpt>
      <trkpt lat="43.31906" lon="5.66849">
        <ele>854</ele>
        <time>2019-11-29T14:12:19.000Z</time>
      </trkpt>
      <trkpt lat="43.31906" lon="5.66848">
        <ele>854</ele>
        <time>2019-11-29T14:12:20.000Z</time>
      </trkpt>
      <trkpt lat="43.31905" lon="5.66848">
        <ele>853</ele>
        <time>2019-11-29T14:12:21.000Z</time>
      </trkpt>
      <trkpt lat="43.31905" lon="5.66848">
        <ele>853</ele>
        <time>2019-11-29T14:12:22.000Z</time>
      </trkpt>
      <trkpt lat="43.31904" lon="5.66847">
        <ele>853</ele>
        <time>2019-11-29T14:12:23.000Z</time>
      </trkpt>
      <trkpt lat="43.31904" lon="5.66847">
        <ele>853</ele>
        <time>2019-11-29T14:12:24.000Z</time>
      </trkpt>
      <trkpt lat="43.31903" lon="5.66847">
        <ele>852</ele>
        <time>2019-11-29T14:12:25.000Z</time>
      </trkpt>
      <trkpt lat="43.31902" lon="5.66847">
        <ele>852</ele>
        <time>2019-11-29T14:12:26.000Z</time>
      </trkpt>
      <trkpt lat="43.31902" lon="5.66847">
        <ele>852</ele>
        <time>2019-11-29T14:12:27.000Z</time>
      </trkpt>
      <trkpt lat="43.31901" lon="5.66847">
        <ele>851</ele>
        <time>2019-11-29T14:12:28.000Z</time>
      </trkpt>
      <trkpt lat="43.319" lon="5.66847">
        <ele>851</ele>
        <time>2019-11-29T14:12:29.000Z</time>
      </trkpt>
      <trkpt lat="43.319" lon="5.66847">
        <ele>851</ele>
        <time>2019-11-29T14:12:30.000Z</time>
      </trkpt>
      <trkpt lat="43.31899" lon="5.66846">
        <ele>851</ele>
        <time>2019-11-29T14:12:31.000Z</time>
      </trkpt>
      <trkpt lat="43.31899" lon="5.66846">
        <ele>851</ele>
        <time>2019-11-29T14:12:32.000Z</time>
      </trkpt>
      <trkpt lat="43.31899" lon="5.66846">
        <ele>851</ele>
        <time>2019-11-29T14:12:33.000Z</time>
      </trkpt>
      <trkpt lat="43.31898" lon="5.66846">
        <ele>851</ele>
        <time>2019-11-29T14:12:34.000Z</time>
      </trkpt>
      <trkpt lat="43.31898" lon="5.66846">
        <ele>850</ele>
        <time>2019-11-29T14:12:35.000Z</time>
      </trkpt>
      <trkpt lat="43.31897" lon="5.66846">
        <ele>850</ele>
        <time>2019-11-29T14:12:36.000Z</time>
      </trkpt>
      <trkpt lat="43.31897" lon="5.66846">
        <ele>850</ele>
        <time>2019-11-29T14:12:37.000Z</time>
      </trkpt>
      <trkpt lat="43.31896" lon="5.66846">
        <ele>850</ele>
        <time>2019-11-29T14:12:38.000Z</time>
      </trkpt>
      <trkpt lat="43.31896" lon="5.66847">
        <ele>850</ele>
        <time>2019-11-29T14:12:39.000Z</time>
      </trkpt>
      <trkpt lat="43.31896" lon="5.66847">
        <ele>850</ele>
        <time>2019-11-29T14:12:40.000Z</time>
      </trkpt>
      <trkpt lat="43.31895" lon="5.66847">
        <ele>850</ele>
        <time>2019-11-29T14:12:41.000Z</time>
      </trkpt>
      <trkpt lat="43.31895" lon="5.66848">
        <ele>850</ele>
        <time>2019-11-29T14:12:42.000Z</time>
      </trkpt>
      <trkpt lat="43.31895" lon="5.66848">
        <ele>850</ele>
        <time>2019-11-29T14:12:43.000Z</time>
      </trkpt>
      <trkpt lat="43.31895" lon="5.66848">
        <ele>850</ele>
        <time>2019-11-29T14:12:44.000Z</time>
      </trkpt>
      <trkpt lat="43.31894" lon="5.66848">
        <ele>850</ele>
        <time>2019-11-29T14:12:45.000Z</time>
      </trkpt>
      <trkpt lat="43.31894" lon="5.66847">
        <ele>850</ele>
        <time>2019-11-29T14:12:46.000Z</time>
      </trkpt>
      <trkpt lat="43.31894" lon="5.66847">
        <ele>850</ele>
        <time>2019-11-29T14:12:47.000Z</time>
      </trkpt>
      <trkpt lat="43.31893" lon="5.66847">
        <ele>850</ele>
        <time>2019-11-29T14:12:48.000Z</time>
      </trkpt>
      <trkpt lat="43.31893" lon="5.66847">
        <ele>850</ele>
        <time>2019-11-29T14:12:49.000Z</time>
      </trkpt>
      <trkpt lat="43.31892" lon="5.66847">
        <ele>850</ele>
        <time>2019-11-29T14:12:50.000Z</time>
      </trkpt>
      <trkpt lat="43.31892" lon="5.66847">
        <ele>850</ele>
        <time>2019-11-29T14:12:51.000Z</time>
      </trkpt>
      <trkpt lat="43.31892" lon="5.66847">
        <ele>850</ele>
        <time>2019-11-29T14:12:52.000Z</time>
      </trkpt>
      <trkpt lat="43.31891" lon="5.66847">
        <ele>850</ele>
        <time>2019-11-29T14:12:53.000Z</time>
      </trkpt>
      <trkpt lat="43.31891" lon="5.66847">
        <ele>850</ele>
        <time>2019-11-29T14:12:54.000Z</time>
      </trkpt>
      <trkpt lat="43.31891" lon="5.66848">
        <ele>850</ele>
        <time>2019-11-29T14:12:55.000Z</time>
      </trkpt>
      <trkpt lat="43.31891" lon="5.66848">
        <ele>850</ele>
        <time>2019-11-29T14:12:56.000Z</time>
      </trkpt>
      <trkpt lat="43.31891" lon="5.66848">
        <ele>850</ele>
        <time>2019-11-29T14:12:57.000Z</time>
      </trkpt>
      <trkpt lat="43.31891" lon="5.66848">
        <ele>850</ele>
        <time>2019-11-29T14:12:58.000Z</time>
      </trkpt>
      <trkpt lat="43.31891" lon="5.66848">
        <ele>850</ele>
        <time>2019-11-29T14:12:59.000Z</time>
      </trkpt>
      <trkpt lat="43.31891" lon="5.66848">
        <ele>850</ele>
        <time>2019-11-29T14:13:00.000Z</time>
      </trkpt>
      <trkpt lat="43.31891" lon="5.66848">
        <ele>850</ele>
        <time>2019-11-29T14:13:01.000Z</time>
      </trkpt>
      <trkpt lat="43.3189" lon="5.66848">
        <ele>850</ele>
        <time>2019-11-29T14:13:02.000Z</time>
      </trkpt>
      <trkpt lat="43.3189" lon="5.66848">
        <ele>850</ele>
        <time>2019-11-29T14:13:03.000Z</time>
      </trkpt>
      <trkpt lat="43.31889" lon="5.66848">
        <ele>850</ele>
        <time>2019-11-29T14:13:04.000Z</time>
      </trkpt>
      <trkpt lat="43.31888" lon="5.66848">
        <ele>850</ele>
        <time>2019-11-29T14:13:05.000Z</time>
      </trkpt>
      <trkpt lat="43.31887" lon="5.66848">
        <ele>850</ele>
        <time>2019-11-29T14:13:06.000Z</time>
      </trkpt>
      <trkpt lat="43.31886" lon="5.66848">
        <ele>850</ele>
        <time>2019-11-29T14:13:07.000Z</time>
      </trkpt>
      <trkpt lat="43.31885" lon="5.66849">
        <ele>850</ele>
        <time>2019-11-29T14:13:08.000Z</time>
      </trkpt>
      <trkpt lat="43.31884" lon="5.66849">
        <ele>850</ele>
        <time>2019-11-29T14:13:09.000Z</time>
      </trkpt>
      <trkpt lat="43.31883" lon="5.66849">
        <ele>850</ele>
        <time>2019-11-29T14:13:10.000Z</time>
      </trkpt>
      <trkpt lat="43.31882" lon="5.66849">
        <ele>850</ele>
        <time>2019-11-29T14:13:11.000Z</time>
      </trkpt>
      <trkpt lat="43.31881" lon="5.66849">
        <ele>850</ele>
        <time>2019-11-29T14:13:12.000Z</time>
      </trkpt>
      <trkpt lat="43.3188" lon="5.66849">
        <ele>850</ele>
        <time>2019-11-29T14:13:13.000Z</time>
      </trkpt>
      <trkpt lat="43.31879" lon="5.66849">
        <ele>850</ele>
        <time>2019-11-29T14:13:14.000Z</time>
      </trkpt>
      <trkpt lat="43.31878" lon="5.66848">
        <ele>850</ele>
        <time>2019-11-29T14:13:15.000Z</time>
      </trkpt>
      <trkpt lat="43.31878" lon="5.66848">
        <ele>850</ele>
        <time>2019-11-29T14:13:16.000Z</time>
      </trkpt>
      <trkpt lat="43.31876" lon="5.66848">
        <ele>850</ele>
        <time>2019-11-29T14:13:17.000Z</time>
      </trkpt>
      <trkpt lat="43.31875" lon="5.66847">
        <ele>850</ele>
        <time>2019-11-29T14:13:18.000Z</time>
      </trkpt>
      <trkpt lat="43.31874" lon="5.66846">
        <ele>850</ele>
        <time>2019-11-29T14:13:19.000Z</time>
      </trkpt>
      <trkpt lat="43.31873" lon="5.66846">
        <ele>850</ele>
        <time>2019-11-29T14:13:20.000Z</time>
      </trkpt>
      <trkpt lat="43.31871" lon="5.66845">
        <ele>850</ele>
        <time>2019-11-29T14:13:21.000Z</time>
      </trkpt>
      <trkpt lat="43.3187" lon="5.66845">
        <ele>850</ele>
        <time>2019-11-29T14:13:22.000Z</time>
      </trkpt>
      <trkpt lat="43.31869" lon="5.66844">
        <ele>850</ele>
        <time>2019-11-29T14:13:23.000Z</time>
      </trkpt>
      <trkpt lat="43.31868" lon="5.66843">
        <ele>850</ele>
        <time>2019-11-29T14:13:24.000Z</time>
      </trkpt>
      <trkpt lat="43.31867" lon="5.66842">
        <ele>850</ele>
        <time>2019-11-29T14:13:25.000Z</time>
      </trkpt>
      <trkpt lat="43.31866" lon="5.66842">
        <ele>850</ele>
        <time>2019-11-29T14:13:26.000Z</time>
      </trkpt>
      <trkpt lat="43.31865" lon="5.66841">
        <ele>850</ele>
        <time>2019-11-29T14:13:27.000Z</time>
      </trkpt>
      <trkpt lat="43.31864" lon="5.66841">
        <ele>850</ele>
        <time>2019-11-29T14:13:28.000Z</time>
      </trkpt>
      <trkpt lat="43.31864" lon="5.6684">
        <ele>850</ele>
        <time>2019-11-29T14:13:29.000Z</time>
      </trkpt>
      <trkpt lat="43.31863" lon="5.66839">
        <ele>850</ele>
        <time>2019-11-29T14:13:30.000Z</time>
      </trkpt>
      <trkpt lat="43.31863" lon="5.66838">
        <ele>850</ele>
        <time>2019-11-29T14:13:31.000Z</time>
      </trkpt>
      <trkpt lat="43.31863" lon="5.66838">
        <ele>850</ele>
        <time>2019-11-29T14:13:32.000Z</time>
      </trkpt>
      <trkpt lat="43.31862" lon="5.66837">
        <ele>850</ele>
        <time>2019-11-29T14:13:33.000Z</time>
      </trkpt>
      <trkpt lat="43.31862" lon="5.66836">
        <ele>850</ele>
        <time>2019-11-29T14:13:34.000Z</time>
      </trkpt>
      <trkpt lat="43.31862" lon="5.66836">
        <ele>850</ele>
        <time>2019-11-29T14:13:35.000Z</time>
      </trkpt>
      <trkpt lat="43.31862" lon="5.66835">
        <ele>850</ele>
        <time>2019-11-29T14:13:36.000Z</time>
      </trkpt>
      <trkpt lat="43.31861" lon="5.66834">
        <ele>850</ele>
        <time>2019-11-29T14:13:37.000Z</time>
      </trkpt>
      <trkpt lat="43.31861" lon="5.66834">
        <ele>850</ele>
        <time>2019-11-29T14:13:38.000Z</time>
      </trkpt>
      <trkpt lat="43.31861" lon="5.66833">
        <ele>850</ele>
        <time>2019-11-29T14:13:39.000Z</time>
      </trkpt>
      <trkpt lat="43.31861" lon="5.66832">
        <ele>850</ele>
        <time>2019-11-29T14:13:40.000Z</time>
      </trkpt>
      <trkpt lat="43.31861" lon="5.66831">
        <ele>850</ele>
        <time>2019-11-29T14:13:41.000Z</time>
      </trkpt>
      <trkpt lat="43.31861" lon="5.6683">
        <ele>850</ele>
        <time>2019-11-29T14:13:42.000Z</time>
      </trkpt>
      <trkpt lat="43.31861" lon="5.66829">
        <ele>850</ele>
        <time>2019-11-29T14:13:43.000Z</time>
      </trkpt>
      <trkpt lat="43.3186" lon="5.66829">
        <ele>850</ele>
        <time>2019-11-29T14:13:44.000Z</time>
      </trkpt>
      <trkpt lat="43.3186" lon="5.66828">
        <ele>850</ele>
        <time>2019-11-29T14:13:45.000Z</time>
      </trkpt>
      <trkpt lat="43.3186" lon="5.66827">
        <ele>850</ele>
        <time>2019-11-29T14:13:46.000Z</time>
      </trkpt>
      <trkpt lat="43.3186" lon="5.66827">
        <ele>850</ele>
        <time>2019-11-29T14:13:47.000Z</time>
      </trkpt>
      <trkpt lat="43.3186" lon="5.66827">
        <ele>850</ele>
        <time>2019-11-29T14:13:48.000Z</time>
      </trkpt>
      <trkpt lat="43.3186" lon="5.66826">
        <ele>850</ele>
        <time>2019-11-29T14:13:49.000Z</time>
      </trkpt>
      <trkpt lat="43.3186" lon="5.66826">
        <ele>850</ele>
        <time>2019-11-29T14:13:50.000Z</time>
      </trkpt>
      <trkpt lat="43.3186" lon="5.66826">
        <ele>850</ele>
        <time>2019-11-29T14:13:51.000Z</time>
      </trkpt>
      <trkpt lat="43.3186" lon="5.66826">
        <ele>850</ele>
        <time>2019-11-29T14:13:52.000Z</time>
      </trkpt>
      <trkpt lat="43.3186" lon="5.66826">
        <ele>850</ele>
        <time>2019-11-29T14:13:53.000Z</time>
      </trkpt>
      <trkpt lat="43.3186" lon="5.66826">
        <ele>850</ele>
        <time>2019-11-29T14:13:54.000Z</time>
      </trkpt>
      <trkpt lat="43.3186" lon="5.66826">
        <ele>850</ele>
        <time>2019-11-29T14:13:55.000Z</time>
      </trkpt>
      <trkpt lat="43.31859" lon="5.66826">
        <ele>850</ele>
        <time>2019-11-29T14:13:56.000Z</time>
      </trkpt>
      <trkpt lat="43.31859" lon="5.66825">
        <ele>850</ele>
        <time>2019-11-29T14:13:57.000Z</time>
      </trkpt>
      <trkpt lat="43.31859" lon="5.66825">
        <ele>849</ele>
        <time>2019-11-29T14:13:58.000Z</time>
      </trkpt>
      <trkpt lat="43.31859" lon="5.66824">
        <ele>849</ele>
        <time>2019-11-29T14:13:59.000Z</time>
      </trkpt>
      <trkpt lat="43.31858" lon="5.66824">
        <ele>849</ele>
        <time>2019-11-29T14:14:00.000Z</time>
      </trkpt>
      <trkpt lat="43.31858" lon="5.66824">
        <ele>849</ele>
        <time>2019-11-29T14:14:01.000Z</time>
      </trkpt>
      <trkpt lat="43.31858" lon="5.66824">
        <ele>849</ele>
        <time>2019-11-29T14:14:02.000Z</time>
      </trkpt>
      <trkpt lat="43.31858" lon="5.66823">
        <ele>849</ele>
        <time>2019-11-29T14:14:03.000Z</time>
      </trkpt>
      <trkpt lat="43.31857" lon="5.66823">
        <ele>849</ele>
        <time>2019-11-29T14:14:04.000Z</time>
      </trkpt>
      <trkpt lat="43.31857" lon="5.66823">
        <ele>849</ele>
        <time>2019-11-29T14:14:05.000Z</time>
      </trkpt>
      <trkpt lat="43.31856" lon="5.66822">
        <ele>849</ele>
        <time>2019-11-29T14:14:06.000Z</time>
      </trkpt>
      <trkpt lat="43.31856" lon="5.66822">
        <ele>849</ele>
        <time>2019-11-29T14:14:07.000Z</time>
      </trkpt>
      <trkpt lat="43.31856" lon="5.66822">
        <ele>850</ele>
        <time>2019-11-29T14:14:08.000Z</time>
      </trkpt>
      <trkpt lat="43.31856" lon="5.66821">
        <ele>850</ele>
        <time>2019-11-29T14:14:09.000Z</time>
      </trkpt>
      <trkpt lat="43.31856" lon="5.66821">
        <ele>850</ele>
        <time>2019-11-29T14:14:10.000Z</time>
      </trkpt>
      <trkpt lat="43.31856" lon="5.66821">
        <ele>850</ele>
        <time>2019-11-29T14:14:11.000Z</time>
      </trkpt>
      <trkpt lat="43.31856" lon="5.66821">
        <ele>850</ele>
        <time>2019-11-29T14:14:12.000Z</time>
      </trkpt>
      <trkpt lat="43.31856" lon="5.66821">
        <ele>850</ele>
        <time>2019-11-29T14:14:13.000Z</time>
      </trkpt>
      <trkpt lat="43.31856" lon="5.66821">
        <ele>850</ele>
        <time>2019-11-29T14:14:14.000Z</time>
      </trkpt>
      <trkpt lat="43.31856" lon="5.6682">
        <ele>850</ele>
        <time>2019-11-29T14:14:15.000Z</time>
      </trkpt>
      <trkpt lat="43.31856" lon="5.6682">
        <ele>850</ele>
        <time>2019-11-29T14:14:16.000Z</time>
      </trkpt>
      <trkpt lat="43.31856" lon="5.6682">
        <ele>850</ele>
        <time>2019-11-29T14:14:17.000Z</time>
      </trkpt>
      <trkpt lat="43.31856" lon="5.6682">
        <ele>850</ele>
        <time>2019-11-29T14:14:18.000Z</time>
      </trkpt>
      <trkpt lat="43.31856" lon="5.6682">
        <ele>850</ele>
        <time>2019-11-29T14:14:19.000Z</time>
      </trkpt>
      <trkpt lat="43.31856" lon="5.6682">
        <ele>850</ele>
        <time>2019-11-29T14:14:20.000Z</time>
      </trkpt>
      <trkpt lat="43.31855" lon="5.6682">
        <ele>850</ele>
        <time>2019-11-29T14:14:21.000Z</time>
      </trkpt>
      <trkpt lat="43.31855" lon="5.6682">
        <ele>850</ele>
        <time>2019-11-29T14:14:22.000Z</time>
      </trkpt>
      <trkpt lat="43.31855" lon="5.6682">
        <ele>850</ele>
        <time>2019-11-29T14:14:23.000Z</time>
      </trkpt>
      <trkpt lat="43.31855" lon="5.66819">
        <ele>850</ele>
        <time>2019-11-29T14:14:24.000Z</time>
      </trkpt>
      <trkpt lat="43.31855" lon="5.66819">
        <ele>850</ele>
        <time>2019-11-29T14:14:25.000Z</time>
      </trkpt>
      <trkpt lat="43.31855" lon="5.66819">
        <ele>850</ele>
        <time>2019-11-29T14:14:26.000Z</time>
      </trkpt>
      <trkpt lat="43.31855" lon="5.66819">
        <ele>849</ele>
        <time>2019-11-29T14:14:27.000Z</time>
      </trkpt>
      <trkpt lat="43.31855" lon="5.66819">
        <ele>849</ele>
        <time>2019-11-29T14:14:28.000Z</time>
      </trkpt>
      <trkpt lat="43.31855" lon="5.66819">
        <ele>849</ele>
        <time>2019-11-29T14:14:29.000Z</time>
      </trkpt>
      <trkpt lat="43.31855" lon="5.66819">
        <ele>849</ele>
        <time>2019-11-29T14:14:30.000Z</time>
      </trkpt>
      <trkpt lat="43.31855" lon="5.66819">
        <ele>849</ele>
        <time>2019-11-29T14:14:31.000Z</time>
      </trkpt>
      <trkpt lat="43.31855" lon="5.66819">
        <ele>849</ele>
        <time>2019-11-29T14:14:32.000Z</time>
      </trkpt>
      <trkpt lat="43.31855" lon="5.66819">
        <ele>849</ele>
        <time>2019-11-29T14:14:33.000Z</time>
      </trkpt>
      <trkpt lat="43.31855" lon="5.66819">
        <ele>849</ele>
        <time>2019-11-29T14:14:34.000Z</time>
      </trkpt>
      <trkpt lat="43.31855" lon="5.66819">
        <ele>849</ele>
        <time>2019-11-29T14:14:35.000Z</time>
      </trkpt>
      <trkpt lat="43.31855" lon="5.66819">
        <ele>849</ele>
        <time>2019-11-29T14:14:36.000Z</time>
      </trkpt>
      <trkpt lat="43.31855" lon="5.66818">
        <ele>849</ele>
        <time>2019-11-29T14:14:37.000Z</time>
      </trkpt>
      <trkpt lat="43.31855" lon="5.66818">
        <ele>849</ele>
        <time>2019-11-29T14:14:38.000Z</time>
      </trkpt>
      <trkpt lat="43.31855" lon="5.66818">
        <ele>849</ele>
        <time>2019-11-29T14:14:39.000Z</time>
      </trkpt>
      <trkpt lat="43.31855" lon="5.66818">
        <ele>849</ele>
        <time>2019-11-29T14:14:40.000Z</time>
      </trkpt>
      <trkpt lat="43.31855" lon="5.66818">
        <ele>849</ele>
        <time>2019-11-29T14:14:41.000Z</time>
      </trkpt>
      <trkpt lat="43.31855" lon="5.66817">
        <ele>849</ele>
        <time>2019-11-29T14:14:42.000Z</time>
      </trkpt>
      <trkpt lat="43.31855" lon="5.66817">
        <ele>849</ele>
        <time>2019-11-29T14:14:43.000Z</time>
      </trkpt>
      <trkpt lat="43.31855" lon="5.66817">
        <ele>849</ele>
        <time>2019-11-29T14:14:44.000Z</time>
      </trkpt>
      <trkpt lat="43.31854" lon="5.66817">
        <ele>849</ele>
        <time>2019-11-29T14:14:45.000Z</time>
      </trkpt>
      <trkpt lat="43.31854" lon="5.66817">
        <ele>849</ele>
        <time>2019-11-29T14:14:46.000Z</time>
      </trkpt>
      <trkpt lat="43.31854" lon="5.66817">
        <ele>849</ele>
        <time>2019-11-29T14:14:47.000Z</time>
      </trkpt>
      <trkpt lat="43.31854" lon="5.66817">
        <ele>849</ele>
        <time>2019-11-29T14:14:48.000Z</time>
      </trkpt>
      <trkpt lat="43.31855" lon="5.66817">
        <ele>849</ele>
        <time>2019-11-29T14:14:49.000Z</time>
      </trkpt>
      <trkpt lat="43.31855" lon="5.66817">
        <ele>849</ele>
        <time>2019-11-29T14:14:50.000Z</time>
      </trkpt>
      <trkpt lat="43.31855" lon="5.66817">
        <ele>849</ele>
        <time>2019-11-29T14:14:51.000Z</time>
      </trkpt>
      <trkpt lat="43.31855" lon="5.66817">
        <ele>849</ele>
        <time>2019-11-29T14:14:52.000Z</time>
      </trkpt>
      <trkpt lat="43.31855" lon="5.66817">
        <ele>849</ele>
        <time>2019-11-29T14:14:53.000Z</time>
      </trkpt>
      <trkpt lat="43.31855" lon="5.66817">
        <ele>849</ele>
        <time>2019-11-29T14:14:54.000Z</time>
      </trkpt>
      <trkpt lat="43.31855" lon="5.66817">
        <ele>849</ele>
        <time>2019-11-29T14:14:55.000Z</time>
      </trkpt>
      <trkpt lat="43.31855" lon="5.66817">
        <ele>849</ele>
        <time>2019-11-29T14:14:56.000Z</time>
      </trkpt>
      <trkpt lat="43.31855" lon="5.66816">
        <ele>849</ele>
        <time>2019-11-29T14:14:57.000Z</time>
      </trkpt>
      <trkpt lat="43.31855" lon="5.66816">
        <ele>849</ele>
        <time>2019-11-29T14:14:58.000Z</time>
      </trkpt>
      <trkpt lat="43.31855" lon="5.66817">
        <ele>849</ele>
        <time>2019-11-29T14:14:59.000Z</time>
      </trkpt>
      <trkpt lat="43.31855" lon="5.66816">
        <ele>849</ele>
        <time>2019-11-29T14:15:00.000Z</time>
      </trkpt>
      <trkpt lat="43.31855" lon="5.66816">
        <ele>849</ele>
        <time>2019-11-29T14:15:01.000Z</time>
      </trkpt>
      <trkpt lat="43.31855" lon="5.66816">
        <ele>849</ele>
        <time>2019-11-29T14:15:02.000Z</time>
      </trkpt>
      <trkpt lat="43.31855" lon="5.66816">
        <ele>849</ele>
        <time>2019-11-29T14:15:03.000Z</time>
      </trkpt>
      <trkpt lat="43.31855" lon="5.66816">
        <ele>849</ele>
        <time>2019-11-29T14:15:04.000Z</time>
      </trkpt>
      <trkpt lat="43.31855" lon="5.66816">
        <ele>849</ele>
        <time>2019-11-29T14:15:05.000Z</time>
      </trkpt>
      <trkpt lat="43.31855" lon="5.66816">
        <ele>849</ele>
        <time>2019-11-29T14:15:06.000Z</time>
      </trkpt>
      <trkpt lat="43.31855" lon="5.66816">
        <ele>849</ele>
        <time>2019-11-29T14:15:07.000Z</time>
      </trkpt>
      <trkpt lat="43.31855" lon="5.66815">
        <ele>848</ele>
        <time>2019-11-29T14:15:08.000Z</time>
      </trkpt>
      <trkpt lat="43.31855" lon="5.66815">
        <ele>848</ele>
        <time>2019-11-29T14:15:09.000Z</time>
      </trkpt>
      <trkpt lat="43.31855" lon="5.66815">
        <ele>848</ele>
        <time>2019-11-29T14:15:10.000Z</time>
      </trkpt>
      <trkpt lat="43.31855" lon="5.66815">
        <ele>848</ele>
        <time>2019-11-29T14:15:11.000Z</time>
      </trkpt>
      <trkpt lat="43.31855" lon="5.66815">
        <ele>848</ele>
        <time>2019-11-29T14:15:12.000Z</time>
      </trkpt>
      <trkpt lat="43.31856" lon="5.66815">
        <ele>848</ele>
        <time>2019-11-29T14:15:13.000Z</time>
      </trkpt>
      <trkpt lat="43.31856" lon="5.66815">
        <ele>848</ele>
        <time>2019-11-29T14:15:14.000Z</time>
      </trkpt>
      <trkpt lat="43.31856" lon="5.66815">
        <ele>848</ele>
        <time>2019-11-29T14:15:15.000Z</time>
      </trkpt>
      <trkpt lat="43.31856" lon="5.66814">
        <ele>848</ele>
        <time>2019-11-29T14:15:16.000Z</time>
      </trkpt>
      <trkpt lat="43.31856" lon="5.66814">
        <ele>847</ele>
        <time>2019-11-29T14:15:17.000Z</time>
      </trkpt>
      <trkpt lat="43.31857" lon="5.66814">
        <ele>847</ele>
        <time>2019-11-29T14:15:18.000Z</time>
      </trkpt>
      <trkpt lat="43.31856" lon="5.66814">
        <ele>847</ele>
        <time>2019-11-29T14:15:19.000Z</time>
      </trkpt>
      <trkpt lat="43.31856" lon="5.66814">
        <ele>847</ele>
        <time>2019-11-29T14:15:20.000Z</time>
      </trkpt>
      <trkpt lat="43.31857" lon="5.66814">
        <ele>847</ele>
        <time>2019-11-29T14:15:21.000Z</time>
      </trkpt>
      <trkpt lat="43.31856" lon="5.66813">
        <ele>847</ele>
        <time>2019-11-29T14:15:22.000Z</time>
      </trkpt>
      <trkpt lat="43.31856" lon="5.66813">
        <ele>847</ele>
        <time>2019-11-29T14:15:23.000Z</time>
      </trkpt>
      <trkpt lat="43.31856" lon="5.66813">
        <ele>847</ele>
        <time>2019-11-29T14:15:24.000Z</time>
      </trkpt>
      <trkpt lat="43.31856" lon="5.66813">
        <ele>847</ele>
        <time>2019-11-29T14:15:25.000Z</time>
      </trkpt>
      <trkpt lat="43.31856" lon="5.66813">
        <ele>847</ele>
        <time>2019-11-29T14:15:26.000Z</time>
      </trkpt>
      <trkpt lat="43.31856" lon="5.66813">
        <ele>847</ele>
        <time>2019-11-29T14:15:27.000Z</time>
      </trkpt>
      <trkpt lat="43.31856" lon="5.66813">
        <ele>847</ele>
        <time>2019-11-29T14:15:28.000Z</time>
      </trkpt>
      <trkpt lat="43.31856" lon="5.66813">
        <ele>847</ele>
        <time>2019-11-29T14:15:29.000Z</time>
      </trkpt>
      <trkpt lat="43.31856" lon="5.66813">
        <ele>847</ele>
        <time>2019-11-29T14:15:30.000Z</time>
      </trkpt>
      <trkpt lat="43.31856" lon="5.66813">
        <ele>847</ele>
        <time>2019-11-29T14:15:31.000Z</time>
      </trkpt>
      <trkpt lat="43.31856" lon="5.66813">
        <ele>847</ele>
        <time>2019-11-29T14:15:32.000Z</time>
      </trkpt>
      <trkpt lat="43.31856" lon="5.66813">
        <ele>847</ele>
        <time>2019-11-29T14:15:33.000Z</time>
      </trkpt>
      <trkpt lat="43.31856" lon="5.66813">
        <ele>847</ele>
        <time>2019-11-29T14:15:34.000Z</time>
      </trkpt>
      <trkpt lat="43.31856" lon="5.66813">
        <ele>847</ele>
        <time>2019-11-29T14:15:35.000Z</time>
      </trkpt>
      <trkpt lat="43.31856" lon="5.66813">
        <ele>847</ele>
        <time>2019-11-29T14:15:36.000Z</time>
      </trkpt>
      <trkpt lat="43.31856" lon="5.66813">
        <ele>847</ele>
        <time>2019-11-29T14:15:37.000Z</time>
      </trkpt>
      <trkpt lat="43.31856" lon="5.66812">
        <ele>847</ele>
        <time>2019-11-29T14:15:38.000Z</time>
      </trkpt>
      <trkpt lat="43.31856" lon="5.66812">
        <ele>847</ele>
        <time>2019-11-29T14:15:39.000Z</time>
      </trkpt>
      <trkpt lat="43.31856" lon="5.66812">
        <ele>847</ele>
        <time>2019-11-29T14:15:40.000Z</time>
      </trkpt>
      <trkpt lat="43.31856" lon="5.66812">
        <ele>847</ele>
        <time>2019-11-29T14:15:41.000Z</time>
      </trkpt>
      <trkpt lat="43.31856" lon="5.66812">
        <ele>847</ele>
        <time>2019-11-29T14:15:42.000Z</time>
      </trkpt>
      <trkpt lat="43.31856" lon="5.66812">
        <ele>847</ele>
        <time>2019-11-29T14:15:43.000Z</time>
      </trkpt>
      <trkpt lat="43.31856" lon="5.66812">
        <ele>847</ele>
        <time>2019-11-29T14:15:44.000Z</time>
      </trkpt>
      <trkpt lat="43.31856" lon="5.66812">
        <ele>847</ele>
        <time>2019-11-29T14:15:45.000Z</time>
      </trkpt>
      <trkpt lat="43.31856" lon="5.66812">
        <ele>847</ele>
        <time>2019-11-29T14:15:46.000Z</time>
      </trkpt>
      <trkpt lat="43.31856" lon="5.66812">
        <ele>847</ele>
        <time>2019-11-29T14:15:47.000Z</time>
      </trkpt>
      <trkpt lat="43.31856" lon="5.66812">
        <ele>847</ele>
        <time>2019-11-29T14:15:48.000Z</time>
      </trkpt>
      <trkpt lat="43.31856" lon="5.66812">
        <ele>847</ele>
        <time>2019-11-29T14:15:49.000Z</time>
      </trkpt>
      <trkpt lat="43.31856" lon="5.66812">
        <ele>847</ele>
        <time>2019-11-29T14:15:50.000Z</time>
      </trkpt>
      <trkpt lat="43.31856" lon="5.66812">
        <ele>847</ele>
        <time>2019-11-29T14:15:51.000Z</time>
      </trkpt>
      <trkpt lat="43.31856" lon="5.66813">
        <ele>847</ele>
        <time>2019-11-29T14:15:52.000Z</time>
      </trkpt>
      <trkpt lat="43.31856" lon="5.66813">
        <ele>847</ele>
        <time>2019-11-29T14:15:53.000Z</time>
      </trkpt>
      <trkpt lat="43.31856" lon="5.66813">
        <ele>847</ele>
        <time>2019-11-29T14:15:54.000Z</time>
      </trkpt>
      <trkpt lat="43.31856" lon="5.66813">
        <ele>847</ele>
        <time>2019-11-29T14:15:55.000Z</time>
      </trkpt>
      <trkpt lat="43.31856" lon="5.66813">
        <ele>847</ele>
        <time>2019-11-29T14:15:56.000Z</time>
      </trkpt>
      <trkpt lat="43.31857" lon="5.66813">
        <ele>847</ele>
        <time>2019-11-29T14:15:57.000Z</time>
      </trkpt>
      <trkpt lat="43.31857" lon="5.66813">
        <ele>846</ele>
        <time>2019-11-29T14:15:58.000Z</time>
      </trkpt>
      <trkpt lat="43.31857" lon="5.66813">
        <ele>846</ele>
        <time>2019-11-29T14:15:59.000Z</time>
      </trkpt>
      <trkpt lat="43.31857" lon="5.66813">
        <ele>846</ele>
        <time>2019-11-29T14:16:00.000Z</time>
      </trkpt>
      <trkpt lat="43.31857" lon="5.66813">
        <ele>846</ele>
        <time>2019-11-29T14:16:01.000Z</time>
      </trkpt>
      <trkpt lat="43.31857" lon="5.66813">
        <ele>846</ele>
        <time>2019-11-29T14:16:02.000Z</time>
      </trkpt>
      <trkpt lat="43.31857" lon="5.66812">
        <ele>846</ele>
        <time>2019-11-29T14:16:03.000Z</time>
      </trkpt>
      <trkpt lat="43.31856" lon="5.66812">
        <ele>846</ele>
        <time>2019-11-29T14:16:04.000Z</time>
      </trkpt>
      <trkpt lat="43.31856" lon="5.66812">
        <ele>846</ele>
        <time>2019-11-29T14:16:05.000Z</time>
      </trkpt>
      <trkpt lat="43.31857" lon="5.66812">
        <ele>846</ele>
        <time>2019-11-29T14:16:06.000Z</time>
      </trkpt>
      <trkpt lat="43.31856" lon="5.66812">
        <ele>846</ele>
        <time>2019-11-29T14:16:07.000Z</time>
      </trkpt>
      <trkpt lat="43.31856" lon="5.66812">
        <ele>846</ele>
        <time>2019-11-29T14:16:08.000Z</time>
      </trkpt>
      <trkpt lat="43.31856" lon="5.66812">
        <ele>846</ele>
        <time>2019-11-29T14:16:09.000Z</time>
      </trkpt>
      <trkpt lat="43.31856" lon="5.66812">
        <ele>846</ele>
        <time>2019-11-29T14:16:10.000Z</time>
      </trkpt>
      <trkpt lat="43.31856" lon="5.66812">
        <ele>846</ele>
        <time>2019-11-29T14:16:11.000Z</time>
      </trkpt>
      <trkpt lat="43.31856" lon="5.66812">
        <ele>845</ele>
        <time>2019-11-29T14:16:12.000Z</time>
      </trkpt>
      <trkpt lat="43.31856" lon="5.66812">
        <ele>845</ele>
        <time>2019-11-29T14:16:13.000Z</time>
      </trkpt>
      <trkpt lat="43.31856" lon="5.66812">
        <ele>845</ele>
        <time>2019-11-29T14:16:14.000Z</time>
      </trkpt>
      <trkpt lat="43.31856" lon="5.66812">
        <ele>845</ele>
        <time>2019-11-29T14:16:15.000Z</time>
      </trkpt>
      <trkpt lat="43.31856" lon="5.66811">
        <ele>845</ele>
        <time>2019-11-29T14:16:16.000Z</time>
      </trkpt>
      <trkpt lat="43.31856" lon="5.66811">
        <ele>845</ele>
        <time>2019-11-29T14:16:17.000Z</time>
      </trkpt>
      <trkpt lat="43.31856" lon="5.66811">
        <ele>845</ele>
        <time>2019-11-29T14:16:18.000Z</time>
      </trkpt>
      <trkpt lat="43.31856" lon="5.66811">
        <ele>845</ele>
        <time>2019-11-29T14:16:19.000Z</time>
      </trkpt>
      <trkpt lat="43.31856" lon="5.66811">
        <ele>845</ele>
        <time>2019-11-29T14:16:20.000Z</time>
      </trkpt>
      <trkpt lat="43.31856" lon="5.6681">
        <ele>845</ele>
        <time>2019-11-29T14:16:21.000Z</time>
      </trkpt>
      <trkpt lat="43.31856" lon="5.6681">
        <ele>845</ele>
        <time>2019-11-29T14:16:22.000Z</time>
      </trkpt>
      <trkpt lat="43.31856" lon="5.6681">
        <ele>845</ele>
        <time>2019-11-29T14:16:23.000Z</time>
      </trkpt>
      <trkpt lat="43.31856" lon="5.66809">
        <ele>845</ele>
        <time>2019-11-29T14:16:24.000Z</time>
      </trkpt>
      <trkpt lat="43.31856" lon="5.66808">
        <ele>845</ele>
        <time>2019-11-29T14:16:25.000Z</time>
      </trkpt>
      <trkpt lat="43.31856" lon="5.66808">
        <ele>845</ele>
        <time>2019-11-29T14:16:26.000Z</time>
      </trkpt>
      <trkpt lat="43.31856" lon="5.66807">
        <ele>845</ele>
        <time>2019-11-29T14:16:27.000Z</time>
      </trkpt>
      <trkpt lat="43.31855" lon="5.66807">
        <ele>845</ele>
        <time>2019-11-29T14:16:28.000Z</time>
      </trkpt>
      <trkpt lat="43.31855" lon="5.66807">
        <ele>845</ele>
        <time>2019-11-29T14:16:29.000Z</time>
      </trkpt>
      <trkpt lat="43.31855" lon="5.66807">
        <ele>845</ele>
        <time>2019-11-29T14:16:30.000Z</time>
      </trkpt>
      <trkpt lat="43.31855" lon="5.66808">
        <ele>845</ele>
        <time>2019-11-29T14:16:31.000Z</time>
      </trkpt>
      <trkpt lat="43.31855" lon="5.66807">
        <ele>845</ele>
        <time>2019-11-29T14:16:32.000Z</time>
      </trkpt>
      <trkpt lat="43.31855" lon="5.66807">
        <ele>845</ele>
        <time>2019-11-29T14:16:33.000Z</time>
      </trkpt>
      <trkpt lat="43.31855" lon="5.66807">
        <ele>845</ele>
        <time>2019-11-29T14:16:34.000Z</time>
      </trkpt>
      <trkpt lat="43.31855" lon="5.66807">
        <ele>845</ele>
        <time>2019-11-29T14:16:35.000Z</time>
      </trkpt>
      <trkpt lat="43.31855" lon="5.66807">
        <ele>845</ele>
        <time>2019-11-29T14:16:36.000Z</time>
      </trkpt>
      <trkpt lat="43.31855" lon="5.66807">
        <ele>845</ele>
        <time>2019-11-29T14:16:37.000Z</time>
      </trkpt>
      <trkpt lat="43.31855" lon="5.66807">
        <ele>845</ele>
        <time>2019-11-29T14:16:38.000Z</time>
      </trkpt>
      <trkpt lat="43.31855" lon="5.66807">
        <ele>845</ele>
        <time>2019-11-29T14:16:39.000Z</time>
      </trkpt>
      <trkpt lat="43.31855" lon="5.66807">
        <ele>845</ele>
        <time>2019-11-29T14:16:40.000Z</time>
      </trkpt>
      <trkpt lat="43.31855" lon="5.66807">
        <ele>845</ele>
        <time>2019-11-29T14:16:41.000Z</time>
      </trkpt>
      <trkpt lat="43.31855" lon="5.66807">
        <ele>845</ele>
        <time>2019-11-29T14:16:42.000Z</time>
      </trkpt>
      <trkpt lat="43.31855" lon="5.66806">
        <ele>845</ele>
        <time>2019-11-29T14:16:43.000Z</time>
      </trkpt>
      <trkpt lat="43.31854" lon="5.66806">
        <ele>845</ele>
        <time>2019-11-29T14:16:44.000Z</time>
      </trkpt>
      <trkpt lat="43.31854" lon="5.66806">
        <ele>845</ele>
        <time>2019-11-29T14:16:45.000Z</time>
      </trkpt>
      <trkpt lat="43.31854" lon="5.66806">
        <ele>845</ele>
        <time>2019-11-29T14:16:46.000Z</time>
      </trkpt>
      <trkpt lat="43.31854" lon="5.66805">
        <ele>845</ele>
        <time>2019-11-29T14:16:47.000Z</time>
      </trkpt>
      <trkpt lat="43.31854" lon="5.66805">
        <ele>845</ele>
        <time>2019-11-29T14:16:48.000Z</time>
      </trkpt>
      <trkpt lat="43.31854" lon="5.66804">
        <ele>845</ele>
        <time>2019-11-29T14:16:49.000Z</time>
      </trkpt>
      <trkpt lat="43.31854" lon="5.66803">
        <ele>845</ele>
        <time>2019-11-29T14:16:50.000Z</time>
      </trkpt>
      <trkpt lat="43.31854" lon="5.66803">
        <ele>845</ele>
        <time>2019-11-29T14:16:51.000Z</time>
      </trkpt>
      <trkpt lat="43.31854" lon="5.66803">
        <ele>845</ele>
        <time>2019-11-29T14:16:52.000Z</time>
      </trkpt>
      <trkpt lat="43.31854" lon="5.66803">
        <ele>845</ele>
        <time>2019-11-29T14:16:53.000Z</time>
      </trkpt>
      <trkpt lat="43.31854" lon="5.66803">
        <ele>845</ele>
        <time>2019-11-29T14:16:54.000Z</time>
      </trkpt>
      <trkpt lat="43.31854" lon="5.66803">
        <ele>845</ele>
        <time>2019-11-29T14:16:55.000Z</time>
      </trkpt>
      <trkpt lat="43.31854" lon="5.66802">
        <ele>845</ele>
        <time>2019-11-29T14:16:56.000Z</time>
      </trkpt>
      <trkpt lat="43.31854" lon="5.66802">
        <ele>845</ele>
        <time>2019-11-29T14:16:57.000Z</time>
      </trkpt>
      <trkpt lat="43.31854" lon="5.66802">
        <ele>845</ele>
        <time>2019-11-29T14:16:58.000Z</time>
      </trkpt>
      <trkpt lat="43.31854" lon="5.66802">
        <ele>845</ele>
        <time>2019-11-29T14:16:59.000Z</time>
      </trkpt>
      <trkpt lat="43.31854" lon="5.66802">
        <ele>845</ele>
        <time>2019-11-29T14:17:00.000Z</time>
      </trkpt>
      <trkpt lat="43.31854" lon="5.66802">
        <ele>845</ele>
        <time>2019-11-29T14:17:01.000Z</time>
      </trkpt>
      <trkpt lat="43.31854" lon="5.66802">
        <ele>845</ele>
        <time>2019-11-29T14:17:02.000Z</time>
      </trkpt>
      <trkpt lat="43.31854" lon="5.66802">
        <ele>845</ele>
        <time>2019-11-29T14:17:03.000Z</time>
      </trkpt>
      <trkpt lat="43.31854" lon="5.66802">
        <ele>845</ele>
        <time>2019-11-29T14:17:04.000Z</time>
      </trkpt>
      <trkpt lat="43.31854" lon="5.66802">
        <ele>845</ele>
        <time>2019-11-29T14:17:05.000Z</time>
      </trkpt>
      <trkpt lat="43.31854" lon="5.66802">
        <ele>845</ele>
        <time>2019-11-29T14:17:06.000Z</time>
      </trkpt>
      <trkpt lat="43.31854" lon="5.66802">
        <ele>845</ele>
        <time>2019-11-29T14:17:07.000Z</time>
      </trkpt>
      <trkpt lat="43.31854" lon="5.66802">
        <ele>844</ele>
        <time>2019-11-29T14:17:08.000Z</time>
      </trkpt>
      <trkpt lat="43.31854" lon="5.66802">
        <ele>844</ele>
        <time>2019-11-29T14:17:09.000Z</time>
      </trkpt>
      <trkpt lat="43.31854" lon="5.66802">
        <ele>844</ele>
        <time>2019-11-29T14:17:10.000Z</time>
      </trkpt>
      <trkpt lat="43.31854" lon="5.66802">
        <ele>844</ele>
        <time>2019-11-29T14:17:11.000Z</time>
      </trkpt>
      <trkpt lat="43.31854" lon="5.66802">
        <ele>844</ele>
        <time>2019-11-29T14:17:12.000Z</time>
      </trkpt>
      <trkpt lat="43.31855" lon="5.66802">
        <ele>844</ele>
        <time>2019-11-29T14:17:13.000Z</time>
      </trkpt>
      <trkpt lat="43.31855" lon="5.66802">
        <ele>844</ele>
        <time>2019-11-29T14:17:14.000Z</time>
      </trkpt>
      <trkpt lat="43.31855" lon="5.66802">
        <ele>844</ele>
        <time>2019-11-29T14:17:15.000Z</time>
      </trkpt>
      <trkpt lat="43.31855" lon="5.66802">
        <ele>844</ele>
        <time>2019-11-29T14:17:16.000Z</time>
      </trkpt>
      <trkpt lat="43.31855" lon="5.66802">
        <ele>844</ele>
        <time>2019-11-29T14:17:17.000Z</time>
      </trkpt>
      <trkpt lat="43.31855" lon="5.66802">
        <ele>844</ele>
        <time>2019-11-29T14:17:18.000Z</time>
      </trkpt>
      <trkpt lat="43.31855" lon="5.66802">
        <ele>844</ele>
        <time>2019-11-29T14:17:19.000Z</time>
      </trkpt>
      <trkpt lat="43.31854" lon="5.66802">
        <ele>844</ele>
        <time>2019-11-29T14:17:20.000Z</time>
      </trkpt>
      <trkpt lat="43.31854" lon="5.66802">
        <ele>844</ele>
        <time>2019-11-29T14:17:21.000Z</time>
      </trkpt>
      <trkpt lat="43.31854" lon="5.66802">
        <ele>844</ele>
        <time>2019-11-29T14:17:22.000Z</time>
      </trkpt>
      <trkpt lat="43.31854" lon="5.66802">
        <ele>844</ele>
        <time>2019-11-29T14:17:23.000Z</time>
      </trkpt>
      <trkpt lat="43.31854" lon="5.66802">
        <ele>844</ele>
        <time>2019-11-29T14:17:24.000Z</time>
      </trkpt>
      <trkpt lat="43.31854" lon="5.66801">
        <ele>844</ele>
        <time>2019-11-29T14:17:25.000Z</time>
      </trkpt>
      <trkpt lat="43.31854" lon="5.66801">
        <ele>844</ele>
        <time>2019-11-29T14:17:26.000Z</time>
      </trkpt>
      <trkpt lat="43.31854" lon="5.66801">
        <ele>844</ele>
        <time>2019-11-29T14:17:27.000Z</time>
      </trkpt>
      <trkpt lat="43.31854" lon="5.668">
        <ele>844</ele>
        <time>2019-11-29T14:17:28.000Z</time>
      </trkpt>
      <trkpt lat="43.31854" lon="5.668">
        <ele>844</ele>
        <time>2019-11-29T14:17:29.000Z</time>
      </trkpt>
      <trkpt lat="43.31854" lon="5.66799">
        <ele>844</ele>
        <time>2019-11-29T14:17:30.000Z</time>
      </trkpt>
      <trkpt lat="43.31854" lon="5.66798">
        <ele>843</ele>
        <time>2019-11-29T14:17:31.000Z</time>
      </trkpt>
      <trkpt lat="43.31853" lon="5.66797">
        <ele>843</ele>
        <time>2019-11-29T14:17:32.000Z</time>
      </trkpt>
      <trkpt lat="43.31853" lon="5.66796">
        <ele>844</ele>
        <time>2019-11-29T14:17:33.000Z</time>
      </trkpt>
      <trkpt lat="43.31852" lon="5.66795">
        <ele>844</ele>
        <time>2019-11-29T14:17:34.000Z</time>
      </trkpt>
      <trkpt lat="43.31851" lon="5.66794">
        <ele>844</ele>
        <time>2019-11-29T14:17:35.000Z</time>
      </trkpt>
      <trkpt lat="43.31851" lon="5.66793">
        <ele>844</ele>
        <time>2019-11-29T14:17:36.000Z</time>
      </trkpt>
      <trkpt lat="43.3185" lon="5.66793">
        <ele>844</ele>
        <time>2019-11-29T14:17:37.000Z</time>
      </trkpt>
      <trkpt lat="43.3185" lon="5.66792">
        <ele>844</ele>
        <time>2019-11-29T14:17:38.000Z</time>
      </trkpt>
      <trkpt lat="43.3185" lon="5.66791">
        <ele>844</ele>
        <time>2019-11-29T14:17:39.000Z</time>
      </trkpt>
      <trkpt lat="43.3185" lon="5.66789">
        <ele>844</ele>
        <time>2019-11-29T14:17:40.000Z</time>
      </trkpt>
      <trkpt lat="43.31849" lon="5.66788">
        <ele>844</ele>
        <time>2019-11-29T14:17:41.000Z</time>
      </trkpt>
      <trkpt lat="43.31849" lon="5.66787">
        <ele>844</ele>
        <time>2019-11-29T14:17:42.000Z</time>
      </trkpt>
      <trkpt lat="43.31848" lon="5.66786">
        <ele>844</ele>
        <time>2019-11-29T14:17:43.000Z</time>
      </trkpt>
      <trkpt lat="43.31848" lon="5.66786">
        <ele>844</ele>
        <time>2019-11-29T14:17:44.000Z</time>
      </trkpt>
      <trkpt lat="43.31848" lon="5.66786">
        <ele>844</ele>
        <time>2019-11-29T14:17:45.000Z</time>
      </trkpt>
      <trkpt lat="43.31848" lon="5.66785">
        <ele>844</ele>
        <time>2019-11-29T14:17:46.000Z</time>
      </trkpt>
      <trkpt lat="43.31848" lon="5.66785">
        <ele>844</ele>
        <time>2019-11-29T14:17:47.000Z</time>
      </trkpt>
      <trkpt lat="43.31848" lon="5.66785">
        <ele>844</ele>
        <time>2019-11-29T14:17:48.000Z</time>
      </trkpt>
      <trkpt lat="43.31847" lon="5.66785">
        <ele>844</ele>
        <time>2019-11-29T14:17:49.000Z</time>
      </trkpt>
      <trkpt lat="43.31847" lon="5.66784">
        <ele>844</ele>
        <time>2019-11-29T14:17:50.000Z</time>
      </trkpt>
      <trkpt lat="43.31847" lon="5.66784">
        <ele>844</ele>
        <time>2019-11-29T14:17:51.000Z</time>
      </trkpt>
      <trkpt lat="43.31847" lon="5.66783">
        <ele>844</ele>
        <time>2019-11-29T14:17:52.000Z</time>
      </trkpt>
      <trkpt lat="43.31847" lon="5.66782">
        <ele>844</ele>
        <time>2019-11-29T14:17:53.000Z</time>
      </trkpt>
      <trkpt lat="43.31847" lon="5.66781">
        <ele>844</ele>
        <time>2019-11-29T14:17:54.000Z</time>
      </trkpt>
      <trkpt lat="43.31847" lon="5.6678">
        <ele>844</ele>
        <time>2019-11-29T14:17:55.000Z</time>
      </trkpt>
      <trkpt lat="43.31847" lon="5.66779">
        <ele>844</ele>
        <time>2019-11-29T14:17:56.000Z</time>
      </trkpt>
      <trkpt lat="43.31846" lon="5.66779">
        <ele>844</ele>
        <time>2019-11-29T14:17:57.000Z</time>
      </trkpt>
      <trkpt lat="43.31846" lon="5.66778">
        <ele>844</ele>
        <time>2019-11-29T14:17:58.000Z</time>
      </trkpt>
      <trkpt lat="43.31846" lon="5.66777">
        <ele>844</ele>
        <time>2019-11-29T14:17:59.000Z</time>
      </trkpt>
      <trkpt lat="43.31846" lon="5.66777">
        <ele>844</ele>
        <time>2019-11-29T14:18:00.000Z</time>
      </trkpt>
      <trkpt lat="43.31845" lon="5.66776">
        <ele>843</ele>
        <time>2019-11-29T14:18:01.000Z</time>
      </trkpt>
      <trkpt lat="43.31845" lon="5.66775">
        <ele>843</ele>
        <time>2019-11-29T14:18:02.000Z</time>
      </trkpt>
      <trkpt lat="43.31844" lon="5.66775">
        <ele>843</ele>
        <time>2019-11-29T14:18:03.000Z</time>
      </trkpt>
      <trkpt lat="43.31844" lon="5.66775">
        <ele>843</ele>
        <time>2019-11-29T14:18:04.000Z</time>
      </trkpt>
      <trkpt lat="43.31844" lon="5.66775">
        <ele>843</ele>
        <time>2019-11-29T14:18:05.000Z</time>
      </trkpt>
      <trkpt lat="43.31844" lon="5.66774">
        <ele>843</ele>
        <time>2019-11-29T14:18:06.000Z</time>
      </trkpt>
      <trkpt lat="43.31844" lon="5.66775">
        <ele>843</ele>
        <time>2019-11-29T14:18:07.000Z</time>
      </trkpt>
      <trkpt lat="43.31845" lon="5.66775">
        <ele>843</ele>
        <time>2019-11-29T14:18:08.000Z</time>
      </trkpt>
      <trkpt lat="43.31845" lon="5.66775">
        <ele>843</ele>
        <time>2019-11-29T14:18:09.000Z</time>
      </trkpt>
      <trkpt lat="43.31845" lon="5.66774">
        <ele>843</ele>
        <time>2019-11-29T14:18:10.000Z</time>
      </trkpt>
      <trkpt lat="43.31845" lon="5.66774">
        <ele>843</ele>
        <time>2019-11-29T14:18:11.000Z</time>
      </trkpt>
      <trkpt lat="43.31845" lon="5.66774">
        <ele>843</ele>
        <time>2019-11-29T14:18:12.000Z</time>
      </trkpt>
      <trkpt lat="43.31845" lon="5.66774">
        <ele>843</ele>
        <time>2019-11-29T14:18:13.000Z</time>
      </trkpt>
      <trkpt lat="43.31845" lon="5.66774">
        <ele>843</ele>
        <time>2019-11-29T14:18:14.000Z</time>
      </trkpt>
      <trkpt lat="43.31846" lon="5.66774">
        <ele>843</ele>
        <time>2019-11-29T14:18:15.000Z</time>
      </trkpt>
      <trkpt lat="43.31846" lon="5.66774">
        <ele>843</ele>
        <time>2019-11-29T14:18:16.000Z</time>
      </trkpt>
      <trkpt lat="43.31846" lon="5.66775">
        <ele>843</ele>
        <time>2019-11-29T14:18:17.000Z</time>
      </trkpt>
      <trkpt lat="43.31847" lon="5.66775">
        <ele>843</ele>
        <time>2019-11-29T14:18:18.000Z</time>
      </trkpt>
      <trkpt lat="43.31847" lon="5.66775">
        <ele>843</ele>
        <time>2019-11-29T14:18:19.000Z</time>
      </trkpt>
      <trkpt lat="43.31847" lon="5.66775">
        <ele>843</ele>
        <time>2019-11-29T14:18:20.000Z</time>
      </trkpt>
      <trkpt lat="43.31847" lon="5.66775">
        <ele>843</ele>
        <time>2019-11-29T14:18:21.000Z</time>
      </trkpt>
      <trkpt lat="43.31847" lon="5.66775">
        <ele>844</ele>
        <time>2019-11-29T14:18:22.000Z</time>
      </trkpt>
      <trkpt lat="43.31847" lon="5.66775">
        <ele>844</ele>
        <time>2019-11-29T14:18:23.000Z</time>
      </trkpt>
      <trkpt lat="43.31848" lon="5.66775">
        <ele>844</ele>
        <time>2019-11-29T14:18:24.000Z</time>
      </trkpt>
      <trkpt lat="43.31848" lon="5.66775">
        <ele>844</ele>
        <time>2019-11-29T14:18:25.000Z</time>
      </trkpt>
      <trkpt lat="43.31848" lon="5.66775">
        <ele>844</ele>
        <time>2019-11-29T14:18:26.000Z</time>
      </trkpt>
      <trkpt lat="43.31848" lon="5.66775">
        <ele>844</ele>
        <time>2019-11-29T14:18:27.000Z</time>
      </trkpt>
      <trkpt lat="43.31848" lon="5.66774">
        <ele>844</ele>
        <time>2019-11-29T14:18:28.000Z</time>
      </trkpt>
      <trkpt lat="43.31847" lon="5.66773">
        <ele>844</ele>
        <time>2019-11-29T14:18:29.000Z</time>
      </trkpt>
      <trkpt lat="43.31847" lon="5.66773">
        <ele>844</ele>
        <time>2019-11-29T14:18:30.000Z</time>
      </trkpt>
      <trkpt lat="43.31847" lon="5.66772">
        <ele>844</ele>
        <time>2019-11-29T14:18:31.000Z</time>
      </trkpt>
      <trkpt lat="43.31847" lon="5.66772">
        <ele>844</ele>
        <time>2019-11-29T14:18:32.000Z</time>
      </trkpt>
      <trkpt lat="43.31847" lon="5.66772">
        <ele>844</ele>
        <time>2019-11-29T14:18:33.000Z</time>
      </trkpt>
      <trkpt lat="43.31847" lon="5.66771">
        <ele>845</ele>
        <time>2019-11-29T14:18:34.000Z</time>
      </trkpt>
      <trkpt lat="43.31847" lon="5.66771">
        <ele>845</ele>
        <time>2019-11-29T14:18:35.000Z</time>
      </trkpt>
      <trkpt lat="43.31848" lon="5.66771">
        <ele>845</ele>
        <time>2019-11-29T14:18:36.000Z</time>
      </trkpt>
      <trkpt lat="43.31848" lon="5.6677">
        <ele>845</ele>
        <time>2019-11-29T14:18:37.000Z</time>
      </trkpt>
      <trkpt lat="43.31849" lon="5.6677">
        <ele>845</ele>
        <time>2019-11-29T14:18:38.000Z</time>
      </trkpt>
      <trkpt lat="43.3185" lon="5.6677">
        <ele>845</ele>
        <time>2019-11-29T14:18:39.000Z</time>
      </trkpt>
      <trkpt lat="43.3185" lon="5.6677">
        <ele>845</ele>
        <time>2019-11-29T14:18:40.000Z</time>
      </trkpt>
      <trkpt lat="43.31851" lon="5.66771">
        <ele>845</ele>
        <time>2019-11-29T14:18:41.000Z</time>
      </trkpt>
      <trkpt lat="43.31851" lon="5.66771">
        <ele>846</ele>
        <time>2019-11-29T14:18:42.000Z</time>
      </trkpt>
      <trkpt lat="43.31852" lon="5.66771">
        <ele>846</ele>
        <time>2019-11-29T14:18:43.000Z</time>
      </trkpt>
      <trkpt lat="43.31852" lon="5.66771">
        <ele>846</ele>
        <time>2019-11-29T14:18:44.000Z</time>
      </trkpt>
      <trkpt lat="43.31853" lon="5.6677">
        <ele>846</ele>
        <time>2019-11-29T14:18:45.000Z</time>
      </trkpt>
      <trkpt lat="43.31853" lon="5.6677">
        <ele>846</ele>
        <time>2019-11-29T14:18:46.000Z</time>
      </trkpt>
      <trkpt lat="43.31853" lon="5.6677">
        <ele>847</ele>
        <time>2019-11-29T14:18:47.000Z</time>
      </trkpt>
      <trkpt lat="43.31853" lon="5.6677">
        <ele>847</ele>
        <time>2019-11-29T14:18:48.000Z</time>
      </trkpt>
      <trkpt lat="43.31854" lon="5.6677">
        <ele>847</ele>
        <time>2019-11-29T14:18:49.000Z</time>
      </trkpt>
      <trkpt lat="43.31854" lon="5.6677">
        <ele>847</ele>
        <time>2019-11-29T14:18:50.000Z</time>
      </trkpt>
      <trkpt lat="43.31855" lon="5.6677">
        <ele>848</ele>
        <time>2019-11-29T14:18:51.000Z</time>
      </trkpt>
      <trkpt lat="43.31855" lon="5.66769">
        <ele>848</ele>
        <time>2019-11-29T14:18:52.000Z</time>
      </trkpt>
      <trkpt lat="43.31855" lon="5.66769">
        <ele>848</ele>
        <time>2019-11-29T14:18:53.000Z</time>
      </trkpt>
      <trkpt lat="43.31855" lon="5.66768">
        <ele>848</ele>
        <time>2019-11-29T14:18:54.000Z</time>
      </trkpt>
      <trkpt lat="43.31855" lon="5.66767">
        <ele>849</ele>
        <time>2019-11-29T14:18:55.000Z</time>
      </trkpt>
      <trkpt lat="43.31855" lon="5.66766">
        <ele>849</ele>
        <time>2019-11-29T14:18:56.000Z</time>
      </trkpt>
      <trkpt lat="43.31856" lon="5.66765">
        <ele>849</ele>
        <time>2019-11-29T14:18:57.000Z</time>
      </trkpt>
      <trkpt lat="43.31856" lon="5.66764">
        <ele>849</ele>
        <time>2019-11-29T14:18:58.000Z</time>
      </trkpt>
      <trkpt lat="43.31856" lon="5.66764">
        <ele>850</ele>
        <time>2019-11-29T14:18:59.000Z</time>
      </trkpt>
      <trkpt lat="43.31855" lon="5.66763">
        <ele>850</ele>
        <time>2019-11-29T14:19:00.000Z</time>
      </trkpt>
      <trkpt lat="43.31855" lon="5.66762">
        <ele>850</ele>
        <time>2019-11-29T14:19:01.000Z</time>
      </trkpt>
      <trkpt lat="43.31855" lon="5.66761">
        <ele>850</ele>
        <time>2019-11-29T14:19:02.000Z</time>
      </trkpt>
      <trkpt lat="43.31854" lon="5.66761">
        <ele>851</ele>
        <time>2019-11-29T14:19:03.000Z</time>
      </trkpt>
      <trkpt lat="43.31854" lon="5.66761">
        <ele>851</ele>
        <time>2019-11-29T14:19:04.000Z</time>
      </trkpt>
      <trkpt lat="43.31854" lon="5.66761">
        <ele>851</ele>
        <time>2019-11-29T14:19:05.000Z</time>
      </trkpt>
      <trkpt lat="43.31854" lon="5.66761">
        <ele>851</ele>
        <time>2019-11-29T14:19:06.000Z</time>
      </trkpt>
      <trkpt lat="43.31854" lon="5.66761">
        <ele>851</ele>
        <time>2019-11-29T14:19:07.000Z</time>
      </trkpt>
      <trkpt lat="43.31854" lon="5.66761">
        <ele>851</ele>
        <time>2019-11-29T14:19:08.000Z</time>
      </trkpt>
      <trkpt lat="43.31854" lon="5.66761">
        <ele>851</ele>
        <time>2019-11-29T14:19:09.000Z</time>
      </trkpt>
      <trkpt lat="43.31854" lon="5.66761">
        <ele>852</ele>
        <time>2019-11-29T14:19:10.000Z</time>
      </trkpt>
      <trkpt lat="43.31854" lon="5.66761">
        <ele>852</ele>
        <time>2019-11-29T14:19:11.000Z</time>
      </trkpt>
      <trkpt lat="43.31854" lon="5.66761">
        <ele>852</ele>
        <time>2019-11-29T14:19:12.000Z</time>
      </trkpt>
      <trkpt lat="43.31854" lon="5.66761">
        <ele>852</ele>
        <time>2019-11-29T14:19:13.000Z</time>
      </trkpt>
      <trkpt lat="43.31854" lon="5.6676">
        <ele>852</ele>
        <time>2019-11-29T14:19:14.000Z</time>
      </trkpt>
      <trkpt lat="43.31853" lon="5.6676">
        <ele>852</ele>
        <time>2019-11-29T14:19:15.000Z</time>
      </trkpt>
      <trkpt lat="43.31853" lon="5.6676">
        <ele>852</ele>
        <time>2019-11-29T14:19:16.000Z</time>
      </trkpt>
      <trkpt lat="43.31853" lon="5.66758">
        <ele>852</ele>
        <time>2019-11-29T14:19:17.000Z</time>
      </trkpt>
      <trkpt lat="43.31852" lon="5.66757">
        <ele>853</ele>
        <time>2019-11-29T14:19:18.000Z</time>
      </trkpt>
      <trkpt lat="43.31852" lon="5.66756">
        <ele>853</ele>
        <time>2019-11-29T14:19:19.000Z</time>
      </trkpt>
      <trkpt lat="43.31852" lon="5.66755">
        <ele>853</ele>
        <time>2019-11-29T14:19:20.000Z</time>
      </trkpt>
      <trkpt lat="43.31852" lon="5.66753">
        <ele>853</ele>
        <time>2019-11-29T14:19:21.000Z</time>
      </trkpt>
      <trkpt lat="43.31852" lon="5.66752">
        <ele>853</ele>
        <time>2019-11-29T14:19:22.000Z</time>
      </trkpt>
      <trkpt lat="43.31852" lon="5.66751">
        <ele>853</ele>
        <time>2019-11-29T14:19:23.000Z</time>
      </trkpt>
      <trkpt lat="43.31853" lon="5.66751">
        <ele>853</ele>
        <time>2019-11-29T14:19:24.000Z</time>
      </trkpt>
      <trkpt lat="43.31853" lon="5.6675">
        <ele>854</ele>
        <time>2019-11-29T14:19:25.000Z</time>
      </trkpt>
      <trkpt lat="43.31853" lon="5.66749">
        <ele>854</ele>
        <time>2019-11-29T14:19:26.000Z</time>
      </trkpt>
      <trkpt lat="43.31853" lon="5.66748">
        <ele>854</ele>
        <time>2019-11-29T14:19:27.000Z</time>
      </trkpt>
      <trkpt lat="43.31853" lon="5.66747">
        <ele>854</ele>
        <time>2019-11-29T14:19:28.000Z</time>
      </trkpt>
      <trkpt lat="43.31854" lon="5.66745">
        <ele>855</ele>
        <time>2019-11-29T14:19:29.000Z</time>
      </trkpt>
      <trkpt lat="43.31854" lon="5.66744">
        <ele>855</ele>
        <time>2019-11-29T14:19:30.000Z</time>
      </trkpt>
      <trkpt lat="43.31853" lon="5.66743">
        <ele>855</ele>
        <time>2019-11-29T14:19:31.000Z</time>
      </trkpt>
      <trkpt lat="43.31853" lon="5.66742">
        <ele>855</ele>
        <time>2019-11-29T14:19:32.000Z</time>
      </trkpt>
      <trkpt lat="43.31852" lon="5.66741">
        <ele>856</ele>
        <time>2019-11-29T14:19:33.000Z</time>
      </trkpt>
      <trkpt lat="43.31852" lon="5.6674">
        <ele>856</ele>
        <time>2019-11-29T14:19:34.000Z</time>
      </trkpt>
      <trkpt lat="43.31851" lon="5.66739">
        <ele>856</ele>
        <time>2019-11-29T14:19:35.000Z</time>
      </trkpt>
      <trkpt lat="43.31851" lon="5.66738">
        <ele>856</ele>
        <time>2019-11-29T14:19:36.000Z</time>
      </trkpt>
      <trkpt lat="43.3185" lon="5.66737">
        <ele>856</ele>
        <time>2019-11-29T14:19:37.000Z</time>
      </trkpt>
      <trkpt lat="43.31849" lon="5.66736">
        <ele>857</ele>
        <time>2019-11-29T14:19:38.000Z</time>
      </trkpt>
      <trkpt lat="43.31849" lon="5.66735">
        <ele>857</ele>
        <time>2019-11-29T14:19:39.000Z</time>
      </trkpt>
      <trkpt lat="43.31849" lon="5.66734">
        <ele>857</ele>
        <time>2019-11-29T14:19:40.000Z</time>
      </trkpt>
      <trkpt lat="43.31848" lon="5.66733">
        <ele>857</ele>
        <time>2019-11-29T14:19:41.000Z</time>
      </trkpt>
      <trkpt lat="43.31848" lon="5.66733">
        <ele>857</ele>
        <time>2019-11-29T14:19:42.000Z</time>
      </trkpt>
      <trkpt lat="43.31848" lon="5.66733">
        <ele>857</ele>
        <time>2019-11-29T14:19:43.000Z</time>
      </trkpt>
      <trkpt lat="43.31848" lon="5.66733">
        <ele>857</ele>
        <time>2019-11-29T14:19:44.000Z</time>
      </trkpt>
      <trkpt lat="43.31847" lon="5.66733">
        <ele>858</ele>
        <time>2019-11-29T14:19:45.000Z</time>
      </trkpt>
      <trkpt lat="43.31847" lon="5.66733">
        <ele>858</ele>
        <time>2019-11-29T14:19:46.000Z</time>
      </trkpt>
      <trkpt lat="43.31847" lon="5.66733">
        <ele>858</ele>
        <time>2019-11-29T14:19:47.000Z</time>
      </trkpt>
      <trkpt lat="43.31846" lon="5.66732">
        <ele>858</ele>
        <time>2019-11-29T14:19:48.000Z</time>
      </trkpt>
      <trkpt lat="43.31846" lon="5.66732">
        <ele>858</ele>
        <time>2019-11-29T14:19:49.000Z</time>
      </trkpt>
      <trkpt lat="43.31846" lon="5.66731">
        <ele>858</ele>
        <time>2019-11-29T14:19:50.000Z</time>
      </trkpt>
      <trkpt lat="43.31846" lon="5.66729">
        <ele>858</ele>
        <time>2019-11-29T14:19:51.000Z</time>
      </trkpt>
      <trkpt lat="43.31846" lon="5.66728">
        <ele>859</ele>
        <time>2019-11-29T14:19:52.000Z</time>
      </trkpt>
      <trkpt lat="43.31845" lon="5.66727">
        <ele>859</ele>
        <time>2019-11-29T14:19:53.000Z</time>
      </trkpt>
      <trkpt lat="43.31845" lon="5.66726">
        <ele>859</ele>
        <time>2019-11-29T14:19:54.000Z</time>
      </trkpt>
      <trkpt lat="43.31844" lon="5.66724">
        <ele>859</ele>
        <time>2019-11-29T14:19:55.000Z</time>
      </trkpt>
      <trkpt lat="43.31843" lon="5.66723">
        <ele>859</ele>
        <time>2019-11-29T14:19:56.000Z</time>
      </trkpt>
      <trkpt lat="43.31843" lon="5.66722">
        <ele>860</ele>
        <time>2019-11-29T14:19:57.000Z</time>
      </trkpt>
      <trkpt lat="43.31843" lon="5.6672">
        <ele>860</ele>
        <time>2019-11-29T14:19:58.000Z</time>
      </trkpt>
      <trkpt lat="43.31842" lon="5.66718">
        <ele>860</ele>
        <time>2019-11-29T14:19:59.000Z</time>
      </trkpt>
      <trkpt lat="43.31842" lon="5.66717">
        <ele>860</ele>
        <time>2019-11-29T14:20:00.000Z</time>
      </trkpt>
      <trkpt lat="43.31842" lon="5.66716">
        <ele>860</ele>
        <time>2019-11-29T14:20:01.000Z</time>
      </trkpt>
      <trkpt lat="43.31841" lon="5.66714">
        <ele>860</ele>
        <time>2019-11-29T14:20:02.000Z</time>
      </trkpt>
      <trkpt lat="43.31841" lon="5.66713">
        <ele>860</ele>
        <time>2019-11-29T14:20:03.000Z</time>
      </trkpt>
      <trkpt lat="43.3184" lon="5.66711">
        <ele>860</ele>
        <time>2019-11-29T14:20:04.000Z</time>
      </trkpt>
      <trkpt lat="43.3184" lon="5.6671">
        <ele>860</ele>
        <time>2019-11-29T14:20:05.000Z</time>
      </trkpt>
      <trkpt lat="43.3184" lon="5.66708">
        <ele>860</ele>
        <time>2019-11-29T14:20:06.000Z</time>
      </trkpt>
      <trkpt lat="43.31839" lon="5.66707">
        <ele>860</ele>
        <time>2019-11-29T14:20:07.000Z</time>
      </trkpt>
      <trkpt lat="43.31839" lon="5.66705">
        <ele>860</ele>
        <time>2019-11-29T14:20:08.000Z</time>
      </trkpt>
      <trkpt lat="43.31839" lon="5.66704">
        <ele>860</ele>
        <time>2019-11-29T14:20:09.000Z</time>
      </trkpt>
      <trkpt lat="43.31839" lon="5.66703">
        <ele>860</ele>
        <time>2019-11-29T14:20:10.000Z</time>
      </trkpt>
      <trkpt lat="43.31839" lon="5.66702">
        <ele>860</ele>
        <time>2019-11-29T14:20:11.000Z</time>
      </trkpt>
      <trkpt lat="43.3184" lon="5.66702">
        <ele>860</ele>
        <time>2019-11-29T14:20:12.000Z</time>
      </trkpt>
      <trkpt lat="43.3184" lon="5.66701">
        <ele>860</ele>
        <time>2019-11-29T14:20:13.000Z</time>
      </trkpt>
      <trkpt lat="43.31841" lon="5.667">
        <ele>860</ele>
        <time>2019-11-29T14:20:14.000Z</time>
      </trkpt>
      <trkpt lat="43.31841" lon="5.667">
        <ele>860</ele>
        <time>2019-11-29T14:20:15.000Z</time>
      </trkpt>
      <trkpt lat="43.31842" lon="5.66699">
        <ele>860</ele>
        <time>2019-11-29T14:20:16.000Z</time>
      </trkpt>
      <trkpt lat="43.31842" lon="5.66698">
        <ele>860</ele>
        <time>2019-11-29T14:20:17.000Z</time>
      </trkpt>
      <trkpt lat="43.31842" lon="5.66697">
        <ele>859</ele>
        <time>2019-11-29T14:20:18.000Z</time>
      </trkpt>
      <trkpt lat="43.31841" lon="5.66696">
        <ele>859</ele>
        <time>2019-11-29T14:20:19.000Z</time>
      </trkpt>
      <trkpt lat="43.31841" lon="5.66695">
        <ele>859</ele>
        <time>2019-11-29T14:20:20.000Z</time>
      </trkpt>
      <trkpt lat="43.3184" lon="5.66694">
        <ele>858</ele>
        <time>2019-11-29T14:20:21.000Z</time>
      </trkpt>
      <trkpt lat="43.31839" lon="5.66692">
        <ele>858</ele>
        <time>2019-11-29T14:20:22.000Z</time>
      </trkpt>
      <trkpt lat="43.31839" lon="5.66691">
        <ele>858</ele>
        <time>2019-11-29T14:20:23.000Z</time>
      </trkpt>
      <trkpt lat="43.31839" lon="5.6669">
        <ele>858</ele>
        <time>2019-11-29T14:20:24.000Z</time>
      </trkpt>
      <trkpt lat="43.31838" lon="5.66689">
        <ele>858</ele>
        <time>2019-11-29T14:20:25.000Z</time>
      </trkpt>
      <trkpt lat="43.31838" lon="5.66688">
        <ele>857</ele>
        <time>2019-11-29T14:20:26.000Z</time>
      </trkpt>
      <trkpt lat="43.31838" lon="5.66686">
        <ele>857</ele>
        <time>2019-11-29T14:20:27.000Z</time>
      </trkpt>
      <trkpt lat="43.31838" lon="5.66685">
        <ele>857</ele>
        <time>2019-11-29T14:20:28.000Z</time>
      </trkpt>
      <trkpt lat="43.31838" lon="5.66684">
        <ele>857</ele>
        <time>2019-11-29T14:20:29.000Z</time>
      </trkpt>
      <trkpt lat="43.31838" lon="5.66683">
        <ele>857</ele>
        <time>2019-11-29T14:20:30.000Z</time>
      </trkpt>
      <trkpt lat="43.31837" lon="5.66682">
        <ele>857</ele>
        <time>2019-11-29T14:20:31.000Z</time>
      </trkpt>
      <trkpt lat="43.31837" lon="5.66681">
        <ele>857</ele>
        <time>2019-11-29T14:20:32.000Z</time>
      </trkpt>
      <trkpt lat="43.31836" lon="5.66679">
        <ele>857</ele>
        <time>2019-11-29T14:20:33.000Z</time>
      </trkpt>
      <trkpt lat="43.31836" lon="5.66678">
        <ele>857</ele>
        <time>2019-11-29T14:20:34.000Z</time>
      </trkpt>
      <trkpt lat="43.31836" lon="5.66677">
        <ele>857</ele>
        <time>2019-11-29T14:20:35.000Z</time>
      </trkpt>
      <trkpt lat="43.31835" lon="5.66676">
        <ele>857</ele>
        <time>2019-11-29T14:20:36.000Z</time>
      </trkpt>
      <trkpt lat="43.31835" lon="5.66674">
        <ele>857</ele>
        <time>2019-11-29T14:20:37.000Z</time>
      </trkpt>
      <trkpt lat="43.31835" lon="5.66674">
        <ele>858</ele>
        <time>2019-11-29T14:20:38.000Z</time>
      </trkpt>
      <trkpt lat="43.31835" lon="5.66673">
        <ele>858</ele>
        <time>2019-11-29T14:20:39.000Z</time>
      </trkpt>
      <trkpt lat="43.31834" lon="5.66672">
        <ele>858</ele>
        <time>2019-11-29T14:20:40.000Z</time>
      </trkpt>
      <trkpt lat="43.31833" lon="5.6667">
        <ele>857</ele>
        <time>2019-11-29T14:20:41.000Z</time>
      </trkpt>
      <trkpt lat="43.31833" lon="5.66669">
        <ele>857</ele>
        <time>2019-11-29T14:20:42.000Z</time>
      </trkpt>
      <trkpt lat="43.31833" lon="5.66668">
        <ele>857</ele>
        <time>2019-11-29T14:20:43.000Z</time>
      </trkpt>
      <trkpt lat="43.31832" lon="5.66667">
        <ele>857</ele>
        <time>2019-11-29T14:20:44.000Z</time>
      </trkpt>
      <trkpt lat="43.31832" lon="5.66666">
        <ele>857</ele>
        <time>2019-11-29T14:20:45.000Z</time>
      </trkpt>
      <trkpt lat="43.31831" lon="5.66666">
        <ele>857</ele>
        <time>2019-11-29T14:20:46.000Z</time>
      </trkpt>
      <trkpt lat="43.31831" lon="5.66665">
        <ele>857</ele>
        <time>2019-11-29T14:20:47.000Z</time>
      </trkpt>
      <trkpt lat="43.31831" lon="5.66664">
        <ele>857</ele>
        <time>2019-11-29T14:20:48.000Z</time>
      </trkpt>
      <trkpt lat="43.31832" lon="5.66663">
        <ele>857</ele>
        <time>2019-11-29T14:20:49.000Z</time>
      </trkpt>
      <trkpt lat="43.31832" lon="5.66662">
        <ele>857</ele>
        <time>2019-11-29T14:20:50.000Z</time>
      </trkpt>
      <trkpt lat="43.31832" lon="5.66661">
        <ele>857</ele>
        <time>2019-11-29T14:20:51.000Z</time>
      </trkpt>
      <trkpt lat="43.31832" lon="5.6666">
        <ele>857</ele>
        <time>2019-11-29T14:20:52.000Z</time>
      </trkpt>
      <trkpt lat="43.31832" lon="5.66659">
        <ele>856</ele>
        <time>2019-11-29T14:20:53.000Z</time>
      </trkpt>
      <trkpt lat="43.31832" lon="5.66658">
        <ele>856</ele>
        <time>2019-11-29T14:20:54.000Z</time>
      </trkpt>
      <trkpt lat="43.31832" lon="5.66657">
        <ele>856</ele>
        <time>2019-11-29T14:20:55.000Z</time>
      </trkpt>
      <trkpt lat="43.31832" lon="5.66656">
        <ele>856</ele>
        <time>2019-11-29T14:20:56.000Z</time>
      </trkpt>
      <trkpt lat="43.31831" lon="5.66655">
        <ele>856</ele>
        <time>2019-11-29T14:20:57.000Z</time>
      </trkpt>
      <trkpt lat="43.31832" lon="5.66654">
        <ele>856</ele>
        <time>2019-11-29T14:20:58.000Z</time>
      </trkpt>
      <trkpt lat="43.31832" lon="5.66653">
        <ele>856</ele>
        <time>2019-11-29T14:20:59.000Z</time>
      </trkpt>
      <trkpt lat="43.31832" lon="5.66652">
        <ele>856</ele>
        <time>2019-11-29T14:21:00.000Z</time>
      </trkpt>
      <trkpt lat="43.31831" lon="5.66651">
        <ele>856</ele>
        <time>2019-11-29T14:21:01.000Z</time>
      </trkpt>
      <trkpt lat="43.31831" lon="5.66651">
        <ele>856</ele>
        <time>2019-11-29T14:21:02.000Z</time>
      </trkpt>
      <trkpt lat="43.31832" lon="5.66649">
        <ele>856</ele>
        <time>2019-11-29T14:21:03.000Z</time>
      </trkpt>
      <trkpt lat="43.31832" lon="5.66649">
        <ele>857</ele>
        <time>2019-11-29T14:21:04.000Z</time>
      </trkpt>
      <trkpt lat="43.31831" lon="5.66647">
        <ele>857</ele>
        <time>2019-11-29T14:21:05.000Z</time>
      </trkpt>
      <trkpt lat="43.31831" lon="5.66646">
        <ele>857</ele>
        <time>2019-11-29T14:21:06.000Z</time>
      </trkpt>
      <trkpt lat="43.31831" lon="5.66645">
        <ele>857</ele>
        <time>2019-11-29T14:21:07.000Z</time>
      </trkpt>
      <trkpt lat="43.31831" lon="5.66644">
        <ele>857</ele>
        <time>2019-11-29T14:21:08.000Z</time>
      </trkpt>
      <trkpt lat="43.31831" lon="5.66643">
        <ele>857</ele>
        <time>2019-11-29T14:21:09.000Z</time>
      </trkpt>
      <trkpt lat="43.31831" lon="5.66642">
        <ele>857</ele>
        <time>2019-11-29T14:21:10.000Z</time>
      </trkpt>
      <trkpt lat="43.31831" lon="5.66642">
        <ele>857</ele>
        <time>2019-11-29T14:21:11.000Z</time>
      </trkpt>
      <trkpt lat="43.31832" lon="5.66642">
        <ele>857</ele>
        <time>2019-11-29T14:21:12.000Z</time>
      </trkpt>
      <trkpt lat="43.31832" lon="5.66641">
        <ele>857</ele>
        <time>2019-11-29T14:21:13.000Z</time>
      </trkpt>
      <trkpt lat="43.31832" lon="5.66639">
        <ele>857</ele>
        <time>2019-11-29T14:21:14.000Z</time>
      </trkpt>
      <trkpt lat="43.31832" lon="5.66638">
        <ele>857</ele>
        <time>2019-11-29T14:21:15.000Z</time>
      </trkpt>
      <trkpt lat="43.31832" lon="5.66637">
        <ele>857</ele>
        <time>2019-11-29T14:21:16.000Z</time>
      </trkpt>
      <trkpt lat="43.31831" lon="5.66636">
        <ele>857</ele>
        <time>2019-11-29T14:21:17.000Z</time>
      </trkpt>
      <trkpt lat="43.31831" lon="5.66634">
        <ele>858</ele>
        <time>2019-11-29T14:21:18.000Z</time>
      </trkpt>
      <trkpt lat="43.31831" lon="5.66633">
        <ele>857</ele>
        <time>2019-11-29T14:21:19.000Z</time>
      </trkpt>
      <trkpt lat="43.31831" lon="5.66632">
        <ele>857</ele>
        <time>2019-11-29T14:21:20.000Z</time>
      </trkpt>
      <trkpt lat="43.31831" lon="5.66631">
        <ele>857</ele>
        <time>2019-11-29T14:21:21.000Z</time>
      </trkpt>
      <trkpt lat="43.3183" lon="5.66629">
        <ele>857</ele>
        <time>2019-11-29T14:21:22.000Z</time>
      </trkpt>
      <trkpt lat="43.31829" lon="5.66628">
        <ele>857</ele>
        <time>2019-11-29T14:21:23.000Z</time>
      </trkpt>
      <trkpt lat="43.31828" lon="5.66627">
        <ele>857</ele>
        <time>2019-11-29T14:21:24.000Z</time>
      </trkpt>
      <trkpt lat="43.31826" lon="5.66626">
        <ele>857</ele>
        <time>2019-11-29T14:21:25.000Z</time>
      </trkpt>
      <trkpt lat="43.31825" lon="5.66625">
        <ele>856</ele>
        <time>2019-11-29T14:21:26.000Z</time>
      </trkpt>
      <trkpt lat="43.31823" lon="5.66624">
        <ele>856</ele>
        <time>2019-11-29T14:21:27.000Z</time>
      </trkpt>
      <trkpt lat="43.31821" lon="5.66623">
        <ele>856</ele>
        <time>2019-11-29T14:21:28.000Z</time>
      </trkpt>
      <trkpt lat="43.31819" lon="5.66621">
        <ele>855</ele>
        <time>2019-11-29T14:21:29.000Z</time>
      </trkpt>
      <trkpt lat="43.31817" lon="5.6662">
        <ele>855</ele>
        <time>2019-11-29T14:21:30.000Z</time>
      </trkpt>
      <trkpt lat="43.31816" lon="5.66619">
        <ele>855</ele>
        <time>2019-11-29T14:21:31.000Z</time>
      </trkpt>
      <trkpt lat="43.31814" lon="5.66618">
        <ele>854</ele>
        <time>2019-11-29T14:21:32.000Z</time>
      </trkpt>
      <trkpt lat="43.31813" lon="5.66617">
        <ele>854</ele>
        <time>2019-11-29T14:21:33.000Z</time>
      </trkpt>
      <trkpt lat="43.31811" lon="5.66616">
        <ele>854</ele>
        <time>2019-11-29T14:21:34.000Z</time>
      </trkpt>
      <trkpt lat="43.3181" lon="5.66615">
        <ele>854</ele>
        <time>2019-11-29T14:21:35.000Z</time>
      </trkpt>
      <trkpt lat="43.31809" lon="5.66614">
        <ele>853</ele>
        <time>2019-11-29T14:21:36.000Z</time>
      </trkpt>
      <trkpt lat="43.31808" lon="5.66613">
        <ele>853</ele>
        <time>2019-11-29T14:21:37.000Z</time>
      </trkpt>
      <trkpt lat="43.31806" lon="5.66612">
        <ele>853</ele>
        <time>2019-11-29T14:21:38.000Z</time>
      </trkpt>
      <trkpt lat="43.31805" lon="5.66611">
        <ele>853</ele>
        <time>2019-11-29T14:21:39.000Z</time>
      </trkpt>
      <trkpt lat="43.31804" lon="5.66611">
        <ele>852</ele>
        <time>2019-11-29T14:21:40.000Z</time>
      </trkpt>
      <trkpt lat="43.31802" lon="5.6661">
        <ele>852</ele>
        <time>2019-11-29T14:21:41.000Z</time>
      </trkpt>
      <trkpt lat="43.31801" lon="5.66609">
        <ele>852</ele>
        <time>2019-11-29T14:21:42.000Z</time>
      </trkpt>
      <trkpt lat="43.31801" lon="5.66609">
        <ele>852</ele>
        <time>2019-11-29T14:21:43.000Z</time>
      </trkpt>
      <trkpt lat="43.318" lon="5.66608">
        <ele>852</ele>
        <time>2019-11-29T14:21:44.000Z</time>
      </trkpt>
      <trkpt lat="43.31799" lon="5.66608">
        <ele>852</ele>
        <time>2019-11-29T14:21:45.000Z</time>
      </trkpt>
      <trkpt lat="43.31799" lon="5.66608">
        <ele>852</ele>
        <time>2019-11-29T14:21:46.000Z</time>
      </trkpt>
      <trkpt lat="43.31798" lon="5.66608">
        <ele>852</ele>
        <time>2019-11-29T14:21:47.000Z</time>
      </trkpt>
      <trkpt lat="43.31798" lon="5.66608">
        <ele>852</ele>
        <time>2019-11-29T14:21:48.000Z</time>
      </trkpt>
      <trkpt lat="43.31798" lon="5.66608">
        <ele>852</ele>
        <time>2019-11-29T14:21:49.000Z</time>
      </trkpt>
      <trkpt lat="43.31798" lon="5.66608">
        <ele>852</ele>
        <time>2019-11-29T14:21:50.000Z</time>
      </trkpt>
      <trkpt lat="43.31797" lon="5.66608">
        <ele>852</ele>
        <time>2019-11-29T14:21:51.000Z</time>
      </trkpt>
      <trkpt lat="43.31797" lon="5.66608">
        <ele>852</ele>
        <time>2019-11-29T14:21:52.000Z</time>
      </trkpt>
      <trkpt lat="43.31797" lon="5.66607">
        <ele>852</ele>
        <time>2019-11-29T14:21:53.000Z</time>
      </trkpt>
      <trkpt lat="43.31796" lon="5.66607">
        <ele>851</ele>
        <time>2019-11-29T14:21:54.000Z</time>
      </trkpt>
      <trkpt lat="43.31796" lon="5.66607">
        <ele>851</ele>
        <time>2019-11-29T14:21:55.000Z</time>
      </trkpt>
      <trkpt lat="43.31796" lon="5.66606">
        <ele>851</ele>
        <time>2019-11-29T14:21:56.000Z</time>
      </trkpt>
      <trkpt lat="43.31795" lon="5.66606">
        <ele>851</ele>
        <time>2019-11-29T14:21:57.000Z</time>
      </trkpt>
      <trkpt lat="43.31795" lon="5.66606">
        <ele>851</ele>
        <time>2019-11-29T14:21:58.000Z</time>
      </trkpt>
      <trkpt lat="43.31794" lon="5.66605">
        <ele>851</ele>
        <time>2019-11-29T14:21:59.000Z</time>
      </trkpt>
      <trkpt lat="43.31794" lon="5.66605">
        <ele>851</ele>
        <time>2019-11-29T14:22:00.000Z</time>
      </trkpt>
      <trkpt lat="43.31793" lon="5.66604">
        <ele>851</ele>
        <time>2019-11-29T14:22:01.000Z</time>
      </trkpt>
      <trkpt lat="43.31793" lon="5.66603">
        <ele>851</ele>
        <time>2019-11-29T14:22:02.000Z</time>
      </trkpt>
      <trkpt lat="43.31793" lon="5.66602">
        <ele>851</ele>
        <time>2019-11-29T14:22:03.000Z</time>
      </trkpt>
      <trkpt lat="43.31793" lon="5.66602">
        <ele>850</ele>
        <time>2019-11-29T14:22:04.000Z</time>
      </trkpt>
      <trkpt lat="43.31793" lon="5.66602">
        <ele>850</ele>
        <time>2019-11-29T14:22:05.000Z</time>
      </trkpt>
      <trkpt lat="43.31793" lon="5.66602">
        <ele>850</ele>
        <time>2019-11-29T14:22:06.000Z</time>
      </trkpt>
      <trkpt lat="43.31793" lon="5.66601">
        <ele>850</ele>
        <time>2019-11-29T14:22:07.000Z</time>
      </trkpt>
      <trkpt lat="43.31793" lon="5.66601">
        <ele>850</ele>
        <time>2019-11-29T14:22:08.000Z</time>
      </trkpt>
      <trkpt lat="43.31793" lon="5.666">
        <ele>850</ele>
        <time>2019-11-29T14:22:09.000Z</time>
      </trkpt>
      <trkpt lat="43.31793" lon="5.666">
        <ele>850</ele>
        <time>2019-11-29T14:22:10.000Z</time>
      </trkpt>
      <trkpt lat="43.31792" lon="5.66599">
        <ele>850</ele>
        <time>2019-11-29T14:22:11.000Z</time>
      </trkpt>
      <trkpt lat="43.31792" lon="5.66599">
        <ele>850</ele>
        <time>2019-11-29T14:22:12.000Z</time>
      </trkpt>
      <trkpt lat="43.31792" lon="5.66598">
        <ele>850</ele>
        <time>2019-11-29T14:22:13.000Z</time>
      </trkpt>
      <trkpt lat="43.31792" lon="5.66598">
        <ele>850</ele>
        <time>2019-11-29T14:22:14.000Z</time>
      </trkpt>
      <trkpt lat="43.31792" lon="5.66597">
        <ele>849</ele>
        <time>2019-11-29T14:22:15.000Z</time>
      </trkpt>
      <trkpt lat="43.31792" lon="5.66596">
        <ele>849</ele>
        <time>2019-11-29T14:22:16.000Z</time>
      </trkpt>
      <trkpt lat="43.31792" lon="5.66596">
        <ele>849</ele>
        <time>2019-11-29T14:22:17.000Z</time>
      </trkpt>
      <trkpt lat="43.31791" lon="5.66595">
        <ele>849</ele>
        <time>2019-11-29T14:22:18.000Z</time>
      </trkpt>
      <trkpt lat="43.31791" lon="5.66595">
        <ele>849</ele>
        <time>2019-11-29T14:22:19.000Z</time>
      </trkpt>
      <trkpt lat="43.31791" lon="5.66595">
        <ele>849</ele>
        <time>2019-11-29T14:22:20.000Z</time>
      </trkpt>
      <trkpt lat="43.31791" lon="5.66595">
        <ele>849</ele>
        <time>2019-11-29T14:22:21.000Z</time>
      </trkpt>
      <trkpt lat="43.3179" lon="5.66595">
        <ele>849</ele>
        <time>2019-11-29T14:22:22.000Z</time>
      </trkpt>
      <trkpt lat="43.3179" lon="5.66595">
        <ele>849</ele>
        <time>2019-11-29T14:22:23.000Z</time>
      </trkpt>
      <trkpt lat="43.31789" lon="5.66595">
        <ele>849</ele>
        <time>2019-11-29T14:22:24.000Z</time>
      </trkpt>
      <trkpt lat="43.31789" lon="5.66595">
        <ele>849</ele>
        <time>2019-11-29T14:22:25.000Z</time>
      </trkpt>
      <trkpt lat="43.31789" lon="5.66594">
        <ele>849</ele>
        <time>2019-11-29T14:22:26.000Z</time>
      </trkpt>
      <trkpt lat="43.31789" lon="5.66594">
        <ele>849</ele>
        <time>2019-11-29T14:22:27.000Z</time>
      </trkpt>
      <trkpt lat="43.31789" lon="5.66594">
        <ele>849</ele>
        <time>2019-11-29T14:22:28.000Z</time>
      </trkpt>
      <trkpt lat="43.31789" lon="5.66593">
        <ele>849</ele>
        <time>2019-11-29T14:22:29.000Z</time>
      </trkpt>
      <trkpt lat="43.31789" lon="5.66592">
        <ele>849</ele>
        <time>2019-11-29T14:22:30.000Z</time>
      </trkpt>
      <trkpt lat="43.31789" lon="5.66592">
        <ele>849</ele>
        <time>2019-11-29T14:22:31.000Z</time>
      </trkpt>
      <trkpt lat="43.31789" lon="5.66591">
        <ele>848</ele>
        <time>2019-11-29T14:22:32.000Z</time>
      </trkpt>
      <trkpt lat="43.31789" lon="5.6659">
        <ele>848</ele>
        <time>2019-11-29T14:22:33.000Z</time>
      </trkpt>
      <trkpt lat="43.3179" lon="5.66589">
        <ele>848</ele>
        <time>2019-11-29T14:22:34.000Z</time>
      </trkpt>
      <trkpt lat="43.3179" lon="5.66588">
        <ele>847</ele>
        <time>2019-11-29T14:22:35.000Z</time>
      </trkpt>
      <trkpt lat="43.3179" lon="5.66587">
        <ele>847</ele>
        <time>2019-11-29T14:22:36.000Z</time>
      </trkpt>
      <trkpt lat="43.3179" lon="5.66587">
        <ele>846</ele>
        <time>2019-11-29T14:22:37.000Z</time>
      </trkpt>
      <trkpt lat="43.31791" lon="5.66585">
        <ele>846</ele>
        <time>2019-11-29T14:22:38.000Z</time>
      </trkpt>
      <trkpt lat="43.31791" lon="5.66584">
        <ele>845</ele>
        <time>2019-11-29T14:22:39.000Z</time>
      </trkpt>
      <trkpt lat="43.31792" lon="5.66583">
        <ele>845</ele>
        <time>2019-11-29T14:22:40.000Z</time>
      </trkpt>
      <trkpt lat="43.31792" lon="5.66583">
        <ele>844</ele>
        <time>2019-11-29T14:22:41.000Z</time>
      </trkpt>
      <trkpt lat="43.31793" lon="5.66582">
        <ele>844</ele>
        <time>2019-11-29T14:22:42.000Z</time>
      </trkpt>
      <trkpt lat="43.31793" lon="5.66582">
        <ele>844</ele>
        <time>2019-11-29T14:22:43.000Z</time>
      </trkpt>
      <trkpt lat="43.31794" lon="5.66581">
        <ele>843</ele>
        <time>2019-11-29T14:22:44.000Z</time>
      </trkpt>
      <trkpt lat="43.31795" lon="5.6658">
        <ele>843</ele>
        <time>2019-11-29T14:22:45.000Z</time>
      </trkpt>
      <trkpt lat="43.31796" lon="5.6658">
        <ele>842</ele>
        <time>2019-11-29T14:22:46.000Z</time>
      </trkpt>
      <trkpt lat="43.31797" lon="5.66579">
        <ele>842</ele>
        <time>2019-11-29T14:22:47.000Z</time>
      </trkpt>
      <trkpt lat="43.31797" lon="5.66579">
        <ele>842</ele>
        <time>2019-11-29T14:22:48.000Z</time>
      </trkpt>
      <trkpt lat="43.31797" lon="5.66579">
        <ele>841</ele>
        <time>2019-11-29T14:22:49.000Z</time>
      </trkpt>
      <trkpt lat="43.31796" lon="5.66578">
        <ele>841</ele>
        <time>2019-11-29T14:22:50.000Z</time>
      </trkpt>
      <trkpt lat="43.31796" lon="5.66577">
        <ele>841</ele>
        <time>2019-11-29T14:22:51.000Z</time>
      </trkpt>
      <trkpt lat="43.31796" lon="5.66577">
        <ele>841</ele>
        <time>2019-11-29T14:22:52.000Z</time>
      </trkpt>
      <trkpt lat="43.31795" lon="5.66576">
        <ele>841</ele>
        <time>2019-11-29T14:22:53.000Z</time>
      </trkpt>
      <trkpt lat="43.31794" lon="5.66575">
        <ele>841</ele>
        <time>2019-11-29T14:22:54.000Z</time>
      </trkpt>
      <trkpt lat="43.31794" lon="5.66575">
        <ele>841</ele>
        <time>2019-11-29T14:22:55.000Z</time>
      </trkpt>
      <trkpt lat="43.31793" lon="5.66574">
        <ele>840</ele>
        <time>2019-11-29T14:22:56.000Z</time>
      </trkpt>
      <trkpt lat="43.31792" lon="5.66574">
        <ele>840</ele>
        <time>2019-11-29T14:22:57.000Z</time>
      </trkpt>
      <trkpt lat="43.31791" lon="5.66574">
        <ele>840</ele>
        <time>2019-11-29T14:22:58.000Z</time>
      </trkpt>
      <trkpt lat="43.3179" lon="5.66573">
        <ele>840</ele>
        <time>2019-11-29T14:22:59.000Z</time>
      </trkpt>
      <trkpt lat="43.31789" lon="5.66572">
        <ele>840</ele>
        <time>2019-11-29T14:23:00.000Z</time>
      </trkpt>
      <trkpt lat="43.31789" lon="5.66571">
        <ele>840</ele>
        <time>2019-11-29T14:23:01.000Z</time>
      </trkpt>
      <trkpt lat="43.31789" lon="5.66571">
        <ele>840</ele>
        <time>2019-11-29T14:23:02.000Z</time>
      </trkpt>
      <trkpt lat="43.31789" lon="5.66571">
        <ele>839</ele>
        <time>2019-11-29T14:23:03.000Z</time>
      </trkpt>
      <trkpt lat="43.31789" lon="5.66571">
        <ele>839</ele>
        <time>2019-11-29T14:23:04.000Z</time>
      </trkpt>
      <trkpt lat="43.31789" lon="5.66571">
        <ele>839</ele>
        <time>2019-11-29T14:23:05.000Z</time>
      </trkpt>
      <trkpt lat="43.3179" lon="5.66571">
        <ele>839</ele>
        <time>2019-11-29T14:23:06.000Z</time>
      </trkpt>
      <trkpt lat="43.3179" lon="5.6657">
        <ele>839</ele>
        <time>2019-11-29T14:23:07.000Z</time>
      </trkpt>
      <trkpt lat="43.31791" lon="5.66569">
        <ele>838</ele>
        <time>2019-11-29T14:23:08.000Z</time>
      </trkpt>
      <trkpt lat="43.31792" lon="5.66569">
        <ele>838</ele>
        <time>2019-11-29T14:23:09.000Z</time>
      </trkpt>
      <trkpt lat="43.31792" lon="5.66569">
        <ele>838</ele>
        <time>2019-11-29T14:23:10.000Z</time>
      </trkpt>
      <trkpt lat="43.31793" lon="5.66568">
        <ele>837</ele>
        <time>2019-11-29T14:23:11.000Z</time>
      </trkpt>
      <trkpt lat="43.31793" lon="5.66568">
        <ele>837</ele>
        <time>2019-11-29T14:23:12.000Z</time>
      </trkpt>
      <trkpt lat="43.31794" lon="5.66568">
        <ele>836</ele>
        <time>2019-11-29T14:23:13.000Z</time>
      </trkpt>
      <trkpt lat="43.31794" lon="5.66568">
        <ele>836</ele>
        <time>2019-11-29T14:23:14.000Z</time>
      </trkpt>
      <trkpt lat="43.31795" lon="5.66567">
        <ele>836</ele>
        <time>2019-11-29T14:23:15.000Z</time>
      </trkpt>
      <trkpt lat="43.31795" lon="5.66567">
        <ele>835</ele>
        <time>2019-11-29T14:23:16.000Z</time>
      </trkpt>
      <trkpt lat="43.31796" lon="5.66566">
        <ele>835</ele>
        <time>2019-11-29T14:23:17.000Z</time>
      </trkpt>
      <trkpt lat="43.31796" lon="5.66566">
        <ele>834</ele>
        <time>2019-11-29T14:23:18.000Z</time>
      </trkpt>
      <trkpt lat="43.31797" lon="5.66565">
        <ele>834</ele>
        <time>2019-11-29T14:23:19.000Z</time>
      </trkpt>
      <trkpt lat="43.31797" lon="5.66565">
        <ele>834</ele>
        <time>2019-11-29T14:23:20.000Z</time>
      </trkpt>
      <trkpt lat="43.31796" lon="5.66564">
        <ele>833</ele>
        <time>2019-11-29T14:23:21.000Z</time>
      </trkpt>
      <trkpt lat="43.31796" lon="5.66564">
        <ele>833</ele>
        <time>2019-11-29T14:23:22.000Z</time>
      </trkpt>
      <trkpt lat="43.31796" lon="5.66563">
        <ele>833</ele>
        <time>2019-11-29T14:23:23.000Z</time>
      </trkpt>
      <trkpt lat="43.31795" lon="5.66563">
        <ele>833</ele>
        <time>2019-11-29T14:23:24.000Z</time>
      </trkpt>
      <trkpt lat="43.31794" lon="5.66562">
        <ele>832</ele>
        <time>2019-11-29T14:23:25.000Z</time>
      </trkpt>
      <trkpt lat="43.31794" lon="5.66561">
        <ele>832</ele>
        <time>2019-11-29T14:23:26.000Z</time>
      </trkpt>
      <trkpt lat="43.31794" lon="5.66559">
        <ele>832</ele>
        <time>2019-11-29T14:23:27.000Z</time>
      </trkpt>
      <trkpt lat="43.31794" lon="5.66558">
        <ele>832</ele>
        <time>2019-11-29T14:23:28.000Z</time>
      </trkpt>
      <trkpt lat="43.31795" lon="5.66558">
        <ele>831</ele>
        <time>2019-11-29T14:23:29.000Z</time>
      </trkpt>
      <trkpt lat="43.31796" lon="5.66558">
        <ele>831</ele>
        <time>2019-11-29T14:23:30.000Z</time>
      </trkpt>
      <trkpt lat="43.31796" lon="5.66557">
        <ele>831</ele>
        <time>2019-11-29T14:23:31.000Z</time>
      </trkpt>
      <trkpt lat="43.31795" lon="5.66557">
        <ele>830</ele>
        <time>2019-11-29T14:23:32.000Z</time>
      </trkpt>
      <trkpt lat="43.31795" lon="5.66556">
        <ele>830</ele>
        <time>2019-11-29T14:23:33.000Z</time>
      </trkpt>
      <trkpt lat="43.31794" lon="5.66555">
        <ele>830</ele>
        <time>2019-11-29T14:23:34.000Z</time>
      </trkpt>
      <trkpt lat="43.31794" lon="5.66554">
        <ele>830</ele>
        <time>2019-11-29T14:23:35.000Z</time>
      </trkpt>
      <trkpt lat="43.31795" lon="5.66553">
        <ele>830</ele>
        <time>2019-11-29T14:23:36.000Z</time>
      </trkpt>
      <trkpt lat="43.31795" lon="5.66553">
        <ele>830</ele>
        <time>2019-11-29T14:23:37.000Z</time>
      </trkpt>
      <trkpt lat="43.31795" lon="5.66552">
        <ele>829</ele>
        <time>2019-11-29T14:23:38.000Z</time>
      </trkpt>
      <trkpt lat="43.31795" lon="5.66551">
        <ele>829</ele>
        <time>2019-11-29T14:23:39.000Z</time>
      </trkpt>
      <trkpt lat="43.31795" lon="5.6655">
        <ele>829</ele>
        <time>2019-11-29T14:23:40.000Z</time>
      </trkpt>
      <trkpt lat="43.31795" lon="5.66549">
        <ele>829</ele>
        <time>2019-11-29T14:23:41.000Z</time>
      </trkpt>
      <trkpt lat="43.31795" lon="5.66548">
        <ele>829</ele>
        <time>2019-11-29T14:23:42.000Z</time>
      </trkpt>
      <trkpt lat="43.31794" lon="5.66547">
        <ele>829</ele>
        <time>2019-11-29T14:23:43.000Z</time>
      </trkpt>
      <trkpt lat="43.31794" lon="5.66546">
        <ele>829</ele>
        <time>2019-11-29T14:23:44.000Z</time>
      </trkpt>
      <trkpt lat="43.31793" lon="5.66545">
        <ele>828</ele>
        <time>2019-11-29T14:23:45.000Z</time>
      </trkpt>
      <trkpt lat="43.31793" lon="5.66544">
        <ele>828</ele>
        <time>2019-11-29T14:23:46.000Z</time>
      </trkpt>
      <trkpt lat="43.31792" lon="5.66543">
        <ele>828</ele>
        <time>2019-11-29T14:23:47.000Z</time>
      </trkpt>
      <trkpt lat="43.31792" lon="5.66542">
        <ele>828</ele>
        <time>2019-11-29T14:23:48.000Z</time>
      </trkpt>
      <trkpt lat="43.31791" lon="5.6654">
        <ele>828</ele>
        <time>2019-11-29T14:23:49.000Z</time>
      </trkpt>
      <trkpt lat="43.31791" lon="5.6654">
        <ele>827</ele>
        <time>2019-11-29T14:23:50.000Z</time>
      </trkpt>
      <trkpt lat="43.3179" lon="5.66539">
        <ele>827</ele>
        <time>2019-11-29T14:23:51.000Z</time>
      </trkpt>
      <trkpt lat="43.31789" lon="5.66538">
        <ele>827</ele>
        <time>2019-11-29T14:23:52.000Z</time>
      </trkpt>
      <trkpt lat="43.31789" lon="5.66537">
        <ele>827</ele>
        <time>2019-11-29T14:23:53.000Z</time>
      </trkpt>
      <trkpt lat="43.31788" lon="5.66536">
        <ele>827</ele>
        <time>2019-11-29T14:23:54.000Z</time>
      </trkpt>
      <trkpt lat="43.31788" lon="5.66535">
        <ele>826</ele>
        <time>2019-11-29T14:23:55.000Z</time>
      </trkpt>
      <trkpt lat="43.31788" lon="5.66534">
        <ele>826</ele>
        <time>2019-11-29T14:23:56.000Z</time>
      </trkpt>
      <trkpt lat="43.31789" lon="5.66533">
        <ele>826</ele>
        <time>2019-11-29T14:23:57.000Z</time>
      </trkpt>
      <trkpt lat="43.3179" lon="5.66532">
        <ele>825</ele>
        <time>2019-11-29T14:23:58.000Z</time>
      </trkpt>
      <trkpt lat="43.3179" lon="5.66532">
        <ele>825</ele>
        <time>2019-11-29T14:23:59.000Z</time>
      </trkpt>
      <trkpt lat="43.31791" lon="5.66531">
        <ele>824</ele>
        <time>2019-11-29T14:24:00.000Z</time>
      </trkpt>
      <trkpt lat="43.31791" lon="5.6653">
        <ele>824</ele>
        <time>2019-11-29T14:24:01.000Z</time>
      </trkpt>
      <trkpt lat="43.31791" lon="5.6653">
        <ele>824</ele>
        <time>2019-11-29T14:24:02.000Z</time>
      </trkpt>
      <trkpt lat="43.31791" lon="5.66529">
        <ele>823</ele>
        <time>2019-11-29T14:24:03.000Z</time>
      </trkpt>
      <trkpt lat="43.31791" lon="5.66528">
        <ele>823</ele>
        <time>2019-11-29T14:24:04.000Z</time>
      </trkpt>
      <trkpt lat="43.31791" lon="5.66527">
        <ele>823</ele>
        <time>2019-11-29T14:24:05.000Z</time>
      </trkpt>
      <trkpt lat="43.31791" lon="5.66526">
        <ele>822</ele>
        <time>2019-11-29T14:24:06.000Z</time>
      </trkpt>
      <trkpt lat="43.31791" lon="5.66525">
        <ele>822</ele>
        <time>2019-11-29T14:24:07.000Z</time>
      </trkpt>
      <trkpt lat="43.31791" lon="5.66525">
        <ele>822</ele>
        <time>2019-11-29T14:24:08.000Z</time>
      </trkpt>
      <trkpt lat="43.31791" lon="5.66524">
        <ele>821</ele>
        <time>2019-11-29T14:24:09.000Z</time>
      </trkpt>
      <trkpt lat="43.31791" lon="5.66523">
        <ele>821</ele>
        <time>2019-11-29T14:24:10.000Z</time>
      </trkpt>
      <trkpt lat="43.31791" lon="5.66522">
        <ele>821</ele>
        <time>2019-11-29T14:24:11.000Z</time>
      </trkpt>
      <trkpt lat="43.31791" lon="5.66521">
        <ele>820</ele>
        <time>2019-11-29T14:24:12.000Z</time>
      </trkpt>
      <trkpt lat="43.3179" lon="5.6652">
        <ele>820</ele>
        <time>2019-11-29T14:24:13.000Z</time>
      </trkpt>
      <trkpt lat="43.31791" lon="5.66519">
        <ele>820</ele>
        <time>2019-11-29T14:24:14.000Z</time>
      </trkpt>
      <trkpt lat="43.3179" lon="5.66518">
        <ele>820</ele>
        <time>2019-11-29T14:24:15.000Z</time>
      </trkpt>
      <trkpt lat="43.3179" lon="5.66517">
        <ele>820</ele>
        <time>2019-11-29T14:24:16.000Z</time>
      </trkpt>
      <trkpt lat="43.31791" lon="5.66517">
        <ele>819</ele>
        <time>2019-11-29T14:24:17.000Z</time>
      </trkpt>
      <trkpt lat="43.31791" lon="5.66516">
        <ele>819</ele>
        <time>2019-11-29T14:24:18.000Z</time>
      </trkpt>
      <trkpt lat="43.31791" lon="5.66516">
        <ele>818</ele>
        <time>2019-11-29T14:24:19.000Z</time>
      </trkpt>
      <trkpt lat="43.31791" lon="5.66515">
        <ele>818</ele>
        <time>2019-11-29T14:24:20.000Z</time>
      </trkpt>
      <trkpt lat="43.31791" lon="5.66514">
        <ele>818</ele>
        <time>2019-11-29T14:24:21.000Z</time>
      </trkpt>
      <trkpt lat="43.31791" lon="5.66513">
        <ele>817</ele>
        <time>2019-11-29T14:24:22.000Z</time>
      </trkpt>
      <trkpt lat="43.31791" lon="5.66512">
        <ele>817</ele>
        <time>2019-11-29T14:24:23.000Z</time>
      </trkpt>
      <trkpt lat="43.31791" lon="5.66511">
        <ele>817</ele>
        <time>2019-11-29T14:24:24.000Z</time>
      </trkpt>
      <trkpt lat="43.31791" lon="5.6651">
        <ele>817</ele>
        <time>2019-11-29T14:24:25.000Z</time>
      </trkpt>
      <trkpt lat="43.31791" lon="5.66509">
        <ele>816</ele>
        <time>2019-11-29T14:24:26.000Z</time>
      </trkpt>
      <trkpt lat="43.31791" lon="5.66508">
        <ele>816</ele>
        <time>2019-11-29T14:24:27.000Z</time>
      </trkpt>
      <trkpt lat="43.31791" lon="5.66507">
        <ele>816</ele>
        <time>2019-11-29T14:24:28.000Z</time>
      </trkpt>
      <trkpt lat="43.3179" lon="5.66506">
        <ele>816</ele>
        <time>2019-11-29T14:24:29.000Z</time>
      </trkpt>
      <trkpt lat="43.3179" lon="5.66505">
        <ele>816</ele>
        <time>2019-11-29T14:24:30.000Z</time>
      </trkpt>
      <trkpt lat="43.3179" lon="5.66504">
        <ele>815</ele>
        <time>2019-11-29T14:24:31.000Z</time>
      </trkpt>
      <trkpt lat="43.31789" lon="5.66503">
        <ele>815</ele>
        <time>2019-11-29T14:24:32.000Z</time>
      </trkpt>
      <trkpt lat="43.31789" lon="5.66503">
        <ele>815</ele>
        <time>2019-11-29T14:24:33.000Z</time>
      </trkpt>
      <trkpt lat="43.31788" lon="5.66502">
        <ele>815</ele>
        <time>2019-11-29T14:24:34.000Z</time>
      </trkpt>
      <trkpt lat="43.31788" lon="5.66501">
        <ele>815</ele>
        <time>2019-11-29T14:24:35.000Z</time>
      </trkpt>
      <trkpt lat="43.31788" lon="5.665">
        <ele>815</ele>
        <time>2019-11-29T14:24:36.000Z</time>
      </trkpt>
      <trkpt lat="43.31788" lon="5.66499">
        <ele>815</ele>
        <time>2019-11-29T14:24:37.000Z</time>
      </trkpt>
      <trkpt lat="43.31788" lon="5.66498">
        <ele>814</ele>
        <time>2019-11-29T14:24:38.000Z</time>
      </trkpt>
      <trkpt lat="43.31787" lon="5.66497">
        <ele>814</ele>
        <time>2019-11-29T14:24:39.000Z</time>
      </trkpt>
      <trkpt lat="43.31787" lon="5.66496">
        <ele>814</ele>
        <time>2019-11-29T14:24:40.000Z</time>
      </trkpt>
      <trkpt lat="43.31786" lon="5.66494">
        <ele>814</ele>
        <time>2019-11-29T14:24:41.000Z</time>
      </trkpt>
      <trkpt lat="43.31786" lon="5.66493">
        <ele>814</ele>
        <time>2019-11-29T14:24:42.000Z</time>
      </trkpt>
      <trkpt lat="43.31786" lon="5.66492">
        <ele>813</ele>
        <time>2019-11-29T14:24:43.000Z</time>
      </trkpt>
      <trkpt lat="43.31786" lon="5.66491">
        <ele>813</ele>
        <time>2019-11-29T14:24:44.000Z</time>
      </trkpt>
      <trkpt lat="43.31786" lon="5.6649">
        <ele>813</ele>
        <time>2019-11-29T14:24:45.000Z</time>
      </trkpt>
      <trkpt lat="43.31786" lon="5.66489">
        <ele>812</ele>
        <time>2019-11-29T14:24:46.000Z</time>
      </trkpt>
      <trkpt lat="43.31786" lon="5.66487">
        <ele>812</ele>
        <time>2019-11-29T14:24:47.000Z</time>
      </trkpt>
      <trkpt lat="43.31786" lon="5.66486">
        <ele>812</ele>
        <time>2019-11-29T14:24:48.000Z</time>
      </trkpt>
      <trkpt lat="43.31785" lon="5.66486">
        <ele>812</ele>
        <time>2019-11-29T14:24:49.000Z</time>
      </trkpt>
      <trkpt lat="43.31786" lon="5.66485">
        <ele>811</ele>
        <time>2019-11-29T14:24:50.000Z</time>
      </trkpt>
      <trkpt lat="43.31785" lon="5.66485">
        <ele>811</ele>
        <time>2019-11-29T14:24:51.000Z</time>
      </trkpt>
      <trkpt lat="43.31785" lon="5.66485">
        <ele>811</ele>
        <time>2019-11-29T14:24:52.000Z</time>
      </trkpt>
      <trkpt lat="43.31785" lon="5.66485">
        <ele>811</ele>
        <time>2019-11-29T14:24:53.000Z</time>
      </trkpt>
      <trkpt lat="43.31785" lon="5.66485">
        <ele>811</ele>
        <time>2019-11-29T14:24:54.000Z</time>
      </trkpt>
      <trkpt lat="43.31786" lon="5.66485">
        <ele>810</ele>
        <time>2019-11-29T14:24:55.000Z</time>
      </trkpt>
      <trkpt lat="43.31785" lon="5.66485">
        <ele>810</ele>
        <time>2019-11-29T14:24:56.000Z</time>
      </trkpt>
      <trkpt lat="43.31785" lon="5.66485">
        <ele>810</ele>
        <time>2019-11-29T14:24:57.000Z</time>
      </trkpt>
      <trkpt lat="43.31785" lon="5.66485">
        <ele>810</ele>
        <time>2019-11-29T14:24:58.000Z</time>
      </trkpt>
      <trkpt lat="43.31785" lon="5.66485">
        <ele>810</ele>
        <time>2019-11-29T14:24:59.000Z</time>
      </trkpt>
      <trkpt lat="43.31785" lon="5.66485">
        <ele>810</ele>
        <time>2019-11-29T14:25:00.000Z</time>
      </trkpt>
      <trkpt lat="43.31785" lon="5.66485">
        <ele>810</ele>
        <time>2019-11-29T14:25:01.000Z</time>
      </trkpt>
      <trkpt lat="43.31785" lon="5.66485">
        <ele>809</ele>
        <time>2019-11-29T14:25:02.000Z</time>
      </trkpt>
      <trkpt lat="43.31785" lon="5.66485">
        <ele>809</ele>
        <time>2019-11-29T14:25:03.000Z</time>
      </trkpt>
      <trkpt lat="43.31785" lon="5.66485">
        <ele>809</ele>
        <time>2019-11-29T14:25:04.000Z</time>
      </trkpt>
      <trkpt lat="43.31785" lon="5.66485">
        <ele>809</ele>
        <time>2019-11-29T14:25:05.000Z</time>
      </trkpt>
      <trkpt lat="43.31785" lon="5.66485">
        <ele>809</ele>
        <time>2019-11-29T14:25:06.000Z</time>
      </trkpt>
      <trkpt lat="43.31785" lon="5.66485">
        <ele>809</ele>
        <time>2019-11-29T14:25:07.000Z</time>
      </trkpt>
      <trkpt lat="43.31784" lon="5.66485">
        <ele>809</ele>
        <time>2019-11-29T14:25:08.000Z</time>
      </trkpt>
      <trkpt lat="43.31784" lon="5.66485">
        <ele>809</ele>
        <time>2019-11-29T14:25:09.000Z</time>
      </trkpt>
      <trkpt lat="43.31784" lon="5.66485">
        <ele>808</ele>
        <time>2019-11-29T14:25:10.000Z</time>
      </trkpt>
      <trkpt lat="43.31784" lon="5.66485">
        <ele>808</ele>
        <time>2019-11-29T14:25:11.000Z</time>
      </trkpt>
      <trkpt lat="43.31784" lon="5.66485">
        <ele>808</ele>
        <time>2019-11-29T14:25:12.000Z</time>
      </trkpt>
      <trkpt lat="43.31784" lon="5.66484">
        <ele>808</ele>
        <time>2019-11-29T14:25:13.000Z</time>
      </trkpt>
      <trkpt lat="43.31784" lon="5.66484">
        <ele>808</ele>
        <time>2019-11-29T14:25:14.000Z</time>
      </trkpt>
      <trkpt lat="43.31784" lon="5.66484">
        <ele>808</ele>
        <time>2019-11-29T14:25:15.000Z</time>
      </trkpt>
      <trkpt lat="43.31784" lon="5.66484">
        <ele>808</ele>
        <time>2019-11-29T14:25:16.000Z</time>
      </trkpt>
      <trkpt lat="43.31784" lon="5.66484">
        <ele>808</ele>
        <time>2019-11-29T14:25:17.000Z</time>
      </trkpt>
      <trkpt lat="43.31784" lon="5.66485">
        <ele>808</ele>
        <time>2019-11-29T14:25:18.000Z</time>
      </trkpt>
      <trkpt lat="43.31784" lon="5.66485">
        <ele>808</ele>
        <time>2019-11-29T14:25:19.000Z</time>
      </trkpt>
      <trkpt lat="43.31784" lon="5.66484">
        <ele>808</ele>
        <time>2019-11-29T14:25:20.000Z</time>
      </trkpt>
      <trkpt lat="43.31784" lon="5.66484">
        <ele>808</ele>
        <time>2019-11-29T14:25:21.000Z</time>
      </trkpt>
      <trkpt lat="43.31784" lon="5.66484">
        <ele>808</ele>
        <time>2019-11-29T14:25:22.000Z</time>
      </trkpt>
      <trkpt lat="43.31784" lon="5.66484">
        <ele>807</ele>
        <time>2019-11-29T14:25:23.000Z</time>
      </trkpt>
      <trkpt lat="43.31784" lon="5.66483">
        <ele>807</ele>
        <time>2019-11-29T14:25:24.000Z</time>
      </trkpt>
      <trkpt lat="43.31784" lon="5.66483">
        <ele>807</ele>
        <time>2019-11-29T14:25:25.000Z</time>
      </trkpt>
      <trkpt lat="43.31783" lon="5.66482">
        <ele>807</ele>
        <time>2019-11-29T14:25:26.000Z</time>
      </trkpt>
      <trkpt lat="43.31783" lon="5.6648">
        <ele>807</ele>
        <time>2019-11-29T14:25:27.000Z</time>
      </trkpt>
      <trkpt lat="43.31783" lon="5.66479">
        <ele>807</ele>
        <time>2019-11-29T14:25:28.000Z</time>
      </trkpt>
      <trkpt lat="43.31782" lon="5.66478">
        <ele>807</ele>
        <time>2019-11-29T14:25:29.000Z</time>
      </trkpt>
      <trkpt lat="43.31782" lon="5.66477">
        <ele>807</ele>
        <time>2019-11-29T14:25:30.000Z</time>
      </trkpt>
      <trkpt lat="43.31781" lon="5.66476">
        <ele>806</ele>
        <time>2019-11-29T14:25:31.000Z</time>
      </trkpt>
      <trkpt lat="43.31781" lon="5.66475">
        <ele>806</ele>
        <time>2019-11-29T14:25:32.000Z</time>
      </trkpt>
      <trkpt lat="43.3178" lon="5.66475">
        <ele>806</ele>
        <time>2019-11-29T14:25:33.000Z</time>
      </trkpt>
      <trkpt lat="43.3178" lon="5.66474">
        <ele>806</ele>
        <time>2019-11-29T14:25:34.000Z</time>
      </trkpt>
      <trkpt lat="43.31779" lon="5.66473">
        <ele>806</ele>
        <time>2019-11-29T14:25:35.000Z</time>
      </trkpt>
      <trkpt lat="43.31779" lon="5.66472">
        <ele>805</ele>
        <time>2019-11-29T14:25:36.000Z</time>
      </trkpt>
      <trkpt lat="43.31779" lon="5.66472">
        <ele>805</ele>
        <time>2019-11-29T14:25:37.000Z</time>
      </trkpt>
      <trkpt lat="43.31779" lon="5.66472">
        <ele>805</ele>
        <time>2019-11-29T14:25:38.000Z</time>
      </trkpt>
      <trkpt lat="43.31779" lon="5.66471">
        <ele>805</ele>
        <time>2019-11-29T14:25:39.000Z</time>
      </trkpt>
      <trkpt lat="43.31778" lon="5.66471">
        <ele>805</ele>
        <time>2019-11-29T14:25:40.000Z</time>
      </trkpt>
      <trkpt lat="43.31778" lon="5.66471">
        <ele>805</ele>
        <time>2019-11-29T14:25:41.000Z</time>
      </trkpt>
      <trkpt lat="43.31778" lon="5.66469">
        <ele>805</ele>
        <time>2019-11-29T14:25:42.000Z</time>
      </trkpt>
      <trkpt lat="43.31778" lon="5.66469">
        <ele>804</ele>
        <time>2019-11-29T14:25:43.000Z</time>
      </trkpt>
      <trkpt lat="43.31777" lon="5.66467">
        <ele>804</ele>
        <time>2019-11-29T14:25:44.000Z</time>
      </trkpt>
      <trkpt lat="43.31776" lon="5.66466">
        <ele>804</ele>
        <time>2019-11-29T14:25:45.000Z</time>
      </trkpt>
      <trkpt lat="43.31776" lon="5.66465">
        <ele>804</ele>
        <time>2019-11-29T14:25:46.000Z</time>
      </trkpt>
      <trkpt lat="43.31775" lon="5.66464">
        <ele>804</ele>
        <time>2019-11-29T14:25:47.000Z</time>
      </trkpt>
      <trkpt lat="43.31775" lon="5.66462">
        <ele>804</ele>
        <time>2019-11-29T14:25:48.000Z</time>
      </trkpt>
      <trkpt lat="43.31775" lon="5.66461">
        <ele>804</ele>
        <time>2019-11-29T14:25:49.000Z</time>
      </trkpt>
      <trkpt lat="43.31774" lon="5.66459">
        <ele>803</ele>
        <time>2019-11-29T14:25:50.000Z</time>
      </trkpt>
      <trkpt lat="43.31774" lon="5.66457">
        <ele>803</ele>
        <time>2019-11-29T14:25:51.000Z</time>
      </trkpt>
      <trkpt lat="43.31773" lon="5.66456">
        <ele>803</ele>
        <time>2019-11-29T14:25:52.000Z</time>
      </trkpt>
      <trkpt lat="43.31773" lon="5.66455">
        <ele>803</ele>
        <time>2019-11-29T14:25:53.000Z</time>
      </trkpt>
      <trkpt lat="43.31772" lon="5.66454">
        <ele>803</ele>
        <time>2019-11-29T14:25:54.000Z</time>
      </trkpt>
      <trkpt lat="43.31772" lon="5.66453">
        <ele>803</ele>
        <time>2019-11-29T14:25:55.000Z</time>
      </trkpt>
      <trkpt lat="43.31771" lon="5.66452">
        <ele>803</ele>
        <time>2019-11-29T14:25:56.000Z</time>
      </trkpt>
      <trkpt lat="43.31771" lon="5.66451">
        <ele>802</ele>
        <time>2019-11-29T14:25:57.000Z</time>
      </trkpt>
      <trkpt lat="43.31771" lon="5.66449">
        <ele>802</ele>
        <time>2019-11-29T14:25:58.000Z</time>
      </trkpt>
      <trkpt lat="43.3177" lon="5.66449">
        <ele>802</ele>
        <time>2019-11-29T14:25:59.000Z</time>
      </trkpt>
      <trkpt lat="43.3177" lon="5.66448">
        <ele>802</ele>
        <time>2019-11-29T14:26:00.000Z</time>
      </trkpt>
      <trkpt lat="43.3177" lon="5.66447">
        <ele>802</ele>
        <time>2019-11-29T14:26:01.000Z</time>
      </trkpt>
      <trkpt lat="43.3177" lon="5.66447">
        <ele>802</ele>
        <time>2019-11-29T14:26:02.000Z</time>
      </trkpt>
      <trkpt lat="43.3177" lon="5.66446">
        <ele>802</ele>
        <time>2019-11-29T14:26:03.000Z</time>
      </trkpt>
      <trkpt lat="43.3177" lon="5.66445">
        <ele>802</ele>
        <time>2019-11-29T14:26:04.000Z</time>
      </trkpt>
      <trkpt lat="43.31771" lon="5.66444">
        <ele>801</ele>
        <time>2019-11-29T14:26:05.000Z</time>
      </trkpt>
      <trkpt lat="43.31771" lon="5.66444">
        <ele>801</ele>
        <time>2019-11-29T14:26:06.000Z</time>
      </trkpt>
      <trkpt lat="43.31772" lon="5.66444">
        <ele>801</ele>
        <time>2019-11-29T14:26:07.000Z</time>
      </trkpt>
      <trkpt lat="43.31773" lon="5.66443">
        <ele>801</ele>
        <time>2019-11-29T14:26:08.000Z</time>
      </trkpt>
      <trkpt lat="43.31773" lon="5.66443">
        <ele>801</ele>
        <time>2019-11-29T14:26:09.000Z</time>
      </trkpt>
      <trkpt lat="43.31773" lon="5.66443">
        <ele>800</ele>
        <time>2019-11-29T14:26:10.000Z</time>
      </trkpt>
      <trkpt lat="43.31774" lon="5.66443">
        <ele>800</ele>
        <time>2019-11-29T14:26:11.000Z</time>
      </trkpt>
      <trkpt lat="43.31773" lon="5.66442">
        <ele>800</ele>
        <time>2019-11-29T14:26:12.000Z</time>
      </trkpt>
      <trkpt lat="43.31773" lon="5.66442">
        <ele>800</ele>
        <time>2019-11-29T14:26:13.000Z</time>
      </trkpt>
      <trkpt lat="43.31773" lon="5.66442">
        <ele>800</ele>
        <time>2019-11-29T14:26:14.000Z</time>
      </trkpt>
      <trkpt lat="43.31773" lon="5.66441">
        <ele>800</ele>
        <time>2019-11-29T14:26:15.000Z</time>
      </trkpt>
      <trkpt lat="43.31773" lon="5.6644">
        <ele>799</ele>
        <time>2019-11-29T14:26:16.000Z</time>
      </trkpt>
      <trkpt lat="43.31773" lon="5.66439">
        <ele>799</ele>
        <time>2019-11-29T14:26:17.000Z</time>
      </trkpt>
      <trkpt lat="43.31773" lon="5.66438">
        <ele>799</ele>
        <time>2019-11-29T14:26:18.000Z</time>
      </trkpt>
      <trkpt lat="43.31773" lon="5.66437">
        <ele>799</ele>
        <time>2019-11-29T14:26:19.000Z</time>
      </trkpt>
      <trkpt lat="43.31773" lon="5.66436">
        <ele>799</ele>
        <time>2019-11-29T14:26:20.000Z</time>
      </trkpt>
      <trkpt lat="43.31773" lon="5.66436">
        <ele>799</ele>
        <time>2019-11-29T14:26:21.000Z</time>
      </trkpt>
      <trkpt lat="43.31773" lon="5.66435">
        <ele>799</ele>
        <time>2019-11-29T14:26:22.000Z</time>
      </trkpt>
      <trkpt lat="43.31772" lon="5.66434">
        <ele>799</ele>
        <time>2019-11-29T14:26:23.000Z</time>
      </trkpt>
      <trkpt lat="43.31772" lon="5.66432">
        <ele>799</ele>
        <time>2019-11-29T14:26:24.000Z</time>
      </trkpt>
      <trkpt lat="43.31771" lon="5.66431">
        <ele>799</ele>
        <time>2019-11-29T14:26:25.000Z</time>
      </trkpt>
      <trkpt lat="43.31771" lon="5.6643">
        <ele>798</ele>
        <time>2019-11-29T14:26:26.000Z</time>
      </trkpt>
      <trkpt lat="43.3177" lon="5.66428">
        <ele>798</ele>
        <time>2019-11-29T14:26:27.000Z</time>
      </trkpt>
      <trkpt lat="43.3177" lon="5.66427">
        <ele>798</ele>
        <time>2019-11-29T14:26:28.000Z</time>
      </trkpt>
      <trkpt lat="43.31769" lon="5.66425">
        <ele>798</ele>
        <time>2019-11-29T14:26:29.000Z</time>
      </trkpt>
      <trkpt lat="43.31769" lon="5.66424">
        <ele>798</ele>
        <time>2019-11-29T14:26:30.000Z</time>
      </trkpt>
      <trkpt lat="43.31768" lon="5.66423">
        <ele>798</ele>
        <time>2019-11-29T14:26:31.000Z</time>
      </trkpt>
      <trkpt lat="43.31767" lon="5.66422">
        <ele>798</ele>
        <time>2019-11-29T14:26:32.000Z</time>
      </trkpt>
      <trkpt lat="43.31766" lon="5.66421">
        <ele>797</ele>
        <time>2019-11-29T14:26:33.000Z</time>
      </trkpt>
      <trkpt lat="43.31766" lon="5.6642">
        <ele>797</ele>
        <time>2019-11-29T14:26:34.000Z</time>
      </trkpt>
      <trkpt lat="43.31766" lon="5.66419">
        <ele>797</ele>
        <time>2019-11-29T14:26:35.000Z</time>
      </trkpt>
      <trkpt lat="43.31765" lon="5.66418">
        <ele>797</ele>
        <time>2019-11-29T14:26:36.000Z</time>
      </trkpt>
      <trkpt lat="43.31765" lon="5.66417">
        <ele>797</ele>
        <time>2019-11-29T14:26:37.000Z</time>
      </trkpt>
      <trkpt lat="43.31764" lon="5.66416">
        <ele>797</ele>
        <time>2019-11-29T14:26:38.000Z</time>
      </trkpt>
      <trkpt lat="43.31764" lon="5.66414">
        <ele>797</ele>
        <time>2019-11-29T14:26:39.000Z</time>
      </trkpt>
      <trkpt lat="43.31764" lon="5.66413">
        <ele>796</ele>
        <time>2019-11-29T14:26:40.000Z</time>
      </trkpt>
      <trkpt lat="43.31763" lon="5.66412">
        <ele>796</ele>
        <time>2019-11-29T14:26:41.000Z</time>
      </trkpt>
      <trkpt lat="43.31763" lon="5.66411">
        <ele>796</ele>
        <time>2019-11-29T14:26:42.000Z</time>
      </trkpt>
      <trkpt lat="43.31762" lon="5.6641">
        <ele>796</ele>
        <time>2019-11-29T14:26:43.000Z</time>
      </trkpt>
      <trkpt lat="43.31761" lon="5.66409">
        <ele>795</ele>
        <time>2019-11-29T14:26:44.000Z</time>
      </trkpt>
      <trkpt lat="43.31761" lon="5.66408">
        <ele>795</ele>
        <time>2019-11-29T14:26:45.000Z</time>
      </trkpt>
      <trkpt lat="43.3176" lon="5.66407">
        <ele>795</ele>
        <time>2019-11-29T14:26:46.000Z</time>
      </trkpt>
      <trkpt lat="43.31759" lon="5.66406">
        <ele>795</ele>
        <time>2019-11-29T14:26:47.000Z</time>
      </trkpt>
      <trkpt lat="43.31758" lon="5.66405">
        <ele>795</ele>
        <time>2019-11-29T14:26:48.000Z</time>
      </trkpt>
      <trkpt lat="43.31758" lon="5.66404">
        <ele>795</ele>
        <time>2019-11-29T14:26:49.000Z</time>
      </trkpt>
      <trkpt lat="43.31757" lon="5.66402">
        <ele>794</ele>
        <time>2019-11-29T14:26:50.000Z</time>
      </trkpt>
      <trkpt lat="43.31756" lon="5.66401">
        <ele>794</ele>
        <time>2019-11-29T14:26:51.000Z</time>
      </trkpt>
      <trkpt lat="43.31756" lon="5.664">
        <ele>794</ele>
        <time>2019-11-29T14:26:52.000Z</time>
      </trkpt>
      <trkpt lat="43.31755" lon="5.66399">
        <ele>794</ele>
        <time>2019-11-29T14:26:53.000Z</time>
      </trkpt>
      <trkpt lat="43.31754" lon="5.66399">
        <ele>794</ele>
        <time>2019-11-29T14:26:54.000Z</time>
      </trkpt>
      <trkpt lat="43.31753" lon="5.66398">
        <ele>794</ele>
        <time>2019-11-29T14:26:55.000Z</time>
      </trkpt>
      <trkpt lat="43.31753" lon="5.66397">
        <ele>793</ele>
        <time>2019-11-29T14:26:56.000Z</time>
      </trkpt>
      <trkpt lat="43.31753" lon="5.66396">
        <ele>793</ele>
        <time>2019-11-29T14:26:57.000Z</time>
      </trkpt>
      <trkpt lat="43.31752" lon="5.66395">
        <ele>793</ele>
        <time>2019-11-29T14:26:58.000Z</time>
      </trkpt>
      <trkpt lat="43.31752" lon="5.66394">
        <ele>793</ele>
        <time>2019-11-29T14:26:59.000Z</time>
      </trkpt>
      <trkpt lat="43.31752" lon="5.66393">
        <ele>793</ele>
        <time>2019-11-29T14:27:00.000Z</time>
      </trkpt>
      <trkpt lat="43.31751" lon="5.66392">
        <ele>792</ele>
        <time>2019-11-29T14:27:01.000Z</time>
      </trkpt>
      <trkpt lat="43.3175" lon="5.6639">
        <ele>792</ele>
        <time>2019-11-29T14:27:02.000Z</time>
      </trkpt>
      <trkpt lat="43.3175" lon="5.66389">
        <ele>792</ele>
        <time>2019-11-29T14:27:03.000Z</time>
      </trkpt>
      <trkpt lat="43.31749" lon="5.66388">
        <ele>792</ele>
        <time>2019-11-29T14:27:04.000Z</time>
      </trkpt>
      <trkpt lat="43.31749" lon="5.66387">
        <ele>792</ele>
        <time>2019-11-29T14:27:05.000Z</time>
      </trkpt>
      <trkpt lat="43.31748" lon="5.66386">
        <ele>792</ele>
        <time>2019-11-29T14:27:06.000Z</time>
      </trkpt>
      <trkpt lat="43.31748" lon="5.66385">
        <ele>792</ele>
        <time>2019-11-29T14:27:07.000Z</time>
      </trkpt>
      <trkpt lat="43.31748" lon="5.66385">
        <ele>791</ele>
        <time>2019-11-29T14:27:08.000Z</time>
      </trkpt>
      <trkpt lat="43.31748" lon="5.66384">
        <ele>791</ele>
        <time>2019-11-29T14:27:09.000Z</time>
      </trkpt>
      <trkpt lat="43.31748" lon="5.66384">
        <ele>791</ele>
        <time>2019-11-29T14:27:10.000Z</time>
      </trkpt>
      <trkpt lat="43.31748" lon="5.66384">
        <ele>791</ele>
        <time>2019-11-29T14:27:11.000Z</time>
      </trkpt>
      <trkpt lat="43.31748" lon="5.66384">
        <ele>791</ele>
        <time>2019-11-29T14:27:12.000Z</time>
      </trkpt>
      <trkpt lat="43.31748" lon="5.66383">
        <ele>791</ele>
        <time>2019-11-29T14:27:13.000Z</time>
      </trkpt>
      <trkpt lat="43.31748" lon="5.66383">
        <ele>791</ele>
        <time>2019-11-29T14:27:14.000Z</time>
      </trkpt>
      <trkpt lat="43.31748" lon="5.66383">
        <ele>790</ele>
        <time>2019-11-29T14:27:15.000Z</time>
      </trkpt>
      <trkpt lat="43.31748" lon="5.66383">
        <ele>790</ele>
        <time>2019-11-29T14:27:16.000Z</time>
      </trkpt>
      <trkpt lat="43.31748" lon="5.66383">
        <ele>790</ele>
        <time>2019-11-29T14:27:17.000Z</time>
      </trkpt>
      <trkpt lat="43.31748" lon="5.66382">
        <ele>790</ele>
        <time>2019-11-29T14:27:18.000Z</time>
      </trkpt>
      <trkpt lat="43.31748" lon="5.66382">
        <ele>790</ele>
        <time>2019-11-29T14:27:19.000Z</time>
      </trkpt>
      <trkpt lat="43.31748" lon="5.66382">
        <ele>789</ele>
        <time>2019-11-29T14:27:20.000Z</time>
      </trkpt>
      <trkpt lat="43.31747" lon="5.66382">
        <ele>789</ele>
        <time>2019-11-29T14:27:21.000Z</time>
      </trkpt>
      <trkpt lat="43.31747" lon="5.66382">
        <ele>789</ele>
        <time>2019-11-29T14:27:22.000Z</time>
      </trkpt>
      <trkpt lat="43.31747" lon="5.66381">
        <ele>789</ele>
        <time>2019-11-29T14:27:23.000Z</time>
      </trkpt>
      <trkpt lat="43.31748" lon="5.66381">
        <ele>788</ele>
        <time>2019-11-29T14:27:24.000Z</time>
      </trkpt>
      <trkpt lat="43.31748" lon="5.66381">
        <ele>788</ele>
        <time>2019-11-29T14:27:25.000Z</time>
      </trkpt>
      <trkpt lat="43.31748" lon="5.66381">
        <ele>788</ele>
        <time>2019-11-29T14:27:26.000Z</time>
      </trkpt>
      <trkpt lat="43.31748" lon="5.66381">
        <ele>788</ele>
        <time>2019-11-29T14:27:27.000Z</time>
      </trkpt>
      <trkpt lat="43.31748" lon="5.66381">
        <ele>788</ele>
        <time>2019-11-29T14:27:28.000Z</time>
      </trkpt>
      <trkpt lat="43.31748" lon="5.66381">
        <ele>787</ele>
        <time>2019-11-29T14:27:29.000Z</time>
      </trkpt>
      <trkpt lat="43.31748" lon="5.66381">
        <ele>787</ele>
        <time>2019-11-29T14:27:30.000Z</time>
      </trkpt>
      <trkpt lat="43.31748" lon="5.66381">
        <ele>787</ele>
        <time>2019-11-29T14:27:31.000Z</time>
      </trkpt>
      <trkpt lat="43.31748" lon="5.66381">
        <ele>787</ele>
        <time>2019-11-29T14:27:32.000Z</time>
      </trkpt>
      <trkpt lat="43.31748" lon="5.66381">
        <ele>787</ele>
        <time>2019-11-29T14:27:33.000Z</time>
      </trkpt>
      <trkpt lat="43.31748" lon="5.66381">
        <ele>787</ele>
        <time>2019-11-29T14:27:34.000Z</time>
      </trkpt>
      <trkpt lat="43.31748" lon="5.66381">
        <ele>787</ele>
        <time>2019-11-29T14:27:35.000Z</time>
      </trkpt>
      <trkpt lat="43.31748" lon="5.66381">
        <ele>787</ele>
        <time>2019-11-29T14:27:36.000Z</time>
      </trkpt>
      <trkpt lat="43.31748" lon="5.66381">
        <ele>787</ele>
        <time>2019-11-29T14:27:37.000Z</time>
      </trkpt>
      <trkpt lat="43.31748" lon="5.66381">
        <ele>786</ele>
        <time>2019-11-29T14:27:38.000Z</time>
      </trkpt>
      <trkpt lat="43.31748" lon="5.66381">
        <ele>786</ele>
        <time>2019-11-29T14:27:39.000Z</time>
      </trkpt>
      <trkpt lat="43.31748" lon="5.66381">
        <ele>786</ele>
        <time>2019-11-29T14:27:40.000Z</time>
      </trkpt>
      <trkpt lat="43.31748" lon="5.6638">
        <ele>786</ele>
        <time>2019-11-29T14:27:41.000Z</time>
      </trkpt>
      <trkpt lat="43.31747" lon="5.6638">
        <ele>786</ele>
        <time>2019-11-29T14:27:42.000Z</time>
      </trkpt>
      <trkpt lat="43.31748" lon="5.6638">
        <ele>786</ele>
        <time>2019-11-29T14:27:43.000Z</time>
      </trkpt>
      <trkpt lat="43.31747" lon="5.6638">
        <ele>786</ele>
        <time>2019-11-29T14:27:44.000Z</time>
      </trkpt>
      <trkpt lat="43.31747" lon="5.6638">
        <ele>786</ele>
        <time>2019-11-29T14:27:45.000Z</time>
      </trkpt>
      <trkpt lat="43.31746" lon="5.6638">
        <ele>786</ele>
        <time>2019-11-29T14:27:46.000Z</time>
      </trkpt>
      <trkpt lat="43.31745" lon="5.66379">
        <ele>785</ele>
        <time>2019-11-29T14:27:47.000Z</time>
      </trkpt>
      <trkpt lat="43.31745" lon="5.66378">
        <ele>785</ele>
        <time>2019-11-29T14:27:48.000Z</time>
      </trkpt>
      <trkpt lat="43.31744" lon="5.66377">
        <ele>785</ele>
        <time>2019-11-29T14:27:49.000Z</time>
      </trkpt>
      <trkpt lat="43.31744" lon="5.66377">
        <ele>785</ele>
        <time>2019-11-29T14:27:50.000Z</time>
      </trkpt>
      <trkpt lat="43.31743" lon="5.66376">
        <ele>785</ele>
        <time>2019-11-29T14:27:51.000Z</time>
      </trkpt>
      <trkpt lat="43.31743" lon="5.66376">
        <ele>785</ele>
        <time>2019-11-29T14:27:52.000Z</time>
      </trkpt>
      <trkpt lat="43.31742" lon="5.66375">
        <ele>785</ele>
        <time>2019-11-29T14:27:53.000Z</time>
      </trkpt>
      <trkpt lat="43.31741" lon="5.66374">
        <ele>785</ele>
        <time>2019-11-29T14:27:54.000Z</time>
      </trkpt>
      <trkpt lat="43.3174" lon="5.66374">
        <ele>785</ele>
        <time>2019-11-29T14:27:55.000Z</time>
      </trkpt>
      <trkpt lat="43.3174" lon="5.66373">
        <ele>785</ele>
        <time>2019-11-29T14:27:56.000Z</time>
      </trkpt>
      <trkpt lat="43.31739" lon="5.66371">
        <ele>785</ele>
        <time>2019-11-29T14:27:57.000Z</time>
      </trkpt>
      <trkpt lat="43.31738" lon="5.6637">
        <ele>785</ele>
        <time>2019-11-29T14:27:58.000Z</time>
      </trkpt>
      <trkpt lat="43.31737" lon="5.66369">
        <ele>785</ele>
        <time>2019-11-29T14:27:59.000Z</time>
      </trkpt>
      <trkpt lat="43.31737" lon="5.66368">
        <ele>785</ele>
        <time>2019-11-29T14:28:00.000Z</time>
      </trkpt>
      <trkpt lat="43.31736" lon="5.66367">
        <ele>785</ele>
        <time>2019-11-29T14:28:01.000Z</time>
      </trkpt>
      <trkpt lat="43.31736" lon="5.66367">
        <ele>784</ele>
        <time>2019-11-29T14:28:02.000Z</time>
      </trkpt>
      <trkpt lat="43.31735" lon="5.66366">
        <ele>784</ele>
        <time>2019-11-29T14:28:03.000Z</time>
      </trkpt>
      <trkpt lat="43.31735" lon="5.66366">
        <ele>784</ele>
        <time>2019-11-29T14:28:04.000Z</time>
      </trkpt>
      <trkpt lat="43.31735" lon="5.66366">
        <ele>784</ele>
        <time>2019-11-29T14:28:05.000Z</time>
      </trkpt>
      <trkpt lat="43.31734" lon="5.66365">
        <ele>784</ele>
        <time>2019-11-29T14:28:06.000Z</time>
      </trkpt>
      <trkpt lat="43.31734" lon="5.66364">
        <ele>784</ele>
        <time>2019-11-29T14:28:07.000Z</time>
      </trkpt>
      <trkpt lat="43.31734" lon="5.66363">
        <ele>784</ele>
        <time>2019-11-29T14:28:08.000Z</time>
      </trkpt>
      <trkpt lat="43.31733" lon="5.66362">
        <ele>784</ele>
        <time>2019-11-29T14:28:09.000Z</time>
      </trkpt>
      <trkpt lat="43.31733" lon="5.66361">
        <ele>783</ele>
        <time>2019-11-29T14:28:10.000Z</time>
      </trkpt>
      <trkpt lat="43.31734" lon="5.66361">
        <ele>783</ele>
        <time>2019-11-29T14:28:11.000Z</time>
      </trkpt>
      <trkpt lat="43.31734" lon="5.6636">
        <ele>783</ele>
        <time>2019-11-29T14:28:12.000Z</time>
      </trkpt>
      <trkpt lat="43.31733" lon="5.66359">
        <ele>783</ele>
        <time>2019-11-29T14:28:13.000Z</time>
      </trkpt>
      <trkpt lat="43.31733" lon="5.66358">
        <ele>783</ele>
        <time>2019-11-29T14:28:14.000Z</time>
      </trkpt>
      <trkpt lat="43.31732" lon="5.66358">
        <ele>782</ele>
        <time>2019-11-29T14:28:15.000Z</time>
      </trkpt>
      <trkpt lat="43.31732" lon="5.66357">
        <ele>782</ele>
        <time>2019-11-29T14:28:16.000Z</time>
      </trkpt>
      <trkpt lat="43.31731" lon="5.66356">
        <ele>782</ele>
        <time>2019-11-29T14:28:17.000Z</time>
      </trkpt>
      <trkpt lat="43.31731" lon="5.66356">
        <ele>782</ele>
        <time>2019-11-29T14:28:18.000Z</time>
      </trkpt>
      <trkpt lat="43.31731" lon="5.66355">
        <ele>782</ele>
        <time>2019-11-29T14:28:19.000Z</time>
      </trkpt>
      <trkpt lat="43.3173" lon="5.66355">
        <ele>782</ele>
        <time>2019-11-29T14:28:20.000Z</time>
      </trkpt>
      <trkpt lat="43.3173" lon="5.66354">
        <ele>782</ele>
        <time>2019-11-29T14:28:21.000Z</time>
      </trkpt>
      <trkpt lat="43.3173" lon="5.66353">
        <ele>782</ele>
        <time>2019-11-29T14:28:22.000Z</time>
      </trkpt>
      <trkpt lat="43.31729" lon="5.66352">
        <ele>781</ele>
        <time>2019-11-29T14:28:23.000Z</time>
      </trkpt>
      <trkpt lat="43.31729" lon="5.66352">
        <ele>781</ele>
        <time>2019-11-29T14:28:24.000Z</time>
      </trkpt>
      <trkpt lat="43.31729" lon="5.66351">
        <ele>781</ele>
        <time>2019-11-29T14:28:25.000Z</time>
      </trkpt>
      <trkpt lat="43.31728" lon="5.6635">
        <ele>781</ele>
        <time>2019-11-29T14:28:26.000Z</time>
      </trkpt>
      <trkpt lat="43.31728" lon="5.6635">
        <ele>781</ele>
        <time>2019-11-29T14:28:27.000Z</time>
      </trkpt>
      <trkpt lat="43.31727" lon="5.66349">
        <ele>781</ele>
        <time>2019-11-29T14:28:28.000Z</time>
      </trkpt>
      <trkpt lat="43.31727" lon="5.66348">
        <ele>781</ele>
        <time>2019-11-29T14:28:29.000Z</time>
      </trkpt>
      <trkpt lat="43.31727" lon="5.66348">
        <ele>781</ele>
        <time>2019-11-29T14:28:30.000Z</time>
      </trkpt>
      <trkpt lat="43.31726" lon="5.66347">
        <ele>781</ele>
        <time>2019-11-29T14:28:31.000Z</time>
      </trkpt>
      <trkpt lat="43.31726" lon="5.66347">
        <ele>781</ele>
        <time>2019-11-29T14:28:32.000Z</time>
      </trkpt>
      <trkpt lat="43.31725" lon="5.66346">
        <ele>781</ele>
        <time>2019-11-29T14:28:33.000Z</time>
      </trkpt>
      <trkpt lat="43.31724" lon="5.66345">
        <ele>781</ele>
        <time>2019-11-29T14:28:34.000Z</time>
      </trkpt>
      <trkpt lat="43.31724" lon="5.66345">
        <ele>780</ele>
        <time>2019-11-29T14:28:35.000Z</time>
      </trkpt>
      <trkpt lat="43.31723" lon="5.66344">
        <ele>780</ele>
        <time>2019-11-29T14:28:36.000Z</time>
      </trkpt>
      <trkpt lat="43.31723" lon="5.66343">
        <ele>780</ele>
        <time>2019-11-29T14:28:37.000Z</time>
      </trkpt>
      <trkpt lat="43.31723" lon="5.66342">
        <ele>780</ele>
        <time>2019-11-29T14:28:38.000Z</time>
      </trkpt>
      <trkpt lat="43.31722" lon="5.66342">
        <ele>780</ele>
        <time>2019-11-29T14:28:39.000Z</time>
      </trkpt>
      <trkpt lat="43.31722" lon="5.66341">
        <ele>780</ele>
        <time>2019-11-29T14:28:40.000Z</time>
      </trkpt>
      <trkpt lat="43.31721" lon="5.66341">
        <ele>780</ele>
        <time>2019-11-29T14:28:41.000Z</time>
      </trkpt>
      <trkpt lat="43.3172" lon="5.6634">
        <ele>779</ele>
        <time>2019-11-29T14:28:42.000Z</time>
      </trkpt>
      <trkpt lat="43.3172" lon="5.66339">
        <ele>779</ele>
        <time>2019-11-29T14:28:43.000Z</time>
      </trkpt>
      <trkpt lat="43.31719" lon="5.66338">
        <ele>779</ele>
        <time>2019-11-29T14:28:44.000Z</time>
      </trkpt>
      <trkpt lat="43.31718" lon="5.66337">
        <ele>779</ele>
        <time>2019-11-29T14:28:45.000Z</time>
      </trkpt>
      <trkpt lat="43.31718" lon="5.66336">
        <ele>779</ele>
        <time>2019-11-29T14:28:46.000Z</time>
      </trkpt>
      <trkpt lat="43.31717" lon="5.66335">
        <ele>778</ele>
        <time>2019-11-29T14:28:47.000Z</time>
      </trkpt>
      <trkpt lat="43.31716" lon="5.66334">
        <ele>778</ele>
        <time>2019-11-29T14:28:48.000Z</time>
      </trkpt>
      <trkpt lat="43.31716" lon="5.66333">
        <ele>778</ele>
        <time>2019-11-29T14:28:49.000Z</time>
      </trkpt>
      <trkpt lat="43.31715" lon="5.66333">
        <ele>778</ele>
        <time>2019-11-29T14:28:50.000Z</time>
      </trkpt>
      <trkpt lat="43.31714" lon="5.66332">
        <ele>778</ele>
        <time>2019-11-29T14:28:51.000Z</time>
      </trkpt>
      <trkpt lat="43.31714" lon="5.66331">
        <ele>778</ele>
        <time>2019-11-29T14:28:52.000Z</time>
      </trkpt>
      <trkpt lat="43.31713" lon="5.6633">
        <ele>777</ele>
        <time>2019-11-29T14:28:53.000Z</time>
      </trkpt>
      <trkpt lat="43.31713" lon="5.66329">
        <ele>777</ele>
        <time>2019-11-29T14:28:54.000Z</time>
      </trkpt>
      <trkpt lat="43.31712" lon="5.66328">
        <ele>777</ele>
        <time>2019-11-29T14:28:55.000Z</time>
      </trkpt>
      <trkpt lat="43.31711" lon="5.66327">
        <ele>777</ele>
        <time>2019-11-29T14:28:56.000Z</time>
      </trkpt>
      <trkpt lat="43.31711" lon="5.66326">
        <ele>777</ele>
        <time>2019-11-29T14:28:57.000Z</time>
      </trkpt>
      <trkpt lat="43.3171" lon="5.66326">
        <ele>777</ele>
        <time>2019-11-29T14:28:58.000Z</time>
      </trkpt>
      <trkpt lat="43.3171" lon="5.66325">
        <ele>777</ele>
        <time>2019-11-29T14:28:59.000Z</time>
      </trkpt>
      <trkpt lat="43.31709" lon="5.66324">
        <ele>776</ele>
        <time>2019-11-29T14:29:00.000Z</time>
      </trkpt>
      <trkpt lat="43.31709" lon="5.66324">
        <ele>776</ele>
        <time>2019-11-29T14:29:01.000Z</time>
      </trkpt>
      <trkpt lat="43.31709" lon="5.66324">
        <ele>776</ele>
        <time>2019-11-29T14:29:02.000Z</time>
      </trkpt>
      <trkpt lat="43.31709" lon="5.66324">
        <ele>776</ele>
        <time>2019-11-29T14:29:03.000Z</time>
      </trkpt>
      <trkpt lat="43.31709" lon="5.66324">
        <ele>776</ele>
        <time>2019-11-29T14:29:04.000Z</time>
      </trkpt>
      <trkpt lat="43.31709" lon="5.66324">
        <ele>776</ele>
        <time>2019-11-29T14:29:05.000Z</time>
      </trkpt>
      <trkpt lat="43.31709" lon="5.66324">
        <ele>776</ele>
        <time>2019-11-29T14:29:06.000Z</time>
      </trkpt>
      <trkpt lat="43.31709" lon="5.66324">
        <ele>775</ele>
        <time>2019-11-29T14:29:07.000Z</time>
      </trkpt>
      <trkpt lat="43.31709" lon="5.66324">
        <ele>775</ele>
        <time>2019-11-29T14:29:08.000Z</time>
      </trkpt>
      <trkpt lat="43.31709" lon="5.66324">
        <ele>775</ele>
        <time>2019-11-29T14:29:09.000Z</time>
      </trkpt>
      <trkpt lat="43.31709" lon="5.66324">
        <ele>775</ele>
        <time>2019-11-29T14:29:10.000Z</time>
      </trkpt>
      <trkpt lat="43.31709" lon="5.66324">
        <ele>775</ele>
        <time>2019-11-29T14:29:11.000Z</time>
      </trkpt>
      <trkpt lat="43.31709" lon="5.66324">
        <ele>775</ele>
        <time>2019-11-29T14:29:12.000Z</time>
      </trkpt>
      <trkpt lat="43.31709" lon="5.66323">
        <ele>775</ele>
        <time>2019-11-29T14:29:13.000Z</time>
      </trkpt>
      <trkpt lat="43.31709" lon="5.66323">
        <ele>775</ele>
        <time>2019-11-29T14:29:14.000Z</time>
      </trkpt>
      <trkpt lat="43.31709" lon="5.66323">
        <ele>775</ele>
        <time>2019-11-29T14:29:15.000Z</time>
      </trkpt>
      <trkpt lat="43.31709" lon="5.66323">
        <ele>775</ele>
        <time>2019-11-29T14:29:16.000Z</time>
      </trkpt>
      <trkpt lat="43.31708" lon="5.66323">
        <ele>774</ele>
        <time>2019-11-29T14:29:17.000Z</time>
      </trkpt>
      <trkpt lat="43.31708" lon="5.66322">
        <ele>774</ele>
        <time>2019-11-29T14:29:18.000Z</time>
      </trkpt>
      <trkpt lat="43.31707" lon="5.66322">
        <ele>774</ele>
        <time>2019-11-29T14:29:19.000Z</time>
      </trkpt>
      <trkpt lat="43.31707" lon="5.66321">
        <ele>774</ele>
        <time>2019-11-29T14:29:20.000Z</time>
      </trkpt>
      <trkpt lat="43.31707" lon="5.6632">
        <ele>774</ele>
        <time>2019-11-29T14:29:21.000Z</time>
      </trkpt>
      <trkpt lat="43.31706" lon="5.6632">
        <ele>774</ele>
        <time>2019-11-29T14:29:22.000Z</time>
      </trkpt>
      <trkpt lat="43.31706" lon="5.66319">
        <ele>774</ele>
        <time>2019-11-29T14:29:23.000Z</time>
      </trkpt>
      <trkpt lat="43.31705" lon="5.66318">
        <ele>774</ele>
        <time>2019-11-29T14:29:24.000Z</time>
      </trkpt>
      <trkpt lat="43.31705" lon="5.66317">
        <ele>773</ele>
        <time>2019-11-29T14:29:25.000Z</time>
      </trkpt>
      <trkpt lat="43.31704" lon="5.66317">
        <ele>773</ele>
        <time>2019-11-29T14:29:26.000Z</time>
      </trkpt>
      <trkpt lat="43.31704" lon="5.66316">
        <ele>773</ele>
        <time>2019-11-29T14:29:27.000Z</time>
      </trkpt>
      <trkpt lat="43.31704" lon="5.66316">
        <ele>773</ele>
        <time>2019-11-29T14:29:28.000Z</time>
      </trkpt>
      <trkpt lat="43.31704" lon="5.66316">
        <ele>773</ele>
        <time>2019-11-29T14:29:29.000Z</time>
      </trkpt>
      <trkpt lat="43.31704" lon="5.66316">
        <ele>772</ele>
        <time>2019-11-29T14:29:30.000Z</time>
      </trkpt>
      <trkpt lat="43.31704" lon="5.66316">
        <ele>772</ele>
        <time>2019-11-29T14:29:31.000Z</time>
      </trkpt>
      <trkpt lat="43.31704" lon="5.66316">
        <ele>772</ele>
        <time>2019-11-29T14:29:32.000Z</time>
      </trkpt>
      <trkpt lat="43.31704" lon="5.66316">
        <ele>772</ele>
        <time>2019-11-29T14:29:33.000Z</time>
      </trkpt>
      <trkpt lat="43.31704" lon="5.66315">
        <ele>772</ele>
        <time>2019-11-29T14:29:34.000Z</time>
      </trkpt>
      <trkpt lat="43.31703" lon="5.66315">
        <ele>772</ele>
        <time>2019-11-29T14:29:35.000Z</time>
      </trkpt>
      <trkpt lat="43.31703" lon="5.66315">
        <ele>772</ele>
        <time>2019-11-29T14:29:36.000Z</time>
      </trkpt>
      <trkpt lat="43.31703" lon="5.66315">
        <ele>772</ele>
        <time>2019-11-29T14:29:37.000Z</time>
      </trkpt>
      <trkpt lat="43.31703" lon="5.66315">
        <ele>772</ele>
        <time>2019-11-29T14:29:38.000Z</time>
      </trkpt>
      <trkpt lat="43.31704" lon="5.66315">
        <ele>772</ele>
        <time>2019-11-29T14:29:39.000Z</time>
      </trkpt>
      <trkpt lat="43.31704" lon="5.66315">
        <ele>772</ele>
        <time>2019-11-29T14:29:40.000Z</time>
      </trkpt>
      <trkpt lat="43.31704" lon="5.66315">
        <ele>772</ele>
        <time>2019-11-29T14:29:41.000Z</time>
      </trkpt>
      <trkpt lat="43.31704" lon="5.66315">
        <ele>772</ele>
        <time>2019-11-29T14:29:42.000Z</time>
      </trkpt>
      <trkpt lat="43.31704" lon="5.66315">
        <ele>772</ele>
        <time>2019-11-29T14:29:43.000Z</time>
      </trkpt>
      <trkpt lat="43.31704" lon="5.66315">
        <ele>772</ele>
        <time>2019-11-29T14:29:44.000Z</time>
      </trkpt>
      <trkpt lat="43.31704" lon="5.66315">
        <ele>772</ele>
        <time>2019-11-29T14:29:45.000Z</time>
      </trkpt>
      <trkpt lat="43.31704" lon="5.66315">
        <ele>771</ele>
        <time>2019-11-29T14:29:46.000Z</time>
      </trkpt>
      <trkpt lat="43.31704" lon="5.66315">
        <ele>771</ele>
        <time>2019-11-29T14:29:47.000Z</time>
      </trkpt>
      <trkpt lat="43.31704" lon="5.66315">
        <ele>771</ele>
        <time>2019-11-29T14:29:48.000Z</time>
      </trkpt>
      <trkpt lat="43.31703" lon="5.66315">
        <ele>771</ele>
        <time>2019-11-29T14:29:49.000Z</time>
      </trkpt>
      <trkpt lat="43.31703" lon="5.66314">
        <ele>771</ele>
        <time>2019-11-29T14:29:50.000Z</time>
      </trkpt>
      <trkpt lat="43.31703" lon="5.66314">
        <ele>771</ele>
        <time>2019-11-29T14:29:51.000Z</time>
      </trkpt>
      <trkpt lat="43.31703" lon="5.66314">
        <ele>771</ele>
        <time>2019-11-29T14:29:52.000Z</time>
      </trkpt>
      <trkpt lat="43.31703" lon="5.66314">
        <ele>771</ele>
        <time>2019-11-29T14:29:53.000Z</time>
      </trkpt>
      <trkpt lat="43.31703" lon="5.66314">
        <ele>771</ele>
        <time>2019-11-29T14:29:54.000Z</time>
      </trkpt>
      <trkpt lat="43.31703" lon="5.66314">
        <ele>771</ele>
        <time>2019-11-29T14:29:55.000Z</time>
      </trkpt>
      <trkpt lat="43.31703" lon="5.66314">
        <ele>771</ele>
        <time>2019-11-29T14:29:56.000Z</time>
      </trkpt>
      <trkpt lat="43.31703" lon="5.66314">
        <ele>771</ele>
        <time>2019-11-29T14:29:57.000Z</time>
      </trkpt>
      <trkpt lat="43.31703" lon="5.66314">
        <ele>771</ele>
        <time>2019-11-29T14:29:58.000Z</time>
      </trkpt>
      <trkpt lat="43.31703" lon="5.66314">
        <ele>771</ele>
        <time>2019-11-29T14:29:59.000Z</time>
      </trkpt>
      <trkpt lat="43.31703" lon="5.66314">
        <ele>771</ele>
        <time>2019-11-29T14:30:00.000Z</time>
      </trkpt>
      <trkpt lat="43.31703" lon="5.66314">
        <ele>771</ele>
        <time>2019-11-29T14:30:01.000Z</time>
      </trkpt>
      <trkpt lat="43.31703" lon="5.66314">
        <ele>771</ele>
        <time>2019-11-29T14:30:02.000Z</time>
      </trkpt>
      <trkpt lat="43.31703" lon="5.66314">
        <ele>771</ele>
        <time>2019-11-29T14:30:03.000Z</time>
      </trkpt>
      <trkpt lat="43.31703" lon="5.66314">
        <ele>771</ele>
        <time>2019-11-29T14:30:04.000Z</time>
      </trkpt>
      <trkpt lat="43.31703" lon="5.66314">
        <ele>771</ele>
        <time>2019-11-29T14:30:05.000Z</time>
      </trkpt>
      <trkpt lat="43.31703" lon="5.66314">
        <ele>771</ele>
        <time>2019-11-29T14:30:06.000Z</time>
      </trkpt>
      <trkpt lat="43.31703" lon="5.66314">
        <ele>771</ele>
        <time>2019-11-29T14:30:07.000Z</time>
      </trkpt>
      <trkpt lat="43.31703" lon="5.66314">
        <ele>771</ele>
        <time>2019-11-29T14:30:08.000Z</time>
      </trkpt>
      <trkpt lat="43.31703" lon="5.66314">
        <ele>771</ele>
        <time>2019-11-29T14:30:09.000Z</time>
      </trkpt>
      <trkpt lat="43.31703" lon="5.66314">
        <ele>771</ele>
        <time>2019-11-29T14:30:10.000Z</time>
      </trkpt>
      <trkpt lat="43.31702" lon="5.66314">
        <ele>771</ele>
        <time>2019-11-29T14:30:11.000Z</time>
      </trkpt>
      <trkpt lat="43.31702" lon="5.66313">
        <ele>771</ele>
        <time>2019-11-29T14:30:12.000Z</time>
      </trkpt>
      <trkpt lat="43.31701" lon="5.66312">
        <ele>771</ele>
        <time>2019-11-29T14:30:13.000Z</time>
      </trkpt>
      <trkpt lat="43.317" lon="5.66312">
        <ele>771</ele>
        <time>2019-11-29T14:30:14.000Z</time>
      </trkpt>
      <trkpt lat="43.31699" lon="5.66311">
        <ele>771</ele>
        <time>2019-11-29T14:30:15.000Z</time>
      </trkpt>
      <trkpt lat="43.31698" lon="5.6631">
        <ele>770</ele>
        <time>2019-11-29T14:30:16.000Z</time>
      </trkpt>
      <trkpt lat="43.31698" lon="5.66309">
        <ele>770</ele>
        <time>2019-11-29T14:30:17.000Z</time>
      </trkpt>
      <trkpt lat="43.31697" lon="5.66308">
        <ele>770</ele>
        <time>2019-11-29T14:30:18.000Z</time>
      </trkpt>
      <trkpt lat="43.31697" lon="5.66307">
        <ele>770</ele>
        <time>2019-11-29T14:30:19.000Z</time>
      </trkpt>
      <trkpt lat="43.31696" lon="5.66306">
        <ele>770</ele>
        <time>2019-11-29T14:30:20.000Z</time>
      </trkpt>
      <trkpt lat="43.31696" lon="5.66305">
        <ele>770</ele>
        <time>2019-11-29T14:30:21.000Z</time>
      </trkpt>
      <trkpt lat="43.31696" lon="5.66304">
        <ele>770</ele>
        <time>2019-11-29T14:30:22.000Z</time>
      </trkpt>
      <trkpt lat="43.31695" lon="5.66303">
        <ele>770</ele>
        <time>2019-11-29T14:30:23.000Z</time>
      </trkpt>
      <trkpt lat="43.31695" lon="5.66302">
        <ele>770</ele>
        <time>2019-11-29T14:30:24.000Z</time>
      </trkpt>
      <trkpt lat="43.31694" lon="5.66301">
        <ele>769</ele>
        <time>2019-11-29T14:30:25.000Z</time>
      </trkpt>
      <trkpt lat="43.31694" lon="5.663">
        <ele>769</ele>
        <time>2019-11-29T14:30:26.000Z</time>
      </trkpt>
      <trkpt lat="43.31693" lon="5.66298">
        <ele>769</ele>
        <time>2019-11-29T14:30:27.000Z</time>
      </trkpt>
      <trkpt lat="43.31693" lon="5.66297">
        <ele>769</ele>
        <time>2019-11-29T14:30:28.000Z</time>
      </trkpt>
      <trkpt lat="43.31693" lon="5.66296">
        <ele>769</ele>
        <time>2019-11-29T14:30:29.000Z</time>
      </trkpt>
      <trkpt lat="43.31692" lon="5.66295">
        <ele>769</ele>
        <time>2019-11-29T14:30:30.000Z</time>
      </trkpt>
      <trkpt lat="43.31692" lon="5.66293">
        <ele>769</ele>
        <time>2019-11-29T14:30:31.000Z</time>
      </trkpt>
      <trkpt lat="43.31692" lon="5.66292">
        <ele>768</ele>
        <time>2019-11-29T14:30:32.000Z</time>
      </trkpt>
      <trkpt lat="43.31691" lon="5.66291">
        <ele>768</ele>
        <time>2019-11-29T14:30:33.000Z</time>
      </trkpt>
      <trkpt lat="43.31691" lon="5.6629">
        <ele>768</ele>
        <time>2019-11-29T14:30:34.000Z</time>
      </trkpt>
      <trkpt lat="43.3169" lon="5.66289">
        <ele>768</ele>
        <time>2019-11-29T14:30:35.000Z</time>
      </trkpt>
      <trkpt lat="43.31689" lon="5.66288">
        <ele>768</ele>
        <time>2019-11-29T14:30:36.000Z</time>
      </trkpt>
      <trkpt lat="43.31689" lon="5.66286">
        <ele>768</ele>
        <time>2019-11-29T14:30:37.000Z</time>
      </trkpt>
      <trkpt lat="43.31688" lon="5.66285">
        <ele>767</ele>
        <time>2019-11-29T14:30:38.000Z</time>
      </trkpt>
      <trkpt lat="43.31688" lon="5.66283">
        <ele>767</ele>
        <time>2019-11-29T14:30:39.000Z</time>
      </trkpt>
      <trkpt lat="43.31687" lon="5.66282">
        <ele>767</ele>
        <time>2019-11-29T14:30:40.000Z</time>
      </trkpt>
      <trkpt lat="43.31687" lon="5.66281">
        <ele>767</ele>
        <time>2019-11-29T14:30:41.000Z</time>
      </trkpt>
      <trkpt lat="43.31687" lon="5.6628">
        <ele>766</ele>
        <time>2019-11-29T14:30:42.000Z</time>
      </trkpt>
      <trkpt lat="43.31686" lon="5.66278">
        <ele>766</ele>
        <time>2019-11-29T14:30:43.000Z</time>
      </trkpt>
      <trkpt lat="43.31685" lon="5.66277">
        <ele>766</ele>
        <time>2019-11-29T14:30:44.000Z</time>
      </trkpt>
      <trkpt lat="43.31685" lon="5.66276">
        <ele>766</ele>
        <time>2019-11-29T14:30:45.000Z</time>
      </trkpt>
      <trkpt lat="43.31684" lon="5.66275">
        <ele>766</ele>
        <time>2019-11-29T14:30:46.000Z</time>
      </trkpt>
      <trkpt lat="43.31684" lon="5.66274">
        <ele>766</ele>
        <time>2019-11-29T14:30:47.000Z</time>
      </trkpt>
      <trkpt lat="43.31683" lon="5.66273">
        <ele>766</ele>
        <time>2019-11-29T14:30:48.000Z</time>
      </trkpt>
      <trkpt lat="43.31683" lon="5.66271">
        <ele>765</ele>
        <time>2019-11-29T14:30:49.000Z</time>
      </trkpt>
      <trkpt lat="43.31682" lon="5.6627">
        <ele>765</ele>
        <time>2019-11-29T14:30:50.000Z</time>
      </trkpt>
      <trkpt lat="43.31682" lon="5.66269">
        <ele>765</ele>
        <time>2019-11-29T14:30:51.000Z</time>
      </trkpt>
      <trkpt lat="43.31681" lon="5.66268">
        <ele>765</ele>
        <time>2019-11-29T14:30:52.000Z</time>
      </trkpt>
      <trkpt lat="43.31681" lon="5.66266">
        <ele>765</ele>
        <time>2019-11-29T14:30:53.000Z</time>
      </trkpt>
      <trkpt lat="43.31681" lon="5.66264">
        <ele>765</ele>
        <time>2019-11-29T14:30:54.000Z</time>
      </trkpt>
      <trkpt lat="43.3168" lon="5.66263">
        <ele>764</ele>
        <time>2019-11-29T14:30:55.000Z</time>
      </trkpt>
      <trkpt lat="43.3168" lon="5.66262">
        <ele>764</ele>
        <time>2019-11-29T14:30:56.000Z</time>
      </trkpt>
      <trkpt lat="43.31679" lon="5.66261">
        <ele>764</ele>
        <time>2019-11-29T14:30:57.000Z</time>
      </trkpt>
      <trkpt lat="43.31679" lon="5.6626">
        <ele>764</ele>
        <time>2019-11-29T14:30:58.000Z</time>
      </trkpt>
      <trkpt lat="43.31678" lon="5.66259">
        <ele>764</ele>
        <time>2019-11-29T14:30:59.000Z</time>
      </trkpt>
      <trkpt lat="43.31677" lon="5.66259">
        <ele>763</ele>
        <time>2019-11-29T14:31:00.000Z</time>
      </trkpt>
      <trkpt lat="43.31677" lon="5.66258">
        <ele>763</ele>
        <time>2019-11-29T14:31:01.000Z</time>
      </trkpt>
      <trkpt lat="43.31676" lon="5.66257">
        <ele>763</ele>
        <time>2019-11-29T14:31:02.000Z</time>
      </trkpt>
      <trkpt lat="43.31675" lon="5.66256">
        <ele>763</ele>
        <time>2019-11-29T14:31:03.000Z</time>
      </trkpt>
      <trkpt lat="43.31674" lon="5.66255">
        <ele>763</ele>
        <time>2019-11-29T14:31:04.000Z</time>
      </trkpt>
      <trkpt lat="43.31674" lon="5.66254">
        <ele>763</ele>
        <time>2019-11-29T14:31:05.000Z</time>
      </trkpt>
      <trkpt lat="43.31674" lon="5.66253">
        <ele>762</ele>
        <time>2019-11-29T14:31:06.000Z</time>
      </trkpt>
      <trkpt lat="43.31673" lon="5.66252">
        <ele>762</ele>
        <time>2019-11-29T14:31:07.000Z</time>
      </trkpt>
      <trkpt lat="43.31673" lon="5.66251">
        <ele>762</ele>
        <time>2019-11-29T14:31:08.000Z</time>
      </trkpt>
      <trkpt lat="43.31672" lon="5.6625">
        <ele>762</ele>
        <time>2019-11-29T14:31:09.000Z</time>
      </trkpt>
      <trkpt lat="43.31672" lon="5.66249">
        <ele>762</ele>
        <time>2019-11-29T14:31:10.000Z</time>
      </trkpt>
      <trkpt lat="43.31672" lon="5.66248">
        <ele>762</ele>
        <time>2019-11-29T14:31:11.000Z</time>
      </trkpt>
      <trkpt lat="43.31671" lon="5.66247">
        <ele>762</ele>
        <time>2019-11-29T14:31:12.000Z</time>
      </trkpt>
      <trkpt lat="43.31671" lon="5.66246">
        <ele>761</ele>
        <time>2019-11-29T14:31:13.000Z</time>
      </trkpt>
      <trkpt lat="43.31671" lon="5.66245">
        <ele>761</ele>
        <time>2019-11-29T14:31:14.000Z</time>
      </trkpt>
      <trkpt lat="43.3167" lon="5.66243">
        <ele>761</ele>
        <time>2019-11-29T14:31:15.000Z</time>
      </trkpt>
      <trkpt lat="43.3167" lon="5.66242">
        <ele>761</ele>
        <time>2019-11-29T14:31:16.000Z</time>
      </trkpt>
      <trkpt lat="43.31669" lon="5.66241">
        <ele>761</ele>
        <time>2019-11-29T14:31:17.000Z</time>
      </trkpt>
      <trkpt lat="43.31669" lon="5.6624">
        <ele>761</ele>
        <time>2019-11-29T14:31:18.000Z</time>
      </trkpt>
      <trkpt lat="43.31669" lon="5.66239">
        <ele>761</ele>
        <time>2019-11-29T14:31:19.000Z</time>
      </trkpt>
      <trkpt lat="43.31668" lon="5.66238">
        <ele>760</ele>
        <time>2019-11-29T14:31:20.000Z</time>
      </trkpt>
      <trkpt lat="43.31668" lon="5.66237">
        <ele>760</ele>
        <time>2019-11-29T14:31:21.000Z</time>
      </trkpt>
      <trkpt lat="43.31667" lon="5.66236">
        <ele>760</ele>
        <time>2019-11-29T14:31:22.000Z</time>
      </trkpt>
      <trkpt lat="43.31667" lon="5.66235">
        <ele>760</ele>
        <time>2019-11-29T14:31:23.000Z</time>
      </trkpt>
      <trkpt lat="43.31667" lon="5.66235">
        <ele>760</ele>
        <time>2019-11-29T14:31:24.000Z</time>
      </trkpt>
      <trkpt lat="43.31666" lon="5.66234">
        <ele>760</ele>
        <time>2019-11-29T14:31:25.000Z</time>
      </trkpt>
      <trkpt lat="43.31666" lon="5.66233">
        <ele>760</ele>
        <time>2019-11-29T14:31:26.000Z</time>
      </trkpt>
      <trkpt lat="43.31665" lon="5.66232">
        <ele>759</ele>
        <time>2019-11-29T14:31:27.000Z</time>
      </trkpt>
      <trkpt lat="43.31665" lon="5.66232">
        <ele>759</ele>
        <time>2019-11-29T14:31:28.000Z</time>
      </trkpt>
      <trkpt lat="43.31664" lon="5.66231">
        <ele>759</ele>
        <time>2019-11-29T14:31:29.000Z</time>
      </trkpt>
      <trkpt lat="43.31663" lon="5.6623">
        <ele>759</ele>
        <time>2019-11-29T14:31:30.000Z</time>
      </trkpt>
      <trkpt lat="43.31663" lon="5.66229">
        <ele>759</ele>
        <time>2019-11-29T14:31:31.000Z</time>
      </trkpt>
      <trkpt lat="43.31662" lon="5.66228">
        <ele>759</ele>
        <time>2019-11-29T14:31:32.000Z</time>
      </trkpt>
      <trkpt lat="43.31662" lon="5.66227">
        <ele>759</ele>
        <time>2019-11-29T14:31:33.000Z</time>
      </trkpt>
      <trkpt lat="43.31661" lon="5.66226">
        <ele>758</ele>
        <time>2019-11-29T14:31:34.000Z</time>
      </trkpt>
      <trkpt lat="43.31661" lon="5.66225">
        <ele>758</ele>
        <time>2019-11-29T14:31:35.000Z</time>
      </trkpt>
      <trkpt lat="43.31661" lon="5.66224">
        <ele>758</ele>
        <time>2019-11-29T14:31:36.000Z</time>
      </trkpt>
      <trkpt lat="43.3166" lon="5.66224">
        <ele>758</ele>
        <time>2019-11-29T14:31:37.000Z</time>
      </trkpt>
      <trkpt lat="43.3166" lon="5.66223">
        <ele>758</ele>
        <time>2019-11-29T14:31:38.000Z</time>
      </trkpt>
      <trkpt lat="43.31659" lon="5.66222">
        <ele>758</ele>
        <time>2019-11-29T14:31:39.000Z</time>
      </trkpt>
      <trkpt lat="43.31658" lon="5.66221">
        <ele>758</ele>
        <time>2019-11-29T14:31:40.000Z</time>
      </trkpt>
      <trkpt lat="43.31658" lon="5.6622">
        <ele>757</ele>
        <time>2019-11-29T14:31:41.000Z</time>
      </trkpt>
      <trkpt lat="43.31657" lon="5.6622">
        <ele>757</ele>
        <time>2019-11-29T14:31:42.000Z</time>
      </trkpt>
      <trkpt lat="43.31657" lon="5.66219">
        <ele>757</ele>
        <time>2019-11-29T14:31:43.000Z</time>
      </trkpt>
      <trkpt lat="43.31657" lon="5.66218">
        <ele>757</ele>
        <time>2019-11-29T14:31:44.000Z</time>
      </trkpt>
      <trkpt lat="43.31656" lon="5.66217">
        <ele>757</ele>
        <time>2019-11-29T14:31:45.000Z</time>
      </trkpt>
      <trkpt lat="43.31656" lon="5.66216">
        <ele>757</ele>
        <time>2019-11-29T14:31:46.000Z</time>
      </trkpt>
      <trkpt lat="43.31655" lon="5.66215">
        <ele>757</ele>
        <time>2019-11-29T14:31:47.000Z</time>
      </trkpt>
      <trkpt lat="43.31655" lon="5.66214">
        <ele>757</ele>
        <time>2019-11-29T14:31:48.000Z</time>
      </trkpt>
      <trkpt lat="43.31654" lon="5.66214">
        <ele>756</ele>
        <time>2019-11-29T14:31:49.000Z</time>
      </trkpt>
      <trkpt lat="43.31654" lon="5.66213">
        <ele>756</ele>
        <time>2019-11-29T14:31:50.000Z</time>
      </trkpt>
      <trkpt lat="43.31654" lon="5.66213">
        <ele>756</ele>
        <time>2019-11-29T14:31:51.000Z</time>
      </trkpt>
      <trkpt lat="43.31653" lon="5.66212">
        <ele>755</ele>
        <time>2019-11-29T14:31:52.000Z</time>
      </trkpt>
      <trkpt lat="43.31653" lon="5.66211">
        <ele>755</ele>
        <time>2019-11-29T14:31:53.000Z</time>
      </trkpt>
      <trkpt lat="43.31652" lon="5.6621">
        <ele>754</ele>
        <time>2019-11-29T14:31:54.000Z</time>
      </trkpt>
      <trkpt lat="43.31652" lon="5.66209">
        <ele>754</ele>
        <time>2019-11-29T14:31:55.000Z</time>
      </trkpt>
      <trkpt lat="43.31651" lon="5.66208">
        <ele>754</ele>
        <time>2019-11-29T14:31:56.000Z</time>
      </trkpt>
      <trkpt lat="43.31651" lon="5.66207">
        <ele>753</ele>
        <time>2019-11-29T14:31:57.000Z</time>
      </trkpt>
      <trkpt lat="43.3165" lon="5.66206">
        <ele>753</ele>
        <time>2019-11-29T14:31:58.000Z</time>
      </trkpt>
      <trkpt lat="43.31649" lon="5.66205">
        <ele>753</ele>
        <time>2019-11-29T14:31:59.000Z</time>
      </trkpt>
      <trkpt lat="43.31649" lon="5.66204">
        <ele>752</ele>
        <time>2019-11-29T14:32:00.000Z</time>
      </trkpt>
      <trkpt lat="43.31648" lon="5.66202">
        <ele>752</ele>
        <time>2019-11-29T14:32:01.000Z</time>
      </trkpt>
      <trkpt lat="43.31648" lon="5.66201">
        <ele>752</ele>
        <time>2019-11-29T14:32:02.000Z</time>
      </trkpt>
      <trkpt lat="43.31648" lon="5.662">
        <ele>751</ele>
        <time>2019-11-29T14:32:03.000Z</time>
      </trkpt>
      <trkpt lat="43.31647" lon="5.66199">
        <ele>751</ele>
        <time>2019-11-29T14:32:04.000Z</time>
      </trkpt>
      <trkpt lat="43.31647" lon="5.66199">
        <ele>750</ele>
        <time>2019-11-29T14:32:05.000Z</time>
      </trkpt>
      <trkpt lat="43.31646" lon="5.66197">
        <ele>750</ele>
        <time>2019-11-29T14:32:06.000Z</time>
      </trkpt>
      <trkpt lat="43.31646" lon="5.66196">
        <ele>749</ele>
        <time>2019-11-29T14:32:07.000Z</time>
      </trkpt>
      <trkpt lat="43.31645" lon="5.66195">
        <ele>749</ele>
        <time>2019-11-29T14:32:08.000Z</time>
      </trkpt>
      <trkpt lat="43.31644" lon="5.66195">
        <ele>749</ele>
        <time>2019-11-29T14:32:09.000Z</time>
      </trkpt>
      <trkpt lat="43.31644" lon="5.66194">
        <ele>748</ele>
        <time>2019-11-29T14:32:10.000Z</time>
      </trkpt>
      <trkpt lat="43.31643" lon="5.66193">
        <ele>748</ele>
        <time>2019-11-29T14:32:11.000Z</time>
      </trkpt>
      <trkpt lat="43.31642" lon="5.66192">
        <ele>747</ele>
        <time>2019-11-29T14:32:12.000Z</time>
      </trkpt>
      <trkpt lat="43.31641" lon="5.66192">
        <ele>747</ele>
        <time>2019-11-29T14:32:13.000Z</time>
      </trkpt>
      <trkpt lat="43.3164" lon="5.66191">
        <ele>747</ele>
        <time>2019-11-29T14:32:14.000Z</time>
      </trkpt>
      <trkpt lat="43.3164" lon="5.66191">
        <ele>746</ele>
        <time>2019-11-29T14:32:15.000Z</time>
      </trkpt>
      <trkpt lat="43.31639" lon="5.6619">
        <ele>746</ele>
        <time>2019-11-29T14:32:16.000Z</time>
      </trkpt>
      <trkpt lat="43.31639" lon="5.66189">
        <ele>746</ele>
        <time>2019-11-29T14:32:17.000Z</time>
      </trkpt>
      <trkpt lat="43.31638" lon="5.66188">
        <ele>745</ele>
        <time>2019-11-29T14:32:18.000Z</time>
      </trkpt>
      <trkpt lat="43.31638" lon="5.66187">
        <ele>745</ele>
        <time>2019-11-29T14:32:19.000Z</time>
      </trkpt>
      <trkpt lat="43.31638" lon="5.66186">
        <ele>745</ele>
        <time>2019-11-29T14:32:20.000Z</time>
      </trkpt>
      <trkpt lat="43.31637" lon="5.66186">
        <ele>744</ele>
        <time>2019-11-29T14:32:21.000Z</time>
      </trkpt>
      <trkpt lat="43.31636" lon="5.66185">
        <ele>744</ele>
        <time>2019-11-29T14:32:22.000Z</time>
      </trkpt>
      <trkpt lat="43.31635" lon="5.66184">
        <ele>744</ele>
        <time>2019-11-29T14:32:23.000Z</time>
      </trkpt>
      <trkpt lat="43.31635" lon="5.66184">
        <ele>743</ele>
        <time>2019-11-29T14:32:24.000Z</time>
      </trkpt>
      <trkpt lat="43.31634" lon="5.66183">
        <ele>743</ele>
        <time>2019-11-29T14:32:25.000Z</time>
      </trkpt>
      <trkpt lat="43.31634" lon="5.66182">
        <ele>743</ele>
        <time>2019-11-29T14:32:26.000Z</time>
      </trkpt>
      <trkpt lat="43.31633" lon="5.66182">
        <ele>742</ele>
        <time>2019-11-29T14:32:27.000Z</time>
      </trkpt>
      <trkpt lat="43.31632" lon="5.66181">
        <ele>742</ele>
        <time>2019-11-29T14:32:28.000Z</time>
      </trkpt>
      <trkpt lat="43.31631" lon="5.66181">
        <ele>742</ele>
        <time>2019-11-29T14:32:29.000Z</time>
      </trkpt>
      <trkpt lat="43.31631" lon="5.6618">
        <ele>742</ele>
        <time>2019-11-29T14:32:30.000Z</time>
      </trkpt>
      <trkpt lat="43.3163" lon="5.6618">
        <ele>741</ele>
        <time>2019-11-29T14:32:31.000Z</time>
      </trkpt>
      <trkpt lat="43.31629" lon="5.6618">
        <ele>741</ele>
        <time>2019-11-29T14:32:32.000Z</time>
      </trkpt>
      <trkpt lat="43.31629" lon="5.6618">
        <ele>741</ele>
        <time>2019-11-29T14:32:33.000Z</time>
      </trkpt>
      <trkpt lat="43.31628" lon="5.6618">
        <ele>741</ele>
        <time>2019-11-29T14:32:34.000Z</time>
      </trkpt>
      <trkpt lat="43.31627" lon="5.6618">
        <ele>740</ele>
        <time>2019-11-29T14:32:35.000Z</time>
      </trkpt>
      <trkpt lat="43.31627" lon="5.66179">
        <ele>740</ele>
        <time>2019-11-29T14:32:36.000Z</time>
      </trkpt>
      <trkpt lat="43.31626" lon="5.66179">
        <ele>740</ele>
        <time>2019-11-29T14:32:37.000Z</time>
      </trkpt>
      <trkpt lat="43.31626" lon="5.66179">
        <ele>740</ele>
        <time>2019-11-29T14:32:38.000Z</time>
      </trkpt>
      <trkpt lat="43.31625" lon="5.6618">
        <ele>740</ele>
        <time>2019-11-29T14:32:39.000Z</time>
      </trkpt>
      <trkpt lat="43.31624" lon="5.6618">
        <ele>739</ele>
        <time>2019-11-29T14:32:40.000Z</time>
      </trkpt>
      <trkpt lat="43.31624" lon="5.6618">
        <ele>739</ele>
        <time>2019-11-29T14:32:41.000Z</time>
      </trkpt>
      <trkpt lat="43.31623" lon="5.6618">
        <ele>739</ele>
        <time>2019-11-29T14:32:42.000Z</time>
      </trkpt>
      <trkpt lat="43.31622" lon="5.6618">
        <ele>739</ele>
        <time>2019-11-29T14:32:43.000Z</time>
      </trkpt>
      <trkpt lat="43.31622" lon="5.6618">
        <ele>739</ele>
        <time>2019-11-29T14:32:44.000Z</time>
      </trkpt>
      <trkpt lat="43.31621" lon="5.6618">
        <ele>739</ele>
        <time>2019-11-29T14:32:45.000Z</time>
      </trkpt>
      <trkpt lat="43.31621" lon="5.6618">
        <ele>739</ele>
        <time>2019-11-29T14:32:46.000Z</time>
      </trkpt>
      <trkpt lat="43.3162" lon="5.6618">
        <ele>739</ele>
        <time>2019-11-29T14:32:47.000Z</time>
      </trkpt>
      <trkpt lat="43.31619" lon="5.66181">
        <ele>739</ele>
        <time>2019-11-29T14:32:48.000Z</time>
      </trkpt>
      <trkpt lat="43.31618" lon="5.66181">
        <ele>739</ele>
        <time>2019-11-29T14:32:49.000Z</time>
      </trkpt>
      <trkpt lat="43.31617" lon="5.66182">
        <ele>739</ele>
        <time>2019-11-29T14:32:50.000Z</time>
      </trkpt>
      <trkpt lat="43.31616" lon="5.66181">
        <ele>738</ele>
        <time>2019-11-29T14:32:51.000Z</time>
      </trkpt>
      <trkpt lat="43.31615" lon="5.66181">
        <ele>738</ele>
        <time>2019-11-29T14:32:52.000Z</time>
      </trkpt>
      <trkpt lat="43.31614" lon="5.6618">
        <ele>738</ele>
        <time>2019-11-29T14:32:53.000Z</time>
      </trkpt>
      <trkpt lat="43.31614" lon="5.6618">
        <ele>738</ele>
        <time>2019-11-29T14:32:54.000Z</time>
      </trkpt>
      <trkpt lat="43.31613" lon="5.6618">
        <ele>738</ele>
        <time>2019-11-29T14:32:55.000Z</time>
      </trkpt>
      <trkpt lat="43.31612" lon="5.6618">
        <ele>737</ele>
        <time>2019-11-29T14:32:56.000Z</time>
      </trkpt>
      <trkpt lat="43.31612" lon="5.6618">
        <ele>737</ele>
        <time>2019-11-29T14:32:57.000Z</time>
      </trkpt>
      <trkpt lat="43.31611" lon="5.6618">
        <ele>737</ele>
        <time>2019-11-29T14:32:58.000Z</time>
      </trkpt>
      <trkpt lat="43.3161" lon="5.66181">
        <ele>737</ele>
        <time>2019-11-29T14:32:59.000Z</time>
      </trkpt>
      <trkpt lat="43.3161" lon="5.66181">
        <ele>737</ele>
        <time>2019-11-29T14:33:00.000Z</time>
      </trkpt>
      <trkpt lat="43.31609" lon="5.66181">
        <ele>737</ele>
        <time>2019-11-29T14:33:01.000Z</time>
      </trkpt>
      <trkpt lat="43.31609" lon="5.66182">
        <ele>736</ele>
        <time>2019-11-29T14:33:02.000Z</time>
      </trkpt>
      <trkpt lat="43.31608" lon="5.66182">
        <ele>736</ele>
        <time>2019-11-29T14:33:03.000Z</time>
      </trkpt>
      <trkpt lat="43.31608" lon="5.66182">
        <ele>736</ele>
        <time>2019-11-29T14:33:04.000Z</time>
      </trkpt>
      <trkpt lat="43.31608" lon="5.66182">
        <ele>736</ele>
        <time>2019-11-29T14:33:05.000Z</time>
      </trkpt>
      <trkpt lat="43.31607" lon="5.66182">
        <ele>736</ele>
        <time>2019-11-29T14:33:06.000Z</time>
      </trkpt>
      <trkpt lat="43.31607" lon="5.66182">
        <ele>736</ele>
        <time>2019-11-29T14:33:07.000Z</time>
      </trkpt>
      <trkpt lat="43.31606" lon="5.66182">
        <ele>736</ele>
        <time>2019-11-29T14:33:08.000Z</time>
      </trkpt>
      <trkpt lat="43.31606" lon="5.66182">
        <ele>735</ele>
        <time>2019-11-29T14:33:09.000Z</time>
      </trkpt>
      <trkpt lat="43.31606" lon="5.66182">
        <ele>735</ele>
        <time>2019-11-29T14:33:10.000Z</time>
      </trkpt>
      <trkpt lat="43.31606" lon="5.66182">
        <ele>735</ele>
        <time>2019-11-29T14:33:11.000Z</time>
      </trkpt>
      <trkpt lat="43.31605" lon="5.66182">
        <ele>735</ele>
        <time>2019-11-29T14:33:12.000Z</time>
      </trkpt>
      <trkpt lat="43.31604" lon="5.66183">
        <ele>734</ele>
        <time>2019-11-29T14:33:13.000Z</time>
      </trkpt>
      <trkpt lat="43.31604" lon="5.66183">
        <ele>734</ele>
        <time>2019-11-29T14:33:14.000Z</time>
      </trkpt>
      <trkpt lat="43.31604" lon="5.66183">
        <ele>734</ele>
        <time>2019-11-29T14:33:15.000Z</time>
      </trkpt>
      <trkpt lat="43.31603" lon="5.66184">
        <ele>734</ele>
        <time>2019-11-29T14:33:16.000Z</time>
      </trkpt>
      <trkpt lat="43.31602" lon="5.66184">
        <ele>734</ele>
        <time>2019-11-29T14:33:17.000Z</time>
      </trkpt>
      <trkpt lat="43.31601" lon="5.66185">
        <ele>734</ele>
        <time>2019-11-29T14:33:18.000Z</time>
      </trkpt>
      <trkpt lat="43.316" lon="5.66186">
        <ele>734</ele>
        <time>2019-11-29T14:33:19.000Z</time>
      </trkpt>
      <trkpt lat="43.31599" lon="5.66187">
        <ele>734</ele>
        <time>2019-11-29T14:33:20.000Z</time>
      </trkpt>
      <trkpt lat="43.31598" lon="5.66188">
        <ele>734</ele>
        <time>2019-11-29T14:33:21.000Z</time>
      </trkpt>
      <trkpt lat="43.31597" lon="5.66189">
        <ele>733</ele>
        <time>2019-11-29T14:33:22.000Z</time>
      </trkpt>
      <trkpt lat="43.31597" lon="5.6619">
        <ele>733</ele>
        <time>2019-11-29T14:33:23.000Z</time>
      </trkpt>
      <trkpt lat="43.31596" lon="5.66191">
        <ele>733</ele>
        <time>2019-11-29T14:33:24.000Z</time>
      </trkpt>
      <trkpt lat="43.31596" lon="5.66192">
        <ele>733</ele>
        <time>2019-11-29T14:33:25.000Z</time>
      </trkpt>
      <trkpt lat="43.31595" lon="5.66193">
        <ele>733</ele>
        <time>2019-11-29T14:33:26.000Z</time>
      </trkpt>
      <trkpt lat="43.31594" lon="5.66194">
        <ele>733</ele>
        <time>2019-11-29T14:33:27.000Z</time>
      </trkpt>
      <trkpt lat="43.31593" lon="5.66194">
        <ele>732</ele>
        <time>2019-11-29T14:33:28.000Z</time>
      </trkpt>
      <trkpt lat="43.31593" lon="5.66195">
        <ele>732</ele>
        <time>2019-11-29T14:33:29.000Z</time>
      </trkpt>
      <trkpt lat="43.31592" lon="5.66195">
        <ele>732</ele>
        <time>2019-11-29T14:33:30.000Z</time>
      </trkpt>
      <trkpt lat="43.31591" lon="5.66196">
        <ele>732</ele>
        <time>2019-11-29T14:33:31.000Z</time>
      </trkpt>
      <trkpt lat="43.3159" lon="5.66196">
        <ele>732</ele>
        <time>2019-11-29T14:33:32.000Z</time>
      </trkpt>
      <trkpt lat="43.31589" lon="5.66196">
        <ele>732</ele>
        <time>2019-11-29T14:33:33.000Z</time>
      </trkpt>
      <trkpt lat="43.31587" lon="5.66195">
        <ele>732</ele>
        <time>2019-11-29T14:33:34.000Z</time>
      </trkpt>
      <trkpt lat="43.31586" lon="5.66195">
        <ele>732</ele>
        <time>2019-11-29T14:33:35.000Z</time>
      </trkpt>
      <trkpt lat="43.31585" lon="5.66195">
        <ele>732</ele>
        <time>2019-11-29T14:33:36.000Z</time>
      </trkpt>
      <trkpt lat="43.31584" lon="5.66195">
        <ele>732</ele>
        <time>2019-11-29T14:33:37.000Z</time>
      </trkpt>
      <trkpt lat="43.31583" lon="5.66195">
        <ele>731</ele>
        <time>2019-11-29T14:33:38.000Z</time>
      </trkpt>
      <trkpt lat="43.31582" lon="5.66195">
        <ele>731</ele>
        <time>2019-11-29T14:33:39.000Z</time>
      </trkpt>
      <trkpt lat="43.31581" lon="5.66195">
        <ele>731</ele>
        <time>2019-11-29T14:33:40.000Z</time>
      </trkpt>
      <trkpt lat="43.31579" lon="5.66194">
        <ele>731</ele>
        <time>2019-11-29T14:33:41.000Z</time>
      </trkpt>
      <trkpt lat="43.31578" lon="5.66194">
        <ele>731</ele>
        <time>2019-11-29T14:33:42.000Z</time>
      </trkpt>
      <trkpt lat="43.31577" lon="5.66193">
        <ele>731</ele>
        <time>2019-11-29T14:33:43.000Z</time>
      </trkpt>
      <trkpt lat="43.31576" lon="5.66193">
        <ele>731</ele>
        <time>2019-11-29T14:33:44.000Z</time>
      </trkpt>
      <trkpt lat="43.31575" lon="5.66192">
        <ele>730</ele>
        <time>2019-11-29T14:33:45.000Z</time>
      </trkpt>
      <trkpt lat="43.31573" lon="5.66192">
        <ele>730</ele>
        <time>2019-11-29T14:33:46.000Z</time>
      </trkpt>
      <trkpt lat="43.31572" lon="5.66191">
        <ele>730</ele>
        <time>2019-11-29T14:33:47.000Z</time>
      </trkpt>
      <trkpt lat="43.31572" lon="5.66191">
        <ele>730</ele>
        <time>2019-11-29T14:33:48.000Z</time>
      </trkpt>
      <trkpt lat="43.31572" lon="5.66191">
        <ele>729</ele>
        <time>2019-11-29T14:33:49.000Z</time>
      </trkpt>
      <trkpt lat="43.31571" lon="5.66191">
        <ele>729</ele>
        <time>2019-11-29T14:33:50.000Z</time>
      </trkpt>
      <trkpt lat="43.31571" lon="5.66191">
        <ele>729</ele>
        <time>2019-11-29T14:33:51.000Z</time>
      </trkpt>
      <trkpt lat="43.3157" lon="5.66191">
        <ele>728</ele>
        <time>2019-11-29T14:33:52.000Z</time>
      </trkpt>
      <trkpt lat="43.31569" lon="5.66191">
        <ele>728</ele>
        <time>2019-11-29T14:33:53.000Z</time>
      </trkpt>
      <trkpt lat="43.31569" lon="5.6619">
        <ele>728</ele>
        <time>2019-11-29T14:33:54.000Z</time>
      </trkpt>
      <trkpt lat="43.31568" lon="5.6619">
        <ele>728</ele>
        <time>2019-11-29T14:33:55.000Z</time>
      </trkpt>
      <trkpt lat="43.31567" lon="5.6619">
        <ele>728</ele>
        <time>2019-11-29T14:33:56.000Z</time>
      </trkpt>
      <trkpt lat="43.31566" lon="5.66189">
        <ele>728</ele>
        <time>2019-11-29T14:33:57.000Z</time>
      </trkpt>
      <trkpt lat="43.31566" lon="5.66189">
        <ele>727</ele>
        <time>2019-11-29T14:33:58.000Z</time>
      </trkpt>
      <trkpt lat="43.31565" lon="5.66188">
        <ele>727</ele>
        <time>2019-11-29T14:33:59.000Z</time>
      </trkpt>
      <trkpt lat="43.31564" lon="5.66187">
        <ele>727</ele>
        <time>2019-11-29T14:34:00.000Z</time>
      </trkpt>
      <trkpt lat="43.31563" lon="5.66187">
        <ele>727</ele>
        <time>2019-11-29T14:34:01.000Z</time>
      </trkpt>
      <trkpt lat="43.31562" lon="5.66187">
        <ele>727</ele>
        <time>2019-11-29T14:34:02.000Z</time>
      </trkpt>
      <trkpt lat="43.31561" lon="5.66186">
        <ele>727</ele>
        <time>2019-11-29T14:34:03.000Z</time>
      </trkpt>
      <trkpt lat="43.3156" lon="5.66186">
        <ele>726</ele>
        <time>2019-11-29T14:34:04.000Z</time>
      </trkpt>
      <trkpt lat="43.31559" lon="5.66185">
        <ele>726</ele>
        <time>2019-11-29T14:34:05.000Z</time>
      </trkpt>
      <trkpt lat="43.31558" lon="5.66185">
        <ele>726</ele>
        <time>2019-11-29T14:34:06.000Z</time>
      </trkpt>
      <trkpt lat="43.31558" lon="5.66185">
        <ele>726</ele>
        <time>2019-11-29T14:34:07.000Z</time>
      </trkpt>
      <trkpt lat="43.31557" lon="5.66184">
        <ele>726</ele>
        <time>2019-11-29T14:34:08.000Z</time>
      </trkpt>
      <trkpt lat="43.31556" lon="5.66184">
        <ele>726</ele>
        <time>2019-11-29T14:34:09.000Z</time>
      </trkpt>
      <trkpt lat="43.31556" lon="5.66184">
        <ele>725</ele>
        <time>2019-11-29T14:34:10.000Z</time>
      </trkpt>
      <trkpt lat="43.31555" lon="5.66184">
        <ele>725</ele>
        <time>2019-11-29T14:34:11.000Z</time>
      </trkpt>
      <trkpt lat="43.31554" lon="5.66184">
        <ele>725</ele>
        <time>2019-11-29T14:34:12.000Z</time>
      </trkpt>
      <trkpt lat="43.31553" lon="5.66184">
        <ele>725</ele>
        <time>2019-11-29T14:34:13.000Z</time>
      </trkpt>
      <trkpt lat="43.31553" lon="5.66184">
        <ele>725</ele>
        <time>2019-11-29T14:34:14.000Z</time>
      </trkpt>
      <trkpt lat="43.31552" lon="5.66184">
        <ele>725</ele>
        <time>2019-11-29T14:34:15.000Z</time>
      </trkpt>
      <trkpt lat="43.31552" lon="5.66184">
        <ele>724</ele>
        <time>2019-11-29T14:34:16.000Z</time>
      </trkpt>
    </trkseg>
  </trk>
</gpx>